<?xml version='1.0' encoding='UTF-8'?><gpx version="1.1" creator="JPX - https://github.com/jenetics/jpx" xmlns="http://www.topografix.com/GPX/1/1"><trk><trkseg><trkpt lat="45.42976360309197" lon="11.123133011771282"><ele>131.0</ele><time>2026-04-25T06:56:42.999Z</time></trkpt><trkpt lat="45.42980883126467" lon="11.123198256720416"><ele>131.0</ele><time>2026-04-25T06:56:46.999Z</time></trkpt><trkpt lat="45.42987567333507" lon="11.123259407561687"><ele>131.0</ele><time>2026-04-25T06:57:05.999Z</time></trkpt><trkpt lat="45.42992987769614" lon="11.123209796252697"><ele>131.0</ele><time>2026-04-25T06:57:07.999Z</time></trkpt><trkpt lat="45.42989026137279" lon="11.123132764645264"><ele>131.0</ele><time>2026-04-25T06:57:10.999Z</time></trkpt><trkpt lat="45.429813682332004" lon="11.123178470755787"><ele>131.0</ele><time>2026-04-25T06:57:15.999Z</time></trkpt><trkpt lat="45.429759811523915" lon="11.123115347216084"><ele>131.0</ele><time>2026-04-25T06:57:20.999Z</time></trkpt><trkpt lat="45.429770179943986" lon="11.123218531455933"><ele>131.0</ele><time>2026-04-25T06:57:27.999Z</time></trkpt><trkpt lat="45.42978936471872" lon="11.123355345493337"><ele>131.0</ele><time>2026-04-25T06:57:32.999Z</time></trkpt><trkpt lat="45.42989720953521" lon="11.123410421562856"><ele>131.0</ele><time>2026-04-25T06:57:34.999Z</time></trkpt><trkpt lat="45.42998090823359" lon="11.123412972009215"><ele>131.0</ele><time>2026-04-25T06:57:35.999Z</time></trkpt><trkpt lat="45.4300694880432" lon="11.1234497957698"><ele>131.0</ele><time>2026-04-25T06:57:36.999Z</time></trkpt><trkpt lat="45.430144344846425" lon="11.123577530533193"><ele>131.0</ele><time>2026-04-25T06:57:37.999Z</time></trkpt><trkpt lat="45.43023303141906" lon="11.123599831363048"><ele>131.0</ele><time>2026-04-25T06:57:38.999Z</time></trkpt><trkpt lat="45.43030474998082" lon="11.123557396254649"><ele>131.0</ele><time>2026-04-25T06:57:39.999Z</time></trkpt><trkpt lat="45.43036964218661" lon="11.123369283948852"><ele>131.0</ele><time>2026-04-25T06:57:41.999Z</time></trkpt><trkpt lat="45.430384092456684" lon="11.123217718287579"><ele>131.0</ele><time>2026-04-25T06:57:42.999Z</time></trkpt><trkpt lat="45.43040737686538" lon="11.123071668105041"><ele>131.0</ele><time>2026-04-25T06:57:43.999Z</time></trkpt><trkpt lat="45.43044708279459" lon="11.122955186211373"><ele>131.0</ele><time>2026-04-25T06:57:44.999Z</time></trkpt><trkpt lat="45.43046008747608" lon="11.122846130830222"><ele>131.0</ele><time>2026-04-25T06:57:45.999Z</time></trkpt><trkpt lat="45.43050618576735" lon="11.122770460248187"><ele>131.0</ele><time>2026-04-25T06:57:46.999Z</time></trkpt><trkpt lat="45.430569812018874" lon="11.12274435214358"><ele>131.0</ele><time>2026-04-25T06:57:47.999Z</time></trkpt><trkpt lat="45.430647045509176" lon="11.122838013230462"><ele>131.0</ele><time>2026-04-25T06:57:48.999Z</time></trkpt><trkpt lat="45.430718410795606" lon="11.12285720236015"><ele>131.25</ele><time>2026-04-25T06:57:49.999Z</time></trkpt><trkpt lat="45.430815849073255" lon="11.122883402167698"><ele>131.5</ele><time>2026-04-25T06:57:51.999Z</time></trkpt><trkpt lat="45.43084578851426" lon="11.122671338468756"><ele>131.75</ele><time>2026-04-25T06:57:52.999Z</time></trkpt><trkpt lat="45.43088428160599" lon="11.122540823983044"><ele>132.0</ele><time>2026-04-25T06:57:53.999Z</time></trkpt><trkpt lat="45.43091397881094" lon="11.12239083673611"><ele>130.79999999999998</ele><time>2026-04-25T06:57:54.999Z</time></trkpt><trkpt lat="45.43090441753684" lon="11.122247197640865"><ele>129.6</ele><time>2026-04-25T06:57:55.999Z</time></trkpt><trkpt lat="45.43092433105055" lon="11.122149908109636"><ele>128.39999999999998</ele><time>2026-04-25T06:57:56.999Z</time></trkpt><trkpt lat="45.43102880315911" lon="11.12213324876737"><ele>127.19999999999999</ele><time>2026-04-25T06:57:58.999Z</time></trkpt><trkpt lat="45.43111506775096" lon="11.122140714681837"><ele>126.0</ele><time>2026-04-25T06:57:59.999Z</time></trkpt><trkpt lat="45.431217041258165" lon="11.122146544905531"><ele>126.75</ele><time>2026-04-25T06:58:00.999Z</time></trkpt><trkpt lat="45.43132958692172" lon="11.12214137013012"><ele>127.5</ele><time>2026-04-25T06:58:01.999Z</time></trkpt><trkpt lat="45.43144312990387" lon="11.122199895098639"><ele>128.25</ele><time>2026-04-25T06:58:02.999Z</time></trkpt><trkpt lat="45.43156152077154" lon="11.12225957948399"><ele>129.0</ele><time>2026-04-25T06:58:03.999Z</time></trkpt><trkpt lat="45.43167723741533" lon="11.12232640849559"><ele>129.0</ele><time>2026-04-25T06:58:04.999Z</time></trkpt><trkpt lat="45.43179626499476" lon="11.12239085436355"><ele>129.0</ele><time>2026-04-25T06:58:05.999Z</time></trkpt><trkpt lat="45.43189195750918" lon="11.122442665781087"><ele>129.0</ele><time>2026-04-25T06:58:06.999Z</time></trkpt><trkpt lat="45.43200320202348" lon="11.122505396844916"><ele>129.0</ele><time>2026-04-25T06:58:07.999Z</time></trkpt><trkpt lat="45.43211928774473" lon="11.122574229876024"><ele>131.5</ele><time>2026-04-25T06:58:08.999Z</time></trkpt><trkpt lat="45.432230148482276" lon="11.122646059238345"><ele>134.0</ele><time>2026-04-25T06:58:09.999Z</time></trkpt><trkpt lat="45.43233103211272" lon="11.12272117794472"><ele>136.5</ele><time>2026-04-25T06:58:10.999Z</time></trkpt><trkpt lat="45.43243150829236" lon="11.122806523362753"><ele>139.0</ele><time>2026-04-25T06:58:11.999Z</time></trkpt><trkpt lat="45.432533422340015" lon="11.122885981572745"><ele>139.0</ele><time>2026-04-25T06:58:12.999Z</time></trkpt><trkpt lat="45.43265442115161" lon="11.122949846597756"><ele>139.0</ele><time>2026-04-25T06:58:13.999Z</time></trkpt><trkpt lat="45.43278400808503" lon="11.123037782036986"><ele>139.0</ele><time>2026-04-25T06:58:14.999Z</time></trkpt><trkpt lat="45.43290737541747" lon="11.12311167941893"><ele>139.0</ele><time>2026-04-25T06:58:15.999Z</time></trkpt><trkpt lat="45.43300171943123" lon="11.123164870375138"><ele>138.6</ele><time>2026-04-25T06:58:16.999Z</time></trkpt><trkpt lat="45.43309227531886" lon="11.123203092076448"><ele>138.2</ele><time>2026-04-25T06:58:18.999Z</time></trkpt><trkpt lat="45.43313921727516" lon="11.123011166463122"><ele>137.79999999999998</ele><time>2026-04-25T06:58:20.999Z</time></trkpt><trkpt lat="45.433176742915364" lon="11.122850487265582"><ele>137.4</ele><time>2026-04-25T06:58:22.999Z</time></trkpt><trkpt lat="45.43321484091851" lon="11.122745968904812"><ele>137.0</ele><time>2026-04-25T06:58:24.999Z</time></trkpt><trkpt lat="45.433318069957544" lon="11.122775502542327"><ele>137.0</ele><time>2026-04-25T06:58:39.999Z</time></trkpt><trkpt lat="45.433385543795296" lon="11.122807847481475"><ele>137.0</ele><time>2026-04-25T06:58:40.999Z</time></trkpt><trkpt lat="45.433451315431206" lon="11.122877639105088"><ele>137.0</ele><time>2026-04-25T06:58:41.999Z</time></trkpt><trkpt lat="45.43353144780312" lon="11.122934306759776"><ele>137.0</ele><time>2026-04-25T06:58:42.999Z</time></trkpt><trkpt lat="45.43364036075772" lon="11.122991739726965"><ele>137.0</ele><time>2026-04-25T06:58:43.999Z</time></trkpt><trkpt lat="45.43375592897588" lon="11.123066940496509"><ele>136.25</ele><time>2026-04-25T06:58:44.999Z</time></trkpt><trkpt lat="45.43388220270514" lon="11.123101414506268"><ele>135.5</ele><time>2026-04-25T06:58:45.999Z</time></trkpt><trkpt lat="45.43400652074715" lon="11.12313283600997"><ele>134.75</ele><time>2026-04-25T06:58:46.999Z</time></trkpt><trkpt lat="45.43413178583572" lon="11.123191209221186"><ele>134.0</ele><time>2026-04-25T06:58:47.999Z</time></trkpt><trkpt lat="45.434245923251844" lon="11.123251661398387"><ele>135.0</ele><time>2026-04-25T06:58:48.999Z</time></trkpt><trkpt lat="45.43435751343163" lon="11.123314939372962"><ele>136.0</ele><time>2026-04-25T06:58:49.999Z</time></trkpt><trkpt lat="45.43448036201654" lon="11.123394805629632"><ele>137.0</ele><time>2026-04-25T06:58:50.999Z</time></trkpt><trkpt lat="45.434589634057026" lon="11.123530067391656"><ele>138.0</ele><time>2026-04-25T06:58:51.999Z</time></trkpt><trkpt lat="45.43470371178604" lon="11.12364428847262"><ele>138.0</ele><time>2026-04-25T06:58:52.999Z</time></trkpt><trkpt lat="45.43481542725705" lon="11.12375284239067"><ele>138.0</ele><time>2026-04-25T06:58:53.999Z</time></trkpt><trkpt lat="45.43492375914404" lon="11.12387801332196"><ele>138.0</ele><time>2026-04-25T06:58:54.999Z</time></trkpt><trkpt lat="45.435044951378856" lon="11.123984492259599"><ele>138.0</ele><time>2026-04-25T06:58:55.999Z</time></trkpt><trkpt lat="45.43517325423923" lon="11.124075829955746"><ele>138.75</ele><time>2026-04-25T06:58:56.999Z</time></trkpt><trkpt lat="45.43530437118849" lon="11.124170172040342"><ele>139.5</ele><time>2026-04-25T06:58:57.999Z</time></trkpt><trkpt lat="45.43543980120242" lon="11.12425643618005"><ele>140.25</ele><time>2026-04-25T06:58:58.999Z</time></trkpt><trkpt lat="45.43557708772504" lon="11.124313257427366"><ele>141.0</ele><time>2026-04-25T06:58:59.999Z</time></trkpt><trkpt lat="45.43572654074065" lon="11.12433844078436"><ele>141.0</ele><time>2026-04-25T06:59:00.999Z</time></trkpt><trkpt lat="45.43588335305465" lon="11.124334744484882"><ele>141.0</ele><time>2026-04-25T06:59:01.999Z</time></trkpt><trkpt lat="45.43604741851373" lon="11.124334524022306"><ele>141.0</ele><time>2026-04-25T06:59:02.999Z</time></trkpt><trkpt lat="45.43619989433838" lon="11.124401559638025"><ele>138.66666666666666</ele><time>2026-04-25T06:59:03.999Z</time></trkpt><trkpt lat="45.436352288799476" lon="11.124477303129868"><ele>136.33333333333331</ele><time>2026-04-25T06:59:04.999Z</time></trkpt><trkpt lat="45.436510089970874" lon="11.124536569824958"><ele>134.0</ele><time>2026-04-25T06:59:05.999Z</time></trkpt><trkpt lat="45.43665117928727" lon="11.124615564665337"><ele>134.0</ele><time>2026-04-25T06:59:06.999Z</time></trkpt><trkpt lat="45.436788820338606" lon="11.124683805178085"><ele>134.0</ele><time>2026-04-25T06:59:07.999Z</time></trkpt><trkpt lat="45.436929489997155" lon="11.124748701600339"><ele>134.0</ele><time>2026-04-25T06:59:08.999Z</time></trkpt><trkpt lat="45.43707151031082" lon="11.124826016294755"><ele>134.0</ele><time>2026-04-25T06:59:09.999Z</time></trkpt><trkpt lat="45.43722141243463" lon="11.124878153892501"><ele>132.5</ele><time>2026-04-25T06:59:10.999Z</time></trkpt><trkpt lat="45.43736702736628" lon="11.12488329375852"><ele>131.0</ele><time>2026-04-25T06:59:11.999Z</time></trkpt><trkpt lat="45.43750417089116" lon="11.124865303272463"><ele>129.5</ele><time>2026-04-25T06:59:12.999Z</time></trkpt><trkpt lat="45.43765093025664" lon="11.124820439711813"><ele>128.0</ele><time>2026-04-25T06:59:13.999Z</time></trkpt><trkpt lat="45.43779934561548" lon="11.124752883789307"><ele>128.0</ele><time>2026-04-25T06:59:14.999Z</time></trkpt><trkpt lat="45.43795123687962" lon="11.124656952644683"><ele>128.0</ele><time>2026-04-25T06:59:15.999Z</time></trkpt><trkpt lat="45.438102236859976" lon="11.12460516565133"><ele>128.0</ele><time>2026-04-25T06:59:16.999Z</time></trkpt><trkpt lat="45.438231587655075" lon="11.124565017450166"><ele>128.75</ele><time>2026-04-25T06:59:17.999Z</time></trkpt><trkpt lat="45.43833735716116" lon="11.124544162044918"><ele>129.5</ele><time>2026-04-25T06:59:18.999Z</time></trkpt><trkpt lat="45.438452647370234" lon="11.1245270329952"><ele>130.25</ele><time>2026-04-25T06:59:19.999Z</time></trkpt><trkpt lat="45.43857556973948" lon="11.124527036143371"><ele>131.0</ele><time>2026-04-25T06:59:20.999Z</time></trkpt><trkpt lat="45.438697423886296" lon="11.124581166289635"><ele>131.4</ele><time>2026-04-25T06:59:21.999Z</time></trkpt><trkpt lat="45.43881520406634" lon="11.12463394596886"><ele>131.8</ele><time>2026-04-25T06:59:22.999Z</time></trkpt><trkpt lat="45.438909784782965" lon="11.124676090096882"><ele>132.20000000000002</ele><time>2026-04-25T06:59:23.999Z</time></trkpt><trkpt lat="45.4389816965018" lon="11.124730775867823"><ele>132.6</ele><time>2026-04-25T06:59:24.999Z</time></trkpt><trkpt lat="45.43909518878698" lon="11.124780289363619"><ele>133.0</ele><time>2026-04-25T06:59:26.999Z</time></trkpt><trkpt lat="45.43917948448547" lon="11.124700793503042"><ele>133.0</ele><time>2026-04-25T06:59:27.999Z</time></trkpt><trkpt lat="45.43927100126388" lon="11.12462407506389"><ele>133.0</ele><time>2026-04-25T06:59:28.999Z</time></trkpt><trkpt lat="45.4393637811936" lon="11.12455720610197"><ele>133.0</ele><time>2026-04-25T06:59:29.999Z</time></trkpt><trkpt lat="45.439471152183394" lon="11.124517709880184"><ele>133.0</ele><time>2026-04-25T06:59:30.999Z</time></trkpt><trkpt lat="45.43958733350725" lon="11.124490720079166"><ele>133.0</ele><time>2026-04-25T06:59:31.999Z</time></trkpt><trkpt lat="45.43969547385568" lon="11.12450266904283"><ele>133.4</ele><time>2026-04-25T06:59:32.999Z</time></trkpt><trkpt lat="45.43978808328346" lon="11.124487932471204"><ele>133.8</ele><time>2026-04-25T06:59:33.998Z</time></trkpt><trkpt lat="45.43986741255653" lon="11.124449689915979"><ele>134.2</ele><time>2026-04-25T06:59:34.998Z</time></trkpt><trkpt lat="45.43994305456883" lon="11.1244481783758"><ele>134.6</ele><time>2026-04-25T06:59:35.998Z</time></trkpt><trkpt lat="45.440000255723234" lon="11.124395930048625"><ele>135.0</ele><time>2026-04-25T06:59:36.998Z</time></trkpt><trkpt lat="45.44008709661035" lon="11.124224023728784"><ele>135.0</ele><time>2026-04-25T06:59:38.998Z</time></trkpt><trkpt lat="45.44017863807683" lon="11.124146626120353"><ele>135.0</ele><time>2026-04-25T06:59:39.998Z</time></trkpt><trkpt lat="45.44027770183599" lon="11.124064216630906"><ele>135.0</ele><time>2026-04-25T06:59:40.998Z</time></trkpt><trkpt lat="45.440400297227704" lon="11.12397840826515"><ele>135.0</ele><time>2026-04-25T06:59:41.998Z</time></trkpt><trkpt lat="45.44053332052697" lon="11.123921027167608"><ele>136.4</ele><time>2026-04-25T06:59:42.998Z</time></trkpt><trkpt lat="45.44065334219133" lon="11.123852233252364"><ele>137.8</ele><time>2026-04-25T06:59:43.998Z</time></trkpt><trkpt lat="45.44072299998435" lon="11.123798468736254"><ele>139.2</ele><time>2026-04-25T06:59:44.998Z</time></trkpt><trkpt lat="45.44076708858886" lon="11.123633908082784"><ele>140.6</ele><time>2026-04-25T06:59:46.998Z</time></trkpt><trkpt lat="45.440718832728464" lon="11.123522633464672"><ele>142.0</ele><time>2026-04-25T06:59:47.999Z</time></trkpt><trkpt lat="45.44063209650171" lon="11.123437251231833"><ele>142.0</ele><time>2026-04-25T06:59:48.999Z</time></trkpt><trkpt lat="45.440532281537" lon="11.123343815449916"><ele>142.0</ele><time>2026-04-25T06:59:49.999Z</time></trkpt><trkpt lat="45.440442027757456" lon="11.123211067359108"><ele>142.0</ele><time>2026-04-25T06:59:50.999Z</time></trkpt><trkpt lat="45.44035466375537" lon="11.123093570696733"><ele>142.0</ele><time>2026-04-25T06:59:51.999Z</time></trkpt><trkpt lat="45.440285260897845" lon="11.122957534006224"><ele>139.75</ele><time>2026-04-25T06:59:52.999Z</time></trkpt><trkpt lat="45.44024752984622" lon="11.1227800760038"><ele>137.5</ele><time>2026-04-25T06:59:53.999Z</time></trkpt><trkpt lat="45.44021285345312" lon="11.122582873780745"><ele>135.25</ele><time>2026-04-25T06:59:54.999Z</time></trkpt><trkpt lat="45.440186971081026" lon="11.122388512264287"><ele>133.0</ele><time>2026-04-25T06:59:55.999Z</time></trkpt><trkpt lat="45.44016342676278" lon="11.122197415788634"><ele>133.0</ele><time>2026-04-25T06:59:56.999Z</time></trkpt><trkpt lat="45.44014210957193" lon="11.122010203274504"><ele>133.0</ele><time>2026-04-25T06:59:57.999Z</time></trkpt><trkpt lat="45.44011918000006" lon="11.121815226498054"><ele>133.0</ele><time>2026-04-25T06:59:58.999Z</time></trkpt><trkpt lat="45.440093984870806" lon="11.12162284469647"><ele>133.0</ele><time>2026-04-25T06:59:59.999Z</time></trkpt><trkpt lat="45.44005801423461" lon="11.12144512704831"><ele>133.0</ele><time>2026-04-25T07:00:00.999Z</time></trkpt><trkpt lat="45.4400401916472" lon="11.121277940724804"><ele>133.0</ele><time>2026-04-25T07:00:01.999Z</time></trkpt><trkpt lat="45.44002315569275" lon="11.121137872491238"><ele>133.0</ele><time>2026-04-25T07:00:02.999Z</time></trkpt><trkpt lat="45.440039358374605" lon="11.121022601960295"><ele>133.0</ele><time>2026-04-25T07:00:03.999Z</time></trkpt><trkpt lat="45.44003523996309" lon="11.120917545955328"><ele>133.0</ele><time>2026-04-25T07:00:04.999Z</time></trkpt><trkpt lat="45.440117810028674" lon="11.120773121938141"><ele>134.0</ele><time>2026-04-25T07:00:06.999Z</time></trkpt><trkpt lat="45.440177814903286" lon="11.120685195775872"><ele>135.0</ele><time>2026-04-25T07:00:07.999Z</time></trkpt><trkpt lat="45.44025442491251" lon="11.120636761614598"><ele>136.0</ele><time>2026-04-25T07:00:08.999Z</time></trkpt><trkpt lat="45.44033716686209" lon="11.120556760435289"><ele>137.0</ele><time>2026-04-25T07:00:09.999Z</time></trkpt><trkpt lat="45.44041244420805" lon="11.120491230281303"><ele>138.0</ele><time>2026-04-25T07:00:10.999Z</time></trkpt><trkpt lat="45.44049640734678" lon="11.12041577742637"><ele>138.0</ele><time>2026-04-25T07:00:11.999Z</time></trkpt><trkpt lat="45.4405607142363" lon="11.120291549634317"><ele>138.0</ele><time>2026-04-25T07:00:12.999Z</time></trkpt><trkpt lat="45.44061532794269" lon="11.120194602086656"><ele>138.0</ele><time>2026-04-25T07:00:13.999Z</time></trkpt><trkpt lat="45.44066252721995" lon="11.120066755760211"><ele>138.0</ele><time>2026-04-25T07:00:14.999Z</time></trkpt><trkpt lat="45.440685839750614" lon="11.11994054702455"><ele>138.0</ele><time>2026-04-25T07:00:15.999Z</time></trkpt><trkpt lat="45.44070934390973" lon="11.11980964788512"><ele>136.0</ele><time>2026-04-25T07:00:16.999Z</time></trkpt><trkpt lat="45.44073988313249" lon="11.11965356671029"><ele>134.0</ele><time>2026-04-25T07:00:17.999Z</time></trkpt><trkpt lat="45.440768110529945" lon="11.11950930159826"><ele>132.0</ele><time>2026-04-25T07:00:18.999Z</time></trkpt><trkpt lat="45.44081130328955" lon="11.119288551290369"><ele>130.0</ele><time>2026-04-25T07:00:20.999Z</time></trkpt><trkpt lat="45.44096798536789" lon="11.119185499232852"><ele>128.6</ele><time>2026-04-25T07:00:21.999Z</time></trkpt><trkpt lat="45.440958874852285" lon="11.119023110611527"><ele>127.2</ele><time>2026-04-25T07:00:22.999Z</time></trkpt><trkpt lat="45.44094244179981" lon="11.118854333566556"><ele>125.80000000000001</ele><time>2026-04-25T07:00:23.999Z</time></trkpt><trkpt lat="45.44092785276991" lon="11.118705470930914"><ele>124.4</ele><time>2026-04-25T07:00:24.999Z</time></trkpt><trkpt lat="45.44091797293822" lon="11.11857215527831"><ele>123.0</ele><time>2026-04-25T07:00:25.999Z</time></trkpt><trkpt lat="45.44092218996267" lon="11.118468026835279"><ele>123.0</ele><time>2026-04-25T07:00:26.999Z</time></trkpt><trkpt lat="45.44094881135311" lon="11.118377512325006"><ele>123.00000000000001</ele><time>2026-04-25T07:00:27.999Z</time></trkpt><trkpt lat="45.44101575589313" lon="11.118290223958208"><ele>123.00000000000001</ele><time>2026-04-25T07:00:28.999Z</time></trkpt><trkpt lat="45.44112128137886" lon="11.118226016182668"><ele>123.0</ele><time>2026-04-25T07:00:29.999Z</time></trkpt><trkpt lat="45.44121304375097" lon="11.118147074476857"><ele>123.0</ele><time>2026-04-25T07:00:30.999Z</time></trkpt><trkpt lat="45.4413053969469" lon="11.11806751181258"><ele>122.60000000000001</ele><time>2026-04-25T07:00:31.999Z</time></trkpt><trkpt lat="45.441393816139154" lon="11.118000446469589"><ele>122.20000000000002</ele><time>2026-04-25T07:00:32.999Z</time></trkpt><trkpt lat="45.44147442378213" lon="11.117925896693619"><ele>121.8</ele><time>2026-04-25T07:00:33.999Z</time></trkpt><trkpt lat="45.44156412605834" lon="11.117848626537867"><ele>121.4</ele><time>2026-04-25T07:00:34.999Z</time></trkpt><trkpt lat="45.441658355814326" lon="11.117763822449543"><ele>121.0</ele><time>2026-04-25T07:00:35.999Z</time></trkpt><trkpt lat="45.44174566073218" lon="11.117679893058584"><ele>121.0</ele><time>2026-04-25T07:00:36.999Z</time></trkpt><trkpt lat="45.441850999360625" lon="11.117596533538135"><ele>121.0</ele><time>2026-04-25T07:00:37.999Z</time></trkpt><trkpt lat="45.44194172795383" lon="11.117519218585363"><ele>121.0</ele><time>2026-04-25T07:00:38.999Z</time></trkpt><trkpt lat="45.44202072677754" lon="11.117443295038338"><ele>121.0</ele><time>2026-04-25T07:00:39.999Z</time></trkpt><trkpt lat="45.442078777135386" lon="11.117368192867106"><ele>121.0</ele><time>2026-04-25T07:00:40.999Z</time></trkpt><trkpt lat="45.44214795067588" lon="11.117340512370234"><ele>121.33333333333334</ele><time>2026-04-25T07:00:41.999Z</time></trkpt><trkpt lat="45.442212953474936" lon="11.117339645161525"><ele>121.66666666666667</ele><time>2026-04-25T07:00:42.999Z</time></trkpt><trkpt lat="45.44227840672124" lon="11.117264612080557"><ele>122.0</ele><time>2026-04-25T07:00:44.999Z</time></trkpt><trkpt lat="45.44230884929733" lon="11.117168678631364"><ele>122.33333333333334</ele><time>2026-04-25T07:00:45.999Z</time></trkpt><trkpt lat="45.442329625900456" lon="11.117060484910848"><ele>122.66666666666667</ele><time>2026-04-25T07:00:46.999Z</time></trkpt><trkpt lat="45.44238114389646" lon="11.116925539586617"><ele>123.0</ele><time>2026-04-25T07:00:47.999Z</time></trkpt><trkpt lat="45.442419694032964" lon="11.116828050750883"><ele>123.0</ele><time>2026-04-25T07:00:48.999Z</time></trkpt><trkpt lat="45.442473143348955" lon="11.11671399503778"><ele>123.00000000000001</ele><time>2026-04-25T07:00:49.999Z</time></trkpt><trkpt lat="45.442519834991025" lon="11.116616397313358"><ele>123.00000000000001</ele><time>2026-04-25T07:00:50.999Z</time></trkpt><trkpt lat="45.44255493472394" lon="11.116516259789256"><ele>123.0</ele><time>2026-04-25T07:00:51.999Z</time></trkpt><trkpt lat="45.44260318968922" lon="11.116405313856248"><ele>123.0</ele><time>2026-04-25T07:00:53.999Z</time></trkpt><trkpt lat="45.44273329611066" lon="11.116379400546856"><ele>121.80000000000001</ele><time>2026-04-25T07:00:55.999Z</time></trkpt><trkpt lat="45.442799336840025" lon="11.116333240354578"><ele>120.60000000000001</ele><time>2026-04-25T07:00:57.999Z</time></trkpt><trkpt lat="45.44283650249149" lon="11.11621161090541"><ele>119.39999999999999</ele><time>2026-04-25T07:00:59.999Z</time></trkpt><trkpt lat="45.44291145278666" lon="11.11612061403044"><ele>118.19999999999999</ele><time>2026-04-25T07:01:01.999Z</time></trkpt><trkpt lat="45.44298545505918" lon="11.116027581597226"><ele>117.0</ele><time>2026-04-25T07:01:03.999Z</time></trkpt><trkpt lat="45.44308036800708" lon="11.115908791914148"><ele>119.39999999999999</ele><time>2026-04-25T07:01:05.999Z</time></trkpt><trkpt lat="45.44314311803733" lon="11.11578489777967"><ele>121.79999999999998</ele><time>2026-04-25T07:01:08.999Z</time></trkpt><trkpt lat="45.443178151355646" lon="11.11565790234714"><ele>124.2</ele><time>2026-04-25T07:01:09.999Z</time></trkpt><trkpt lat="45.44318444487751" lon="11.115523754788962"><ele>126.6</ele><time>2026-04-25T07:01:10.999Z</time></trkpt><trkpt lat="45.443170849403785" lon="11.115387351020184"><ele>129.0</ele><time>2026-04-25T07:01:11.999Z</time></trkpt><trkpt lat="45.44317907340035" lon="11.115280954996415"><ele>129.0</ele><time>2026-04-25T07:01:12.999Z</time></trkpt><trkpt lat="45.44322715718938" lon="11.115191857361696"><ele>129.0</ele><time>2026-04-25T07:01:13.999Z</time></trkpt><trkpt lat="45.443303668708616" lon="11.115106246073472"><ele>129.0</ele><time>2026-04-25T07:01:14.999Z</time></trkpt><trkpt lat="45.443399398457125" lon="11.114997805244629"><ele>129.0</ele><time>2026-04-25T07:01:15.999Z</time></trkpt><trkpt lat="45.4434994276536" lon="11.114886103946994"><ele>129.0</ele><time>2026-04-25T07:01:16.999Z</time></trkpt><trkpt lat="45.44358958884667" lon="11.114768932008799"><ele>128.2</ele><time>2026-04-25T07:01:17.999Z</time></trkpt><trkpt lat="45.443667925914596" lon="11.114659976117872"><ele>127.4</ele><time>2026-04-25T07:01:18.999Z</time></trkpt><trkpt lat="45.443744657023494" lon="11.114593128191078"><ele>126.6</ele><time>2026-04-25T07:01:19.999Z</time></trkpt><trkpt lat="45.44381990988458" lon="11.114485826868174"><ele>125.8</ele><time>2026-04-25T07:01:20.999Z</time></trkpt><trkpt lat="45.44390277434745" lon="11.114375771285848"><ele>125.0</ele><time>2026-04-25T07:01:21.999Z</time></trkpt><trkpt lat="45.4439847063947" lon="11.114277462692389"><ele>124.8</ele><time>2026-04-25T07:01:22.999Z</time></trkpt><trkpt lat="45.44406719140417" lon="11.114196094877464"><ele>124.6</ele><time>2026-04-25T07:01:23.999Z</time></trkpt><trkpt lat="45.44413734974136" lon="11.114108496045954"><ele>124.4</ele><time>2026-04-25T07:01:24.999Z</time></trkpt><trkpt lat="45.44421454395373" lon="11.11403445155118"><ele>124.2</ele><time>2026-04-25T07:01:25.999Z</time></trkpt><trkpt lat="45.44429538772559" lon="11.113936884735788"><ele>124.0</ele><time>2026-04-25T07:01:26.999Z</time></trkpt><trkpt lat="45.44437553478397" lon="11.113828542507038"><ele>124.0</ele><time>2026-04-25T07:01:27.999Z</time></trkpt><trkpt lat="45.44446664984049" lon="11.113708444481354"><ele>124.0</ele><time>2026-04-25T07:01:28.999Z</time></trkpt><trkpt lat="45.44456860404647" lon="11.113575192222097"><ele>124.0</ele><time>2026-04-25T07:01:29.999Z</time></trkpt><trkpt lat="45.44466366410876" lon="11.113456875932846"><ele>124.0</ele><time>2026-04-25T07:01:30.999Z</time></trkpt><trkpt lat="45.44475537513693" lon="11.113333406536448"><ele>124.0</ele><time>2026-04-25T07:01:31.999Z</time></trkpt><trkpt lat="45.44484812058571" lon="11.113212959334318"><ele>124.0</ele><time>2026-04-25T07:01:32.999Z</time></trkpt><trkpt lat="45.44493808260033" lon="11.113098240120065"><ele>124.0</ele><time>2026-04-25T07:01:33.999Z</time></trkpt><trkpt lat="45.44504464373503" lon="11.112970655392974"><ele>124.0</ele><time>2026-04-25T07:01:34.999Z</time></trkpt><trkpt lat="45.445132196693066" lon="11.112864087156227"><ele>124.0</ele><time>2026-04-25T07:01:35.999Z</time></trkpt><trkpt lat="45.44522218993374" lon="11.11277552712708"><ele>124.0</ele><time>2026-04-25T07:01:36.999Z</time></trkpt><trkpt lat="45.445329368411066" lon="11.112724589178603"><ele>124.0</ele><time>2026-04-25T07:01:37.999Z</time></trkpt><trkpt lat="45.44544409541463" lon="11.11269863198915"><ele>124.0</ele><time>2026-04-25T07:01:38.998Z</time></trkpt><trkpt lat="45.445562996921964" lon="11.112669341539032"><ele>126.5</ele><time>2026-04-25T07:01:39.998Z</time></trkpt><trkpt lat="45.44568640648977" lon="11.112622138109698"><ele>129.0</ele><time>2026-04-25T07:01:40.998Z</time></trkpt><trkpt lat="45.44581808917312" lon="11.112561119209618"><ele>131.5</ele><time>2026-04-25T07:01:41.998Z</time></trkpt><trkpt lat="45.44595362347995" lon="11.112543441112374"><ele>134.0</ele><time>2026-04-25T07:01:42.998Z</time></trkpt><trkpt lat="45.44606974555814" lon="11.112525353954094"><ele>134.0</ele><time>2026-04-25T07:01:43.998Z</time></trkpt><trkpt lat="45.44619845838823" lon="11.112505305657981"><ele>134.0</ele><time>2026-04-25T07:01:44.998Z</time></trkpt><trkpt lat="45.44631750211292" lon="11.112491439434175"><ele>134.0</ele><time>2026-04-25T07:01:45.998Z</time></trkpt><trkpt lat="45.44643191977436" lon="11.112491255484777"><ele>134.0</ele><time>2026-04-25T07:01:46.998Z</time></trkpt><trkpt lat="45.446546744039516" lon="11.112513610731318"><ele>134.2</ele><time>2026-04-25T07:01:47.998Z</time></trkpt><trkpt lat="45.44665904648248" lon="11.112541859971422"><ele>134.4</ele><time>2026-04-25T07:01:48.998Z</time></trkpt><trkpt lat="45.44676868644884" lon="11.112551158758828"><ele>134.6</ele><time>2026-04-25T07:01:49.998Z</time></trkpt><trkpt lat="45.446858587806396" lon="11.112543370826547"><ele>134.8</ele><time>2026-04-25T07:01:50.998Z</time></trkpt><trkpt lat="45.446966422095365" lon="11.11255656225593"><ele>135.0</ele><time>2026-04-25T07:01:52.998Z</time></trkpt><trkpt lat="45.447029433669975" lon="11.112439690757341"><ele>134.0</ele><time>2026-04-25T07:01:53.998Z</time></trkpt><trkpt lat="45.447094828018336" lon="11.112378597771205"><ele>133.0</ele><time>2026-04-25T07:01:54.998Z</time></trkpt><trkpt lat="45.447172235658556" lon="11.11233358353362"><ele>132.0</ele><time>2026-04-25T07:01:55.998Z</time></trkpt><trkpt lat="45.44727234728133" lon="11.112345812105113"><ele>131.0</ele><time>2026-04-25T07:01:56.998Z</time></trkpt><trkpt lat="45.44737391689733" lon="11.112393890562911"><ele>130.0</ele><time>2026-04-25T07:01:57.999Z</time></trkpt><trkpt lat="45.447481930552165" lon="11.112471108676207"><ele>130.0</ele><time>2026-04-25T07:01:58.999Z</time></trkpt><trkpt lat="45.44759053789236" lon="11.112592602967734"><ele>130.0</ele><time>2026-04-25T07:01:59.999Z</time></trkpt><trkpt lat="45.44767636169649" lon="11.112721487737993"><ele>130.0</ele><time>2026-04-25T07:02:00.999Z</time></trkpt><trkpt lat="45.447774852604645" lon="11.112847703195914"><ele>130.0</ele><time>2026-04-25T07:02:01.999Z</time></trkpt><trkpt lat="45.44786737230341" lon="11.113001706880874"><ele>130.0</ele><time>2026-04-25T07:02:02.999Z</time></trkpt><trkpt lat="45.447956407913615" lon="11.113164430789018"><ele>130.0</ele><time>2026-04-25T07:02:03.999Z</time></trkpt><trkpt lat="45.44805319260536" lon="11.113307631607585"><ele>130.0</ele><time>2026-04-25T07:02:04.999Z</time></trkpt><trkpt lat="45.44813073593471" lon="11.113463496797465"><ele>130.0</ele><time>2026-04-25T07:02:05.999Z</time></trkpt><trkpt lat="45.44819469635502" lon="11.113619680129466"><ele>129.33333333333334</ele><time>2026-04-25T07:02:06.999Z</time></trkpt><trkpt lat="45.44825091192227" lon="11.113769629745995"><ele>128.66666666666669</ele><time>2026-04-25T07:02:07.999Z</time></trkpt><trkpt lat="45.4482982329589" lon="11.113888208459516"><ele>128.0</ele><time>2026-04-25T07:02:08.999Z</time></trkpt><trkpt lat="45.44834262040772" lon="11.113991857848955"><ele>127.33333333333334</ele><time>2026-04-25T07:02:09.999Z</time></trkpt><trkpt lat="45.4483758843107" lon="11.114076227798932"><ele>126.66666666666667</ele><time>2026-04-25T07:02:10.999Z</time></trkpt><trkpt lat="45.44843028519294" lon="11.114130944439472"><ele>126.0</ele><time>2026-04-25T07:02:11.999Z</time></trkpt><trkpt lat="45.44848933117978" lon="11.114183086030014"><ele>126.0</ele><time>2026-04-25T07:02:12.999Z</time></trkpt><trkpt lat="45.4485620619461" lon="11.11413132457923"><ele>126.0</ele><time>2026-04-25T07:02:13.999Z</time></trkpt><trkpt lat="45.4485816162163" lon="11.113979916434722"><ele>126.0</ele><time>2026-04-25T07:02:14.999Z</time></trkpt><trkpt lat="45.448542638117175" lon="11.113844075262486"><ele>126.0</ele><time>2026-04-25T07:02:15.999Z</time></trkpt><trkpt lat="45.44851559086872" lon="11.113702621100092"><ele>126.0</ele><time>2026-04-25T07:02:16.999Z</time></trkpt><trkpt lat="45.448494220570204" lon="11.113545931449451"><ele>124.83333333333333</ele><time>2026-04-25T07:02:17.999Z</time></trkpt><trkpt lat="45.44847326385536" lon="11.113389555261834"><ele>123.66666666666666</ele><time>2026-04-25T07:02:18.999Z</time></trkpt><trkpt lat="45.448468769916104" lon="11.113258343622629"><ele>122.5</ele><time>2026-04-25T07:02:19.999Z</time></trkpt><trkpt lat="45.4484567438586" lon="11.11314840184665"><ele>121.33333333333333</ele><time>2026-04-25T07:02:20.999Z</time></trkpt><trkpt lat="45.44850129437572" lon="11.113056191152577"><ele>120.16666666666666</ele><time>2026-04-25T07:02:21.999Z</time></trkpt><trkpt lat="45.44857120331651" lon="11.112991091139804"><ele>119.0</ele><time>2026-04-25T07:02:22.999Z</time></trkpt><trkpt lat="45.44868024296462" lon="11.113007415179633"><ele>113.5</ele><time>2026-04-25T07:02:23.999Z</time></trkpt><trkpt lat="45.448794827409905" lon="11.1130513735425"><ele>108.0</ele><time>2026-04-25T07:02:24.999Z</time></trkpt><trkpt lat="45.44893663579027" lon="11.113100317584593"><ele>102.5</ele><time>2026-04-25T07:02:25.999Z</time></trkpt><trkpt lat="45.449090265136086" lon="11.113123832160953"><ele>97.0</ele><time>2026-04-25T07:02:26.999Z</time></trkpt><trkpt lat="45.44924015787038" lon="11.113164771606554"><ele>97.0</ele><time>2026-04-25T07:02:27.999Z</time></trkpt><trkpt lat="45.44938985423467" lon="11.113227714441718"><ele>97.0</ele><time>2026-04-25T07:02:28.999Z</time></trkpt><trkpt lat="45.44952898000617" lon="11.113278451410373"><ele>97.0</ele><time>2026-04-25T07:02:29.999Z</time></trkpt><trkpt lat="45.44965981747617" lon="11.113325734669871"><ele>97.0</ele><time>2026-04-25T07:02:30.999Z</time></trkpt><trkpt lat="45.44978838745304" lon="11.113370304765777"><ele>98.19999999999999</ele><time>2026-04-25T07:02:31.999Z</time></trkpt><trkpt lat="45.44989544532063" lon="11.113414077622046"><ele>99.4</ele><time>2026-04-25T07:02:32.999Z</time></trkpt><trkpt lat="45.44999190160482" lon="11.113428334340725"><ele>100.6</ele><time>2026-04-25T07:02:33.999Z</time></trkpt><trkpt lat="45.4500810871326" lon="11.113453156285232"><ele>101.80000000000001</ele><time>2026-04-25T07:02:34.999Z</time></trkpt><trkpt lat="45.45016838868994" lon="11.113460720687481"><ele>103.0</ele><time>2026-04-25T07:02:35.999Z</time></trkpt><trkpt lat="45.45024592510243" lon="11.113396208821978"><ele>103.00000000000001</ele><time>2026-04-25T07:02:36.999Z</time></trkpt><trkpt lat="45.45030798300314" lon="11.113304839768107"><ele>103.0</ele><time>2026-04-25T07:02:37.999Z</time></trkpt><trkpt lat="45.45037126589927" lon="11.113337627044011"><ele>103.0</ele><time>2026-04-25T07:02:38.999Z</time></trkpt><trkpt lat="45.45043965248123" lon="11.113348081588777"><ele>103.0</ele><time>2026-04-25T07:02:39.999Z</time></trkpt><trkpt lat="45.450545363106485" lon="11.113362330056598"><ele>103.00000000000001</ele><time>2026-04-25T07:02:40.999Z</time></trkpt><trkpt lat="45.45066164924914" lon="11.113353487034718"><ele>103.0</ele><time>2026-04-25T07:02:41.999Z</time></trkpt><trkpt lat="45.45078394443788" lon="11.113364224152482"><ele>102.4</ele><time>2026-04-25T07:02:42.999Z</time></trkpt><trkpt lat="45.45088647326487" lon="11.113370045395477"><ele>101.80000000000001</ele><time>2026-04-25T07:02:43.999Z</time></trkpt><trkpt lat="45.4509701129979" lon="11.11338550592536"><ele>101.2</ele><time>2026-04-25T07:02:44.999Z</time></trkpt><trkpt lat="45.45103259427757" lon="11.1133680297501"><ele>100.6</ele><time>2026-04-25T07:02:45.999Z</time></trkpt><trkpt lat="45.45112977481767" lon="11.113379631743362"><ele>100.0</ele><time>2026-04-25T07:02:47.999Z</time></trkpt><trkpt lat="45.45124370537098" lon="11.113359854042853"><ele>98.75</ele><time>2026-04-25T07:02:49.999Z</time></trkpt><trkpt lat="45.451304892473644" lon="11.113327284390515"><ele>97.5</ele><time>2026-04-25T07:02:50.999Z</time></trkpt><trkpt lat="45.451405383143076" lon="11.113354926793694"><ele>96.25</ele><time>2026-04-25T07:02:52.999Z</time></trkpt><trkpt lat="45.4514893311058" lon="11.113289322432394"><ele>95.0</ele><time>2026-04-25T07:02:56.999Z</time></trkpt><trkpt lat="45.45150431282547" lon="11.112953068436859"><ele>95.0</ele><time>2026-04-25T07:02:57.999Z</time></trkpt><trkpt lat="45.45158324957667" lon="11.11280921091876"><ele>95.0</ele><time>2026-04-25T07:02:59.999Z</time></trkpt><trkpt lat="45.451649227901655" lon="11.112714884221596"><ele>95.0</ele><time>2026-04-25T07:03:00.999Z</time></trkpt><trkpt lat="45.45170834952448" lon="11.112617064416424"><ele>95.0</ele><time>2026-04-25T07:03:01.999Z</time></trkpt><trkpt lat="45.45176693396569" lon="11.112516522544123"><ele>95.0</ele><time>2026-04-25T07:03:02.999Z</time></trkpt><trkpt lat="45.45182236137999" lon="11.112433966449492"><ele>93.0</ele><time>2026-04-25T07:03:03.999Z</time></trkpt><trkpt lat="45.45187291027097" lon="11.112338724493595"><ele>91.0</ele><time>2026-04-25T07:03:04.999Z</time></trkpt><trkpt lat="45.451928884909066" lon="11.112246173898296"><ele>89.0</ele><time>2026-04-25T07:03:05.999Z</time></trkpt><trkpt lat="45.45198374913758" lon="11.112165652036593"><ele>87.0</ele><time>2026-04-25T07:03:06.999Z</time></trkpt><trkpt lat="45.452046966837564" lon="11.112089945478147"><ele>85.0</ele><time>2026-04-25T07:03:07.999Z</time></trkpt><trkpt lat="45.45212357461833" lon="11.11202778221404"><ele>83.0</ele><time>2026-04-25T07:03:08.999Z</time></trkpt><trkpt lat="45.45220326233629" lon="11.111971254833174"><ele>83.0</ele><time>2026-04-25T07:03:09.999Z</time></trkpt><trkpt lat="45.452259800924786" lon="11.111920646358596"><ele>83.0</ele><time>2026-04-25T07:03:10.999Z</time></trkpt><trkpt lat="45.45231625995661" lon="11.111863599331997"><ele>83.0</ele><time>2026-04-25T07:03:11.999Z</time></trkpt><trkpt lat="45.45234316066274" lon="11.111775091296309"><ele>83.0</ele><time>2026-04-25T07:03:12.999Z</time></trkpt><trkpt lat="45.45236825007912" lon="11.111634119762082"><ele>83.0</ele><time>2026-04-25T07:03:13.999Z</time></trkpt><trkpt lat="45.45240085711019" lon="11.111473291269975"><ele>83.0</ele><time>2026-04-25T07:03:14.999Z</time></trkpt><trkpt lat="45.45243913853035" lon="11.111339199833216"><ele>81.4</ele><time>2026-04-25T07:03:15.999Z</time></trkpt><trkpt lat="45.452481551793255" lon="11.11121494402673"><ele>79.80000000000001</ele><time>2026-04-25T07:03:16.999Z</time></trkpt><trkpt lat="45.45253306007044" lon="11.111092785259068"><ele>78.2</ele><time>2026-04-25T07:03:17.999Z</time></trkpt><trkpt lat="45.452604760578566" lon="11.110955456658745"><ele>76.6</ele><time>2026-04-25T07:03:18.999Z</time></trkpt><trkpt lat="45.452679005361134" lon="11.110800956759642"><ele>75.0</ele><time>2026-04-25T07:03:19.999Z</time></trkpt><trkpt lat="45.45275060529644" lon="11.110668555164132"><ele>75.25</ele><time>2026-04-25T07:03:20.999Z</time></trkpt><trkpt lat="45.45281844727993" lon="11.110525377085354"><ele>75.5</ele><time>2026-04-25T07:03:21.999Z</time></trkpt><trkpt lat="45.452876827106934" lon="11.110385662023349"><ele>75.75</ele><time>2026-04-25T07:03:22.999Z</time></trkpt><trkpt lat="45.45293224735205" lon="11.110255747933515"><ele>76.0</ele><time>2026-04-25T07:03:23.999Z</time></trkpt><trkpt lat="45.452982426146626" lon="11.110118526042877"><ele>76.0</ele><time>2026-04-25T07:03:24.999Z</time></trkpt><trkpt lat="45.45302916863759" lon="11.109964942136488"><ele>76.0</ele><time>2026-04-25T07:03:25.999Z</time></trkpt><trkpt lat="45.45305723696804" lon="11.109793462143104"><ele>76.0</ele><time>2026-04-25T07:03:26.999Z</time></trkpt><trkpt lat="45.45307031741556" lon="11.109612010179717"><ele>76.0</ele><time>2026-04-25T07:03:27.999Z</time></trkpt><trkpt lat="45.453086207453566" lon="11.109449958234485"><ele>75.8</ele><time>2026-04-25T07:03:28.999Z</time></trkpt><trkpt lat="45.45310287557614" lon="11.109305965162516"><ele>75.6</ele><time>2026-04-25T07:03:29.999Z</time></trkpt><trkpt lat="45.45311208764251" lon="11.109158775561118"><ele>75.4</ele><time>2026-04-25T07:03:30.999Z</time></trkpt><trkpt lat="45.4531240646568" lon="11.109005270950409"><ele>75.2</ele><time>2026-04-25T07:03:31.999Z</time></trkpt><trkpt lat="45.453129422312486" lon="11.10888521711126"><ele>75.0</ele><time>2026-04-25T07:03:32.999Z</time></trkpt><trkpt lat="45.45312572158342" lon="11.108761840693996"><ele>75.0</ele><time>2026-04-25T07:03:34.999Z</time></trkpt><trkpt lat="45.45316555405025" lon="11.10884766209792"><ele>75.0</ele><time>2026-04-25T07:03:38.999Z</time></trkpt><trkpt lat="45.4532309334243" lon="11.10889842979935"><ele>75.0</ele><time>2026-04-25T07:03:39.999Z</time></trkpt><trkpt lat="45.45329769828442" lon="11.108973053999943"><ele>75.0</ele><time>2026-04-25T07:03:41.999Z</time></trkpt><trkpt lat="45.45348810151221" lon="11.108965012092797"><ele>75.0</ele><time>2026-04-25T07:03:43.999Z</time></trkpt><trkpt lat="45.45355505429572" lon="11.108986335390673"><ele>74.99999999999999</ele><time>2026-04-25T07:03:44.998Z</time></trkpt><trkpt lat="45.45362214157915" lon="11.108998652362873"><ele>75.0</ele><time>2026-04-25T07:03:45.998Z</time></trkpt><trkpt lat="45.45370551938139" lon="11.10899976777716"><ele>75.0</ele><time>2026-04-25T07:03:46.998Z</time></trkpt><trkpt lat="45.453781251642425" lon="11.108976056460895"><ele>75.0</ele><time>2026-04-25T07:03:47.998Z</time></trkpt><trkpt lat="45.453842339789794" lon="11.108939637603928"><ele>75.0</ele><time>2026-04-25T07:03:48.998Z</time></trkpt><trkpt lat="45.45390092294844" lon="11.108882496979403"><ele>74.99999999999999</ele><time>2026-04-25T07:03:49.998Z</time></trkpt><trkpt lat="45.453948652282946" lon="11.108807321482585"><ele>75.0</ele><time>2026-04-25T07:03:50.998Z</time></trkpt><trkpt lat="45.45399337462574" lon="11.108720240663521"><ele>75.83333333333333</ele><time>2026-04-25T07:03:51.998Z</time></trkpt><trkpt lat="45.45403308013285" lon="11.108630037550666"><ele>76.66666666666667</ele><time>2026-04-25T07:03:52.998Z</time></trkpt><trkpt lat="45.4540682492909" lon="11.108533477545159"><ele>77.5</ele><time>2026-04-25T07:03:53.999Z</time></trkpt><trkpt lat="45.45411727758615" lon="11.10844676072089"><ele>78.33333333333334</ele><time>2026-04-25T07:03:54.999Z</time></trkpt><trkpt lat="45.45415060673896" lon="11.10835089097932"><ele>79.16666666666667</ele><time>2026-04-25T07:03:55.999Z</time></trkpt><trkpt lat="45.45420252576899" lon="11.108240273002592"><ele>80.0</ele><time>2026-04-25T07:03:56.999Z</time></trkpt><trkpt lat="45.454263641569476" lon="11.108142071202138"><ele>80.0</ele><time>2026-04-25T07:03:57.999Z</time></trkpt><trkpt lat="45.45432242874315" lon="11.108052431088968"><ele>80.0</ele><time>2026-04-25T07:03:58.999Z</time></trkpt><trkpt lat="45.45437490108015" lon="11.107991040092339"><ele>80.0</ele><time>2026-04-25T07:03:59.999Z</time></trkpt><trkpt lat="45.45449068096462" lon="11.10794800171555"><ele>80.0</ele><time>2026-04-25T07:04:01.999Z</time></trkpt><trkpt lat="45.45456806699762" lon="11.107940038526007"><ele>80.0</ele><time>2026-04-25T07:04:02.999Z</time></trkpt><trkpt lat="45.45469848366614" lon="11.107977673007884"><ele>80.4</ele><time>2026-04-25T07:04:04.999Z</time></trkpt><trkpt lat="45.454795391120726" lon="11.108020512199094"><ele>80.8</ele><time>2026-04-25T07:04:05.999Z</time></trkpt><trkpt lat="45.4548821387565" lon="11.108042690193951"><ele>81.19999999999999</ele><time>2026-04-25T07:04:06.999Z</time></trkpt><trkpt lat="45.45496713686769" lon="11.10807307262072"><ele>81.6</ele><time>2026-04-25T07:04:07.999Z</time></trkpt><trkpt lat="45.45505793154802" lon="11.108096962668787"><ele>82.0</ele><time>2026-04-25T07:04:08.999Z</time></trkpt><trkpt lat="45.45513824774877" lon="11.108115257833887"><ele>82.0</ele><time>2026-04-25T07:04:09.999Z</time></trkpt><trkpt lat="45.455230572022266" lon="11.108146432606738"><ele>82.0</ele><time>2026-04-25T07:04:10.999Z</time></trkpt><trkpt lat="45.45530884926753" lon="11.108176038764443"><ele>82.0</ele><time>2026-04-25T07:04:11.999Z</time></trkpt><trkpt lat="45.455379097483466" lon="11.10819435357006"><ele>82.0</ele><time>2026-04-25T07:04:12.999Z</time></trkpt><trkpt lat="45.45544663867927" lon="11.108208334579212"><ele>82.0</ele><time>2026-04-25T07:04:13.999Z</time></trkpt><trkpt lat="45.45551310657001" lon="11.108233162113644"><ele>82.0</ele><time>2026-04-25T07:04:14.999Z</time></trkpt><trkpt lat="45.45557677667101" lon="11.108257973617226"><ele>82.71428571428571</ele><time>2026-04-25T07:04:15.999Z</time></trkpt><trkpt lat="45.45564834534606" lon="11.10827535410206"><ele>83.42857142857143</ele><time>2026-04-25T07:04:16.999Z</time></trkpt><trkpt lat="45.45571296479157" lon="11.108291034783743"><ele>84.14285714285714</ele><time>2026-04-25T07:04:17.999Z</time></trkpt><trkpt lat="45.45578464931287" lon="11.108310483259311"><ele>84.85714285714286</ele><time>2026-04-25T07:04:18.999Z</time></trkpt><trkpt lat="45.45585808137089" lon="11.10833190231785"><ele>85.57142857142857</ele><time>2026-04-25T07:04:19.999Z</time></trkpt><trkpt lat="45.455917437294374" lon="11.108362510807819"><ele>86.28571428571428</ele><time>2026-04-25T07:04:20.999Z</time></trkpt><trkpt lat="45.45601032117055" lon="11.108364386053923"><ele>87.0</ele><time>2026-04-25T07:04:21.999Z</time></trkpt><trkpt lat="45.45607924865772" lon="11.108388080053956"><ele>87.0</ele><time>2026-04-25T07:04:22.999Z</time></trkpt><trkpt lat="45.45615380317545" lon="11.108409806185383"><ele>87.0</ele><time>2026-04-25T07:04:23.999Z</time></trkpt><trkpt lat="45.456230352125246" lon="11.10844648877576"><ele>87.0</ele><time>2026-04-25T07:04:24.999Z</time></trkpt><trkpt lat="45.456306326278316" lon="11.108491398320487"><ele>87.0</ele><time>2026-04-25T07:04:25.999Z</time></trkpt><trkpt lat="45.45638770350984" lon="11.108520862663704"><ele>87.0</ele><time>2026-04-25T07:04:26.999Z</time></trkpt><trkpt lat="45.45645928222441" lon="11.108535081153212"><ele>87.0</ele><time>2026-04-25T07:04:27.999Z</time></trkpt><trkpt lat="45.45657541719248" lon="11.108582530078152"><ele>87.16666666666667</ele><time>2026-04-25T07:04:29.999Z</time></trkpt><trkpt lat="45.45663812232125" lon="11.108608592351262"><ele>87.33333333333333</ele><time>2026-04-25T07:04:30.999Z</time></trkpt><trkpt lat="45.45671018369953" lon="11.108590227423889"><ele>87.5</ele><time>2026-04-25T07:04:32Z</time></trkpt><trkpt lat="45.456774951755776" lon="11.10856737381994"><ele>87.66666666666666</ele><time>2026-04-25T07:04:33Z</time></trkpt><trkpt lat="45.456852583847905" lon="11.108559802253"><ele>87.83333333333333</ele><time>2026-04-25T07:04:34Z</time></trkpt><trkpt lat="45.45692148813154" lon="11.10856530899016"><ele>88.0</ele><time>2026-04-25T07:04:35Z</time></trkpt><trkpt lat="45.45704699174743" lon="11.108570807585172"><ele>88.80000000000001</ele><time>2026-04-25T07:04:37Z</time></trkpt><trkpt lat="45.457166750385035" lon="11.108562066686147"><ele>89.6</ele><time>2026-04-25T07:04:39Z</time></trkpt><trkpt lat="45.45726160427829" lon="11.108559524466425"><ele>90.4</ele><time>2026-04-25T07:04:41Z</time></trkpt><trkpt lat="45.45736936440137" lon="11.108572978647247"><ele>91.19999999999999</ele><time>2026-04-25T07:04:44Z</time></trkpt><trkpt lat="45.45744467334689" lon="11.108554017125432"><ele>92.0</ele><time>2026-04-25T07:04:46Z</time></trkpt><trkpt lat="45.457533728735676" lon="11.108581719097343"><ele>92.0</ele><time>2026-04-25T07:04:48Z</time></trkpt><trkpt lat="45.457644754788525" lon="11.108512965802303"><ele>92.0</ele><time>2026-04-25T07:05:29Z</time></trkpt><trkpt lat="45.4577463630548" lon="11.108493274953542"><ele>92.0</ele><time>2026-04-25T07:05:31Z</time></trkpt><trkpt lat="45.457824177282966" lon="11.108488123831103"><ele>92.0</ele><time>2026-04-25T07:05:33Z</time></trkpt><trkpt lat="45.45791384124963" lon="11.108465679082293"><ele>92.0</ele><time>2026-04-25T07:05:35Z</time></trkpt><trkpt lat="45.4580314744863" lon="11.108424769290613"><ele>92.42857142857143</ele><time>2026-04-25T07:05:37Z</time></trkpt><trkpt lat="45.45809418232417" lon="11.10840668583254"><ele>92.85714285714285</ele><time>2026-04-25T07:05:38Z</time></trkpt><trkpt lat="45.45816480510824" lon="11.108396089701635"><ele>93.28571428571428</ele><time>2026-04-25T07:05:39Z</time></trkpt><trkpt lat="45.45824173007093" lon="11.108429574872082"><ele>93.71428571428572</ele><time>2026-04-25T07:05:41Z</time></trkpt><trkpt lat="45.4582724690317" lon="11.108516050411518"><ele>94.14285714285714</ele><time>2026-04-25T07:05:43Z</time></trkpt><trkpt lat="45.45829413134778" lon="11.108625907732206"><ele>94.57142857142857</ele><time>2026-04-25T07:05:45Z</time></trkpt><trkpt lat="45.4582795660359" lon="11.108746514305421"><ele>95.0</ele><time>2026-04-25T07:05:47Z</time></trkpt><trkpt lat="45.45831829862578" lon="11.108899228999933"><ele>95.0</ele><time>2026-04-25T07:05:49Z</time></trkpt><trkpt lat="45.45834824314448" lon="11.108980964088303"><ele>95.0</ele><time>2026-04-25T07:05:50Z</time></trkpt><trkpt lat="45.45839939575738" lon="11.109147836165683"><ele>95.0</ele><time>2026-04-25T07:05:51.999Z</time></trkpt><trkpt lat="45.458428840931056" lon="11.10923847416489"><ele>95.0</ele><time>2026-04-25T07:05:52.999Z</time></trkpt><trkpt lat="45.45845595137122" lon="11.109326400308428"><ele>95.0</ele><time>2026-04-25T07:05:53.999Z</time></trkpt><trkpt lat="45.45848143112802" lon="11.10941423099646"><ele>95.0</ele><time>2026-04-25T07:05:54.999Z</time></trkpt><trkpt lat="45.458499663374084" lon="11.109505118177006"><ele>94.83333333333334</ele><time>2026-04-25T07:05:55.999Z</time></trkpt><trkpt lat="45.458521706648376" lon="11.109590026150112"><ele>94.66666666666667</ele><time>2026-04-25T07:05:56.999Z</time></trkpt><trkpt lat="45.45852362569803" lon="11.10968148502787"><ele>94.5</ele><time>2026-04-25T07:05:57.999Z</time></trkpt><trkpt lat="45.45854932446923" lon="11.109771758534908"><ele>94.33333333333333</ele><time>2026-04-25T07:05:58.999Z</time></trkpt><trkpt lat="45.45858482143853" lon="11.10988718529773"><ele>94.16666666666666</ele><time>2026-04-25T07:05:59.999Z</time></trkpt><trkpt lat="45.45864016644359" lon="11.110024240603352"><ele>94.0</ele><time>2026-04-25T07:06:00.999Z</time></trkpt><trkpt lat="45.45870195043168" lon="11.110192740799848"><ele>94.0</ele><time>2026-04-25T07:06:01.999Z</time></trkpt><trkpt lat="45.45877261781279" lon="11.110364074389928"><ele>94.0</ele><time>2026-04-25T07:06:02.999Z</time></trkpt><trkpt lat="45.458855747553244" lon="11.110522881500685"><ele>94.0</ele><time>2026-04-25T07:06:04Z</time></trkpt><trkpt lat="45.45891542987131" lon="11.110628860007791"><ele>94.0</ele><time>2026-04-25T07:06:05Z</time></trkpt><trkpt lat="45.45901699330041" lon="11.1107080214449"><ele>95.4</ele><time>2026-04-25T07:06:07Z</time></trkpt><trkpt lat="45.4591011113589" lon="11.110707452586434"><ele>96.80000000000001</ele><time>2026-04-25T07:06:08Z</time></trkpt><trkpt lat="45.45919270976134" lon="11.110589747181686"><ele>98.19999999999999</ele><time>2026-04-25T07:06:09Z</time></trkpt><trkpt lat="45.45930605781597" lon="11.11054177490672"><ele>99.6</ele><time>2026-04-25T07:06:10Z</time></trkpt><trkpt lat="45.45941514461189" lon="11.110491196292775"><ele>101.0</ele><time>2026-04-25T07:06:11Z</time></trkpt><trkpt lat="45.459520971059476" lon="11.110418152345817"><ele>102.75</ele><time>2026-04-25T07:06:12Z</time></trkpt><trkpt lat="45.45964290547678" lon="11.110365629048674"><ele>104.5</ele><time>2026-04-25T07:06:13Z</time></trkpt><trkpt lat="45.45976888803184" lon="11.110297432540326"><ele>106.25</ele><time>2026-04-25T07:06:14Z</time></trkpt><trkpt lat="45.45989027154399" lon="11.110238044775006"><ele>108.0</ele><time>2026-04-25T07:06:15Z</time></trkpt><trkpt lat="45.460014613489435" lon="11.110168441897708"><ele>108.0</ele><time>2026-04-25T07:06:16Z</time></trkpt><trkpt lat="45.46014036008075" lon="11.110104738700597"><ele>108.0</ele><time>2026-04-25T07:06:17Z</time></trkpt><trkpt lat="45.46025526193834" lon="11.1100402026566"><ele>108.0</ele><time>2026-04-25T07:06:18Z</time></trkpt><trkpt lat="45.46037028308799" lon="11.109990902283855"><ele>108.0</ele><time>2026-04-25T07:06:19Z</time></trkpt><trkpt lat="45.46048823601327" lon="11.109941522291225"><ele>109.0</ele><time>2026-04-25T07:06:20Z</time></trkpt><trkpt lat="45.46061765921814" lon="11.109927369902643"><ele>110.0</ele><time>2026-04-25T07:06:21Z</time></trkpt><trkpt lat="45.46073918545748" lon="11.109934494488733"><ele>111.0</ele><time>2026-04-25T07:06:22Z</time></trkpt><trkpt lat="45.46087372138844" lon="11.109955717766365"><ele>112.0</ele><time>2026-04-25T07:06:23Z</time></trkpt><trkpt lat="45.46101727312107" lon="11.109953547008182"><ele>112.0</ele><time>2026-04-25T07:06:24Z</time></trkpt><trkpt lat="45.461145550045146" lon="11.109971692450848"><ele>112.0</ele><time>2026-04-25T07:06:25Z</time></trkpt><trkpt lat="45.46127222695789" lon="11.10996523882557"><ele>112.0</ele><time>2026-04-25T07:06:26Z</time></trkpt><trkpt lat="45.461398439585324" lon="11.109929343393494"><ele>112.0</ele><time>2026-04-25T07:06:27Z</time></trkpt><trkpt lat="45.46152699724863" lon="11.109861960239547"><ele>111.0</ele><time>2026-04-25T07:06:28Z</time></trkpt><trkpt lat="45.46165357226198" lon="11.109791415431713"><ele>110.0</ele><time>2026-04-25T07:06:29Z</time></trkpt><trkpt lat="45.46178301438482" lon="11.109714046371499"><ele>109.0</ele><time>2026-04-25T07:06:30Z</time></trkpt><trkpt lat="45.46191186900053" lon="11.109642838004293"><ele>108.0</ele><time>2026-04-25T07:06:31Z</time></trkpt><trkpt lat="45.46204153168249" lon="11.109579453614602"><ele>109.5</ele><time>2026-04-25T07:06:32Z</time></trkpt><trkpt lat="45.46217319692909" lon="11.10951015851504"><ele>111.0</ele><time>2026-04-25T07:06:33Z</time></trkpt><trkpt lat="45.462300245113155" lon="11.109428669688906"><ele>112.5</ele><time>2026-04-25T07:06:34Z</time></trkpt><trkpt lat="45.462428306351995" lon="11.109347513783284"><ele>114.0</ele><time>2026-04-25T07:06:35Z</time></trkpt><trkpt lat="45.46255115814436" lon="11.109250760103167"><ele>114.0</ele><time>2026-04-25T07:06:36Z</time></trkpt><trkpt lat="45.46267669297896" lon="11.109152999829067"><ele>114.0</ele><time>2026-04-25T07:06:37Z</time></trkpt><trkpt lat="45.46280516862792" lon="11.10905508119024"><ele>114.0</ele><time>2026-04-25T07:06:38Z</time></trkpt><trkpt lat="45.46293062002479" lon="11.108971221071013"><ele>114.0</ele><time>2026-04-25T07:06:39Z</time></trkpt><trkpt lat="45.46305780317055" lon="11.108874944846207"><ele>115.0</ele><time>2026-04-25T07:06:40Z</time></trkpt><trkpt lat="45.463188430424395" lon="11.108782354658983"><ele>116.0</ele><time>2026-04-25T07:06:41Z</time></trkpt><trkpt lat="45.463333344978516" lon="11.108696451361729"><ele>117.0</ele><time>2026-04-25T07:06:42Z</time></trkpt><trkpt lat="45.46348035545299" lon="11.1086236059787"><ele>117.0</ele><time>2026-04-25T07:06:43Z</time></trkpt><trkpt lat="45.46361631485432" lon="11.108567269209953"><ele>117.0</ele><time>2026-04-25T07:06:44Z</time></trkpt><trkpt lat="45.463757305030924" lon="11.108524301209757"><ele>117.0</ele><time>2026-04-25T07:06:45Z</time></trkpt><trkpt lat="45.46389460835372" lon="11.108493280242858"><ele>117.0</ele><time>2026-04-25T07:06:46Z</time></trkpt><trkpt lat="45.464026886961484" lon="11.108467286112132"><ele>118.0</ele><time>2026-04-25T07:06:47Z</time></trkpt><trkpt lat="45.46414877039659" lon="11.10845130788154"><ele>118.99999999999999</ele><time>2026-04-25T07:06:48Z</time></trkpt><trkpt lat="45.46425303884116" lon="11.108426991002057"><ele>119.99999999999999</ele><time>2026-04-25T07:06:49Z</time></trkpt><trkpt lat="45.46433635928227" lon="11.108358509618862"><ele>121.0</ele><time>2026-04-25T07:06:50Z</time></trkpt><trkpt lat="45.46443210471728" lon="11.108287807234438"><ele>122.0</ele><time>2026-04-25T07:06:51Z</time></trkpt><trkpt lat="45.464554434324256" lon="11.108272594481273"><ele>122.5</ele><time>2026-04-25T07:06:52Z</time></trkpt><trkpt lat="45.46469589483226" lon="11.108235854149093"><ele>123.0</ele><time>2026-04-25T07:06:53Z</time></trkpt><trkpt lat="45.46484161503781" lon="11.10814532208121"><ele>123.5</ele><time>2026-04-25T07:06:54Z</time></trkpt><trkpt lat="45.46497507738346" lon="11.108071523346789"><ele>124.0</ele><time>2026-04-25T07:06:55Z</time></trkpt><trkpt lat="45.465100638242596" lon="11.107982436147008"><ele>124.0</ele><time>2026-04-25T07:06:56Z</time></trkpt><trkpt lat="45.46522263668419" lon="11.10789527544317"><ele>124.0</ele><time>2026-04-25T07:06:57Z</time></trkpt><trkpt lat="45.46534603218216" lon="11.107815043299695"><ele>124.0</ele><time>2026-04-25T07:06:58Z</time></trkpt><trkpt lat="45.46547556810081" lon="11.107736621026955"><ele>124.0</ele><time>2026-04-25T07:06:59Z</time></trkpt><trkpt lat="45.46559723942275" lon="11.107651064420397"><ele>125.0</ele><time>2026-04-25T07:07:00Z</time></trkpt><trkpt lat="45.4657121234869" lon="11.107620089343314"><ele>126.0</ele><time>2026-04-25T07:07:01Z</time></trkpt><trkpt lat="45.4658003905886" lon="11.107559740428908"><ele>127.0</ele><time>2026-04-25T07:07:02Z</time></trkpt><trkpt lat="45.46588166288214" lon="11.10750221209617"><ele>128.0</ele><time>2026-04-25T07:07:03Z</time></trkpt><trkpt lat="45.46595710952869" lon="11.107399295895592"><ele>129.0</ele><time>2026-04-25T07:07:04Z</time></trkpt><trkpt lat="45.466036090270535" lon="11.107263637033995"><ele>129.0</ele><time>2026-04-25T07:07:05Z</time></trkpt><trkpt lat="45.46611016174181" lon="11.107157217793024"><ele>129.0</ele><time>2026-04-25T07:07:06Z</time></trkpt><trkpt lat="45.46616732233173" lon="11.107037924972929"><ele>129.0</ele><time>2026-04-25T07:07:07Z</time></trkpt><trkpt lat="45.46620268271506" lon="11.10692622838128"><ele>129.0</ele><time>2026-04-25T07:07:08Z</time></trkpt><trkpt lat="45.46620734307513" lon="11.106802899141604"><ele>129.0</ele><time>2026-04-25T07:07:09Z</time></trkpt><trkpt lat="45.46621774519266" lon="11.106680932215795"><ele>129.0</ele><time>2026-04-25T07:07:10Z</time></trkpt><trkpt lat="45.46621774519083" lon="11.106574131882812"><ele>129.0</ele><time>2026-04-25T07:07:12Z</time></trkpt><trkpt lat="45.46627504648517" lon="11.106657771255621"><ele>129.0</ele><time>2026-04-25T07:07:15Z</time></trkpt><trkpt lat="45.466349157662826" lon="11.106650494503608"><ele>129.0</ele><time>2026-04-25T07:07:18Z</time></trkpt><trkpt lat="45.46644368330986" lon="11.106653708979163"><ele>129.0</ele><time>2026-04-25T07:07:20Z</time></trkpt><trkpt lat="45.46651172583596" lon="11.10663580890605"><ele>129.0</ele><time>2026-04-25T07:07:21Z</time></trkpt><trkpt lat="45.466590988887" lon="11.106617223939718"><ele>129.8</ele><time>2026-04-25T07:07:22Z</time></trkpt><trkpt lat="45.46667776189187" lon="11.106594672408601"><ele>130.60000000000002</ele><time>2026-04-25T07:07:23Z</time></trkpt><trkpt lat="45.46676449826748" lon="11.106568302521016"><ele>131.4</ele><time>2026-04-25T07:07:24Z</time></trkpt><trkpt lat="45.46684414420515" lon="11.10654415559656"><ele>132.20000000000002</ele><time>2026-04-25T07:07:25Z</time></trkpt><trkpt lat="45.46694340688504" lon="11.106509280999457"><ele>133.0</ele><time>2026-04-25T07:07:27.001Z</time></trkpt><trkpt lat="45.46706272053449" lon="11.106477058687048"><ele>134.66666666666669</ele><time>2026-04-25T07:07:29.001Z</time></trkpt><trkpt lat="45.4671640681596" lon="11.106448455081644"><ele>136.33333333333334</ele><time>2026-04-25T07:07:31.001Z</time></trkpt><trkpt lat="45.46725982217346" lon="11.106412746348747"><ele>138.0</ele><time>2026-04-25T07:07:33.001Z</time></trkpt><trkpt lat="45.46748592031297" lon="11.106921310698818"><ele>139.5</ele><time>2026-04-25T07:07:34.001Z</time></trkpt><trkpt lat="45.46757242502577" lon="11.107003594141776"><ele>141.0</ele><time>2026-04-25T07:07:36.001Z</time></trkpt><trkpt lat="45.46761082591492" lon="11.107081833083212"><ele>142.5</ele><time>2026-04-25T07:07:37.001Z</time></trkpt><trkpt lat="45.46766136841794" lon="11.107149442899557"><ele>144.0</ele><time>2026-04-25T07:07:38.001Z</time></trkpt><trkpt lat="45.46772635028301" lon="11.107186526696708"><ele>145.5</ele><time>2026-04-25T07:07:39.001Z</time></trkpt><trkpt lat="45.467832859759525" lon="11.107154875630464"><ele>147.0</ele><time>2026-04-25T07:07:41.001Z</time></trkpt><trkpt lat="45.46795835210764" lon="11.107131926600788"><ele>149.8</ele><time>2026-04-25T07:07:43.001Z</time></trkpt><trkpt lat="45.46804317012334" lon="11.107148933450128"><ele>152.6</ele><time>2026-04-25T07:07:44.001Z</time></trkpt><trkpt lat="45.46811059882517" lon="11.107168558430587"><ele>155.4</ele><time>2026-04-25T07:07:45.001Z</time></trkpt><trkpt lat="45.468213595298266" lon="11.107207177825343"><ele>158.20000000000002</ele><time>2026-04-25T07:07:46.001Z</time></trkpt><trkpt lat="45.46830061293446" lon="11.107227598524561"><ele>161.0</ele><time>2026-04-25T07:07:47.001Z</time></trkpt><trkpt lat="45.468424621324154" lon="11.107339717549438"><ele>161.0</ele><time>2026-04-25T07:07:49.001Z</time></trkpt><trkpt lat="45.468481029078205" lon="11.107393251378781"><ele>161.0</ele><time>2026-04-25T07:07:50.001Z</time></trkpt><trkpt lat="45.468582689483966" lon="11.107469593323327"><ele>161.0</ele><time>2026-04-25T07:07:52.001Z</time></trkpt><trkpt lat="45.468639978660285" lon="11.107528135945172"><ele>161.0</ele><time>2026-04-25T07:07:53.001Z</time></trkpt><trkpt lat="45.46873615236563" lon="11.107551974689375"><ele>161.0</ele><time>2026-04-25T07:07:54.001Z</time></trkpt><trkpt lat="45.46880981817667" lon="11.107580819469433"><ele>161.0</ele><time>2026-04-25T07:07:55.001Z</time></trkpt><trkpt lat="45.468902189455434" lon="11.107616512523668"><ele>165.0</ele><time>2026-04-25T07:07:56.001Z</time></trkpt><trkpt lat="45.46897218012865" lon="11.107663098797577"><ele>169.0</ele><time>2026-04-25T07:07:57Z</time></trkpt><trkpt lat="45.46904920088804" lon="11.107731162755252"><ele>173.0</ele><time>2026-04-25T07:07:59Z</time></trkpt><trkpt lat="45.46912147085421" lon="11.107739779855715"><ele>177.0</ele><time>2026-04-25T07:08:01Z</time></trkpt><trkpt lat="45.46921844090884" lon="11.107836060634313"><ele>181.0</ele><time>2026-04-25T07:08:03Z</time></trkpt><trkpt lat="45.46926956609544" lon="11.107950645646703"><ele>181.0</ele><time>2026-04-25T07:08:05Z</time></trkpt><trkpt lat="45.469337994098666" lon="11.108002379570692"><ele>181.0</ele><time>2026-04-25T07:08:07Z</time></trkpt><trkpt lat="45.46942885831453" lon="11.107948187222055"><ele>181.0</ele><time>2026-04-25T07:08:09Z</time></trkpt><trkpt lat="45.469429271275196" lon="11.108095882334451"><ele>181.0</ele><time>2026-04-25T07:08:15Z</time></trkpt><trkpt lat="45.46943438349365" lon="11.108260194389914"><ele>181.0</ele><time>2026-04-25T07:08:17Z</time></trkpt><trkpt lat="45.46944132396581" lon="11.10835663309753"><ele>182.33333333333334</ele><time>2026-04-25T07:08:18Z</time></trkpt><trkpt lat="45.46945278367043" lon="11.10845456685057"><ele>183.66666666666669</ele><time>2026-04-25T07:08:19Z</time></trkpt><trkpt lat="45.46946553333684" lon="11.108561252859397"><ele>185.0</ele><time>2026-04-25T07:08:20Z</time></trkpt><trkpt lat="45.469476654024746" lon="11.108668130449955"><ele>186.33333333333334</ele><time>2026-04-25T07:08:21Z</time></trkpt><trkpt lat="45.469494357685456" lon="11.108767986793554"><ele>187.66666666666666</ele><time>2026-04-25T07:08:22Z</time></trkpt><trkpt lat="45.46953926011205" lon="11.108939852924856"><ele>189.0</ele><time>2026-04-25T07:08:24Z</time></trkpt><trkpt lat="45.46958740397606" lon="11.109026609881518"><ele>193.83333333333334</ele><time>2026-04-25T07:08:25Z</time></trkpt><trkpt lat="45.46964015259043" lon="11.109100503041562"><ele>198.66666666666669</ele><time>2026-04-25T07:08:26Z</time></trkpt><trkpt lat="45.46969409298049" lon="11.1091816724567"><ele>203.5</ele><time>2026-04-25T07:08:27Z</time></trkpt><trkpt lat="45.469755157409246" lon="11.109269822899837"><ele>208.33333333333334</ele><time>2026-04-25T07:08:28Z</time></trkpt><trkpt lat="45.46982080719998" lon="11.10935930877162"><ele>213.16666666666669</ele><time>2026-04-25T07:08:29Z</time></trkpt><trkpt lat="45.46988839857649" lon="11.109436284941212"><ele>218.0</ele><time>2026-04-25T07:08:30Z</time></trkpt><trkpt lat="45.46995563525472" lon="11.109482030786944"><ele>218.00000000000003</ele><time>2026-04-25T07:08:31Z</time></trkpt><trkpt lat="45.47002754886191" lon="11.109498300304702"><ele>218.0</ele><time>2026-04-25T07:08:32Z</time></trkpt><trkpt lat="45.470092003516186" lon="11.10951475381107"><ele>218.0</ele><time>2026-04-25T07:08:33Z</time></trkpt><trkpt lat="45.47015908855245" lon="11.109572302563446"><ele>218.0</ele><time>2026-04-25T07:08:34Z</time></trkpt><trkpt lat="45.470213156194625" lon="11.10964064600835"><ele>218.00000000000003</ele><time>2026-04-25T07:08:35Z</time></trkpt><trkpt lat="45.470273851723164" lon="11.109728442731724"><ele>218.0</ele><time>2026-04-25T07:08:36Z</time></trkpt><trkpt lat="45.470330142519835" lon="11.109810795098072"><ele>218.00000000000003</ele><time>2026-04-25T07:08:37Z</time></trkpt><trkpt lat="45.470392680798504" lon="11.109904911286959"><ele>218.0</ele><time>2026-04-25T07:08:38Z</time></trkpt><trkpt lat="45.47046303737073" lon="11.109989718017644"><ele>218.0</ele><time>2026-04-25T07:08:39Z</time></trkpt><trkpt lat="45.47054429870332" lon="11.110033231607783"><ele>218.0</ele><time>2026-04-25T07:08:40Z</time></trkpt><trkpt lat="45.47061881427409" lon="11.110053242547965"><ele>218.00000000000003</ele><time>2026-04-25T07:08:41Z</time></trkpt><trkpt lat="45.47070727094953" lon="11.110064644038658"><ele>218.0</ele><time>2026-04-25T07:08:42Z</time></trkpt><trkpt lat="45.47081265685237" lon="11.110083070895707"><ele>222.4</ele><time>2026-04-25T07:08:43Z</time></trkpt><trkpt lat="45.47090145723118" lon="11.110123532827993"><ele>226.8</ele><time>2026-04-25T07:08:44Z</time></trkpt><trkpt lat="45.47098407285214" lon="11.110162788438991"><ele>231.2</ele><time>2026-04-25T07:08:45Z</time></trkpt><trkpt lat="45.47108949772531" lon="11.110062972129947"><ele>235.6</ele><time>2026-04-25T07:08:46Z</time></trkpt><trkpt lat="45.47118990855427" lon="11.110038585300927"><ele>240.0</ele><time>2026-04-25T07:08:47Z</time></trkpt><trkpt lat="45.471297000722295" lon="11.11003712667434"><ele>239.8</ele><time>2026-04-25T07:08:48Z</time></trkpt><trkpt lat="45.471359533052436" lon="11.109998528882668"><ele>239.6</ele><time>2026-04-25T07:08:49Z</time></trkpt><trkpt lat="45.47145682701681" lon="11.109944310829565"><ele>239.39999999999998</ele><time>2026-04-25T07:08:50Z</time></trkpt><trkpt lat="45.47155193378921" lon="11.109896902236448"><ele>239.2</ele><time>2026-04-25T07:08:51Z</time></trkpt><trkpt lat="45.471664233465475" lon="11.109856111117239"><ele>239.0</ele><time>2026-04-25T07:08:52Z</time></trkpt><trkpt lat="45.471778071526465" lon="11.109817143586042"><ele>239.0</ele><time>2026-04-25T07:08:53Z</time></trkpt><trkpt lat="45.47190013752492" lon="11.109783749904903"><ele>238.99999999999997</ele><time>2026-04-25T07:08:54Z</time></trkpt><trkpt lat="45.472015310181824" lon="11.109747425242263"><ele>238.99999999999997</ele><time>2026-04-25T07:08:55Z</time></trkpt><trkpt lat="45.472097485015574" lon="11.109716334963597"><ele>239.0</ele><time>2026-04-25T07:08:56Z</time></trkpt><trkpt lat="45.47217308496284" lon="11.10967448497906"><ele>239.0</ele><time>2026-04-25T07:08:57Z</time></trkpt><trkpt lat="45.472253708296655" lon="11.10963471866042"><ele>240.83333333333334</ele><time>2026-04-25T07:08:58Z</time></trkpt><trkpt lat="45.47232946492701" lon="11.109624917967373"><ele>242.66666666666669</ele><time>2026-04-25T07:08:59Z</time></trkpt><trkpt lat="45.47241012397873" lon="11.109613878414628"><ele>244.5</ele><time>2026-04-25T07:09:00Z</time></trkpt><trkpt lat="45.47248610864838" lon="11.109580120845614"><ele>246.33333333333331</ele><time>2026-04-25T07:09:01Z</time></trkpt><trkpt lat="45.47257245413631" lon="11.10955420603989"><ele>248.16666666666666</ele><time>2026-04-25T07:09:02Z</time></trkpt><trkpt lat="45.47266244838729" lon="11.109458629265752"><ele>250.0</ele><time>2026-04-25T07:09:03Z</time></trkpt><trkpt lat="45.47275524091707" lon="11.109437668205345"><ele>250.0</ele><time>2026-04-25T07:09:04Z</time></trkpt><trkpt lat="45.47285766482634" lon="11.109432111189182"><ele>250.0</ele><time>2026-04-25T07:09:05Z</time></trkpt><trkpt lat="45.47296616269741" lon="11.109395811207131"><ele>250.0</ele><time>2026-04-25T07:09:06Z</time></trkpt><trkpt lat="45.47308012516467" lon="11.109382075721863"><ele>250.0</ele><time>2026-04-25T07:09:07Z</time></trkpt><trkpt lat="45.47320572839582" lon="11.109339001470726"><ele>253.25</ele><time>2026-04-25T07:09:08Z</time></trkpt><trkpt lat="45.47331693464783" lon="11.109297920683614"><ele>256.5</ele><time>2026-04-25T07:09:09Z</time></trkpt><trkpt lat="45.473428258721846" lon="11.109265534846129"><ele>259.75</ele><time>2026-04-25T07:09:10Z</time></trkpt><trkpt lat="45.473547817996106" lon="11.109222278354618"><ele>263.0</ele><time>2026-04-25T07:09:11Z</time></trkpt><trkpt lat="45.473668434618254" lon="11.109180537285365"><ele>265.6</ele><time>2026-04-25T07:09:12Z</time></trkpt><trkpt lat="45.473785952783494" lon="11.1091333232562"><ele>268.20000000000005</ele><time>2026-04-25T07:09:13Z</time></trkpt><trkpt lat="45.47387994165968" lon="11.10909451998631"><ele>270.8</ele><time>2026-04-25T07:09:14Z</time></trkpt><trkpt lat="45.473961238575725" lon="11.109048885549308"><ele>273.40000000000003</ele><time>2026-04-25T07:09:15Z</time></trkpt><trkpt lat="45.47403170708347" lon="11.108980292966526"><ele>276.0</ele><time>2026-04-25T07:09:16Z</time></trkpt><trkpt lat="45.47408519829836" lon="11.108809755365769"><ele>276.0</ele><time>2026-04-25T07:09:18.001Z</time></trkpt><trkpt lat="45.47407147777064" lon="11.108672584583747"><ele>276.0</ele><time>2026-04-25T07:09:19.001Z</time></trkpt><trkpt lat="45.47404438366537" lon="11.10853271902507"><ele>276.0</ele><time>2026-04-25T07:09:20.001Z</time></trkpt><trkpt lat="45.474061862978154" lon="11.108373102996342"><ele>276.0</ele><time>2026-04-25T07:09:21.001Z</time></trkpt><trkpt lat="45.474078352501174" lon="11.108213416415195"><ele>276.0</ele><time>2026-04-25T07:09:22.001Z</time></trkpt><trkpt lat="45.474111024196006" lon="11.10806449432381"><ele>275.8</ele><time>2026-04-25T07:09:23.001Z</time></trkpt><trkpt lat="45.47415168738537" lon="11.107936447575842"><ele>275.6</ele><time>2026-04-25T07:09:24.001Z</time></trkpt><trkpt lat="45.4742006655653" lon="11.10781446383648"><ele>275.4</ele><time>2026-04-25T07:09:25.001Z</time></trkpt><trkpt lat="45.47424750503103" lon="11.107688777800787"><ele>275.2</ele><time>2026-04-25T07:09:26.001Z</time></trkpt><trkpt lat="45.474306993059066" lon="11.107561903588556"><ele>275.0</ele><time>2026-04-25T07:09:27.001Z</time></trkpt><trkpt lat="45.474375054786016" lon="11.107438341685477"><ele>274.6</ele><time>2026-04-25T07:09:28.001Z</time></trkpt><trkpt lat="45.474446183606354" lon="11.10731863309013"><ele>274.2</ele><time>2026-04-25T07:09:29.001Z</time></trkpt><trkpt lat="45.474524385465706" lon="11.107212142096731"><ele>273.8</ele><time>2026-04-25T07:09:30.001Z</time></trkpt><trkpt lat="45.474593923506674" lon="11.107137755688699"><ele>273.4</ele><time>2026-04-25T07:09:31.001Z</time></trkpt><trkpt lat="45.47468773107379" lon="11.107145590969322"><ele>273.0</ele><time>2026-04-25T07:09:32.001Z</time></trkpt><trkpt lat="45.47476793536431" lon="11.107101619203235"><ele>274.8</ele><time>2026-04-25T07:09:33.001Z</time></trkpt><trkpt lat="45.47483561453057" lon="11.107000965246568"><ele>276.6</ele><time>2026-04-25T07:09:34.001Z</time></trkpt><trkpt lat="45.47492090928084" lon="11.106928484784518"><ele>278.4</ele><time>2026-04-25T07:09:35.001Z</time></trkpt><trkpt lat="45.47501199415612" lon="11.106844587211063"><ele>280.2</ele><time>2026-04-25T07:09:36.001Z</time></trkpt><trkpt lat="45.475098698935234" lon="11.106795662403073"><ele>282.0</ele><time>2026-04-25T07:09:37.001Z</time></trkpt><trkpt lat="45.475197314606916" lon="11.106771918576394"><ele>282.0</ele><time>2026-04-25T07:09:38.001Z</time></trkpt><trkpt lat="45.475291756552544" lon="11.106716205828125"><ele>282.0</ele><time>2026-04-25T07:09:39.001Z</time></trkpt><trkpt lat="45.475364379666004" lon="11.106606632407473"><ele>282.0</ele><time>2026-04-25T07:09:40.001Z</time></trkpt><trkpt lat="45.47544767732535" lon="11.10649405799381"><ele>282.0</ele><time>2026-04-25T07:09:41.001Z</time></trkpt><trkpt lat="45.47554232689731" lon="11.106410693123857"><ele>282.0</ele><time>2026-04-25T07:09:42.001Z</time></trkpt><trkpt lat="45.47561476258208" lon="11.106342684405202"><ele>283.0</ele><time>2026-04-25T07:09:43.001Z</time></trkpt><trkpt lat="45.47567387258677" lon="11.106299280669168"><ele>284.0</ele><time>2026-04-25T07:09:44.001Z</time></trkpt><trkpt lat="45.475790557795534" lon="11.10634953872267"><ele>285.0</ele><time>2026-04-25T07:09:46.001Z</time></trkpt><trkpt lat="45.475860777880996" lon="11.1063934319397"><ele>286.0</ele><time>2026-04-25T07:09:47.001Z</time></trkpt><trkpt lat="45.475884887496115" lon="11.106530418455607"><ele>287.0</ele><time>2026-04-25T07:09:48.001Z</time></trkpt><trkpt lat="45.47588502385652" lon="11.106635515639368"><ele>288.0</ele><time>2026-04-25T07:09:49.001Z</time></trkpt><trkpt lat="45.47589304280868" lon="11.106745952658127"><ele>288.0</ele><time>2026-04-25T07:09:51.001Z</time></trkpt><trkpt lat="45.47600808573795" lon="11.106723384248356"><ele>288.0</ele><time>2026-04-25T07:09:52.001Z</time></trkpt><trkpt lat="45.476073886548825" lon="11.106704316550584"><ele>288.0</ele><time>2026-04-25T07:09:53.001Z</time></trkpt><trkpt lat="45.47615208893837" lon="11.106751574482209"><ele>288.0</ele><time>2026-04-25T07:09:54.001Z</time></trkpt><trkpt lat="45.47623868855262" lon="11.106812688450056"><ele>288.0</ele><time>2026-04-25T07:09:55.001Z</time></trkpt><trkpt lat="45.47633311818803" lon="11.106902875054313"><ele>287.0</ele><time>2026-04-25T07:09:56.001Z</time></trkpt><trkpt lat="45.476407225572984" lon="11.107015937379972"><ele>286.0</ele><time>2026-04-25T07:09:57.001Z</time></trkpt><trkpt lat="45.47647419176235" lon="11.107115663355172"><ele>285.0</ele><time>2026-04-25T07:09:58.001Z</time></trkpt><trkpt lat="45.4765285314477" lon="11.10719486893885"><ele>284.0</ele><time>2026-04-25T07:09:59.001Z</time></trkpt><trkpt lat="45.476584581884126" lon="11.107261688197156"><ele>283.0</ele><time>2026-04-25T07:10:00.001Z</time></trkpt><trkpt lat="45.476637711349056" lon="11.107323937480311"><ele>282.0</ele><time>2026-04-25T07:10:01.001Z</time></trkpt><trkpt lat="45.47670815670721" lon="11.107328637405264"><ele>282.0</ele><time>2026-04-25T07:10:02.001Z</time></trkpt><trkpt lat="45.47680728259648" lon="11.107280557823199"><ele>282.0</ele><time>2026-04-25T07:10:03.999Z</time></trkpt><trkpt lat="45.47691906330739" lon="11.10729966483139"><ele>282.0</ele><time>2026-04-25T07:10:05.999Z</time></trkpt><trkpt lat="45.47694898726701" lon="11.107794220844376"><ele>282.4</ele><time>2026-04-25T07:10:08.999Z</time></trkpt><trkpt lat="45.47684632928891" lon="11.107894081798195"><ele>282.79999999999995</ele><time>2026-04-25T07:10:10.999Z</time></trkpt><trkpt lat="45.47679838774536" lon="11.107995041533908"><ele>283.2</ele><time>2026-04-25T07:10:11.999Z</time></trkpt><trkpt lat="45.47673451084695" lon="11.108092517456654"><ele>283.59999999999997</ele><time>2026-04-25T07:10:12.999Z</time></trkpt><trkpt lat="45.47665886145334" lon="11.108207236951266"><ele>284.0</ele><time>2026-04-25T07:10:13.999Z</time></trkpt><trkpt lat="45.476573204965426" lon="11.108331381656951"><ele>284.0</ele><time>2026-04-25T07:10:14.999Z</time></trkpt><trkpt lat="45.476476269403925" lon="11.108460473546625"><ele>284.0</ele><time>2026-04-25T07:10:15.999Z</time></trkpt><trkpt lat="45.47639030633826" lon="11.108572898431468"><ele>284.0</ele><time>2026-04-25T07:10:16.999Z</time></trkpt><trkpt lat="45.476316199241204" lon="11.10866412391107"><ele>284.0</ele><time>2026-04-25T07:10:18Z</time></trkpt><trkpt lat="45.47624810077813" lon="11.108767686474469"><ele>284.0</ele><time>2026-04-25T07:10:19Z</time></trkpt><trkpt lat="45.47619106946949" lon="11.10885939964277"><ele>286.75</ele><time>2026-04-25T07:10:20Z</time></trkpt><trkpt lat="45.47612800024327" lon="11.10898428352933"><ele>289.5</ele><time>2026-04-25T07:10:21Z</time></trkpt><trkpt lat="45.4760698294666" lon="11.109123130748003"><ele>292.25</ele><time>2026-04-25T07:10:22Z</time></trkpt><trkpt lat="45.47600135700285" lon="11.10927875272922"><ele>295.0</ele><time>2026-04-25T07:10:23Z</time></trkpt><trkpt lat="45.47594289548696" lon="11.109454912801976"><ele>295.0</ele><time>2026-04-25T07:10:24Z</time></trkpt><trkpt lat="45.47587664924819" lon="11.10964964242904"><ele>295.0</ele><time>2026-04-25T07:10:25Z</time></trkpt><trkpt lat="45.475825898139675" lon="11.109814302010198"><ele>295.0</ele><time>2026-04-25T07:10:26Z</time></trkpt><trkpt lat="45.475775432492014" lon="11.1099693628701"><ele>295.0</ele><time>2026-04-25T07:10:27Z</time></trkpt><trkpt lat="45.47571328898821" lon="11.110099293286234"><ele>294.75</ele><time>2026-04-25T07:10:28Z</time></trkpt><trkpt lat="45.47564139150438" lon="11.110226250073016"><ele>294.5</ele><time>2026-04-25T07:10:29Z</time></trkpt><trkpt lat="45.47556357574195" lon="11.110344006990205"><ele>294.25</ele><time>2026-04-25T07:10:30Z</time></trkpt><trkpt lat="45.47548185811473" lon="11.110450970746816"><ele>294.0</ele><time>2026-04-25T07:10:31Z</time></trkpt><trkpt lat="45.47539449509591" lon="11.110556666096114"><ele>294.75</ele><time>2026-04-25T07:10:32Z</time></trkpt><trkpt lat="45.47530019010359" lon="11.110651971558617"><ele>295.5</ele><time>2026-04-25T07:10:33Z</time></trkpt><trkpt lat="45.47518848385619" lon="11.110754404764187"><ele>296.25</ele><time>2026-04-25T07:10:34Z</time></trkpt><trkpt lat="45.475068992459995" lon="11.110854362014958"><ele>297.0</ele><time>2026-04-25T07:10:35Z</time></trkpt><trkpt lat="45.47492924061092" lon="11.110963783223756"><ele>297.0</ele><time>2026-04-25T07:10:36Z</time></trkpt><trkpt lat="45.47479364499209" lon="11.111090314066667"><ele>297.0</ele><time>2026-04-25T07:10:37Z</time></trkpt><trkpt lat="45.47467011854005" lon="11.111223789649362"><ele>297.0</ele><time>2026-04-25T07:10:38Z</time></trkpt><trkpt lat="45.474546358245554" lon="11.111361550704501"><ele>297.6666666666667</ele><time>2026-04-25T07:10:39Z</time></trkpt><trkpt lat="45.47442402214186" lon="11.111501633205433"><ele>298.33333333333337</ele><time>2026-04-25T07:10:40Z</time></trkpt><trkpt lat="45.47431257354382" lon="11.111667718799561"><ele>299.0</ele><time>2026-04-25T07:10:41Z</time></trkpt><trkpt lat="45.474192477946644" lon="11.11178928971946"><ele>299.0</ele><time>2026-04-25T07:10:42Z</time></trkpt><trkpt lat="45.47409546057581" lon="11.111921695734557"><ele>299.0</ele><time>2026-04-25T07:10:43Z</time></trkpt><trkpt lat="45.4740046838538" lon="11.11203270610147"><ele>299.0</ele><time>2026-04-25T07:10:44Z</time></trkpt><trkpt lat="45.47392165737817" lon="11.112133607382463"><ele>299.0</ele><time>2026-04-25T07:10:45Z</time></trkpt><trkpt lat="45.47384556517674" lon="11.112230724843482"><ele>299.0</ele><time>2026-04-25T07:10:46Z</time></trkpt><trkpt lat="45.47378760005255" lon="11.112328766389865"><ele>299.0</ele><time>2026-04-25T07:10:47Z</time></trkpt><trkpt lat="45.4737047171593" lon="11.112428007447246"><ele>299.0</ele><time>2026-04-25T07:10:49Z</time></trkpt><trkpt lat="45.47363711100141" lon="11.112539460602605"><ele>299.0</ele><time>2026-04-25T07:10:53Z</time></trkpt><trkpt lat="45.47358309045436" lon="11.112592698826148"><ele>299.0</ele><time>2026-04-25T07:10:54Z</time></trkpt><trkpt lat="45.47352253226018" lon="11.112648674881333"><ele>299.0</ele><time>2026-04-25T07:10:55Z</time></trkpt><trkpt lat="45.47344123858106" lon="11.112721110647403"><ele>299.2</ele><time>2026-04-25T07:10:57Z</time></trkpt><trkpt lat="45.473368589531844" lon="11.112787544015086"><ele>299.4</ele><time>2026-04-25T07:10:59Z</time></trkpt><trkpt lat="45.473313833192194" lon="11.112838462875326"><ele>299.6</ele><time>2026-04-25T07:11:00Z</time></trkpt><trkpt lat="45.47325148850638" lon="11.11289732888291"><ele>299.8</ele><time>2026-04-25T07:11:02Z</time></trkpt><trkpt lat="45.47336474689485" lon="11.113131069626299"><ele>300.0</ele><time>2026-04-25T07:11:05Z</time></trkpt><trkpt lat="45.47341148381577" lon="11.113209551267513"><ele>299.3333333333333</ele><time>2026-04-25T07:11:06Z</time></trkpt><trkpt lat="45.47347643190722" lon="11.113332107652832"><ele>298.6666666666667</ele><time>2026-04-25T07:11:08Z</time></trkpt><trkpt lat="45.47352400568672" lon="11.11346219000024"><ele>298.0</ele><time>2026-04-25T07:11:10Z</time></trkpt><trkpt lat="45.47358799794509" lon="11.113528614213328"><ele>297.33333333333337</ele><time>2026-04-25T07:11:12Z</time></trkpt><trkpt lat="45.4736490773574" lon="11.113596630566747"><ele>296.6666666666667</ele><time>2026-04-25T07:11:14Z</time></trkpt><trkpt lat="45.47364771607054" lon="11.113695253190434"><ele>296.0</ele><time>2026-04-25T07:11:15Z</time></trkpt><trkpt lat="45.47365527619947" lon="11.113830134492567"><ele>296.0</ele><time>2026-04-25T07:11:16Z</time></trkpt><trkpt lat="45.47367188407515" lon="11.113980326421403"><ele>296.0</ele><time>2026-04-25T07:11:17Z</time></trkpt><trkpt lat="45.473689502555004" lon="11.11413846685065"><ele>296.0</ele><time>2026-04-25T07:11:18Z</time></trkpt><trkpt lat="45.4737037357414" lon="11.11428887152671"><ele>296.0</ele><time>2026-04-25T07:11:19Z</time></trkpt><trkpt lat="45.47372040406254" lon="11.114429451261412"><ele>296.0</ele><time>2026-04-25T07:11:20Z</time></trkpt><trkpt lat="45.47374190727745" lon="11.114561339358659"><ele>295.2</ele><time>2026-04-25T07:11:21Z</time></trkpt><trkpt lat="45.47375747121209" lon="11.114696611157546"><ele>294.40000000000003</ele><time>2026-04-25T07:11:22Z</time></trkpt><trkpt lat="45.473786229739105" lon="11.114834065028179"><ele>293.6</ele><time>2026-04-25T07:11:23.001Z</time></trkpt><trkpt lat="45.47383789058578" lon="11.114968367934356"><ele>292.8</ele><time>2026-04-25T07:11:24.001Z</time></trkpt><trkpt lat="45.47390449104559" lon="11.115101045141067"><ele>292.0</ele><time>2026-04-25T07:11:25.001Z</time></trkpt><trkpt lat="45.47397811856974" lon="11.115229702632437"><ele>286.8</ele><time>2026-04-25T07:11:26.001Z</time></trkpt><trkpt lat="45.474046173408944" lon="11.11534015913167"><ele>281.6</ele><time>2026-04-25T07:11:27.001Z</time></trkpt><trkpt lat="45.47410017089564" lon="11.115435461968309"><ele>276.40000000000003</ele><time>2026-04-25T07:11:28.001Z</time></trkpt><trkpt lat="45.47416757584217" lon="11.115533093455854"><ele>271.2</ele><time>2026-04-25T07:11:29.001Z</time></trkpt><trkpt lat="45.47425239449416" lon="11.115605406127248"><ele>266.0</ele><time>2026-04-25T07:11:30.001Z</time></trkpt><trkpt lat="45.47434274762102" lon="11.115671133519415"><ele>267.40000000000003</ele><time>2026-04-25T07:11:31.001Z</time></trkpt><trkpt lat="45.4744296594731" lon="11.115747219344911"><ele>268.8</ele><time>2026-04-25T07:11:32.001Z</time></trkpt><trkpt lat="45.47451565721996" lon="11.115834868466647"><ele>270.20000000000005</ele><time>2026-04-25T07:11:33.001Z</time></trkpt><trkpt lat="45.47459437897417" lon="11.115943340323867"><ele>271.6</ele><time>2026-04-25T07:11:34.001Z</time></trkpt><trkpt lat="45.47467448773615" lon="11.116063728530884"><ele>273.0</ele><time>2026-04-25T07:11:35.001Z</time></trkpt><trkpt lat="45.47475935433992" lon="11.116176639347389"><ele>270.8</ele><time>2026-04-25T07:11:36.001Z</time></trkpt><trkpt lat="45.47485209934614" lon="11.116274637405665"><ele>268.6</ele><time>2026-04-25T07:11:37.001Z</time></trkpt><trkpt lat="45.474947142998076" lon="11.116374189526983"><ele>266.4</ele><time>2026-04-25T07:11:38.001Z</time></trkpt><trkpt lat="45.47502903246737" lon="11.116464977659207"><ele>264.2</ele><time>2026-04-25T07:11:39.001Z</time></trkpt><trkpt lat="45.47511541011396" lon="11.116525735701133"><ele>262.0</ele><time>2026-04-25T07:11:40.001Z</time></trkpt><trkpt lat="45.47520821203705" lon="11.116581670382777"><ele>262.0</ele><time>2026-04-25T07:11:41.001Z</time></trkpt><trkpt lat="45.47531252869151" lon="11.116657073472563"><ele>262.0</ele><time>2026-04-25T07:11:42.001Z</time></trkpt><trkpt lat="45.47541058845237" lon="11.11671392323951"><ele>262.0</ele><time>2026-04-25T07:11:43.001Z</time></trkpt><trkpt lat="45.47551011837821" lon="11.116748274137468"><ele>262.0</ele><time>2026-04-25T07:11:44.001Z</time></trkpt><trkpt lat="45.475587531887705" lon="11.116795920847018"><ele>262.0</ele><time>2026-04-25T07:11:45.001Z</time></trkpt><trkpt lat="45.4756738748984" lon="11.116848953012353"><ele>256.8</ele><time>2026-04-25T07:11:46.001Z</time></trkpt><trkpt lat="45.475757449012825" lon="11.116931392040657"><ele>251.6</ele><time>2026-04-25T07:11:47.001Z</time></trkpt><trkpt lat="45.47584854898346" lon="11.117013089889603"><ele>246.40000000000003</ele><time>2026-04-25T07:11:48.001Z</time></trkpt><trkpt lat="45.475942436347964" lon="11.117103499988099"><ele>241.20000000000002</ele><time>2026-04-25T07:11:49.001Z</time></trkpt><trkpt lat="45.47603601217411" lon="11.117162348272164"><ele>236.0</ele><time>2026-04-25T07:11:50.001Z</time></trkpt><trkpt lat="45.47612076770675" lon="11.117220942102357"><ele>236.0</ele><time>2026-04-25T07:11:51.001Z</time></trkpt><trkpt lat="45.47619829096555" lon="11.117308145672512"><ele>236.00000000000003</ele><time>2026-04-25T07:11:52.001Z</time></trkpt><trkpt lat="45.47627860059245" lon="11.117419288152638"><ele>236.00000000000003</ele><time>2026-04-25T07:11:53.001Z</time></trkpt><trkpt lat="45.476369522399025" lon="11.117500003569738"><ele>236.0</ele><time>2026-04-25T07:11:54.001Z</time></trkpt><trkpt lat="45.47646422974027" lon="11.117553627309771"><ele>236.0</ele><time>2026-04-25T07:11:55.001Z</time></trkpt><trkpt lat="45.47653993308316" lon="11.11761529961308"><ele>234.4</ele><time>2026-04-25T07:11:56.001Z</time></trkpt><trkpt lat="45.47663881749069" lon="11.117701729560638"><ele>232.8</ele><time>2026-04-25T07:11:57.001Z</time></trkpt><trkpt lat="45.476699943548496" lon="11.117796011734296"><ele>231.20000000000002</ele><time>2026-04-25T07:11:58.001Z</time></trkpt><trkpt lat="45.47674985774716" lon="11.117910194786639"><ele>229.60000000000002</ele><time>2026-04-25T07:11:59.001Z</time></trkpt><trkpt lat="45.47679273531189" lon="11.118009416933159"><ele>228.0</ele><time>2026-04-25T07:12:00.001Z</time></trkpt><trkpt lat="45.47680907183461" lon="11.118105828213418"><ele>228.0</ele><time>2026-04-25T07:12:01.001Z</time></trkpt><trkpt lat="45.47682578914842" lon="11.118238994111305"><ele>228.0</ele><time>2026-04-25T07:12:03.001Z</time></trkpt><trkpt lat="45.476894395190484" lon="11.118210083946192"><ele>228.0</ele><time>2026-04-25T07:12:05.001Z</time></trkpt><trkpt lat="45.47692804706601" lon="11.118059006893372"><ele>228.0</ele><time>2026-04-25T07:12:07.001Z</time></trkpt><trkpt lat="45.47693861566141" lon="11.11793642966163"><ele>228.0</ele><time>2026-04-25T07:12:08.001Z</time></trkpt><trkpt lat="45.476950761143044" lon="11.117801571322016"><ele>228.0</ele><time>2026-04-25T07:12:08.999Z</time></trkpt><trkpt lat="45.47696541196139" lon="11.117687263994041"><ele>227.99999999999997</ele><time>2026-04-25T07:12:09.999Z</time></trkpt><trkpt lat="45.47698846040555" lon="11.117590318896292"><ele>228.0</ele><time>2026-04-25T07:12:10.999Z</time></trkpt><trkpt lat="45.477002460864114" lon="11.11749334592433"><ele>228.0</ele><time>2026-04-25T07:12:11.999Z</time></trkpt><trkpt lat="45.477004693416944" lon="11.117395985613532"><ele>227.99999999999997</ele><time>2026-04-25T07:12:12.999Z</time></trkpt><trkpt lat="45.47699464651516" lon="11.117296927304071"><ele>228.0</ele><time>2026-04-25T07:12:13.999Z</time></trkpt><trkpt lat="45.476983907979715" lon="11.117189388183109"><ele>228.0</ele><time>2026-04-25T07:12:14.999Z</time></trkpt><trkpt lat="45.47692984221752" lon="11.117016579202176"><ele>225.0</ele><time>2026-04-25T07:12:16.999Z</time></trkpt><trkpt lat="45.476884969614474" lon="11.11694555820399"><ele>222.0</ele><time>2026-04-25T07:12:17.999Z</time></trkpt><trkpt lat="45.476827842981926" lon="11.11683930701777"><ele>219.0</ele><time>2026-04-25T07:12:18.999Z</time></trkpt><trkpt lat="45.476776221208155" lon="11.116730892045355"><ele>216.0</ele><time>2026-04-25T07:12:19.999Z</time></trkpt><trkpt lat="45.476720710161146" lon="11.116643093586191"><ele>213.0</ele><time>2026-04-25T07:12:20.999Z</time></trkpt><trkpt lat="45.476656371718406" lon="11.116600473706724"><ele>210.0</ele><time>2026-04-25T07:12:21.999Z</time></trkpt><trkpt lat="45.47657786934512" lon="11.116523042356794"><ele>207.16666666666666</ele><time>2026-04-25T07:12:22.999Z</time></trkpt><trkpt lat="45.476522346503565" lon="11.116472777429726"><ele>204.33333333333331</ele><time>2026-04-25T07:12:23.999Z</time></trkpt><trkpt lat="45.476465979314725" lon="11.116401944340648"><ele>201.5</ele><time>2026-04-25T07:12:25Z</time></trkpt><trkpt lat="45.476425161062544" lon="11.116307783978332"><ele>198.66666666666666</ele><time>2026-04-25T07:12:26Z</time></trkpt><trkpt lat="45.47643397926807" lon="11.116129642677766"><ele>195.83333333333331</ele><time>2026-04-25T07:12:28Z</time></trkpt><trkpt lat="45.47649476518692" lon="11.116014614332897"><ele>193.0</ele><time>2026-04-25T07:12:30Z</time></trkpt><trkpt lat="45.476581696522544" lon="11.116017961177334"><ele>193.0</ele><time>2026-04-25T07:12:31Z</time></trkpt><trkpt lat="45.47673686938547" lon="11.115982732364913"><ele>193.0</ele><time>2026-04-25T07:12:33Z</time></trkpt><trkpt lat="45.476827985439265" lon="11.115960598613386"><ele>193.0</ele><time>2026-04-25T07:12:34Z</time></trkpt><trkpt lat="45.47693740949757" lon="11.115951808511262"><ele>193.0</ele><time>2026-04-25T07:12:35Z</time></trkpt><trkpt lat="45.477035533619805" lon="11.115967707999209"><ele>190.16666666666666</ele><time>2026-04-25T07:12:36Z</time></trkpt><trkpt lat="45.47712517751979" lon="11.115990175290975"><ele>187.33333333333331</ele><time>2026-04-25T07:12:37Z</time></trkpt><trkpt lat="45.477220467332614" lon="11.116002595650608"><ele>184.5</ele><time>2026-04-25T07:12:38Z</time></trkpt><trkpt lat="45.477287465544634" lon="11.116037511677355"><ele>181.66666666666666</ele><time>2026-04-25T07:12:39Z</time></trkpt><trkpt lat="45.477341523226464" lon="11.11610468972797"><ele>178.83333333333331</ele><time>2026-04-25T07:12:40Z</time></trkpt><trkpt lat="45.477384435899744" lon="11.116176655854511"><ele>176.0</ele><time>2026-04-25T07:12:41Z</time></trkpt><trkpt lat="45.47744660427537" lon="11.116225151303585"><ele>176.0</ele><time>2026-04-25T07:12:44Z</time></trkpt><trkpt lat="45.47749557911271" lon="11.11612759501297"><ele>176.0</ele><time>2026-04-25T07:12:46Z</time></trkpt><trkpt lat="45.477594491838715" lon="11.115930552951058"><ele>176.0</ele><time>2026-04-25T07:12:48Z</time></trkpt><trkpt lat="45.47761255986392" lon="11.116032649927984"><ele>176.0</ele><time>2026-04-25T07:12:53Z</time></trkpt><trkpt lat="45.47761786845865" lon="11.116129860669435"><ele>176.0</ele><time>2026-04-25T07:12:54Z</time></trkpt><trkpt lat="45.47764917034854" lon="11.116238329761721"><ele>176.0</ele><time>2026-04-25T07:12:55Z</time></trkpt><trkpt lat="45.47769515002763" lon="11.11633953419819"><ele>176.0</ele><time>2026-04-25T07:12:56Z</time></trkpt><trkpt lat="45.47772230752947" lon="11.11646532083692"><ele>176.0</ele><time>2026-04-25T07:12:57Z</time></trkpt><trkpt lat="45.47777203007836" lon="11.116566912189898"><ele>176.0</ele><time>2026-04-25T07:12:58Z</time></trkpt><trkpt lat="45.47780986411149" lon="11.116680120410038"><ele>176.0</ele><time>2026-04-25T07:12:59Z</time></trkpt><trkpt lat="45.477849241398985" lon="11.116771854550331"><ele>176.0</ele><time>2026-04-25T07:13:00Z</time></trkpt><trkpt lat="45.47789691049168" lon="11.116893393093786"><ele>174.4</ele><time>2026-04-25T07:13:01Z</time></trkpt><trkpt lat="45.47793348978727" lon="11.117008222387296"><ele>172.8</ele><time>2026-04-25T07:13:02Z</time></trkpt><trkpt lat="45.47799053081991" lon="11.117117284421216"><ele>171.20000000000002</ele><time>2026-04-25T07:13:03Z</time></trkpt><trkpt lat="45.47804412734289" lon="11.11721913389148"><ele>169.60000000000002</ele><time>2026-04-25T07:13:04Z</time></trkpt><trkpt lat="45.478109183327035" lon="11.117318271629053"><ele>168.0</ele><time>2026-04-25T07:13:05Z</time></trkpt><trkpt lat="45.478188927625396" lon="11.117432012510008"><ele>167.4</ele><time>2026-04-25T07:13:06Z</time></trkpt><trkpt lat="45.47825337493983" lon="11.117527865943346"><ele>166.8</ele><time>2026-04-25T07:13:07Z</time></trkpt><trkpt lat="45.47832207090372" lon="11.11763828126344"><ele>166.2</ele><time>2026-04-25T07:13:08Z</time></trkpt><trkpt lat="45.47838029221626" lon="11.117747868109312"><ele>165.6</ele><time>2026-04-25T07:13:09Z</time></trkpt><trkpt lat="45.478429056522" lon="11.117866983247628"><ele>165.0</ele><time>2026-04-25T07:13:10Z</time></trkpt><trkpt lat="45.47845768999213" lon="11.118003442932714"><ele>165.0</ele><time>2026-04-25T07:13:11Z</time></trkpt><trkpt lat="45.47847671238922" lon="11.118158094088328"><ele>165.0</ele><time>2026-04-25T07:13:12Z</time></trkpt><trkpt lat="45.478495253361736" lon="11.118304178038162"><ele>165.0</ele><time>2026-04-25T07:13:13Z</time></trkpt><trkpt lat="45.47852353033143" lon="11.118449114339205"><ele>165.0</ele><time>2026-04-25T07:13:14Z</time></trkpt><trkpt lat="45.47855481483725" lon="11.118591544397383"><ele>165.0</ele><time>2026-04-25T07:13:15Z</time></trkpt><trkpt lat="45.47857981669908" lon="11.11873506338316"><ele>166.0</ele><time>2026-04-25T07:13:16Z</time></trkpt><trkpt lat="45.4785992529623" lon="11.118885948093972"><ele>167.0</ele><time>2026-04-25T07:13:17.001Z</time></trkpt><trkpt lat="45.47863115999798" lon="11.119054550231033"><ele>168.0</ele><time>2026-04-25T07:13:18.001Z</time></trkpt><trkpt lat="45.47866195382216" lon="11.119210269543581"><ele>169.0</ele><time>2026-04-25T07:13:19.001Z</time></trkpt><trkpt lat="45.47869141173036" lon="11.119355130467955"><ele>170.0</ele><time>2026-04-25T07:13:20.001Z</time></trkpt><trkpt lat="45.47872381552076" lon="11.11949569174271"><ele>166.75</ele><time>2026-04-25T07:13:21.001Z</time></trkpt><trkpt lat="45.47876870866089" lon="11.119634102521609"><ele>163.5</ele><time>2026-04-25T07:13:22.001Z</time></trkpt><trkpt lat="45.478818161382044" lon="11.119781466879008"><ele>160.25</ele><time>2026-04-25T07:13:23.001Z</time></trkpt><trkpt lat="45.47886773478426" lon="11.11994882347416"><ele>157.0</ele><time>2026-04-25T07:13:24.001Z</time></trkpt><trkpt lat="45.47891239732463" lon="11.120130399339976"><ele>155.75</ele><time>2026-04-25T07:13:25.001Z</time></trkpt><trkpt lat="45.478946274173765" lon="11.120301487593693"><ele>154.5</ele><time>2026-04-25T07:13:26.001Z</time></trkpt><trkpt lat="45.47896392884164" lon="11.12047006661591"><ele>153.25</ele><time>2026-04-25T07:13:27.001Z</time></trkpt><trkpt lat="45.47897587710729" lon="11.120641907014095"><ele>152.0</ele><time>2026-04-25T07:13:28.001Z</time></trkpt><trkpt lat="45.47898838434769" lon="11.12082488791637"><ele>150.0</ele><time>2026-04-25T07:13:29.001Z</time></trkpt><trkpt lat="45.478973853477484" lon="11.12102338840197"><ele>148.0</ele><time>2026-04-25T07:13:30.001Z</time></trkpt><trkpt lat="45.47898718601387" lon="11.121225065284232"><ele>146.0</ele><time>2026-04-25T07:13:31.001Z</time></trkpt><trkpt lat="45.47898345387574" lon="11.121426337921513"><ele>144.0</ele><time>2026-04-25T07:13:32.001Z</time></trkpt><trkpt lat="45.47898352497297" lon="11.1216211769325"><ele>143.0</ele><time>2026-04-25T07:13:33.001Z</time></trkpt><trkpt lat="45.47897247538325" lon="11.12180221586302"><ele>142.0</ele><time>2026-04-25T07:13:34.001Z</time></trkpt><trkpt lat="45.47897586959012" lon="11.121980072316958"><ele>141.0</ele><time>2026-04-25T07:13:35.001Z</time></trkpt><trkpt lat="45.478995890093756" lon="11.122176888498956"><ele>140.0</ele><time>2026-04-25T07:13:36.001Z</time></trkpt><trkpt lat="45.47899244928854" lon="11.1223887494833"><ele>140.25</ele><time>2026-04-25T07:13:37.001Z</time></trkpt><trkpt lat="45.47899989266804" lon="11.122583757270956"><ele>140.5</ele><time>2026-04-25T07:13:38.001Z</time></trkpt><trkpt lat="45.479017039423745" lon="11.122774060502401"><ele>140.75</ele><time>2026-04-25T07:13:39.001Z</time></trkpt><trkpt lat="45.47903885086207" lon="11.122948119183825"><ele>141.0</ele><time>2026-04-25T07:13:40.001Z</time></trkpt><trkpt lat="45.479055900330685" lon="11.123103543102301"><ele>141.0</ele><time>2026-04-25T07:13:41.001Z</time></trkpt><trkpt lat="45.479074582695866" lon="11.123230398459459"><ele>141.0</ele><time>2026-04-25T07:13:42.001Z</time></trkpt><trkpt lat="45.479089301954524" lon="11.123328479554745"><ele>141.0</ele><time>2026-04-25T07:13:43.001Z</time></trkpt><trkpt lat="45.479206094099304" lon="11.123414313432303"><ele>141.0</ele><time>2026-04-25T07:13:45.001Z</time></trkpt><trkpt lat="45.47931405571895" lon="11.123378964479326"><ele>141.0</ele><time>2026-04-25T07:13:46.001Z</time></trkpt><trkpt lat="45.47941174258469" lon="11.123355807448716"><ele>140.75</ele><time>2026-04-25T07:13:47.001Z</time></trkpt><trkpt lat="45.47952955437577" lon="11.123345981469242"><ele>140.5</ele><time>2026-04-25T07:13:48.001Z</time></trkpt><trkpt lat="45.479640845317725" lon="11.123298174926193"><ele>140.25</ele><time>2026-04-25T07:13:49.001Z</time></trkpt><trkpt lat="45.479760460546004" lon="11.12326788269186"><ele>140.0</ele><time>2026-04-25T07:13:50.001Z</time></trkpt><trkpt lat="45.47986629939449" lon="11.123243916539536"><ele>139.2</ele><time>2026-04-25T07:13:51.001Z</time></trkpt><trkpt lat="45.4799510342575" lon="11.123243041815702"><ele>138.4</ele><time>2026-04-25T07:13:52.001Z</time></trkpt><trkpt lat="45.48001977254167" lon="11.123221926089267"><ele>137.6</ele><time>2026-04-25T07:13:53.001Z</time></trkpt><trkpt lat="45.480083204278" lon="11.123234555486825"><ele>136.8</ele><time>2026-04-25T07:13:54.001Z</time></trkpt><trkpt lat="45.48015334218715" lon="11.123362563521223"><ele>136.0</ele><time>2026-04-25T07:13:55.001Z</time></trkpt><trkpt lat="45.48022708846933" lon="11.123491927773953"><ele>136.75</ele><time>2026-04-25T07:13:56.001Z</time></trkpt><trkpt lat="45.48030658705301" lon="11.123630489110768"><ele>137.5</ele><time>2026-04-25T07:13:57.001Z</time></trkpt><trkpt lat="45.480395289223075" lon="11.123754683653695"><ele>138.25</ele><time>2026-04-25T07:13:58.001Z</time></trkpt><trkpt lat="45.48048974799419" lon="11.123916461133048"><ele>139.0</ele><time>2026-04-25T07:13:59.001Z</time></trkpt><trkpt lat="45.480579647876915" lon="11.124054357491518"><ele>137.0</ele><time>2026-04-25T07:14:00.001Z</time></trkpt><trkpt lat="45.48066314935399" lon="11.12419096980127"><ele>135.0</ele><time>2026-04-25T07:14:01.001Z</time></trkpt><trkpt lat="45.48074837326497" lon="11.124329485212344"><ele>133.0</ele><time>2026-04-25T07:14:02.001Z</time></trkpt><trkpt lat="45.48084240492769" lon="11.124485721756262"><ele>131.0</ele><time>2026-04-25T07:14:03.001Z</time></trkpt><trkpt lat="45.48094055326797" lon="11.124647313302736"><ele>131.0</ele><time>2026-04-25T07:14:04.001Z</time></trkpt><trkpt lat="45.481034785898046" lon="11.124798138350775"><ele>131.0</ele><time>2026-04-25T07:14:05.001Z</time></trkpt><trkpt lat="45.48112505272723" lon="11.124947915909747"><ele>131.0</ele><time>2026-04-25T07:14:06.001Z</time></trkpt><trkpt lat="45.48121208443892" lon="11.125095187675253"><ele>131.0</ele><time>2026-04-25T07:14:07.001Z</time></trkpt><trkpt lat="45.481300541995466" lon="11.125245577358504"><ele>131.5</ele><time>2026-04-25T07:14:08.001Z</time></trkpt><trkpt lat="45.48138886287872" lon="11.125397700637347"><ele>132.0</ele><time>2026-04-25T07:14:09.001Z</time></trkpt><trkpt lat="45.481476432906526" lon="11.125565053380251"><ele>132.5</ele><time>2026-04-25T07:14:10.001Z</time></trkpt><trkpt lat="45.481550312869786" lon="11.125743467297829"><ele>133.0</ele><time>2026-04-25T07:14:11.001Z</time></trkpt><trkpt lat="45.481601779631035" lon="11.12592944318867"><ele>131.75</ele><time>2026-04-25T07:14:12.001Z</time></trkpt><trkpt lat="45.4816585641663" lon="11.12610777510614"><ele>130.5</ele><time>2026-04-25T07:14:13.001Z</time></trkpt><trkpt lat="45.48172481019341" lon="11.126268320238754"><ele>129.25</ele><time>2026-04-25T07:14:14.001Z</time></trkpt><trkpt lat="45.481781725392615" lon="11.126422479747639"><ele>128.0</ele><time>2026-04-25T07:14:15Z</time></trkpt><trkpt lat="45.48182658622483" lon="11.126581122147638"><ele>127.66666666666666</ele><time>2026-04-25T07:14:16Z</time></trkpt><trkpt lat="45.48187425246601" lon="11.12670802175438"><ele>127.33333333333333</ele><time>2026-04-25T07:14:17Z</time></trkpt><trkpt lat="45.481913310966284" lon="11.12682062577516"><ele>127.0</ele><time>2026-04-25T07:14:18Z</time></trkpt><trkpt lat="45.48194638435568" lon="11.126921224658982"><ele>126.66666666666666</ele><time>2026-04-25T07:14:19Z</time></trkpt><trkpt lat="45.481993266327855" lon="11.127027752734582"><ele>126.33333333333333</ele><time>2026-04-25T07:14:21Z</time></trkpt><trkpt lat="45.48203680906149" lon="11.127107207186233"><ele>126.0</ele><time>2026-04-25T07:14:23Z</time></trkpt><trkpt lat="45.48215044006683" lon="11.127091295042653"><ele>126.0</ele><time>2026-04-25T07:14:24Z</time></trkpt><trkpt lat="45.48227622641372" lon="11.12709992743936"><ele>126.0</ele><time>2026-04-25T07:14:25Z</time></trkpt><trkpt lat="45.48241136728147" lon="11.127104894850955"><ele>126.0</ele><time>2026-04-25T07:14:26Z</time></trkpt><trkpt lat="45.48254663773514" lon="11.12712841117304"><ele>126.0</ele><time>2026-04-25T07:14:27Z</time></trkpt><trkpt lat="45.48267273276334" lon="11.127134753216598"><ele>126.0</ele><time>2026-04-25T07:14:28Z</time></trkpt><trkpt lat="45.48278989617272" lon="11.127146885172667"><ele>126.0</ele><time>2026-04-25T07:14:29Z</time></trkpt><trkpt lat="45.48289153477418" lon="11.127183580092835"><ele>126.0</ele><time>2026-04-25T07:14:30Z</time></trkpt><trkpt lat="45.48298425929273" lon="11.127198770301218"><ele>126.0</ele><time>2026-04-25T07:14:31Z</time></trkpt><trkpt lat="45.483055051251895" lon="11.127210642794813"><ele>126.0</ele><time>2026-04-25T07:14:32Z</time></trkpt><trkpt lat="45.48314504109119" lon="11.127199425379697"><ele>126.75</ele><time>2026-04-25T07:14:34Z</time></trkpt><trkpt lat="45.48319683711201" lon="11.126915620119737"><ele>127.5</ele><time>2026-04-25T07:14:35Z</time></trkpt><trkpt lat="45.48325231559339" lon="11.126819766213876"><ele>128.25</ele><time>2026-04-25T07:14:37Z</time></trkpt><trkpt lat="45.48315584203605" lon="11.126761797415794"><ele>129.0</ele><time>2026-04-25T07:14:39Z</time></trkpt><trkpt lat="45.483274093217375" lon="11.126784762889578"><ele>129.0</ele><time>2026-04-25T07:15:22.001Z</time></trkpt><trkpt lat="45.48331179827255" lon="11.126661493630044"><ele>129.0</ele><time>2026-04-25T07:16:57.001Z</time></trkpt><trkpt lat="45.48324821701024" lon="11.126652031806493"><ele>129.0</ele><time>2026-04-25T07:16:59.001Z</time></trkpt><trkpt lat="45.48321118333221" lon="11.126752647882684"><ele>129.0</ele><time>2026-04-25T07:17:01.001Z</time></trkpt><trkpt lat="45.48316130847765" lon="11.126846582112318"><ele>129.0</ele><time>2026-04-25T07:18:35.002Z</time></trkpt><trkpt lat="45.48313489712716" lon="11.12692999358057"><ele>129.0</ele><time>2026-04-25T07:18:37.002Z</time></trkpt><trkpt lat="45.48312846313595" lon="11.12704952801777"><ele>129.0</ele><time>2026-04-25T07:18:40.001Z</time></trkpt><trkpt lat="45.48320019377738" lon="11.127173083936889"><ele>129.0</ele><time>2026-04-25T07:18:43.001Z</time></trkpt><trkpt lat="45.48328344716404" lon="11.127210004716483"><ele>129.0</ele><time>2026-04-25T07:18:44.001Z</time></trkpt><trkpt lat="45.48339319453654" lon="11.1272623129832"><ele>129.0</ele><time>2026-04-25T07:18:45.001Z</time></trkpt><trkpt lat="45.48352009767851" lon="11.127328669949161"><ele>127.0</ele><time>2026-04-25T07:18:46.001Z</time></trkpt><trkpt lat="45.48367027319563" lon="11.127395792562572"><ele>125.0</ele><time>2026-04-25T07:18:47.001Z</time></trkpt><trkpt lat="45.483810401651304" lon="11.127452117813862"><ele>123.0</ele><time>2026-04-25T07:18:48.001Z</time></trkpt><trkpt lat="45.48396108753265" lon="11.127508035250365"><ele>123.0</ele><time>2026-04-25T07:18:49.001Z</time></trkpt><trkpt lat="45.48410993679512" lon="11.12756243583953"><ele>123.0</ele><time>2026-04-25T07:18:50.001Z</time></trkpt><trkpt lat="45.48423796739658" lon="11.12760263165951"><ele>123.0</ele><time>2026-04-25T07:18:51.001Z</time></trkpt><trkpt lat="45.48437665847174" lon="11.127639225391075"><ele>123.0</ele><time>2026-04-25T07:18:52.001Z</time></trkpt><trkpt lat="45.484513088589125" lon="11.127678947344968"><ele>123.25</ele><time>2026-04-25T07:18:53.001Z</time></trkpt><trkpt lat="45.484640158503076" lon="11.127733005260035"><ele>123.5</ele><time>2026-04-25T07:18:54.001Z</time></trkpt><trkpt lat="45.48476808174833" lon="11.127794461474334"><ele>123.75</ele><time>2026-04-25T07:18:55.001Z</time></trkpt><trkpt lat="45.48489770625555" lon="11.127860373885099"><ele>124.0</ele><time>2026-04-25T07:18:56.001Z</time></trkpt><trkpt lat="45.48502938268084" lon="11.12791877824569"><ele>124.0</ele><time>2026-04-25T07:18:57.001Z</time></trkpt><trkpt lat="45.48515273570763" lon="11.12797152207477"><ele>124.0</ele><time>2026-04-25T07:18:58.001Z</time></trkpt><trkpt lat="45.48528235636275" lon="11.12801724115321"><ele>124.0</ele><time>2026-04-25T07:18:59.001Z</time></trkpt><trkpt lat="45.48542953556809" lon="11.128059257694307"><ele>124.0</ele><time>2026-04-25T07:19:00.001Z</time></trkpt><trkpt lat="45.48557690769071" lon="11.128061877654776"><ele>123.75</ele><time>2026-04-25T07:19:01.001Z</time></trkpt><trkpt lat="45.48572601147318" lon="11.128013645480419"><ele>123.5</ele><time>2026-04-25T07:19:02.001Z</time></trkpt><trkpt lat="45.48586456599343" lon="11.127954138099906"><ele>123.25</ele><time>2026-04-25T07:19:03.001Z</time></trkpt><trkpt lat="45.485988615229616" lon="11.127894717478252"><ele>123.0</ele><time>2026-04-25T07:19:04.001Z</time></trkpt><trkpt lat="45.48611299826556" lon="11.127854582232763"><ele>123.0</ele><time>2026-04-25T07:19:05.001Z</time></trkpt><trkpt lat="45.486237801191194" lon="11.127820778046011"><ele>123.0</ele><time>2026-04-25T07:19:06.001Z</time></trkpt><trkpt lat="45.48636123115782" lon="11.127774182454774"><ele>123.0</ele><time>2026-04-25T07:19:07.001Z</time></trkpt><trkpt lat="45.486481149607606" lon="11.127705604979592"><ele>123.0</ele><time>2026-04-25T07:19:08.001Z</time></trkpt><trkpt lat="45.486596944522404" lon="11.127588418959359"><ele>123.25</ele><time>2026-04-25T07:19:09.001Z</time></trkpt><trkpt lat="45.48670560439331" lon="11.127437863561271"><ele>123.5</ele><time>2026-04-25T07:19:10.001Z</time></trkpt><trkpt lat="45.48679536151931" lon="11.127274233769151"><ele>123.75</ele><time>2026-04-25T07:19:11.001Z</time></trkpt><trkpt lat="45.486873626461986" lon="11.127119716220005"><ele>124.0</ele><time>2026-04-25T07:19:12.001Z</time></trkpt><trkpt lat="45.486974225822195" lon="11.126988635986322"><ele>125.25</ele><time>2026-04-25T07:19:13.001Z</time></trkpt><trkpt lat="45.487095155500676" lon="11.126879843376887"><ele>126.5</ele><time>2026-04-25T07:19:14.001Z</time></trkpt><trkpt lat="45.48722790985221" lon="11.126805909524636"><ele>127.75</ele><time>2026-04-25T07:19:15.001Z</time></trkpt><trkpt lat="45.48737744449456" lon="11.126803724564313"><ele>129.0</ele><time>2026-04-25T07:19:16.001Z</time></trkpt><trkpt lat="45.48752863196676" lon="11.12682450554025"><ele>129.0</ele><time>2026-04-25T07:19:17.001Z</time></trkpt><trkpt lat="45.48768102677014" lon="11.12683209490409"><ele>129.0</ele><time>2026-04-25T07:19:18.001Z</time></trkpt><trkpt lat="45.48782812667625" lon="11.126874710458162"><ele>129.0</ele><time>2026-04-25T07:19:19.001Z</time></trkpt><trkpt lat="45.48796515285269" lon="11.12690006538106"><ele>129.0</ele><time>2026-04-25T07:19:20.001Z</time></trkpt><trkpt lat="45.4881067130718" lon="11.12691775626349"><ele>129.25</ele><time>2026-04-25T07:19:21.001Z</time></trkpt><trkpt lat="45.488247789791025" lon="11.126941994004586"><ele>129.5</ele><time>2026-04-25T07:19:22.001Z</time></trkpt><trkpt lat="45.4883851312036" lon="11.126967098323163"><ele>129.75</ele><time>2026-04-25T07:19:23.001Z</time></trkpt><trkpt lat="45.48852135518874" lon="11.126989277406897"><ele>130.0</ele><time>2026-04-25T07:19:24.001Z</time></trkpt><trkpt lat="45.48865800694034" lon="11.127022464793818"><ele>130.5</ele><time>2026-04-25T07:19:25.001Z</time></trkpt><trkpt lat="45.4887819286317" lon="11.12704754098134"><ele>131.0</ele><time>2026-04-25T07:19:26.001Z</time></trkpt><trkpt lat="45.488903169145516" lon="11.127078248224203"><ele>131.5</ele><time>2026-04-25T07:19:27.001Z</time></trkpt><trkpt lat="45.489016291719935" lon="11.127076779806863"><ele>132.0</ele><time>2026-04-25T07:19:28.001Z</time></trkpt><trkpt lat="45.489127455243896" lon="11.127026345705064"><ele>132.0</ele><time>2026-04-25T07:19:29.001Z</time></trkpt><trkpt lat="45.48923690441395" lon="11.126912865506837"><ele>132.0</ele><time>2026-04-25T07:19:30.001Z</time></trkpt><trkpt lat="45.489335326766806" lon="11.126763461935925"><ele>132.0</ele><time>2026-04-25T07:19:31.001Z</time></trkpt><trkpt lat="45.489438026913476" lon="11.12662421187638"><ele>132.0</ele><time>2026-04-25T07:19:32.001Z</time></trkpt><trkpt lat="45.48952536010963" lon="11.12647395872811"><ele>136.66666666666666</ele><time>2026-04-25T07:19:33.001Z</time></trkpt><trkpt lat="45.48965623403733" lon="11.126389041403533"><ele>141.33333333333331</ele><time>2026-04-25T07:19:34.001Z</time></trkpt><trkpt lat="45.48981407761076" lon="11.126338523605343"><ele>146.0</ele><time>2026-04-25T07:19:35.001Z</time></trkpt><trkpt lat="45.4899694320158" lon="11.126302864819188"><ele>146.0</ele><time>2026-04-25T07:19:36.001Z</time></trkpt><trkpt lat="45.49010257163395" lon="11.126276635498176"><ele>146.0</ele><time>2026-04-25T07:19:37.001Z</time></trkpt><trkpt lat="45.49022480446493" lon="11.126251321867736"><ele>146.0</ele><time>2026-04-25T07:19:38.001Z</time></trkpt><trkpt lat="45.490346730605644" lon="11.12621577339935"><ele>146.0</ele><time>2026-04-25T07:19:39.001Z</time></trkpt><trkpt lat="45.490480869020864" lon="11.126183425407365"><ele>146.25</ele><time>2026-04-25T07:19:40.001Z</time></trkpt><trkpt lat="45.490620875899694" lon="11.126152163834622"><ele>146.5</ele><time>2026-04-25T07:19:41.001Z</time></trkpt><trkpt lat="45.49076406219992" lon="11.126115737247536"><ele>146.75</ele><time>2026-04-25T07:19:42.001Z</time></trkpt><trkpt lat="45.49090799509421" lon="11.126075746776955"><ele>147.0</ele><time>2026-04-25T07:19:43.001Z</time></trkpt><trkpt lat="45.491056199208785" lon="11.126029760997724"><ele>147.0</ele><time>2026-04-25T07:19:44.001Z</time></trkpt><trkpt lat="45.49120311377049" lon="11.125972463292127"><ele>147.0</ele><time>2026-04-25T07:19:45.001Z</time></trkpt><trkpt lat="45.49135104081759" lon="11.125909948226274"><ele>147.0</ele><time>2026-04-25T07:19:46.001Z</time></trkpt><trkpt lat="45.491495147446265" lon="11.125888977263775"><ele>146.66666666666666</ele><time>2026-04-25T07:19:47.001Z</time></trkpt><trkpt lat="45.49164239875473" lon="11.125837427336693"><ele>146.33333333333331</ele><time>2026-04-25T07:19:48.001Z</time></trkpt><trkpt lat="45.49180542624494" lon="11.125822979212675"><ele>146.0</ele><time>2026-04-25T07:19:49.001Z</time></trkpt><trkpt lat="45.49196775868162" lon="11.125823224586377"><ele>145.66666666666666</ele><time>2026-04-25T07:19:50.001Z</time></trkpt><trkpt lat="45.49213918891597" lon="11.12581384720567"><ele>145.33333333333334</ele><time>2026-04-25T07:19:51.001Z</time></trkpt><trkpt lat="45.49230812381758" lon="11.125800164818306"><ele>145.0</ele><time>2026-04-25T07:19:52.001Z</time></trkpt><trkpt lat="45.49246589597096" lon="11.125785083187779"><ele>145.0</ele><time>2026-04-25T07:19:53.001Z</time></trkpt><trkpt lat="45.49261094460275" lon="11.125777124987575"><ele>145.0</ele><time>2026-04-25T07:19:54.001Z</time></trkpt><trkpt lat="45.492743466017586" lon="11.12578409267018"><ele>145.0</ele><time>2026-04-25T07:19:55.001Z</time></trkpt><trkpt lat="45.49286677262386" lon="11.125831695817435"><ele>145.0</ele><time>2026-04-25T07:19:56.001Z</time></trkpt><trkpt lat="45.49297281506325" lon="11.125920863225447"><ele>146.33333333333334</ele><time>2026-04-25T07:19:57.001Z</time></trkpt><trkpt lat="45.49306538295082" lon="11.126053724102212"><ele>147.66666666666666</ele><time>2026-04-25T07:19:58.001Z</time></trkpt><trkpt lat="45.49316028248243" lon="11.126225576607135"><ele>149.0</ele><time>2026-04-25T07:19:59.001Z</time></trkpt><trkpt lat="45.493266800378315" lon="11.12640525952856"><ele>149.0</ele><time>2026-04-25T07:20:00.001Z</time></trkpt><trkpt lat="45.493371861448985" lon="11.12655902733196"><ele>149.0</ele><time>2026-04-25T07:20:01.001Z</time></trkpt><trkpt lat="45.49347225408448" lon="11.12669960838795"><ele>149.0</ele><time>2026-04-25T07:20:02.001Z</time></trkpt><trkpt lat="45.49357350560335" lon="11.126846439680705"><ele>149.0</ele><time>2026-04-25T07:20:03.001Z</time></trkpt><trkpt lat="45.493675816582645" lon="11.126994668842757"><ele>150.5</ele><time>2026-04-25T07:20:04.001Z</time></trkpt><trkpt lat="45.493769069778565" lon="11.127139039821287"><ele>152.0</ele><time>2026-04-25T07:20:05.001Z</time></trkpt><trkpt lat="45.49384930697666" lon="11.127284284194708"><ele>153.5</ele><time>2026-04-25T07:20:06.001Z</time></trkpt><trkpt lat="45.49389577365656" lon="11.127437316342371"><ele>155.0</ele><time>2026-04-25T07:20:07.001Z</time></trkpt><trkpt lat="45.49391326079901" lon="11.1275971227611"><ele>152.2</ele><time>2026-04-25T07:20:08.001Z</time></trkpt><trkpt lat="45.49390960679022" lon="11.127750509373337"><ele>149.4</ele><time>2026-04-25T07:20:09.001Z</time></trkpt><trkpt lat="45.49389734859262" lon="11.127874209042085"><ele>146.6</ele><time>2026-04-25T07:20:10.001Z</time></trkpt><trkpt lat="45.493876915224135" lon="11.127978256868454"><ele>143.8</ele><time>2026-04-25T07:20:11.001Z</time></trkpt><trkpt lat="45.49387692590444" lon="11.12812192363568"><ele>141.0</ele><time>2026-04-25T07:20:13.001Z</time></trkpt><trkpt lat="45.49407433623567" lon="11.12819163721034"><ele>140.5</ele><time>2026-04-25T07:20:14.001Z</time></trkpt><trkpt lat="45.49417703169563" lon="11.128230846710244"><ele>140.0</ele><time>2026-04-25T07:20:15.001Z</time></trkpt><trkpt lat="45.49429954001836" lon="11.12828822872035"><ele>139.5</ele><time>2026-04-25T07:20:16.001Z</time></trkpt><trkpt lat="45.49443590384789" lon="11.128324145035359"><ele>139.0</ele><time>2026-04-25T07:20:17.001Z</time></trkpt><trkpt lat="45.49458721293806" lon="11.128354526259391"><ele>139.0</ele><time>2026-04-25T07:20:18.001Z</time></trkpt><trkpt lat="45.494728313375" lon="11.128369208887817"><ele>139.0</ele><time>2026-04-25T07:20:19.001Z</time></trkpt><trkpt lat="45.49487024491694" lon="11.128359712747793"><ele>139.0</ele><time>2026-04-25T07:20:20.001Z</time></trkpt><trkpt lat="45.49500607773627" lon="11.128374204216989"><ele>139.0</ele><time>2026-04-25T07:20:21.001Z</time></trkpt><trkpt lat="45.49514162743921" lon="11.128412803336175"><ele>139.0</ele><time>2026-04-25T07:20:22.001Z</time></trkpt><trkpt lat="45.49527720260566" lon="11.128410425080054"><ele>139.0</ele><time>2026-04-25T07:20:23.001Z</time></trkpt><trkpt lat="45.49540334522323" lon="11.12842563222163"><ele>139.0</ele><time>2026-04-25T07:20:24.001Z</time></trkpt><trkpt lat="45.495525365423134" lon="11.128437823133332"><ele>139.0</ele><time>2026-04-25T07:20:25.001Z</time></trkpt><trkpt lat="45.495646291839286" lon="11.128478249555455"><ele>139.6</ele><time>2026-04-25T07:20:26.001Z</time></trkpt><trkpt lat="45.49576361853384" lon="11.128496710776135"><ele>140.2</ele><time>2026-04-25T07:20:27.001Z</time></trkpt><trkpt lat="45.4958731599706" lon="11.128515026168843"><ele>140.79999999999998</ele><time>2026-04-25T07:20:28.001Z</time></trkpt><trkpt lat="45.49597863749419" lon="11.128534317834344"><ele>141.4</ele><time>2026-04-25T07:20:29.001Z</time></trkpt><trkpt lat="45.49608310989179" lon="11.128535070853236"><ele>142.0</ele><time>2026-04-25T07:20:30.001Z</time></trkpt><trkpt lat="45.49619320496001" lon="11.128556313303791"><ele>142.5</ele><time>2026-04-25T07:20:31.001Z</time></trkpt><trkpt lat="45.49631188975278" lon="11.128573226132211"><ele>143.0</ele><time>2026-04-25T07:20:32.001Z</time></trkpt><trkpt lat="45.49643573687051" lon="11.128616925184952"><ele>143.5</ele><time>2026-04-25T07:20:33Z</time></trkpt><trkpt lat="45.49657034032775" lon="11.12863740429449"><ele>144.0</ele><time>2026-04-25T07:20:34Z</time></trkpt><trkpt lat="45.49671460865483" lon="11.12865541517529"><ele>144.0</ele><time>2026-04-25T07:20:35Z</time></trkpt><trkpt lat="45.49686907668704" lon="11.128672552500818"><ele>144.0</ele><time>2026-04-25T07:20:36Z</time></trkpt><trkpt lat="45.49702807941318" lon="11.12868928190938"><ele>144.0</ele><time>2026-04-25T07:20:37Z</time></trkpt><trkpt lat="45.49718922922106" lon="11.128687282890871"><ele>146.33333333333334</ele><time>2026-04-25T07:20:38Z</time></trkpt><trkpt lat="45.49735141045803" lon="11.128704430199717"><ele>148.66666666666669</ele><time>2026-04-25T07:20:39Z</time></trkpt><trkpt lat="45.49751642173968" lon="11.12873476063895"><ele>151.0</ele><time>2026-04-25T07:20:40Z</time></trkpt><trkpt lat="45.49767667854911" lon="11.12874477668321"><ele>151.0</ele><time>2026-04-25T07:20:41Z</time></trkpt><trkpt lat="45.49783975460725" lon="11.128750167677305"><ele>151.0</ele><time>2026-04-25T07:20:42Z</time></trkpt><trkpt lat="45.497998148875155" lon="11.128743486779358"><ele>151.0</ele><time>2026-04-25T07:20:43Z</time></trkpt><trkpt lat="45.49815280069626" lon="11.128726037999318"><ele>151.5</ele><time>2026-04-25T07:20:44Z</time></trkpt><trkpt lat="45.4982948379409" lon="11.128703036267023"><ele>152.0</ele><time>2026-04-25T07:20:45Z</time></trkpt><trkpt lat="45.49843066548205" lon="11.128678055135245"><ele>152.5</ele><time>2026-04-25T07:20:46Z</time></trkpt><trkpt lat="45.49856022883091" lon="11.128652304047527"><ele>153.0</ele><time>2026-04-25T07:20:47Z</time></trkpt><trkpt lat="45.49869238502268" lon="11.128604058710334"><ele>152.0</ele><time>2026-04-25T07:20:48Z</time></trkpt><trkpt lat="45.498827720603096" lon="11.128619535980928"><ele>151.0</ele><time>2026-04-25T07:20:49Z</time></trkpt><trkpt lat="45.49894819892139" lon="11.128655384632955"><ele>150.0</ele><time>2026-04-25T07:20:50Z</time></trkpt><trkpt lat="45.499063817317904" lon="11.128726236519862"><ele>149.0</ele><time>2026-04-25T07:20:51Z</time></trkpt><trkpt lat="45.499193083596644" lon="11.128821803014265"><ele>149.0</ele><time>2026-04-25T07:20:52Z</time></trkpt><trkpt lat="45.49931590367246" lon="11.128921510821598"><ele>149.0</ele><time>2026-04-25T07:20:53Z</time></trkpt><trkpt lat="45.49943317851127" lon="11.129009984944828"><ele>149.0</ele><time>2026-04-25T07:20:54Z</time></trkpt><trkpt lat="45.49957241355177" lon="11.129018426853085"><ele>149.0</ele><time>2026-04-25T07:20:55Z</time></trkpt><trkpt lat="45.49970190591088" lon="11.129011292419628"><ele>149.75</ele><time>2026-04-25T07:20:56Z</time></trkpt><trkpt lat="45.49982300189662" lon="11.128965907649677"><ele>150.5</ele><time>2026-04-25T07:20:57Z</time></trkpt><trkpt lat="45.49995276898638" lon="11.128889950116932"><ele>151.25</ele><time>2026-04-25T07:20:58Z</time></trkpt><trkpt lat="45.50009527694994" lon="11.128803685577223"><ele>152.0</ele><time>2026-04-25T07:20:59Z</time></trkpt><trkpt lat="45.50024581740088" lon="11.128710241273316"><ele>152.0</ele><time>2026-04-25T07:21:00Z</time></trkpt><trkpt lat="45.50037955548602" lon="11.128619652369059"><ele>152.0</ele><time>2026-04-25T07:21:01Z</time></trkpt><trkpt lat="45.500511863772225" lon="11.128552358503768"><ele>152.0</ele><time>2026-04-25T07:21:02Z</time></trkpt><trkpt lat="45.50063455011216" lon="11.128453663924697"><ele>152.0</ele><time>2026-04-25T07:21:03Z</time></trkpt><trkpt lat="45.500740778786174" lon="11.128353563967028"><ele>152.4</ele><time>2026-04-25T07:21:04Z</time></trkpt><trkpt lat="45.50080272315507" lon="11.128235758734895"><ele>152.79999999999998</ele><time>2026-04-25T07:21:05Z</time></trkpt><trkpt lat="45.500885247718564" lon="11.128156134338644"><ele>153.2</ele><time>2026-04-25T07:21:07Z</time></trkpt><trkpt lat="45.50096320991342" lon="11.128169532872898"><ele>153.6</ele><time>2026-04-25T07:21:09Z</time></trkpt><trkpt lat="45.50101422040477" lon="11.12835444855001"><ele>154.0</ele><time>2026-04-25T07:21:10Z</time></trkpt><trkpt lat="45.501095702889664" lon="11.128345905902213"><ele>154.25</ele><time>2026-04-25T07:21:13Z</time></trkpt><trkpt lat="45.5011758413168" lon="11.128194425013183"><ele>154.5</ele><time>2026-04-25T07:21:15Z</time></trkpt><trkpt lat="45.50126310961195" lon="11.12809360330588"><ele>154.75</ele><time>2026-04-25T07:21:16Z</time></trkpt><trkpt lat="45.50136873822762" lon="11.127980949482986"><ele>155.0</ele><time>2026-04-25T07:21:17Z</time></trkpt><trkpt lat="45.50149765801395" lon="11.127853557504043"><ele>155.0</ele><time>2026-04-25T07:21:18Z</time></trkpt><trkpt lat="45.501633333999244" lon="11.127719553483702"><ele>155.0</ele><time>2026-04-25T07:21:19Z</time></trkpt><trkpt lat="45.50177829249047" lon="11.127580602085215"><ele>155.0</ele><time>2026-04-25T07:21:20Z</time></trkpt><trkpt lat="45.50190878513045" lon="11.12746082289873"><ele>157.5</ele><time>2026-04-25T07:21:21Z</time></trkpt><trkpt lat="45.50203072662488" lon="11.127374622907478"><ele>160.0</ele><time>2026-04-25T07:21:22Z</time></trkpt><trkpt lat="45.5021685968541" lon="11.127312859790345"><ele>162.5</ele><time>2026-04-25T07:21:23Z</time></trkpt><trkpt lat="45.502328043596755" lon="11.127255863847632"><ele>165.0</ele><time>2026-04-25T07:21:24Z</time></trkpt><trkpt lat="45.50248915223046" lon="11.127218835584417"><ele>165.0</ele><time>2026-04-25T07:21:25Z</time></trkpt><trkpt lat="45.502619887342675" lon="11.127194012549277"><ele>165.0</ele><time>2026-04-25T07:21:26Z</time></trkpt><trkpt lat="45.50273998490165" lon="11.127175251441194"><ele>165.0</ele><time>2026-04-25T07:21:27Z</time></trkpt><trkpt lat="45.502855843057226" lon="11.127164092508526"><ele>165.0</ele><time>2026-04-25T07:21:28Z</time></trkpt><trkpt lat="45.502957856214344" lon="11.127162619385759"><ele>164.8</ele><time>2026-04-25T07:21:29Z</time></trkpt><trkpt lat="45.503046624408945" lon="11.127161822437992"><ele>164.6</ele><time>2026-04-25T07:21:30Z</time></trkpt><trkpt lat="45.50316550478193" lon="11.127118229332371"><ele>164.39999999999998</ele><time>2026-04-25T07:21:32Z</time></trkpt><trkpt lat="45.503286350265896" lon="11.127090574040853"><ele>164.2</ele><time>2026-04-25T07:21:34Z</time></trkpt><trkpt lat="45.50338657545399" lon="11.127072107835504"><ele>164.0</ele><time>2026-04-25T07:21:36Z</time></trkpt><trkpt lat="45.50348604269795" lon="11.127081467060298"><ele>164.0</ele><time>2026-04-25T07:21:38Z</time></trkpt><trkpt lat="45.50359196239739" lon="11.12707752244601"><ele>164.0</ele><time>2026-04-25T07:21:41Z</time></trkpt><trkpt lat="45.503672240398345" lon="11.127074443873417"><ele>164.0</ele><time>2026-04-25T07:21:43Z</time></trkpt><trkpt lat="45.50374239612426" lon="11.12702645554919"><ele>164.0</ele><time>2026-04-25T07:21:46Z</time></trkpt><trkpt lat="45.50380830307433" lon="11.12702151492978"><ele>164.0</ele><time>2026-04-25T07:21:48Z</time></trkpt><trkpt lat="45.503880132455365" lon="11.127027016626101"><ele>164.0</ele><time>2026-04-25T07:21:51Z</time></trkpt><trkpt lat="45.50395305938681" lon="11.127038308577477"><ele>164.33333333333331</ele><time>2026-04-25T07:21:53Z</time></trkpt><trkpt lat="45.50401537517723" lon="11.1270554962061"><ele>164.66666666666666</ele><time>2026-04-25T07:21:58Z</time></trkpt><trkpt lat="45.504105554189216" lon="11.127058504659963"><ele>165.0</ele><time>2026-04-25T07:22:03.001Z</time></trkpt><trkpt lat="45.504174967755816" lon="11.127048466148455"><ele>165.33333333333334</ele><time>2026-04-25T07:22:07.001Z</time></trkpt><trkpt lat="45.50428889665579" lon="11.127037699787522"><ele>165.66666666666669</ele><time>2026-04-25T07:22:10.001Z</time></trkpt><trkpt lat="45.504356507468366" lon="11.127028061999507"><ele>166.0</ele><time>2026-04-25T07:22:12.001Z</time></trkpt><trkpt lat="45.50440438969351" lon="11.126953968561605"><ele>166.0</ele><time>2026-04-25T07:22:16.001Z</time></trkpt><trkpt lat="45.50446196786055" lon="11.126901982922277"><ele>166.0</ele><time>2026-04-25T07:22:19.001Z</time></trkpt><trkpt lat="45.504564265869696" lon="11.126942126185893"><ele>166.0</ele><time>2026-04-25T07:22:20.001Z</time></trkpt><trkpt lat="45.50462415331804" lon="11.127133107879658"><ele>166.0</ele><time>2026-04-25T07:22:21.001Z</time></trkpt><trkpt lat="45.50468714199063" lon="11.127108887302008"><ele>166.0</ele><time>2026-04-25T07:22:23.001Z</time></trkpt><trkpt lat="45.504746584659514" lon="11.127073202459188"><ele>166.66666666666669</ele><time>2026-04-25T07:22:25.001Z</time></trkpt><trkpt lat="45.50480944359476" lon="11.127023840307546"><ele>167.33333333333334</ele><time>2026-04-25T07:22:28.001Z</time></trkpt><trkpt lat="45.504884532992726" lon="11.127001079523009"><ele>168.0</ele><time>2026-04-25T07:22:32.001Z</time></trkpt><trkpt lat="45.504946434341754" lon="11.126907852291907"><ele>168.66666666666666</ele><time>2026-04-25T07:22:35.001Z</time></trkpt><trkpt lat="45.505022479373835" lon="11.126839812665775"><ele>169.33333333333331</ele><time>2026-04-25T07:22:38.001Z</time></trkpt><trkpt lat="45.50508542395935" lon="11.12677482849213"><ele>170.0</ele><time>2026-04-25T07:22:40.999Z</time></trkpt><trkpt lat="45.50516419623877" lon="11.126759716993389"><ele>170.0</ele><time>2026-04-25T07:22:42.999Z</time></trkpt><trkpt lat="45.50523411476402" lon="11.126684727377421"><ele>170.0</ele><time>2026-04-25T07:22:45.999Z</time></trkpt><trkpt lat="45.50530899312866" lon="11.126619506650828"><ele>170.0</ele><time>2026-04-25T07:22:48.999Z</time></trkpt><trkpt lat="45.50537072188523" lon="11.126553725715079"><ele>170.0</ele><time>2026-04-25T07:22:51.999Z</time></trkpt><trkpt lat="45.50541715790492" lon="11.126489667189798"><ele>170.0</ele><time>2026-04-25T07:23:13Z</time></trkpt><trkpt lat="45.50548590383473" lon="11.126446580858016"><ele>170.0</ele><time>2026-04-25T07:23:20Z</time></trkpt><trkpt lat="45.505546605599335" lon="11.126402271210406"><ele>172.57142857142858</ele><time>2026-04-25T07:23:24Z</time></trkpt><trkpt lat="45.505605668828316" lon="11.126314324263353"><ele>175.14285714285714</ele><time>2026-04-25T07:23:27Z</time></trkpt><trkpt lat="45.50565166316931" lon="11.126248467629727"><ele>177.71428571428572</ele><time>2026-04-25T07:23:30Z</time></trkpt><trkpt lat="45.505710228378035" lon="11.12620661665619"><ele>180.28571428571428</ele><time>2026-04-25T07:23:39Z</time></trkpt><trkpt lat="45.505763991912616" lon="11.126144404505983"><ele>182.85714285714283</ele><time>2026-04-25T07:23:44Z</time></trkpt><trkpt lat="45.50579901272029" lon="11.1260572405222"><ele>185.42857142857142</ele><time>2026-04-25T07:23:48Z</time></trkpt><trkpt lat="45.50585420738845" lon="11.125987982921576"><ele>188.0</ele><time>2026-04-25T07:23:52Z</time></trkpt><trkpt lat="45.505912453518796" lon="11.125926486305628"><ele>188.0</ele><time>2026-04-25T07:23:55Z</time></trkpt><trkpt lat="45.50599099302263" lon="11.12587163406216"><ele>188.0</ele><time>2026-04-25T07:23:59Z</time></trkpt><trkpt lat="45.506058041734974" lon="11.125849332096061"><ele>188.0</ele><time>2026-04-25T07:24:09Z</time></trkpt><trkpt lat="45.5061160173259" lon="11.125777713103261"><ele>188.0</ele><time>2026-04-25T07:24:41.001Z</time></trkpt><trkpt lat="45.50617719907599" lon="11.125724202185113"><ele>188.0</ele><time>2026-04-25T07:24:44.999Z</time></trkpt><trkpt lat="45.506288067240156" lon="11.12572499596484"><ele>188.0</ele><time>2026-04-25T07:25:06.999Z</time></trkpt><trkpt lat="45.50635260049776" lon="11.125713347229963"><ele>187.16666666666666</ele><time>2026-04-25T07:25:11Z</time></trkpt><trkpt lat="45.50642058913435" lon="11.125752716371526"><ele>186.33333333333331</ele><time>2026-04-25T07:25:15Z</time></trkpt><trkpt lat="45.50650311069776" lon="11.125755378583044"><ele>185.5</ele><time>2026-04-25T07:25:19Z</time></trkpt><trkpt lat="45.50658132871199" lon="11.12581288753974"><ele>184.66666666666666</ele><time>2026-04-25T07:25:23Z</time></trkpt><trkpt lat="45.506651431243895" lon="11.12586693505858"><ele>183.83333333333334</ele><time>2026-04-25T07:25:26Z</time></trkpt><trkpt lat="45.506716544197246" lon="11.125880873477346"><ele>183.0</ele><time>2026-04-25T07:25:32Z</time></trkpt><trkpt lat="45.50678356034087" lon="11.12591820977559"><ele>183.0</ele><time>2026-04-25T07:25:36Z</time></trkpt><trkpt lat="45.50685351804077" lon="11.125923984508539"><ele>183.0</ele><time>2026-04-25T07:25:43Z</time></trkpt><trkpt lat="45.506914536930516" lon="11.125970636973863"><ele>183.0</ele><time>2026-04-25T07:25:49Z</time></trkpt><trkpt lat="45.50701149809346" lon="11.125981426484584"><ele>183.0</ele><time>2026-04-25T07:26:22.001Z</time></trkpt><trkpt lat="45.507126431338264" lon="11.126016368353788"><ele>183.0</ele><time>2026-04-25T07:26:53.999Z</time></trkpt><trkpt lat="45.50719401185867" lon="11.126009788715653"><ele>183.0</ele><time>2026-04-25T07:39:46Z</time></trkpt><trkpt lat="45.507256348204216" lon="11.125986208520441"><ele>184.0</ele><time>2026-04-25T07:39:48Z</time></trkpt><trkpt lat="45.50731165201898" lon="11.12593805920206"><ele>185.0</ele><time>2026-04-25T07:39:50Z</time></trkpt><trkpt lat="45.507456472355635" lon="11.12591898265444"><ele>186.0</ele><time>2026-04-25T07:39:56Z</time></trkpt><trkpt lat="45.507606415723174" lon="11.125826277270097"><ele>187.0</ele><time>2026-04-25T07:40:12Z</time></trkpt><trkpt lat="45.50767663566856" lon="11.125822268697274"><ele>188.0</ele><time>2026-04-25T07:40:29Z</time></trkpt><trkpt lat="45.50759767590782" lon="11.125868093988608"><ele>188.0</ele><time>2026-04-25T07:40:45Z</time></trkpt><trkpt lat="45.50753218747779" lon="11.125951592014705"><ele>188.0</ele><time>2026-04-25T07:40:50Z</time></trkpt><trkpt lat="45.50761054355621" lon="11.125943371684949"><ele>188.0</ele><time>2026-04-25T07:40:57Z</time></trkpt><trkpt lat="45.507744716220344" lon="11.125824448073363"><ele>188.0</ele><time>2026-04-25T07:41:55Z</time></trkpt><trkpt lat="45.507813379273024" lon="11.125810792461856"><ele>188.0</ele><time>2026-04-25T07:41:56Z</time></trkpt><trkpt lat="45.50787985530552" lon="11.125761563645392"><ele>190.66666666666666</ele><time>2026-04-25T07:41:57Z</time></trkpt><trkpt lat="45.507947001919895" lon="11.12568235847461"><ele>193.33333333333331</ele><time>2026-04-25T07:41:58Z</time></trkpt><trkpt lat="45.50800571426661" lon="11.12563688402771"><ele>196.0</ele><time>2026-04-25T07:41:59Z</time></trkpt><trkpt lat="45.50806358027389" lon="11.125574441086249"><ele>198.66666666666666</ele><time>2026-04-25T07:42:00Z</time></trkpt><trkpt lat="45.50814734929391" lon="11.125569460319593"><ele>201.33333333333334</ele><time>2026-04-25T07:42:01Z</time></trkpt><trkpt lat="45.508246364417666" lon="11.125487687213365"><ele>204.0</ele><time>2026-04-25T07:42:03Z</time></trkpt><trkpt lat="45.50831718214668" lon="11.125441691606078"><ele>204.0</ele><time>2026-04-25T07:42:04Z</time></trkpt><trkpt lat="45.50839761504856" lon="11.125409722443584"><ele>204.0</ele><time>2026-04-25T07:42:05Z</time></trkpt><trkpt lat="45.50849377279073" lon="11.12539945455123"><ele>204.0</ele><time>2026-04-25T07:42:06Z</time></trkpt><trkpt lat="45.50859787917993" lon="11.125383637962985"><ele>204.0</ele><time>2026-04-25T07:42:07Z</time></trkpt><trkpt lat="45.50869335215629" lon="11.12536045116418"><ele>204.0</ele><time>2026-04-25T07:42:08Z</time></trkpt><trkpt lat="45.508755880557665" lon="11.125311691835096"><ele>201.79999999999998</ele><time>2026-04-25T07:42:09Z</time></trkpt><trkpt lat="45.5088475220538" lon="11.125294277599249"><ele>199.6</ele><time>2026-04-25T07:42:11Z</time></trkpt><trkpt lat="45.5089530649753" lon="11.125312876306547"><ele>197.4</ele><time>2026-04-25T07:42:55.999Z</time></trkpt><trkpt lat="45.50903741919725" lon="11.125290627898778"><ele>195.2</ele><time>2026-04-25T07:42:56.999Z</time></trkpt><trkpt lat="45.50911332091487" lon="11.125273151021657"><ele>193.0</ele><time>2026-04-25T07:42:59.999Z</time></trkpt><trkpt lat="45.50920894578406" lon="11.12527134633846"><ele>192.99999999999997</ele><time>2026-04-25T07:43:02.999Z</time></trkpt><trkpt lat="45.50928627881743" lon="11.125332606681082"><ele>193.0</ele><time>2026-04-25T07:43:04.999Z</time></trkpt><trkpt lat="45.509372760055335" lon="11.125340841467375"><ele>193.0</ele><time>2026-04-25T07:43:07.999Z</time></trkpt><trkpt lat="45.5094489128769" lon="11.125282068976414"><ele>193.0</ele><time>2026-04-25T07:43:09.999Z</time></trkpt><trkpt lat="45.50956377849682" lon="11.125221549594034"><ele>192.99999999999997</ele><time>2026-04-25T07:43:11.999Z</time></trkpt><trkpt lat="45.509626206739874" lon="11.125208514854172"><ele>193.0</ele><time>2026-04-25T07:43:12.999Z</time></trkpt><trkpt lat="45.50968378274587" lon="11.125109679035402"><ele>194.16666666666666</ele><time>2026-04-25T07:43:13.999Z</time></trkpt><trkpt lat="45.50974317626835" lon="11.125057404039097"><ele>195.33333333333331</ele><time>2026-04-25T07:43:14.999Z</time></trkpt><trkpt lat="45.50983700910466" lon="11.124953871492732"><ele>196.5</ele><time>2026-04-25T07:43:16.999Z</time></trkpt><trkpt lat="45.5098894470582" lon="11.124892869136609"><ele>197.66666666666669</ele><time>2026-04-25T07:43:17.999Z</time></trkpt><trkpt lat="45.50995977140654" lon="11.124801501593138"><ele>198.83333333333334</ele><time>2026-04-25T07:43:19.999Z</time></trkpt><trkpt lat="45.51002379724477" lon="11.124712972837798"><ele>200.0</ele><time>2026-04-25T07:43:21.999Z</time></trkpt><trkpt lat="45.510092913581445" lon="11.124622653479289"><ele>200.42857142857144</ele><time>2026-04-25T07:43:23.999Z</time></trkpt><trkpt lat="45.5101589200424" lon="11.124581810051607"><ele>200.85714285714286</ele><time>2026-04-25T07:43:25.999Z</time></trkpt><trkpt lat="45.51021262434901" lon="11.124522938783782"><ele>201.28571428571428</ele><time>2026-04-25T07:43:27.999Z</time></trkpt><trkpt lat="45.51027375796131" lon="11.124493862531644"><ele>201.71428571428572</ele><time>2026-04-25T07:43:29.999Z</time></trkpt><trkpt lat="45.51032071284285" lon="11.124409896845393"><ele>202.14285714285714</ele><time>2026-04-25T07:43:34.999Z</time></trkpt><trkpt lat="45.51037544666067" lon="11.124326251346146"><ele>202.57142857142858</ele><time>2026-04-25T07:43:36.999Z</time></trkpt><trkpt lat="45.51038713186925" lon="11.124231437014275"><ele>203.0</ele><time>2026-04-25T07:43:38.999Z</time></trkpt><trkpt lat="45.51043655228399" lon="11.124164439132986"><ele>203.00000000000003</ele><time>2026-04-25T07:43:49Z</time></trkpt><trkpt lat="45.510487816376255" lon="11.12408113765099"><ele>203.0</ele><time>2026-04-25T07:43:54Z</time></trkpt><trkpt lat="45.510576308695974" lon="11.124036560239222"><ele>203.0</ele><time>2026-04-25T07:43:58Z</time></trkpt><trkpt lat="45.51065712293507" lon="11.123987537887318"><ele>203.0</ele><time>2026-04-25T07:44:00Z</time></trkpt><trkpt lat="45.51074255240763" lon="11.123942303560323"><ele>203.00000000000003</ele><time>2026-04-25T07:44:02Z</time></trkpt><trkpt lat="45.51081902174117" lon="11.123908274653116"><ele>203.0</ele><time>2026-04-25T07:44:04Z</time></trkpt><trkpt lat="45.5109165298651" lon="11.123890004538422"><ele>206.50000000000003</ele><time>2026-04-25T07:44:08Z</time></trkpt><trkpt lat="45.51101038923943" lon="11.123874414416678"><ele>210.0</ele><time>2026-04-25T07:44:10Z</time></trkpt><trkpt lat="45.51112166697148" lon="11.123852519819295"><ele>213.5</ele><time>2026-04-25T07:44:17Z</time></trkpt><trkpt lat="45.51118546244942" lon="11.12382496895092"><ele>217.0</ele><time>2026-04-25T07:50:15Z</time></trkpt><trkpt lat="45.51125401711777" lon="11.123759632709838"><ele>220.50000000000003</ele><time>2026-04-25T07:50:18Z</time></trkpt><trkpt lat="45.51131697922011" lon="11.123711314757829"><ele>224.0</ele><time>2026-04-25T07:50:20Z</time></trkpt><trkpt lat="45.51137715245537" lon="11.123670652750219"><ele>224.00000000000003</ele><time>2026-04-25T07:50:22Z</time></trkpt><trkpt lat="45.51144533748766" lon="11.123658302646492"><ele>224.0</ele><time>2026-04-25T07:50:27Z</time></trkpt><trkpt lat="45.51151891170696" lon="11.123650354758135"><ele>224.0</ele><time>2026-04-25T07:50:30Z</time></trkpt><trkpt lat="45.51161434247909" lon="11.12365584814795"><ele>224.0</ele><time>2026-04-25T07:50:33Z</time></trkpt><trkpt lat="45.511696632491166" lon="11.12367400577919"><ele>224.00000000000003</ele><time>2026-04-25T07:50:36Z</time></trkpt><trkpt lat="45.51177428184992" lon="11.123684673895399"><ele>224.0</ele><time>2026-04-25T07:50:39Z</time></trkpt><trkpt lat="45.51189402179565" lon="11.123683125526004"><ele>224.00000000000003</ele><time>2026-04-25T07:50:43Z</time></trkpt><trkpt lat="45.511976893975586" lon="11.123645150448093"><ele>224.0</ele><time>2026-04-25T07:50:46Z</time></trkpt><trkpt lat="45.51204771915874" lon="11.123652709792427"><ele>224.0</ele><time>2026-04-25T07:50:48Z</time></trkpt><trkpt lat="45.51212049694613" lon="11.123619081351741"><ele>224.0</ele><time>2026-04-25T07:50:51Z</time></trkpt><trkpt lat="45.51221312113053" lon="11.123573119855534"><ele>224.00000000000003</ele><time>2026-04-25T07:50:54Z</time></trkpt><trkpt lat="45.512311119609535" lon="11.123531224401088"><ele>224.0</ele><time>2026-04-25T07:50:58Z</time></trkpt><trkpt lat="45.51240426872641" lon="11.123488617630912"><ele>224.00000000000003</ele><time>2026-04-25T07:51:00Z</time></trkpt><trkpt lat="45.51246855312443" lon="11.12347518688592"><ele>224.0</ele><time>2026-04-25T07:51:03Z</time></trkpt><trkpt lat="45.51253488543479" lon="11.123410924541448"><ele>224.0</ele><time>2026-04-25T07:51:06Z</time></trkpt><trkpt lat="45.51260369057505" lon="11.123339306043091"><ele>224.0</ele><time>2026-04-25T07:51:09Z</time></trkpt><trkpt lat="45.51269171843277" lon="11.123331970309255"><ele>224.00000000000003</ele><time>2026-04-25T07:51:20Z</time></trkpt><trkpt lat="45.51278905857798" lon="11.123288936553255"><ele>224.0</ele><time>2026-04-25T07:51:23Z</time></trkpt><trkpt lat="45.512881580397995" lon="11.123298103552715"><ele>223.16666666666669</ele><time>2026-04-25T07:51:27Z</time></trkpt><trkpt lat="45.51294423629799" lon="11.123322226976509"><ele>222.33333333333334</ele><time>2026-04-25T07:51:29Z</time></trkpt><trkpt lat="45.51301460715348" lon="11.123326752777746"><ele>221.5</ele><time>2026-04-25T07:51:31Z</time></trkpt><trkpt lat="45.51309081797433" lon="11.12333217783798"><ele>220.66666666666669</ele><time>2026-04-25T07:51:33Z</time></trkpt><trkpt lat="45.51317443142047" lon="11.123309674010798"><ele>219.83333333333334</ele><time>2026-04-25T07:51:36Z</time></trkpt><trkpt lat="45.513264285291875" lon="11.123257774894439"><ele>219.0</ele><time>2026-04-25T07:51:38Z</time></trkpt><trkpt lat="45.51335585474325" lon="11.12324117697508"><ele>219.33333333333334</ele><time>2026-04-25T07:51:41Z</time></trkpt><trkpt lat="45.5134373242356" lon="11.123209973332665"><ele>219.66666666666669</ele><time>2026-04-25T07:51:44Z</time></trkpt><trkpt lat="45.5135233965656" lon="11.123162976193381"><ele>220.0</ele><time>2026-04-25T07:51:46Z</time></trkpt><trkpt lat="45.5135944305983" lon="11.12314932315709"><ele>220.33333333333334</ele><time>2026-04-25T07:51:48Z</time></trkpt><trkpt lat="45.513653846742045" lon="11.123063929144967"><ele>220.66666666666669</ele><time>2026-04-25T07:51:52Z</time></trkpt><trkpt lat="45.51375452959659" lon="11.123028318311869"><ele>221.0</ele><time>2026-04-25T07:51:55Z</time></trkpt><trkpt lat="45.513807712350975" lon="11.122940314561871"><ele>221.00000000000003</ele><time>2026-04-25T07:51:57Z</time></trkpt><trkpt lat="45.51386483899291" lon="11.122867451398545"><ele>221.0</ele><time>2026-04-25T07:52:01Z</time></trkpt><trkpt lat="45.51392802678089" lon="11.122810568150404"><ele>221.0</ele><time>2026-04-25T07:52:02.999Z</time></trkpt><trkpt lat="45.513996256077505" lon="11.122708481351706"><ele>221.0</ele><time>2026-04-25T07:52:05.999Z</time></trkpt><trkpt lat="45.51405333385755" lon="11.122636947961388"><ele>221.00000000000003</ele><time>2026-04-25T07:52:07.999Z</time></trkpt><trkpt lat="45.51409843481026" lon="11.122514858094839"><ele>221.0</ele><time>2026-04-25T07:52:10.999Z</time></trkpt><trkpt lat="45.5141472388653" lon="11.122400136233471"><ele>222.0</ele><time>2026-04-25T07:52:12.999Z</time></trkpt><trkpt lat="45.51417348414843" lon="11.122285821440203"><ele>223.0</ele><time>2026-04-25T07:52:14.999Z</time></trkpt><trkpt lat="45.514185971763695" lon="11.122181033159315"><ele>224.0</ele><time>2026-04-25T07:52:15.999Z</time></trkpt><trkpt lat="45.51421156701746" lon="11.122079599933079"><ele>225.0</ele><time>2026-04-25T07:52:17.999Z</time></trkpt><trkpt lat="45.51420311825079" lon="11.121983010302626"><ele>225.99999999999997</ele><time>2026-04-25T07:52:21Z</time></trkpt><trkpt lat="45.51419247048899" lon="11.121891591104779"><ele>227.0</ele><time>2026-04-25T07:52:23Z</time></trkpt><trkpt lat="45.514231049649425" lon="11.121799798809477"><ele>228.0</ele><time>2026-04-25T07:52:26Z</time></trkpt><trkpt lat="45.51428357559418" lon="11.12174631221705"><ele>228.0</ele><time>2026-04-25T07:52:28Z</time></trkpt><trkpt lat="45.51434655643077" lon="11.121765444185895"><ele>228.0</ele><time>2026-04-25T07:52:30Z</time></trkpt><trkpt lat="45.5144027015696" lon="11.121696784542445"><ele>228.0</ele><time>2026-04-25T07:52:32Z</time></trkpt><trkpt lat="45.5144233567158" lon="11.121604562091402"><ele>228.0</ele><time>2026-04-25T07:52:34Z</time></trkpt><trkpt lat="45.514492535113185" lon="11.121522396914695"><ele>228.0</ele><time>2026-04-25T07:52:36Z</time></trkpt><trkpt lat="45.51442886812862" lon="11.121321198905804"><ele>231.33333333333334</ele><time>2026-04-25T07:54:20.999Z</time></trkpt><trkpt lat="45.51436929232576" lon="11.12122081725503"><ele>234.66666666666669</ele><time>2026-04-25T07:54:26.999Z</time></trkpt><trkpt lat="45.51431797371681" lon="11.121146788184616"><ele>238.0</ele><time>2026-04-25T07:54:31Z</time></trkpt><trkpt lat="45.51425436639814" lon="11.121076467463007"><ele>241.33333333333334</ele><time>2026-04-25T07:54:34Z</time></trkpt><trkpt lat="45.51416516092519" lon="11.121033516662813"><ele>244.66666666666669</ele><time>2026-04-25T07:54:37Z</time></trkpt><trkpt lat="45.514095802908244" lon="11.120955988941045"><ele>248.0</ele><time>2026-04-25T07:54:39Z</time></trkpt><trkpt lat="45.51405349277922" lon="11.120873514653352"><ele>248.00000000000003</ele><time>2026-04-25T07:54:41Z</time></trkpt><trkpt lat="45.51399291816285" lon="11.12080624396668"><ele>248.0</ele><time>2026-04-25T07:54:54Z</time></trkpt><trkpt lat="45.51390770376163" lon="11.120768869451082"><ele>248.0</ele><time>2026-04-25T07:54:58Z</time></trkpt><trkpt lat="45.51383710948087" lon="11.120707694830555"><ele>248.0</ele><time>2026-04-25T07:55:00Z</time></trkpt><trkpt lat="45.51375273939068" lon="11.120635478043464"><ele>248.00000000000003</ele><time>2026-04-25T07:55:03Z</time></trkpt><trkpt lat="45.51369281346737" lon="11.120563136696596"><ele>248.0</ele><time>2026-04-25T07:55:06Z</time></trkpt><trkpt lat="45.51362702418053" lon="11.120500923897334"><ele>251.50000000000003</ele><time>2026-04-25T07:55:08Z</time></trkpt><trkpt lat="45.51354922262394" lon="11.12043908250842"><ele>255.0</ele><time>2026-04-25T07:55:11Z</time></trkpt><trkpt lat="45.51347570393637" lon="11.120393737249119"><ele>258.5</ele><time>2026-04-25T07:55:14Z</time></trkpt><trkpt lat="45.51341326028517" lon="11.120325576659619"><ele>262.0</ele><time>2026-04-25T07:55:17Z</time></trkpt><trkpt lat="45.51332842846369" lon="11.120294216303767"><ele>265.5</ele><time>2026-04-25T07:55:21Z</time></trkpt><trkpt lat="45.5132405895001" lon="11.1202804492632"><ele>269.0</ele><time>2026-04-25T07:55:23Z</time></trkpt><trkpt lat="45.51317555170929" lon="11.120209813074716"><ele>269.0</ele><time>2026-04-25T07:55:26Z</time></trkpt><trkpt lat="45.513114546505264" lon="11.120156510805908"><ele>269.0</ele><time>2026-04-25T07:55:29Z</time></trkpt><trkpt lat="45.51307900888752" lon="11.120068563221501"><ele>269.0</ele><time>2026-04-25T07:55:31Z</time></trkpt><trkpt lat="45.51302666895226" lon="11.119991649318486"><ele>269.0</ele><time>2026-04-25T07:55:33Z</time></trkpt><trkpt lat="45.513036212786155" lon="11.119890560287192"><ele>269.0</ele><time>2026-04-25T07:55:35Z</time></trkpt><trkpt lat="45.512956880970435" lon="11.11980736177482"><ele>269.0</ele><time>2026-04-25T07:55:37Z</time></trkpt><trkpt lat="45.51298284776996" lon="11.119711603551774"><ele>273.5</ele><time>2026-04-25T07:55:38Z</time></trkpt><trkpt lat="45.51300913156689" lon="11.11960024969246"><ele>278.0</ele><time>2026-04-25T07:55:40Z</time></trkpt><trkpt lat="45.5129287277357" lon="11.119533576049966"><ele>282.5</ele><time>2026-04-25T07:55:42Z</time></trkpt><trkpt lat="45.51294689938265" lon="11.119414608363474"><ele>287.0</ele><time>2026-04-25T07:55:45Z</time></trkpt><trkpt lat="45.51300763006848" lon="11.119379600318782"><ele>291.5</ele><time>2026-04-25T07:55:47Z</time></trkpt><trkpt lat="45.51306131467809" lon="11.119432351679436"><ele>296.0</ele><time>2026-04-25T07:55:49Z</time></trkpt><trkpt lat="45.51315195484742" lon="11.119508560416024"><ele>296.0</ele><time>2026-04-25T07:55:51Z</time></trkpt><trkpt lat="45.513236944395324" lon="11.119540512729209"><ele>296.0</ele><time>2026-04-25T07:55:53Z</time></trkpt><trkpt lat="45.513313797609925" lon="11.119452541650375"><ele>296.0</ele><time>2026-04-25T07:55:56Z</time></trkpt><trkpt lat="45.513388040949295" lon="11.119437407143343"><ele>296.0</ele><time>2026-04-25T07:55:58Z</time></trkpt><trkpt lat="45.51345143047057" lon="11.119481436558683"><ele>296.0</ele><time>2026-04-25T07:56:00Z</time></trkpt><trkpt lat="45.51351393836572" lon="11.119439708371184"><ele>296.0</ele><time>2026-04-25T07:56:03Z</time></trkpt><trkpt lat="45.51358295521811" lon="11.119403722970775"><ele>296.0</ele><time>2026-04-25T07:56:07Z</time></trkpt><trkpt lat="45.51366347613917" lon="11.119426553664683"><ele>296.0</ele><time>2026-04-25T07:56:10Z</time></trkpt><trkpt lat="45.51373054926732" lon="11.11941823179908"><ele>296.0</ele><time>2026-04-25T07:56:12Z</time></trkpt><trkpt lat="45.51383568269374" lon="11.119483180527599"><ele>296.0</ele><time>2026-04-25T07:56:14Z</time></trkpt><trkpt lat="45.51393170715539" lon="11.119488456391844"><ele>296.0</ele><time>2026-04-25T07:56:15.999Z</time></trkpt><trkpt lat="45.51401174109367" lon="11.119517488084995"><ele>296.0</ele><time>2026-04-25T07:56:17.999Z</time></trkpt><trkpt lat="45.51409497159761" lon="11.119539271773895"><ele>299.0</ele><time>2026-04-25T07:56:19.999Z</time></trkpt><trkpt lat="45.51416302243931" lon="11.11957872568379"><ele>302.0</ele><time>2026-04-25T07:56:21.999Z</time></trkpt><trkpt lat="45.51424913466063" lon="11.119578771478926"><ele>305.0</ele><time>2026-04-25T07:56:22.999Z</time></trkpt><trkpt lat="45.5143413354185" lon="11.119600893731926"><ele>308.0</ele><time>2026-04-25T07:56:25.999Z</time></trkpt><trkpt lat="45.51443477202664" lon="11.119572899130395"><ele>311.0</ele><time>2026-04-25T07:56:28.999Z</time></trkpt><trkpt lat="45.51449538633722" lon="11.11953715936849"><ele>314.0</ele><time>2026-04-25T07:56:30.999Z</time></trkpt><trkpt lat="45.514577911653106" lon="11.1194898038178"><ele>314.0</ele><time>2026-04-25T07:56:33.999Z</time></trkpt><trkpt lat="45.51462290334867" lon="11.119425946960662"><ele>314.0</ele><time>2026-04-25T07:56:36.999Z</time></trkpt><trkpt lat="45.514539225851664" lon="11.119387936329424"><ele>314.0</ele><time>2026-04-25T07:56:40.999Z</time></trkpt><trkpt lat="45.5144491488707" lon="11.119387341209183"><ele>314.0</ele><time>2026-04-25T07:56:44Z</time></trkpt><trkpt lat="45.51437360305897" lon="11.119329575310264"><ele>314.0</ele><time>2026-04-25T07:56:48Z</time></trkpt><trkpt lat="45.51431687697763" lon="11.119262064044674"><ele>314.0</ele><time>2026-04-25T07:56:51Z</time></trkpt><trkpt lat="45.514286355278166" lon="11.119156246214207"><ele>314.0</ele><time>2026-04-25T07:56:55Z</time></trkpt><trkpt lat="45.51433158145934" lon="11.119088294404538"><ele>314.0</ele><time>2026-04-25T07:56:59Z</time></trkpt><trkpt lat="45.514416109677676" lon="11.119051232019263"><ele>314.0</ele><time>2026-04-25T07:57:03Z</time></trkpt><trkpt lat="45.514507309856526" lon="11.119013182094957"><ele>314.0</ele><time>2026-04-25T07:57:05Z</time></trkpt><trkpt lat="45.51457762750756" lon="11.118996589855184"><ele>314.0</ele><time>2026-04-25T07:57:07Z</time></trkpt><trkpt lat="45.514653292483985" lon="11.118951800571137"><ele>314.0</ele><time>2026-04-25T07:57:10Z</time></trkpt><trkpt lat="45.514734563435226" lon="11.118893137701333"><ele>319.4</ele><time>2026-04-25T07:57:12Z</time></trkpt><trkpt lat="45.51483731468105" lon="11.118819015307428"><ele>324.79999999999995</ele><time>2026-04-25T07:57:14Z</time></trkpt><trkpt lat="45.514919632653196" lon="11.118744368257353"><ele>330.20000000000005</ele><time>2026-04-25T07:57:16Z</time></trkpt><trkpt lat="45.514999787880484" lon="11.118684216400569"><ele>335.6</ele><time>2026-04-25T07:57:18Z</time></trkpt><trkpt lat="45.515055889036226" lon="11.118595239636457"><ele>341.0</ele><time>2026-04-25T07:57:21Z</time></trkpt><trkpt lat="45.51508314864829" lon="11.118496755924703"><ele>341.0</ele><time>2026-04-25T07:57:24Z</time></trkpt><trkpt lat="45.51514519604237" lon="11.11838883673498"><ele>341.0</ele><time>2026-04-25T07:57:26Z</time></trkpt><trkpt lat="45.51513170173313" lon="11.11824702645266"><ele>341.0</ele><time>2026-04-25T07:57:28Z</time></trkpt><trkpt lat="45.51508305150826" lon="11.118068536386518"><ele>341.0</ele><time>2026-04-25T07:57:30Z</time></trkpt><trkpt lat="45.515030085749615" lon="11.1179694277309"><ele>341.0</ele><time>2026-04-25T07:57:31Z</time></trkpt><trkpt lat="45.514974773313185" lon="11.11787312325959"><ele>343.1666666666667</ele><time>2026-04-25T07:57:32Z</time></trkpt><trkpt lat="45.51488843390592" lon="11.117749488392935"><ele>345.33333333333337</ele><time>2026-04-25T07:57:34Z</time></trkpt><trkpt lat="45.51484509402177" lon="11.117675116576637"><ele>347.5</ele><time>2026-04-25T07:57:35Z</time></trkpt><trkpt lat="45.514821474361476" lon="11.11758839235928"><ele>349.6666666666667</ele><time>2026-04-25T07:57:37Z</time></trkpt><trkpt lat="45.514755809512465" lon="11.117539167239412"><ele>351.8333333333333</ele><time>2026-04-25T08:05:35Z</time></trkpt><trkpt lat="45.5147073332075" lon="11.11746843473913"><ele>354.0</ele><time>2026-04-25T08:05:36Z</time></trkpt><trkpt lat="45.51466305902959" lon="11.117389097536977"><ele>355.0</ele><time>2026-04-25T08:05:37Z</time></trkpt><trkpt lat="45.51460973210258" lon="11.117298966602986"><ele>356.0</ele><time>2026-04-25T08:05:38Z</time></trkpt><trkpt lat="45.51455063016014" lon="11.117209352344867"><ele>357.0</ele><time>2026-04-25T08:05:39Z</time></trkpt><trkpt lat="45.51448924444866" lon="11.117119018895028"><ele>358.0</ele><time>2026-04-25T08:05:40Z</time></trkpt><trkpt lat="45.51443623603948" lon="11.117038346591398"><ele>359.0</ele><time>2026-04-25T08:05:41Z</time></trkpt><trkpt lat="45.51439624478871" lon="11.116930180563903"><ele>360.0</ele><time>2026-04-25T08:05:42Z</time></trkpt><trkpt lat="45.514380513261045" lon="11.116793885029066"><ele>360.0</ele><time>2026-04-25T08:05:43Z</time></trkpt><trkpt lat="45.514363446690545" lon="11.116651013458878"><ele>360.0</ele><time>2026-04-25T08:05:44Z</time></trkpt><trkpt lat="45.51436646400682" lon="11.116538208804556"><ele>360.0</ele><time>2026-04-25T08:05:45Z</time></trkpt><trkpt lat="45.51439150065393" lon="11.116441566555746"><ele>360.0</ele><time>2026-04-25T08:05:46Z</time></trkpt><trkpt lat="45.51443647786916" lon="11.116365635026153"><ele>360.0</ele><time>2026-04-25T08:05:47Z</time></trkpt><trkpt lat="45.514504089479374" lon="11.116277508540465"><ele>360.0</ele><time>2026-04-25T08:05:48Z</time></trkpt><trkpt lat="45.51458001373427" lon="11.11620001771507"><ele>362.4</ele><time>2026-04-25T08:05:49Z</time></trkpt><trkpt lat="45.514665705218874" lon="11.116117812551717"><ele>364.8</ele><time>2026-04-25T08:05:50Z</time></trkpt><trkpt lat="45.514746317335934" lon="11.116029105763927"><ele>367.20000000000005</ele><time>2026-04-25T08:05:51Z</time></trkpt><trkpt lat="45.51483585806223" lon="11.115956987791199"><ele>369.6</ele><time>2026-04-25T08:05:52Z</time></trkpt><trkpt lat="45.514934926817084" lon="11.115867998541722"><ele>372.0</ele><time>2026-04-25T08:05:53Z</time></trkpt><trkpt lat="45.51502228326153" lon="11.115788104249786"><ele>372.8</ele><time>2026-04-25T08:05:54Z</time></trkpt><trkpt lat="45.51510849996897" lon="11.115697789508742"><ele>373.6</ele><time>2026-04-25T08:05:55Z</time></trkpt><trkpt lat="45.515178956535095" lon="11.11561015199341"><ele>374.40000000000003</ele><time>2026-04-25T08:05:56Z</time></trkpt><trkpt lat="45.51523262371003" lon="11.11553616782981"><ele>375.20000000000005</ele><time>2026-04-25T08:05:57Z</time></trkpt><trkpt lat="45.51527839252283" lon="11.115462921901681"><ele>376.0</ele><time>2026-04-25T08:05:58Z</time></trkpt><trkpt lat="45.51532267951348" lon="11.115299908877022"><ele>376.0</ele><time>2026-04-25T08:06:00Z</time></trkpt><trkpt lat="45.5153470326037" lon="11.115198257889027"><ele>376.0</ele><time>2026-04-25T08:06:01Z</time></trkpt><trkpt lat="45.51535863397771" lon="11.115070244910303"><ele>376.0</ele><time>2026-04-25T08:06:02Z</time></trkpt><trkpt lat="45.51535011533588" lon="11.114930719843832"><ele>376.0</ele><time>2026-04-25T08:06:03Z</time></trkpt><trkpt lat="45.5153477702517" lon="11.114772430434009"><ele>376.0</ele><time>2026-04-25T08:06:04Z</time></trkpt><trkpt lat="45.51533452030891" lon="11.11464294097585"><ele>376.8</ele><time>2026-04-25T08:06:05Z</time></trkpt><trkpt lat="45.515320445214435" lon="11.114534851812916"><ele>377.6</ele><time>2026-04-25T08:06:06Z</time></trkpt><trkpt lat="45.51532382776052" lon="11.114426689840478"><ele>378.4</ele><time>2026-04-25T08:06:07Z</time></trkpt><trkpt lat="45.515338875771526" lon="11.11429477148835"><ele>379.2</ele><time>2026-04-25T08:06:08Z</time></trkpt><trkpt lat="45.5153651719749" lon="11.114148292274301"><ele>380.0</ele><time>2026-04-25T08:06:09Z</time></trkpt><trkpt lat="45.5153965391867" lon="11.11401159891863"><ele>381.8</ele><time>2026-04-25T08:06:10Z</time></trkpt><trkpt lat="45.515418611426696" lon="11.113857957565674"><ele>383.6</ele><time>2026-04-25T08:06:11Z</time></trkpt><trkpt lat="45.515439718522934" lon="11.113722162480975"><ele>385.4</ele><time>2026-04-25T08:06:12Z</time></trkpt><trkpt lat="45.51546743547532" lon="11.113589708394063"><ele>387.2</ele><time>2026-04-25T08:06:13Z</time></trkpt><trkpt lat="45.51547655759661" lon="11.113473185179142"><ele>389.0</ele><time>2026-04-25T08:06:14Z</time></trkpt><trkpt lat="45.51547749870279" lon="11.113325455252516"><ele>390.25</ele><time>2026-04-25T08:06:15Z</time></trkpt><trkpt lat="45.51548913444584" lon="11.11316429798654"><ele>391.5</ele><time>2026-04-25T08:06:16Z</time></trkpt><trkpt lat="45.51551074063144" lon="11.112986570610706"><ele>392.75</ele><time>2026-04-25T08:06:17Z</time></trkpt><trkpt lat="45.5155454719576" lon="11.1127995215411"><ele>394.0</ele><time>2026-04-25T08:06:18Z</time></trkpt><trkpt lat="45.515585751745554" lon="11.112629354515065"><ele>394.0</ele><time>2026-04-25T08:06:19Z</time></trkpt><trkpt lat="45.51563239512713" lon="11.112476001590744"><ele>394.0</ele><time>2026-04-25T08:06:20Z</time></trkpt><trkpt lat="45.51567125257826" lon="11.112349973038771"><ele>394.0</ele><time>2026-04-25T08:06:21Z</time></trkpt><trkpt lat="45.515712934969415" lon="11.11221963509193"><ele>394.0</ele><time>2026-04-25T08:06:22Z</time></trkpt><trkpt lat="45.515758423571654" lon="11.11206908837052"><ele>394.0</ele><time>2026-04-25T08:06:23Z</time></trkpt><trkpt lat="45.51579786285947" lon="11.11192706026188"><ele>395.2857142857143</ele><time>2026-04-25T08:06:24Z</time></trkpt><trkpt lat="45.515826580948726" lon="11.11182946584123"><ele>396.57142857142856</ele><time>2026-04-25T08:06:25Z</time></trkpt><trkpt lat="45.515865775317046" lon="11.111746316594102"><ele>397.8571428571429</ele><time>2026-04-25T08:06:26Z</time></trkpt><trkpt lat="45.515913275273476" lon="11.11166930175535"><ele>399.1428571428571</ele><time>2026-04-25T08:06:27Z</time></trkpt><trkpt lat="45.51597312455647" lon="11.111607581807792"><ele>400.4285714285714</ele><time>2026-04-25T08:06:28Z</time></trkpt><trkpt lat="45.51602255623569" lon="11.1115449998405"><ele>401.7142857142857</ele><time>2026-04-25T08:06:29Z</time></trkpt><trkpt lat="45.51609893116148" lon="11.111521505061383"><ele>403.0</ele><time>2026-04-25T08:06:31Z</time></trkpt><trkpt lat="45.51617565750589" lon="11.111522638908099"><ele>404.59999999999997</ele><time>2026-04-25T08:06:32Z</time></trkpt><trkpt lat="45.51626425156104" lon="11.11149972923467"><ele>406.2</ele><time>2026-04-25T08:06:33Z</time></trkpt><trkpt lat="45.51636469061354" lon="11.111446951416006"><ele>407.8</ele><time>2026-04-25T08:06:34Z</time></trkpt><trkpt lat="45.51647109216057" lon="11.11139364697892"><ele>409.4</ele><time>2026-04-25T08:06:35Z</time></trkpt><trkpt lat="45.5165778572801" lon="11.111358330652488"><ele>411.0</ele><time>2026-04-25T08:06:36Z</time></trkpt><trkpt lat="45.51668235172686" lon="11.11132681036125"><ele>411.0</ele><time>2026-04-25T08:06:37Z</time></trkpt><trkpt lat="45.51677485358717" lon="11.11130712317777"><ele>411.0</ele><time>2026-04-25T08:06:38Z</time></trkpt><trkpt lat="45.516857319392926" lon="11.11131856370325"><ele>411.0</ele><time>2026-04-25T08:06:39Z</time></trkpt><trkpt lat="45.51692411793437" lon="11.111378353311249"><ele>411.0</ele><time>2026-04-25T08:06:40Z</time></trkpt><trkpt lat="45.51701137388501" lon="11.111435778071632"><ele>411.0</ele><time>2026-04-25T08:06:41Z</time></trkpt><trkpt lat="45.51710991210619" lon="11.111544349415702"><ele>408.20000000000005</ele><time>2026-04-25T08:06:42Z</time></trkpt><trkpt lat="45.51716497056559" lon="11.11165550480605"><ele>405.40000000000003</ele><time>2026-04-25T08:06:43Z</time></trkpt><trkpt lat="45.51723963411347" lon="11.111745823439179"><ele>402.6</ele><time>2026-04-25T08:06:44Z</time></trkpt><trkpt lat="45.51732108232808" lon="11.111840877220239"><ele>399.8</ele><time>2026-04-25T08:06:45Z</time></trkpt><trkpt lat="45.51740675692188" lon="11.111912253402737"><ele>397.0</ele><time>2026-04-25T08:06:46Z</time></trkpt><trkpt lat="45.51748659650766" lon="11.11196785670707"><ele>397.0</ele><time>2026-04-25T08:06:47Z</time></trkpt><trkpt lat="45.51757535690116" lon="11.112022605778488"><ele>397.0</ele><time>2026-04-25T08:06:48Z</time></trkpt><trkpt lat="45.5176745701427" lon="11.112056820014802"><ele>397.0</ele><time>2026-04-25T08:06:49Z</time></trkpt><trkpt lat="45.51777746138235" lon="11.112090016707704"><ele>397.0</ele><time>2026-04-25T08:06:50Z</time></trkpt><trkpt lat="45.51788676165451" lon="11.112114022790323"><ele>397.0</ele><time>2026-04-25T08:06:51Z</time></trkpt><trkpt lat="45.518001565974444" lon="11.11213832464043"><ele>397.0</ele><time>2026-04-25T08:06:52Z</time></trkpt><trkpt lat="45.51812656966124" lon="11.11216491654079"><ele>397.0</ele><time>2026-04-25T08:06:53Z</time></trkpt><trkpt lat="45.51824818521071" lon="11.112179724793613"><ele>397.0</ele><time>2026-04-25T08:06:54Z</time></trkpt><trkpt lat="45.51835322294615" lon="11.112191786019165"><ele>397.0</ele><time>2026-04-25T08:06:55Z</time></trkpt><trkpt lat="45.518451162119135" lon="11.112205683883051"><ele>397.00000000000006</ele><time>2026-04-25T08:06:56Z</time></trkpt><trkpt lat="45.518554781651204" lon="11.112187773997396"><ele>397.0</ele><time>2026-04-25T08:06:57Z</time></trkpt><trkpt lat="45.518655519867806" lon="11.112169543753003"><ele>397.0</ele><time>2026-04-25T08:06:58Z</time></trkpt><trkpt lat="45.51873811510932" lon="11.112129313689413"><ele>397.0</ele><time>2026-04-25T08:06:59Z</time></trkpt><trkpt lat="45.51879710727573" lon="11.112072656496265"><ele>397.00000000000006</ele><time>2026-04-25T08:07:00Z</time></trkpt><trkpt lat="45.51884529036562" lon="11.112001062022022"><ele>397.0</ele><time>2026-04-25T08:07:01Z</time></trkpt><trkpt lat="45.51893860986657" lon="11.11197819713727"><ele>396.20000000000005</ele><time>2026-04-25T08:07:03Z</time></trkpt><trkpt lat="45.518965275484376" lon="11.112141312468443"><ele>395.4</ele><time>2026-04-25T08:07:05Z</time></trkpt><trkpt lat="45.518941330615014" lon="11.112260458088045"><ele>394.6</ele><time>2026-04-25T08:07:06Z</time></trkpt><trkpt lat="45.51893356359832" lon="11.112414447996706"><ele>393.79999999999995</ele><time>2026-04-25T08:07:07Z</time></trkpt><trkpt lat="45.51892447560004" lon="11.11259036570409"><ele>393.0</ele><time>2026-04-25T08:07:08Z</time></trkpt><trkpt lat="45.518909841449805" lon="11.112766903504887"><ele>394.0</ele><time>2026-04-25T08:07:09Z</time></trkpt><trkpt lat="45.51888436229043" lon="11.112945952992456"><ele>395.0</ele><time>2026-04-25T08:07:10Z</time></trkpt><trkpt lat="45.518848355330384" lon="11.113135666587466"><ele>396.0</ele><time>2026-04-25T08:07:11Z</time></trkpt><trkpt lat="45.518800067689895" lon="11.113315454128191"><ele>397.0</ele><time>2026-04-25T08:07:12Z</time></trkpt><trkpt lat="45.518751112570605" lon="11.113468360476938"><ele>392.6</ele><time>2026-04-25T08:07:13Z</time></trkpt><trkpt lat="45.518728643590734" lon="11.1136021239255"><ele>388.20000000000005</ele><time>2026-04-25T08:07:14Z</time></trkpt><trkpt lat="45.518693723699535" lon="11.11371263220095"><ele>383.8</ele><time>2026-04-25T08:07:15Z</time></trkpt><trkpt lat="45.51866997840097" lon="11.11384482864259"><ele>379.4</ele><time>2026-04-25T08:07:16Z</time></trkpt><trkpt lat="45.51865109953878" lon="11.113985941022527"><ele>375.0</ele><time>2026-04-25T08:07:17Z</time></trkpt><trkpt lat="45.51865438586502" lon="11.11413041753373"><ele>375.0</ele><time>2026-04-25T08:07:18Z</time></trkpt><trkpt lat="45.518675201381626" lon="11.11425667093705"><ele>375.0</ele><time>2026-04-25T08:07:19Z</time></trkpt><trkpt lat="45.518720048045154" lon="11.11435572240165"><ele>375.0</ele><time>2026-04-25T08:07:20Z</time></trkpt><trkpt lat="45.51878819406125" lon="11.114437631817479"><ele>375.0</ele><time>2026-04-25T08:07:21Z</time></trkpt><trkpt lat="45.51888448300592" lon="11.114502431221577"><ele>375.0</ele><time>2026-04-25T08:07:22Z</time></trkpt><trkpt lat="45.51899303862897" lon="11.114561054658584"><ele>380.5</ele><time>2026-04-25T08:07:23Z</time></trkpt><trkpt lat="45.51910996657274" lon="11.114622038236435"><ele>386.0</ele><time>2026-04-25T08:07:24Z</time></trkpt><trkpt lat="45.51923151484184" lon="11.114674100715925"><ele>391.5</ele><time>2026-04-25T08:07:25Z</time></trkpt><trkpt lat="45.51935186140332" lon="11.114712777345556"><ele>397.0</ele><time>2026-04-25T08:07:26Z</time></trkpt><trkpt lat="45.51946929347514" lon="11.114742791238973"><ele>397.0</ele><time>2026-04-25T08:07:27Z</time></trkpt><trkpt lat="45.51956484477576" lon="11.114773592457851"><ele>397.0</ele><time>2026-04-25T08:07:28Z</time></trkpt><trkpt lat="45.51965083367961" lon="11.114793929466236"><ele>397.0</ele><time>2026-04-25T08:07:29Z</time></trkpt><trkpt lat="45.519736466188334" lon="11.114797106579969"><ele>397.0</ele><time>2026-04-25T08:07:30Z</time></trkpt><trkpt lat="45.519843353446056" lon="11.114788809476446"><ele>397.0</ele><time>2026-04-25T08:07:31Z</time></trkpt><trkpt lat="45.519967881630166" lon="11.114753113474286"><ele>398.8</ele><time>2026-04-25T08:07:32Z</time></trkpt><trkpt lat="45.52008846720301" lon="11.114710228204562"><ele>400.6</ele><time>2026-04-25T08:07:33Z</time></trkpt><trkpt lat="45.52019690293507" lon="11.114677393629028"><ele>402.40000000000003</ele><time>2026-04-25T08:07:34Z</time></trkpt><trkpt lat="45.5202910728088" lon="11.114663048471542"><ele>404.20000000000005</ele><time>2026-04-25T08:07:35Z</time></trkpt><trkpt lat="45.52038215282068" lon="11.114736406424422"><ele>406.0</ele><time>2026-04-25T08:07:36Z</time></trkpt><trkpt lat="45.520472554791674" lon="11.11481173349801"><ele>407.5</ele><time>2026-04-25T08:07:37Z</time></trkpt><trkpt lat="45.52059023634482" lon="11.114875149783547"><ele>409.0</ele><time>2026-04-25T08:07:38Z</time></trkpt><trkpt lat="45.52068646075427" lon="11.115003030876311"><ele>410.5</ele><time>2026-04-25T08:07:39Z</time></trkpt><trkpt lat="45.52079237627046" lon="11.1150687483145"><ele>412.0</ele><time>2026-04-25T08:07:40Z</time></trkpt><trkpt lat="45.5208914232655" lon="11.115110403889298"><ele>408.8</ele><time>2026-04-25T08:07:41Z</time></trkpt><trkpt lat="45.52098511332265" lon="11.115127027716236"><ele>405.6</ele><time>2026-04-25T08:07:42Z</time></trkpt><trkpt lat="45.521074349946744" lon="11.115142742426524"><ele>402.40000000000003</ele><time>2026-04-25T08:07:43Z</time></trkpt><trkpt lat="45.52116548301722" lon="11.115137209449832"><ele>399.20000000000005</ele><time>2026-04-25T08:07:44Z</time></trkpt><trkpt lat="45.521268280161934" lon="11.11511178285159"><ele>396.0</ele><time>2026-04-25T08:07:45Z</time></trkpt><trkpt lat="45.52138081440374" lon="11.115053715049722"><ele>396.0</ele><time>2026-04-25T08:07:46Z</time></trkpt><trkpt lat="45.52150854845953" lon="11.115016189079961"><ele>396.0</ele><time>2026-04-25T08:07:47Z</time></trkpt><trkpt lat="45.5216317466877" lon="11.114973571102748"><ele>396.0</ele><time>2026-04-25T08:07:48Z</time></trkpt><trkpt lat="45.52174278783594" lon="11.11492209258925"><ele>396.0</ele><time>2026-04-25T08:07:49Z</time></trkpt><trkpt lat="45.521850733078594" lon="11.114913379162978"><ele>396.0</ele><time>2026-04-25T08:07:50Z</time></trkpt><trkpt lat="45.52194154546773" lon="11.11492292720935"><ele>396.0</ele><time>2026-04-25T08:07:51Z</time></trkpt><trkpt lat="45.52202846552569" lon="11.114993430057778"><ele>396.0</ele><time>2026-04-25T08:07:52Z</time></trkpt><trkpt lat="45.522128243717106" lon="11.115029508540502"><ele>396.0</ele><time>2026-04-25T08:07:53Z</time></trkpt><trkpt lat="45.52221477895582" lon="11.115076706508322"><ele>396.0</ele><time>2026-04-25T08:07:54Z</time></trkpt><trkpt lat="45.52230546051482" lon="11.115106932134767"><ele>395.8333333333333</ele><time>2026-04-25T08:07:55Z</time></trkpt><trkpt lat="45.52238881425293" lon="11.115138558737746"><ele>395.66666666666663</ele><time>2026-04-25T08:07:56Z</time></trkpt><trkpt lat="45.522475987426056" lon="11.115162183145396"><ele>395.5</ele><time>2026-04-25T08:07:57Z</time></trkpt><trkpt lat="45.52256587269126" lon="11.115180901659873"><ele>395.3333333333333</ele><time>2026-04-25T08:07:58Z</time></trkpt><trkpt lat="45.52265338617829" lon="11.115182918068024"><ele>395.16666666666663</ele><time>2026-04-25T08:07:59Z</time></trkpt><trkpt lat="45.52274016994129" lon="11.115169588122795"><ele>395.0</ele><time>2026-04-25T08:08:00Z</time></trkpt><trkpt lat="45.522823701642736" lon="11.115146644860896"><ele>394.99999999999994</ele><time>2026-04-25T08:08:01Z</time></trkpt><trkpt lat="45.52289052937767" lon="11.115095078980467"><ele>395.0</ele><time>2026-04-25T08:08:02Z</time></trkpt><trkpt lat="45.52295184394834" lon="11.115014487617637"><ele>395.0</ele><time>2026-04-25T08:08:03Z</time></trkpt><trkpt lat="45.522995238735774" lon="11.114902627085442"><ele>395.0</ele><time>2026-04-25T08:08:04Z</time></trkpt><trkpt lat="45.52301840013718" lon="11.114768593746172"><ele>394.99999999999994</ele><time>2026-04-25T08:08:05Z</time></trkpt><trkpt lat="45.523008326079854" lon="11.114633761871731"><ele>395.0</ele><time>2026-04-25T08:08:06Z</time></trkpt><trkpt lat="45.52297725576212" lon="11.114495555376132"><ele>394.49999999999994</ele><time>2026-04-25T08:08:07Z</time></trkpt><trkpt lat="45.52293266761327" lon="11.114379645087167"><ele>394.0</ele><time>2026-04-25T08:08:08Z</time></trkpt><trkpt lat="45.52288378643569" lon="11.114275061852688"><ele>393.5</ele><time>2026-04-25T08:08:09Z</time></trkpt><trkpt lat="45.52283537405981" lon="11.11416943018208"><ele>393.0</ele><time>2026-04-25T08:08:10Z</time></trkpt><trkpt lat="45.52280477189746" lon="11.114081529006823"><ele>392.49999999999994</ele><time>2026-04-25T08:08:11Z</time></trkpt><trkpt lat="45.52280503868638" lon="11.113980005730712"><ele>392.0</ele><time>2026-04-25T08:08:12Z</time></trkpt><trkpt lat="45.52289504688838" lon="11.11388325202515"><ele>391.99999999999994</ele><time>2026-04-25T08:08:14Z</time></trkpt><trkpt lat="45.52298579070347" lon="11.114001622052434"><ele>392.0</ele><time>2026-04-25T08:08:16Z</time></trkpt><trkpt lat="45.52305155280329" lon="11.11407006798757"><ele>392.0</ele><time>2026-04-25T08:08:17Z</time></trkpt><trkpt lat="45.52312036136002" lon="11.114095923685731"><ele>392.0</ele><time>2026-04-25T08:08:18Z</time></trkpt><trkpt lat="45.52318813621013" lon="11.114129437670698"><ele>391.99999999999994</ele><time>2026-04-25T08:08:20Z</time></trkpt><trkpt lat="45.523245769260654" lon="11.114175366781398"><ele>392.0</ele><time>2026-04-25T08:08:24Z</time></trkpt><trkpt lat="45.52329815600136" lon="11.11424201621333"><ele>391.99999999999994</ele><time>2026-04-25T08:08:28Z</time></trkpt><trkpt lat="45.52335437454872" lon="11.11430618099565"><ele>392.0</ele><time>2026-04-25T08:09:57Z</time></trkpt><trkpt lat="45.52341322081104" lon="11.11435483275741"><ele>392.0</ele><time>2026-04-25T08:09:59Z</time></trkpt><trkpt lat="45.523478735088815" lon="11.114391675658329"><ele>392.0</ele><time>2026-04-25T08:10:05Z</time></trkpt><trkpt lat="45.52361758594684" lon="11.11445378308695"><ele>391.99999999999994</ele><time>2026-04-25T08:10:52Z</time></trkpt><trkpt lat="45.52368774290646" lon="11.114475817854732"><ele>392.0</ele><time>2026-04-25T08:10:53Z</time></trkpt><trkpt lat="45.52380344969229" lon="11.114512158799759"><ele>391.6</ele><time>2026-04-25T08:10:55Z</time></trkpt><trkpt lat="45.52390681232542" lon="11.114544622726765"><ele>391.20000000000005</ele><time>2026-04-25T08:10:56.999Z</time></trkpt><trkpt lat="45.52395577402884" lon="11.114405402335882"><ele>390.8</ele><time>2026-04-25T08:10:57.999Z</time></trkpt><trkpt lat="45.52401867426603" lon="11.11442713825241"><ele>390.4</ele><time>2026-04-25T08:11:00.999Z</time></trkpt><trkpt lat="45.52410031492271" lon="11.114436566402809"><ele>390.0</ele><time>2026-04-25T08:11:03.999Z</time></trkpt><trkpt lat="45.524232336764236" lon="11.114339149975295"><ele>390.0</ele><time>2026-04-25T08:11:05.999Z</time></trkpt><trkpt lat="45.524302410267076" lon="11.11427915943158"><ele>390.0</ele><time>2026-04-25T08:11:06.999Z</time></trkpt><trkpt lat="45.52437278626157" lon="11.11425433974156"><ele>390.0</ele><time>2026-04-25T08:11:07.999Z</time></trkpt><trkpt lat="45.52448805861345" lon="11.11430094773967"><ele>390.0</ele><time>2026-04-25T08:11:09.999Z</time></trkpt><trkpt lat="45.524578400863895" lon="11.114406011458847"><ele>390.0</ele><time>2026-04-25T08:11:11.999Z</time></trkpt><trkpt lat="45.52465051069096" lon="11.11447179694202"><ele>388.7142857142857</ele><time>2026-04-25T08:11:13.999Z</time></trkpt><trkpt lat="45.524706927973334" lon="11.114516687786889"><ele>387.42857142857144</ele><time>2026-04-25T08:11:15.999Z</time></trkpt><trkpt lat="45.52475766461478" lon="11.114572352862538"><ele>386.1428571428571</ele><time>2026-04-25T08:11:18.999Z</time></trkpt><trkpt lat="45.52480420548785" lon="11.114636797283108"><ele>384.8571428571429</ele><time>2026-04-25T08:11:22.999Z</time></trkpt><trkpt lat="45.52487412112332" lon="11.114621355315188"><ele>383.5714285714286</ele><time>2026-04-25T08:11:24.999Z</time></trkpt><trkpt lat="45.524964153630954" lon="11.114606003943663"><ele>382.2857142857143</ele><time>2026-04-25T08:11:26.999Z</time></trkpt><trkpt lat="45.525037975536236" lon="11.11458523682565"><ele>381.0</ele><time>2026-04-25T08:11:29Z</time></trkpt><trkpt lat="45.525103304305254" lon="11.114578633957771"><ele>381.0</ele><time>2026-04-25T08:11:31Z</time></trkpt><trkpt lat="45.52519489727579" lon="11.114567351186775"><ele>381.0</ele><time>2026-04-25T08:11:33Z</time></trkpt><trkpt lat="45.52526030899958" lon="11.114529671286752"><ele>381.0</ele><time>2026-04-25T08:11:35Z</time></trkpt><trkpt lat="45.52533535496366" lon="11.114520244748302"><ele>381.0</ele><time>2026-04-25T08:11:38Z</time></trkpt><trkpt lat="45.5254197619687" lon="11.11449109936877"><ele>381.0</ele><time>2026-04-25T08:11:40Z</time></trkpt><trkpt lat="45.525497006513845" lon="11.114448000836004"><ele>381.0</ele><time>2026-04-25T08:11:42Z</time></trkpt><trkpt lat="45.52555641525368" lon="11.114384849408683"><ele>381.2857142857143</ele><time>2026-04-25T08:11:44Z</time></trkpt><trkpt lat="45.525613048435524" lon="11.114331847039281"><ele>381.5714285714286</ele><time>2026-04-25T08:11:46Z</time></trkpt><trkpt lat="45.52567185962028" lon="11.1142782436152"><ele>381.8571428571429</ele><time>2026-04-25T08:11:50Z</time></trkpt><trkpt lat="45.52573557064191" lon="11.114265282140911"><ele>382.1428571428571</ele><time>2026-04-25T08:11:58Z</time></trkpt><trkpt lat="45.52579835805029" lon="11.114208682862774"><ele>382.42857142857144</ele><time>2026-04-25T08:12:01Z</time></trkpt><trkpt lat="45.525838893867935" lon="11.1141363028392"><ele>382.7142857142857</ele><time>2026-04-25T08:12:04Z</time></trkpt><trkpt lat="45.525904430865644" lon="11.11407785324274"><ele>383.0</ele><time>2026-04-25T08:12:08Z</time></trkpt><trkpt lat="45.5259809958069" lon="11.114013723273008"><ele>383.0</ele><time>2026-04-25T08:12:11Z</time></trkpt><trkpt lat="45.5260392634589" lon="11.113971901723776"><ele>383.0</ele><time>2026-04-25T08:12:13Z</time></trkpt><trkpt lat="45.52611426188752" lon="11.113935271882044"><ele>383.0</ele><time>2026-04-25T08:12:17Z</time></trkpt><trkpt lat="45.52619502903586" lon="11.113888137198987"><ele>383.0</ele><time>2026-04-25T08:12:19Z</time></trkpt><trkpt lat="45.526270634693574" lon="11.113836993865663"><ele>383.0</ele><time>2026-04-25T08:12:21Z</time></trkpt><trkpt lat="45.526345969062724" lon="11.113749989549406"><ele>383.0</ele><time>2026-04-25T08:12:23Z</time></trkpt><trkpt lat="45.526401900883805" lon="11.1136484981673"><ele>378.1666666666667</ele><time>2026-04-25T08:12:25Z</time></trkpt><trkpt lat="45.5264392559794" lon="11.11357086540638"><ele>373.33333333333337</ele><time>2026-04-25T08:12:30Z</time></trkpt><trkpt lat="45.526504654452964" lon="11.113563807503594"><ele>368.5</ele><time>2026-04-25T08:12:37Z</time></trkpt><trkpt lat="45.52656346720117" lon="11.113599746168894"><ele>363.6666666666667</ele><time>2026-04-25T08:12:40Z</time></trkpt><trkpt lat="45.52664796730373" lon="11.113628620093536"><ele>358.8333333333333</ele><time>2026-04-25T08:12:43Z</time></trkpt><trkpt lat="45.526705799194936" lon="11.113696720190134"><ele>354.0</ele><time>2026-04-25T08:12:46Z</time></trkpt><trkpt lat="45.526789145780235" lon="11.113762114658202"><ele>354.0</ele><time>2026-04-25T08:12:49Z</time></trkpt><trkpt lat="45.52686794467437" lon="11.113811649013417"><ele>354.0</ele><time>2026-04-25T08:12:51Z</time></trkpt><trkpt lat="45.526952754482025" lon="11.113815868753111"><ele>354.0</ele><time>2026-04-25T08:12:54Z</time></trkpt><trkpt lat="45.527025683501435" lon="11.113849215154136"><ele>354.0</ele><time>2026-04-25T08:12:58Z</time></trkpt><trkpt lat="45.52709367534518" lon="11.113860259485888"><ele>354.0</ele><time>2026-04-25T08:13:00Z</time></trkpt><trkpt lat="45.52716756153658" lon="11.113838876188396"><ele>354.0</ele><time>2026-04-25T08:13:04.998Z</time></trkpt><trkpt lat="45.527328428142745" lon="11.11366153185916"><ele>355.6666666666667</ele><time>2026-04-25T08:13:34.999Z</time></trkpt><trkpt lat="45.527368428893105" lon="11.11359021929142"><ele>357.3333333333333</ele><time>2026-04-25T08:13:35.999Z</time></trkpt><trkpt lat="45.527424265295295" lon="11.1134879578095"><ele>359.0</ele><time>2026-04-25T08:13:37.999Z</time></trkpt><trkpt lat="45.52747559243427" lon="11.11337478428216"><ele>360.66666666666663</ele><time>2026-04-25T08:13:39.999Z</time></trkpt><trkpt lat="45.52752812698362" lon="11.113264204551164"><ele>362.3333333333333</ele><time>2026-04-25T08:13:41.999Z</time></trkpt><trkpt lat="45.527570980744116" lon="11.113181205335943"><ele>364.0</ele><time>2026-04-25T08:13:42.999Z</time></trkpt><trkpt lat="45.52761736353807" lon="11.11309522239679"><ele>364.0</ele><time>2026-04-25T08:13:44.999Z</time></trkpt><trkpt lat="45.52767455598275" lon="11.112971838838106"><ele>364.0</ele><time>2026-04-25T08:13:46.999Z</time></trkpt><trkpt lat="45.52771909968324" lon="11.112891971903235"><ele>364.0</ele><time>2026-04-25T08:13:47.999Z</time></trkpt><trkpt lat="45.5277493834963" lon="11.112761765713042"><ele>364.0</ele><time>2026-04-25T08:13:49.999Z</time></trkpt><trkpt lat="45.5277741305891" lon="11.112675275418187"><ele>364.0</ele><time>2026-04-25T08:13:51Z</time></trkpt><trkpt lat="45.52781469188352" lon="11.112600452272844"><ele>364.0</ele><time>2026-04-25T08:13:52Z</time></trkpt><trkpt lat="45.52780634823556" lon="11.112502775520793"><ele>364.0</ele><time>2026-04-25T08:13:55Z</time></trkpt><trkpt lat="45.52770708955641" lon="11.11259587738455"><ele>364.0</ele><time>2026-04-25T08:13:59Z</time></trkpt><trkpt lat="45.52762970513939" lon="11.112661513607534"><ele>364.0</ele><time>2026-04-25T08:14:01Z</time></trkpt><trkpt lat="45.527574934927095" lon="11.112740101156493"><ele>364.0</ele><time>2026-04-25T08:14:03Z</time></trkpt><trkpt lat="45.5274936114016" lon="11.112837417450109"><ele>364.0</ele><time>2026-04-25T08:14:05Z</time></trkpt><trkpt lat="45.52741445616986" lon="11.112940334017045"><ele>364.0</ele><time>2026-04-25T08:14:07Z</time></trkpt><trkpt lat="45.527310658791755" lon="11.11306106295229"><ele>364.0</ele><time>2026-04-25T08:14:09Z</time></trkpt><trkpt lat="45.52724252836998" lon="11.11312511394204"><ele>364.0</ele><time>2026-04-25T08:14:11Z</time></trkpt><trkpt lat="45.527139570926664" lon="11.113169048984977"><ele>364.0</ele><time>2026-04-25T08:14:14Z</time></trkpt><trkpt lat="45.52703699614815" lon="11.113169153295921"><ele>364.0</ele><time>2026-04-25T08:14:16Z</time></trkpt><trkpt lat="45.526934186974636" lon="11.113117776315459"><ele>367.66666666666663</ele><time>2026-04-25T08:14:18Z</time></trkpt><trkpt lat="45.5268433412929" lon="11.113067209027509"><ele>371.3333333333333</ele><time>2026-04-25T08:14:20Z</time></trkpt><trkpt lat="45.52678965067736" lon="11.11301781898517"><ele>375.0</ele><time>2026-04-25T08:14:22Z</time></trkpt><trkpt lat="45.52670206473603" lon="11.113011897199467"><ele>378.66666666666663</ele><time>2026-04-25T08:14:25Z</time></trkpt><trkpt lat="45.52674549625806" lon="11.112934674141068"><ele>382.3333333333333</ele><time>2026-04-25T08:14:28Z</time></trkpt><trkpt lat="45.52683148396706" lon="11.112906852299956"><ele>386.0</ele><time>2026-04-25T08:14:30Z</time></trkpt><trkpt lat="45.52696165286728" lon="11.112877515345515"><ele>385.99999999999994</ele><time>2026-04-25T08:14:32Z</time></trkpt><trkpt lat="45.527033164367694" lon="11.112827120638089"><ele>386.0</ele><time>2026-04-25T08:14:34Z</time></trkpt><trkpt lat="45.52709128123943" lon="11.112773071745702"><ele>386.0</ele><time>2026-04-25T08:14:45Z</time></trkpt><trkpt lat="45.52714445924837" lon="11.112703372733492"><ele>386.0</ele><time>2026-04-25T08:14:48Z</time></trkpt><trkpt lat="45.5271861476366" lon="11.1125524720328"><ele>385.99999999999994</ele><time>2026-04-25T08:14:51Z</time></trkpt><trkpt lat="45.527223569529376" lon="11.112447496735074"><ele>386.0</ele><time>2026-04-25T08:14:54.001Z</time></trkpt><trkpt lat="45.527247503971715" lon="11.112356404989548"><ele>386.4</ele><time>2026-04-25T08:15:00.001Z</time></trkpt><trkpt lat="45.52729131374898" lon="11.112249285032789"><ele>386.8</ele><time>2026-04-25T08:16:02Z</time></trkpt><trkpt lat="45.52733710417163" lon="11.11211760866681"><ele>387.2</ele><time>2026-04-25T08:16:04Z</time></trkpt><trkpt lat="45.52738112228186" lon="11.112050586783297"><ele>387.59999999999997</ele><time>2026-04-25T08:16:05Z</time></trkpt><trkpt lat="45.52742649453705" lon="11.111908394830426"><ele>388.0</ele><time>2026-04-25T08:16:07Z</time></trkpt><trkpt lat="45.527461089157114" lon="11.111788040648966"><ele>388.0</ele><time>2026-04-25T08:16:09Z</time></trkpt><trkpt lat="45.52744520738339" lon="11.111650909285038"><ele>388.0</ele><time>2026-04-25T08:16:11Z</time></trkpt><trkpt lat="45.52737977137613" lon="11.111511781916732"><ele>388.0</ele><time>2026-04-25T08:16:13Z</time></trkpt><trkpt lat="45.52738730988481" lon="11.111374478344374"><ele>388.0</ele><time>2026-04-25T08:16:15Z</time></trkpt><trkpt lat="45.52744795513771" lon="11.111301632091308"><ele>388.0</ele><time>2026-04-25T08:16:16Z</time></trkpt><trkpt lat="45.527504308136606" lon="11.111222991600638"><ele>391.0</ele><time>2026-04-25T08:16:17Z</time></trkpt><trkpt lat="45.527582376259005" lon="11.111075135918579"><ele>394.0</ele><time>2026-04-25T08:16:19Z</time></trkpt><trkpt lat="45.527638565726065" lon="11.111010544096132"><ele>397.0</ele><time>2026-04-25T08:16:21Z</time></trkpt><trkpt lat="45.5276827978312" lon="11.110917993192071"><ele>400.0</ele><time>2026-04-25T08:16:22Z</time></trkpt><trkpt lat="45.527735142142625" lon="11.110773029218727"><ele>403.0</ele><time>2026-04-25T08:16:24.001Z</time></trkpt><trkpt lat="45.52774420343119" lon="11.11061896386587"><ele>403.79999999999995</ele><time>2026-04-25T08:16:26.001Z</time></trkpt><trkpt lat="45.52776357204241" lon="11.110451286807624"><ele>404.6</ele><time>2026-04-25T08:16:28.001Z</time></trkpt><trkpt lat="45.527739105817176" lon="11.110352422913735"><ele>405.4</ele><time>2026-04-25T08:16:29.001Z</time></trkpt><trkpt lat="45.52774017491287" lon="11.110262032666403"><ele>406.20000000000005</ele><time>2026-04-25T08:16:30.001Z</time></trkpt><trkpt lat="45.52781340388886" lon="11.110245144464555"><ele>407.0</ele><time>2026-04-25T08:16:33.001Z</time></trkpt><trkpt lat="45.527948660459785" lon="11.11028140715398"><ele>407.0</ele><time>2026-04-25T08:16:38.001Z</time></trkpt><trkpt lat="45.52807543378063" lon="11.110267811909601"><ele>407.0</ele><time>2026-04-25T08:16:40.001Z</time></trkpt><trkpt lat="45.528198617275955" lon="11.110227431402901"><ele>407.0</ele><time>2026-04-25T08:16:42.001Z</time></trkpt><trkpt lat="45.52825942860067" lon="11.110203398778562"><ele>407.0</ele><time>2026-04-25T08:16:43.001Z</time></trkpt><trkpt lat="45.52835364052273" lon="11.110167456777123"><ele>407.0</ele><time>2026-04-25T08:16:44.001Z</time></trkpt><trkpt lat="45.52844212121483" lon="11.1101502137648"><ele>407.0</ele><time>2026-04-25T08:16:45.001Z</time></trkpt><trkpt lat="45.5285814841581" lon="11.110109754563174"><ele>407.0</ele><time>2026-04-25T08:16:47.001Z</time></trkpt><trkpt lat="45.52865825143919" lon="11.110078010554831"><ele>407.0</ele><time>2026-04-25T08:16:48.001Z</time></trkpt><trkpt lat="45.52871977059252" lon="11.110045050000982"><ele>407.0</ele><time>2026-04-25T08:16:49.001Z</time></trkpt><trkpt lat="45.52877390579676" lon="11.10999184798017"><ele>407.0</ele><time>2026-04-25T08:16:50.001Z</time></trkpt><trkpt lat="45.528852116283666" lon="11.10990194961166"><ele>407.3333333333333</ele><time>2026-04-25T08:16:52.001Z</time></trkpt><trkpt lat="45.52892129881117" lon="11.109819923580138"><ele>407.66666666666663</ele><time>2026-04-25T08:16:54.001Z</time></trkpt><trkpt lat="45.5289636132972" lon="11.109735320303008"><ele>408.0</ele><time>2026-04-25T08:16:55.001Z</time></trkpt><trkpt lat="45.52900123752369" lon="11.109623415584938"><ele>408.33333333333337</ele><time>2026-04-25T08:16:56.001Z</time></trkpt><trkpt lat="45.529013155030476" lon="11.109500439565684"><ele>408.6666666666667</ele><time>2026-04-25T08:16:57.001Z</time></trkpt><trkpt lat="45.52904828265983" lon="11.109410273330138"><ele>409.0</ele><time>2026-04-25T08:16:58.001Z</time></trkpt><trkpt lat="45.52910412249361" lon="11.109317193588188"><ele>409.00000000000006</ele><time>2026-04-25T08:16:59.001Z</time></trkpt><trkpt lat="45.52913930008512" lon="11.109216141208474"><ele>409.0</ele><time>2026-04-25T08:17:00.001Z</time></trkpt><trkpt lat="45.52915179621216" lon="11.109110906390043"><ele>409.0</ele><time>2026-04-25T08:17:01.001Z</time></trkpt><trkpt lat="45.52923802477701" lon="11.108960497569157"><ele>409.0</ele><time>2026-04-25T08:17:03.001Z</time></trkpt><trkpt lat="45.52927701254277" lon="11.10888960614249"><ele>409.00000000000006</ele><time>2026-04-25T08:17:04.001Z</time></trkpt><trkpt lat="45.529304864936336" lon="11.108770032645356"><ele>409.0</ele><time>2026-04-25T08:17:05.001Z</time></trkpt><trkpt lat="45.529328931511635" lon="11.108666986565547"><ele>411.2</ele><time>2026-04-25T08:17:06.001Z</time></trkpt><trkpt lat="45.52937887349663" lon="11.10853616287939"><ele>413.4</ele><time>2026-04-25T08:17:07.001Z</time></trkpt><trkpt lat="45.5293839606439" lon="11.108367758663649"><ele>415.6</ele><time>2026-04-25T08:17:09.001Z</time></trkpt><trkpt lat="45.52931689158694" lon="11.108282419434758"><ele>417.8</ele><time>2026-04-25T08:17:11.001Z</time></trkpt><trkpt lat="45.52928005386057" lon="11.108181483429195"><ele>420.0</ele><time>2026-04-25T08:17:12.001Z</time></trkpt><trkpt lat="45.52927485770245" lon="11.108039562777575"><ele>418.75</ele><time>2026-04-25T08:17:14.001Z</time></trkpt><trkpt lat="45.52937474765048" lon="11.107993399000568"><ele>417.5</ele><time>2026-04-25T08:17:16Z</time></trkpt><trkpt lat="45.52944468772993" lon="11.10810453908865"><ele>416.25</ele><time>2026-04-25T08:17:18Z</time></trkpt><trkpt lat="45.529577321204286" lon="11.1082411222475"><ele>415.0</ele><time>2026-04-25T08:17:20Z</time></trkpt><trkpt lat="45.529678458606014" lon="11.108314273207858"><ele>415.0</ele><time>2026-04-25T08:17:21Z</time></trkpt><trkpt lat="45.52978960284931" lon="11.10840933051595"><ele>415.0</ele><time>2026-04-25T08:17:22Z</time></trkpt><trkpt lat="45.529910366326604" lon="11.108500362544708"><ele>415.0</ele><time>2026-04-25T08:17:23Z</time></trkpt><trkpt lat="45.5300210650569" lon="11.108572526765428"><ele>415.0</ele><time>2026-04-25T08:17:24Z</time></trkpt><trkpt lat="45.53012874306884" lon="11.108634807020845"><ele>415.0</ele><time>2026-04-25T08:17:25Z</time></trkpt><trkpt lat="45.53022159484768" lon="11.108682591552478"><ele>415.0</ele><time>2026-04-25T08:17:26Z</time></trkpt><trkpt lat="45.53031006545224" lon="11.108734919360353"><ele>415.0</ele><time>2026-04-25T08:17:27Z</time></trkpt><trkpt lat="45.5303939509257" lon="11.108779286124731"><ele>415.0</ele><time>2026-04-25T08:17:28Z</time></trkpt><trkpt lat="45.53048050677975" lon="11.108799754490402"><ele>415.0</ele><time>2026-04-25T08:17:29Z</time></trkpt><trkpt lat="45.53056162555389" lon="11.108807765250127"><ele>415.8</ele><time>2026-04-25T08:17:30Z</time></trkpt><trkpt lat="45.53066709874659" lon="11.108796164624597"><ele>416.6</ele><time>2026-04-25T08:17:32Z</time></trkpt><trkpt lat="45.53073102479904" lon="11.108767785855598"><ele>417.4</ele><time>2026-04-25T08:17:33Z</time></trkpt><trkpt lat="45.53082350839256" lon="11.108721666219623"><ele>418.2</ele><time>2026-04-25T08:17:34Z</time></trkpt><trkpt lat="45.53091359856598" lon="11.108665928748378"><ele>419.0</ele><time>2026-04-25T08:17:35Z</time></trkpt><trkpt lat="45.531009491625554" lon="11.108598345775915"><ele>419.0</ele><time>2026-04-25T08:17:36Z</time></trkpt><trkpt lat="45.53109541567547" lon="11.108549457379638"><ele>419.0</ele><time>2026-04-25T08:17:37Z</time></trkpt><trkpt lat="45.53116083727955" lon="11.10850814323698"><ele>419.0</ele><time>2026-04-25T08:17:38Z</time></trkpt><trkpt lat="45.53122103759141" lon="11.108457061141374"><ele>419.0</ele><time>2026-04-25T08:17:39Z</time></trkpt><trkpt lat="45.531299558727014" lon="11.10832551468059"><ele>419.0</ele><time>2026-04-25T08:17:41Z</time></trkpt><trkpt lat="45.53137313479535" lon="11.108190377800293"><ele>420.8333333333333</ele><time>2026-04-25T08:17:43Z</time></trkpt><trkpt lat="45.531422034533584" lon="11.108091324879444"><ele>422.66666666666663</ele><time>2026-04-25T08:17:44Z</time></trkpt><trkpt lat="45.53149772536402" lon="11.108103544217036"><ele>424.5</ele><time>2026-04-25T08:17:47Z</time></trkpt><trkpt lat="45.531560740014065" lon="11.108079387459062"><ele>426.33333333333337</ele><time>2026-04-25T08:17:51Z</time></trkpt><trkpt lat="45.531647683120056" lon="11.108104598560464"><ele>428.1666666666667</ele><time>2026-04-25T08:17:53Z</time></trkpt><trkpt lat="45.53174230851347" lon="11.108116981382148"><ele>430.0</ele><time>2026-04-25T08:17:55Z</time></trkpt><trkpt lat="45.53183971141261" lon="11.108038403868706"><ele>430.0</ele><time>2026-04-25T08:17:57Z</time></trkpt><trkpt lat="45.531948917151645" lon="11.108047208811058"><ele>430.0</ele><time>2026-04-25T08:17:59Z</time></trkpt><trkpt lat="45.532063001171274" lon="11.108104503438138"><ele>430.0</ele><time>2026-04-25T08:18:01Z</time></trkpt><trkpt lat="45.5321594774848" lon="11.108108773540886"><ele>430.0</ele><time>2026-04-25T08:18:02Z</time></trkpt><trkpt lat="45.53224348200408" lon="11.108111857511322"><ele>430.0</ele><time>2026-04-25T08:18:03Z</time></trkpt><trkpt lat="45.532335810504726" lon="11.108121842146515"><ele>431.33333333333337</ele><time>2026-04-25T08:18:04Z</time></trkpt><trkpt lat="45.532420103518355" lon="11.108133402526986"><ele>432.6666666666667</ele><time>2026-04-25T08:18:05.001Z</time></trkpt><trkpt lat="45.53248696186633" lon="11.10815052447146"><ele>434.0</ele><time>2026-04-25T08:18:06.001Z</time></trkpt><trkpt lat="45.53256007185108" lon="11.108138593090509"><ele>435.33333333333337</ele><time>2026-04-25T08:18:07.001Z</time></trkpt><trkpt lat="45.532664739036385" lon="11.108108306790387"><ele>436.6666666666667</ele><time>2026-04-25T08:18:08.001Z</time></trkpt><trkpt lat="45.5327280336147" lon="11.108064536496206"><ele>438.0</ele><time>2026-04-25T08:18:09.001Z</time></trkpt><trkpt lat="45.532850201640166" lon="11.107989035715743"><ele>437.1666666666667</ele><time>2026-04-25T08:18:11.001Z</time></trkpt><trkpt lat="45.53294641461853" lon="11.107934911103909"><ele>436.33333333333337</ele><time>2026-04-25T08:18:12.001Z</time></trkpt><trkpt lat="45.53302055659258" lon="11.107877844083784"><ele>435.5</ele><time>2026-04-25T08:18:13.001Z</time></trkpt><trkpt lat="45.53309066956433" lon="11.1078272140563"><ele>434.6666666666667</ele><time>2026-04-25T08:18:14.001Z</time></trkpt><trkpt lat="45.53316799038747" lon="11.107809292427683"><ele>433.83333333333337</ele><time>2026-04-25T08:18:15.001Z</time></trkpt><trkpt lat="45.533241358038985" lon="11.107773962242002"><ele>433.0</ele><time>2026-04-25T08:18:16.001Z</time></trkpt><trkpt lat="45.53330565379724" lon="11.107743624430036"><ele>433.00000000000006</ele><time>2026-04-25T08:18:17.001Z</time></trkpt><trkpt lat="45.533381271905945" lon="11.107682509482178"><ele>433.0</ele><time>2026-04-25T08:18:18.001Z</time></trkpt><trkpt lat="45.53346997491306" lon="11.107604764218284"><ele>433.0</ele><time>2026-04-25T08:18:19.001Z</time></trkpt><trkpt lat="45.53355356646845" lon="11.107558796271146"><ele>433.0</ele><time>2026-04-25T08:18:20.001Z</time></trkpt><trkpt lat="45.53362162005119" lon="11.10749998118021"><ele>433.00000000000006</ele><time>2026-04-25T08:18:21.001Z</time></trkpt><trkpt lat="45.53368904390852" lon="11.107422120166277"><ele>433.0</ele><time>2026-04-25T08:18:22.001Z</time></trkpt><trkpt lat="45.533735063974554" lon="11.107326091652485"><ele>432.59999999999997</ele><time>2026-04-25T08:18:23.001Z</time></trkpt><trkpt lat="45.53378469001973" lon="11.107238207939693"><ele>432.19999999999993</ele><time>2026-04-25T08:18:24.001Z</time></trkpt><trkpt lat="45.53384205967771" lon="11.107171303114827"><ele>431.8</ele><time>2026-04-25T08:18:25.001Z</time></trkpt><trkpt lat="45.53392292305625" lon="11.107041936094568"><ele>431.4</ele><time>2026-04-25T08:18:27.001Z</time></trkpt><trkpt lat="45.533951462156715" lon="11.106933894628657"><ele>431.0</ele><time>2026-04-25T08:18:28.001Z</time></trkpt><trkpt lat="45.53400759864027" lon="11.106821998848787"><ele>431.0</ele><time>2026-04-25T08:18:30.001Z</time></trkpt><trkpt lat="45.53408159431411" lon="11.10679438680648"><ele>431.0</ele><time>2026-04-25T08:18:32.001Z</time></trkpt><trkpt lat="45.53415354030973" lon="11.106884649669917"><ele>431.0</ele><time>2026-04-25T08:18:35.001Z</time></trkpt><trkpt lat="45.53422432337053" lon="11.107014377378881"><ele>431.0</ele><time>2026-04-25T08:18:37.001Z</time></trkpt><trkpt lat="45.534277562920664" lon="11.107125690212973"><ele>431.0</ele><time>2026-04-25T08:18:38.001Z</time></trkpt><trkpt lat="45.53433290217448" lon="11.107209569436973"><ele>431.0</ele><time>2026-04-25T08:18:39.001Z</time></trkpt><trkpt lat="45.534406139806535" lon="11.107307361478824"><ele>431.0</ele><time>2026-04-25T08:18:40.001Z</time></trkpt><trkpt lat="45.534465632309704" lon="11.107398591769686"><ele>431.0</ele><time>2026-04-25T08:18:41.001Z</time></trkpt><trkpt lat="45.534512320510395" lon="11.107480002487799"><ele>431.0</ele><time>2026-04-25T08:18:42.001Z</time></trkpt><trkpt lat="45.53456866503043" lon="11.107592211435216"><ele>431.0</ele><time>2026-04-25T08:18:44.001Z</time></trkpt><trkpt lat="45.53464904404681" lon="11.107713650013894"><ele>429.3333333333333</ele><time>2026-04-25T08:18:46.001Z</time></trkpt><trkpt lat="45.5346935267479" lon="11.107796842355281"><ele>427.66666666666663</ele><time>2026-04-25T08:18:48.001Z</time></trkpt><trkpt lat="45.53479135810764" lon="11.107825023282146"><ele>426.0</ele><time>2026-04-25T08:18:50.001Z</time></trkpt><trkpt lat="45.534872311010474" lon="11.107841863427018"><ele>424.33333333333337</ele><time>2026-04-25T08:18:51.001Z</time></trkpt><trkpt lat="45.53495981409699" lon="11.107839392897583"><ele>422.6666666666667</ele><time>2026-04-25T08:18:52.001Z</time></trkpt><trkpt lat="45.5350516355789" lon="11.107847377988765"><ele>421.0</ele><time>2026-04-25T08:18:53.001Z</time></trkpt><trkpt lat="45.53512076836579" lon="11.107852233415716"><ele>421.0</ele><time>2026-04-25T08:18:54.001Z</time></trkpt><trkpt lat="45.53519222759959" lon="11.107865947889085"><ele>421.0</ele><time>2026-04-25T08:18:55.001Z</time></trkpt><trkpt lat="45.5353107766455" lon="11.107894964042925"><ele>421.0</ele><time>2026-04-25T08:18:57.001Z</time></trkpt><trkpt lat="45.53540389317595" lon="11.107952702191502"><ele>421.0</ele><time>2026-04-25T08:18:59.001Z</time></trkpt><trkpt lat="45.535500519094704" lon="11.108014411826446"><ele>421.0</ele><time>2026-04-25T08:19:01.002Z</time></trkpt><trkpt lat="45.53558054620907" lon="11.10813432853908"><ele>420.50000000000006</ele><time>2026-04-25T08:19:03.002Z</time></trkpt><trkpt lat="45.535615509387114" lon="11.108222438974094"><ele>420.0</ele><time>2026-04-25T08:19:04.002Z</time></trkpt><trkpt lat="45.53564454369779" lon="11.10831908393285"><ele>419.5</ele><time>2026-04-25T08:19:06.002Z</time></trkpt><trkpt lat="45.535722253140335" lon="11.108349236269644"><ele>419.0</ele><time>2026-04-25T08:19:07.002Z</time></trkpt><trkpt lat="45.53577390145994" lon="11.108403282420335"><ele>418.50000000000006</ele><time>2026-04-25T08:19:09.002Z</time></trkpt><trkpt lat="45.535700908256814" lon="11.10846444405211"><ele>418.0</ele><time>2026-04-25T08:19:13.002Z</time></trkpt><trkpt lat="45.53562882531182" lon="11.108499940548539"><ele>415.42857142857144</ele><time>2026-04-25T08:19:15.002Z</time></trkpt><trkpt lat="45.53555049089818" lon="11.10851433768015"><ele>412.85714285714283</ele><time>2026-04-25T08:19:19.002Z</time></trkpt><trkpt lat="45.535486038907806" lon="11.108506023224942"><ele>410.28571428571433</ele><time>2026-04-25T08:19:20.999Z</time></trkpt><trkpt lat="45.53542832413675" lon="11.108464729627038"><ele>407.7142857142857</ele><time>2026-04-25T08:19:22.999Z</time></trkpt><trkpt lat="45.53535781823039" lon="11.108459994915432"><ele>405.14285714285717</ele><time>2026-04-25T08:19:24.999Z</time></trkpt><trkpt lat="45.535350427900546" lon="11.108551511512273"><ele>402.5714285714286</ele><time>2026-04-25T08:19:26.999Z</time></trkpt><trkpt lat="45.5354067546844" lon="11.108606204614428"><ele>400.0</ele><time>2026-04-25T08:19:28.999Z</time></trkpt><trkpt lat="45.535447317784936" lon="11.108694561775266"><ele>400.00000000000006</ele><time>2026-04-25T08:19:30.999Z</time></trkpt><trkpt lat="45.535510777443186" lon="11.108747407174564"><ele>400.0</ele><time>2026-04-25T08:19:32.999Z</time></trkpt><trkpt lat="45.53557210959696" lon="11.108798007003172"><ele>400.0</ele><time>2026-04-25T08:19:34.999Z</time></trkpt><trkpt lat="45.53564211662879" lon="11.10885502327862"><ele>400.0</ele><time>2026-04-25T08:19:37Z</time></trkpt><trkpt lat="45.535753435699704" lon="11.108945471977917"><ele>400.00000000000006</ele><time>2026-04-25T08:19:39Z</time></trkpt><trkpt lat="45.53584202622248" lon="11.10899968216735"><ele>400.0</ele><time>2026-04-25T08:19:41Z</time></trkpt><trkpt lat="45.53590820501707" lon="11.109012653427605"><ele>400.00000000000006</ele><time>2026-04-25T08:19:42Z</time></trkpt><trkpt lat="45.53597895495834" lon="11.109045077966197"><ele>400.0</ele><time>2026-04-25T08:19:44Z</time></trkpt><trkpt lat="45.53605014328861" lon="11.109022025140172"><ele>400.0</ele><time>2026-04-25T08:19:46Z</time></trkpt><trkpt lat="45.53612362455946" lon="11.108990492533314"><ele>400.0</ele><time>2026-04-25T08:19:48Z</time></trkpt><trkpt lat="45.53613596270452" lon="11.10909646059982"><ele>400.00000000000006</ele><time>2026-04-25T08:19:53Z</time></trkpt><trkpt lat="45.536089815506834" lon="11.109192240019462"><ele>400.0</ele><time>2026-04-25T08:19:55Z</time></trkpt><trkpt lat="45.53603297544355" lon="11.109262086464298"><ele>397.1666666666667</ele><time>2026-04-25T08:19:58Z</time></trkpt><trkpt lat="45.535963778117996" lon="11.109257655624333"><ele>394.33333333333337</ele><time>2026-04-25T08:20:01Z</time></trkpt><trkpt lat="45.535893983862024" lon="11.109274776033098"><ele>391.5</ele><time>2026-04-25T08:20:04Z</time></trkpt><trkpt lat="45.53603441545457" lon="11.109324084499567"><ele>388.6666666666667</ele><time>2026-04-25T08:21:39Z</time></trkpt><trkpt lat="45.5360953999587" lon="11.109291142812905"><ele>385.83333333333337</ele><time>2026-04-25T08:21:43Z</time></trkpt><trkpt lat="45.536153673653516" lon="11.10918716913734"><ele>383.0</ele><time>2026-04-25T08:21:46Z</time></trkpt><trkpt lat="45.536217458805574" lon="11.109102666109179"><ele>383.83333333333337</ele><time>2026-04-25T08:21:49Z</time></trkpt><trkpt lat="45.53632286482653" lon="11.109067594113228"><ele>384.6666666666667</ele><time>2026-04-25T08:22:06Z</time></trkpt><trkpt lat="45.53629835322253" lon="11.109159272452349"><ele>385.5</ele><time>2026-04-25T08:22:11.001Z</time></trkpt><trkpt lat="45.53630873880994" lon="11.109274726114174"><ele>386.33333333333337</ele><time>2026-04-25T08:22:13.001Z</time></trkpt><trkpt lat="45.536300518754736" lon="11.109386485306166"><ele>387.1666666666667</ele><time>2026-04-25T08:22:16.001Z</time></trkpt><trkpt lat="45.5363385905188" lon="11.109493286965254"><ele>388.0</ele><time>2026-04-25T08:22:22.001Z</time></trkpt><trkpt lat="45.536407429783814" lon="11.109434394321225"><ele>388.00000000000006</ele><time>2026-04-25T08:22:25.001Z</time></trkpt><trkpt lat="45.53646914139164" lon="11.10935262115857"><ele>388.0</ele><time>2026-04-25T08:22:28.001Z</time></trkpt><trkpt lat="45.536515092008294" lon="11.10928829230881"><ele>388.0</ele><time>2026-04-25T08:22:30.001Z</time></trkpt><trkpt lat="45.53655179730286" lon="11.10917404734044"><ele>388.0</ele><time>2026-04-25T08:22:33.001Z</time></trkpt><trkpt lat="45.53655485283855" lon="11.109066797395169"><ele>388.00000000000006</ele><time>2026-04-25T08:22:35.001Z</time></trkpt><trkpt lat="45.53657513591366" lon="11.108957850539605"><ele>388.0</ele><time>2026-04-25T08:22:37.001Z</time></trkpt><trkpt lat="45.53664187232898" lon="11.108874159873638"><ele>388.1666666666667</ele><time>2026-04-25T08:22:39.001Z</time></trkpt><trkpt lat="45.53669847801376" lon="11.108795344779672"><ele>388.33333333333337</ele><time>2026-04-25T08:22:41.001Z</time></trkpt><trkpt lat="45.536767454171006" lon="11.108761447865797"><ele>388.5</ele><time>2026-04-25T08:22:44.001Z</time></trkpt><trkpt lat="45.53687170889535" lon="11.108766627507457"><ele>388.66666666666663</ele><time>2026-04-25T08:22:47.001Z</time></trkpt><trkpt lat="45.536958033208485" lon="11.108696027186447"><ele>388.8333333333333</ele><time>2026-04-25T08:22:50.001Z</time></trkpt><trkpt lat="45.53701674917833" lon="11.108594755182752"><ele>389.0</ele><time>2026-04-25T08:22:52.001Z</time></trkpt><trkpt lat="45.53707464967482" lon="11.10849040802711"><ele>391.16666666666663</ele><time>2026-04-25T08:22:54.001Z</time></trkpt><trkpt lat="45.537145116207945" lon="11.108419476410226"><ele>393.3333333333333</ele><time>2026-04-25T08:22:56.001Z</time></trkpt><trkpt lat="45.53723025443541" lon="11.108395258540062"><ele>395.5</ele><time>2026-04-25T08:25:30.002Z</time></trkpt><trkpt lat="45.53728087972906" lon="11.108330019013902"><ele>397.66666666666663</ele><time>2026-04-25T08:25:37.002Z</time></trkpt><trkpt lat="45.53732300327867" lon="11.10823863861835"><ele>399.8333333333333</ele><time>2026-04-25T08:25:39.002Z</time></trkpt><trkpt lat="45.537357986074646" lon="11.108132813280614"><ele>402.0</ele><time>2026-04-25T08:25:42.002Z</time></trkpt><trkpt lat="45.53735885495823" lon="11.108010319068162"><ele>402.3333333333333</ele><time>2026-04-25T08:25:45.002Z</time></trkpt><trkpt lat="45.53736201351687" lon="11.10791772726447"><ele>402.66666666666663</ele><time>2026-04-25T08:26:22.001Z</time></trkpt><trkpt lat="45.53742473797529" lon="11.107894140649115"><ele>403.0</ele><time>2026-04-25T08:26:24.001Z</time></trkpt><trkpt lat="45.537517194252715" lon="11.107872260034954"><ele>403.3333333333333</ele><time>2026-04-25T08:26:26.001Z</time></trkpt><trkpt lat="45.537611389194815" lon="11.107845174220284"><ele>403.66666666666663</ele><time>2026-04-25T08:26:28.001Z</time></trkpt><trkpt lat="45.53769474216427" lon="11.107818882633735"><ele>404.0</ele><time>2026-04-25T08:26:30.001Z</time></trkpt><trkpt lat="45.53775600937759" lon="11.107764914108598"><ele>404.0</ele><time>2026-04-25T08:26:33.001Z</time></trkpt><trkpt lat="45.537784467935595" lon="11.10763644828422"><ele>404.0</ele><time>2026-04-25T08:26:35.001Z</time></trkpt><trkpt lat="45.53784694228896" lon="11.10755042445736"><ele>404.0</ele><time>2026-04-25T08:26:37.001Z</time></trkpt><trkpt lat="45.53795346331599" lon="11.10749135744445"><ele>404.0</ele><time>2026-04-25T08:26:39.001Z</time></trkpt><trkpt lat="45.53803561838271" lon="11.10754007409373"><ele>404.0</ele><time>2026-04-25T08:26:42.001Z</time></trkpt><trkpt lat="45.538137717222085" lon="11.107569577158495"><ele>405.66666666666663</ele><time>2026-04-25T08:26:45.001Z</time></trkpt><trkpt lat="45.538225321511476" lon="11.10759780551432"><ele>407.3333333333333</ele><time>2026-04-25T08:26:47.001Z</time></trkpt><trkpt lat="45.53830532413206" lon="11.107602752081158"><ele>409.0</ele><time>2026-04-25T08:26:49.001Z</time></trkpt><trkpt lat="45.53837450279701" lon="11.107639910159904"><ele>410.66666666666663</ele><time>2026-04-25T08:26:52.002Z</time></trkpt><trkpt lat="45.53843948087938" lon="11.107658527553934"><ele>412.3333333333333</ele><time>2026-04-25T08:26:53.002Z</time></trkpt><trkpt lat="45.53849007556061" lon="11.107749383822544"><ele>414.0</ele><time>2026-04-25T08:26:56.002Z</time></trkpt><trkpt lat="45.5385351054636" lon="11.107848476013263"><ele>414.0</ele><time>2026-04-25T08:26:59.002Z</time></trkpt><trkpt lat="45.5385445232781" lon="11.107970300439204"><ele>414.0</ele><time>2026-04-25T08:27:03.002Z</time></trkpt><trkpt lat="45.53859855596075" lon="11.108046728805116"><ele>414.0</ele><time>2026-04-25T08:27:06.002Z</time></trkpt><trkpt lat="45.53867823119441" lon="11.108088155507103"><ele>414.0</ele><time>2026-04-25T08:27:09.002Z</time></trkpt><trkpt lat="45.538766064448026" lon="11.108064428450838"><ele>414.0</ele><time>2026-04-25T08:27:12.002Z</time></trkpt><trkpt lat="45.53883797565191" lon="11.108081145898149"><ele>414.0</ele><time>2026-04-25T08:27:46.001Z</time></trkpt><trkpt lat="45.5389227966357" lon="11.108088981828608"><ele>416.2</ele><time>2026-04-25T08:27:48.001Z</time></trkpt><trkpt lat="45.53901437205862" lon="11.108096110521547"><ele>418.4</ele><time>2026-04-25T08:27:50.001Z</time></trkpt><trkpt lat="45.53910419957624" lon="11.108147353009457"><ele>420.6</ele><time>2026-04-25T08:27:52.001Z</time></trkpt><trkpt lat="45.53918154303029" lon="11.108229402512606"><ele>422.8</ele><time>2026-04-25T08:27:54.001Z</time></trkpt><trkpt lat="45.53925189641002" lon="11.108332401255513"><ele>425.0</ele><time>2026-04-25T08:27:56.001Z</time></trkpt><trkpt lat="45.539332990055215" lon="11.108435600172546"><ele>428.2</ele><time>2026-04-25T08:27:58.001Z</time></trkpt><trkpt lat="45.53940271446156" lon="11.108481402229032"><ele>431.4</ele><time>2026-04-25T08:28:00.001Z</time></trkpt><trkpt lat="45.539481352272496" lon="11.108538437399295"><ele>434.6</ele><time>2026-04-25T08:28:06.001Z</time></trkpt><trkpt lat="45.539567927171184" lon="11.108614087540964"><ele>437.8</ele><time>2026-04-25T08:28:08.001Z</time></trkpt><trkpt lat="45.53966552572315" lon="11.108701153285732"><ele>441.0</ele><time>2026-04-25T08:28:10.001Z</time></trkpt><trkpt lat="45.5396704641354" lon="11.108823536017082"><ele>441.0</ele><time>2026-04-25T08:28:13.001Z</time></trkpt><trkpt lat="45.53963527186642" lon="11.10889823803507"><ele>441.0</ele><time>2026-04-25T08:28:16.001Z</time></trkpt><trkpt lat="45.53956343164116" lon="11.108876091764653"><ele>441.0</ele><time>2026-04-25T08:28:18.001Z</time></trkpt><trkpt lat="45.539524315637046" lon="11.108954800185444"><ele>441.0</ele><time>2026-04-25T08:28:21.001Z</time></trkpt><trkpt lat="45.53957258261756" lon="11.109100615680925"><ele>441.0</ele><time>2026-04-25T08:28:24.001Z</time></trkpt><trkpt lat="45.53961100718157" lon="11.109190637291341"><ele>441.0</ele><time>2026-04-25T08:28:26.001Z</time></trkpt><trkpt lat="45.539694026464744" lon="11.109314640776358"><ele>444.5</ele><time>2026-04-25T08:28:28.001Z</time></trkpt><trkpt lat="45.5397506706193" lon="11.109422586848837"><ele>448.0</ele><time>2026-04-25T08:28:31.001Z</time></trkpt><trkpt lat="45.53982341844364" lon="11.109497203568083"><ele>451.5</ele><time>2026-04-25T08:28:33.001Z</time></trkpt><trkpt lat="45.539910612419064" lon="11.109596412018124"><ele>455.0</ele><time>2026-04-25T08:28:35.001Z</time></trkpt><trkpt lat="45.539962148845085" lon="11.109667652940114"><ele>458.5</ele><time>2026-04-25T08:28:36.001Z</time></trkpt><trkpt lat="45.54001851847704" lon="11.109720021729018"><ele>462.0</ele><time>2026-04-25T08:28:37.001Z</time></trkpt><trkpt lat="45.54011992012557" lon="11.109805153200275"><ele>462.0</ele><time>2026-04-25T08:28:39.001Z</time></trkpt><trkpt lat="45.54018127556942" lon="11.109825787115023"><ele>462.0</ele><time>2026-04-25T08:28:41.001Z</time></trkpt><trkpt lat="45.540265649456245" lon="11.109889337141334"><ele>462.0</ele><time>2026-04-25T08:29:16.001Z</time></trkpt><trkpt lat="45.54036976549172" lon="11.109980082796817"><ele>462.0</ele><time>2026-04-25T08:29:18.001Z</time></trkpt><trkpt lat="45.54043570512421" lon="11.11006826460333"><ele>462.0</ele><time>2026-04-25T08:29:20.001Z</time></trkpt><trkpt lat="45.54050830244986" lon="11.110098378425914"><ele>462.0</ele><time>2026-04-25T08:29:21.001Z</time></trkpt><trkpt lat="45.54062972926634" lon="11.110076778397982"><ele>466.0</ele><time>2026-04-25T08:29:23.001Z</time></trkpt><trkpt lat="45.54071593692003" lon="11.110082634355086"><ele>470.0</ele><time>2026-04-25T08:29:24.001Z</time></trkpt><trkpt lat="45.54079886781443" lon="11.110105036346708"><ele>474.0</ele><time>2026-04-25T08:29:25.001Z</time></trkpt><trkpt lat="45.540870209376656" lon="11.110144451228289"><ele>478.0</ele><time>2026-04-25T08:29:26.002Z</time></trkpt><trkpt lat="45.540949374232234" lon="11.110157007143682"><ele>482.0</ele><time>2026-04-25T08:29:27.002Z</time></trkpt><trkpt lat="45.54102131710686" lon="11.110174878335744"><ele>486.0</ele><time>2026-04-25T08:29:28.002Z</time></trkpt><trkpt lat="45.54111235011661" lon="11.110189062147375"><ele>486.0</ele><time>2026-04-25T08:29:29.002Z</time></trkpt><trkpt lat="45.54117920884344" lon="11.110234240109751"><ele>486.0</ele><time>2026-04-25T08:29:30.002Z</time></trkpt><trkpt lat="45.54125378160996" lon="11.110293870292832"><ele>486.0</ele><time>2026-04-25T08:29:31.002Z</time></trkpt><trkpt lat="45.541337507151" lon="11.11035769577925"><ele>486.0</ele><time>2026-04-25T08:29:32.002Z</time></trkpt><trkpt lat="45.54141531151388" lon="11.110438047443298"><ele>486.0</ele><time>2026-04-25T08:29:33.002Z</time></trkpt><trkpt lat="45.54149626693368" lon="11.11053404107444"><ele>488.1666666666667</ele><time>2026-04-25T08:29:34.002Z</time></trkpt><trkpt lat="45.54156307834869" lon="11.110574264602688"><ele>490.33333333333337</ele><time>2026-04-25T08:29:35.002Z</time></trkpt><trkpt lat="45.54164386423103" lon="11.110643355177295"><ele>492.5</ele><time>2026-04-25T08:29:36.002Z</time></trkpt><trkpt lat="45.54170457901169" lon="11.110712482936169"><ele>494.6666666666667</ele><time>2026-04-25T08:29:37.002Z</time></trkpt><trkpt lat="45.54176195000091" lon="11.11080050349137"><ele>496.83333333333337</ele><time>2026-04-25T08:29:38.002Z</time></trkpt><trkpt lat="45.541802409552" lon="11.110870168370278"><ele>499.0</ele><time>2026-04-25T08:29:39.002Z</time></trkpt><trkpt lat="45.54187590376382" lon="11.110931168394393"><ele>499.00000000000006</ele><time>2026-04-25T08:29:41.002Z</time></trkpt><trkpt lat="45.54194346103082" lon="11.11084738585975"><ele>499.0</ele><time>2026-04-25T08:29:44.002Z</time></trkpt><trkpt lat="45.54193369706649" lon="11.110750492580605"><ele>499.0</ele><time>2026-04-25T08:29:46.002Z</time></trkpt><trkpt lat="45.54191796673112" lon="11.110582996077635"><ele>499.0</ele><time>2026-04-25T08:29:48.002Z</time></trkpt><trkpt lat="45.54192323881225" lon="11.110477963538138"><ele>499.00000000000006</ele><time>2026-04-25T08:29:49.002Z</time></trkpt><trkpt lat="45.54194607998991" lon="11.110344191153823"><ele>499.0</ele><time>2026-04-25T08:29:50.002Z</time></trkpt><trkpt lat="45.54196507869202" lon="11.110213949209216"><ele>499.0</ele><time>2026-04-25T08:29:51.001Z</time></trkpt><trkpt lat="45.54195022052545" lon="11.110087991288252"><ele>499.0</ele><time>2026-04-25T08:29:52.001Z</time></trkpt><trkpt lat="45.54193658146039" lon="11.109939768860526"><ele>499.0</ele><time>2026-04-25T08:29:53.001Z</time></trkpt><trkpt lat="45.541934582246135" lon="11.109809665460082"><ele>499.0</ele><time>2026-04-25T08:29:54.001Z</time></trkpt><trkpt lat="45.54193988544924" lon="11.10968329069995"><ele>499.0</ele><time>2026-04-25T08:29:55.001Z</time></trkpt><trkpt lat="45.541948976495796" lon="11.10957015134073"><ele>499.33333333333337</ele><time>2026-04-25T08:29:56.001Z</time></trkpt><trkpt lat="45.54196456507202" lon="11.109439701093324"><ele>499.6666666666667</ele><time>2026-04-25T08:29:57.001Z</time></trkpt><trkpt lat="45.541962237194575" lon="11.109342611129755"><ele>500.0</ele><time>2026-04-25T08:29:58.001Z</time></trkpt><trkpt lat="45.54195066965996" lon="11.109235461454071"><ele>500.33333333333337</ele><time>2026-04-25T08:29:59.001Z</time></trkpt><trkpt lat="45.54194981062042" lon="11.109135070595292"><ele>500.6666666666667</ele><time>2026-04-25T08:30:00.001Z</time></trkpt><trkpt lat="45.54197338375308" lon="11.109017902095562"><ele>501.0</ele><time>2026-04-25T08:30:01.001Z</time></trkpt><trkpt lat="45.5419892234085" lon="11.108895170860155"><ele>501.6</ele><time>2026-04-25T08:30:02.001Z</time></trkpt><trkpt lat="45.54199144001295" lon="11.108787934374169"><ele>502.20000000000005</ele><time>2026-04-25T08:30:03.001Z</time></trkpt><trkpt lat="45.54200626722534" lon="11.108671425338667"><ele>502.79999999999995</ele><time>2026-04-25T08:30:04Z</time></trkpt><trkpt lat="45.54203112834127" lon="11.108551342887575"><ele>503.4</ele><time>2026-04-25T08:30:05Z</time></trkpt><trkpt lat="45.542061184025705" lon="11.108422635776805"><ele>504.0</ele><time>2026-04-25T08:30:07Z</time></trkpt><trkpt lat="45.542119250355995" lon="11.108261992896606"><ele>507.8333333333333</ele><time>2026-04-25T08:30:09Z</time></trkpt><trkpt lat="45.542172106513306" lon="11.108163130675498"><ele>511.66666666666663</ele><time>2026-04-25T08:30:10Z</time></trkpt><trkpt lat="45.54223853098488" lon="11.108061676323757"><ele>515.5</ele><time>2026-04-25T08:30:11Z</time></trkpt><trkpt lat="45.542292034945305" lon="11.10797105854534"><ele>519.3333333333333</ele><time>2026-04-25T08:30:12Z</time></trkpt><trkpt lat="45.54233153023108" lon="11.10787515118981"><ele>523.1666666666666</ele><time>2026-04-25T08:30:13Z</time></trkpt><trkpt lat="45.54238033453579" lon="11.10776948222321"><ele>527.0</ele><time>2026-04-25T08:30:14Z</time></trkpt><trkpt lat="45.54242034182527" lon="11.10769952140481"><ele>527.0</ele><time>2026-04-25T08:30:15Z</time></trkpt><trkpt lat="45.54247443686168" lon="11.107621204709906"><ele>527.0</ele><time>2026-04-25T08:30:16Z</time></trkpt><trkpt lat="45.54252546492227" lon="11.10756285958166"><ele>527.0</ele><time>2026-04-25T08:30:17Z</time></trkpt><trkpt lat="45.542590283777855" lon="11.107507304114995"><ele>527.0</ele><time>2026-04-25T08:30:19Z</time></trkpt><trkpt lat="45.542629749123236" lon="11.107589179575307"><ele>527.0</ele><time>2026-04-25T08:30:22Z</time></trkpt><trkpt lat="45.54260487156696" lon="11.107722013013117"><ele>527.0</ele><time>2026-04-25T08:30:24Z</time></trkpt><trkpt lat="45.5425977936172" lon="11.107872786309636"><ele>527.0</ele><time>2026-04-25T08:30:26Z</time></trkpt><trkpt lat="45.54262000803403" lon="11.107984196009516"><ele>527.0</ele><time>2026-04-25T08:30:27Z</time></trkpt><trkpt lat="45.54262564323233" lon="11.108119359261433"><ele>527.0</ele><time>2026-04-25T08:30:28Z</time></trkpt><trkpt lat="45.542637667922655" lon="11.108249662277245"><ele>527.0</ele><time>2026-04-25T08:30:29Z</time></trkpt><trkpt lat="45.542648830941936" lon="11.10839853341054"><ele>527.0</ele><time>2026-04-25T08:30:30Z</time></trkpt><trkpt lat="45.54265210573823" lon="11.108548175987837"><ele>528.0</ele><time>2026-04-25T08:30:31.001Z</time></trkpt><trkpt lat="45.542651503705095" lon="11.108676476390151"><ele>529.0</ele><time>2026-04-25T08:30:32.001Z</time></trkpt><trkpt lat="45.54265258782164" lon="11.108771565749388"><ele>530.0</ele><time>2026-04-25T08:30:33.001Z</time></trkpt><trkpt lat="45.542662088882025" lon="11.108928477750647"><ele>531.0</ele><time>2026-04-25T08:30:35.001Z</time></trkpt><trkpt lat="45.54271195213244" lon="11.10900958269425"><ele>532.0</ele><time>2026-04-25T08:30:36.001Z</time></trkpt><trkpt lat="45.5427639955655" lon="11.109171112317414"><ele>532.4</ele><time>2026-04-25T08:30:38.001Z</time></trkpt><trkpt lat="45.54279761013161" lon="11.109267664799171"><ele>532.8000000000001</ele><time>2026-04-25T08:30:39.001Z</time></trkpt><trkpt lat="45.542858160508274" lon="11.10939604084738"><ele>533.2</ele><time>2026-04-25T08:30:40.001Z</time></trkpt><trkpt lat="45.54291279365587" lon="11.109541366624223"><ele>533.6</ele><time>2026-04-25T08:30:41.001Z</time></trkpt><trkpt lat="45.542975493895646" lon="11.109708060282175"><ele>534.0</ele><time>2026-04-25T08:30:42.001Z</time></trkpt><trkpt lat="45.543026552221875" lon="11.109862215127864"><ele>537.8</ele><time>2026-04-25T08:30:43.001Z</time></trkpt><trkpt lat="45.54309327022615" lon="11.110029041465426"><ele>541.5999999999999</ele><time>2026-04-25T08:30:44.001Z</time></trkpt><trkpt lat="45.543139799936085" lon="11.110184450184445"><ele>545.4</ele><time>2026-04-25T08:30:45.001Z</time></trkpt><trkpt lat="45.543180518116785" lon="11.110320222890337"><ele>549.1999999999999</ele><time>2026-04-25T08:30:46.001Z</time></trkpt><trkpt lat="45.543215001709804" lon="11.110443757529278"><ele>553.0</ele><time>2026-04-25T08:30:47.001Z</time></trkpt><trkpt lat="45.54327752001782" lon="11.11054130114598"><ele>553.0</ele><time>2026-04-25T08:30:48.001Z</time></trkpt><trkpt lat="45.54334476020441" lon="11.110645681302728"><ele>553.0</ele><time>2026-04-25T08:30:49.001Z</time></trkpt><trkpt lat="45.5434091307339" lon="11.110748483865052"><ele>553.0</ele><time>2026-04-25T08:30:50.001Z</time></trkpt><trkpt lat="45.543478495187934" lon="11.110828217877408"><ele>553.0</ele><time>2026-04-25T08:30:51.001Z</time></trkpt><trkpt lat="45.54355851548684" lon="11.110894006238606"><ele>553.0</ele><time>2026-04-25T08:30:52.001Z</time></trkpt><trkpt lat="45.54362396745237" lon="11.110976856749627"><ele>550.8</ele><time>2026-04-25T08:30:53.001Z</time></trkpt><trkpt lat="45.54365157540688" lon="11.111102137775967"><ele>548.5999999999999</ele><time>2026-04-25T08:30:54.001Z</time></trkpt><trkpt lat="45.54371319213667" lon="11.111224600245562"><ele>546.4000000000001</ele><time>2026-04-25T08:30:55.001Z</time></trkpt><trkpt lat="45.54375406323198" lon="11.111343622705178"><ele>544.2</ele><time>2026-04-25T08:30:56.001Z</time></trkpt><trkpt lat="45.543797661705966" lon="11.11147354923926"><ele>542.0</ele><time>2026-04-25T08:30:57.001Z</time></trkpt><trkpt lat="45.54387123098045" lon="11.11156031580942"><ele>545.0</ele><time>2026-04-25T08:30:58.001Z</time></trkpt><trkpt lat="45.54389713669874" lon="11.111657386841024"><ele>548.0</ele><time>2026-04-25T08:30:59.001Z</time></trkpt><trkpt lat="45.543941449811975" lon="11.111757020835729"><ele>551.0</ele><time>2026-04-25T08:31:00.001Z</time></trkpt><trkpt lat="45.54397744420404" lon="11.111876354560764"><ele>554.0</ele><time>2026-04-25T08:31:01.001Z</time></trkpt><trkpt lat="45.543995394751185" lon="11.11201432851917"><ele>557.0</ele><time>2026-04-25T08:31:02.001Z</time></trkpt><trkpt lat="45.544035051108345" lon="11.112156887975415"><ele>557.0</ele><time>2026-04-25T08:31:03.001Z</time></trkpt><trkpt lat="45.54407015074257" lon="11.11227579618024"><ele>557.0</ele><time>2026-04-25T08:31:04.001Z</time></trkpt><trkpt lat="45.544070054881296" lon="11.112403798899239"><ele>557.0</ele><time>2026-04-25T08:31:05.001Z</time></trkpt><trkpt lat="45.54409941781333" lon="11.112528101061585"><ele>557.0</ele><time>2026-04-25T08:31:06.001Z</time></trkpt><trkpt lat="45.54411644321183" lon="11.112652357475799"><ele>557.0</ele><time>2026-04-25T08:31:07.001Z</time></trkpt><trkpt lat="45.544116126719636" lon="11.112773643458416"><ele>557.0</ele><time>2026-04-25T08:31:08.001Z</time></trkpt><trkpt lat="45.54413246974277" lon="11.112904838130794"><ele>554.8000000000001</ele><time>2026-04-25T08:31:09.001Z</time></trkpt><trkpt lat="45.54417795993871" lon="11.113033383652624"><ele>552.6</ele><time>2026-04-25T08:31:10.001Z</time></trkpt><trkpt lat="45.54424129931688" lon="11.113152831814652"><ele>550.4000000000001</ele><time>2026-04-25T08:31:11.001Z</time></trkpt><trkpt lat="45.54428384396978" lon="11.113276085806826"><ele>548.2</ele><time>2026-04-25T08:31:12.001Z</time></trkpt><trkpt lat="45.544308841648764" lon="11.11340758660488"><ele>546.0</ele><time>2026-04-25T08:31:13.001Z</time></trkpt><trkpt lat="45.54430757309011" lon="11.113522766240159"><ele>545.0</ele><time>2026-04-25T08:31:14.001Z</time></trkpt><trkpt lat="45.54428693646202" lon="11.113627919505099"><ele>544.0</ele><time>2026-04-25T08:31:15.001Z</time></trkpt><trkpt lat="45.54424223607106" lon="11.113738582947928"><ele>543.0</ele><time>2026-04-25T08:31:16.001Z</time></trkpt><trkpt lat="45.54417969449659" lon="11.11383368347418"><ele>542.0</ele><time>2026-04-25T08:31:17.001Z</time></trkpt><trkpt lat="45.54410841123195" lon="11.113909102901365"><ele>541.0</ele><time>2026-04-25T08:31:18.001Z</time></trkpt><trkpt lat="45.544011551511915" lon="11.113969365926078"><ele>541.0</ele><time>2026-04-25T08:31:19.001Z</time></trkpt><trkpt lat="45.54390898857043" lon="11.114026496669837"><ele>541.0</ele><time>2026-04-25T08:31:20.001Z</time></trkpt><trkpt lat="45.54380311224165" lon="11.11410280144802"><ele>541.0</ele><time>2026-04-25T08:31:21.001Z</time></trkpt><trkpt lat="45.543703282356844" lon="11.114166728776743"><ele>541.0</ele><time>2026-04-25T08:31:22.001Z</time></trkpt><trkpt lat="45.54359835546217" lon="11.11423568800254"><ele>543.6</ele><time>2026-04-25T08:31:23.001Z</time></trkpt><trkpt lat="45.543502890706506" lon="11.114292895917556"><ele>546.2</ele><time>2026-04-25T08:31:24.001Z</time></trkpt><trkpt lat="45.543399459117644" lon="11.114314996761125"><ele>548.8</ele><time>2026-04-25T08:31:25.001Z</time></trkpt><trkpt lat="45.54332662725219" lon="11.1143502585185"><ele>551.4</ele><time>2026-04-25T08:31:26.001Z</time></trkpt><trkpt lat="45.54325330120314" lon="11.114375219726197"><ele>554.0</ele><time>2026-04-25T08:31:27.001Z</time></trkpt><trkpt lat="45.543160883133865" lon="11.114426940651729"><ele>554.0</ele><time>2026-04-25T08:31:28.001Z</time></trkpt><trkpt lat="45.543048474644664" lon="11.114441131742842"><ele>554.0</ele><time>2026-04-25T08:31:29.001Z</time></trkpt><trkpt lat="45.542928245468765" lon="11.114425371284895"><ele>554.0</ele><time>2026-04-25T08:31:30.001Z</time></trkpt><trkpt lat="45.54282055416049" lon="11.114390234639892"><ele>554.0</ele><time>2026-04-25T08:31:31.001Z</time></trkpt><trkpt lat="45.54271997608954" lon="11.114345899155023"><ele>554.0</ele><time>2026-04-25T08:31:32.001Z</time></trkpt><trkpt lat="45.54264334698935" lon="11.114268407764108"><ele>556.6666666666666</ele><time>2026-04-25T08:31:33.001Z</time></trkpt><trkpt lat="45.54256338250165" lon="11.114249284902161"><ele>559.3333333333333</ele><time>2026-04-25T08:31:34.001Z</time></trkpt><trkpt lat="45.5424817592484" lon="11.114294161269418"><ele>562.0</ele><time>2026-04-25T08:31:35.001Z</time></trkpt><trkpt lat="45.54243158082203" lon="11.114382564517582"><ele>564.6666666666666</ele><time>2026-04-25T08:31:36.001Z</time></trkpt><trkpt lat="45.54239827001116" lon="11.114470721210127"><ele>567.3333333333334</ele><time>2026-04-25T08:31:37.001Z</time></trkpt><trkpt lat="45.542391935708096" lon="11.114564998495874"><ele>570.0</ele><time>2026-04-25T08:31:38.001Z</time></trkpt><trkpt lat="45.54242439469273" lon="11.114646085271726"><ele>570.0</ele><time>2026-04-25T08:31:39.001Z</time></trkpt><trkpt lat="45.54248296834634" lon="11.114718845255826"><ele>570.0</ele><time>2026-04-25T08:31:40.001Z</time></trkpt><trkpt lat="45.54257534790833" lon="11.114788075963343"><ele>570.0</ele><time>2026-04-25T08:31:41.001Z</time></trkpt><trkpt lat="45.54267088618441" lon="11.114886941354111"><ele>570.0</ele><time>2026-04-25T08:31:42.001Z</time></trkpt><trkpt lat="45.5427627372672" lon="11.114994109231263"><ele>570.0</ele><time>2026-04-25T08:31:43.001Z</time></trkpt><trkpt lat="45.54285871025431" lon="11.115117949838229"><ele>570.75</ele><time>2026-04-25T08:31:44.001Z</time></trkpt><trkpt lat="45.54294816294674" lon="11.115237669667364"><ele>571.5</ele><time>2026-04-25T08:31:45.001Z</time></trkpt><trkpt lat="45.54304144152435" lon="11.115368122475644"><ele>572.25</ele><time>2026-04-25T08:31:46.001Z</time></trkpt><trkpt lat="45.54313197839089" lon="11.11550293925313"><ele>573.0</ele><time>2026-04-25T08:31:47.001Z</time></trkpt><trkpt lat="45.54321092354375" lon="11.115635228248745"><ele>576.0</ele><time>2026-04-25T08:31:48.001Z</time></trkpt><trkpt lat="45.54331209754984" lon="11.115780320111517"><ele>579.0</ele><time>2026-04-25T08:31:49.001Z</time></trkpt><trkpt lat="45.543407863523306" lon="11.115922299631533"><ele>582.0</ele><time>2026-04-25T08:31:50.001Z</time></trkpt><trkpt lat="45.54350020385991" lon="11.116054430790792"><ele>585.0</ele><time>2026-04-25T08:31:51.001Z</time></trkpt><trkpt lat="45.54360625044317" lon="11.116188070863961"><ele>585.0</ele><time>2026-04-25T08:31:52.001Z</time></trkpt><trkpt lat="45.543712453822124" lon="11.116310634713843"><ele>585.0</ele><time>2026-04-25T08:31:53.001Z</time></trkpt><trkpt lat="45.543819822995644" lon="11.116434303833708"><ele>585.0</ele><time>2026-04-25T08:31:54.001Z</time></trkpt><trkpt lat="45.543926539819964" lon="11.116568942048556"><ele>585.0</ele><time>2026-04-25T08:31:55.001Z</time></trkpt><trkpt lat="45.544035044788245" lon="11.116710426366808"><ele>588.0</ele><time>2026-04-25T08:31:56.001Z</time></trkpt><trkpt lat="45.54413725397226" lon="11.116838474996227"><ele>591.0</ele><time>2026-04-25T08:31:57Z</time></trkpt><trkpt lat="45.54423529704757" lon="11.116940975373861"><ele>594.0</ele><time>2026-04-25T08:31:58Z</time></trkpt><trkpt lat="45.544338920107045" lon="11.117044649471303"><ele>597.0</ele><time>2026-04-25T08:31:59Z</time></trkpt><trkpt lat="45.54442724198693" lon="11.117165927491193"><ele>597.0</ele><time>2026-04-25T08:32:00Z</time></trkpt><trkpt lat="45.54449507183741" lon="11.117298422522863"><ele>597.0</ele><time>2026-04-25T08:32:01Z</time></trkpt><trkpt lat="45.54454461452317" lon="11.11741070235372"><ele>597.0</ele><time>2026-04-25T08:32:02Z</time></trkpt><trkpt lat="45.54460999294851" lon="11.117482924854901"><ele>597.0</ele><time>2026-04-25T08:32:03Z</time></trkpt><trkpt lat="45.54469564627646" lon="11.11750852489011"><ele>597.0</ele><time>2026-04-25T08:32:04Z</time></trkpt><trkpt lat="45.544789387036644" lon="11.11748902337204"><ele>601.8000000000001</ele><time>2026-04-25T08:32:05Z</time></trkpt><trkpt lat="45.54488257735216" lon="11.11746047565834"><ele>606.6</ele><time>2026-04-25T08:32:06Z</time></trkpt><trkpt lat="45.54497842335279" lon="11.117439556464406"><ele>611.4000000000001</ele><time>2026-04-25T08:32:07Z</time></trkpt><trkpt lat="45.54507495411553" lon="11.117449846664421"><ele>616.2</ele><time>2026-04-25T08:32:08Z</time></trkpt><trkpt lat="45.54517312175226" lon="11.117491347281193"><ele>621.0</ele><time>2026-04-25T08:32:09Z</time></trkpt><trkpt lat="45.54524814362539" lon="11.117569668430392"><ele>621.0</ele><time>2026-04-25T08:32:10Z</time></trkpt><trkpt lat="45.545312890747944" lon="11.117662180056957"><ele>621.0</ele><time>2026-04-25T08:32:11Z</time></trkpt><trkpt lat="45.54535833863724" lon="11.117743212452172"><ele>621.0</ele><time>2026-04-25T08:32:12Z</time></trkpt><trkpt lat="45.54535514285049" lon="11.117908440541958"><ele>621.0</ele><time>2026-04-25T08:32:14Z</time></trkpt><trkpt lat="45.54530556863861" lon="11.118005411251426"><ele>621.0</ele><time>2026-04-25T08:32:15Z</time></trkpt><trkpt lat="45.54526958279933" lon="11.118098871809154"><ele>621.0</ele><time>2026-04-25T08:32:16Z</time></trkpt><trkpt lat="45.54526740875726" lon="11.118200469325517"><ele>621.8333333333334</ele><time>2026-04-25T08:32:17Z</time></trkpt><trkpt lat="45.54530117917899" lon="11.118298015623175"><ele>622.6666666666666</ele><time>2026-04-25T08:32:18Z</time></trkpt><trkpt lat="45.54536193156746" lon="11.118378995811707"><ele>623.5</ele><time>2026-04-25T08:32:19Z</time></trkpt><trkpt lat="45.54544431377802" lon="11.118434741852376"><ele>624.3333333333333</ele><time>2026-04-25T08:32:20Z</time></trkpt><trkpt lat="45.54552394226672" lon="11.118519680699842"><ele>625.1666666666666</ele><time>2026-04-25T08:32:21Z</time></trkpt><trkpt lat="45.54559149243715" lon="11.118623066994106"><ele>626.0</ele><time>2026-04-25T08:32:22Z</time></trkpt><trkpt lat="45.54564061742194" lon="11.11874772731928"><ele>628.0</ele><time>2026-04-25T08:32:23Z</time></trkpt><trkpt lat="45.545690361724475" lon="11.118842776776967"><ele>630.0</ele><time>2026-04-25T08:32:24Z</time></trkpt><trkpt lat="45.54577685404753" lon="11.118919162356905"><ele>632.0</ele><time>2026-04-25T08:32:25Z</time></trkpt><trkpt lat="45.54588142851395" lon="11.118987804870665"><ele>634.0</ele><time>2026-04-25T08:32:26Z</time></trkpt><trkpt lat="45.54599202519185" lon="11.119059769629827"><ele>636.0</ele><time>2026-04-25T08:32:27Z</time></trkpt><trkpt lat="45.54610475044653" lon="11.119133463922234"><ele>638.5</ele><time>2026-04-25T08:32:28Z</time></trkpt><trkpt lat="45.546216071294296" lon="11.119214976394993"><ele>641.0</ele><time>2026-04-25T08:32:29Z</time></trkpt><trkpt lat="45.546331947336064" lon="11.119300363287106"><ele>643.5</ele><time>2026-04-25T08:32:30Z</time></trkpt><trkpt lat="45.546440570207444" lon="11.119398445193875"><ele>646.0</ele><time>2026-04-25T08:32:31Z</time></trkpt><trkpt lat="45.546543843846294" lon="11.119504766843837"><ele>646.0</ele><time>2026-04-25T08:32:32Z</time></trkpt><trkpt lat="45.546621945547905" lon="11.11960170813792"><ele>646.0</ele><time>2026-04-25T08:32:33Z</time></trkpt><trkpt lat="45.54667818994804" lon="11.119687646285753"><ele>646.0</ele><time>2026-04-25T08:32:34Z</time></trkpt><trkpt lat="45.546706191051356" lon="11.119817098203397"><ele>646.0</ele><time>2026-04-25T08:32:36Z</time></trkpt><trkpt lat="45.54663146350307" lon="11.11993723851347"><ele>646.0</ele><time>2026-04-25T08:32:38Z</time></trkpt><trkpt lat="45.54657414820227" lon="11.120034049170009"><ele>648.5999999999999</ele><time>2026-04-25T08:32:39Z</time></trkpt><trkpt lat="45.54652554029222" lon="11.120163385129347"><ele>651.2</ele><time>2026-04-25T08:32:40Z</time></trkpt><trkpt lat="45.54648430370673" lon="11.120304163098444"><ele>653.8</ele><time>2026-04-25T08:32:41Z</time></trkpt><trkpt lat="45.546446108901904" lon="11.120461068983069"><ele>656.4000000000001</ele><time>2026-04-25T08:32:42Z</time></trkpt><trkpt lat="45.54641420118459" lon="11.120608707396256"><ele>659.0</ele><time>2026-04-25T08:32:43Z</time></trkpt><trkpt lat="45.546389465482534" lon="11.120744227880863"><ele>661.25</ele><time>2026-04-25T08:32:44Z</time></trkpt><trkpt lat="45.546372681191556" lon="11.120889342403062"><ele>663.5</ele><time>2026-04-25T08:32:45Z</time></trkpt><trkpt lat="45.5463692551734" lon="11.121049339553803"><ele>665.75</ele><time>2026-04-25T08:32:46Z</time></trkpt><trkpt lat="45.54637190794383" lon="11.121216253865585"><ele>668.0</ele><time>2026-04-25T08:32:47Z</time></trkpt><trkpt lat="45.54635635571408" lon="11.121390396433757"><ele>668.4</ele><time>2026-04-25T08:32:48Z</time></trkpt><trkpt lat="45.54629876448914" lon="11.121570207374237"><ele>668.8</ele><time>2026-04-25T08:32:49Z</time></trkpt><trkpt lat="45.54624439120519" lon="11.121728564038058"><ele>669.2</ele><time>2026-04-25T08:32:50Z</time></trkpt><trkpt lat="45.54618117903046" lon="11.121844468451387"><ele>669.6</ele><time>2026-04-25T08:32:51Z</time></trkpt><trkpt lat="45.54615822296544" lon="11.121936907345694"><ele>670.0</ele><time>2026-04-25T08:32:52Z</time></trkpt><trkpt lat="45.546135325515394" lon="11.122054031585442"><ele>670.0</ele><time>2026-04-25T08:32:54Z</time></trkpt><trkpt lat="45.54628435493187" lon="11.12213613953081"><ele>670.0</ele><time>2026-04-25T08:32:58.001Z</time></trkpt><trkpt lat="45.54636624907139" lon="11.122120911552441"><ele>670.0</ele><time>2026-04-25T08:32:59.001Z</time></trkpt><trkpt lat="45.546449165859556" lon="11.122088940247382"><ele>670.0</ele><time>2026-04-25T08:33:00.001Z</time></trkpt><trkpt lat="45.546525865274475" lon="11.122056325052695"><ele>670.0</ele><time>2026-04-25T08:33:01.001Z</time></trkpt><trkpt lat="45.546601384936935" lon="11.122030323414508"><ele>670.0</ele><time>2026-04-25T08:33:02.001Z</time></trkpt><trkpt lat="45.546682270600044" lon="11.122016641097234"><ele>670.0</ele><time>2026-04-25T08:33:03.001Z</time></trkpt><trkpt lat="45.54676383204931" lon="11.122013519593905"><ele>670.0</ele><time>2026-04-25T08:33:04.001Z</time></trkpt><trkpt lat="45.54684611616815" lon="11.122006241394246"><ele>670.0</ele><time>2026-04-25T08:33:05.001Z</time></trkpt><trkpt lat="45.54691620894793" lon="11.12197159519506"><ele>670.0</ele><time>2026-04-25T08:33:06.001Z</time></trkpt><trkpt lat="45.54699553262305" lon="11.121925945923595"><ele>670.0</ele><time>2026-04-25T08:33:07.001Z</time></trkpt><trkpt lat="45.54707255423699" lon="11.121880020212465"><ele>671.0</ele><time>2026-04-25T08:33:08.001Z</time></trkpt><trkpt lat="45.54714830285178" lon="11.121835809683711"><ele>672.0</ele><time>2026-04-25T08:33:09.001Z</time></trkpt><trkpt lat="45.547218690754505" lon="11.121795062749161"><ele>673.0</ele><time>2026-04-25T08:33:10.001Z</time></trkpt><trkpt lat="45.54730178534666" lon="11.121740784064945"><ele>674.0</ele><time>2026-04-25T08:33:11.001Z</time></trkpt><trkpt lat="45.547395534583714" lon="11.121677166191398"><ele>675.0</ele><time>2026-04-25T08:33:12.001Z</time></trkpt><trkpt lat="45.54748946071486" lon="11.12166936450528"><ele>676.0</ele><time>2026-04-25T08:33:13.001Z</time></trkpt><trkpt lat="45.547557542736136" lon="11.121642323113079"><ele>676.0</ele><time>2026-04-25T08:33:14.001Z</time></trkpt><trkpt lat="45.547638144135604" lon="11.121610926719983"><ele>676.0</ele><time>2026-04-25T08:33:16.001Z</time></trkpt><trkpt lat="45.54755714352885" lon="11.12135712225681"><ele>676.0</ele><time>2026-04-25T08:33:17.001Z</time></trkpt><trkpt lat="45.5476229717795" lon="11.121326377766193"><ele>676.0</ele><time>2026-04-25T08:52:15.001Z</time></trkpt><trkpt lat="45.54764978646086" lon="11.12141741811715"><ele>676.0</ele><time>2026-04-25T08:52:23.002Z</time></trkpt><trkpt lat="45.5475799773862" lon="11.121471315736946"><ele>676.0</ele><time>2026-04-25T08:52:26.002Z</time></trkpt><trkpt lat="45.54752906117849" lon="11.121527373321886"><ele>676.0</ele><time>2026-04-25T08:52:29.002Z</time></trkpt><trkpt lat="45.54747666700307" lon="11.121599935926703"><ele>676.0</ele><time>2026-04-25T08:52:33.002Z</time></trkpt><trkpt lat="45.54739014237442" lon="11.121685095660279"><ele>676.0</ele><time>2026-04-25T08:52:36.002Z</time></trkpt><trkpt lat="45.54730230748277" lon="11.121743047533817"><ele>676.0</ele><time>2026-04-25T08:52:38.002Z</time></trkpt><trkpt lat="45.54722434854861" lon="11.12178077263241"><ele>676.0</ele><time>2026-04-25T08:52:40.002Z</time></trkpt><trkpt lat="45.54715317982024" lon="11.121812169905063"><ele>676.0</ele><time>2026-04-25T08:52:42.002Z</time></trkpt><trkpt lat="45.54708116462619" lon="11.121845563621855"><ele>676.0</ele><time>2026-04-25T08:52:44.002Z</time></trkpt><trkpt lat="45.54698115689959" lon="11.1218865447817"><ele>676.0</ele><time>2026-04-25T08:52:46.002Z</time></trkpt><trkpt lat="45.546902844297776" lon="11.121909081492362"><ele>676.0</ele><time>2026-04-25T08:52:47.002Z</time></trkpt><trkpt lat="45.54682410838788" lon="11.121936768469087"><ele>676.0</ele><time>2026-04-25T08:52:48.002Z</time></trkpt><trkpt lat="45.54674661193534" lon="11.121974487793537"><ele>676.0</ele><time>2026-04-25T08:52:49.002Z</time></trkpt><trkpt lat="45.546676492420936" lon="11.122007250941868"><ele>674.0</ele><time>2026-04-25T08:52:50.002Z</time></trkpt><trkpt lat="45.54660360816352" lon="11.121959758795056"><ele>672.0</ele><time>2026-04-25T08:52:51.002Z</time></trkpt><trkpt lat="45.546528473776625" lon="11.121988464206254"><ele>670.0</ele><time>2026-04-25T08:52:53.003Z</time></trkpt><trkpt lat="45.546583075829425" lon="11.122572426597385"><ele>669.5714285714286</ele><time>2026-04-25T08:53:13Z</time></trkpt><trkpt lat="45.546600191492594" lon="11.122674212968855"><ele>669.1428571428571</ele><time>2026-04-25T08:53:14Z</time></trkpt><trkpt lat="45.5466171076057" lon="11.122788502420521"><ele>668.7142857142858</ele><time>2026-04-25T08:53:15Z</time></trkpt><trkpt lat="45.54663634734515" lon="11.122892809108246"><ele>668.2857142857142</ele><time>2026-04-25T08:53:16Z</time></trkpt><trkpt lat="45.54665660580192" lon="11.12299992427028"><ele>667.8571428571429</ele><time>2026-04-25T08:53:17Z</time></trkpt><trkpt lat="45.5466855022255" lon="11.123095792947083"><ele>667.4285714285714</ele><time>2026-04-25T08:53:18Z</time></trkpt><trkpt lat="45.54673465332703" lon="11.123157084670183"><ele>667.0</ele><time>2026-04-25T08:53:19Z</time></trkpt><trkpt lat="45.54680760738318" lon="11.123220114529778"><ele>666.0</ele><time>2026-04-25T08:53:20Z</time></trkpt><trkpt lat="45.54687981117006" lon="11.123253078058655"><ele>665.0</ele><time>2026-04-25T08:53:21Z</time></trkpt><trkpt lat="45.54695726135219" lon="11.123283041107918"><ele>664.0</ele><time>2026-04-25T08:53:22Z</time></trkpt><trkpt lat="45.54702761696471" lon="11.123318540297479"><ele>663.0</ele><time>2026-04-25T08:53:23Z</time></trkpt><trkpt lat="45.54708604686807" lon="11.123387894308056"><ele>662.0</ele><time>2026-04-25T08:53:24Z</time></trkpt><trkpt lat="45.547152382676444" lon="11.123481220584022"><ele>661.0</ele><time>2026-04-25T08:53:25Z</time></trkpt><trkpt lat="45.54723972335658" lon="11.123593523701887"><ele>660.8333333333334</ele><time>2026-04-25T08:53:26Z</time></trkpt><trkpt lat="45.547305168128524" lon="11.12366225255551"><ele>660.6666666666667</ele><time>2026-04-25T08:53:27Z</time></trkpt><trkpt lat="45.54737364455509" lon="11.123746142073482"><ele>660.5</ele><time>2026-04-25T08:53:28Z</time></trkpt><trkpt lat="45.547440762422234" lon="11.123842135007825"><ele>660.3333333333334</ele><time>2026-04-25T08:53:29Z</time></trkpt><trkpt lat="45.547536863515646" lon="11.123913300085192"><ele>660.1666666666666</ele><time>2026-04-25T08:53:31Z</time></trkpt><trkpt lat="45.54759930066751" lon="11.123896085260888"><ele>660.0</ele><time>2026-04-25T08:53:32Z</time></trkpt><trkpt lat="45.54766467946978" lon="11.123916370096234"><ele>660.0</ele><time>2026-04-25T08:53:33Z</time></trkpt><trkpt lat="45.54772294514603" lon="11.123954513598338"><ele>660.0</ele><time>2026-04-25T08:53:34Z</time></trkpt><trkpt lat="45.547808219547186" lon="11.124005040946646"><ele>660.0</ele><time>2026-04-25T08:53:36Z</time></trkpt><trkpt lat="45.54789793158351" lon="11.12402530837574"><ele>660.0</ele><time>2026-04-25T08:53:38Z</time></trkpt><trkpt lat="45.54802228181246" lon="11.124041279364114"><ele>660.0</ele><time>2026-04-25T08:53:40.001Z</time></trkpt><trkpt lat="45.548088905846285" lon="11.124060032955805"><ele>660.0</ele><time>2026-04-25T08:53:41.001Z</time></trkpt><trkpt lat="45.54818995674157" lon="11.12409481823264"><ele>658.6</ele><time>2026-04-25T08:53:43.001Z</time></trkpt><trkpt lat="45.54828010296584" lon="11.123989133757908"><ele>657.2</ele><time>2026-04-25T08:53:45.001Z</time></trkpt><trkpt lat="45.548337212477534" lon="11.123946624858917"><ele>655.8</ele><time>2026-04-25T08:53:46.001Z</time></trkpt><trkpt lat="45.548420600401656" lon="11.123857575038992"><ele>654.4</ele><time>2026-04-25T08:53:49.001Z</time></trkpt><trkpt lat="45.54847967784573" lon="11.123917255066855"><ele>653.0</ele><time>2026-04-25T08:53:52.001Z</time></trkpt><trkpt lat="45.54851519392517" lon="11.12403953061375"><ele>651.1666666666666</ele><time>2026-04-25T08:53:55.001Z</time></trkpt><trkpt lat="45.54852493480178" lon="11.124130512337574"><ele>649.3333333333333</ele><time>2026-04-25T08:53:57.001Z</time></trkpt><trkpt lat="45.54861623209212" lon="11.12412447856712"><ele>647.5</ele><time>2026-04-25T08:54:00.001Z</time></trkpt><trkpt lat="45.54869028986791" lon="11.124228525224625"><ele>645.6666666666666</ele><time>2026-04-25T08:54:02.001Z</time></trkpt><trkpt lat="45.54874588254026" lon="11.124323821424621"><ele>643.8333333333334</ele><time>2026-04-25T08:54:04.001Z</time></trkpt><trkpt lat="45.54879641561129" lon="11.124439527549463"><ele>642.0</ele><time>2026-04-25T08:54:06.001Z</time></trkpt><trkpt lat="45.548862270033055" lon="11.124510519908434"><ele>639.6</ele><time>2026-04-25T08:54:09.001Z</time></trkpt><trkpt lat="45.548941901236674" lon="11.124520774186633"><ele>637.2</ele><time>2026-04-25T08:54:14.002Z</time></trkpt><trkpt lat="45.549025212186244" lon="11.124464502057771"><ele>634.8</ele><time>2026-04-25T08:54:16.002Z</time></trkpt><trkpt lat="45.549117573304976" lon="11.124417973930056"><ele>632.4</ele><time>2026-04-25T08:54:17.002Z</time></trkpt><trkpt lat="45.549201083705356" lon="11.124511095893215"><ele>630.0</ele><time>2026-04-25T08:54:19.002Z</time></trkpt><trkpt lat="45.54928774967697" lon="11.124565326492595"><ele>630.0</ele><time>2026-04-25T08:54:21.002Z</time></trkpt><trkpt lat="45.54935176114214" lon="11.124530186147576"><ele>630.0</ele><time>2026-04-25T08:54:22.002Z</time></trkpt><trkpt lat="45.549416752023056" lon="11.124469344082001"><ele>630.0</ele><time>2026-04-25T08:54:23.002Z</time></trkpt><trkpt lat="45.54949557198136" lon="11.124399667273735"><ele>630.0</ele><time>2026-04-25T08:54:24.002Z</time></trkpt><trkpt lat="45.5495668992534" lon="11.124331068811504"><ele>630.0</ele><time>2026-04-25T08:54:25.002Z</time></trkpt><trkpt lat="45.54964168307047" lon="11.124283334212848"><ele>630.0</ele><time>2026-04-25T08:54:26.002Z</time></trkpt><trkpt lat="45.54977303809796" lon="11.124226480391986"><ele>631.1666666666666</ele><time>2026-04-25T08:54:28.002Z</time></trkpt><trkpt lat="45.549865562072505" lon="11.12417888831003"><ele>632.3333333333334</ele><time>2026-04-25T08:54:31.002Z</time></trkpt><trkpt lat="45.5499121731353" lon="11.12426399350026"><ele>633.5</ele><time>2026-04-25T08:54:33.002Z</time></trkpt><trkpt lat="45.5498567205995" lon="11.124386308943857"><ele>634.6666666666667</ele><time>2026-04-25T08:54:35.002Z</time></trkpt><trkpt lat="45.54988949818772" lon="11.124506402407484"><ele>635.8333333333334</ele><time>2026-04-25T08:54:38.002Z</time></trkpt><trkpt lat="45.549953898953866" lon="11.124495619590508"><ele>637.0</ele><time>2026-04-25T08:54:40.002Z</time></trkpt><trkpt lat="45.55001339697266" lon="11.124454194263475"><ele>637.0</ele><time>2026-04-25T08:54:41.002Z</time></trkpt><trkpt lat="45.550100810246306" lon="11.124344752642491"><ele>637.0</ele><time>2026-04-25T08:54:43.002Z</time></trkpt><trkpt lat="45.55017527055181" lon="11.12421825813396"><ele>637.0</ele><time>2026-04-25T08:54:45.002Z</time></trkpt><trkpt lat="45.55021882405641" lon="11.124133880848815"><ele>637.0</ele><time>2026-04-25T08:54:46.002Z</time></trkpt><trkpt lat="45.550256838779994" lon="11.124017704363593"><ele>637.0</ele><time>2026-04-25T08:54:47.003Z</time></trkpt><trkpt lat="45.55029224693438" lon="11.123908978473294"><ele>638.2</ele><time>2026-04-25T08:54:48.003Z</time></trkpt><trkpt lat="45.55032297208036" lon="11.12379985839203"><ele>639.4000000000001</ele><time>2026-04-25T08:54:49.003Z</time></trkpt><trkpt lat="45.55035997879401" lon="11.123695284323688"><ele>640.5999999999999</ele><time>2026-04-25T08:54:50.003Z</time></trkpt><trkpt lat="45.55053020152207" lon="11.123660865530686"><ele>641.8</ele><time>2026-04-25T08:54:51.003Z</time></trkpt><trkpt lat="45.550547702825924" lon="11.123536860978719"><ele>643.0</ele><time>2026-04-25T08:54:53.003Z</time></trkpt><trkpt lat="45.55057734695455" lon="11.123454281032142"><ele>646.0</ele><time>2026-04-25T08:54:55.003Z</time></trkpt><trkpt lat="45.55055539705678" lon="11.123553898011384"><ele>649.0</ele><time>2026-04-25T08:54:58.003Z</time></trkpt><trkpt lat="45.550516508104124" lon="11.123666757277094"><ele>652.0</ele><time>2026-04-25T08:54:59.003Z</time></trkpt><trkpt lat="45.55050493848176" lon="11.12382739926972"><ele>655.0</ele><time>2026-04-25T08:55:00.003Z</time></trkpt><trkpt lat="45.550496738709455" lon="11.123990115723188"><ele>658.0</ele><time>2026-04-25T08:55:01.003Z</time></trkpt><trkpt lat="45.550489073036616" lon="11.124147067939342"><ele>659.0</ele><time>2026-04-25T08:55:02.003Z</time></trkpt><trkpt lat="45.55048265387547" lon="11.124269888023568"><ele>660.0</ele><time>2026-04-25T08:55:03Z</time></trkpt><trkpt lat="45.55048089388476" lon="11.124406214294329"><ele>661.0</ele><time>2026-04-25T08:55:04Z</time></trkpt><trkpt lat="45.55047510249262" lon="11.124568635935644"><ele>662.0</ele><time>2026-04-25T08:55:05Z</time></trkpt><trkpt lat="45.55045038601267" lon="11.124734214987637"><ele>663.0</ele><time>2026-04-25T08:55:06Z</time></trkpt><trkpt lat="45.550448322732144" lon="11.124899988564179"><ele>663.2</ele><time>2026-04-25T08:55:07Z</time></trkpt><trkpt lat="45.55045414729801" lon="11.12505131622359"><ele>663.4</ele><time>2026-04-25T08:55:08Z</time></trkpt><trkpt lat="45.550467624105636" lon="11.125195681828906"><ele>663.6</ele><time>2026-04-25T08:55:09Z</time></trkpt><trkpt lat="45.55049647359419" lon="11.12533305888315"><ele>663.8000000000001</ele><time>2026-04-25T08:55:10Z</time></trkpt><trkpt lat="45.55051410796567" lon="11.125470045956574"><ele>664.0</ele><time>2026-04-25T08:55:11Z</time></trkpt><trkpt lat="45.55055858387415" lon="11.125605715354112"><ele>663.5</ele><time>2026-04-25T08:55:12Z</time></trkpt><trkpt lat="45.55057781286822" lon="11.125768547329514"><ele>663.0</ele><time>2026-04-25T08:55:13Z</time></trkpt><trkpt lat="45.55069252459447" lon="11.125936745622802"><ele>662.5</ele><time>2026-04-25T08:55:14Z</time></trkpt><trkpt lat="45.55073269304793" lon="11.126157916134188"><ele>662.0</ele><time>2026-04-25T08:55:15Z</time></trkpt><trkpt lat="45.55073848754272" lon="11.126349510090472"><ele>662.0</ele><time>2026-04-25T08:55:16Z</time></trkpt><trkpt lat="45.55069140980544" lon="11.126515308030722"><ele>662.0</ele><time>2026-04-25T08:55:17Z</time></trkpt><trkpt lat="45.55067425942322" lon="11.126650368106526"><ele>662.0</ele><time>2026-04-25T08:55:18Z</time></trkpt><trkpt lat="45.550675471826914" lon="11.126761210522373"><ele>662.0</ele><time>2026-04-25T08:55:19Z</time></trkpt><trkpt lat="45.550659283027585" lon="11.126854572654883"><ele>662.0</ele><time>2026-04-25T08:55:20Z</time></trkpt><trkpt lat="45.55063133733814" lon="11.126954859401424"><ele>662.0</ele><time>2026-04-25T08:55:21Z</time></trkpt><trkpt lat="45.550616451010775" lon="11.12706046370319"><ele>661.5</ele><time>2026-04-25T08:55:22Z</time></trkpt><trkpt lat="45.550653531183436" lon="11.127182775908343"><ele>661.0</ele><time>2026-04-25T08:55:23Z</time></trkpt><trkpt lat="45.550693446375824" lon="11.127302187945384"><ele>660.5</ele><time>2026-04-25T08:55:24Z</time></trkpt><trkpt lat="45.550735354681166" lon="11.127397141282533"><ele>660.0</ele><time>2026-04-25T08:55:25Z</time></trkpt><trkpt lat="45.55077245241432" lon="11.127482621521573"><ele>659.5</ele><time>2026-04-25T08:55:26Z</time></trkpt><trkpt lat="45.55085725588019" lon="11.127580553180046"><ele>659.0</ele><time>2026-04-25T08:55:28Z</time></trkpt><trkpt lat="45.55093306202632" lon="11.127559634480784"><ele>659.0</ele><time>2026-04-25T08:55:29.001Z</time></trkpt><trkpt lat="45.55100482330952" lon="11.127479007828935"><ele>659.0</ele><time>2026-04-25T08:55:30.001Z</time></trkpt><trkpt lat="45.55107901905769" lon="11.127387077717696"><ele>659.0</ele><time>2026-04-25T08:55:32.001Z</time></trkpt><trkpt lat="45.55114842323116" lon="11.127409722406307"><ele>659.0</ele><time>2026-04-25T08:55:35.001Z</time></trkpt><trkpt lat="45.5512377685554" lon="11.127513842113691"><ele>659.0</ele><time>2026-04-25T08:55:37.001Z</time></trkpt><trkpt lat="45.55131296451808" lon="11.127624796602793"><ele>654.4000000000001</ele><time>2026-04-25T08:55:39.001Z</time></trkpt><trkpt lat="45.55132497808879" lon="11.127781625325408"><ele>649.8000000000001</ele><time>2026-04-25T08:55:41.001Z</time></trkpt><trkpt lat="45.55132428294613" lon="11.127903306499979"><ele>645.2</ele><time>2026-04-25T08:55:42.001Z</time></trkpt><trkpt lat="45.5513262950917" lon="11.128047071020314"><ele>640.6</ele><time>2026-04-25T08:55:43.001Z</time></trkpt><trkpt lat="45.55133497843511" lon="11.128187156857196"><ele>636.0</ele><time>2026-04-25T08:55:44.001Z</time></trkpt><trkpt lat="45.55133629818706" lon="11.128347109658653"><ele>633.8</ele><time>2026-04-25T08:55:45.001Z</time></trkpt><trkpt lat="45.55135099497363" lon="11.128492575372972"><ele>631.6</ele><time>2026-04-25T08:55:46.001Z</time></trkpt><trkpt lat="45.55136198835149" lon="11.128609594534003"><ele>629.4</ele><time>2026-04-25T08:55:47.001Z</time></trkpt><trkpt lat="45.55136672883931" lon="11.128740469210532"><ele>627.2</ele><time>2026-04-25T08:55:49.001Z</time></trkpt><trkpt lat="45.5513733545995" lon="11.128874799180926"><ele>625.0</ele><time>2026-04-25T08:55:51.001Z</time></trkpt><trkpt lat="45.55146781354693" lon="11.128881401495088"><ele>625.0</ele><time>2026-04-25T08:55:54.001Z</time></trkpt><trkpt lat="45.551513468140975" lon="11.12881865100934"><ele>625.0</ele><time>2026-04-25T08:55:55.001Z</time></trkpt><trkpt lat="45.55157936127721" lon="11.128724184101976"><ele>625.0</ele><time>2026-04-25T08:55:56.001Z</time></trkpt><trkpt lat="45.55163704676314" lon="11.12867684009812"><ele>625.0</ele><time>2026-04-25T08:55:57.001Z</time></trkpt><trkpt lat="45.551718684335505" lon="11.128570761498782"><ele>625.0</ele><time>2026-04-25T08:55:59.001Z</time></trkpt><trkpt lat="45.55178401115114" lon="11.128505520833555"><ele>625.0</ele><time>2026-04-25T08:56:01.001Z</time></trkpt><trkpt lat="45.551844145946895" lon="11.128449560938588"><ele>625.0</ele><time>2026-04-25T08:56:02.001Z</time></trkpt><trkpt lat="45.551896922633105" lon="11.12836070898058"><ele>625.0</ele><time>2026-04-25T08:56:03.001Z</time></trkpt><trkpt lat="45.551944740937245" lon="11.12826946925838"><ele>625.0</ele><time>2026-04-25T08:56:04.001Z</time></trkpt><trkpt lat="45.55200761589309" lon="11.128248336937634"><ele>625.0</ele><time>2026-04-25T08:56:05.002Z</time></trkpt><trkpt lat="45.552082825962515" lon="11.128285397082209"><ele>625.0</ele><time>2026-04-25T08:56:06.002Z</time></trkpt><trkpt lat="45.552184182698596" lon="11.12835167605582"><ele>625.0</ele><time>2026-04-25T08:56:07.002Z</time></trkpt><trkpt lat="45.55229693723731" lon="11.128409624306697"><ele>625.2</ele><time>2026-04-25T08:56:08.002Z</time></trkpt><trkpt lat="45.55242312633801" lon="11.128473618118315"><ele>625.4</ele><time>2026-04-25T08:56:09.002Z</time></trkpt><trkpt lat="45.55254636379567" lon="11.128542047262385"><ele>625.6</ele><time>2026-04-25T08:56:10.002Z</time></trkpt><trkpt lat="45.55264257218252" lon="11.128574509505608"><ele>625.8</ele><time>2026-04-25T08:56:11.002Z</time></trkpt><trkpt lat="45.55272601220527" lon="11.128585683451792"><ele>626.0</ele><time>2026-04-25T08:56:12.002Z</time></trkpt><trkpt lat="45.55279757587115" lon="11.12859805293136"><ele>628.2</ele><time>2026-04-25T08:56:13.002Z</time></trkpt><trkpt lat="45.55288956704264" lon="11.128610192350692"><ele>630.4000000000001</ele><time>2026-04-25T08:56:14.002Z</time></trkpt><trkpt lat="45.553005565996564" lon="11.128609724436819"><ele>632.6</ele><time>2026-04-25T08:56:15.002Z</time></trkpt><trkpt lat="45.55309430422397" lon="11.128604660222937"><ele>634.8000000000001</ele><time>2026-04-25T08:56:16.002Z</time></trkpt><trkpt lat="45.55316116033559" lon="11.128709179512162"><ele>637.0</ele><time>2026-04-25T08:56:18.002Z</time></trkpt><trkpt lat="45.55314491887703" lon="11.128824512513876"><ele>637.0</ele><time>2026-04-25T08:56:19.002Z</time></trkpt><trkpt lat="45.55310533236748" lon="11.128936689161526"><ele>637.0</ele><time>2026-04-25T08:56:20.002Z</time></trkpt><trkpt lat="45.55311130231524" lon="11.12905635752676"><ele>637.0</ele><time>2026-04-25T08:56:21.002Z</time></trkpt><trkpt lat="45.5531632920826" lon="11.12919202206609"><ele>637.0</ele><time>2026-04-25T08:56:22.002Z</time></trkpt><trkpt lat="45.55320377831816" lon="11.129302769802223"><ele>637.0</ele><time>2026-04-25T08:56:23.002Z</time></trkpt><trkpt lat="45.55318404794314" lon="11.129407734900996"><ele>637.0</ele><time>2026-04-25T08:56:24.002Z</time></trkpt><trkpt lat="45.553117528257395" lon="11.12950459268365"><ele>636.8333333333334</ele><time>2026-04-25T08:56:25.002Z</time></trkpt><trkpt lat="45.553044768539216" lon="11.129597567453441"><ele>636.6666666666667</ele><time>2026-04-25T08:56:26.002Z</time></trkpt><trkpt lat="45.55301423844717" lon="11.129709895041751"><ele>636.5</ele><time>2026-04-25T08:56:27.002Z</time></trkpt><trkpt lat="45.55302432585447" lon="11.12982806769565"><ele>636.3333333333334</ele><time>2026-04-25T08:56:28.002Z</time></trkpt><trkpt lat="45.55303712916024" lon="11.129925197819244"><ele>636.1666666666666</ele><time>2026-04-25T08:56:29.002Z</time></trkpt><trkpt lat="45.55307271228901" lon="11.13002188957396"><ele>636.0</ele><time>2026-04-25T08:56:30.002Z</time></trkpt><trkpt lat="45.55311798563599" lon="11.130107503937598"><ele>637.0</ele><time>2026-04-25T08:56:31.002Z</time></trkpt><trkpt lat="45.553143622695366" lon="11.130196010590078"><ele>638.0</ele><time>2026-04-25T08:56:32.002Z</time></trkpt><trkpt lat="45.5530888565676" lon="11.130345908397915"><ele>639.0</ele><time>2026-04-25T08:56:34.002Z</time></trkpt><trkpt lat="45.552982830021215" lon="11.130437291823872"><ele>640.0</ele><time>2026-04-25T08:56:36.002Z</time></trkpt><trkpt lat="45.55295369171068" lon="11.130547094762674"><ele>641.0</ele><time>2026-04-25T08:56:37.002Z</time></trkpt><trkpt lat="45.552952834116795" lon="11.130667854046681"><ele>643.4</ele><time>2026-04-25T08:56:38.002Z</time></trkpt><trkpt lat="45.55294133548721" lon="11.130824122117858"><ele>645.8</ele><time>2026-04-25T08:56:39.002Z</time></trkpt><trkpt lat="45.55294909256345" lon="11.13096228726813"><ele>648.1999999999999</ele><time>2026-04-25T08:56:40.003Z</time></trkpt><trkpt lat="45.55297072871583" lon="11.131098761412426"><ele>650.5999999999999</ele><time>2026-04-25T08:56:41.003Z</time></trkpt><trkpt lat="45.5529613701223" lon="11.131229772342353"><ele>653.0</ele><time>2026-04-25T08:56:42.003Z</time></trkpt><trkpt lat="45.55298144283118" lon="11.131331915156236"><ele>653.0</ele><time>2026-04-25T08:56:43.003Z</time></trkpt><trkpt lat="45.553032380964865" lon="11.131414137592081"><ele>653.0</ele><time>2026-04-25T08:56:44.003Z</time></trkpt><trkpt lat="45.55307364629833" lon="11.131505840796942"><ele>653.0</ele><time>2026-04-25T08:56:45.003Z</time></trkpt><trkpt lat="45.55312379800433" lon="11.131593248818657"><ele>653.0</ele><time>2026-04-25T08:56:46.003Z</time></trkpt><trkpt lat="45.553185044158795" lon="11.131654161475746"><ele>653.0</ele><time>2026-04-25T08:56:47.003Z</time></trkpt><trkpt lat="45.553244189666174" lon="11.131711552001175"><ele>653.0</ele><time>2026-04-25T08:56:48.003Z</time></trkpt><trkpt lat="45.55333020221456" lon="11.131755724220412"><ele>653.0</ele><time>2026-04-25T08:56:49.003Z</time></trkpt><trkpt lat="45.55343381841986" lon="11.131682676510886"><ele>653.0</ele><time>2026-04-25T08:56:51.003Z</time></trkpt><trkpt lat="45.55353274965711" lon="11.131591121223451"><ele>653.0</ele><time>2026-04-25T08:56:53.003Z</time></trkpt><trkpt lat="45.55357045572578" lon="11.131509483277569"><ele>653.0</ele><time>2026-04-25T08:56:54.003Z</time></trkpt><trkpt lat="45.55362675013199" lon="11.131424211211234"><ele>653.0</ele><time>2026-04-25T08:56:55.003Z</time></trkpt><trkpt lat="45.55369523873748" lon="11.131366801682713"><ele>656.5</ele><time>2026-04-25T08:56:56.003Z</time></trkpt><trkpt lat="45.55376195833572" lon="11.131327675713841"><ele>660.0</ele><time>2026-04-25T08:56:57.003Z</time></trkpt><trkpt lat="45.55385126827839" lon="11.131330686509674"><ele>663.5</ele><time>2026-04-25T08:56:58.003Z</time></trkpt><trkpt lat="45.553943859507385" lon="11.131358450321278"><ele>667.0</ele><time>2026-04-25T08:56:59.003Z</time></trkpt><trkpt lat="45.554030797743614" lon="11.131366728765395"><ele>670.5</ele><time>2026-04-25T08:57:00.003Z</time></trkpt><trkpt lat="45.55408996383582" lon="11.131325687085328"><ele>674.0</ele><time>2026-04-25T08:57:01.003Z</time></trkpt><trkpt lat="45.55417189498171" lon="11.131259328300928"><ele>674.0</ele><time>2026-04-25T08:57:02.003Z</time></trkpt><trkpt lat="45.55424789499474" lon="11.1311969416935"><ele>674.0</ele><time>2026-04-25T08:57:03.003Z</time></trkpt><trkpt lat="45.55432733068531" lon="11.131164389634986"><ele>674.0</ele><time>2026-04-25T08:57:04.003Z</time></trkpt><trkpt lat="45.55441023995811" lon="11.131168315828967"><ele>674.0</ele><time>2026-04-25T08:57:05.003Z</time></trkpt><trkpt lat="45.55451595628752" lon="11.131166772615146"><ele>674.0</ele><time>2026-04-25T08:57:06.003Z</time></trkpt><trkpt lat="45.55461477550511" lon="11.131174480325267"><ele>675.8333333333333</ele><time>2026-04-25T08:57:07.003Z</time></trkpt><trkpt lat="45.55469354194362" lon="11.131188026802176"><ele>677.6666666666666</ele><time>2026-04-25T08:57:08.003Z</time></trkpt><trkpt lat="45.55477215668659" lon="11.131213983812792"><ele>679.5</ele><time>2026-04-25T08:57:09.001Z</time></trkpt><trkpt lat="45.554842101824484" lon="11.13126761378651"><ele>681.3333333333334</ele><time>2026-04-25T08:57:10.001Z</time></trkpt><trkpt lat="45.554925039669484" lon="11.13128678184336"><ele>683.1666666666667</ele><time>2026-04-25T08:57:11.001Z</time></trkpt><trkpt lat="45.55502924925319" lon="11.131241444753664"><ele>685.0</ele><time>2026-04-25T08:57:12.001Z</time></trkpt><trkpt lat="45.55513180067684" lon="11.131174121470226"><ele>685.0</ele><time>2026-04-25T08:57:13.001Z</time></trkpt><trkpt lat="45.55527180161208" lon="11.131101412346677"><ele>685.0</ele><time>2026-04-25T08:57:14.001Z</time></trkpt><trkpt lat="45.555381422514166" lon="11.131036264108053"><ele>685.0</ele><time>2026-04-25T08:57:15.001Z</time></trkpt><trkpt lat="45.5554651353436" lon="11.130976146699158"><ele>685.0</ele><time>2026-04-25T08:57:16.001Z</time></trkpt><trkpt lat="45.55553850637481" lon="11.13088963650673"><ele>687.6</ele><time>2026-04-25T08:57:17.001Z</time></trkpt><trkpt lat="45.55560936493726" lon="11.130765891040612"><ele>690.2</ele><time>2026-04-25T08:57:18.001Z</time></trkpt><trkpt lat="45.555677219442934" lon="11.130643296849533"><ele>692.8</ele><time>2026-04-25T08:57:19.001Z</time></trkpt><trkpt lat="45.555743031903134" lon="11.130511805206929"><ele>695.4</ele><time>2026-04-25T08:57:20.001Z</time></trkpt><trkpt lat="45.55579429263047" lon="11.130407609497835"><ele>698.0</ele><time>2026-04-25T08:57:21.001Z</time></trkpt><trkpt lat="45.55584172529054" lon="11.130307990168626"><ele>699.1666666666666</ele><time>2026-04-25T08:57:22.001Z</time></trkpt><trkpt lat="45.555898085080315" lon="11.130244001349263"><ele>700.3333333333333</ele><time>2026-04-25T08:57:24.001Z</time></trkpt><trkpt lat="45.55601290408325" lon="11.130287710990242"><ele>701.5</ele><time>2026-04-25T08:57:29.001Z</time></trkpt><trkpt lat="45.55604305362447" lon="11.130375583258065"><ele>702.6666666666666</ele><time>2026-04-25T08:57:32.001Z</time></trkpt><trkpt lat="45.55607042166964" lon="11.130530282266005"><ele>703.8333333333334</ele><time>2026-04-25T08:57:34.001Z</time></trkpt><trkpt lat="45.55608478938323" lon="11.130624369188292"><ele>705.0</ele><time>2026-04-25T08:57:35.001Z</time></trkpt><trkpt lat="45.55609685492778" lon="11.130718703697434"><ele>703.9999999999999</ele><time>2026-04-25T08:57:36.001Z</time></trkpt><trkpt lat="45.55610371560015" lon="11.130810979841824"><ele>703.0</ele><time>2026-04-25T08:57:37.001Z</time></trkpt><trkpt lat="45.55611310129707" lon="11.130908297507876"><ele>702.0</ele><time>2026-04-25T08:57:38.001Z</time></trkpt><trkpt lat="45.556124999306014" lon="11.131003034832535"><ele>701.0</ele><time>2026-04-25T08:57:39.001Z</time></trkpt><trkpt lat="45.556120004131394" lon="11.131098207750101"><ele>700.0</ele><time>2026-04-25T08:57:40.001Z</time></trkpt><trkpt lat="45.55610795678807" lon="11.131208032175039"><ele>698.9999999999999</ele><time>2026-04-25T08:57:41.001Z</time></trkpt><trkpt lat="45.5560989269724" lon="11.13132465181614"><ele>698.0</ele><time>2026-04-25T08:57:42.001Z</time></trkpt><trkpt lat="45.55609677627502" lon="11.13142988595061"><ele>696.2</ele><time>2026-04-25T08:57:43.001Z</time></trkpt><trkpt lat="45.55606968811419" lon="11.131613383616731"><ele>694.4</ele><time>2026-04-25T08:57:45.001Z</time></trkpt><trkpt lat="45.556002472274216" lon="11.131735393382854"><ele>692.6</ele><time>2026-04-25T08:57:46.001Z</time></trkpt><trkpt lat="45.555966246399336" lon="11.131852997543453"><ele>690.8000000000001</ele><time>2026-04-25T08:57:47.001Z</time></trkpt><trkpt lat="45.555946296029234" lon="11.131987624403468"><ele>689.0</ele><time>2026-04-25T08:57:48.001Z</time></trkpt><trkpt lat="45.555928231840184" lon="11.132094431271915"><ele>689.0</ele><time>2026-04-25T08:57:49.001Z</time></trkpt><trkpt lat="45.55593152424365" lon="11.13220276820541"><ele>689.0</ele><time>2026-04-25T08:57:50.001Z</time></trkpt><trkpt lat="45.55593334353873" lon="11.132307700082253"><ele>689.0</ele><time>2026-04-25T08:57:51.001Z</time></trkpt><trkpt lat="45.55595875028655" lon="11.13241288431336"><ele>689.0</ele><time>2026-04-25T08:57:52.001Z</time></trkpt><trkpt lat="45.555943309902794" lon="11.132582454404849"><ele>689.0</ele><time>2026-04-25T08:57:54.001Z</time></trkpt><trkpt lat="45.55593445630114" lon="11.132709234137113"><ele>689.0</ele><time>2026-04-25T08:57:55.001Z</time></trkpt><trkpt lat="45.55591897665896" lon="11.132813257895549"><ele>687.6</ele><time>2026-04-25T08:57:56.001Z</time></trkpt><trkpt lat="45.55585126792771" lon="11.132906191524569"><ele>686.2</ele><time>2026-04-25T08:57:57.001Z</time></trkpt><trkpt lat="45.555896317081796" lon="11.132995456721005"><ele>684.8000000000001</ele><time>2026-04-25T08:57:59.002Z</time></trkpt><trkpt lat="45.55594005964641" lon="11.13308931491761"><ele>683.4000000000001</ele><time>2026-04-25T08:58:01.002Z</time></trkpt><trkpt lat="45.55592765784074" lon="11.133213262540538"><ele>682.0</ele><time>2026-04-25T08:58:03.002Z</time></trkpt><trkpt lat="45.55582677289423" lon="11.133304158972406"><ele>679.3333333333334</ele><time>2026-04-25T08:58:05.002Z</time></trkpt><trkpt lat="45.55579317373229" lon="11.13343759621217"><ele>676.6666666666667</ele><time>2026-04-25T08:58:07.002Z</time></trkpt><trkpt lat="45.555801525404696" lon="11.133574469798244"><ele>674.0</ele><time>2026-04-25T08:58:09.002Z</time></trkpt><trkpt lat="45.55583137357484" lon="11.133653864447979"><ele>671.3333333333334</ele><time>2026-04-25T08:58:10.002Z</time></trkpt><trkpt lat="45.555902418290664" lon="11.13377322500206"><ele>668.6666666666666</ele><time>2026-04-25T08:58:12.002Z</time></trkpt><trkpt lat="45.555946446476334" lon="11.133859325055786"><ele>666.0</ele><time>2026-04-25T08:58:13.002Z</time></trkpt><trkpt lat="45.55596933942572" lon="11.133977779528728"><ele>662.3333333333334</ele><time>2026-04-25T08:58:15.002Z</time></trkpt><trkpt lat="45.5559880484717" lon="11.134074063538968"><ele>658.6666666666666</ele><time>2026-04-25T08:58:17.002Z</time></trkpt><trkpt lat="45.556101080267496" lon="11.134088781824516"><ele>655.0</ele><time>2026-04-25T08:58:20.002Z</time></trkpt><trkpt lat="45.556164082890916" lon="11.134137320151108"><ele>651.3333333333333</ele><time>2026-04-25T08:58:22.002Z</time></trkpt><trkpt lat="45.55625930011922" lon="11.13406598052206"><ele>647.6666666666666</ele><time>2026-04-25T08:58:23.002Z</time></trkpt><trkpt lat="45.556334673066665" lon="11.134028210341953"><ele>644.0</ele><time>2026-04-25T08:58:24.002Z</time></trkpt><trkpt lat="45.556457319635065" lon="11.133962137694827"><ele>644.0</ele><time>2026-04-25T08:58:26.002Z</time></trkpt><trkpt lat="45.556547544549964" lon="11.133954673796262"><ele>644.0</ele><time>2026-04-25T08:58:27.002Z</time></trkpt><trkpt lat="45.556621780468426" lon="11.133939013880248"><ele>644.0</ele><time>2026-04-25T08:58:28.002Z</time></trkpt><trkpt lat="45.556658170099425" lon="11.134012480556382"><ele>644.0</ele><time>2026-04-25T08:58:30.002Z</time></trkpt><trkpt lat="45.55662622312065" lon="11.134160057342273"><ele>644.0</ele><time>2026-04-25T08:58:32.002Z</time></trkpt><trkpt lat="45.55657852512866" lon="11.134322006482483"><ele>639.75</ele><time>2026-04-25T08:58:34.002Z</time></trkpt><trkpt lat="45.55652403561483" lon="11.134381847314412"><ele>635.5</ele><time>2026-04-25T08:58:35.002Z</time></trkpt><trkpt lat="45.5564261189445" lon="11.134499918566492"><ele>631.25</ele><time>2026-04-25T08:58:37.002Z</time></trkpt><trkpt lat="45.55629244417232" lon="11.134637484094641"><ele>627.0</ele><time>2026-04-25T08:58:39.002Z</time></trkpt><trkpt lat="45.55622594446542" lon="11.13477667388044"><ele>626.5</ele><time>2026-04-25T08:58:40.003Z</time></trkpt><trkpt lat="45.55616099219825" lon="11.134864004867795"><ele>626.0</ele><time>2026-04-25T08:58:41.003Z</time></trkpt><trkpt lat="45.556098010103256" lon="11.134948309788074"><ele>625.5</ele><time>2026-04-25T08:58:42.003Z</time></trkpt><trkpt lat="45.55604189702183" lon="11.135019370397693"><ele>625.0</ele><time>2026-04-25T08:58:43.003Z</time></trkpt><trkpt lat="45.55599008027021" lon="11.135092449841526"><ele>624.5</ele><time>2026-04-25T08:58:45.003Z</time></trkpt><trkpt lat="45.55594976621346" lon="11.135215873828258"><ele>624.0</ele><time>2026-04-25T08:58:48.003Z</time></trkpt><trkpt lat="45.55589873485781" lon="11.135323672048365"><ele>624.0</ele><time>2026-04-25T08:58:50.003Z</time></trkpt><trkpt lat="45.55584599064092" lon="11.135397215712517"><ele>624.0</ele><time>2026-04-25T08:58:52.003Z</time></trkpt><trkpt lat="45.55577815765803" lon="11.135463458637982"><ele>624.0</ele><time>2026-04-25T08:58:55.003Z</time></trkpt><trkpt lat="45.555712839664544" lon="11.135481244131725"><ele>624.0</ele><time>2026-04-25T08:58:58.003Z</time></trkpt><trkpt lat="45.55562670756052" lon="11.135446932825934"><ele>624.0</ele><time>2026-04-25T08:59:02.003Z</time></trkpt><trkpt lat="45.55553305030434" lon="11.135457016715376"><ele>624.0</ele><time>2026-04-25T08:59:05.003Z</time></trkpt><trkpt lat="45.555443256568374" lon="11.135448129616313"><ele>625.1666666666666</ele><time>2026-04-25T08:59:08.003Z</time></trkpt><trkpt lat="45.55535766878416" lon="11.135481451507134"><ele>626.3333333333334</ele><time>2026-04-25T08:59:11.003Z</time></trkpt><trkpt lat="45.55532583277297" lon="11.135561527846122"><ele>627.5</ele><time>2026-04-25T08:59:15.002Z</time></trkpt><trkpt lat="45.555344783451936" lon="11.135665398195329"><ele>628.6666666666667</ele><time>2026-04-25T08:59:17.002Z</time></trkpt><trkpt lat="45.55530459007043" lon="11.135773797605072"><ele>629.8333333333334</ele><time>2026-04-25T08:59:21.002Z</time></trkpt><trkpt lat="45.55533456795793" lon="11.1358537900819"><ele>631.0</ele><time>2026-04-25T08:59:24.002Z</time></trkpt><trkpt lat="45.5553938355446" lon="11.135928191893502"><ele>624.8</ele><time>2026-04-25T08:59:45.001Z</time></trkpt><trkpt lat="45.55547054917694" lon="11.135960243435223"><ele>618.6</ele><time>2026-04-25T08:59:48.001Z</time></trkpt><trkpt lat="45.55554183972484" lon="11.13599958406559"><ele>612.4</ele><time>2026-04-25T08:59:49.001Z</time></trkpt><trkpt lat="45.555620699573474" lon="11.1360181208145"><ele>606.2</ele><time>2026-04-25T08:59:50.001Z</time></trkpt><trkpt lat="45.555738001746256" lon="11.136013370017611"><ele>600.0</ele><time>2026-04-25T08:59:52.001Z</time></trkpt><trkpt lat="45.55584360753796" lon="11.135985500417984"><ele>600.0</ele><time>2026-04-25T08:59:54.001Z</time></trkpt><trkpt lat="45.55593546475089" lon="11.135935315913056"><ele>600.0</ele><time>2026-04-25T08:59:55.001Z</time></trkpt><trkpt lat="45.55602657639215" lon="11.13589772220518"><ele>600.0</ele><time>2026-04-25T08:59:56.001Z</time></trkpt><trkpt lat="45.556089190926365" lon="11.135870367029218"><ele>600.0</ele><time>2026-04-25T08:59:57.001Z</time></trkpt><trkpt lat="45.55619800450144" lon="11.135809685840453"><ele>600.0</ele><time>2026-04-25T08:59:59.001Z</time></trkpt><trkpt lat="45.55626866053455" lon="11.13574309107532"><ele>601.0</ele><time>2026-04-25T09:00:00.001Z</time></trkpt><trkpt lat="45.5563327878979" lon="11.13569820251546"><ele>602.0</ele><time>2026-04-25T09:00:01.001Z</time></trkpt><trkpt lat="45.55640061353251" lon="11.135658677417952"><ele>603.0</ele><time>2026-04-25T09:00:02.001Z</time></trkpt><trkpt lat="45.55650554242787" lon="11.13552877102548"><ele>604.0</ele><time>2026-04-25T09:00:04.002Z</time></trkpt><trkpt lat="45.55658540064113" lon="11.13546349277586"><ele>605.0</ele><time>2026-04-25T09:00:06.002Z</time></trkpt><trkpt lat="45.55665150053854" lon="11.135424882857347"><ele>606.0</ele><time>2026-04-25T09:00:07.002Z</time></trkpt><trkpt lat="45.55672585953797" lon="11.135399893526182"><ele>606.0</ele><time>2026-04-25T09:00:08.002Z</time></trkpt><trkpt lat="45.556789733203445" lon="11.13536937224165"><ele>606.0</ele><time>2026-04-25T09:00:09.002Z</time></trkpt><trkpt lat="45.556855284002815" lon="11.135323300490926"><ele>606.0</ele><time>2026-04-25T09:00:10.002Z</time></trkpt><trkpt lat="45.55690657277158" lon="11.135269145324536"><ele>606.0</ele><time>2026-04-25T09:00:11.002Z</time></trkpt><trkpt lat="45.55696087663891" lon="11.135208883352842"><ele>606.0</ele><time>2026-04-25T09:00:12.002Z</time></trkpt><trkpt lat="45.55703489901845" lon="11.135172575927891"><ele>606.0</ele><time>2026-04-25T09:00:13.002Z</time></trkpt><trkpt lat="45.55710353049851" lon="11.135136870554074"><ele>606.0</ele><time>2026-04-25T09:00:14.002Z</time></trkpt><trkpt lat="45.55717966223791" lon="11.135133065160547"><ele>605.4</ele><time>2026-04-25T09:00:15.002Z</time></trkpt><trkpt lat="45.557260563869896" lon="11.135108001156658"><ele>604.8</ele><time>2026-04-25T09:00:16.002Z</time></trkpt><trkpt lat="45.55731472730098" lon="11.135048302195347"><ele>604.1999999999999</ele><time>2026-04-25T09:00:17.002Z</time></trkpt><trkpt lat="45.55739577895146" lon="11.13491960823987"><ele>603.6</ele><time>2026-04-25T09:00:19.002Z</time></trkpt><trkpt lat="45.5574666213157" lon="11.134811967381191"><ele>603.0</ele><time>2026-04-25T09:00:21.002Z</time></trkpt><trkpt lat="45.557619432723364" lon="11.134790367124936"><ele>601.6</ele><time>2026-04-25T09:00:24.002Z</time></trkpt><trkpt lat="45.55766353440034" lon="11.134934709467979"><ele>600.1999999999999</ele><time>2026-04-25T09:00:26.002Z</time></trkpt><trkpt lat="45.5576481025926" lon="11.135054374801456"><ele>598.8</ele><time>2026-04-25T09:00:28.002Z</time></trkpt><trkpt lat="45.55758908039528" lon="11.135147508773159"><ele>597.4</ele><time>2026-04-25T09:00:32.002Z</time></trkpt><trkpt lat="45.55758577267143" lon="11.135254757395286"><ele>596.0</ele><time>2026-04-25T09:00:34.002Z</time></trkpt><trkpt lat="45.55761961319408" lon="11.135375850393228"><ele>596.0</ele><time>2026-04-25T09:00:36.002Z</time></trkpt><trkpt lat="45.55762128080166" lon="11.135518986045437"><ele>596.0</ele><time>2026-04-25T09:00:38.002Z</time></trkpt><trkpt lat="45.55760374567475" lon="11.135678723945555"><ele>596.0</ele><time>2026-04-25T09:00:40.002Z</time></trkpt><trkpt lat="45.55761381649755" lon="11.13577442133638"><ele>596.0</ele><time>2026-04-25T09:00:41.002Z</time></trkpt><trkpt lat="45.55766713676971" lon="11.135942770515436"><ele>596.0</ele><time>2026-04-25T09:00:44.002Z</time></trkpt><trkpt lat="45.55767877043512" lon="11.136044998031958"><ele>597.0</ele><time>2026-04-25T09:00:45.002Z</time></trkpt><trkpt lat="45.55770165725835" lon="11.136151968053062"><ele>598.0</ele><time>2026-04-25T09:00:47.002Z</time></trkpt><trkpt lat="45.55770364727723" lon="11.136268148322843"><ele>599.0</ele><time>2026-04-25T09:00:49.002Z</time></trkpt><trkpt lat="45.55778192048344" lon="11.136191985718115"><ele>600.0</ele><time>2026-04-25T09:00:54.003Z</time></trkpt><trkpt lat="45.557842394239856" lon="11.136238108445301"><ele>601.0</ele><time>2026-04-25T09:00:56.003Z</time></trkpt><trkpt lat="45.557885238071634" lon="11.13637133577447"><ele>602.0</ele><time>2026-04-25T09:00:59.003Z</time></trkpt><trkpt lat="45.557930106245216" lon="11.13644910851202"><ele>603.5</ele><time>2026-04-25T09:01:03.003Z</time></trkpt><trkpt lat="45.557962608489035" lon="11.136543404102587"><ele>605.0</ele><time>2026-04-25T09:01:05.003Z</time></trkpt><trkpt lat="45.55797589679664" lon="11.136638596393125"><ele>606.5</ele><time>2026-04-25T09:01:09.003Z</time></trkpt><trkpt lat="45.55794440269188" lon="11.136721751435228"><ele>608.0</ele><time>2026-04-25T09:01:12.003Z</time></trkpt><trkpt lat="45.55783541808604" lon="11.136727012731491"><ele>609.5</ele><time>2026-04-25T09:01:14.003Z</time></trkpt><trkpt lat="45.557762659262316" lon="11.136737653750505"><ele>611.0</ele><time>2026-04-25T09:01:19.003Z</time></trkpt><trkpt lat="45.557717546306996" lon="11.13683054652502"><ele>611.0</ele><time>2026-04-25T09:01:22.002Z</time></trkpt><trkpt lat="45.55766407239719" lon="11.136936569893889"><ele>611.0</ele><time>2026-04-25T09:01:25.002Z</time></trkpt><trkpt lat="45.5576108497666" lon="11.137042050450692"><ele>611.0</ele><time>2026-04-25T09:01:28.002Z</time></trkpt><trkpt lat="45.55758889728647" lon="11.137152183939051"><ele>611.0</ele><time>2026-04-25T09:01:31.002Z</time></trkpt><trkpt lat="45.557583494475644" lon="11.13724800278926"><ele>611.0</ele><time>2026-04-25T09:01:33.002Z</time></trkpt><trkpt lat="45.55755937631876" lon="11.137346924828234"><ele>611.0</ele><time>2026-04-25T09:01:36.001Z</time></trkpt><trkpt lat="45.557544530026775" lon="11.137440106153939"><ele>613.3333333333333</ele><time>2026-04-25T09:01:39.001Z</time></trkpt><trkpt lat="45.55749435120385" lon="11.137568281099199"><ele>615.6666666666666</ele><time>2026-04-25T09:01:43.001Z</time></trkpt><trkpt lat="45.55747598416606" lon="11.137660455819614"><ele>618.0</ele><time>2026-04-25T09:01:46.001Z</time></trkpt><trkpt lat="45.55744539095519" lon="11.137767681620726"><ele>620.3333333333334</ele><time>2026-04-25T09:01:48.001Z</time></trkpt><trkpt lat="45.557429442141746" lon="11.137865146679953"><ele>622.6666666666667</ele><time>2026-04-25T09:01:50.001Z</time></trkpt><trkpt lat="45.55740388243188" lon="11.137975722489255"><ele>625.0</ele><time>2026-04-25T09:01:52.001Z</time></trkpt><trkpt lat="45.55737090109232" lon="11.138073873827524"><ele>626.0</ele><time>2026-04-25T09:01:55.001Z</time></trkpt><trkpt lat="45.55735036558785" lon="11.138226654717116"><ele>627.0</ele><time>2026-04-25T09:01:57.001Z</time></trkpt><trkpt lat="45.55735394097251" lon="11.138353240330561"><ele>628.0</ele><time>2026-04-25T09:01:58.001Z</time></trkpt><trkpt lat="45.5573334412488" lon="11.13846727080998"><ele>629.0</ele><time>2026-04-25T09:01:59.001Z</time></trkpt><trkpt lat="45.55732107829025" lon="11.13856130062624"><ele>630.0</ele><time>2026-04-25T09:02:00.001Z</time></trkpt><trkpt lat="45.55732824712166" lon="11.138709476108895"><ele>630.0</ele><time>2026-04-25T09:02:02.001Z</time></trkpt><trkpt lat="45.55731728043695" lon="11.138838593441239"><ele>630.0</ele><time>2026-04-25T09:02:03.001Z</time></trkpt><trkpt lat="45.55730752098777" lon="11.138947757490557"><ele>630.0</ele><time>2026-04-25T09:02:04.001Z</time></trkpt><trkpt lat="45.557298036888284" lon="11.139107982758592"><ele>630.0</ele><time>2026-04-25T09:02:06.001Z</time></trkpt><trkpt lat="45.55731880485342" lon="11.139199708932303"><ele>630.0</ele><time>2026-04-25T09:02:07.001Z</time></trkpt><trkpt lat="45.557445272121036" lon="11.139567973280217"><ele>629.8333333333334</ele><time>2026-04-25T09:02:10.001Z</time></trkpt><trkpt lat="45.5574776086006" lon="11.139658786318584"><ele>629.6666666666666</ele><time>2026-04-25T09:02:12.001Z</time></trkpt><trkpt lat="45.55746765881337" lon="11.139538343976044"><ele>629.5</ele><time>2026-04-25T09:02:13.001Z</time></trkpt><trkpt lat="45.55753694694644" lon="11.139526304186289"><ele>629.3333333333333</ele><time>2026-04-25T09:04:01.001Z</time></trkpt><trkpt lat="45.5575896588886" lon="11.139466084367273"><ele>629.1666666666666</ele><time>2026-04-25T09:04:02.001Z</time></trkpt><trkpt lat="45.55765228834892" lon="11.13938639785892"><ele>629.0</ele><time>2026-04-25T09:04:03.001Z</time></trkpt><trkpt lat="45.557712751200654" lon="11.139311782127608"><ele>629.0</ele><time>2026-04-25T09:04:04.001Z</time></trkpt><trkpt lat="45.55775226607729" lon="11.139235607732354"><ele>629.0</ele><time>2026-04-25T09:04:05.001Z</time></trkpt><trkpt lat="45.55779225102025" lon="11.139150231393904"><ele>629.0</ele><time>2026-04-25T09:04:06.001Z</time></trkpt><trkpt lat="45.55783110776978" lon="11.139074534937821"><ele>629.0</ele><time>2026-04-25T09:04:07.001Z</time></trkpt><trkpt lat="45.55790930084768" lon="11.138951235761711"><ele>629.0</ele><time>2026-04-25T09:04:09.001Z</time></trkpt><trkpt lat="45.55787124263482" lon="11.138830190808262"><ele>629.0</ele><time>2026-04-25T09:04:11.001Z</time></trkpt><trkpt lat="45.557925512185456" lon="11.13868600959675"><ele>633.3333333333333</ele><time>2026-04-25T09:04:14.001Z</time></trkpt><trkpt lat="45.557993695081635" lon="11.138626327908622"><ele>637.6666666666666</ele><time>2026-04-25T09:04:15.001Z</time></trkpt><trkpt lat="45.55806381970572" lon="11.138543729184642"><ele>642.0</ele><time>2026-04-25T09:04:16.001Z</time></trkpt><trkpt lat="45.558114156769" lon="11.13847481929576"><ele>646.3333333333334</ele><time>2026-04-25T09:04:17.001Z</time></trkpt><trkpt lat="45.558207362331586" lon="11.138432938548199"><ele>650.6666666666667</ele><time>2026-04-25T09:04:19.001Z</time></trkpt><trkpt lat="45.55826933692466" lon="11.138458084784432"><ele>655.0</ele><time>2026-04-25T09:04:20.001Z</time></trkpt><trkpt lat="45.55833261742115" lon="11.13848300957558"><ele>655.0</ele><time>2026-04-25T09:04:21.001Z</time></trkpt><trkpt lat="45.55843634262624" lon="11.138460844145035"><ele>655.0</ele><time>2026-04-25T09:04:23.001Z</time></trkpt><trkpt lat="45.55856811056929" lon="11.138329608733383"><ele>655.0</ele><time>2026-04-25T09:04:25.001Z</time></trkpt><trkpt lat="45.558642667903555" lon="11.138280596986652"><ele>655.0</ele><time>2026-04-25T09:04:26.001Z</time></trkpt><trkpt lat="45.558738131882485" lon="11.13823258471459"><ele>655.0</ele><time>2026-04-25T09:04:27.001Z</time></trkpt><trkpt lat="45.55882207668008" lon="11.138181874105467"><ele>657.1666666666667</ele><time>2026-04-25T09:04:28.001Z</time></trkpt><trkpt lat="45.558888087715886" lon="11.138131936886024"><ele>659.3333333333334</ele><time>2026-04-25T09:04:29.001Z</time></trkpt><trkpt lat="45.55894767650875" lon="11.13807453816486"><ele>661.5</ele><time>2026-04-25T09:04:30.001Z</time></trkpt><trkpt lat="45.55902182186915" lon="11.137966054242339"><ele>663.6666666666666</ele><time>2026-04-25T09:04:31.001Z</time></trkpt><trkpt lat="45.5591085693692" lon="11.137914446587672"><ele>665.8333333333333</ele><time>2026-04-25T09:04:32.001Z</time></trkpt><trkpt lat="45.55918732590122" lon="11.137840105716851"><ele>668.0</ele><time>2026-04-25T09:04:33.001Z</time></trkpt><trkpt lat="45.55925899795861" lon="11.13777842732085"><ele>668.0</ele><time>2026-04-25T09:04:34.001Z</time></trkpt><trkpt lat="45.55930567613784" lon="11.137702619730918"><ele>668.0</ele><time>2026-04-25T09:04:35.001Z</time></trkpt><trkpt lat="45.55934977616033" lon="11.137532112787337"><ele>668.0</ele><time>2026-04-25T09:04:37.001Z</time></trkpt><trkpt lat="45.55938599718988" lon="11.137380415005632"><ele>668.0</ele><time>2026-04-25T09:04:38.001Z</time></trkpt><trkpt lat="45.5594140671141" lon="11.137238338052251"><ele>668.0</ele><time>2026-04-25T09:04:39.001Z</time></trkpt><trkpt lat="45.559449952789244" lon="11.137103753076529"><ele>669.4</ele><time>2026-04-25T09:04:40.001Z</time></trkpt><trkpt lat="45.55948850320089" lon="11.136985241769086"><ele>670.8</ele><time>2026-04-25T09:04:41.001Z</time></trkpt><trkpt lat="45.55952892433421" lon="11.136876879700012"><ele>672.2</ele><time>2026-04-25T09:04:42.001Z</time></trkpt><trkpt lat="45.559557886464944" lon="11.136766242377728"><ele>673.6</ele><time>2026-04-25T09:04:43.001Z</time></trkpt><trkpt lat="45.5595876196378" lon="11.136629366760745"><ele>675.0</ele><time>2026-04-25T09:04:44.001Z</time></trkpt><trkpt lat="45.55961871028116" lon="11.136501614925846"><ele>679.6</ele><time>2026-04-25T09:04:45.001Z</time></trkpt><trkpt lat="45.55965358159912" lon="11.136362670406378"><ele>684.2</ele><time>2026-04-25T09:04:46.002Z</time></trkpt><trkpt lat="45.55969890608917" lon="11.13624419416198"><ele>688.8</ele><time>2026-04-25T09:04:47.002Z</time></trkpt><trkpt lat="45.559736230839576" lon="11.136137378631021"><ele>693.4</ele><time>2026-04-25T09:04:48.002Z</time></trkpt><trkpt lat="45.55977147084533" lon="11.136059027611983"><ele>698.0</ele><time>2026-04-25T09:04:49.002Z</time></trkpt><trkpt lat="45.55987322589735" lon="11.136000933365263"><ele>698.0</ele><time>2026-04-25T09:04:51.002Z</time></trkpt><trkpt lat="45.55999359192672" lon="11.135993206603484"><ele>698.0</ele><time>2026-04-25T09:04:53.002Z</time></trkpt><trkpt lat="45.5601014727157" lon="11.136015376830851"><ele>698.0</ele><time>2026-04-25T09:04:54.002Z</time></trkpt><trkpt lat="45.5601784954989" lon="11.136042830242282"><ele>698.0</ele><time>2026-04-25T09:04:55.002Z</time></trkpt><trkpt lat="45.56029538996877" lon="11.136065534195573"><ele>698.0</ele><time>2026-04-25T09:04:56.002Z</time></trkpt><trkpt lat="45.560398061552355" lon="11.136091160721353"><ele>700.2</ele><time>2026-04-25T09:04:57.002Z</time></trkpt><trkpt lat="45.56048368630687" lon="11.13611437909138"><ele>702.4</ele><time>2026-04-25T09:04:58.002Z</time></trkpt><trkpt lat="45.56058054660886" lon="11.136142597289174"><ele>704.6</ele><time>2026-04-25T09:04:59.002Z</time></trkpt><trkpt lat="45.56065837053614" lon="11.136160913722074"><ele>706.8000000000001</ele><time>2026-04-25T09:05:00.002Z</time></trkpt><trkpt lat="45.56075488140407" lon="11.136159729558804"><ele>709.0</ele><time>2026-04-25T09:05:02.002Z</time></trkpt><trkpt lat="45.56083582396377" lon="11.136107500017385"><ele>709.0</ele><time>2026-04-25T09:05:03.002Z</time></trkpt><trkpt lat="45.56093922508846" lon="11.13605741873147"><ele>709.0</ele><time>2026-04-25T09:05:04.002Z</time></trkpt><trkpt lat="45.56102231176878" lon="11.136015974480392"><ele>709.0</ele><time>2026-04-25T09:05:05.002Z</time></trkpt><trkpt lat="45.56110507714112" lon="11.135996950056443"><ele>709.0</ele><time>2026-04-25T09:05:06.002Z</time></trkpt><trkpt lat="45.561218981740474" lon="11.13596484246611"><ele>709.0</ele><time>2026-04-25T09:05:08.002Z</time></trkpt><trkpt lat="45.56126963933162" lon="11.13589135125331"><ele>709.0</ele><time>2026-04-25T09:05:09.002Z</time></trkpt><trkpt lat="45.561332341304215" lon="11.13582914895691"><ele>709.0</ele><time>2026-04-25T09:05:10.002Z</time></trkpt><trkpt lat="45.56141274976435" lon="11.13580452060051"><ele>709.0</ele><time>2026-04-25T09:05:11.002Z</time></trkpt><trkpt lat="45.56149105249601" lon="11.135801156052228"><ele>709.0</ele><time>2026-04-25T09:05:12.002Z</time></trkpt><trkpt lat="45.561568790858445" lon="11.13578225130425"><ele>709.0</ele><time>2026-04-25T09:05:13.002Z</time></trkpt><trkpt lat="45.561620619441975" lon="11.135723297037599"><ele>709.0</ele><time>2026-04-25T09:05:14.002Z</time></trkpt><trkpt lat="45.56163211255817" lon="11.135573067213615"><ele>709.0</ele><time>2026-04-25T09:05:16.002Z</time></trkpt><trkpt lat="45.56164077325129" lon="11.135462737390684"><ele>709.0</ele><time>2026-04-25T09:05:18.002Z</time></trkpt><trkpt lat="45.56169541135883" lon="11.13557666470442"><ele>709.0</ele><time>2026-04-25T09:05:23.002Z</time></trkpt><trkpt lat="45.56173135088023" lon="11.135711125183114"><ele>709.0</ele><time>2026-04-25T09:05:25.002Z</time></trkpt><trkpt lat="45.56176101048864" lon="11.135850535392652"><ele>709.0</ele><time>2026-04-25T09:05:27.002Z</time></trkpt><trkpt lat="45.561804179578324" lon="11.135917544914406"><ele>709.0</ele><time>2026-04-25T09:05:28.002Z</time></trkpt><trkpt lat="45.56184899379266" lon="11.135985612390048"><ele>709.0</ele><time>2026-04-25T09:05:29.002Z</time></trkpt><trkpt lat="45.561943045848146" lon="11.136132630975592"><ele>709.0</ele><time>2026-04-25T09:05:31.002Z</time></trkpt><trkpt lat="45.5619920562045" lon="11.136223045390524"><ele>709.0</ele><time>2026-04-25T09:05:32.002Z</time></trkpt><trkpt lat="45.562049029187236" lon="11.13635750711648"><ele>709.0</ele><time>2026-04-25T09:05:33.002Z</time></trkpt><trkpt lat="45.56208057142673" lon="11.136456111003204"><ele>709.0</ele><time>2026-04-25T09:05:34.002Z</time></trkpt><trkpt lat="45.562103755722816" lon="11.136560951425302"><ele>705.5</ele><time>2026-04-25T09:05:35.002Z</time></trkpt><trkpt lat="45.56213888316968" lon="11.136687132396416"><ele>702.0</ele><time>2026-04-25T09:05:36.002Z</time></trkpt><trkpt lat="45.56217809140886" lon="11.136792380769844"><ele>698.5</ele><time>2026-04-25T09:05:37.002Z</time></trkpt><trkpt lat="45.56222500184074" lon="11.136891664695812"><ele>695.0</ele><time>2026-04-25T09:05:38.002Z</time></trkpt><trkpt lat="45.562267184575134" lon="11.136987836991372"><ele>691.5</ele><time>2026-04-25T09:05:39.002Z</time></trkpt><trkpt lat="45.56230950324234" lon="11.137062482970657"><ele>688.0</ele><time>2026-04-25T09:05:40.002Z</time></trkpt><trkpt lat="45.5623589835254" lon="11.137157174342281"><ele>688.0</ele><time>2026-04-25T09:05:41.002Z</time></trkpt><trkpt lat="45.56241713642827" lon="11.137254591148011"><ele>688.0</ele><time>2026-04-25T09:05:42.002Z</time></trkpt><trkpt lat="45.562467623269015" lon="11.1373555986537"><ele>688.0</ele><time>2026-04-25T09:05:43.001Z</time></trkpt><trkpt lat="45.562516056236184" lon="11.137475264092226"><ele>688.0</ele><time>2026-04-25T09:05:44.001Z</time></trkpt><trkpt lat="45.56258565042157" lon="11.137606386092989"><ele>688.0</ele><time>2026-04-25T09:05:45.001Z</time></trkpt><trkpt lat="45.56265905353198" lon="11.13775223137481"><ele>686.25</ele><time>2026-04-25T09:05:46.001Z</time></trkpt><trkpt lat="45.5627444904231" lon="11.137890567220138"><ele>684.5</ele><time>2026-04-25T09:05:47.001Z</time></trkpt><trkpt lat="45.56282752992376" lon="11.138067625966002"><ele>682.75</ele><time>2026-04-25T09:05:48.001Z</time></trkpt><trkpt lat="45.56289754046105" lon="11.13822142651714"><ele>681.0</ele><time>2026-04-25T09:05:49.001Z</time></trkpt><trkpt lat="45.56294559654592" lon="11.138355136088968"><ele>679.8</ele><time>2026-04-25T09:05:50.001Z</time></trkpt><trkpt lat="45.56298603071261" lon="11.138495789717561"><ele>678.5999999999999</ele><time>2026-04-25T09:05:51.001Z</time></trkpt><trkpt lat="45.563012685547285" lon="11.138636828162134"><ele>677.4</ele><time>2026-04-25T09:05:52.001Z</time></trkpt><trkpt lat="45.56306498949438" lon="11.138762008205472"><ele>676.2</ele><time>2026-04-25T09:05:53.001Z</time></trkpt><trkpt lat="45.563119336635566" lon="11.13890653686394"><ele>675.0</ele><time>2026-04-25T09:05:54.001Z</time></trkpt><trkpt lat="45.56315172730971" lon="11.139019752904243"><ele>674.8333333333334</ele><time>2026-04-25T09:05:55.001Z</time></trkpt><trkpt lat="45.563187899009996" lon="11.139127271788027"><ele>674.6666666666666</ele><time>2026-04-25T09:05:56.001Z</time></trkpt><trkpt lat="45.563228442234774" lon="11.139238751220683"><ele>674.5</ele><time>2026-04-25T09:05:57.001Z</time></trkpt><trkpt lat="45.563257433035105" lon="11.139331466053363"><ele>674.3333333333333</ele><time>2026-04-25T09:05:58.001Z</time></trkpt><trkpt lat="45.563270498457264" lon="11.139451153374342"><ele>674.1666666666666</ele><time>2026-04-25T09:05:59.001Z</time></trkpt><trkpt lat="45.56329317968534" lon="11.139576492323977"><ele>674.0</ele><time>2026-04-25T09:06:00.001Z</time></trkpt><trkpt lat="45.563315933798805" lon="11.139727498796418"><ele>674.0</ele><time>2026-04-25T09:06:01.001Z</time></trkpt><trkpt lat="45.563340535391404" lon="11.139877511137179"><ele>674.0</ele><time>2026-04-25T09:06:02.001Z</time></trkpt><trkpt lat="45.56337383206181" lon="11.140030398453451"><ele>674.0</ele><time>2026-04-25T09:06:03.001Z</time></trkpt><trkpt lat="45.56339741237379" lon="11.140219603761741"><ele>674.0</ele><time>2026-04-25T09:06:04.001Z</time></trkpt><trkpt lat="45.5634149144103" lon="11.140395162743843"><ele>672.2</ele><time>2026-04-25T09:06:05.001Z</time></trkpt><trkpt lat="45.56342587755713" lon="11.140566993104384"><ele>670.4000000000001</ele><time>2026-04-25T09:06:06.001Z</time></trkpt><trkpt lat="45.56343218581303" lon="11.140709661813148"><ele>668.6</ele><time>2026-04-25T09:06:07.001Z</time></trkpt><trkpt lat="45.56343267051748" lon="11.140814090240715"><ele>666.8</ele><time>2026-04-25T09:06:08.001Z</time></trkpt><trkpt lat="45.563425794076686" lon="11.140906833160889"><ele>665.0</ele><time>2026-04-25T09:06:09.001Z</time></trkpt><trkpt lat="45.563428375929156" lon="11.14107425093662"><ele>663.5</ele><time>2026-04-25T09:06:11.001Z</time></trkpt><trkpt lat="45.56342146113295" lon="11.141195965614878"><ele>662.0</ele><time>2026-04-25T09:06:12.001Z</time></trkpt><trkpt lat="45.563413322559505" lon="11.141324614105622"><ele>660.5</ele><time>2026-04-25T09:06:13.001Z</time></trkpt><trkpt lat="45.56341606165839" lon="11.14147153902522"><ele>659.0</ele><time>2026-04-25T09:06:14.001Z</time></trkpt><trkpt lat="45.56342385245129" lon="11.141568036506419"><ele>657.5</ele><time>2026-04-25T09:06:15.001Z</time></trkpt><trkpt lat="45.56340945001509" lon="11.141678531241437"><ele>656.0</ele><time>2026-04-25T09:06:16.001Z</time></trkpt><trkpt lat="45.563395209010665" lon="11.14188233805635"><ele>655.0</ele><time>2026-04-25T09:06:18.001Z</time></trkpt><trkpt lat="45.56341433328849" lon="11.141971528009206"><ele>654.0</ele><time>2026-04-25T09:06:19.001Z</time></trkpt><trkpt lat="45.563439639704846" lon="11.142083099655723"><ele>653.0</ele><time>2026-04-25T09:06:20.001Z</time></trkpt><trkpt lat="45.563466728959376" lon="11.142172767811353"><ele>652.0</ele><time>2026-04-25T09:06:21.001Z</time></trkpt><trkpt lat="45.563465620862694" lon="11.142268020286068"><ele>651.0</ele><time>2026-04-25T09:06:22.001Z</time></trkpt><trkpt lat="45.56350114545575" lon="11.142363060965867"><ele>650.0</ele><time>2026-04-25T09:06:24.001Z</time></trkpt><trkpt lat="45.5635511150743" lon="11.142494023754129"><ele>648.0</ele><time>2026-04-25T09:06:26.001Z</time></trkpt><trkpt lat="45.56361830577525" lon="11.14260535950479"><ele>646.0</ele><time>2026-04-25T09:06:28.001Z</time></trkpt><trkpt lat="45.56366954539135" lon="11.142724286774374"><ele>644.0</ele><time>2026-04-25T09:06:30.001Z</time></trkpt><trkpt lat="45.56370886917935" lon="11.14284415745445"><ele>642.0</ele><time>2026-04-25T09:06:32.001Z</time></trkpt><trkpt lat="45.5637613842156" lon="11.142968883534175"><ele>640.0</ele><time>2026-04-25T09:06:34.001Z</time></trkpt><trkpt lat="45.56380344445654" lon="11.143060129327266"><ele>637.8</ele><time>2026-04-25T09:06:35.001Z</time></trkpt><trkpt lat="45.563866190077135" lon="11.143149482727845"><ele>635.6</ele><time>2026-04-25T09:06:37.001Z</time></trkpt><trkpt lat="45.563917463771425" lon="11.143241268613616"><ele>633.4</ele><time>2026-04-25T09:06:38.001Z</time></trkpt><trkpt lat="45.56396355757788" lon="11.143340622319643"><ele>631.2</ele><time>2026-04-25T09:06:39.001Z</time></trkpt><trkpt lat="45.56403338601874" lon="11.143478834439376"><ele>629.0</ele><time>2026-04-25T09:06:41.001Z</time></trkpt><trkpt lat="45.56411430915551" lon="11.14357957378384"><ele>627.2</ele><time>2026-04-25T09:06:42.001Z</time></trkpt><trkpt lat="45.564175122291765" lon="11.143670026663592"><ele>625.4</ele><time>2026-04-25T09:06:43.001Z</time></trkpt><trkpt lat="45.56421060326112" lon="11.143753326630565"><ele>623.6</ele><time>2026-04-25T09:06:44.001Z</time></trkpt><trkpt lat="45.564203064585" lon="11.143937243704046"><ele>621.8</ele><time>2026-04-25T09:06:46.001Z</time></trkpt><trkpt lat="45.56423782942012" lon="11.144091563295953"><ele>620.0</ele><time>2026-04-25T09:06:48.001Z</time></trkpt><trkpt lat="45.56426861871698" lon="11.144178550735056"><ele>618.4</ele><time>2026-04-25T09:06:50.001Z</time></trkpt><trkpt lat="45.56434750809005" lon="11.144244771062024"><ele>616.8</ele><time>2026-04-25T09:06:52.001Z</time></trkpt><trkpt lat="45.56446286780203" lon="11.144313658675687"><ele>615.2</ele><time>2026-04-25T09:06:54.001Z</time></trkpt><trkpt lat="45.56453601495397" lon="11.144338761767058"><ele>613.6</ele><time>2026-04-25T09:06:55.001Z</time></trkpt><trkpt lat="45.564616006387766" lon="11.144292726307846"><ele>612.0</ele><time>2026-04-25T09:06:58.001Z</time></trkpt><trkpt lat="45.564646273069236" lon="11.144194702714408"><ele>607.2</ele><time>2026-04-25T09:07:00.001Z</time></trkpt><trkpt lat="45.564697716475436" lon="11.144060001233278"><ele>602.4000000000001</ele><time>2026-04-25T09:07:02.001Z</time></trkpt><trkpt lat="45.56474042379408" lon="11.143899923023268"><ele>597.5999999999999</ele><time>2026-04-25T09:07:04.001Z</time></trkpt><trkpt lat="45.56470991337952" lon="11.143810041532756"><ele>592.8</ele><time>2026-04-25T09:07:06.001Z</time></trkpt><trkpt lat="45.56474379744246" lon="11.143702400665818"><ele>588.0</ele><time>2026-04-25T09:07:08.001Z</time></trkpt><trkpt lat="45.56476503150725" lon="11.143577972604"><ele>587.6</ele><time>2026-04-25T09:07:10.001Z</time></trkpt><trkpt lat="45.56476978549371" lon="11.143451977149509"><ele>587.1999999999999</ele><time>2026-04-25T09:07:12.001Z</time></trkpt><trkpt lat="45.564767475003656" lon="11.143293313983516"><ele>586.8</ele><time>2026-04-25T09:07:14.001Z</time></trkpt><trkpt lat="45.56479119843985" lon="11.143160617873033"><ele>586.4</ele><time>2026-04-25T09:07:16.001Z</time></trkpt><trkpt lat="45.56478474626503" lon="11.143037748448187"><ele>586.0</ele><time>2026-04-25T09:07:17.001Z</time></trkpt><trkpt lat="45.56483182010437" lon="11.142914965199058"><ele>587.3333333333334</ele><time>2026-04-25T09:07:19.001Z</time></trkpt><trkpt lat="45.56489095717589" lon="11.14285528852098"><ele>588.6666666666667</ele><time>2026-04-25T09:07:20.001Z</time></trkpt><trkpt lat="45.56492652046358" lon="11.142764106002899"><ele>590.0</ele><time>2026-04-25T09:07:21.001Z</time></trkpt><trkpt lat="45.56496309381098" lon="11.142652413990174"><ele>591.3333333333334</ele><time>2026-04-25T09:07:23.001Z</time></trkpt><trkpt lat="45.56501392414738" lon="11.142545530705036"><ele>592.6666666666666</ele><time>2026-04-25T09:07:26.001Z</time></trkpt><trkpt lat="45.56508179621107" lon="11.142458542324244"><ele>594.0</ele><time>2026-04-25T09:07:29.001Z</time></trkpt><trkpt lat="45.565142789857624" lon="11.142415868232813"><ele>594.0</ele><time>2026-04-25T09:07:31.001Z</time></trkpt><trkpt lat="45.565173265815524" lon="11.142532743440789"><ele>594.0</ele><time>2026-04-25T09:07:36.001Z</time></trkpt><trkpt lat="45.56517894737372" lon="11.142623215699443"><ele>594.0</ele><time>2026-04-25T09:07:37.001Z</time></trkpt><trkpt lat="45.565206563126054" lon="11.142715716045569"><ele>594.0</ele><time>2026-04-25T09:07:38.001Z</time></trkpt><trkpt lat="45.56520856450458" lon="11.142838187658354"><ele>594.0</ele><time>2026-04-25T09:07:40.001Z</time></trkpt><trkpt lat="45.56522792187503" lon="11.142949930613508"><ele>594.0</ele><time>2026-04-25T09:07:42.001Z</time></trkpt><trkpt lat="45.565261713959615" lon="11.143038564490737"><ele>585.25</ele><time>2026-04-25T09:07:44.001Z</time></trkpt><trkpt lat="45.56542968152285" lon="11.142841599994183"><ele>576.5</ele><time>2026-04-25T09:07:52.001Z</time></trkpt><trkpt lat="45.565487354835696" lon="11.142735287516341"><ele>567.75</ele><time>2026-04-25T09:07:53.001Z</time></trkpt><trkpt lat="45.56554009579135" lon="11.142656186295678"><ele>559.0</ele><time>2026-04-25T09:07:54.001Z</time></trkpt><trkpt lat="45.56557454823018" lon="11.142578253004523"><ele>559.0</ele><time>2026-04-25T09:07:55.001Z</time></trkpt><trkpt lat="45.56567838951858" lon="11.142469170756499"><ele>559.0</ele><time>2026-04-25T09:07:57.001Z</time></trkpt><trkpt lat="45.565762844889775" lon="11.142439593668623"><ele>559.0</ele><time>2026-04-25T09:07:58.001Z</time></trkpt><trkpt lat="45.565849893503334" lon="11.142445898017241"><ele>559.0</ele><time>2026-04-25T09:07:59.001Z</time></trkpt><trkpt lat="45.56592487430879" lon="11.14242292701587"><ele>559.0</ele><time>2026-04-25T09:08:00.001Z</time></trkpt><trkpt lat="45.56601435371059" lon="11.142427199452444"><ele>559.0</ele><time>2026-04-25T09:08:01.001Z</time></trkpt><trkpt lat="45.56608212870436" lon="11.142456712162977"><ele>559.0</ele><time>2026-04-25T09:08:02.001Z</time></trkpt><trkpt lat="45.56614147451797" lon="11.142509587886705"><ele>559.0</ele><time>2026-04-25T09:08:03.001Z</time></trkpt><trkpt lat="45.56628059325687" lon="11.142615421432398"><ele>559.0</ele><time>2026-04-25T09:08:05.001Z</time></trkpt><trkpt lat="45.566355553904955" lon="11.142674541187388"><ele>559.0</ele><time>2026-04-25T09:08:06.001Z</time></trkpt><trkpt lat="45.56642042710392" lon="11.14272498869566"><ele>557.0</ele><time>2026-04-25T09:08:08.001Z</time></trkpt><trkpt lat="45.56648435431538" lon="11.142710382662386"><ele>555.0</ele><time>2026-04-25T09:08:10.001Z</time></trkpt><trkpt lat="45.56665480344654" lon="11.14260571698077"><ele>553.0</ele><time>2026-04-25T09:08:14.001Z</time></trkpt><trkpt lat="45.566689705033596" lon="11.142522264667564"><ele>551.0</ele><time>2026-04-25T09:08:15.001Z</time></trkpt><trkpt lat="45.56672984473357" lon="11.142439971620314"><ele>549.0</ele><time>2026-04-25T09:08:16.001Z</time></trkpt><trkpt lat="45.566777971725664" lon="11.142354822936117"><ele>544.0</ele><time>2026-04-25T09:08:17.001Z</time></trkpt><trkpt lat="45.5668760392134" lon="11.142233512677768"><ele>539.0</ele><time>2026-04-25T09:08:19.001Z</time></trkpt><trkpt lat="45.566958385512905" lon="11.142184762141087"><ele>534.0</ele><time>2026-04-25T09:08:20.001Z</time></trkpt><trkpt lat="45.56703757311608" lon="11.142091128388763"><ele>529.0</ele><time>2026-04-25T09:08:22.001Z</time></trkpt><trkpt lat="45.56708265270628" lon="11.142005802512518"><ele>524.0</ele><time>2026-04-25T09:08:23.001Z</time></trkpt><trkpt lat="45.56711398725704" lon="11.141926516194893"><ele>524.0</ele><time>2026-04-25T09:08:24.001Z</time></trkpt><trkpt lat="45.56713789073139" lon="11.1418029096932"><ele>524.0</ele><time>2026-04-25T09:08:26.001Z</time></trkpt><trkpt lat="45.56720968531545" lon="11.141694021546778"><ele>524.0</ele><time>2026-04-25T09:08:28.001Z</time></trkpt><trkpt lat="45.56726405997088" lon="11.141592727286294"><ele>524.0</ele><time>2026-04-25T09:08:30.001Z</time></trkpt><trkpt lat="45.5672941095694" lon="11.141458125540796"><ele>524.0</ele><time>2026-04-25T09:08:32.001Z</time></trkpt><trkpt lat="45.56729629031428" lon="11.141365971195759"><ele>524.0</ele><time>2026-04-25T09:08:34.001Z</time></trkpt><trkpt lat="45.56735195320994" lon="11.141284572912596"><ele>525.5</ele><time>2026-04-25T09:08:37.001Z</time></trkpt><trkpt lat="45.56736421607425" lon="11.14119565036333"><ele>527.0</ele><time>2026-04-25T09:08:41.001Z</time></trkpt><trkpt lat="45.56743564702772" lon="11.14110375245889"><ele>528.5</ele><time>2026-04-25T09:08:44.001Z</time></trkpt><trkpt lat="45.56748904392622" lon="11.140985468835732"><ele>530.0</ele><time>2026-04-25T09:08:46.001Z</time></trkpt><trkpt lat="45.5675156087497" lon="11.14087923856304"><ele>531.5</ele><time>2026-04-25T09:08:47.001Z</time></trkpt><trkpt lat="45.56753265148237" lon="11.140785472648997"><ele>533.0</ele><time>2026-04-25T09:08:48.001Z</time></trkpt><trkpt lat="45.567575550435826" lon="11.140656219230982"><ele>533.1666666666666</ele><time>2026-04-25T09:08:50.001Z</time></trkpt><trkpt lat="45.567607657022684" lon="11.140501018965136"><ele>533.3333333333333</ele><time>2026-04-25T09:08:52.001Z</time></trkpt><trkpt lat="45.567633237156855" lon="11.140393561400339"><ele>533.5</ele><time>2026-04-25T09:08:53.001Z</time></trkpt><trkpt lat="45.567655841764434" lon="11.140275669908368"><ele>533.6666666666666</ele><time>2026-04-25T09:08:54.001Z</time></trkpt><trkpt lat="45.56768750899227" lon="11.140187220073292"><ele>533.8333333333334</ele><time>2026-04-25T09:08:55.001Z</time></trkpt><trkpt lat="45.56771328721309" lon="11.14010373807615"><ele>534.0</ele><time>2026-04-25T09:08:56.001Z</time></trkpt><trkpt lat="45.567751370747416" lon="11.140019279797766"><ele>534.0</ele><time>2026-04-25T09:08:58.001Z</time></trkpt><trkpt lat="45.56781009058253" lon="11.140329236997625"><ele>534.0</ele><time>2026-04-25T09:09:03.001Z</time></trkpt><trkpt lat="45.5678224096548" lon="11.14044045746897"><ele>534.0</ele><time>2026-04-25T09:09:04.001Z</time></trkpt><trkpt lat="45.567852615670255" lon="11.140546350003024"><ele>534.0</ele><time>2026-04-25T09:09:05.001Z</time></trkpt><trkpt lat="45.56788171494764" lon="11.14064829686052"><ele>533.8</ele><time>2026-04-25T09:09:06.001Z</time></trkpt><trkpt lat="45.567895310625474" lon="11.140802669704874"><ele>533.5999999999999</ele><time>2026-04-25T09:09:08.001Z</time></trkpt><trkpt lat="45.56787279222635" lon="11.140996524491719"><ele>533.4</ele><time>2026-04-25T09:09:10.001Z</time></trkpt><trkpt lat="45.56785879372898" lon="11.141109555956037"><ele>533.1999999999999</ele><time>2026-04-25T09:09:11.001Z</time></trkpt><trkpt lat="45.56783950324122" lon="11.141207096284223"><ele>533.0</ele><time>2026-04-25T09:09:12.001Z</time></trkpt><trkpt lat="45.56782961860461" lon="11.141303373891336"><ele>533.0</ele><time>2026-04-25T09:09:13.001Z</time></trkpt><trkpt lat="45.56781943678093" lon="11.141413808305543"><ele>533.0</ele><time>2026-04-25T09:09:14.001Z</time></trkpt><trkpt lat="45.56782115576904" lon="11.141546969990713"><ele>533.0</ele><time>2026-04-25T09:09:16.001Z</time></trkpt><trkpt lat="45.567797718404265" lon="11.141667518982649"><ele>533.0</ele><time>2026-04-25T09:09:18.001Z</time></trkpt><trkpt lat="45.56775086525197" lon="11.141778402493028"><ele>533.0</ele><time>2026-04-25T09:09:20.001Z</time></trkpt><trkpt lat="45.56765180501127" lon="11.141820996443224"><ele>531.5</ele><time>2026-04-25T09:09:22.001Z</time></trkpt><trkpt lat="45.56766915539487" lon="11.141907468431949"><ele>530.0</ele><time>2026-04-25T09:09:24.001Z</time></trkpt><trkpt lat="45.5677297892932" lon="11.141881034865513"><ele>528.5</ele><time>2026-04-25T09:09:26.001Z</time></trkpt><trkpt lat="45.567725802716005" lon="11.141779703225971"><ele>527.0</ele><time>2026-04-25T09:09:28.001Z</time></trkpt><trkpt lat="45.567695196307014" lon="11.14193367023557"><ele>525.5</ele><time>2026-04-25T09:10:07Z</time></trkpt><trkpt lat="45.56765386286237" lon="11.142069468339832"><ele>524.0</ele><time>2026-04-25T09:10:08Z</time></trkpt><trkpt lat="45.56762596468903" lon="11.142234724808636"><ele>521.5</ele><time>2026-04-25T09:10:09Z</time></trkpt><trkpt lat="45.567594714641935" lon="11.142432186297231"><ele>519.0</ele><time>2026-04-25T09:10:10Z</time></trkpt><trkpt lat="45.56753010336276" lon="11.142635056688079"><ele>516.5</ele><time>2026-04-25T09:10:11Z</time></trkpt><trkpt lat="45.56746574978519" lon="11.14281903066235"><ele>514.0</ele><time>2026-04-25T09:10:12Z</time></trkpt><trkpt lat="45.567423573248774" lon="11.142984686425624"><ele>514.0</ele><time>2026-04-25T09:10:13Z</time></trkpt><trkpt lat="45.56738385378588" lon="11.14314163834184"><ele>514.0</ele><time>2026-04-25T09:10:14Z</time></trkpt><trkpt lat="45.56733794636183" lon="11.143288756791215"><ele>514.0</ele><time>2026-04-25T09:10:15Z</time></trkpt><trkpt lat="45.567280851530185" lon="11.143418109977398"><ele>514.0</ele><time>2026-04-25T09:10:16Z</time></trkpt><trkpt lat="45.567226317871736" lon="11.143534659579366"><ele>514.0</ele><time>2026-04-25T09:10:17Z</time></trkpt><trkpt lat="45.567171893854244" lon="11.143669908060968"><ele>511.25</ele><time>2026-04-25T09:10:18Z</time></trkpt><trkpt lat="45.567110195968894" lon="11.143814875956942"><ele>508.5</ele><time>2026-04-25T09:10:19Z</time></trkpt><trkpt lat="45.56703959833208" lon="11.143966180154495"><ele>505.75</ele><time>2026-04-25T09:10:20Z</time></trkpt><trkpt lat="45.566976664667" lon="11.144128010317097"><ele>503.0</ele><time>2026-04-25T09:10:21Z</time></trkpt><trkpt lat="45.566924800744346" lon="11.14428084948178"><ele>503.0</ele><time>2026-04-25T09:10:22Z</time></trkpt><trkpt lat="45.566869867980614" lon="11.144428175342007"><ele>503.0</ele><time>2026-04-25T09:10:23Z</time></trkpt><trkpt lat="45.56681239227879" lon="11.144571898427625"><ele>503.0</ele><time>2026-04-25T09:10:24Z</time></trkpt><trkpt lat="45.566762265458465" lon="11.144715299384384"><ele>503.0</ele><time>2026-04-25T09:10:25Z</time></trkpt><trkpt lat="45.56673004806017" lon="11.144885487679767"><ele>500.75</ele><time>2026-04-25T09:10:26Z</time></trkpt><trkpt lat="45.566721951605494" lon="11.145076843530942"><ele>498.5</ele><time>2026-04-25T09:10:27Z</time></trkpt><trkpt lat="45.56673517690892" lon="11.145248192382311"><ele>496.25</ele><time>2026-04-25T09:10:28Z</time></trkpt><trkpt lat="45.56673605897112" lon="11.145411541788542"><ele>494.0</ele><time>2026-04-25T09:10:29Z</time></trkpt><trkpt lat="45.566733046729475" lon="11.145576028959164"><ele>494.2</ele><time>2026-04-25T09:10:30Z</time></trkpt><trkpt lat="45.56673177067792" lon="11.145730923607614"><ele>494.4</ele><time>2026-04-25T09:10:31Z</time></trkpt><trkpt lat="45.56674670072896" lon="11.14587682328312"><ele>494.6</ele><time>2026-04-25T09:10:32Z</time></trkpt><trkpt lat="45.566781062773806" lon="11.146015288212752"><ele>494.8</ele><time>2026-04-25T09:10:33Z</time></trkpt><trkpt lat="45.56684126769594" lon="11.146155969828746"><ele>495.0</ele><time>2026-04-25T09:10:34Z</time></trkpt><trkpt lat="45.566911727380266" lon="11.146287167629767"><ele>495.0</ele><time>2026-04-25T09:10:35Z</time></trkpt><trkpt lat="45.56698361865122" lon="11.146400968326926"><ele>495.0</ele><time>2026-04-25T09:10:36Z</time></trkpt><trkpt lat="45.56705029638274" lon="11.146503015931065"><ele>495.0</ele><time>2026-04-25T09:10:37Z</time></trkpt><trkpt lat="45.567107585618764" lon="11.146604529749492"><ele>495.0</ele><time>2026-04-25T09:10:38Z</time></trkpt><trkpt lat="45.56714464654993" lon="11.146711922357639"><ele>495.0</ele><time>2026-04-25T09:10:39Z</time></trkpt><trkpt lat="45.5671639553768" lon="11.146838218236418"><ele>492.2</ele><time>2026-04-25T09:10:40Z</time></trkpt><trkpt lat="45.56716920018282" lon="11.146970047973877"><ele>489.4</ele><time>2026-04-25T09:10:41Z</time></trkpt><trkpt lat="45.567157152385526" lon="11.147093653260645"><ele>486.6</ele><time>2026-04-25T09:10:42Z</time></trkpt><trkpt lat="45.567141740432454" lon="11.147220041798166"><ele>483.8</ele><time>2026-04-25T09:10:43Z</time></trkpt><trkpt lat="45.56713053654182" lon="11.147359935152016"><ele>481.0</ele><time>2026-04-25T09:10:44Z</time></trkpt><trkpt lat="45.56712626497974" lon="11.14751276180805"><ele>480.6</ele><time>2026-04-25T09:10:45Z</time></trkpt><trkpt lat="45.567133851139815" lon="11.147650502222875"><ele>480.20000000000005</ele><time>2026-04-25T09:10:46Z</time></trkpt><trkpt lat="45.5671527823665" lon="11.147772571087408"><ele>479.79999999999995</ele><time>2026-04-25T09:10:47Z</time></trkpt><trkpt lat="45.56716670727942" lon="11.14786549061555"><ele>479.4</ele><time>2026-04-25T09:10:48Z</time></trkpt><trkpt lat="45.567193805014675" lon="11.148020976862528"><ele>479.0</ele><time>2026-04-25T09:10:50Z</time></trkpt><trkpt lat="45.56725587637567" lon="11.148187901026338"><ele>478.79999999999995</ele><time>2026-04-25T09:10:52Z</time></trkpt><trkpt lat="45.567296693696754" lon="11.148289644129635"><ele>478.59999999999997</ele><time>2026-04-25T09:10:53Z</time></trkpt><trkpt lat="45.56732442783881" lon="11.148384304485466"><ele>478.4</ele><time>2026-04-25T09:10:54Z</time></trkpt><trkpt lat="45.56735396656087" lon="11.148559363565878"><ele>478.2</ele><time>2026-04-25T09:10:56Z</time></trkpt><trkpt lat="45.567318376314844" lon="11.14864994567474"><ele>478.0</ele><time>2026-04-25T09:10:57Z</time></trkpt><trkpt lat="45.567244844483305" lon="11.148740441061381"><ele>478.00000000000006</ele><time>2026-04-25T09:10:58Z</time></trkpt><trkpt lat="45.56715743572664" lon="11.148814817668272"><ele>478.0</ele><time>2026-04-25T09:10:59Z</time></trkpt><trkpt lat="45.56708042008094" lon="11.148861320048855"><ele>478.0</ele><time>2026-04-25T09:11:00Z</time></trkpt><trkpt lat="45.56702608854089" lon="11.148924101977768"><ele>478.0</ele><time>2026-04-25T09:11:01Z</time></trkpt><trkpt lat="45.56697735702446" lon="11.148993864351391"><ele>478.00000000000006</ele><time>2026-04-25T09:11:02Z</time></trkpt><trkpt lat="45.56694901446973" lon="11.149074286842504"><ele>478.0</ele><time>2026-04-25T09:11:03Z</time></trkpt><trkpt lat="45.56696608121334" lon="11.149187143622317"><ele>478.0</ele><time>2026-04-25T09:11:06Z</time></trkpt><trkpt lat="45.56705438363029" lon="11.149191235811971"><ele>477.99999999999994</ele><time>2026-04-25T09:11:08Z</time></trkpt><trkpt lat="45.567134845017016" lon="11.14911195646334"><ele>477.99999999999994</ele><time>2026-04-25T09:11:09Z</time></trkpt><trkpt lat="45.56722754643858" lon="11.149073620591855"><ele>478.0</ele><time>2026-04-25T09:11:10Z</time></trkpt><trkpt lat="45.56733537376031" lon="11.149037663947936"><ele>478.0</ele><time>2026-04-25T09:11:11Z</time></trkpt><trkpt lat="45.567453305936844" lon="11.14900294832588"><ele>478.0</ele><time>2026-04-25T09:11:12Z</time></trkpt><trkpt lat="45.56757893224287" lon="11.148961495429122"><ele>478.0</ele><time>2026-04-25T09:11:13Z</time></trkpt><trkpt lat="45.56770396777073" lon="11.148908095790777"><ele>478.0</ele><time>2026-04-25T09:11:14Z</time></trkpt><trkpt lat="45.56782088751155" lon="11.148838339964144"><ele>478.0</ele><time>2026-04-25T09:11:15Z</time></trkpt><trkpt lat="45.56793389896455" lon="11.148766330785524"><ele>478.75</ele><time>2026-04-25T09:11:16Z</time></trkpt><trkpt lat="45.56804060683597" lon="11.148702162804447"><ele>479.5</ele><time>2026-04-25T09:11:17Z</time></trkpt><trkpt lat="45.56814246136366" lon="11.14864814289335"><ele>480.25</ele><time>2026-04-25T09:11:18Z</time></trkpt><trkpt lat="45.5682651086537" lon="11.148598759609962"><ele>481.0</ele><time>2026-04-25T09:11:19Z</time></trkpt><trkpt lat="45.56840616640861" lon="11.148577196469887"><ele>481.0</ele><time>2026-04-25T09:11:20Z</time></trkpt><trkpt lat="45.5685369227961" lon="11.148587919874426"><ele>481.0</ele><time>2026-04-25T09:11:21Z</time></trkpt><trkpt lat="45.568668453469414" lon="11.148606007145133"><ele>481.0</ele><time>2026-04-25T09:11:22Z</time></trkpt><trkpt lat="45.56880758240721" lon="11.148626904509356"><ele>481.0</ele><time>2026-04-25T09:11:23Z</time></trkpt><trkpt lat="45.568951535374616" lon="11.148652424572628"><ele>481.75</ele><time>2026-04-25T09:11:24Z</time></trkpt><trkpt lat="45.56907865207763" lon="11.148691584854298"><ele>482.5</ele><time>2026-04-25T09:11:25Z</time></trkpt><trkpt lat="45.569193854684215" lon="11.148739972156378"><ele>483.25</ele><time>2026-04-25T09:11:26Z</time></trkpt><trkpt lat="45.56931373006933" lon="11.148793593039304"><ele>484.0</ele><time>2026-04-25T09:11:27Z</time></trkpt><trkpt lat="45.56944366871319" lon="11.148837147357092"><ele>484.75</ele><time>2026-04-25T09:11:28Z</time></trkpt><trkpt lat="45.56957601591108" lon="11.148851446468898"><ele>485.5</ele><time>2026-04-25T09:11:29Z</time></trkpt><trkpt lat="45.56971226917803" lon="11.148828633459084"><ele>486.25</ele><time>2026-04-25T09:11:30Z</time></trkpt><trkpt lat="45.56985555920145" lon="11.148789172117114"><ele>487.0</ele><time>2026-04-25T09:11:31Z</time></trkpt><trkpt lat="45.57000462302777" lon="11.14874392251636"><ele>487.0</ele><time>2026-04-25T09:11:32Z</time></trkpt><trkpt lat="45.57014555087296" lon="11.14871273597378"><ele>487.0</ele><time>2026-04-25T09:11:33Z</time></trkpt><trkpt lat="45.57027076575337" lon="11.148703400700564"><ele>487.0</ele><time>2026-04-25T09:11:34Z</time></trkpt><trkpt lat="45.57038471425261" lon="11.14871127388834"><ele>487.0</ele><time>2026-04-25T09:11:35Z</time></trkpt><trkpt lat="45.57048986388054" lon="11.148715199929281"><ele>486.8</ele><time>2026-04-25T09:11:36Z</time></trkpt><trkpt lat="45.57059705348385" lon="11.148709996703356"><ele>486.6</ele><time>2026-04-25T09:11:37Z</time></trkpt><trkpt lat="45.57069037776429" lon="11.148700325099439"><ele>486.40000000000003</ele><time>2026-04-25T09:11:38Z</time></trkpt><trkpt lat="45.57076487806293" lon="11.148684611114472"><ele>486.20000000000005</ele><time>2026-04-25T09:11:39Z</time></trkpt><trkpt lat="45.570875507449664" lon="11.148675034008118"><ele>486.0</ele><time>2026-04-25T09:11:41Z</time></trkpt><trkpt lat="45.57093751837566" lon="11.148653785835036"><ele>486.0</ele><time>2026-04-25T09:11:42Z</time></trkpt><trkpt lat="45.57104440156756" lon="11.14867703320172"><ele>486.0</ele><time>2026-04-25T09:11:44Z</time></trkpt><trkpt lat="45.57109859931438" lon="11.148873498240205"><ele>486.0</ele><time>2026-04-25T09:11:46Z</time></trkpt><trkpt lat="45.57111962774307" lon="11.14900571167204"><ele>486.0</ele><time>2026-04-25T09:11:47Z</time></trkpt><trkpt lat="45.57111624471472" lon="11.149099191466183"><ele>486.0</ele><time>2026-04-25T09:11:48Z</time></trkpt><trkpt lat="45.57106690019543" lon="11.14922341140114"><ele>483.8333333333333</ele><time>2026-04-25T09:11:57Z</time></trkpt><trkpt lat="45.571049943436385" lon="11.149311390874182"><ele>481.66666666666663</ele><time>2026-04-25T09:11:58Z</time></trkpt><trkpt lat="45.57103995575992" lon="11.149407952351725"><ele>479.5</ele><time>2026-04-25T09:11:59Z</time></trkpt><trkpt lat="45.57102906115895" lon="11.149522360225825"><ele>477.3333333333333</ele><time>2026-04-25T09:12:00Z</time></trkpt><trkpt lat="45.5710101847458" lon="11.149629575792657"><ele>475.16666666666663</ele><time>2026-04-25T09:12:01Z</time></trkpt><trkpt lat="45.57102013051339" lon="11.14977800561907"><ele>473.0</ele><time>2026-04-25T09:12:03Z</time></trkpt><trkpt lat="45.57106178021884" lon="11.149888656581167"><ele>471.66666666666663</ele><time>2026-04-25T09:12:04Z</time></trkpt><trkpt lat="45.571106964409516" lon="11.1500118665664"><ele>470.3333333333333</ele><time>2026-04-25T09:12:05Z</time></trkpt><trkpt lat="45.57114842752464" lon="11.150123335040607"><ele>469.0</ele><time>2026-04-25T09:12:06Z</time></trkpt><trkpt lat="45.57118334499243" lon="11.150234239733424"><ele>467.66666666666663</ele><time>2026-04-25T09:12:07Z</time></trkpt><trkpt lat="45.571210234520464" lon="11.150332286662103"><ele>466.3333333333333</ele><time>2026-04-25T09:12:08Z</time></trkpt><trkpt lat="45.57123864338215" lon="11.150415349798127"><ele>465.0</ele><time>2026-04-25T09:12:09Z</time></trkpt><trkpt lat="45.57130265140849" lon="11.15056825364295"><ele>465.0</ele><time>2026-04-25T09:12:11Z</time></trkpt><trkpt lat="45.57133419262919" lon="11.150685442033797"><ele>465.0</ele><time>2026-04-25T09:12:13Z</time></trkpt><trkpt lat="45.57139963428161" lon="11.150790147997917"><ele>465.0</ele><time>2026-04-25T09:12:15Z</time></trkpt><trkpt lat="45.57145533065388" lon="11.15084335517718"><ele>465.0</ele><time>2026-04-25T09:12:16Z</time></trkpt><trkpt lat="45.57149669051843" lon="11.150912330847518"><ele>465.0</ele><time>2026-04-25T09:12:17Z</time></trkpt><trkpt lat="45.571571162888574" lon="11.151009755744827"><ele>465.0</ele><time>2026-04-25T09:12:19Z</time></trkpt><trkpt lat="45.57163642040283" lon="11.151022513222465"><ele>463.8</ele><time>2026-04-25T09:12:20Z</time></trkpt><trkpt lat="45.57177183845891" lon="11.150976557240924"><ele>462.6</ele><time>2026-04-25T09:12:22Z</time></trkpt><trkpt lat="45.57186412222998" lon="11.150970834033233"><ele>461.4</ele><time>2026-04-25T09:12:23Z</time></trkpt><trkpt lat="45.5719366770879" lon="11.150973899820306"><ele>460.2</ele><time>2026-04-25T09:12:24Z</time></trkpt><trkpt lat="45.57201726684847" lon="11.150956261426826"><ele>459.0</ele><time>2026-04-25T09:12:25Z</time></trkpt><trkpt lat="45.572088594680444" lon="11.150935522870679"><ele>458.6666666666667</ele><time>2026-04-25T09:12:26Z</time></trkpt><trkpt lat="45.57215145305726" lon="11.150948667121055"><ele>458.33333333333337</ele><time>2026-04-25T09:12:27Z</time></trkpt><trkpt lat="45.57221938308879" lon="11.15093171671797"><ele>458.0</ele><time>2026-04-25T09:12:28Z</time></trkpt><trkpt lat="45.57230651128802" lon="11.150908291738395"><ele>457.6666666666667</ele><time>2026-04-25T09:12:29Z</time></trkpt><trkpt lat="45.57239528924004" lon="11.150879749778891"><ele>457.33333333333337</ele><time>2026-04-25T09:12:30Z</time></trkpt><trkpt lat="45.57248532047099" lon="11.15082218929623"><ele>457.0</ele><time>2026-04-25T09:12:31Z</time></trkpt><trkpt lat="45.57258521142906" lon="11.15077819996983"><ele>457.0</ele><time>2026-04-25T09:12:32Z</time></trkpt><trkpt lat="45.572675511751484" lon="11.150744086113132"><ele>457.00000000000006</ele><time>2026-04-25T09:12:33Z</time></trkpt><trkpt lat="45.57276639941889" lon="11.150702353899703"><ele>457.00000000000006</ele><time>2026-04-25T09:12:34Z</time></trkpt><trkpt lat="45.57285128852189" lon="11.150657366604337"><ele>457.0</ele><time>2026-04-25T09:12:35Z</time></trkpt><trkpt lat="45.5729321714694" lon="11.15061615628898"><ele>457.0</ele><time>2026-04-25T09:12:36Z</time></trkpt><trkpt lat="45.573024354442516" lon="11.150570903664006"><ele>458.0</ele><time>2026-04-25T09:12:37Z</time></trkpt><trkpt lat="45.57312836903384" lon="11.150520195399992"><ele>459.00000000000006</ele><time>2026-04-25T09:12:38Z</time></trkpt><trkpt lat="45.57323564431947" lon="11.150477523926682"><ele>460.00000000000006</ele><time>2026-04-25T09:12:39Z</time></trkpt><trkpt lat="45.57332902688552" lon="11.150427831463452"><ele>461.0</ele><time>2026-04-25T09:12:40Z</time></trkpt><trkpt lat="45.573420026187016" lon="11.15039766287881"><ele>462.0</ele><time>2026-04-25T09:12:41Z</time></trkpt><trkpt lat="45.573497621830114" lon="11.150376967018973"><ele>462.0</ele><time>2026-04-25T09:12:42Z</time></trkpt><trkpt lat="45.57358629322584" lon="11.150354050764122"><ele>462.00000000000006</ele><time>2026-04-25T09:12:43Z</time></trkpt><trkpt lat="45.57367575511098" lon="11.150341135840328"><ele>462.00000000000006</ele><time>2026-04-25T09:12:44Z</time></trkpt><trkpt lat="45.573754285619145" lon="11.150336098788484"><ele>462.0</ele><time>2026-04-25T09:12:45Z</time></trkpt><trkpt lat="45.57386657053799" lon="11.150332240483023"><ele>462.0</ele><time>2026-04-25T09:12:47Z</time></trkpt><trkpt lat="45.57394423712451" lon="11.150312173716012"><ele>462.0</ele><time>2026-04-25T09:12:48Z</time></trkpt><trkpt lat="45.57403880297506" lon="11.150301425675645"><ele>462.00000000000006</ele><time>2026-04-25T09:12:49Z</time></trkpt><trkpt lat="45.574134446421816" lon="11.150296178401833"><ele>462.00000000000006</ele><time>2026-04-25T09:12:50Z</time></trkpt><trkpt lat="45.57423653000732" lon="11.150304516676458"><ele>462.0</ele><time>2026-04-25T09:12:51Z</time></trkpt><trkpt lat="45.574333843797675" lon="11.150335277290901"><ele>462.0</ele><time>2026-04-25T09:12:52Z</time></trkpt><trkpt lat="45.574417880071216" lon="11.15036008944575"><ele>462.0</ele><time>2026-04-25T09:12:53Z</time></trkpt><trkpt lat="45.57449054193189" lon="11.150351665273972"><ele>462.0</ele><time>2026-04-25T09:12:54Z</time></trkpt><trkpt lat="45.57456222345509" lon="11.15032904801989"><ele>462.0</ele><time>2026-04-25T09:12:55Z</time></trkpt><trkpt lat="45.57464126678246" lon="11.15030136071746"><ele>462.0</ele><time>2026-04-25T09:12:56Z</time></trkpt><trkpt lat="45.57473751457833" lon="11.150272922529245"><ele>462.0</ele><time>2026-04-25T09:12:57Z</time></trkpt><trkpt lat="45.57482857540593" lon="11.1502534383838"><ele>462.0</ele><time>2026-04-25T09:12:58Z</time></trkpt><trkpt lat="45.574924161924436" lon="11.150231222923193"><ele>462.3333333333333</ele><time>2026-04-25T09:12:59Z</time></trkpt><trkpt lat="45.575005643404594" lon="11.15020521271081"><ele>462.66666666666663</ele><time>2026-04-25T09:13:00Z</time></trkpt><trkpt lat="45.57506624875863" lon="11.150179332713419"><ele>463.0</ele><time>2026-04-25T09:13:01Z</time></trkpt><trkpt lat="45.575161159032874" lon="11.150183105219197"><ele>463.3333333333333</ele><time>2026-04-25T09:13:03Z</time></trkpt><trkpt lat="45.575225256643925" lon="11.150164058033168"><ele>463.66666666666663</ele><time>2026-04-25T09:13:05Z</time></trkpt><trkpt lat="45.57530332182799" lon="11.150023527305619"><ele>464.0</ele><time>2026-04-25T09:13:07Z</time></trkpt><trkpt lat="45.5753663829854" lon="11.149989772180511"><ele>464.0</ele><time>2026-04-25T09:13:08Z</time></trkpt><trkpt lat="45.575438298292966" lon="11.149958783683921"><ele>464.0</ele><time>2026-04-25T09:13:09Z</time></trkpt><trkpt lat="45.57552723323779" lon="11.14992046142671"><ele>464.0</ele><time>2026-04-25T09:13:10Z</time></trkpt><trkpt lat="45.57561161700327" lon="11.149884102837477"><ele>464.0</ele><time>2026-04-25T09:13:11Z</time></trkpt><trkpt lat="45.575705394903586" lon="11.149843827694102"><ele>464.0</ele><time>2026-04-25T09:13:12Z</time></trkpt><trkpt lat="45.57579917784663" lon="11.149803550381144"><ele>465.5</ele><time>2026-04-25T09:13:13Z</time></trkpt><trkpt lat="45.57591746148078" lon="11.149753407347845"><ele>467.0</ele><time>2026-04-25T09:13:14Z</time></trkpt><trkpt lat="45.57603425159145" lon="11.149704340867286"><ele>468.5</ele><time>2026-04-25T09:13:15Z</time></trkpt><trkpt lat="45.57615437525385" lon="11.14965411430364"><ele>470.0</ele><time>2026-04-25T09:13:16Z</time></trkpt><trkpt lat="45.57625295815957" lon="11.149613153797343"><ele>470.49999999999994</ele><time>2026-04-25T09:13:17Z</time></trkpt><trkpt lat="45.576325475104895" lon="11.149583023476993"><ele>471.0</ele><time>2026-04-25T09:13:18Z</time></trkpt><trkpt lat="45.576389698905345" lon="11.149556338721236"><ele>471.5</ele><time>2026-04-25T09:13:19Z</time></trkpt><trkpt lat="45.576451049407126" lon="11.149530848266735"><ele>472.0</ele><time>2026-04-25T09:13:20Z</time></trkpt><trkpt lat="45.57652150462881" lon="11.149501574631996"><ele>472.49999999999994</ele><time>2026-04-25T09:13:21Z</time></trkpt><trkpt lat="45.57658338756775" lon="11.14947586288288"><ele>473.0</ele><time>2026-04-25T09:13:22Z</time></trkpt><trkpt lat="45.57669616621739" lon="11.149429375998269"><ele>473.0</ele><time>2026-04-25T09:13:24Z</time></trkpt><trkpt lat="45.57679762912698" lon="11.149388661322604"><ele>472.99999999999994</ele><time>2026-04-25T09:13:26Z</time></trkpt><trkpt lat="45.576896084412574" lon="11.149364863616459"><ele>472.99999999999994</ele><time>2026-04-25T09:13:28Z</time></trkpt><trkpt lat="45.576987360045955" lon="11.14931688279931"><ele>473.0</ele><time>2026-04-25T09:13:31Z</time></trkpt><trkpt lat="45.57705488666348" lon="11.149294162265845"><ele>473.0</ele><time>2026-04-25T09:13:32Z</time></trkpt><trkpt lat="45.577176464655096" lon="11.149267357246673"><ele>473.59999999999997</ele><time>2026-04-25T09:13:33Z</time></trkpt><trkpt lat="45.57727745532216" lon="11.149244049548686"><ele>474.19999999999993</ele><time>2026-04-25T09:13:34Z</time></trkpt><trkpt lat="45.57739466724563" lon="11.149216998140808"><ele>474.8</ele><time>2026-04-25T09:13:35Z</time></trkpt><trkpt lat="45.57750052850141" lon="11.149192451675827"><ele>475.4</ele><time>2026-04-25T09:13:36Z</time></trkpt><trkpt lat="45.57760135258046" lon="11.149168548233531"><ele>476.0</ele><time>2026-04-25T09:13:37Z</time></trkpt><trkpt lat="45.57769563834354" lon="11.14914619489514"><ele>476.0</ele><time>2026-04-25T09:13:38Z</time></trkpt><trkpt lat="45.577815093419865" lon="11.149117479761394"><ele>476.0</ele><time>2026-04-25T09:13:39Z</time></trkpt><trkpt lat="45.57791583891058" lon="11.149093240243467"><ele>476.0</ele><time>2026-04-25T09:13:40Z</time></trkpt><trkpt lat="45.57799872249096" lon="11.14907295310918"><ele>476.0</ele><time>2026-04-25T09:13:41Z</time></trkpt><trkpt lat="45.57806768072983" lon="11.149055938125215"><ele>476.0</ele><time>2026-04-25T09:13:42Z</time></trkpt><trkpt lat="45.57816485178142" lon="11.149027981300854"><ele>475.25</ele><time>2026-04-25T09:13:44Z</time></trkpt><trkpt lat="45.57823436824652" lon="11.149021909332303"><ele>474.5</ele><time>2026-04-25T09:13:45Z</time></trkpt><trkpt lat="45.578308188815164" lon="11.149015211828567"><ele>473.75</ele><time>2026-04-25T09:13:46Z</time></trkpt><trkpt lat="45.578429459425315" lon="11.149013719827012"><ele>473.0</ele><time>2026-04-25T09:13:48Z</time></trkpt><trkpt lat="45.57884963869276" lon="11.149778490229076"><ele>472.99999999999994</ele><time>2026-04-25T09:13:52Z</time></trkpt><trkpt lat="45.5788971425817" lon="11.149844821097748"><ele>473.0</ele><time>2026-04-25T09:13:53Z</time></trkpt><trkpt lat="45.5789342194678" lon="11.149921273378988"><ele>473.0</ele><time>2026-04-25T09:13:54Z</time></trkpt><trkpt lat="45.578988031093125" lon="11.149989642129617"><ele>473.0</ele><time>2026-04-25T09:13:56Z</time></trkpt><trkpt lat="45.57910800399345" lon="11.149930027241012"><ele>472.99999999999994</ele><time>2026-04-25T09:13:58Z</time></trkpt><trkpt lat="45.579176001742134" lon="11.149926164624178"><ele>473.0</ele><time>2026-04-25T09:13:59Z</time></trkpt><trkpt lat="45.57925930198718" lon="11.149956902207418"><ele>472.99999999999994</ele><time>2026-04-25T09:14:00Z</time></trkpt><trkpt lat="45.579325141613005" lon="11.149999475846247"><ele>473.0</ele><time>2026-04-25T09:14:01Z</time></trkpt><trkpt lat="45.579438928638574" lon="11.15004395881818"><ele>473.0</ele><time>2026-04-25T09:14:03Z</time></trkpt><trkpt lat="45.579505209819395" lon="11.150012034263996"><ele>473.0</ele><time>2026-04-25T09:14:04Z</time></trkpt><trkpt lat="45.57959118442053" lon="11.149985163221983"><ele>472.99999999999994</ele><time>2026-04-25T09:14:05Z</time></trkpt><trkpt lat="45.57968471037818" lon="11.149982981165877"><ele>473.0</ele><time>2026-04-25T09:14:06Z</time></trkpt><trkpt lat="45.57975684662172" lon="11.14998802708861"><ele>473.28571428571433</ele><time>2026-04-25T09:14:07Z</time></trkpt><trkpt lat="45.57982434985839" lon="11.149985184750053"><ele>473.57142857142856</ele><time>2026-04-25T09:14:08Z</time></trkpt><trkpt lat="45.579888806584925" lon="11.15001168394884"><ele>473.8571428571429</ele><time>2026-04-25T09:14:09Z</time></trkpt><trkpt lat="45.57995784843065" lon="11.150045877021434"><ele>474.14285714285717</ele><time>2026-04-25T09:14:10Z</time></trkpt><trkpt lat="45.58002147232358" lon="11.15007529864838"><ele>474.42857142857144</ele><time>2026-04-25T09:14:11Z</time></trkpt><trkpt lat="45.58009487646945" lon="11.150100559454797"><ele>474.7142857142857</ele><time>2026-04-25T09:14:12Z</time></trkpt><trkpt lat="45.580174622591" lon="11.150134452916447"><ele>475.0</ele><time>2026-04-25T09:14:13Z</time></trkpt><trkpt lat="45.58026052726258" lon="11.150169627980938"><ele>475.00000000000006</ele><time>2026-04-25T09:14:14Z</time></trkpt><trkpt lat="45.58033626065338" lon="11.150205505442718"><ele>475.0</ele><time>2026-04-25T09:14:15Z</time></trkpt><trkpt lat="45.58041506294822" lon="11.1502371006213"><ele>475.0</ele><time>2026-04-25T09:14:16Z</time></trkpt><trkpt lat="45.580489472448235" lon="11.15027518570468"><ele>475.0</ele><time>2026-04-25T09:14:17Z</time></trkpt><trkpt lat="45.580555889796486" lon="11.150308085536626"><ele>475.00000000000006</ele><time>2026-04-25T09:14:18Z</time></trkpt><trkpt lat="45.58065049307794" lon="11.150316163727986"><ele>475.0</ele><time>2026-04-25T09:14:20Z</time></trkpt><trkpt lat="45.58073284562891" lon="11.150401617339982"><ele>475.6</ele><time>2026-04-25T09:14:22Z</time></trkpt><trkpt lat="45.58084144011431" lon="11.15050435779808"><ele>476.2</ele><time>2026-04-25T09:14:24Z</time></trkpt><trkpt lat="45.58092616920608" lon="11.150555696018383"><ele>476.79999999999995</ele><time>2026-04-25T09:14:26Z</time></trkpt><trkpt lat="45.580934828832774" lon="11.1506785478208"><ele>477.4</ele><time>2026-04-25T09:14:28Z</time></trkpt><trkpt lat="45.58091947658696" lon="11.150793635231668"><ele>478.0</ele><time>2026-04-25T09:14:29Z</time></trkpt><trkpt lat="45.58090753906726" lon="11.150908209780146"><ele>478.2</ele><time>2026-04-25T09:14:30Z</time></trkpt><trkpt lat="45.58089563029031" lon="11.151010357453135"><ele>478.4</ele><time>2026-04-25T09:14:31Z</time></trkpt><trkpt lat="45.58087841275648" lon="11.151132054947947"><ele>478.59999999999997</ele><time>2026-04-25T09:14:33Z</time></trkpt><trkpt lat="45.58094617527807" lon="11.151216606116062"><ele>478.79999999999995</ele><time>2026-04-25T09:14:36Z</time></trkpt><trkpt lat="45.58109384471248" lon="11.1512403487219"><ele>479.0</ele><time>2026-04-25T09:14:38Z</time></trkpt><trkpt lat="45.581193677887896" lon="11.151256798459372"><ele>479.0</ele><time>2026-04-25T09:14:39Z</time></trkpt><trkpt lat="45.58130899232761" lon="11.151302158925708"><ele>479.0</ele><time>2026-04-25T09:14:40Z</time></trkpt><trkpt lat="45.581436460389504" lon="11.15136208364888"><ele>479.0</ele><time>2026-04-25T09:14:41Z</time></trkpt><trkpt lat="45.58158366869617" lon="11.151431481881028"><ele>479.0</ele><time>2026-04-25T09:14:42Z</time></trkpt><trkpt lat="45.58172953667097" lon="11.151507804147691"><ele>479.75</ele><time>2026-04-25T09:14:43Z</time></trkpt><trkpt lat="45.58186972062083" lon="11.151587125946158"><ele>480.5</ele><time>2026-04-25T09:14:44Z</time></trkpt><trkpt lat="45.58200980778185" lon="11.151655422551658"><ele>481.25</ele><time>2026-04-25T09:14:45Z</time></trkpt><trkpt lat="45.582153245270796" lon="11.15171226251257"><ele>482.0</ele><time>2026-04-25T09:14:46Z</time></trkpt><trkpt lat="45.582296775221444" lon="11.151769762180544"><ele>482.3333333333333</ele><time>2026-04-25T09:14:47Z</time></trkpt><trkpt lat="45.582443390189965" lon="11.151832423607573"><ele>482.66666666666663</ele><time>2026-04-25T09:14:48Z</time></trkpt><trkpt lat="45.582591382592646" lon="11.1518939230916"><ele>483.0</ele><time>2026-04-25T09:14:49Z</time></trkpt><trkpt lat="45.58273793723533" lon="11.151942507338632"><ele>483.0</ele><time>2026-04-25T09:14:50Z</time></trkpt><trkpt lat="45.58288479382948" lon="11.15198577098385"><ele>483.0</ele><time>2026-04-25T09:14:51Z</time></trkpt><trkpt lat="45.58303318476668" lon="11.152018089373053"><ele>483.0</ele><time>2026-04-25T09:14:52Z</time></trkpt><trkpt lat="45.58318175377865" lon="11.152045327057293"><ele>483.0</ele><time>2026-04-25T09:14:53Z</time></trkpt><trkpt lat="45.58332644992132" lon="11.1520671522856"><ele>483.0</ele><time>2026-04-25T09:14:54Z</time></trkpt><trkpt lat="45.58346967572328" lon="11.152085920625877"><ele>483.0</ele><time>2026-04-25T09:14:55Z</time></trkpt><trkpt lat="45.58361402003649" lon="11.152107409924866"><ele>483.0</ele><time>2026-04-25T09:14:56Z</time></trkpt><trkpt lat="45.58374091840957" lon="11.152137843110976"><ele>484.0</ele><time>2026-04-25T09:14:57Z</time></trkpt><trkpt lat="45.58386263572163" lon="11.152175623013985"><ele>485.0</ele><time>2026-04-25T09:14:58Z</time></trkpt><trkpt lat="45.583978376700344" lon="11.152236078358117"><ele>486.0</ele><time>2026-04-25T09:14:59Z</time></trkpt><trkpt lat="45.584090605435755" lon="11.152330706714885"><ele>487.0</ele><time>2026-04-25T09:15:00Z</time></trkpt><trkpt lat="45.58419694556387" lon="11.152449102029001"><ele>487.5</ele><time>2026-04-25T09:15:01Z</time></trkpt><trkpt lat="45.584298894647326" lon="11.152574514288727"><ele>488.0</ele><time>2026-04-25T09:15:02Z</time></trkpt><trkpt lat="45.584383942865195" lon="11.152701104062105"><ele>488.5</ele><time>2026-04-25T09:15:03Z</time></trkpt><trkpt lat="45.58444317053425" lon="11.152833333196758"><ele>489.0</ele><time>2026-04-25T09:15:04Z</time></trkpt><trkpt lat="45.58447170867456" lon="11.152985994527116"><ele>489.0</ele><time>2026-04-25T09:15:05Z</time></trkpt><trkpt lat="45.584493730968056" lon="11.153149014145033"><ele>489.0</ele><time>2026-04-25T09:15:06Z</time></trkpt><trkpt lat="45.5845498168772" lon="11.153288316538674"><ele>489.0</ele><time>2026-04-25T09:15:07Z</time></trkpt><trkpt lat="45.584648284703164" lon="11.153419150383687"><ele>489.0</ele><time>2026-04-25T09:15:08Z</time></trkpt><trkpt lat="45.58476464951012" lon="11.153553088862264"><ele>490.66666666666663</ele><time>2026-04-25T09:15:09Z</time></trkpt><trkpt lat="45.58488064855099" lon="11.153709519267252"><ele>492.3333333333333</ele><time>2026-04-25T09:15:10Z</time></trkpt><trkpt lat="45.58500514265516" lon="11.15388640505241"><ele>494.0</ele><time>2026-04-25T09:15:11Z</time></trkpt><trkpt lat="45.585138813165536" lon="11.154064263507424"><ele>495.6</ele><time>2026-04-25T09:15:12Z</time></trkpt><trkpt lat="45.58525043163337" lon="11.154210234789943"><ele>497.2</ele><time>2026-04-25T09:15:13Z</time></trkpt><trkpt lat="45.58531196156771" lon="11.15433812746884"><ele>498.80000000000007</ele><time>2026-04-25T09:15:14Z</time></trkpt><trkpt lat="45.5853646905289" lon="11.154424212653796"><ele>500.40000000000003</ele><time>2026-04-25T09:15:15Z</time></trkpt><trkpt lat="45.585398487968575" lon="11.154505586070409"><ele>502.0</ele><time>2026-04-25T09:15:16Z</time></trkpt><trkpt lat="45.58536862653393" lon="11.154611658826681"><ele>502.20000000000005</ele><time>2026-04-25T09:15:17Z</time></trkpt><trkpt lat="45.5852990004353" lon="11.154686183425893"><ele>502.40000000000003</ele><time>2026-04-25T09:15:18Z</time></trkpt><trkpt lat="45.58519393484522" lon="11.154662157264376"><ele>502.59999999999997</ele><time>2026-04-25T09:15:19Z</time></trkpt><trkpt lat="45.58510999798924" lon="11.154717255345991"><ele>502.79999999999995</ele><time>2026-04-25T09:15:20Z</time></trkpt><trkpt lat="45.58502722366672" lon="11.154757213862807"><ele>503.0</ele><time>2026-04-25T09:15:21Z</time></trkpt><trkpt lat="45.58496821180608" lon="11.154856828200522"><ele>505.25</ele><time>2026-04-25T09:15:22Z</time></trkpt><trkpt lat="45.58493599931344" lon="11.155004005607413"><ele>507.5</ele><time>2026-04-25T09:15:23Z</time></trkpt><trkpt lat="45.58493425942544" lon="11.155175834607002"><ele>509.75</ele><time>2026-04-25T09:15:24Z</time></trkpt><trkpt lat="45.58495138377316" lon="11.155349769383703"><ele>512.0</ele><time>2026-04-25T09:15:25Z</time></trkpt><trkpt lat="45.584939801515176" lon="11.155532861495358"><ele>514.5</ele><time>2026-04-25T09:15:26Z</time></trkpt><trkpt lat="45.58494025616456" lon="11.15571362604139"><ele>517.0</ele><time>2026-04-25T09:15:27Z</time></trkpt><trkpt lat="45.58494530166564" lon="11.155898007602138"><ele>519.5</ele><time>2026-04-25T09:15:28Z</time></trkpt><trkpt lat="45.58493215981833" lon="11.156079392123246"><ele>522.0</ele><time>2026-04-25T09:15:29Z</time></trkpt><trkpt lat="45.58490860810756" lon="11.156252175220178"><ele>522.0</ele><time>2026-04-25T09:15:30Z</time></trkpt><trkpt lat="45.58489968694509" lon="11.156398822532616"><ele>522.0</ele><time>2026-04-25T09:15:31Z</time></trkpt><trkpt lat="45.58490472843329" lon="11.156519078362166"><ele>522.0</ele><time>2026-04-25T09:15:32Z</time></trkpt><trkpt lat="45.58492091965495" lon="11.156617782587565"><ele>522.0</ele><time>2026-04-25T09:15:33Z</time></trkpt><trkpt lat="45.584937894775486" lon="11.15676758228042"><ele>522.0</ele><time>2026-04-25T09:15:35Z</time></trkpt><trkpt lat="45.58499723085517" lon="11.156805567030524"><ele>522.0</ele><time>2026-04-25T09:15:37Z</time></trkpt><trkpt lat="45.58503740221289" lon="11.156735287255126"><ele>522.0</ele><time>2026-04-25T09:15:39Z</time></trkpt><trkpt lat="45.58504642886356" lon="11.156611040498115"><ele>522.0</ele><time>2026-04-25T09:15:41Z</time></trkpt><trkpt lat="45.58507813961771" lon="11.156526542450829"><ele>522.0</ele><time>2026-04-25T09:15:42Z</time></trkpt><trkpt lat="45.585093150888476" lon="11.156416256776595"><ele>522.0</ele><time>2026-04-25T09:15:43Z</time></trkpt><trkpt lat="45.58512557856696" lon="11.156281225396091"><ele>522.0</ele><time>2026-04-25T09:15:44Z</time></trkpt><trkpt lat="45.58516916447901" lon="11.15619612202269"><ele>522.0</ele><time>2026-04-25T09:15:45Z</time></trkpt><trkpt lat="45.585200232870996" lon="11.156065548468886"><ele>522.0</ele><time>2026-04-25T09:15:46Z</time></trkpt><trkpt lat="45.585252047703875" lon="11.15596356413517"><ele>522.0</ele><time>2026-04-25T09:15:47Z</time></trkpt><trkpt lat="45.585305493905075" lon="11.155898820031458"><ele>522.0</ele><time>2026-04-25T09:15:48Z</time></trkpt><trkpt lat="45.585373430479976" lon="11.15586104542678"><ele>522.0</ele><time>2026-04-25T09:15:49Z</time></trkpt><trkpt lat="45.585465389505565" lon="11.155848540687765"><ele>522.0</ele><time>2026-04-25T09:15:50Z</time></trkpt><trkpt lat="45.585573856892125" lon="11.155864180020286"><ele>522.0</ele><time>2026-04-25T09:15:51Z</time></trkpt><trkpt lat="45.585688109943774" lon="11.155852523216373"><ele>525.8000000000001</ele><time>2026-04-25T09:15:52Z</time></trkpt><trkpt lat="45.58579173229811" lon="11.155830273716616"><ele>529.6</ele><time>2026-04-25T09:15:53Z</time></trkpt><trkpt lat="45.58590789643073" lon="11.155812199221655"><ele>533.4000000000001</ele><time>2026-04-25T09:15:54Z</time></trkpt><trkpt lat="45.58602392558819" lon="11.155799513259517"><ele>537.2</ele><time>2026-04-25T09:15:55Z</time></trkpt><trkpt lat="45.58613145718414" lon="11.15578545774445"><ele>541.0</ele><time>2026-04-25T09:15:56Z</time></trkpt><trkpt lat="45.586224897783616" lon="11.155761786158088"><ele>540.4285714285714</ele><time>2026-04-25T09:15:57Z</time></trkpt><trkpt lat="45.586289585449485" lon="11.155751403077558"><ele>539.8571428571429</ele><time>2026-04-25T09:15:58Z</time></trkpt><trkpt lat="45.586357698929184" lon="11.15571783573224"><ele>539.2857142857142</ele><time>2026-04-25T09:16:00Z</time></trkpt><trkpt lat="45.586401770955206" lon="11.155630828607766"><ele>538.7142857142858</ele><time>2026-04-25T09:16:02Z</time></trkpt><trkpt lat="45.58646034726559" lon="11.155569713674838"><ele>538.1428571428571</ele><time>2026-04-25T09:16:04Z</time></trkpt><trkpt lat="45.586506715039555" lon="11.155494452214588"><ele>537.5714285714286</ele><time>2026-04-25T09:16:05Z</time></trkpt><trkpt lat="45.58656797386618" lon="11.155412937654628"><ele>537.0</ele><time>2026-04-25T09:16:06Z</time></trkpt><trkpt lat="45.58663308468359" lon="11.155331747217089"><ele>537.0</ele><time>2026-04-25T09:16:07Z</time></trkpt><trkpt lat="45.586679618422714" lon="11.155245678559698"><ele>537.0</ele><time>2026-04-25T09:16:08Z</time></trkpt><trkpt lat="45.58670566500594" lon="11.15515560346448"><ele>537.0</ele><time>2026-04-25T09:16:09Z</time></trkpt><trkpt lat="45.58676447556964" lon="11.155043541301545"><ele>537.0</ele><time>2026-04-25T09:16:11Z</time></trkpt><trkpt lat="45.586818620739045" lon="11.154959252885345"><ele>537.0</ele><time>2026-04-25T09:16:13Z</time></trkpt><trkpt lat="45.58689320785394" lon="11.154889663035386"><ele>537.0</ele><time>2026-04-25T09:16:15Z</time></trkpt><trkpt lat="45.58699034835585" lon="11.154885643476682"><ele>538.0</ele><time>2026-04-25T09:16:17Z</time></trkpt><trkpt lat="45.58709964544083" lon="11.154883788447924"><ele>539.0</ele><time>2026-04-25T09:16:19Z</time></trkpt><trkpt lat="45.58721979311821" lon="11.154911912297244"><ele>540.0</ele><time>2026-04-25T09:16:21Z</time></trkpt><trkpt lat="45.5873113000983" lon="11.154946712085875"><ele>541.0</ele><time>2026-04-25T09:16:23Z</time></trkpt><trkpt lat="45.58741207767919" lon="11.154969018651604"><ele>542.0</ele><time>2026-04-25T09:16:25Z</time></trkpt><trkpt lat="45.5875084442322" lon="11.15497764815219"><ele>542.0</ele><time>2026-04-25T09:16:27Z</time></trkpt><trkpt lat="45.58757820450908" lon="11.154955432327842"><ele>542.0</ele><time>2026-04-25T09:16:28Z</time></trkpt><trkpt lat="45.5876471314955" lon="11.154946769752621"><ele>542.0</ele><time>2026-04-25T09:16:30Z</time></trkpt><trkpt lat="45.587734306180195" lon="11.154912124857788"><ele>542.0</ele><time>2026-04-25T09:16:33Z</time></trkpt><trkpt lat="45.58781865765113" lon="11.154896575463468"><ele>542.0</ele><time>2026-04-25T09:16:35Z</time></trkpt><trkpt lat="45.587893968242184" lon="11.154882687757832"><ele>542.0</ele><time>2026-04-25T09:16:37Z</time></trkpt><trkpt lat="45.58795257765654" lon="11.154833903590431"><ele>534.6</ele><time>2026-04-25T09:16:41Z</time></trkpt><trkpt lat="45.588018077515486" lon="11.154780476703511"><ele>527.2</ele><time>2026-04-25T09:16:50Z</time></trkpt><trkpt lat="45.58809896452813" lon="11.154703141719292"><ele>519.8</ele><time>2026-04-25T09:16:53Z</time></trkpt><trkpt lat="45.58817908419803" lon="11.15461572341589"><ele>512.4</ele><time>2026-04-25T09:16:55Z</time></trkpt><trkpt lat="45.5882541288649" lon="11.154549384630368"><ele>505.0</ele><time>2026-04-25T09:16:57Z</time></trkpt><trkpt lat="45.588353122475446" lon="11.154548343838556"><ele>505.00000000000006</ele><time>2026-04-25T09:16:59Z</time></trkpt><trkpt lat="45.588431518016876" lon="11.15454171664778"><ele>505.0</ele><time>2026-04-25T09:17:01Z</time></trkpt><trkpt lat="45.588495324050655" lon="11.154501361386172"><ele>505.0</ele><time>2026-04-25T09:17:02Z</time></trkpt><trkpt lat="45.58856301435085" lon="11.15447538176847"><ele>505.0</ele><time>2026-04-25T09:17:03Z</time></trkpt><trkpt lat="45.58862961819243" lon="11.154522786997587"><ele>505.00000000000006</ele><time>2026-04-25T09:17:05Z</time></trkpt><trkpt lat="45.58873474911495" lon="11.154563960211625"><ele>505.0</ele><time>2026-04-25T09:17:07Z</time></trkpt><trkpt lat="45.58881372754712" lon="11.15452552898737"><ele>505.50000000000006</ele><time>2026-04-25T09:17:08Z</time></trkpt><trkpt lat="45.58889797598048" lon="11.154493998500017"><ele>506.0</ele><time>2026-04-25T09:17:09Z</time></trkpt><trkpt lat="45.58896967245564" lon="11.154474264866463"><ele>506.5</ele><time>2026-04-25T09:17:10Z</time></trkpt><trkpt lat="45.58902004593443" lon="11.154414748815386"><ele>507.0</ele><time>2026-04-25T09:17:13Z</time></trkpt><trkpt lat="45.58906581015821" lon="11.154337746849162"><ele>507.50000000000006</ele><time>2026-04-25T09:17:52Z</time></trkpt><trkpt lat="45.58912228372225" lon="11.154289631665414"><ele>508.0</ele><time>2026-04-25T09:17:56Z</time></trkpt><trkpt lat="45.58932678276307" lon="11.154268393393409"><ele>508.0</ele><time>2026-04-25T09:18:02Z</time></trkpt><trkpt lat="45.58948462736575" lon="11.154257889067004"><ele>507.99999999999994</ele><time>2026-04-25T09:18:06Z</time></trkpt><trkpt lat="45.58956326158253" lon="11.154262524723512"><ele>507.99999999999994</ele><time>2026-04-25T09:18:07Z</time></trkpt><trkpt lat="45.58961169069082" lon="11.15413596231424"><ele>508.0</ele><time>2026-04-25T09:18:08Z</time></trkpt><trkpt lat="45.589679741636445" lon="11.15412975735892"><ele>508.0</ele><time>2026-04-25T09:18:10Z</time></trkpt><trkpt lat="45.58979726268475" lon="11.154109917926574"><ele>507.6666666666667</ele><time>2026-04-25T09:18:12Z</time></trkpt><trkpt lat="45.58986898325368" lon="11.154075486164603"><ele>507.33333333333337</ele><time>2026-04-25T09:18:13Z</time></trkpt><trkpt lat="45.58992676730393" lon="11.154013294769094"><ele>507.0</ele><time>2026-04-25T09:18:14Z</time></trkpt><trkpt lat="45.58999387896078" lon="11.153978384111767"><ele>506.66666666666663</ele><time>2026-04-25T09:18:15Z</time></trkpt><trkpt lat="45.590068519033956" lon="11.153931462373684"><ele>506.3333333333333</ele><time>2026-04-25T09:18:16Z</time></trkpt><trkpt lat="45.59014627835262" lon="11.15387012959006"><ele>506.0</ele><time>2026-04-25T09:18:17Z</time></trkpt><trkpt lat="45.59020208070237" lon="11.153816250800064"><ele>505.20000000000005</ele><time>2026-04-25T09:18:18Z</time></trkpt><trkpt lat="45.59025686117105" lon="11.15374902748768"><ele>504.40000000000003</ele><time>2026-04-25T09:18:20Z</time></trkpt><trkpt lat="45.59035957274762" lon="11.153624994878298"><ele>503.6</ele><time>2026-04-25T09:18:22Z</time></trkpt><trkpt lat="45.590436681585096" lon="11.153573549701832"><ele>502.8</ele><time>2026-04-25T09:18:23Z</time></trkpt><trkpt lat="45.59053108550797" lon="11.153518436191701"><ele>502.0</ele><time>2026-04-25T09:18:24Z</time></trkpt><trkpt lat="45.59062522744829" lon="11.153469433905487"><ele>502.0</ele><time>2026-04-25T09:18:25Z</time></trkpt><trkpt lat="45.59073705363677" lon="11.153419559942343"><ele>502.0</ele><time>2026-04-25T09:18:26Z</time></trkpt><trkpt lat="45.590863450678995" lon="11.153374160409518"><ele>502.0</ele><time>2026-04-25T09:18:27Z</time></trkpt><trkpt lat="45.59099298939544" lon="11.153327237208194"><ele>502.0</ele><time>2026-04-25T09:18:28Z</time></trkpt><trkpt lat="45.59113898933441" lon="11.15328687803241"><ele>502.5</ele><time>2026-04-25T09:18:29Z</time></trkpt><trkpt lat="45.59127915468655" lon="11.153240345692563"><ele>503.0</ele><time>2026-04-25T09:18:30Z</time></trkpt><trkpt lat="45.591411980634966" lon="11.15319392057727"><ele>503.5</ele><time>2026-04-25T09:18:31Z</time></trkpt><trkpt lat="45.59155815731991" lon="11.153146760357997"><ele>504.0</ele><time>2026-04-25T09:18:32Z</time></trkpt><trkpt lat="45.591718773257064" lon="11.153093641636703"><ele>504.0</ele><time>2026-04-25T09:18:33Z</time></trkpt><trkpt lat="45.59187328497715" lon="11.153033395921238"><ele>504.0</ele><time>2026-04-25T09:18:34Z</time></trkpt><trkpt lat="45.5920149831667" lon="11.152970020026505"><ele>504.0</ele><time>2026-04-25T09:18:35Z</time></trkpt><trkpt lat="45.59216383230414" lon="11.152899167668163"><ele>505.33333333333337</ele><time>2026-04-25T09:18:36Z</time></trkpt><trkpt lat="45.5923195329157" lon="11.152831879698082"><ele>506.6666666666667</ele><time>2026-04-25T09:18:37Z</time></trkpt><trkpt lat="45.59247491395121" lon="11.152767106577839"><ele>508.0</ele><time>2026-04-25T09:18:38Z</time></trkpt><trkpt lat="45.592613259390156" lon="11.152705534305838"><ele>508.0</ele><time>2026-04-25T09:18:39Z</time></trkpt><trkpt lat="45.59274081844449" lon="11.15264703433445"><ele>508.0</ele><time>2026-04-25T09:18:40Z</time></trkpt><trkpt lat="45.592857706138346" lon="11.152596882983316"><ele>508.0</ele><time>2026-04-25T09:18:41Z</time></trkpt><trkpt lat="45.59297368668822" lon="11.152540034261975"><ele>508.0</ele><time>2026-04-25T09:18:42Z</time></trkpt><trkpt lat="45.593111782713656" lon="11.152478295923503"><ele>507.59999999999997</ele><time>2026-04-25T09:18:43Z</time></trkpt><trkpt lat="45.593241771593576" lon="11.152417516788084"><ele>507.19999999999993</ele><time>2026-04-25T09:18:44Z</time></trkpt><trkpt lat="45.593351720818276" lon="11.152366796831876"><ele>506.8</ele><time>2026-04-25T09:18:45Z</time></trkpt><trkpt lat="45.59343099314668" lon="11.152297063224445"><ele>506.4</ele><time>2026-04-25T09:18:46Z</time></trkpt><trkpt lat="45.59349220827997" lon="11.152246433840043"><ele>506.0</ele><time>2026-04-25T09:18:47Z</time></trkpt><trkpt lat="45.593563313177924" lon="11.152177923494085"><ele>506.0</ele><time>2026-04-25T09:18:49Z</time></trkpt><trkpt lat="45.59366672229364" lon="11.152259731174771"><ele>506.0</ele><time>2026-04-25T09:18:52Z</time></trkpt><trkpt lat="45.5937590282245" lon="11.152295947364582"><ele>506.0</ele><time>2026-04-25T09:18:54Z</time></trkpt><trkpt lat="45.593843971990395" lon="11.152317561878343"><ele>506.0</ele><time>2026-04-25T09:18:55Z</time></trkpt><trkpt lat="45.593932017430014" lon="11.152347635568669"><ele>506.0</ele><time>2026-04-25T09:18:56Z</time></trkpt><trkpt lat="45.59403960960303" lon="11.152391653432497"><ele>508.75</ele><time>2026-04-25T09:18:57Z</time></trkpt><trkpt lat="45.59415748365449" lon="11.152422242676243"><ele>511.5</ele><time>2026-04-25T09:18:58Z</time></trkpt><trkpt lat="45.594296047514796" lon="11.152455960499104"><ele>514.25</ele><time>2026-04-25T09:18:59Z</time></trkpt><trkpt lat="45.5944247152806" lon="11.152486186514155"><ele>517.0</ele><time>2026-04-25T09:19:00Z</time></trkpt><trkpt lat="45.594561752378716" lon="11.15252370352992"><ele>517.0</ele><time>2026-04-25T09:19:01Z</time></trkpt><trkpt lat="45.5947024780898" lon="11.152566070596333"><ele>517.0</ele><time>2026-04-25T09:19:02Z</time></trkpt><trkpt lat="45.59483472860124" lon="11.152620660034328"><ele>517.0</ele><time>2026-04-25T09:19:03Z</time></trkpt><trkpt lat="45.59495999471622" lon="11.152673935912341"><ele>517.0</ele><time>2026-04-25T09:19:04Z</time></trkpt><trkpt lat="45.59507541798211" lon="11.152710604686579"><ele>517.0</ele><time>2026-04-25T09:19:05Z</time></trkpt><trkpt lat="45.595190762861314" lon="11.152725111554297"><ele>517.0</ele><time>2026-04-25T09:19:06Z</time></trkpt><trkpt lat="45.5953101133717" lon="11.152725054491214"><ele>517.0</ele><time>2026-04-25T09:19:07Z</time></trkpt><trkpt lat="45.595422178289816" lon="11.152691003103262"><ele>517.0</ele><time>2026-04-25T09:19:08Z</time></trkpt><trkpt lat="45.595528978636274" lon="11.152638455777835"><ele>518.4</ele><time>2026-04-25T09:19:09Z</time></trkpt><trkpt lat="45.595635967081684" lon="11.152573657013114"><ele>519.8000000000001</ele><time>2026-04-25T09:19:10Z</time></trkpt><trkpt lat="45.59575346785306" lon="11.152520042896588"><ele>521.2</ele><time>2026-04-25T09:19:11Z</time></trkpt><trkpt lat="45.595858833765845" lon="11.152510575012654"><ele>522.6</ele><time>2026-04-25T09:19:12Z</time></trkpt><trkpt lat="45.595953569429646" lon="11.152559995307444"><ele>524.0</ele><time>2026-04-25T09:19:13Z</time></trkpt><trkpt lat="45.596021948723454" lon="11.152682835759977"><ele>524.0</ele><time>2026-04-25T09:19:14Z</time></trkpt><trkpt lat="45.59608137112581" lon="11.152821409176184"><ele>524.0</ele><time>2026-04-25T09:19:15Z</time></trkpt><trkpt lat="45.59616577521894" lon="11.15296692929"><ele>524.0</ele><time>2026-04-25T09:19:16Z</time></trkpt><trkpt lat="45.596231235938625" lon="11.153137860253418"><ele>524.0</ele><time>2026-04-25T09:19:17Z</time></trkpt><trkpt lat="45.596326931275016" lon="11.153285070060374"><ele>529.6666666666666</ele><time>2026-04-25T09:19:18Z</time></trkpt><trkpt lat="45.59646143022783" lon="11.153406186873138"><ele>535.3333333333334</ele><time>2026-04-25T09:19:19Z</time></trkpt><trkpt lat="45.596611422097816" lon="11.153490278130985"><ele>541.0</ele><time>2026-04-25T09:19:20Z</time></trkpt><trkpt lat="45.59675707389256" lon="11.153558143162861"><ele>541.0</ele><time>2026-04-25T09:19:21Z</time></trkpt><trkpt lat="45.596864258712564" lon="11.153622492412136"><ele>541.0</ele><time>2026-04-25T09:19:22Z</time></trkpt><trkpt lat="45.596946853325655" lon="11.153694931171625"><ele>541.0</ele><time>2026-04-25T09:19:23Z</time></trkpt><trkpt lat="45.59700273331572" lon="11.153781627963046"><ele>541.0</ele><time>2026-04-25T09:19:24Z</time></trkpt><trkpt lat="45.59703267033359" lon="11.153869338510562"><ele>541.0</ele><time>2026-04-25T09:19:25Z</time></trkpt><trkpt lat="45.5970959333224" lon="11.153947328524582"><ele>541.0</ele><time>2026-04-25T09:19:27Z</time></trkpt><trkpt lat="45.59704911323082" lon="11.15386833985572"><ele>541.0</ele><time>2026-04-25T09:19:30Z</time></trkpt><trkpt lat="45.59698789344556" lon="11.153808906352259"><ele>541.0</ele><time>2026-04-25T09:19:31Z</time></trkpt><trkpt lat="45.59701137749372" lon="11.153610910765613"><ele>541.0</ele><time>2026-04-25T09:19:32Z</time></trkpt><trkpt lat="45.59696487235659" lon="11.15351074341971"><ele>541.0</ele><time>2026-04-25T09:19:33Z</time></trkpt><trkpt lat="45.5969282427989" lon="11.153416455004042"><ele>541.0</ele><time>2026-04-25T09:19:34Z</time></trkpt><trkpt lat="45.5969024907276" lon="11.153305092986743"><ele>543.4</ele><time>2026-04-25T09:19:35Z</time></trkpt><trkpt lat="45.596871760321726" lon="11.15317458676214"><ele>545.8</ele><time>2026-04-25T09:19:36Z</time></trkpt><trkpt lat="45.596821976728144" lon="11.153050985618368"><ele>548.1999999999999</ele><time>2026-04-25T09:19:37Z</time></trkpt><trkpt lat="45.59676403868455" lon="11.152936981434301"><ele>550.6</ele><time>2026-04-25T09:19:38Z</time></trkpt><trkpt lat="45.59671159273717" lon="11.152843162140709"><ele>553.0</ele><time>2026-04-25T09:19:39Z</time></trkpt><trkpt lat="45.596657549674234" lon="11.152737356951214"><ele>553.0</ele><time>2026-04-25T09:19:40Z</time></trkpt><trkpt lat="45.596602979539405" lon="11.152639745007498"><ele>553.0</ele><time>2026-04-25T09:19:41Z</time></trkpt><trkpt lat="45.59656437579256" lon="11.152545017144224"><ele>553.0</ele><time>2026-04-25T09:19:42Z</time></trkpt><trkpt lat="45.596546170316124" lon="11.152444047355763"><ele>553.0</ele><time>2026-04-25T09:19:43Z</time></trkpt><trkpt lat="45.596561372696236" lon="11.152307361926336"><ele>553.0</ele><time>2026-04-25T09:19:45Z</time></trkpt><trkpt lat="45.59665292460763" lon="11.152265024868555"><ele>553.0</ele><time>2026-04-25T09:19:47Z</time></trkpt><trkpt lat="45.59672638472142" lon="11.152390936807642"><ele>553.0</ele><time>2026-04-25T09:19:49Z</time></trkpt><trkpt lat="45.59676009027403" lon="11.152490723875832"><ele>553.0</ele><time>2026-04-25T09:19:50Z</time></trkpt><trkpt lat="45.59681549172117" lon="11.152576063500517"><ele>553.0</ele><time>2026-04-25T09:19:51Z</time></trkpt><trkpt lat="45.596882041149414" lon="11.152641674517655"><ele>553.0</ele><time>2026-04-25T09:19:52Z</time></trkpt><trkpt lat="45.59695070451632" lon="11.15271817225459"><ele>553.0</ele><time>2026-04-25T09:19:53Z</time></trkpt><trkpt lat="45.59701302509485" lon="11.152777203233137"><ele>553.0</ele><time>2026-04-25T09:19:54Z</time></trkpt><trkpt lat="45.59707784645863" lon="11.15283532442905"><ele>556.1666666666667</ele><time>2026-04-25T09:19:55Z</time></trkpt><trkpt lat="45.59712748798788" lon="11.152891429585646"><ele>559.3333333333334</ele><time>2026-04-25T09:19:56Z</time></trkpt><trkpt lat="45.59718557974769" lon="11.152949098909742"><ele>562.5</ele><time>2026-04-25T09:19:57Z</time></trkpt><trkpt lat="45.5972865899347" lon="11.153047798766787"><ele>565.6666666666666</ele><time>2026-04-25T09:19:59Z</time></trkpt><trkpt lat="45.59735535088888" lon="11.153102273370754"><ele>568.8333333333333</ele><time>2026-04-25T09:20:00Z</time></trkpt><trkpt lat="45.597422787395146" lon="11.153154095431741"><ele>572.0</ele><time>2026-04-25T09:20:01Z</time></trkpt><trkpt lat="45.5975052293357" lon="11.153204095287395"><ele>572.0</ele><time>2026-04-25T09:20:03Z</time></trkpt><trkpt lat="45.59756804584743" lon="11.153157357744549"><ele>572.0</ele><time>2026-04-25T09:20:06Z</time></trkpt><trkpt lat="45.597571918889614" lon="11.153059676487224"><ele>572.0</ele><time>2026-04-25T09:20:53Z</time></trkpt><trkpt lat="45.597599548324474" lon="11.152875975208751"><ele>572.0</ele><time>2026-04-25T09:20:55Z</time></trkpt><trkpt lat="45.59759230390376" lon="11.152726903921163"><ele>572.0</ele><time>2026-04-25T09:20:57Z</time></trkpt><trkpt lat="45.597590404723526" lon="11.152615915219506"><ele>572.0</ele><time>2026-04-25T09:20:59Z</time></trkpt><trkpt lat="45.597577280716465" lon="11.152484286573069"><ele>572.0</ele><time>2026-04-25T09:21:01Z</time></trkpt><trkpt lat="45.59773931900461" lon="11.152339916145348"><ele>572.0</ele><time>2026-04-25T09:21:03Z</time></trkpt><trkpt lat="45.59776774950744" lon="11.152187251862944"><ele>572.0</ele><time>2026-04-25T09:21:05Z</time></trkpt><trkpt lat="45.59778585671424" lon="11.152028742019723"><ele>570.0</ele><time>2026-04-25T09:21:07Z</time></trkpt><trkpt lat="45.59777689535384" lon="11.151908236952252"><ele>568.0</ele><time>2026-04-25T09:21:09Z</time></trkpt><trkpt lat="45.597792795178385" lon="11.151792988926596"><ele>566.0</ele><time>2026-04-25T09:21:11Z</time></trkpt><trkpt lat="45.59788888759407" lon="11.151710806480482"><ele>564.0</ele><time>2026-04-25T09:21:13Z</time></trkpt><trkpt lat="45.59794519613515" lon="11.151664675634178"><ele>562.0</ele><time>2026-04-25T09:21:14Z</time></trkpt><trkpt lat="45.598047869357714" lon="11.151569325039304"><ele>565.6</ele><time>2026-04-25T09:21:16Z</time></trkpt><trkpt lat="45.598133529599906" lon="11.151485685673876"><ele>569.2</ele><time>2026-04-25T09:21:18Z</time></trkpt><trkpt lat="45.598186905158805" lon="11.151418432416268"><ele>572.8</ele><time>2026-04-25T09:21:20Z</time></trkpt><trkpt lat="45.598247266079625" lon="11.151276316069374"><ele>576.4</ele><time>2026-04-25T09:21:22Z</time></trkpt><trkpt lat="45.59829950813458" lon="11.15120025327701"><ele>580.0</ele><time>2026-04-25T09:21:23Z</time></trkpt><trkpt lat="45.59837389047522" lon="11.151066785858136"><ele>580.0</ele><time>2026-04-25T09:21:25Z</time></trkpt><trkpt lat="45.598469818593124" lon="11.150966516536853"><ele>580.0</ele><time>2026-04-25T09:21:27Z</time></trkpt><trkpt lat="45.59852568221773" lon="11.150837253171048"><ele>580.0</ele><time>2026-04-25T09:21:29Z</time></trkpt><trkpt lat="45.598558344284264" lon="11.150757021381661"><ele>580.0</ele><time>2026-04-25T09:21:30Z</time></trkpt><trkpt lat="45.59862562460916" lon="11.150612623187158"><ele>580.0</ele><time>2026-04-25T09:21:32Z</time></trkpt><trkpt lat="45.59865736914264" lon="11.150518659974988"><ele>582.0</ele><time>2026-04-25T09:21:33Z</time></trkpt><trkpt lat="45.59869435095912" lon="11.150426559205252"><ele>584.0</ele><time>2026-04-25T09:21:34Z</time></trkpt><trkpt lat="45.59872815582343" lon="11.150337958020744"><ele>586.0</ele><time>2026-04-25T09:21:35Z</time></trkpt><trkpt lat="45.59879977685037" lon="11.150216174948897"><ele>588.0</ele><time>2026-04-25T09:21:37Z</time></trkpt><trkpt lat="45.59884738429685" lon="11.15009196589603"><ele>590.0</ele><time>2026-04-25T09:21:39Z</time></trkpt><trkpt lat="45.59889902517946" lon="11.150000788238426"><ele>592.0</ele><time>2026-04-25T09:21:41Z</time></trkpt><trkpt lat="45.59900724791565" lon="11.149961393259739"><ele>587.3333333333334</ele><time>2026-04-25T09:21:43Z</time></trkpt><trkpt lat="45.599082522190564" lon="11.149862392831771"><ele>582.6666666666667</ele><time>2026-04-25T09:21:45Z</time></trkpt><trkpt lat="45.59916334950053" lon="11.149795853825474"><ele>578.0</ele><time>2026-04-25T09:21:47Z</time></trkpt><trkpt lat="45.59922254861475" lon="11.149742978800196"><ele>573.3333333333334</ele><time>2026-04-25T09:21:49Z</time></trkpt><trkpt lat="45.59929833294745" lon="11.149728380883182"><ele>568.6666666666666</ele><time>2026-04-25T09:21:51Z</time></trkpt><trkpt lat="45.599365401745374" lon="11.149651913246798"><ele>564.0</ele><time>2026-04-25T09:21:54Z</time></trkpt><trkpt lat="45.5994097943315" lon="11.149552371055293"><ele>564.0</ele><time>2026-04-25T09:21:56Z</time></trkpt><trkpt lat="45.59946625775785" lon="11.149498812941033"><ele>564.0</ele><time>2026-04-25T09:22:02Z</time></trkpt><trkpt lat="45.59953432639493" lon="11.149447081500414"><ele>564.0</ele><time>2026-04-25T09:22:05Z</time></trkpt><trkpt lat="45.59962287097906" lon="11.149358868630738"><ele>564.0</ele><time>2026-04-25T09:22:07Z</time></trkpt><trkpt lat="45.59970255163231" lon="11.149262272640621"><ele>564.0</ele><time>2026-04-25T09:22:09Z</time></trkpt><trkpt lat="45.599754476270064" lon="11.149165344363459"><ele>564.0</ele><time>2026-04-25T09:22:13Z</time></trkpt><trkpt lat="45.599787616798004" lon="11.149047228809348"><ele>565.5</ele><time>2026-04-25T09:22:15Z</time></trkpt><trkpt lat="45.5998474313371" lon="11.148955290899508"><ele>567.0</ele><time>2026-04-25T09:22:17Z</time></trkpt><trkpt lat="45.59989762261181" lon="11.148862599463047"><ele>568.5</ele><time>2026-04-25T09:22:19Z</time></trkpt><trkpt lat="45.59993484872542" lon="11.148782678257678"><ele>570.0</ele><time>2026-04-25T09:22:22Z</time></trkpt><trkpt lat="45.59997609060163" lon="11.148695174591877"><ele>571.5</ele><time>2026-04-25T09:22:24Z</time></trkpt><trkpt lat="45.60002592684539" lon="11.148612815703768"><ele>573.0</ele><time>2026-04-25T09:22:27Z</time></trkpt><trkpt lat="45.600107552210126" lon="11.148540874876767"><ele>573.0</ele><time>2026-04-25T09:22:30Z</time></trkpt><trkpt lat="45.600192669386225" lon="11.148535972164915"><ele>573.0</ele><time>2026-04-25T09:22:32Z</time></trkpt><trkpt lat="45.60026544219184" lon="11.148533803325087"><ele>573.0</ele><time>2026-04-25T09:22:35Z</time></trkpt><trkpt lat="45.600358431498925" lon="11.148549120202103"><ele>573.0</ele><time>2026-04-25T09:22:38Z</time></trkpt><trkpt lat="45.60051882050545" lon="11.148549162609592"><ele>573.0</ele><time>2026-04-25T09:26:18Z</time></trkpt><trkpt lat="45.600612597978675" lon="11.14854594743954"><ele>576.8333333333334</ele><time>2026-04-25T09:26:33.001Z</time></trkpt><trkpt lat="45.600690589723236" lon="11.148487735591349"><ele>580.6666666666666</ele><time>2026-04-25T09:26:36.001Z</time></trkpt><trkpt lat="45.60074773545788" lon="11.148427275854965"><ele>584.5</ele><time>2026-04-25T09:26:41Z</time></trkpt><trkpt lat="45.600825249929606" lon="11.148351113098178"><ele>588.3333333333333</ele><time>2026-04-25T09:26:46Z</time></trkpt><trkpt lat="45.600888010780615" lon="11.148333938201336"><ele>592.1666666666666</ele><time>2026-04-25T09:26:58Z</time></trkpt><trkpt lat="45.60095411690912" lon="11.148333732701195"><ele>596.0</ele><time>2026-04-25T09:27:02Z</time></trkpt><trkpt lat="45.60103920951403" lon="11.148344397299669"><ele>596.0</ele><time>2026-04-25T09:27:11Z</time></trkpt><trkpt lat="45.6011321206126" lon="11.148347444139079"><ele>596.0</ele><time>2026-04-25T09:27:14Z</time></trkpt><trkpt lat="45.60121191675172" lon="11.148385267211731"><ele>596.0</ele><time>2026-04-25T09:27:16Z</time></trkpt><trkpt lat="45.601284568553275" lon="11.148399254550643"><ele>596.0</ele><time>2026-04-25T09:27:19Z</time></trkpt><trkpt lat="45.601354381113126" lon="11.148450335180723"><ele>596.0</ele><time>2026-04-25T09:27:23Z</time></trkpt><trkpt lat="45.60141589661885" lon="11.148481460745435"><ele>596.0</ele><time>2026-04-25T09:27:35Z</time></trkpt><trkpt lat="45.601523598221775" lon="11.148482840447146"><ele>595.75</ele><time>2026-04-25T09:28:16Z</time></trkpt><trkpt lat="45.60160216352344" lon="11.148468053390994"><ele>595.5</ele><time>2026-04-25T09:28:47Z</time></trkpt><trkpt lat="45.6017030963275" lon="11.148483940892309"><ele>595.25</ele><time>2026-04-25T09:29:28Z</time></trkpt><trkpt lat="45.60180838658321" lon="11.148496011375649"><ele>595.0</ele><time>2026-04-25T09:29:35Z</time></trkpt><trkpt lat="45.60197759330758" lon="11.148484891965714"><ele>596.5</ele><time>2026-04-25T09:29:41Z</time></trkpt><trkpt lat="45.60206128641509" lon="11.1484526132816"><ele>598.0</ele><time>2026-04-25T09:29:44Z</time></trkpt><trkpt lat="45.6021266830849" lon="11.148436913282941"><ele>599.5</ele><time>2026-04-25T09:29:45Z</time></trkpt><trkpt lat="45.60219081103276" lon="11.148426999952747"><ele>601.0</ele><time>2026-04-25T09:29:46Z</time></trkpt><trkpt lat="45.60225786176045" lon="11.148401343439616"><ele>602.5</ele><time>2026-04-25T09:29:47Z</time></trkpt><trkpt lat="45.60234643470846" lon="11.148349792317735"><ele>604.0</ele><time>2026-04-25T09:29:49Z</time></trkpt><trkpt lat="45.602419180145546" lon="11.14829023685133"><ele>604.0</ele><time>2026-04-25T09:29:51Z</time></trkpt><trkpt lat="45.602510765337826" lon="11.148190847561386"><ele>604.0</ele><time>2026-04-25T09:29:53Z</time></trkpt><trkpt lat="45.60257447663722" lon="11.148204149754104"><ele>604.0</ele><time>2026-04-25T09:30:09Z</time></trkpt><trkpt lat="45.60255017293781" lon="11.148301965084903"><ele>604.0</ele><time>2026-04-25T09:30:13Z</time></trkpt><trkpt lat="45.602507708084424" lon="11.1483776300512"><ele>604.0</ele><time>2026-04-25T09:30:25Z</time></trkpt><trkpt lat="45.60244769120119" lon="11.14846325354627"><ele>604.0</ele><time>2026-04-25T09:30:33Z</time></trkpt><trkpt lat="45.602407805199654" lon="11.148538830546478"><ele>604.0</ele><time>2026-04-25T09:31:36Z</time></trkpt><trkpt lat="45.60238150779529" lon="11.148626299679577"><ele>604.0</ele><time>2026-04-25T09:31:51Z</time></trkpt><trkpt lat="45.60236281778543" lon="11.148715514094736"><ele>604.0</ele><time>2026-04-25T09:32:01Z</time></trkpt><trkpt lat="45.60228880216591" lon="11.148746642730359"><ele>604.0</ele><time>2026-04-25T09:32:32.999Z</time></trkpt><trkpt lat="45.602205199498854" lon="11.14879087360197"><ele>604.0</ele><time>2026-04-25T09:32:37.999Z</time></trkpt><trkpt lat="45.60211619766899" lon="11.148779429486165"><ele>604.0</ele><time>2026-04-25T09:32:40.999Z</time></trkpt><trkpt lat="45.60204006464537" lon="11.14879961060766"><ele>602.5</ele><time>2026-04-25T09:32:43.999Z</time></trkpt><trkpt lat="45.60197222204617" lon="11.148816822070193"><ele>601.0</ele><time>2026-04-25T09:32:46.999Z</time></trkpt><trkpt lat="45.60189916665237" lon="11.1488141047453"><ele>599.5</ele><time>2026-04-25T09:32:52Z</time></trkpt><trkpt lat="45.60183541496652" lon="11.14885738077039"><ele>598.0</ele><time>2026-04-25T09:32:54Z</time></trkpt><trkpt lat="45.60175353017345" lon="11.148892086629173"><ele>596.5</ele><time>2026-04-25T09:32:58Z</time></trkpt><trkpt lat="45.601689553722146" lon="11.14888946037189"><ele>595.0</ele><time>2026-04-25T09:33:01Z</time></trkpt><trkpt lat="45.60159119791904" lon="11.148870314656644"><ele>595.0</ele><time>2026-04-25T09:33:05Z</time></trkpt><trkpt lat="45.601505318426845" lon="11.148859135031095"><ele>595.0</ele><time>2026-04-25T09:33:07Z</time></trkpt><trkpt lat="45.60143802101786" lon="11.148862147072775"><ele>595.0</ele><time>2026-04-25T09:33:09Z</time></trkpt><trkpt lat="45.601348173346466" lon="11.148860200031049"><ele>595.0</ele><time>2026-04-25T09:33:13Z</time></trkpt><trkpt lat="45.60127614372934" lon="11.148887705885873"><ele>595.0</ele><time>2026-04-25T09:33:15Z</time></trkpt><trkpt lat="45.601200624688026" lon="11.14892006157327"><ele>595.0</ele><time>2026-04-25T09:33:18Z</time></trkpt><trkpt lat="45.601134387198194" lon="11.148958603765648"><ele>595.1666666666667</ele><time>2026-04-25T09:33:21Z</time></trkpt><trkpt lat="45.601070967265485" lon="11.148961087187127"><ele>595.3333333333334</ele><time>2026-04-25T09:33:48Z</time></trkpt><trkpt lat="45.601004674208546" lon="11.149026151665588"><ele>595.5</ele><time>2026-04-25T09:33:52Z</time></trkpt><trkpt lat="45.60094578258375" lon="11.149098460421413"><ele>595.6666666666666</ele><time>2026-04-25T09:34:09Z</time></trkpt><trkpt lat="45.600871439363864" lon="11.149159950492024"><ele>595.8333333333333</ele><time>2026-04-25T09:34:11Z</time></trkpt><trkpt lat="45.600784826965985" lon="11.149181707570328"><ele>596.0</ele><time>2026-04-25T09:34:13Z</time></trkpt><trkpt lat="45.60071989685803" lon="11.14921840381486"><ele>603.0</ele><time>2026-04-25T09:34:16Z</time></trkpt><trkpt lat="45.60065606912427" lon="11.14925640750108"><ele>610.0</ele><time>2026-04-25T09:34:19Z</time></trkpt><trkpt lat="45.60059762483757" lon="11.149303091942405"><ele>617.0</ele><time>2026-04-25T09:34:44.999Z</time></trkpt><trkpt lat="45.600532304845665" lon="11.149362074856542"><ele>624.0</ele><time>2026-04-25T09:41:47Z</time></trkpt><trkpt lat="45.600457910077864" lon="11.149474744140152"><ele>631.0</ele><time>2026-04-25T09:41:52Z</time></trkpt><trkpt lat="45.60044975423439" lon="11.14956604772119"><ele>638.0</ele><time>2026-04-25T09:41:54Z</time></trkpt><trkpt lat="45.60044029068152" lon="11.149683709434653"><ele>638.0</ele><time>2026-04-25T09:42:00Z</time></trkpt><trkpt lat="45.60040419358932" lon="11.149767958569551"><ele>638.0</ele><time>2026-04-25T09:42:03Z</time></trkpt><trkpt lat="45.600356209730094" lon="11.149829410134052"><ele>638.0</ele><time>2026-04-25T09:42:05Z</time></trkpt><trkpt lat="45.60033981098106" lon="11.149920455234135"><ele>638.0</ele><time>2026-04-25T09:42:07Z</time></trkpt><trkpt lat="45.600339366627075" lon="11.150024225463852"><ele>638.0</ele><time>2026-04-25T09:42:11Z</time></trkpt><trkpt lat="45.60030996031383" lon="11.150156757342554"><ele>638.0</ele><time>2026-04-25T09:42:22.999Z</time></trkpt><trkpt lat="45.60031362240521" lon="11.150256439749356"><ele>638.0</ele><time>2026-04-25T09:42:34.999Z</time></trkpt><trkpt lat="45.60032921829114" lon="11.150371289751055"><ele>637.1666666666666</ele><time>2026-04-25T09:42:49.999Z</time></trkpt><trkpt lat="45.60030672453203" lon="11.150491870717948"><ele>636.3333333333333</ele><time>2026-04-25T09:42:51.999Z</time></trkpt><trkpt lat="45.600264070264025" lon="11.15059348515627"><ele>635.5</ele><time>2026-04-25T09:43:02.999Z</time></trkpt><trkpt lat="45.60023944998069" lon="11.150707738960493"><ele>634.6666666666666</ele><time>2026-04-25T09:43:08.999Z</time></trkpt><trkpt lat="45.60030804013726" lon="11.150752535550486"><ele>633.8333333333334</ele><time>2026-04-25T09:43:13.999Z</time></trkpt><trkpt lat="45.60037423848492" lon="11.150819191594115"><ele>633.0</ele><time>2026-04-25T09:43:15.999Z</time></trkpt><trkpt lat="45.60044146487503" lon="11.15081921364372"><ele>643.0</ele><time>2026-04-25T09:43:19Z</time></trkpt><trkpt lat="45.60051943887755" lon="11.15083645892491"><ele>653.0</ele><time>2026-04-25T09:43:56Z</time></trkpt><trkpt lat="45.6005772841535" lon="11.150880428054398"><ele>663.0</ele><time>2026-04-25T09:44:02Z</time></trkpt><trkpt lat="45.600540259752826" lon="11.150958230125962"><ele>673.0</ele><time>2026-04-25T09:44:39.999Z</time></trkpt><trkpt lat="45.600498470125096" lon="11.151033423883083"><ele>683.0</ele><time>2026-04-25T09:46:11Z</time></trkpt><trkpt lat="45.6005583990068" lon="11.151088955114254"><ele>693.0</ele><time>2026-04-25T09:48:26.999Z</time></trkpt><trkpt lat="45.60056759376088" lon="11.151178928649271"><ele>703.0</ele><time>2026-04-25T09:48:47.999Z</time></trkpt><trkpt lat="45.60052539430823" lon="11.151248061275794"><ele>703.0</ele><time>2026-04-25T09:48:50.999Z</time></trkpt><trkpt lat="45.6004930519233" lon="11.151332880382089"><ele>703.0</ele><time>2026-04-25T09:48:57.999Z</time></trkpt><trkpt lat="45.600447311855866" lon="11.151410207208691"><ele>703.0</ele><time>2026-04-25T09:49:02.999Z</time></trkpt><trkpt lat="45.600395634366656" lon="11.1515128367897"><ele>703.0</ele><time>2026-04-25T09:49:37Z</time></trkpt><trkpt lat="45.60037736311837" lon="11.151604669702616"><ele>703.0</ele><time>2026-04-25T09:49:41Z</time></trkpt><trkpt lat="45.600332266024324" lon="11.151672721055938"><ele>703.0</ele><time>2026-04-25T09:49:43Z</time></trkpt><trkpt lat="45.60027067633743" lon="11.151783125680186"><ele>701.7142857142857</ele><time>2026-04-25T09:49:46Z</time></trkpt><trkpt lat="45.600257281125785" lon="11.151872413946409"><ele>700.4285714285714</ele><time>2026-04-25T09:49:48Z</time></trkpt><trkpt lat="45.60026447856783" lon="11.151965357006429"><ele>699.1428571428571</ele><time>2026-04-25T09:49:52Z</time></trkpt><trkpt lat="45.60026867215654" lon="11.152059700684676"><ele>697.8571428571429</ele><time>2026-04-25T09:49:59Z</time></trkpt><trkpt lat="45.60029754934562" lon="11.15214446695413"><ele>696.5714285714286</ele><time>2026-04-25T09:50:17Z</time></trkpt><trkpt lat="45.60031616727236" lon="11.152243086709392"><ele>695.2857142857143</ele><time>2026-04-25T09:50:38.999Z</time></trkpt><trkpt lat="45.60030159491982" lon="11.152342235594162"><ele>694.0</ele><time>2026-04-25T09:50:47.999Z</time></trkpt><trkpt lat="45.60027710802485" lon="11.152426369377414"><ele>694.0</ele><time>2026-04-25T09:50:51.999Z</time></trkpt><trkpt lat="45.600280780447875" lon="11.15252968401391"><ele>694.0</ele><time>2026-04-25T09:50:56.999Z</time></trkpt><trkpt lat="45.600302730023024" lon="11.152642463487851"><ele>694.0</ele><time>2026-04-25T09:51:03.999Z</time></trkpt><trkpt lat="45.60035591638593" lon="11.152704444364998"><ele>694.0</ele><time>2026-04-25T09:51:06.999Z</time></trkpt><trkpt lat="45.600442548755794" lon="11.152803821621694"><ele>694.0</ele><time>2026-04-25T09:51:09.999Z</time></trkpt><trkpt lat="45.60051269483723" lon="11.152875347849779"><ele>694.0</ele><time>2026-04-25T09:51:11.999Z</time></trkpt><trkpt lat="45.60058747350786" lon="11.152952100493263"><ele>700.6</ele><time>2026-04-25T09:51:13.999Z</time></trkpt><trkpt lat="45.60068697585972" lon="11.15300838091906"><ele>707.2</ele><time>2026-04-25T09:51:15.999Z</time></trkpt><trkpt lat="45.60080269552795" lon="11.15306881474953"><ele>713.8000000000001</ele><time>2026-04-25T09:51:17.999Z</time></trkpt><trkpt lat="45.60086632938079" lon="11.153104461232548"><ele>720.4000000000001</ele><time>2026-04-25T09:51:18.999Z</time></trkpt><trkpt lat="45.600926796553125" lon="11.153144844529551"><ele>727.0</ele><time>2026-04-25T09:51:19.999Z</time></trkpt><trkpt lat="45.60101799217672" lon="11.153249719087546"><ele>727.0</ele><time>2026-04-25T09:51:21.999Z</time></trkpt><trkpt lat="45.601139634126774" lon="11.153328045102363"><ele>727.0</ele><time>2026-04-25T09:51:23.999Z</time></trkpt><trkpt lat="45.60119870935988" lon="11.153370373315235"><ele>727.0</ele><time>2026-04-25T09:51:24.999Z</time></trkpt><trkpt lat="45.601252910116905" lon="11.153422466102423"><ele>727.0</ele><time>2026-04-25T09:51:25.999Z</time></trkpt><trkpt lat="45.60135603136473" lon="11.153543589988532"><ele>727.0</ele><time>2026-04-25T09:51:27.999Z</time></trkpt><trkpt lat="45.601411719936884" lon="11.153608178161116"><ele>730.8</ele><time>2026-04-25T09:51:28.999Z</time></trkpt><trkpt lat="45.601528750377504" lon="11.153701324617282"><ele>734.6</ele><time>2026-04-25T09:51:30.999Z</time></trkpt><trkpt lat="45.60158460914268" lon="11.153751934288108"><ele>738.4</ele><time>2026-04-25T09:51:31.999Z</time></trkpt><trkpt lat="45.60165716331342" lon="11.153873058552243"><ele>742.1999999999999</ele><time>2026-04-25T09:51:33.999Z</time></trkpt><trkpt lat="45.601707619433334" lon="11.154031309095199"><ele>746.0</ele><time>2026-04-25T09:51:35.999Z</time></trkpt><trkpt lat="45.60173738233471" lon="11.154121125164732"><ele>746.0</ele><time>2026-04-25T09:51:36.999Z</time></trkpt><trkpt lat="45.60180401614957" lon="11.154285747226206"><ele>746.0</ele><time>2026-04-25T09:51:39Z</time></trkpt><trkpt lat="45.60181473280168" lon="11.154411160234854"><ele>746.0</ele><time>2026-04-25T09:51:41Z</time></trkpt><trkpt lat="45.60176477414115" lon="11.154566019742202"><ele>746.0</ele><time>2026-04-25T09:51:43Z</time></trkpt><trkpt lat="45.60172735443008" lon="11.154705435891353"><ele>746.0</ele><time>2026-04-25T09:51:45Z</time></trkpt><trkpt lat="45.601737334860005" lon="11.154877542094765"><ele>747.0</ele><time>2026-04-25T09:54:38.999Z</time></trkpt><trkpt lat="45.60170591245303" lon="11.155053383330282"><ele>748.0</ele><time>2026-04-25T09:54:40.999Z</time></trkpt><trkpt lat="45.601679940527845" lon="11.155153027446508"><ele>749.0</ele><time>2026-04-25T09:54:41.999Z</time></trkpt><trkpt lat="45.60162933663109" lon="11.155286185839604"><ele>750.0</ele><time>2026-04-25T09:54:43.999Z</time></trkpt><trkpt lat="45.60161527236411" lon="11.155451646367029"><ele>751.0</ele><time>2026-04-25T09:54:45.999Z</time></trkpt><trkpt lat="45.601618843975835" lon="11.155579613749243"><ele>751.0</ele><time>2026-04-25T09:54:46.999Z</time></trkpt><trkpt lat="45.601577636025745" lon="11.155674928300545"><ele>751.0</ele><time>2026-04-25T09:54:47.999Z</time></trkpt><trkpt lat="45.60154612128175" lon="11.155774122304758"><ele>751.0</ele><time>2026-04-25T09:54:48.999Z</time></trkpt><trkpt lat="45.601512293020214" lon="11.155896522946753"><ele>751.0</ele><time>2026-04-25T09:54:49.999Z</time></trkpt><trkpt lat="45.601452759878825" lon="11.155995104186678"><ele>751.0</ele><time>2026-04-25T09:54:50.999Z</time></trkpt><trkpt lat="45.601402475897984" lon="11.156094669179117"><ele>751.0</ele><time>2026-04-25T09:54:51.999Z</time></trkpt><trkpt lat="45.60135133929096" lon="11.156185253996957"><ele>755.1999999999999</ele><time>2026-04-25T09:54:52.999Z</time></trkpt><trkpt lat="45.60128321887228" lon="11.156251292620604"><ele>759.4</ele><time>2026-04-25T09:54:53.999Z</time></trkpt><trkpt lat="45.60121523098165" lon="11.156380727903501"><ele>763.6</ele><time>2026-04-25T09:54:55.999Z</time></trkpt><trkpt lat="45.60122557222702" lon="11.156543410904076"><ele>767.8</ele><time>2026-04-25T09:54:57.999Z</time></trkpt><trkpt lat="45.60131953932207" lon="11.156678372933406"><ele>772.0</ele><time>2026-04-25T09:54:59.999Z</time></trkpt><trkpt lat="45.60138593977677" lon="11.156711457044732"><ele>772.4999999999999</ele><time>2026-04-25T09:55:00.999Z</time></trkpt><trkpt lat="45.60145184899732" lon="11.156714395447246"><ele>773.0</ele><time>2026-04-25T09:55:01.999Z</time></trkpt><trkpt lat="45.60151177972389" lon="11.156777979963481"><ele>773.5</ele><time>2026-04-25T09:55:02.999Z</time></trkpt><trkpt lat="45.601572439558176" lon="11.15682460625149"><ele>774.0</ele><time>2026-04-25T09:55:03.999Z</time></trkpt><trkpt lat="45.60166209058224" lon="11.156893785389578"><ele>774.4999999999999</ele><time>2026-04-25T09:55:04.999Z</time></trkpt><trkpt lat="45.60173723428609" lon="11.156931926757862"><ele>775.0</ele><time>2026-04-25T09:55:05.999Z</time></trkpt><trkpt lat="45.60185528965777" lon="11.15697835261019"><ele>775.0</ele><time>2026-04-25T09:55:06.999Z</time></trkpt><trkpt lat="45.601937153679444" lon="11.157023494119374"><ele>775.0</ele><time>2026-04-25T09:55:07.999Z</time></trkpt><trkpt lat="45.6020194948498" lon="11.157070674320389"><ele>775.0</ele><time>2026-04-25T09:55:08.999Z</time></trkpt><trkpt lat="45.60211261466557" lon="11.15710428641197"><ele>775.0</ele><time>2026-04-25T09:55:09.999Z</time></trkpt><trkpt lat="45.602183242582115" lon="11.157169384773832"><ele>775.0</ele><time>2026-04-25T09:55:10.999Z</time></trkpt><trkpt lat="45.60226387731328" lon="11.15724850014387"><ele>776.2</ele><time>2026-04-25T09:55:11.999Z</time></trkpt><trkpt lat="45.60233903012391" lon="11.157350583179136"><ele>777.4</ele><time>2026-04-25T09:55:12.999Z</time></trkpt><trkpt lat="45.60241106899538" lon="11.15744136617329"><ele>778.5999999999999</ele><time>2026-04-25T09:55:13.999Z</time></trkpt><trkpt lat="45.60249064410574" lon="11.157504533876436"><ele>779.8</ele><time>2026-04-25T09:55:14.999Z</time></trkpt><trkpt lat="45.60258122910395" lon="11.157607945853112"><ele>781.0</ele><time>2026-04-25T09:55:15.999Z</time></trkpt><trkpt lat="45.60266777035689" lon="11.157679856617811"><ele>781.0</ele><time>2026-04-25T09:55:16.999Z</time></trkpt><trkpt lat="45.602777606021526" lon="11.157748490874951"><ele>781.0</ele><time>2026-04-25T09:55:17.999Z</time></trkpt><trkpt lat="45.6028529441364" lon="11.15781030031127"><ele>781.0</ele><time>2026-04-25T09:55:18.999Z</time></trkpt><trkpt lat="45.60293452435191" lon="11.157884023450638"><ele>781.0</ele><time>2026-04-25T09:55:19.999Z</time></trkpt><trkpt lat="45.603002061485405" lon="11.157990434222244"><ele>781.0</ele><time>2026-04-25T09:55:20.999Z</time></trkpt><trkpt lat="45.60306435788083" lon="11.158099650608198"><ele>783.3333333333333</ele><time>2026-04-25T09:55:21.999Z</time></trkpt><trkpt lat="45.60310136066455" lon="11.158214234858248"><ele>785.6666666666666</ele><time>2026-04-25T09:55:22.999Z</time></trkpt><trkpt lat="45.603137266798214" lon="11.158326293010502"><ele>788.0</ele><time>2026-04-25T09:55:23.999Z</time></trkpt><trkpt lat="45.603199768618914" lon="11.158401580520973"><ele>790.3333333333333</ele><time>2026-04-25T09:55:24.999Z</time></trkpt><trkpt lat="45.60326948243315" lon="11.158449386315974"><ele>792.6666666666666</ele><time>2026-04-25T09:55:25.999Z</time></trkpt><trkpt lat="45.60335863830676" lon="11.158518679690305"><ele>795.0</ele><time>2026-04-25T09:55:26.999Z</time></trkpt><trkpt lat="45.6034406883554" lon="11.158578674788513"><ele>795.0</ele><time>2026-04-25T09:55:27.999Z</time></trkpt><trkpt lat="45.60352249858233" lon="11.158636352401116"><ele>795.0</ele><time>2026-04-25T09:55:28.999Z</time></trkpt><trkpt lat="45.603632821257236" lon="11.158666691750934"><ele>795.0</ele><time>2026-04-25T09:55:29.999Z</time></trkpt><trkpt lat="45.60374430687088" lon="11.158754152005885"><ele>795.0</ele><time>2026-04-25T09:55:30.999Z</time></trkpt><trkpt lat="45.6038567264279" lon="11.158806142369503"><ele>795.0</ele><time>2026-04-25T09:55:31.999Z</time></trkpt><trkpt lat="45.6039803126507" lon="11.15886487016322"><ele>794.0</ele><time>2026-04-25T09:55:32.999Z</time></trkpt><trkpt lat="45.604089303110705" lon="11.158907664109668"><ele>793.0</ele><time>2026-04-25T09:55:33.999Z</time></trkpt><trkpt lat="45.60417267659338" lon="11.158965781767684"><ele>792.0</ele><time>2026-04-25T09:55:34.999Z</time></trkpt><trkpt lat="45.60424154158014" lon="11.158986791303478"><ele>791.0</ele><time>2026-04-25T09:55:35.999Z</time></trkpt><trkpt lat="45.60434402541726" lon="11.159020859179519"><ele>790.0</ele><time>2026-04-25T09:55:37.999Z</time></trkpt><trkpt lat="45.60442080258693" lon="11.159053377090324"><ele>792.6666666666666</ele><time>2026-04-25T09:55:39.999Z</time></trkpt><trkpt lat="45.60452366567281" lon="11.159068315197048"><ele>795.3333333333333</ele><time>2026-04-25T09:55:41.999Z</time></trkpt><trkpt lat="45.60459728736601" lon="11.159081393285911"><ele>798.0</ele><time>2026-04-25T09:55:42.999Z</time></trkpt><trkpt lat="45.60466472138338" lon="11.159105153376684"><ele>800.6666666666667</ele><time>2026-04-25T09:55:43.999Z</time></trkpt><trkpt lat="45.60474274929143" lon="11.159109929607629"><ele>803.3333333333334</ele><time>2026-04-25T09:55:44.999Z</time></trkpt><trkpt lat="45.60482789274192" lon="11.159110475124653"><ele>806.0</ele><time>2026-04-25T09:55:45.999Z</time></trkpt><trkpt lat="45.60491428343861" lon="11.159093689940413"><ele>806.0000000000001</ele><time>2026-04-25T09:55:46.999Z</time></trkpt><trkpt lat="45.60499015339812" lon="11.159073835689455"><ele>806.0</ele><time>2026-04-25T09:55:47.999Z</time></trkpt><trkpt lat="45.60507299158288" lon="11.159077694276329"><ele>806.0</ele><time>2026-04-25T09:55:48.999Z</time></trkpt><trkpt lat="45.60518407136472" lon="11.15909313482313"><ele>806.0</ele><time>2026-04-25T09:55:51Z</time></trkpt><trkpt lat="45.60524656029995" lon="11.159104415793044"><ele>806.0000000000001</ele><time>2026-04-25T09:55:52Z</time></trkpt><trkpt lat="45.605350111567745" lon="11.15917197386406"><ele>806.0</ele><time>2026-04-25T09:55:54Z</time></trkpt><trkpt lat="45.605411722380076" lon="11.159215442610424"><ele>808.5000000000001</ele><time>2026-04-25T09:55:55Z</time></trkpt><trkpt lat="45.60547920769191" lon="11.159233046601521"><ele>811.0</ele><time>2026-04-25T09:55:56Z</time></trkpt><trkpt lat="45.60554161314237" lon="11.159269080330494"><ele>813.5</ele><time>2026-04-25T09:55:57Z</time></trkpt><trkpt lat="45.60562555683325" lon="11.159323975905611"><ele>816.0</ele><time>2026-04-25T09:55:58Z</time></trkpt><trkpt lat="45.60570744836986" lon="11.15937772436074"><ele>818.5000000000001</ele><time>2026-04-25T09:55:59Z</time></trkpt><trkpt lat="45.605777703942714" lon="11.15941022933367"><ele>821.0</ele><time>2026-04-25T09:56:00Z</time></trkpt><trkpt lat="45.60585491890215" lon="11.159424927319465"><ele>821.0000000000001</ele><time>2026-04-25T09:56:01Z</time></trkpt><trkpt lat="45.605958193993864" lon="11.159477555936425"><ele>821.0</ele><time>2026-04-25T09:56:03Z</time></trkpt><trkpt lat="45.60601900071857" lon="11.159514426754496"><ele>821.0</ele><time>2026-04-25T09:56:04Z</time></trkpt><trkpt lat="45.60608673553751" lon="11.159552415337545"><ele>821.0</ele><time>2026-04-25T09:56:05Z</time></trkpt><trkpt lat="45.6061554591201" lon="11.159679636859199"><ele>821.0000000000001</ele><time>2026-04-25T09:56:07Z</time></trkpt><trkpt lat="45.60615621445375" lon="11.159780260224355"><ele>821.0</ele><time>2026-04-25T09:56:08Z</time></trkpt><trkpt lat="45.606141644417804" lon="11.159880660385086"><ele>818.8</ele><time>2026-04-25T09:56:09Z</time></trkpt><trkpt lat="45.6061325420901" lon="11.160001513465708"><ele>816.5999999999999</ele><time>2026-04-25T09:56:10Z</time></trkpt><trkpt lat="45.60612258179105" lon="11.16012839647558"><ele>814.4</ele><time>2026-04-25T09:56:11Z</time></trkpt><trkpt lat="45.606090500949136" lon="11.160266479241992"><ele>812.2</ele><time>2026-04-25T09:56:12Z</time></trkpt><trkpt lat="45.60606449653765" lon="11.160391560205658"><ele>810.0</ele><time>2026-04-25T09:56:13Z</time></trkpt><trkpt lat="45.60603038958918" lon="11.16052303907238"><ele>810.0</ele><time>2026-04-25T09:56:14Z</time></trkpt><trkpt lat="45.605975549243624" lon="11.160640955677827"><ele>810.0</ele><time>2026-04-25T09:56:15Z</time></trkpt><trkpt lat="45.605920909233795" lon="11.160797755301544"><ele>810.0</ele><time>2026-04-25T09:56:16Z</time></trkpt><trkpt lat="45.60587943091904" lon="11.160948776932733"><ele>810.0</ele><time>2026-04-25T09:56:17Z</time></trkpt><trkpt lat="45.60584169445345" lon="11.161116462041539"><ele>812.2</ele><time>2026-04-25T09:56:18Z</time></trkpt><trkpt lat="45.6058016009844" lon="11.16127425159168"><ele>814.4</ele><time>2026-04-25T09:56:19Z</time></trkpt><trkpt lat="45.60576188299675" lon="11.161398698557537"><ele>816.5999999999999</ele><time>2026-04-25T09:56:20Z</time></trkpt><trkpt lat="45.60571697503658" lon="11.161507175617558"><ele>818.8</ele><time>2026-04-25T09:56:21Z</time></trkpt><trkpt lat="45.6056564638349" lon="11.161628756016732"><ele>821.0</ele><time>2026-04-25T09:56:22Z</time></trkpt><trkpt lat="45.60558206333923" lon="11.161725332038896"><ele>823.6666666666667</ele><time>2026-04-25T09:56:23Z</time></trkpt><trkpt lat="45.605514276890524" lon="11.161815184395934"><ele>826.3333333333334</ele><time>2026-04-25T09:56:24Z</time></trkpt><trkpt lat="45.60546183168177" lon="11.16189900625556"><ele>829.0</ele><time>2026-04-25T09:56:25Z</time></trkpt><trkpt lat="45.6054245473729" lon="11.161991062236737"><ele>831.6666666666667</ele><time>2026-04-25T09:56:26Z</time></trkpt><trkpt lat="45.605394239975666" lon="11.162091393496397"><ele>834.3333333333334</ele><time>2026-04-25T09:56:27Z</time></trkpt><trkpt lat="45.60534879050438" lon="11.162219670600692"><ele>837.0</ele><time>2026-04-25T09:56:29Z</time></trkpt><trkpt lat="45.60540040421784" lon="11.16236597534298"><ele>841.25</ele><time>2026-04-25T09:56:31Z</time></trkpt><trkpt lat="45.60543768406722" lon="11.162473316465878"><ele>845.5</ele><time>2026-04-25T09:56:32Z</time></trkpt><trkpt lat="45.605493561823096" lon="11.162616276951665"><ele>849.75</ele><time>2026-04-25T09:56:33Z</time></trkpt><trkpt lat="45.60566084885638" lon="11.162855413568355"><ele>854.0</ele><time>2026-04-25T09:56:35Z</time></trkpt><trkpt lat="45.60572117245515" lon="11.163009540551165"><ele>854.0000000000001</ele><time>2026-04-25T09:56:36Z</time></trkpt><trkpt lat="45.60578604334771" lon="11.163137806416186"><ele>854.0</ele><time>2026-04-25T09:56:37Z</time></trkpt><trkpt lat="45.605844178190175" lon="11.163257179920823"><ele>854.0</ele><time>2026-04-25T09:56:38Z</time></trkpt><trkpt lat="45.605880680540366" lon="11.163356474199375"><ele>854.0</ele><time>2026-04-25T09:56:39Z</time></trkpt><trkpt lat="45.605922169449315" lon="11.163447615671748"><ele>854.0000000000001</ele><time>2026-04-25T09:56:39.999Z</time></trkpt><trkpt lat="45.60597520543513" lon="11.163536890127455"><ele>854.0</ele><time>2026-04-25T09:56:40.999Z</time></trkpt><trkpt lat="45.60607035514884" lon="11.16356156341778"><ele>854.4000000000001</ele><time>2026-04-25T09:56:42.999Z</time></trkpt><trkpt lat="45.60612898064314" lon="11.163462532583347"><ele>854.8000000000001</ele><time>2026-04-25T09:56:44.999Z</time></trkpt><trkpt lat="45.606202600005794" lon="11.16333935211671"><ele>855.1999999999999</ele><time>2026-04-25T09:56:46.999Z</time></trkpt><trkpt lat="45.60626636081012" lon="11.16328744631268"><ele>855.5999999999999</ele><time>2026-04-25T09:56:47.999Z</time></trkpt><trkpt lat="45.60634028141197" lon="11.16322848505655"><ele>856.0</ele><time>2026-04-25T09:56:48.999Z</time></trkpt><trkpt lat="45.60642684478737" lon="11.16316915302793"><ele>861.5</ele><time>2026-04-25T09:56:49.999Z</time></trkpt><trkpt lat="45.606507809396135" lon="11.163070060304857"><ele>867.0</ele><time>2026-04-25T09:56:50.999Z</time></trkpt><trkpt lat="45.60656864004438" lon="11.16300015580619"><ele>872.5</ele><time>2026-04-25T09:56:51.999Z</time></trkpt><trkpt lat="45.60671326235206" lon="11.162881626878098"><ele>878.0</ele><time>2026-04-25T09:56:53.999Z</time></trkpt><trkpt lat="45.60682494485115" lon="11.162822559996428"><ele>878.0</ele><time>2026-04-25T09:56:54.999Z</time></trkpt><trkpt lat="45.606916565974686" lon="11.16280051981387"><ele>878.0</ele><time>2026-04-25T09:56:55.999Z</time></trkpt><trkpt lat="45.60703987433908" lon="11.162780457930557"><ele>878.0</ele><time>2026-04-25T09:56:56.999Z</time></trkpt><trkpt lat="45.60714724786252" lon="11.162736784440805"><ele>878.0</ele><time>2026-04-25T09:56:57.999Z</time></trkpt><trkpt lat="45.60722576414781" lon="11.162732688494971"><ele>878.0</ele><time>2026-04-25T09:56:58.999Z</time></trkpt><trkpt lat="45.60732420462023" lon="11.162713924647877"><ele>879.75</ele><time>2026-04-25T09:56:59.999Z</time></trkpt><trkpt lat="45.60742329417671" lon="11.16271092766"><ele>881.5</ele><time>2026-04-25T09:57:00.999Z</time></trkpt><trkpt lat="45.60753868672368" lon="11.16268855921603"><ele>883.25</ele><time>2026-04-25T09:57:01.999Z</time></trkpt><trkpt lat="45.60767281969904" lon="11.16263132170203"><ele>885.0</ele><time>2026-04-25T09:57:02.999Z</time></trkpt><trkpt lat="45.60777803271966" lon="11.16259506289192"><ele>885.2</ele><time>2026-04-25T09:57:03.999Z</time></trkpt><trkpt lat="45.60788400243115" lon="11.162540382103556"><ele>885.4</ele><time>2026-04-25T09:57:04.999Z</time></trkpt><trkpt lat="45.607979285645015" lon="11.162496506843667"><ele>885.5999999999999</ele><time>2026-04-25T09:57:05.999Z</time></trkpt><trkpt lat="45.60808279332633" lon="11.162436344112859"><ele>885.8</ele><time>2026-04-25T09:57:06.999Z</time></trkpt><trkpt lat="45.60820020217282" lon="11.162405735193541"><ele>886.0</ele><time>2026-04-25T09:57:07.999Z</time></trkpt><trkpt lat="45.60830441335969" lon="11.162377095613774"><ele>886.0</ele><time>2026-04-25T09:57:08.999Z</time></trkpt><trkpt lat="45.60841158228625" lon="11.16236972364049"><ele>885.9999999999999</ele><time>2026-04-25T09:57:09.999Z</time></trkpt><trkpt lat="45.60851796221869" lon="11.162351198588762"><ele>885.9999999999999</ele><time>2026-04-25T09:57:10.999Z</time></trkpt><trkpt lat="45.608631016092204" lon="11.162313935608585"><ele>886.0</ele><time>2026-04-25T09:57:11.999Z</time></trkpt><trkpt lat="45.60873623301074" lon="11.162277892752455"><ele>886.0</ele><time>2026-04-25T09:57:12.999Z</time></trkpt><trkpt lat="45.60883568128509" lon="11.162252332631615"><ele>892.0</ele><time>2026-04-25T09:57:13.999Z</time></trkpt><trkpt lat="45.60892477763953" lon="11.162250107026576"><ele>897.9999999999999</ele><time>2026-04-25T09:57:14.999Z</time></trkpt><trkpt lat="45.609026756384274" lon="11.162273035356192"><ele>903.9999999999999</ele><time>2026-04-25T09:57:15.999Z</time></trkpt><trkpt lat="45.60912178585448" lon="11.162297011252502"><ele>910.0</ele><time>2026-04-25T09:57:16.999Z</time></trkpt><trkpt lat="45.60921094125474" lon="11.16232106413802"><ele>916.0</ele><time>2026-04-25T09:57:17.999Z</time></trkpt><trkpt lat="45.60930602527209" lon="11.16231801762244"><ele>916.0</ele><time>2026-04-25T09:57:18.999Z</time></trkpt><trkpt lat="45.609399681154244" lon="11.162302945160892"><ele>915.9999999999999</ele><time>2026-04-25T09:57:19.999Z</time></trkpt><trkpt lat="45.60949290389854" lon="11.162330886291489"><ele>915.9999999999999</ele><time>2026-04-25T09:57:20.999Z</time></trkpt><trkpt lat="45.609592289787" lon="11.162391800698208"><ele>916.0</ele><time>2026-04-25T09:57:21.999Z</time></trkpt><trkpt lat="45.60969135300187" lon="11.162457740080452"><ele>916.0</ele><time>2026-04-25T09:57:22.999Z</time></trkpt><trkpt lat="45.609794982784855" lon="11.16253764453794"><ele>914.0</ele><time>2026-04-25T09:57:23.999Z</time></trkpt><trkpt lat="45.609904658401675" lon="11.162626086108812"><ele>912.0</ele><time>2026-04-25T09:57:24.999Z</time></trkpt><trkpt lat="45.61000031936119" lon="11.162727392030359"><ele>910.0</ele><time>2026-04-25T09:57:25.999Z</time></trkpt><trkpt lat="45.61010179570473" lon="11.162823700782777"><ele>908.0</ele><time>2026-04-25T09:57:26.999Z</time></trkpt><trkpt lat="45.6101883060574" lon="11.16288097186666"><ele>908.0000000000001</ele><time>2026-04-25T09:57:27.999Z</time></trkpt><trkpt lat="45.61024140668222" lon="11.162955138668135"><ele>908.0</ele><time>2026-04-25T09:57:28.999Z</time></trkpt><trkpt lat="45.610328609366974" lon="11.16302282639403"><ele>908.0</ele><time>2026-04-25T09:57:30.999Z</time></trkpt><trkpt lat="45.610337929704514" lon="11.163115367910123"><ele>908.0</ele><time>2026-04-25T09:57:31.999Z</time></trkpt><trkpt lat="45.61028265932025" lon="11.163249020665258"><ele>908.0000000000001</ele><time>2026-04-25T09:57:33.999Z</time></trkpt><trkpt lat="45.61026169237514" lon="11.16335862199368"><ele>908.0</ele><time>2026-04-25T09:57:34.999Z</time></trkpt><trkpt lat="45.610225637343255" lon="11.16348915773396"><ele>905.8</ele><time>2026-04-25T09:57:35.999Z</time></trkpt><trkpt lat="45.610192251161614" lon="11.16362050958832"><ele>903.5999999999999</ele><time>2026-04-25T09:57:36.999Z</time></trkpt><trkpt lat="45.61016713928404" lon="11.163755744249453"><ele>901.4000000000001</ele><time>2026-04-25T09:57:37.999Z</time></trkpt><trkpt lat="45.61013434492745" lon="11.163880708819223"><ele>899.2</ele><time>2026-04-25T09:57:38.999Z</time></trkpt><trkpt lat="45.61009124138415" lon="11.1640058199111"><ele>897.0</ele><time>2026-04-25T09:57:39.999Z</time></trkpt><trkpt lat="45.61006006115814" lon="11.164120062062976"><ele>897.0</ele><time>2026-04-25T09:57:40.999Z</time></trkpt><trkpt lat="45.610038755483295" lon="11.164215695986929"><ele>897.0</ele><time>2026-04-25T09:57:41.999Z</time></trkpt><trkpt lat="45.61007980910791" lon="11.164404190326952"><ele>897.0</ele><time>2026-04-25T09:57:43.999Z</time></trkpt><trkpt lat="45.610125411531655" lon="11.164495590501529"><ele>897.0</ele><time>2026-04-25T09:57:44.999Z</time></trkpt><trkpt lat="45.61019214417215" lon="11.164626007851508"><ele>897.0</ele><time>2026-04-25T09:57:45.999Z</time></trkpt><trkpt lat="45.610261214806364" lon="11.164752393449575"><ele>905.0</ele><time>2026-04-25T09:57:46.999Z</time></trkpt><trkpt lat="45.61033403570935" lon="11.164908301130367"><ele>913.0</ele><time>2026-04-25T09:57:47.999Z</time></trkpt><trkpt lat="45.610383460355806" lon="11.165092908671165"><ele>921.0</ele><time>2026-04-25T09:57:48.999Z</time></trkpt><trkpt lat="45.61039847844697" lon="11.165285429003616"><ele>929.0</ele><time>2026-04-25T09:57:49.999Z</time></trkpt><trkpt lat="45.61041281561786" lon="11.165522003428858"><ele>926.25</ele><time>2026-04-25T09:57:50.999Z</time></trkpt><trkpt lat="45.61044330754977" lon="11.165739006174805"><ele>923.5</ele><time>2026-04-25T09:57:51.999Z</time></trkpt><trkpt lat="45.61047097342623" lon="11.165933505627324"><ele>920.75</ele><time>2026-04-25T09:57:52.999Z</time></trkpt><trkpt lat="45.61049988183227" lon="11.166113129940065"><ele>918.0</ele><time>2026-04-25T09:57:53.999Z</time></trkpt><trkpt lat="45.610559279371245" lon="11.16628658647153"><ele>918.0</ele><time>2026-04-25T09:57:54.999Z</time></trkpt><trkpt lat="45.6106453274938" lon="11.166445691086345"><ele>918.0</ele><time>2026-04-25T09:57:55.999Z</time></trkpt><trkpt lat="45.61076464632827" lon="11.166593321761567"><ele>918.0</ele><time>2026-04-25T09:57:57Z</time></trkpt><trkpt lat="45.61089504915585" lon="11.166741772068718"><ele>921.5</ele><time>2026-04-25T09:57:58Z</time></trkpt><trkpt lat="45.61101104234036" lon="11.166887370055049"><ele>925.0</ele><time>2026-04-25T09:57:59Z</time></trkpt><trkpt lat="45.61111939933094" lon="11.167019626533543"><ele>928.5</ele><time>2026-04-25T09:58:00Z</time></trkpt><trkpt lat="45.61123215713428" lon="11.167144604249094"><ele>932.0</ele><time>2026-04-25T09:58:01Z</time></trkpt><trkpt lat="45.61134541584409" lon="11.167255570049354"><ele>932.0</ele><time>2026-04-25T09:58:02Z</time></trkpt><trkpt lat="45.61145945260089" lon="11.167360338790735"><ele>932.0</ele><time>2026-04-25T09:58:03Z</time></trkpt><trkpt lat="45.611585551754736" lon="11.16747147543157"><ele>932.0</ele><time>2026-04-25T09:58:04Z</time></trkpt><trkpt lat="45.611737369329035" lon="11.167569939669182"><ele>925.3333333333334</ele><time>2026-04-25T09:58:05Z</time></trkpt><trkpt lat="45.611899505139654" lon="11.167692185912646"><ele>918.6666666666667</ele><time>2026-04-25T09:58:06Z</time></trkpt><trkpt lat="45.612041771144" lon="11.167801625119655"><ele>912.0</ele><time>2026-04-25T09:58:07Z</time></trkpt><trkpt lat="45.61218239156537" lon="11.167898997115536"><ele>912.0</ele><time>2026-04-25T09:58:08Z</time></trkpt><trkpt lat="45.612325200722" lon="11.167991292437998"><ele>912.0</ele><time>2026-04-25T09:58:09Z</time></trkpt><trkpt lat="45.61245974361751" lon="11.16807952083316"><ele>912.0</ele><time>2026-04-25T09:58:10Z</time></trkpt><trkpt lat="45.61258083253399" lon="11.168155072786792"><ele>912.0</ele><time>2026-04-25T09:58:11Z</time></trkpt><trkpt lat="45.61267766037518" lon="11.168242787751028"><ele>906.8</ele><time>2026-04-25T09:58:12Z</time></trkpt><trkpt lat="45.61274224227328" lon="11.168300234737087"><ele>901.6</ele><time>2026-04-25T09:58:13Z</time></trkpt><trkpt lat="45.612797115758895" lon="11.16845378500759"><ele>896.3999999999999</ele><time>2026-04-25T09:58:15Z</time></trkpt><trkpt lat="45.61276225786899" lon="11.168563466710053"><ele>891.1999999999999</ele><time>2026-04-25T09:58:16Z</time></trkpt><trkpt lat="45.61268233508966" lon="11.16864517783094"><ele>886.0</ele><time>2026-04-25T09:58:17Z</time></trkpt><trkpt lat="45.612570246452265" lon="11.168624944711784"><ele>886.0</ele><time>2026-04-25T09:58:18Z</time></trkpt><trkpt lat="45.612455266429016" lon="11.168650790972626"><ele>886.0</ele><time>2026-04-25T09:58:19Z</time></trkpt><trkpt lat="45.61233044626665" lon="11.168661693614917"><ele>886.0</ele><time>2026-04-25T09:58:20Z</time></trkpt><trkpt lat="45.61223125149047" lon="11.168692002371268"><ele>886.0</ele><time>2026-04-25T09:58:21Z</time></trkpt><trkpt lat="45.61208338591685" lon="11.16873579216066"><ele>885.0</ele><time>2026-04-25T09:58:22Z</time></trkpt><trkpt lat="45.611928567684444" lon="11.168825697350215"><ele>884.0</ele><time>2026-04-25T09:58:23Z</time></trkpt><trkpt lat="45.6118027557609" lon="11.168906293475619"><ele>883.0</ele><time>2026-04-25T09:58:24Z</time></trkpt><trkpt lat="45.61168227579203" lon="11.168992995017817"><ele>882.0</ele><time>2026-04-25T09:58:25Z</time></trkpt><trkpt lat="45.61157203359455" lon="11.169092402180283"><ele>882.0</ele><time>2026-04-25T09:58:26Z</time></trkpt><trkpt lat="45.611470020689666" lon="11.169179803397409"><ele>882.0</ele><time>2026-04-25T09:58:27Z</time></trkpt><trkpt lat="45.611324500564464" lon="11.169207365597183"><ele>882.0</ele><time>2026-04-25T09:58:28Z</time></trkpt><trkpt lat="45.61117534203477" lon="11.169191776266116"><ele>882.0</ele><time>2026-04-25T09:58:29Z</time></trkpt><trkpt lat="45.611018276487016" lon="11.169235642262779"><ele>878.3333333333333</ele><time>2026-04-25T09:58:30Z</time></trkpt><trkpt lat="45.61085605222999" lon="11.169258326135912"><ele>874.6666666666666</ele><time>2026-04-25T09:58:31Z</time></trkpt><trkpt lat="45.61070112759635" lon="11.169273320592847"><ele>871.0</ele><time>2026-04-25T09:58:32Z</time></trkpt><trkpt lat="45.610537853595396" lon="11.169296044746146"><ele>871.0</ele><time>2026-04-25T09:58:33Z</time></trkpt><trkpt lat="45.61038052510212" lon="11.169339516182902"><ele>871.0</ele><time>2026-04-25T09:58:34Z</time></trkpt><trkpt lat="45.61022789315222" lon="11.169393112999456"><ele>871.0</ele><time>2026-04-25T09:58:35Z</time></trkpt><trkpt lat="45.61008145798042" lon="11.169445479167148"><ele>869.75</ele><time>2026-04-25T09:58:36Z</time></trkpt><trkpt lat="45.60994333976631" lon="11.169491003213553"><ele>868.5</ele><time>2026-04-25T09:58:37Z</time></trkpt><trkpt lat="45.60979936305581" lon="11.169541755702591"><ele>867.25</ele><time>2026-04-25T09:58:38Z</time></trkpt><trkpt lat="45.609663227143834" lon="11.169597372990115"><ele>866.0</ele><time>2026-04-25T09:58:39Z</time></trkpt><trkpt lat="45.60952450235103" lon="11.169670924110429"><ele>863.75</ele><time>2026-04-25T09:58:40Z</time></trkpt><trkpt lat="45.60939614105467" lon="11.169737665210999"><ele>861.5</ele><time>2026-04-25T09:58:41Z</time></trkpt><trkpt lat="45.60927333691723" lon="11.169808763034451"><ele>859.25</ele><time>2026-04-25T09:58:42Z</time></trkpt><trkpt lat="45.60916467038831" lon="11.169884870487289"><ele>857.0</ele><time>2026-04-25T09:58:43Z</time></trkpt><trkpt lat="45.60904018031927" lon="11.169973876746644"><ele>862.6666666666667</ele><time>2026-04-25T09:58:44Z</time></trkpt><trkpt lat="45.60890832944369" lon="11.170075278877249"><ele>868.3333333333333</ele><time>2026-04-25T09:58:45Z</time></trkpt><trkpt lat="45.6087697035494" lon="11.170184962418409"><ele>874.0</ele><time>2026-04-25T09:58:46Z</time></trkpt><trkpt lat="45.60863116132471" lon="11.170296090479367"><ele>874.0</ele><time>2026-04-25T09:58:47Z</time></trkpt><trkpt lat="45.60848641226316" lon="11.170406061436658"><ele>874.0</ele><time>2026-04-25T09:58:48Z</time></trkpt><trkpt lat="45.6083610313067" lon="11.1705129234434"><ele>874.0</ele><time>2026-04-25T09:58:48.999Z</time></trkpt><trkpt lat="45.60825120497125" lon="11.170643012121495"><ele>879.75</ele><time>2026-04-25T09:58:49.999Z</time></trkpt><trkpt lat="45.60813821599939" lon="11.17079283225535"><ele>885.5</ele><time>2026-04-25T09:58:50.999Z</time></trkpt><trkpt lat="45.60803716001896" lon="11.170954735462391"><ele>891.25</ele><time>2026-04-25T09:58:51.999Z</time></trkpt><trkpt lat="45.60795162204125" lon="11.17111179791127"><ele>897.0</ele><time>2026-04-25T09:58:52.999Z</time></trkpt><trkpt lat="45.60789193272703" lon="11.171258327466107"><ele>897.0</ele><time>2026-04-25T09:58:53.999Z</time></trkpt><trkpt lat="45.607851038152965" lon="11.171389169359452"><ele>897.0</ele><time>2026-04-25T09:58:54.999Z</time></trkpt><trkpt lat="45.60787168747348" lon="11.17154545981944"><ele>897.0</ele><time>2026-04-25T09:58:55.999Z</time></trkpt><trkpt lat="45.60786446549633" lon="11.171732121099186"><ele>897.0</ele><time>2026-04-25T09:58:56.999Z</time></trkpt><trkpt lat="45.60788428881778" lon="11.17193290685824"><ele>898.6666666666667</ele><time>2026-04-25T09:58:57.999Z</time></trkpt><trkpt lat="45.60792748530926" lon="11.172137992783304"><ele>900.3333333333334</ele><time>2026-04-25T09:58:58.999Z</time></trkpt><trkpt lat="45.60799916395488" lon="11.17234680210751"><ele>902.0</ele><time>2026-04-25T09:58:59.999Z</time></trkpt><trkpt lat="45.60806241110809" lon="11.17254615239247"><ele>902.0</ele><time>2026-04-25T09:59:00.999Z</time></trkpt><trkpt lat="45.60810140093217" lon="11.1727368175619"><ele>902.0</ele><time>2026-04-25T09:59:01.999Z</time></trkpt><trkpt lat="45.60809998666261" lon="11.172942823899866"><ele>902.0</ele><time>2026-04-25T09:59:02.999Z</time></trkpt><trkpt lat="45.60810083857903" lon="11.173178364680465"><ele>902.0</ele><time>2026-04-25T09:59:03.999Z</time></trkpt><trkpt lat="45.60811531938548" lon="11.173401264637418"><ele>902.25</ele><time>2026-04-25T09:59:04.999Z</time></trkpt><trkpt lat="45.608101673247404" lon="11.173593829919547"><ele>902.5</ele><time>2026-04-25T09:59:05.999Z</time></trkpt><trkpt lat="45.60808348895914" lon="11.173779561792447"><ele>902.75</ele><time>2026-04-25T09:59:06.999Z</time></trkpt><trkpt lat="45.60807136583113" lon="11.17396932813383"><ele>903.0</ele><time>2026-04-25T09:59:07.999Z</time></trkpt><trkpt lat="45.6080548664109" lon="11.174162408298237"><ele>900.5</ele><time>2026-04-25T09:59:08.999Z</time></trkpt><trkpt lat="45.608105392713135" lon="11.174352556303793"><ele>898.0</ele><time>2026-04-25T09:59:09.999Z</time></trkpt><trkpt lat="45.608170111878835" lon="11.174540645588651"><ele>895.5</ele><time>2026-04-25T09:59:10.999Z</time></trkpt><trkpt lat="45.6082331901793" lon="11.17470172235095"><ele>893.0</ele><time>2026-04-25T09:59:11.999Z</time></trkpt><trkpt lat="45.60831812676993" lon="11.174788538638445"><ele>893.0</ele><time>2026-04-25T09:59:12.999Z</time></trkpt><trkpt lat="45.6084107979053" lon="11.174848050367505"><ele>893.0</ele><time>2026-04-25T09:59:13.999Z</time></trkpt><trkpt lat="45.608539615337094" lon="11.17487070668212"><ele>893.0</ele><time>2026-04-25T09:59:14.999Z</time></trkpt><trkpt lat="45.608680352107065" lon="11.174920259645452"><ele>893.0</ele><time>2026-04-25T09:59:15.999Z</time></trkpt><trkpt lat="45.60881716126805" lon="11.17495105724361"><ele>891.0</ele><time>2026-04-25T09:59:16.999Z</time></trkpt><trkpt lat="45.60894030234725" lon="11.174986878836469"><ele>889.0</ele><time>2026-04-25T09:59:17.999Z</time></trkpt><trkpt lat="45.60905780913735" lon="11.175021736076799"><ele>887.0</ele><time>2026-04-25T09:59:18.999Z</time></trkpt><trkpt lat="45.60917277449007" lon="11.175051892130893"><ele>885.0</ele><time>2026-04-25T09:59:19.999Z</time></trkpt><trkpt lat="45.60926751095433" lon="11.175078878421347"><ele>885.0</ele><time>2026-04-25T09:59:20.999Z</time></trkpt><trkpt lat="45.609340975604276" lon="11.175116361919248"><ele>885.0</ele><time>2026-04-25T09:59:21.999Z</time></trkpt><trkpt lat="45.60940933337197" lon="11.175158857281666"><ele>885.0</ele><time>2026-04-25T09:59:22.999Z</time></trkpt><trkpt lat="45.60943974610215" lon="11.175271725521345"><ele>885.0</ele><time>2026-04-25T09:59:23.999Z</time></trkpt><trkpt lat="45.60942525716905" lon="11.175398942870581"><ele>885.0</ele><time>2026-04-25T09:59:24.999Z</time></trkpt><trkpt lat="45.60937959946903" lon="11.175489206885947"><ele>885.0</ele><time>2026-04-25T09:59:25.999Z</time></trkpt><trkpt lat="45.60931211435571" lon="11.17559684983583"><ele>884.0</ele><time>2026-04-25T09:59:26.999Z</time></trkpt><trkpt lat="45.609238869763566" lon="11.175696413387705"><ele>883.0</ele><time>2026-04-25T09:59:27.999Z</time></trkpt><trkpt lat="45.609171487775335" lon="11.175791412121113"><ele>882.0</ele><time>2026-04-25T09:59:28.999Z</time></trkpt><trkpt lat="45.60910991459128" lon="11.175878221308972"><ele>881.0</ele><time>2026-04-25T09:59:29.999Z</time></trkpt><trkpt lat="45.60904932445828" lon="11.175964851006452"><ele>880.0</ele><time>2026-04-25T09:59:30.999Z</time></trkpt><trkpt lat="45.60899280345094" lon="11.17605751658668"><ele>880.0</ele><time>2026-04-25T09:59:31.999Z</time></trkpt><trkpt lat="45.60895293886448" lon="11.17614213551822"><ele>880.0</ele><time>2026-04-25T09:59:32.999Z</time></trkpt><trkpt lat="45.60892470538231" lon="11.176240574239905"><ele>880.0</ele><time>2026-04-25T09:59:33.999Z</time></trkpt><trkpt lat="45.60890424358966" lon="11.176352848839398"><ele>880.0</ele><time>2026-04-25T09:59:34.999Z</time></trkpt><trkpt lat="45.60887859108299" lon="11.176488184263528"><ele>880.0</ele><time>2026-04-25T09:59:35.999Z</time></trkpt><trkpt lat="45.60892823283424" lon="11.176667223240361"><ele>880.6</ele><time>2026-04-25T09:59:36.999Z</time></trkpt><trkpt lat="45.60893727475536" lon="11.176820997641633"><ele>881.2</ele><time>2026-04-25T09:59:37.999Z</time></trkpt><trkpt lat="45.60895643312491" lon="11.176964612078056"><ele>881.8</ele><time>2026-04-25T09:59:38.999Z</time></trkpt><trkpt lat="45.60899666365004" lon="11.17711034203408"><ele>882.4</ele><time>2026-04-25T09:59:39.999Z</time></trkpt><trkpt lat="45.60905452985049" lon="11.177245686579111"><ele>883.0</ele><time>2026-04-25T09:59:40.999Z</time></trkpt><trkpt lat="45.60916600623837" lon="11.177334053340491"><ele>881.75</ele><time>2026-04-25T09:59:41.999Z</time></trkpt><trkpt lat="45.609278203539766" lon="11.177440334437433"><ele>880.5</ele><time>2026-04-25T09:59:42.999Z</time></trkpt><trkpt lat="45.609404190962046" lon="11.177534077387202"><ele>879.25</ele><time>2026-04-25T09:59:43.999Z</time></trkpt><trkpt lat="45.609510045617604" lon="11.177609596064874"><ele>878.0</ele><time>2026-04-25T09:59:44.999Z</time></trkpt><trkpt lat="45.60959126622083" lon="11.177675564239989"><ele>882.0000000000001</ele><time>2026-04-25T09:59:45.999Z</time></trkpt><trkpt lat="45.609660726755166" lon="11.177747116674354"><ele>886.0</ele><time>2026-04-25T09:59:46.999Z</time></trkpt><trkpt lat="45.60972387831862" lon="11.177816311860575"><ele>890.0</ele><time>2026-04-25T09:59:47.999Z</time></trkpt><trkpt lat="45.609753463739224" lon="11.177919893163335"><ele>894.0</ele><time>2026-04-25T09:59:48.999Z</time></trkpt><trkpt lat="45.60975794203745" lon="11.178034912053459"><ele>898.0000000000001</ele><time>2026-04-25T09:59:49.999Z</time></trkpt><trkpt lat="45.60972245381191" lon="11.17814313151009"><ele>902.0</ele><time>2026-04-25T09:59:50.999Z</time></trkpt><trkpt lat="45.60965977637673" lon="11.178223609550765"><ele>902.0</ele><time>2026-04-25T09:59:51.999Z</time></trkpt><trkpt lat="45.60956906022807" lon="11.178275285629535"><ele>902.0</ele><time>2026-04-25T09:59:52.999Z</time></trkpt><trkpt lat="45.609468308424056" lon="11.178304604278265"><ele>902.0</ele><time>2026-04-25T09:59:53.999Z</time></trkpt><trkpt lat="45.60937098914798" lon="11.178336617194116"><ele>902.0</ele><time>2026-04-25T09:59:54.999Z</time></trkpt><trkpt lat="45.60928541990862" lon="11.178391702157166"><ele>902.0</ele><time>2026-04-25T09:59:55.999Z</time></trkpt><trkpt lat="45.609219728836116" lon="11.178466412722296"><ele>900.8333333333334</ele><time>2026-04-25T09:59:56.999Z</time></trkpt><trkpt lat="45.6092193235972" lon="11.17859056676362"><ele>899.6666666666667</ele><time>2026-04-25T09:59:57.999Z</time></trkpt><trkpt lat="45.60924181383149" lon="11.17869222322502"><ele>898.5</ele><time>2026-04-25T09:59:58.999Z</time></trkpt><trkpt lat="45.60929486710698" lon="11.178782741281786"><ele>897.3333333333333</ele><time>2026-04-25T09:59:59.999Z</time></trkpt><trkpt lat="45.60935794526552" lon="11.178867531329704"><ele>896.1666666666666</ele><time>2026-04-25T10:00:00.999Z</time></trkpt><trkpt lat="45.60940576564862" lon="11.178958336172839"><ele>895.0</ele><time>2026-04-25T10:00:01.999Z</time></trkpt><trkpt lat="45.60943918832977" lon="11.179075695160906"><ele>895.0</ele><time>2026-04-25T10:00:03Z</time></trkpt><trkpt lat="45.60944984580463" lon="11.17920239546854"><ele>895.0</ele><time>2026-04-25T10:00:04Z</time></trkpt><trkpt lat="45.609425989355685" lon="11.17933833177438"><ele>895.0</ele><time>2026-04-25T10:00:05Z</time></trkpt><trkpt lat="45.60937016150996" lon="11.17945462255601"><ele>895.0</ele><time>2026-04-25T10:00:06Z</time></trkpt><trkpt lat="45.609297923776126" lon="11.179563391294147"><ele>895.0</ele><time>2026-04-25T10:00:07Z</time></trkpt><trkpt lat="45.60921048995446" lon="11.179645044787282"><ele>895.0</ele><time>2026-04-25T10:00:08Z</time></trkpt><trkpt lat="45.60915161766174" lon="11.17975320394446"><ele>895.0</ele><time>2026-04-25T10:00:09Z</time></trkpt><trkpt lat="45.60907848702351" lon="11.179852535500219"><ele>895.0</ele><time>2026-04-25T10:00:10Z</time></trkpt><trkpt lat="45.6090013338997" lon="11.179951677495248"><ele>895.0</ele><time>2026-04-25T10:00:11Z</time></trkpt><trkpt lat="45.60891762719008" lon="11.180029892357148"><ele>895.0</ele><time>2026-04-25T10:00:12Z</time></trkpt><trkpt lat="45.608828198529125" lon="11.180053951709164"><ele>896.8</ele><time>2026-04-25T10:00:13Z</time></trkpt><trkpt lat="45.60873253955816" lon="11.180041467694238"><ele>898.6</ele><time>2026-04-25T10:00:14Z</time></trkpt><trkpt lat="45.608638886013225" lon="11.179995038810233"><ele>900.4000000000001</ele><time>2026-04-25T10:00:15Z</time></trkpt><trkpt lat="45.608562177984126" lon="11.179936174100483"><ele>902.2</ele><time>2026-04-25T10:00:16Z</time></trkpt><trkpt lat="45.608483232643266" lon="11.179890316020641"><ele>904.0</ele><time>2026-04-25T10:00:17Z</time></trkpt><trkpt lat="45.60839783164698" lon="11.179880207228768"><ele>904.6</ele><time>2026-04-25T10:00:18Z</time></trkpt><trkpt lat="45.60830902551487" lon="11.1799095160916"><ele>905.2</ele><time>2026-04-25T10:00:19Z</time></trkpt><trkpt lat="45.60822314931656" lon="11.179961708525534"><ele>905.8000000000001</ele><time>2026-04-25T10:00:20Z</time></trkpt><trkpt lat="45.60815838733477" lon="11.18001330541058"><ele>906.4000000000001</ele><time>2026-04-25T10:00:21Z</time></trkpt><trkpt lat="45.60809594502268" lon="11.180048055920757"><ele>907.0</ele><time>2026-04-25T10:00:22Z</time></trkpt><trkpt lat="45.607949926870674" lon="11.179895818955307"><ele>907.6666666666666</ele><time>2026-04-25T10:00:25Z</time></trkpt><trkpt lat="45.60791393642317" lon="11.179807472382228"><ele>908.3333333333333</ele><time>2026-04-25T10:00:26Z</time></trkpt><trkpt lat="45.607877299248784" lon="11.179730138509836"><ele>909.0</ele><time>2026-04-25T10:00:27Z</time></trkpt><trkpt lat="45.60781911172096" lon="11.179672067635176"><ele>909.6666666666667</ele><time>2026-04-25T10:00:28Z</time></trkpt><trkpt lat="45.607742632787414" lon="11.179649233092508"><ele>910.3333333333334</ele><time>2026-04-25T10:00:29Z</time></trkpt><trkpt lat="45.607640103369945" lon="11.17965040999643"><ele>911.0</ele><time>2026-04-25T10:00:30Z</time></trkpt><trkpt lat="45.60753483289007" lon="11.179624599403306"><ele>911.0</ele><time>2026-04-25T10:00:31Z</time></trkpt><trkpt lat="45.607423132522776" lon="11.179565403961961"><ele>911.0</ele><time>2026-04-25T10:00:32Z</time></trkpt><trkpt lat="45.60731510532941" lon="11.17949308873979"><ele>911.0</ele><time>2026-04-25T10:00:33Z</time></trkpt><trkpt lat="45.6072062810027" lon="11.179410236308147"><ele>911.0</ele><time>2026-04-25T10:00:34Z</time></trkpt><trkpt lat="45.60710149632359" lon="11.179325176577851"><ele>911.0</ele><time>2026-04-25T10:00:35Z</time></trkpt><trkpt lat="45.607017270691166" lon="11.1792594557724"><ele>910.9999999999999</ele><time>2026-04-25T10:00:36Z</time></trkpt><trkpt lat="45.6069316305628" lon="11.179190531166231"><ele>910.9999999999999</ele><time>2026-04-25T10:00:37Z</time></trkpt><trkpt lat="45.606849961439245" lon="11.179120226810948"><ele>911.0</ele><time>2026-04-25T10:00:38Z</time></trkpt><trkpt lat="45.606775884199386" lon="11.179039388515946"><ele>911.0</ele><time>2026-04-25T10:00:39Z</time></trkpt><trkpt lat="45.60670007119295" lon="11.17895164322916"><ele>909.0000000000001</ele><time>2026-04-25T10:00:40Z</time></trkpt><trkpt lat="45.60661399571113" lon="11.178900642445798"><ele>907.0</ele><time>2026-04-25T10:00:41Z</time></trkpt><trkpt lat="45.60653020431364" lon="11.178866504393445"><ele>905.0</ele><time>2026-04-25T10:00:42Z</time></trkpt><trkpt lat="45.60644278158083" lon="11.17885003557786"><ele>903.0</ele><time>2026-04-25T10:00:43Z</time></trkpt><trkpt lat="45.60634762820851" lon="11.178845622222292"><ele>901.0000000000001</ele><time>2026-04-25T10:00:44Z</time></trkpt><trkpt lat="45.606264870311406" lon="11.178830943013942"><ele>899.0</ele><time>2026-04-25T10:00:45Z</time></trkpt><trkpt lat="45.60617866635196" lon="11.178800760360309"><ele>899.6</ele><time>2026-04-25T10:00:46Z</time></trkpt><trkpt lat="45.60609155063029" lon="11.178769323490258"><ele>900.2</ele><time>2026-04-25T10:00:47Z</time></trkpt><trkpt lat="45.60599958175232" lon="11.178722860067378"><ele>900.8000000000001</ele><time>2026-04-25T10:00:48Z</time></trkpt><trkpt lat="45.6058986262824" lon="11.17863616852054"><ele>901.4000000000001</ele><time>2026-04-25T10:00:49Z</time></trkpt><trkpt lat="45.6057948885029" lon="11.178520866140985"><ele>902.0</ele><time>2026-04-25T10:00:49.999Z</time></trkpt><trkpt lat="45.605694448435074" lon="11.178407058712418"><ele>902.0</ele><time>2026-04-25T10:00:50.999Z</time></trkpt><trkpt lat="45.60559903382678" lon="11.178310085893688"><ele>902.0</ele><time>2026-04-25T10:00:51.999Z</time></trkpt><trkpt lat="45.60550295675384" lon="11.178229112432883"><ele>902.0</ele><time>2026-04-25T10:00:52.999Z</time></trkpt><trkpt lat="45.605413724254454" lon="11.178160971985104"><ele>902.0</ele><time>2026-04-25T10:00:53.999Z</time></trkpt><trkpt lat="45.605338477484295" lon="11.178099216934001"><ele>902.0</ele><time>2026-04-25T10:00:54.999Z</time></trkpt><trkpt lat="45.605279637969524" lon="11.178040966799621"><ele>900.6</ele><time>2026-04-25T10:00:55.999Z</time></trkpt><trkpt lat="45.605206054935266" lon="11.17796374938046"><ele>899.2</ele><time>2026-04-25T10:00:57.999Z</time></trkpt><trkpt lat="45.60518110966524" lon="11.17787846384291"><ele>897.8</ele><time>2026-04-25T10:00:59.999Z</time></trkpt><trkpt lat="45.605143563941674" lon="11.177794528931598"><ele>896.4</ele><time>2026-04-25T10:01:01.999Z</time></trkpt><trkpt lat="45.605142447683605" lon="11.177692552868008"><ele>895.0</ele><time>2026-04-25T10:01:05.999Z</time></trkpt><trkpt lat="45.6049957407381" lon="11.177752913021028"><ele>894.9999999999999</ele><time>2026-04-25T10:01:08.999Z</time></trkpt><trkpt lat="45.6048979918076" lon="11.177772347431347"><ele>895.0</ele><time>2026-04-25T10:01:10.999Z</time></trkpt><trkpt lat="45.604832506724" lon="11.177781832954322"><ele>895.0</ele><time>2026-04-25T10:01:29.999Z</time></trkpt><trkpt lat="45.60474976316401" lon="11.177790970702018"><ele>895.0</ele><time>2026-04-25T10:02:24Z</time></trkpt><trkpt lat="45.60468770380343" lon="11.177762508227792"><ele>894.9999999999999</ele><time>2026-04-25T10:02:33Z</time></trkpt><trkpt lat="45.60462915926831" lon="11.177706585466575"><ele>895.0</ele><time>2026-04-25T10:02:59Z</time></trkpt><trkpt lat="45.604543939562234" lon="11.177644887687965"><ele>890.8333333333333</ele><time>2026-04-25T10:03:02Z</time></trkpt><trkpt lat="45.60447346992919" lon="11.177618580081683"><ele>886.6666666666666</ele><time>2026-04-25T10:03:04Z</time></trkpt><trkpt lat="45.60440541727459" lon="11.177632276736945"><ele>882.5</ele><time>2026-04-25T10:03:06Z</time></trkpt><trkpt lat="45.60432806608092" lon="11.177629797163574"><ele>878.3333333333333</ele><time>2026-04-25T10:03:07.999Z</time></trkpt><trkpt lat="45.60425966214372" lon="11.177665670614623"><ele>874.1666666666666</ele><time>2026-04-25T10:03:09.999Z</time></trkpt><trkpt lat="45.60416841300429" lon="11.177690657888952"><ele>870.0</ele><time>2026-04-25T10:03:11.999Z</time></trkpt><trkpt lat="45.60410775756276" lon="11.177646316467388"><ele>870.0000000000001</ele><time>2026-04-25T10:03:13.999Z</time></trkpt><trkpt lat="45.604038291561764" lon="11.177614077433756"><ele>870.0</ele><time>2026-04-25T10:03:16.999Z</time></trkpt><trkpt lat="45.60396459569905" lon="11.177610423895791"><ele>870.0</ele><time>2026-04-25T10:03:19.999Z</time></trkpt><trkpt lat="45.60390141153111" lon="11.177600242959075"><ele>870.0</ele><time>2026-04-25T10:03:22.999Z</time></trkpt><trkpt lat="45.603825115401875" lon="11.177580021973606"><ele>870.0</ele><time>2026-04-25T10:03:24.999Z</time></trkpt><trkpt lat="45.60377086862058" lon="11.177515892045301"><ele>870.0000000000001</ele><time>2026-04-25T10:03:26.999Z</time></trkpt><trkpt lat="45.603748268013746" lon="11.17743130987564"><ele>870.0</ele><time>2026-04-25T10:03:36.999Z</time></trkpt><trkpt lat="45.60367672728613" lon="11.177454829807353"><ele>870.0000000000001</ele><time>2026-04-25T10:03:45.999Z</time></trkpt><trkpt lat="45.60361503610393" lon="11.177475198305322"><ele>870.0</ele><time>2026-04-25T10:03:57.999Z</time></trkpt><trkpt lat="45.60360898757517" lon="11.177586052776284"><ele>870.0</ele><time>2026-04-25T10:04:02.999Z</time></trkpt><trkpt lat="45.60360976238897" lon="11.177682547106187"><ele>870.0</ele><time>2026-04-25T10:04:05.999Z</time></trkpt><trkpt lat="45.603635343942436" lon="11.177792046041578"><ele>870.0</ele><time>2026-04-25T10:04:10.999Z</time></trkpt><trkpt lat="45.603651036266854" lon="11.177880717574926"><ele>870.0000000000001</ele><time>2026-04-25T10:04:26Z</time></trkpt><trkpt lat="45.60368342122312" lon="11.177972096447393"><ele>870.0</ele><time>2026-04-25T10:04:37Z</time></trkpt><trkpt lat="45.603713350167375" lon="11.178081167313742"><ele>869.0</ele><time>2026-04-25T10:04:40Z</time></trkpt><trkpt lat="45.60371538745762" lon="11.178209423495522"><ele>868.0</ele><time>2026-04-25T10:04:43Z</time></trkpt><trkpt lat="45.60370071165394" lon="11.178318708686595"><ele>867.0</ele><time>2026-04-25T10:04:46Z</time></trkpt><trkpt lat="45.60367534872029" lon="11.178414329940999"><ele>866.0</ele><time>2026-04-25T10:04:49Z</time></trkpt><trkpt lat="45.603616789322906" lon="11.178532538126676"><ele>865.0</ele><time>2026-04-25T10:04:51Z</time></trkpt><trkpt lat="45.603582984579795" lon="11.178646904778047"><ele>864.0</ele><time>2026-04-25T10:04:53Z</time></trkpt><trkpt lat="45.6035199050251" lon="11.178754518433992"><ele>858.6666666666666</ele><time>2026-04-25T10:04:56Z</time></trkpt><trkpt lat="45.60350695130535" lon="11.17885754926921"><ele>853.3333333333333</ele><time>2026-04-25T10:04:58Z</time></trkpt><trkpt lat="45.60348765766394" lon="11.178982363883332"><ele>848.0</ele><time>2026-04-25T10:05:00Z</time></trkpt><trkpt lat="45.60341127608846" lon="11.17893272745194"><ele>842.6666666666666</ele><time>2026-04-25T10:05:03Z</time></trkpt><trkpt lat="45.60339195640461" lon="11.178842565481109"><ele>837.3333333333333</ele><time>2026-04-25T10:05:05Z</time></trkpt><trkpt lat="45.6033822433844" lon="11.178726002921778"><ele>832.0</ele><time>2026-04-25T10:05:09Z</time></trkpt><trkpt lat="45.60336170949126" lon="11.178613395300097"><ele>831.9999999999999</ele><time>2026-04-25T10:05:11Z</time></trkpt><trkpt lat="45.60331614012932" lon="11.178526466452514"><ele>832.0</ele><time>2026-04-25T10:05:13Z</time></trkpt><trkpt lat="45.603264374101386" lon="11.178463742413065"><ele>832.0</ele><time>2026-04-25T10:05:14Z</time></trkpt><trkpt lat="45.60319591707895" lon="11.178422409098665"><ele>832.0</ele><time>2026-04-25T10:05:17Z</time></trkpt><trkpt lat="45.603126647012985" lon="11.178488465919896"><ele>831.9999999999999</ele><time>2026-04-25T10:05:25Z</time></trkpt><trkpt lat="45.60312216368897" lon="11.178578687141453"><ele>832.0</ele><time>2026-04-25T10:05:27Z</time></trkpt><trkpt lat="45.603145215312" lon="11.17872255888725"><ele>831.9999999999999</ele><time>2026-04-25T10:05:30Z</time></trkpt><trkpt lat="45.6031602425947" lon="11.178842844074081"><ele>832.0</ele><time>2026-04-25T10:05:32.999Z</time></trkpt><trkpt lat="45.603165278325385" lon="11.178966905658557"><ele>832.0</ele><time>2026-04-25T10:05:34.999Z</time></trkpt><trkpt lat="45.60315467650678" lon="11.17908772314549"><ele>832.0</ele><time>2026-04-25T10:05:36.999Z</time></trkpt><trkpt lat="45.603165727371575" lon="11.179198696695789"><ele>831.9999999999999</ele><time>2026-04-25T10:05:38.999Z</time></trkpt><trkpt lat="45.60319592392731" lon="11.179316237306631"><ele>832.0</ele><time>2026-04-25T10:05:41.999Z</time></trkpt><trkpt lat="45.60323553692742" lon="11.179453516237784"><ele>828.6</ele><time>2026-04-25T10:05:43.999Z</time></trkpt><trkpt lat="45.60332295307684" lon="11.17959402037372"><ele>825.2</ele><time>2026-04-25T10:05:45.999Z</time></trkpt><trkpt lat="45.60337729227322" lon="11.179667214486068"><ele>821.8</ele><time>2026-04-25T10:05:46.999Z</time></trkpt><trkpt lat="45.60344152309511" lon="11.179763974314474"><ele>818.4</ele><time>2026-04-25T10:05:48.999Z</time></trkpt><trkpt lat="45.60353345538996" lon="11.17982603425703"><ele>815.0</ele><time>2026-04-25T10:05:50.999Z</time></trkpt><trkpt lat="45.603631082363115" lon="11.17988778277152"><ele>813.6</ele><time>2026-04-25T10:05:52.999Z</time></trkpt><trkpt lat="45.60374135393553" lon="11.17995731288648"><ele>812.2</ele><time>2026-04-25T10:05:55.999Z</time></trkpt><trkpt lat="45.60382556335303" lon="11.179952797237242"><ele>810.8</ele><time>2026-04-25T10:05:56.999Z</time></trkpt><trkpt lat="45.603922653970315" lon="11.179986813875674"><ele>809.4</ele><time>2026-04-25T10:05:58.999Z</time></trkpt><trkpt lat="45.604007331262736" lon="11.179991817283334"><ele>808.0</ele><time>2026-04-25T10:06:01.999Z</time></trkpt><trkpt lat="45.6040118257154" lon="11.180093984683753"><ele>807.9999999999999</ele><time>2026-04-25T10:06:03.999Z</time></trkpt><trkpt lat="45.60406775854971" lon="11.180188571799784"><ele>808.0</ele><time>2026-04-25T10:06:06.999Z</time></trkpt><trkpt lat="45.60412365869873" lon="11.180283378588827"><ele>808.0</ele><time>2026-04-25T10:06:09.999Z</time></trkpt><trkpt lat="45.60416604047441" lon="11.18036250965347"><ele>808.0</ele><time>2026-04-25T10:06:11.999Z</time></trkpt><trkpt lat="45.60421177182429" lon="11.180457257628632"><ele>807.9999999999999</ele><time>2026-04-25T10:06:13.999Z</time></trkpt><trkpt lat="45.604234977844186" lon="11.180546516237346"><ele>808.0</ele><time>2026-04-25T10:06:16.999Z</time></trkpt><trkpt lat="45.604291321761956" lon="11.180629861364425"><ele>807.0</ele><time>2026-04-25T10:06:19.999Z</time></trkpt><trkpt lat="45.60434726257124" lon="11.180726351555942"><ele>806.0</ele><time>2026-04-25T10:06:23Z</time></trkpt><trkpt lat="45.60439508517874" lon="11.180844393949489"><ele>805.0</ele><time>2026-04-25T10:06:27Z</time></trkpt><trkpt lat="45.604439883059136" lon="11.180939900855469"><ele>804.0</ele><time>2026-04-25T10:06:30Z</time></trkpt><trkpt lat="45.60465760308231" lon="11.180857760304935"><ele>804.0</ele><time>2026-04-25T10:06:36Z</time></trkpt><trkpt lat="45.60475199673944" lon="11.180881583111187"><ele>804.0</ele><time>2026-04-25T10:06:38Z</time></trkpt><trkpt lat="45.604808737661024" lon="11.18094975571023"><ele>804.0</ele><time>2026-04-25T10:06:39Z</time></trkpt><trkpt lat="45.60485548798909" lon="11.18102799861435"><ele>804.0</ele><time>2026-04-25T10:06:40Z</time></trkpt><trkpt lat="45.60486720136572" lon="11.181231940357486"><ele>804.0</ele><time>2026-04-25T10:06:42Z</time></trkpt><trkpt lat="45.604944138401045" lon="11.18127743234268"><ele>804.0</ele><time>2026-04-25T10:06:45Z</time></trkpt><trkpt lat="45.60500965320255" lon="11.18132011711055"><ele>804.0</ele><time>2026-04-25T10:06:47Z</time></trkpt><trkpt lat="45.60495897837986" lon="11.181261557575578"><ele>804.0</ele><time>2026-04-25T10:06:54Z</time></trkpt><trkpt lat="45.60489448441631" lon="11.181252537055457"><ele>804.0</ele><time>2026-04-25T10:07:18Z</time></trkpt><trkpt lat="45.60481549990421" lon="11.181222109446287"><ele>804.0</ele><time>2026-04-25T10:07:20Z</time></trkpt><trkpt lat="45.604712390474305" lon="11.181199776474227"><ele>804.0</ele><time>2026-04-25T10:07:22Z</time></trkpt><trkpt lat="45.60459556550833" lon="11.181227013383863"><ele>804.0</ele><time>2026-04-25T10:07:24Z</time></trkpt><trkpt lat="45.60452164056662" lon="11.181197647547295"><ele>804.0</ele><time>2026-04-25T10:07:25Z</time></trkpt><trkpt lat="45.604459617851724" lon="11.181243737304255"><ele>804.0</ele><time>2026-04-25T10:07:26Z</time></trkpt><trkpt lat="45.604429288293424" lon="11.181359299339611"><ele>804.0</ele><time>2026-04-25T10:07:27Z</time></trkpt><trkpt lat="45.604315587586655" lon="11.181426940126393"><ele>804.0</ele><time>2026-04-25T10:07:29Z</time></trkpt><trkpt lat="45.60422140224808" lon="11.181424198002796"><ele>799.2</ele><time>2026-04-25T10:07:31Z</time></trkpt><trkpt lat="45.60416154405646" lon="11.18152472856112"><ele>794.4000000000001</ele><time>2026-04-25T10:07:33Z</time></trkpt><trkpt lat="45.6040972271515" lon="11.18157226562997"><ele>789.6</ele><time>2026-04-25T10:07:37Z</time></trkpt><trkpt lat="45.60396808117267" lon="11.181381435209035"><ele>784.8</ele><time>2026-04-25T10:07:39Z</time></trkpt><trkpt lat="45.60394058435248" lon="11.181290162526345"><ele>780.0</ele><time>2026-04-25T10:07:41.999Z</time></trkpt><trkpt lat="45.60390586319767" lon="11.18120941458081"><ele>780.0</ele><time>2026-04-25T10:07:43.999Z</time></trkpt><trkpt lat="45.603871102210285" lon="11.181095342621466"><ele>780.0</ele><time>2026-04-25T10:07:45.999Z</time></trkpt><trkpt lat="45.603811734896574" lon="11.181027704763263"><ele>780.0</ele><time>2026-04-25T10:07:47.999Z</time></trkpt><trkpt lat="45.603736518815126" lon="11.181024287106338"><ele>780.0</ele><time>2026-04-25T10:07:51.999Z</time></trkpt><trkpt lat="45.603642857468934" lon="11.181026626868865"><ele>780.0</ele><time>2026-04-25T10:07:55.999Z</time></trkpt><trkpt lat="45.60355684477389" lon="11.181061045571772"><ele>780.0</ele><time>2026-04-25T10:07:58.999Z</time></trkpt><trkpt lat="45.60348437127203" lon="11.181108695208412"><ele>777.0</ele><time>2026-04-25T10:08:00.999Z</time></trkpt><trkpt lat="45.60341018611967" lon="11.181150333995863"><ele>774.0</ele><time>2026-04-25T10:08:02.999Z</time></trkpt><trkpt lat="45.603348905007216" lon="11.181175517689736"><ele>771.0</ele><time>2026-04-25T10:08:04.999Z</time></trkpt><trkpt lat="45.603259913754954" lon="11.181209828457328"><ele>768.0</ele><time>2026-04-25T10:08:07.999Z</time></trkpt><trkpt lat="45.603194129532234" lon="11.181264992047161"><ele>765.0</ele><time>2026-04-25T10:08:09.999Z</time></trkpt><trkpt lat="45.603115366761934" lon="11.181327279154004"><ele>762.0</ele><time>2026-04-25T10:08:12.999Z</time></trkpt><trkpt lat="45.60305473206993" lon="11.181364678542819"><ele>762.0</ele><time>2026-04-25T10:08:14.999Z</time></trkpt><trkpt lat="45.603026611404296" lon="11.181460712070892"><ele>762.0</ele><time>2026-04-25T10:08:29Z</time></trkpt><trkpt lat="45.60306564945247" lon="11.18153869344302"><ele>762.0</ele><time>2026-04-25T10:08:35Z</time></trkpt><trkpt lat="45.603117491544005" lon="11.181619456386155"><ele>762.0</ele><time>2026-04-25T10:08:38Z</time></trkpt><trkpt lat="45.60319113878104" lon="11.18167019617167"><ele>762.0</ele><time>2026-04-25T10:08:42Z</time></trkpt><trkpt lat="45.603270717398864" lon="11.181759661697239"><ele>762.0</ele><time>2026-04-25T10:08:52Z</time></trkpt><trkpt lat="45.60321975396588" lon="11.181841682697458"><ele>758.3333333333334</ele><time>2026-04-25T10:08:59Z</time></trkpt><trkpt lat="45.6032232183964" lon="11.181960123454603"><ele>754.6666666666666</ele><time>2026-04-25T10:09:10Z</time></trkpt><trkpt lat="45.60321041761628" lon="11.182054932874387"><ele>751.0</ele><time>2026-04-25T10:09:14Z</time></trkpt><trkpt lat="45.603183643474935" lon="11.182193004653609"><ele>747.3333333333333</ele><time>2026-04-25T10:09:30Z</time></trkpt><trkpt lat="45.60313078332209" lon="11.182262691108331"><ele>743.6666666666666</ele><time>2026-04-25T10:09:43Z</time></trkpt><trkpt lat="45.603043044755246" lon="11.182304447196302"><ele>740.0</ele><time>2026-04-25T10:11:19Z</time></trkpt><trkpt lat="45.602980004636755" lon="11.182306329974438"><ele>740.0</ele><time>2026-04-25T10:11:29Z</time></trkpt><trkpt lat="45.60290907466581" lon="11.182300966478634"><ele>740.0</ele><time>2026-04-25T10:11:37Z</time></trkpt><trkpt lat="45.602836192163224" lon="11.182300402677267"><ele>740.0</ele><time>2026-04-25T10:11:41Z</time></trkpt><trkpt lat="45.60277394882635" lon="11.182275596178181"><ele>740.0</ele><time>2026-04-25T10:11:45Z</time></trkpt><trkpt lat="45.6027038581526" lon="11.182241742683956"><ele>740.0</ele><time>2026-04-25T10:12:49Z</time></trkpt><trkpt lat="45.602633633986386" lon="11.182143931479409"><ele>740.0</ele><time>2026-04-25T10:12:51Z</time></trkpt><trkpt lat="45.60258359943346" lon="11.182071473449344"><ele>735.4</ele><time>2026-04-25T10:12:52Z</time></trkpt><trkpt lat="45.60246957160181" lon="11.181994029222054"><ele>730.8</ele><time>2026-04-25T10:12:54Z</time></trkpt><trkpt lat="45.60237068072947" lon="11.181902888790217"><ele>726.2</ele><time>2026-04-25T10:12:56Z</time></trkpt><trkpt lat="45.6023264617605" lon="11.181812878168346"><ele>721.6</ele><time>2026-04-25T10:12:57Z</time></trkpt><trkpt lat="45.60228125867094" lon="11.181736304054644"><ele>717.0</ele><time>2026-04-25T10:12:58Z</time></trkpt><trkpt lat="45.60222682882713" lon="11.181664066384506"><ele>717.0</ele><time>2026-04-25T10:12:59Z</time></trkpt><trkpt lat="45.60217793486486" lon="11.181593591789994"><ele>717.0</ele><time>2026-04-25T10:13:00Z</time></trkpt><trkpt lat="45.602103309812264" lon="11.181459949085157"><ele>717.0</ele><time>2026-04-25T10:13:02Z</time></trkpt><trkpt lat="45.602034923915184" lon="11.181406602021909"><ele>717.0</ele><time>2026-04-25T10:13:03Z</time></trkpt><trkpt lat="45.60192925325998" lon="11.181340795200754"><ele>717.0</ele><time>2026-04-25T10:13:05Z</time></trkpt><trkpt lat="45.60188080824322" lon="11.181173330146457"><ele>717.6666666666666</ele><time>2026-04-25T10:13:07Z</time></trkpt><trkpt lat="45.601791500583744" lon="11.181086325413764"><ele>718.3333333333334</ele><time>2026-04-25T10:13:09Z</time></trkpt><trkpt lat="45.60172814240753" lon="11.181027482178704"><ele>719.0</ele><time>2026-04-25T10:13:10Z</time></trkpt><trkpt lat="45.60171039085371" lon="11.180928255104625"><ele>719.6666666666667</ele><time>2026-04-25T10:13:12Z</time></trkpt><trkpt lat="45.60166857248374" lon="11.18084036269114"><ele>720.3333333333334</ele><time>2026-04-25T10:13:14Z</time></trkpt><trkpt lat="45.60163239842085" lon="11.180761175202651"><ele>721.0</ele><time>2026-04-25T10:13:17Z</time></trkpt><trkpt lat="45.601573074593816" lon="11.180664659003604"><ele>721.0</ele><time>2026-04-25T10:13:19Z</time></trkpt><trkpt lat="45.601488215699774" lon="11.180607283246623"><ele>721.0</ele><time>2026-04-25T10:13:21Z</time></trkpt><trkpt lat="45.601429155306256" lon="11.180501522910482"><ele>721.0</ele><time>2026-04-25T10:13:24Z</time></trkpt><trkpt lat="45.60138466404201" lon="11.180352585642087"><ele>721.0</ele><time>2026-04-25T10:13:26Z</time></trkpt><trkpt lat="45.601337129560626" lon="11.18028570266274"><ele>721.0</ele><time>2026-04-25T10:13:28Z</time></trkpt><trkpt lat="45.60129183917303" lon="11.180190396791428"><ele>721.0</ele><time>2026-04-25T10:13:30Z</time></trkpt><trkpt lat="45.60125461665095" lon="11.180077609234722"><ele>721.0</ele><time>2026-04-25T10:13:31Z</time></trkpt><trkpt lat="45.60120917043872" lon="11.179978059322664"><ele>721.0</ele><time>2026-04-25T10:13:32Z</time></trkpt><trkpt lat="45.601207837859405" lon="11.179885467463185"><ele>721.0</ele><time>2026-04-25T10:13:33Z</time></trkpt><trkpt lat="45.60111863287693" lon="11.179753415395654"><ele>721.0</ele><time>2026-04-25T10:13:35Z</time></trkpt><trkpt lat="45.601040714886416" lon="11.17970353840711"><ele>721.0</ele><time>2026-04-25T10:13:36Z</time></trkpt><trkpt lat="45.60097343718397" lon="11.179649188284753"><ele>721.0</ele><time>2026-04-25T10:13:37Z</time></trkpt><trkpt lat="45.60091271971892" lon="11.179596806500292"><ele>715.8333333333334</ele><time>2026-04-25T10:13:38Z</time></trkpt><trkpt lat="45.60084832958741" lon="11.179477630740674"><ele>710.6666666666667</ele><time>2026-04-25T10:13:40Z</time></trkpt><trkpt lat="45.60079653207284" lon="11.179411805133228"><ele>705.5</ele><time>2026-04-25T10:13:41Z</time></trkpt><trkpt lat="45.60073880306456" lon="11.179355187508873"><ele>700.3333333333334</ele><time>2026-04-25T10:13:42Z</time></trkpt><trkpt lat="45.600714732623125" lon="11.179245498427154"><ele>695.1666666666666</ele><time>2026-04-25T10:13:43Z</time></trkpt><trkpt lat="45.600670655605946" lon="11.17914527002725"><ele>690.0</ele><time>2026-04-25T10:13:44Z</time></trkpt><trkpt lat="45.600622504479574" lon="11.179047655418152"><ele>690.8</ele><time>2026-04-25T10:13:45Z</time></trkpt><trkpt lat="45.60057661915498" lon="11.178969301905331"><ele>691.6</ele><time>2026-04-25T10:13:46Z</time></trkpt><trkpt lat="45.60050757056416" lon="11.178882184769787"><ele>692.4000000000001</ele><time>2026-04-25T10:13:48Z</time></trkpt><trkpt lat="45.60044777611255" lon="11.178800055245466"><ele>693.2</ele><time>2026-04-25T10:13:50Z</time></trkpt><trkpt lat="45.600368974661365" lon="11.178752034689879"><ele>694.0</ele><time>2026-04-25T10:13:51Z</time></trkpt><trkpt lat="45.60030584128083" lon="11.178591002190567"><ele>689.8333333333334</ele><time>2026-04-25T10:13:53Z</time></trkpt><trkpt lat="45.6002684432851" lon="11.178487736189963"><ele>685.6666666666667</ele><time>2026-04-25T10:13:54Z</time></trkpt><trkpt lat="45.60017133885962" lon="11.178417225908687"><ele>681.5</ele><time>2026-04-25T10:13:56Z</time></trkpt><trkpt lat="45.60011535810494" lon="11.17833115818638"><ele>677.3333333333334</ele><time>2026-04-25T10:13:57Z</time></trkpt><trkpt lat="45.60007781814579" lon="11.17823253100823"><ele>673.1666666666666</ele><time>2026-04-25T10:13:58Z</time></trkpt><trkpt lat="45.60004050216968" lon="11.178115218233641"><ele>669.0</ele><time>2026-04-25T10:13:59Z</time></trkpt><trkpt lat="45.60002455468953" lon="11.178012501326927"><ele>668.1666666666666</ele><time>2026-04-25T10:14:00Z</time></trkpt><trkpt lat="45.59999663201592" lon="11.177920838713197"><ele>667.3333333333334</ele><time>2026-04-25T10:14:01Z</time></trkpt><trkpt lat="45.5999679468982" lon="11.17783434247167"><ele>666.5</ele><time>2026-04-25T10:14:02Z</time></trkpt><trkpt lat="45.5999238991923" lon="11.177752257849951"><ele>665.6666666666667</ele><time>2026-04-25T10:14:03Z</time></trkpt><trkpt lat="45.599869067103654" lon="11.177691560453624"><ele>664.8333333333334</ele><time>2026-04-25T10:14:04Z</time></trkpt><trkpt lat="45.59980020171633" lon="11.177636809745321"><ele>664.0</ele><time>2026-04-25T10:14:05Z</time></trkpt><trkpt lat="45.5997059480857" lon="11.177555064896259"><ele>664.0</ele><time>2026-04-25T10:14:07Z</time></trkpt><trkpt lat="45.59965820995187" lon="11.17743355197526"><ele>664.0</ele><time>2026-04-25T10:14:09Z</time></trkpt><trkpt lat="45.59961088290082" lon="11.177236513657341"><ele>664.0</ele><time>2026-04-25T10:14:11Z</time></trkpt><trkpt lat="45.59959619955635" lon="11.177113869127096"><ele>664.0</ele><time>2026-04-25T10:14:12Z</time></trkpt><trkpt lat="45.59956212720943" lon="11.177004862509621"><ele>664.0</ele><time>2026-04-25T10:14:13Z</time></trkpt><trkpt lat="45.599505691813434" lon="11.176878142415022"><ele>658.8000000000001</ele><time>2026-04-25T10:14:15Z</time></trkpt><trkpt lat="45.59939927509863" lon="11.176773588094939"><ele>653.6</ele><time>2026-04-25T10:14:17Z</time></trkpt><trkpt lat="45.59931715873958" lon="11.176786850661534"><ele>648.4</ele><time>2026-04-25T10:14:19Z</time></trkpt><trkpt lat="45.59925486891219" lon="11.176816225540573"><ele>643.2</ele><time>2026-04-25T10:14:21Z</time></trkpt><trkpt lat="45.59923630235644" lon="11.1767004530798"><ele>638.0</ele><time>2026-04-25T10:14:23Z</time></trkpt><trkpt lat="45.59914606717709" lon="11.176673304401918"><ele>638.0</ele><time>2026-04-25T10:14:27Z</time></trkpt><trkpt lat="45.59908360361172" lon="11.17669456866612"><ele>638.0</ele><time>2026-04-25T10:14:28Z</time></trkpt><trkpt lat="45.59896310852559" lon="11.176695258597679"><ele>638.0</ele><time>2026-04-25T10:14:29.999Z</time></trkpt><trkpt lat="45.59884869011623" lon="11.176713212193473"><ele>638.0</ele><time>2026-04-25T10:14:31.999Z</time></trkpt><trkpt lat="45.59878677628725" lon="11.176734370498155"><ele>638.0</ele><time>2026-04-25T10:14:32.999Z</time></trkpt><trkpt lat="45.5987278644273" lon="11.176779515171628"><ele>638.0</ele><time>2026-04-25T10:14:33.999Z</time></trkpt><trkpt lat="45.59866936040139" lon="11.176833805770205"><ele>639.8</ele><time>2026-04-25T10:14:34.999Z</time></trkpt><trkpt lat="45.59856310506775" lon="11.176879951678686"><ele>641.5999999999999</ele><time>2026-04-25T10:14:36.999Z</time></trkpt><trkpt lat="45.598486831251854" lon="11.176960141450978"><ele>643.4000000000001</ele><time>2026-04-25T10:14:38.999Z</time></trkpt><trkpt lat="45.598398690417355" lon="11.177099071852846"><ele>645.2</ele><time>2026-04-25T10:14:40.999Z</time></trkpt><trkpt lat="45.59834180972282" lon="11.177160186875133"><ele>647.0</ele><time>2026-04-25T10:14:41.999Z</time></trkpt><trkpt lat="45.598260002616875" lon="11.177232549533365"><ele>647.0</ele><time>2026-04-25T10:14:42.999Z</time></trkpt><trkpt lat="45.59818096257872" lon="11.177302940522992"><ele>647.0</ele><time>2026-04-25T10:14:43.999Z</time></trkpt><trkpt lat="45.59811559035413" lon="11.17737339823024"><ele>647.0</ele><time>2026-04-25T10:14:45Z</time></trkpt><trkpt lat="45.59805786795286" lon="11.177529225940441"><ele>647.0</ele><time>2026-04-25T10:14:47Z</time></trkpt><trkpt lat="45.59803417496335" lon="11.177634146192897"><ele>647.0</ele><time>2026-04-25T10:14:48Z</time></trkpt><trkpt lat="45.59799950325723" lon="11.177757389164642"><ele>646.4000000000001</ele><time>2026-04-25T10:14:49Z</time></trkpt><trkpt lat="45.59796202167475" lon="11.17788546876178"><ele>645.8000000000001</ele><time>2026-04-25T10:14:50Z</time></trkpt><trkpt lat="45.597930455280576" lon="11.177981372691887"><ele>645.2</ele><time>2026-04-25T10:14:51Z</time></trkpt><trkpt lat="45.59784475409628" lon="11.17803605406628"><ele>644.6</ele><time>2026-04-25T10:14:53Z</time></trkpt><trkpt lat="45.59770380170608" lon="11.178054494374619"><ele>644.0</ele><time>2026-04-25T10:14:55Z</time></trkpt><trkpt lat="45.597617340170956" lon="11.178080035916754"><ele>645.3333333333333</ele><time>2026-04-25T10:14:56Z</time></trkpt><trkpt lat="45.5975422924201" lon="11.178132737120444"><ele>646.6666666666666</ele><time>2026-04-25T10:14:57Z</time></trkpt><trkpt lat="45.597458633632044" lon="11.178190745591136"><ele>648.0</ele><time>2026-04-25T10:14:58Z</time></trkpt><trkpt lat="45.597388633579904" lon="11.178231851671963"><ele>649.3333333333334</ele><time>2026-04-25T10:14:59Z</time></trkpt><trkpt lat="45.59730893719417" lon="11.178288058436085"><ele>650.6666666666667</ele><time>2026-04-25T10:15:00Z</time></trkpt><trkpt lat="45.597221102136096" lon="11.178350115279391"><ele>652.0</ele><time>2026-04-25T10:15:01Z</time></trkpt><trkpt lat="45.5971597400445" lon="11.178455840533069"><ele>652.0</ele><time>2026-04-25T10:15:02Z</time></trkpt><trkpt lat="45.5971236344808" lon="11.178562092843329"><ele>652.0</ele><time>2026-04-25T10:15:03Z</time></trkpt><trkpt lat="45.5970903805342" lon="11.178711322092195"><ele>652.0</ele><time>2026-04-25T10:15:04Z</time></trkpt><trkpt lat="45.597041818968165" lon="11.178925099077114"><ele>652.0</ele><time>2026-04-25T10:15:05Z</time></trkpt><trkpt lat="45.59702343924934" lon="11.179101165153478"><ele>653.6666666666667</ele><time>2026-04-25T10:15:06Z</time></trkpt><trkpt lat="45.5970217455335" lon="11.179218258524967"><ele>655.3333333333334</ele><time>2026-04-25T10:15:07Z</time></trkpt><trkpt lat="45.59700996749792" lon="11.17931444190819"><ele>657.0</ele><time>2026-04-25T10:15:08Z</time></trkpt><trkpt lat="45.5969038635071" lon="11.179452666695424"><ele>658.6666666666666</ele><time>2026-04-25T10:15:10Z</time></trkpt><trkpt lat="45.59687013751924" lon="11.179530621998953"><ele>660.3333333333333</ele><time>2026-04-25T10:15:11Z</time></trkpt><trkpt lat="45.596865921288895" lon="11.179622551894534"><ele>662.0</ele><time>2026-04-25T10:15:12Z</time></trkpt><trkpt lat="45.59689977609489" lon="11.179729771067953"><ele>662.1666666666666</ele><time>2026-04-25T10:15:13Z</time></trkpt><trkpt lat="45.59692836582873" lon="11.179859326369218"><ele>662.3333333333333</ele><time>2026-04-25T10:15:14Z</time></trkpt><trkpt lat="45.59692050589025" lon="11.179972847188798"><ele>662.5</ele><time>2026-04-25T10:15:15Z</time></trkpt><trkpt lat="45.59688449386096" lon="11.180070586193027"><ele>662.6666666666666</ele><time>2026-04-25T10:15:16Z</time></trkpt><trkpt lat="45.59682250600862" lon="11.180144872506595"><ele>662.8333333333334</ele><time>2026-04-25T10:15:17Z</time></trkpt><trkpt lat="45.596745982968464" lon="11.180171159374957"><ele>663.0</ele><time>2026-04-25T10:15:18Z</time></trkpt><trkpt lat="45.596651806447255" lon="11.180149527543335"><ele>663.0</ele><time>2026-04-25T10:15:19Z</time></trkpt><trkpt lat="45.59656157768656" lon="11.18011409812115"><ele>663.0</ele><time>2026-04-25T10:15:20Z</time></trkpt><trkpt lat="45.5964604717434" lon="11.180124898619223"><ele>663.0</ele><time>2026-04-25T10:15:21Z</time></trkpt><trkpt lat="45.59637352968586" lon="11.180174331474593"><ele>663.0</ele><time>2026-04-25T10:15:22Z</time></trkpt><trkpt lat="45.59629931079378" lon="11.180205611494513"><ele>663.0</ele><time>2026-04-25T10:15:23Z</time></trkpt><trkpt lat="45.59622806835504" lon="11.18021201270189"><ele>663.0</ele><time>2026-04-25T10:15:24Z</time></trkpt><trkpt lat="45.59613631841554" lon="11.180168734379873"><ele>666.0</ele><time>2026-04-25T10:15:25Z</time></trkpt><trkpt lat="45.59606694340835" lon="11.180128557412916"><ele>669.0</ele><time>2026-04-25T10:15:26Z</time></trkpt><trkpt lat="45.595993351607724" lon="11.180107705120925"><ele>672.0</ele><time>2026-04-25T10:15:27Z</time></trkpt><trkpt lat="45.59590597778844" lon="11.180079398466887"><ele>675.0</ele><time>2026-04-25T10:15:28Z</time></trkpt><trkpt lat="45.59583282846438" lon="11.180053971065133"><ele>678.0</ele><time>2026-04-25T10:15:30Z</time></trkpt><trkpt lat="45.595808176199554" lon="11.180161346798176"><ele>681.0</ele><time>2026-04-25T10:15:32Z</time></trkpt><trkpt lat="45.59587193584411" lon="11.18023685312881"><ele>681.0</ele><time>2026-04-25T10:15:34Z</time></trkpt><trkpt lat="45.59590256345264" lon="11.180324052585751"><ele>681.0</ele><time>2026-04-25T10:15:35Z</time></trkpt><trkpt lat="45.59584927007201" lon="11.180392657650282"><ele>681.0</ele><time>2026-04-25T10:15:38Z</time></trkpt><trkpt lat="45.59573957029803" lon="11.180373979067072"><ele>681.0</ele><time>2026-04-25T10:15:40Z</time></trkpt><trkpt lat="45.59566716040179" lon="11.180377719633997"><ele>681.0</ele><time>2026-04-25T10:15:41Z</time></trkpt><trkpt lat="45.595579886406675" lon="11.180413030495401"><ele>681.0</ele><time>2026-04-25T10:15:42Z</time></trkpt><trkpt lat="45.5955204896459" lon="11.180478525420003"><ele>681.0</ele><time>2026-04-25T10:15:43Z</time></trkpt><trkpt lat="45.59547280273257" lon="11.180561265016003"><ele>681.0</ele><time>2026-04-25T10:15:44Z</time></trkpt><trkpt lat="45.595381073039285" lon="11.180615767887954"><ele>681.0</ele><time>2026-04-25T10:15:46Z</time></trkpt><trkpt lat="45.59531638388256" lon="11.18061168211988"><ele>681.0</ele><time>2026-04-25T10:15:47Z</time></trkpt><trkpt lat="45.59524866631297" lon="11.180581664632257"><ele>681.0</ele><time>2026-04-25T10:15:48Z</time></trkpt><trkpt lat="45.59511504526911" lon="11.180551575822117"><ele>681.0</ele><time>2026-04-25T10:15:50Z</time></trkpt><trkpt lat="45.59503047729032" lon="11.180549210279933"><ele>684.1666666666666</ele><time>2026-04-25T10:15:51Z</time></trkpt><trkpt lat="45.59494158679838" lon="11.18052526922868"><ele>687.3333333333334</ele><time>2026-04-25T10:15:52Z</time></trkpt><trkpt lat="45.594831144252545" lon="11.180500122463716"><ele>690.5</ele><time>2026-04-25T10:15:54Z</time></trkpt><trkpt lat="45.594858192914366" lon="11.180391178538905"><ele>693.6666666666667</ele><time>2026-04-25T10:15:57Z</time></trkpt><trkpt lat="45.594861637683245" lon="11.18029566540535"><ele>696.8333333333334</ele><time>2026-04-25T10:16:00Z</time></trkpt><trkpt lat="45.594826514062746" lon="11.180196995364328"><ele>700.0</ele><time>2026-04-25T10:16:03Z</time></trkpt><trkpt lat="45.5947730491123" lon="11.18010104397341"><ele>700.0</ele><time>2026-04-25T10:16:05Z</time></trkpt><trkpt lat="45.594703889993674" lon="11.180031683981657"><ele>700.0</ele><time>2026-04-25T10:16:06Z</time></trkpt><trkpt lat="45.59463688166425" lon="11.180000013843966"><ele>700.0</ele><time>2026-04-25T10:16:07Z</time></trkpt><trkpt lat="45.5945171111988" lon="11.179924202863726"><ele>700.0</ele><time>2026-04-25T10:16:09Z</time></trkpt><trkpt lat="45.59441442766808" lon="11.17987192328688"><ele>700.0</ele><time>2026-04-25T10:16:11Z</time></trkpt><trkpt lat="45.59430315853502" lon="11.179803389034445"><ele>708.0</ele><time>2026-04-25T10:16:13Z</time></trkpt><trkpt lat="45.5942051955486" lon="11.179762060072864"><ele>716.0</ele><time>2026-04-25T10:16:15Z</time></trkpt><trkpt lat="45.59418105498499" lon="11.179633851774323"><ele>724.0</ele><time>2026-04-25T10:16:18Z</time></trkpt><trkpt lat="45.5942186788549" lon="11.179553628302427"><ele>732.0</ele><time>2026-04-25T10:16:20Z</time></trkpt><trkpt lat="45.59432165921691" lon="11.179499846350158"><ele>740.0</ele><time>2026-04-25T10:16:23Z</time></trkpt><trkpt lat="45.59439870019806" lon="11.179443637591278"><ele>736.4</ele><time>2026-04-25T10:16:25Z</time></trkpt><trkpt lat="45.59450781210509" lon="11.179360567393742"><ele>732.8</ele><time>2026-04-25T10:16:27Z</time></trkpt><trkpt lat="45.594583932517956" lon="11.179278903484203"><ele>729.2</ele><time>2026-04-25T10:16:29Z</time></trkpt><trkpt lat="45.59462437362879" lon="11.17919106518311"><ele>725.6</ele><time>2026-04-25T10:16:31Z</time></trkpt><trkpt lat="45.59472966977901" lon="11.179119133993492"><ele>722.0</ele><time>2026-04-25T10:16:33Z</time></trkpt><trkpt lat="45.59484830986705" lon="11.17908897542703"><ele>722.0</ele><time>2026-04-25T10:16:35Z</time></trkpt><trkpt lat="45.59494593281061" lon="11.179146803223993"><ele>722.0</ele><time>2026-04-25T10:16:37Z</time></trkpt><trkpt lat="45.59502314937274" lon="11.179216326575975"><ele>722.0</ele><time>2026-04-25T10:16:39Z</time></trkpt><trkpt lat="45.59516056703795" lon="11.179182265211058"><ele>722.0</ele><time>2026-04-25T10:16:41Z</time></trkpt><trkpt lat="45.595239520690164" lon="11.179145047686717"><ele>722.0</ele><time>2026-04-25T10:16:41.999Z</time></trkpt><trkpt lat="45.59532764007692" lon="11.179074839407072"><ele>720.0</ele><time>2026-04-25T10:16:42.999Z</time></trkpt><trkpt lat="45.595382664546584" lon="11.179024214604503"><ele>718.0</ele><time>2026-04-25T10:16:43.999Z</time></trkpt><trkpt lat="45.595520380293586" lon="11.17902256414995"><ele>716.0</ele><time>2026-04-25T10:16:46.999Z</time></trkpt><trkpt lat="45.59557902141499" lon="11.178970189439756"><ele>714.0</ele><time>2026-04-25T10:16:47.999Z</time></trkpt><trkpt lat="45.59569037155382" lon="11.178901494578284"><ele>712.0</ele><time>2026-04-25T10:16:49.999Z</time></trkpt><trkpt lat="45.595734498428236" lon="11.178801930687424"><ele>718.6</ele><time>2026-04-25T10:16:52Z</time></trkpt><trkpt lat="45.59578052107913" lon="11.178709693937781"><ele>725.2</ele><time>2026-04-25T10:16:54Z</time></trkpt><trkpt lat="45.59581332849499" lon="11.178604617611647"><ele>731.8</ele><time>2026-04-25T10:16:56Z</time></trkpt><trkpt lat="45.595866943621665" lon="11.178465012789024"><ele>738.4</ele><time>2026-04-25T10:16:58Z</time></trkpt><trkpt lat="45.59589764501183" lon="11.178296353608518"><ele>745.0</ele><time>2026-04-25T10:17:01Z</time></trkpt><trkpt lat="45.595916643147106" lon="11.17816743714386"><ele>748.6666666666667</ele><time>2026-04-25T10:17:02Z</time></trkpt><trkpt lat="45.59593532231949" lon="11.178066096481258"><ele>752.3333333333334</ele><time>2026-04-25T10:17:03Z</time></trkpt><trkpt lat="45.59595965978785" lon="11.17796026040389"><ele>756.0</ele><time>2026-04-25T10:17:04Z</time></trkpt><trkpt lat="45.59596756257492" lon="11.177867622698765"><ele>759.6666666666666</ele><time>2026-04-25T10:17:05Z</time></trkpt><trkpt lat="45.59597282570465" lon="11.177700787785115"><ele>763.3333333333333</ele><time>2026-04-25T10:17:07Z</time></trkpt><trkpt lat="45.59597978201579" lon="11.17760220281287"><ele>767.0</ele><time>2026-04-25T10:17:08Z</time></trkpt><trkpt lat="45.59599644175425" lon="11.177472125903677"><ele>767.0</ele><time>2026-04-25T10:17:10Z</time></trkpt><trkpt lat="45.59603586091054" lon="11.177386025426838"><ele>767.0</ele><time>2026-04-25T10:17:15Z</time></trkpt><trkpt lat="45.59618714796157" lon="11.177151939656767"><ele>767.0</ele><time>2026-04-25T10:17:32Z</time></trkpt><trkpt lat="45.596218432478295" lon="11.177050406210919"><ele>767.0</ele><time>2026-04-25T10:17:34Z</time></trkpt><trkpt lat="45.59623268387693" lon="11.176914114433044"><ele>763.3333333333333</ele><time>2026-04-25T10:17:36Z</time></trkpt><trkpt lat="45.59623756488506" lon="11.17680940711522"><ele>759.6666666666666</ele><time>2026-04-25T10:17:38Z</time></trkpt><trkpt lat="45.59626927424168" lon="11.176696188727947"><ele>756.0</ele><time>2026-04-25T10:17:40Z</time></trkpt><trkpt lat="45.59630476673749" lon="11.176565640838108"><ele>752.3333333333334</ele><time>2026-04-25T10:17:42Z</time></trkpt><trkpt lat="45.59633619852228" lon="11.176459672218455"><ele>748.6666666666667</ele><time>2026-04-25T10:17:43Z</time></trkpt><trkpt lat="45.5963788507196" lon="11.176363933192013"><ele>745.0</ele><time>2026-04-25T10:17:44Z</time></trkpt><trkpt lat="45.59643871245037" lon="11.176223208577825"><ele>745.0</ele><time>2026-04-25T10:17:46Z</time></trkpt><trkpt lat="45.59647082047862" lon="11.17604440783235"><ele>745.0</ele><time>2026-04-25T10:17:48Z</time></trkpt><trkpt lat="45.59646367930523" lon="11.175935508110188"><ele>745.0</ele><time>2026-04-25T10:17:49Z</time></trkpt><trkpt lat="45.59645518112736" lon="11.175771598054089"><ele>745.0</ele><time>2026-04-25T10:17:50Z</time></trkpt><trkpt lat="45.59646382052819" lon="11.175654464583175"><ele>745.0</ele><time>2026-04-25T10:17:51Z</time></trkpt><trkpt lat="45.596486335678165" lon="11.175512195449333"><ele>749.0</ele><time>2026-04-25T10:17:52Z</time></trkpt><trkpt lat="45.59649936158168" lon="11.175353805603496"><ele>753.0</ele><time>2026-04-25T10:17:53Z</time></trkpt><trkpt lat="45.596481149568184" lon="11.175202520859218"><ele>757.0</ele><time>2026-04-25T10:17:55Z</time></trkpt><trkpt lat="45.59650365229333" lon="11.175113374256922"><ele>761.0</ele><time>2026-04-25T10:17:57Z</time></trkpt><trkpt lat="45.5965608541237" lon="11.174987169549095"><ele>765.0</ele><time>2026-04-25T10:17:59Z</time></trkpt><trkpt lat="45.596615597468336" lon="11.174935907937783"><ele>762.6</ele><time>2026-04-25T10:18:00Z</time></trkpt><trkpt lat="45.59669051893322" lon="11.174843679786502"><ele>760.2</ele><time>2026-04-25T10:18:01Z</time></trkpt><trkpt lat="45.5967449072321" lon="11.174769312937096"><ele>757.8</ele><time>2026-04-25T10:18:02Z</time></trkpt><trkpt lat="45.59685691913016" lon="11.174690121097095"><ele>755.4</ele><time>2026-04-25T10:18:06Z</time></trkpt><trkpt lat="45.59694686791498" lon="11.174649526024828"><ele>753.0</ele><time>2026-04-25T10:18:08Z</time></trkpt><trkpt lat="45.597035075097445" lon="11.174543200883921"><ele>753.0</ele><time>2026-04-25T10:18:10Z</time></trkpt><trkpt lat="45.59710044269586" lon="11.174494792979882"><ele>753.0</ele><time>2026-04-25T10:18:11Z</time></trkpt><trkpt lat="45.597193172779576" lon="11.174442266641373"><ele>753.0</ele><time>2026-04-25T10:18:13Z</time></trkpt><trkpt lat="45.597241240343415" lon="11.17436857800803"><ele>753.0</ele><time>2026-04-25T10:18:15Z</time></trkpt><trkpt lat="45.59727294864168" lon="11.174279752614286"><ele>753.0</ele><time>2026-04-25T10:18:17Z</time></trkpt><trkpt lat="45.597292044020115" lon="11.174189325937355"><ele>753.0</ele><time>2026-04-25T10:18:18Z</time></trkpt><trkpt lat="45.597282400925934" lon="11.17399045446847"><ele>754.4</ele><time>2026-04-25T10:18:20Z</time></trkpt><trkpt lat="45.59725613300409" lon="11.173816584977493"><ele>755.8</ele><time>2026-04-25T10:18:22Z</time></trkpt><trkpt lat="45.59726254233312" lon="11.1736931208131"><ele>757.2</ele><time>2026-04-25T10:18:24Z</time></trkpt><trkpt lat="45.59727386314687" lon="11.173513585899439"><ele>758.6</ele><time>2026-04-25T10:18:26Z</time></trkpt><trkpt lat="45.59729816404902" lon="11.173399140016162"><ele>760.0</ele><time>2026-04-25T10:18:27Z</time></trkpt><trkpt lat="45.597311577954926" lon="11.173308922461562"><ele>759.8333333333334</ele><time>2026-04-25T10:18:28Z</time></trkpt><trkpt lat="45.59731275336932" lon="11.173162182829797"><ele>759.6666666666667</ele><time>2026-04-25T10:18:30Z</time></trkpt><trkpt lat="45.59725893664851" lon="11.17310248835157"><ele>759.5</ele><time>2026-04-25T10:18:31Z</time></trkpt><trkpt lat="45.59719077981271" lon="11.173023328310864"><ele>759.3333333333334</ele><time>2026-04-25T10:18:32Z</time></trkpt><trkpt lat="45.597132688648394" lon="11.17289572370997"><ele>759.1666666666666</ele><time>2026-04-25T10:18:33Z</time></trkpt><trkpt lat="45.59708870406442" lon="11.172829494276453"><ele>759.0</ele><time>2026-04-25T10:18:34Z</time></trkpt><trkpt lat="45.597041844819564" lon="11.172691630516724"><ele>759.0</ele><time>2026-04-25T10:18:36Z</time></trkpt><trkpt lat="45.59702439377682" lon="11.172577810876879"><ele>759.0</ele><time>2026-04-25T10:18:38Z</time></trkpt><trkpt lat="45.5970120341106" lon="11.17244782083425"><ele>759.0</ele><time>2026-04-25T10:18:40Z</time></trkpt><trkpt lat="45.59704395046919" lon="11.172341159553392"><ele>759.0</ele><time>2026-04-25T10:18:41Z</time></trkpt><trkpt lat="45.59703745595976" lon="11.172240973716095"><ele>759.0</ele><time>2026-04-25T10:18:42Z</time></trkpt><trkpt lat="45.597002932975755" lon="11.172089844648003"><ele>759.0</ele><time>2026-04-25T10:18:44Z</time></trkpt><trkpt lat="45.5969534193912" lon="11.172001522059723"><ele>761.8000000000001</ele><time>2026-04-25T10:18:46Z</time></trkpt><trkpt lat="45.59684956993867" lon="11.171916232992514"><ele>764.6</ele><time>2026-04-25T10:18:48Z</time></trkpt><trkpt lat="45.59683908191706" lon="11.17181933073053"><ele>767.4</ele><time>2026-04-25T10:18:49Z</time></trkpt><trkpt lat="45.59679756744903" lon="11.171726943656061"><ele>770.2</ele><time>2026-04-25T10:18:51Z</time></trkpt><trkpt lat="45.59674293071105" lon="11.171666077319541"><ele>773.0</ele><time>2026-04-25T10:18:52Z</time></trkpt><trkpt lat="45.59663001330718" lon="11.171596232276526"><ele>773.0000000000001</ele><time>2026-04-25T10:18:54Z</time></trkpt><trkpt lat="45.59654387070335" lon="11.171558180893102"><ele>773.0</ele><time>2026-04-25T10:18:55Z</time></trkpt><trkpt lat="45.59647291390103" lon="11.171506775225065"><ele>773.0</ele><time>2026-04-25T10:18:56Z</time></trkpt><trkpt lat="45.59635657314333" lon="11.171500545974283"><ele>773.0</ele><time>2026-04-25T10:18:58Z</time></trkpt><trkpt lat="45.59628387007253" lon="11.171504411698836"><ele>773.0000000000001</ele><time>2026-04-25T10:18:59Z</time></trkpt><trkpt lat="45.5962107657187" lon="11.171499970013997"><ele>773.0</ele><time>2026-04-25T10:19:00Z</time></trkpt><trkpt lat="45.59614740016641" lon="11.171505108015792"><ele>774.8333333333334</ele><time>2026-04-25T10:19:01Z</time></trkpt><trkpt lat="45.596046048739495" lon="11.171555959094038"><ele>776.6666666666667</ele><time>2026-04-25T10:19:03Z</time></trkpt><trkpt lat="45.59597936872528" lon="11.171610790669678"><ele>778.5</ele><time>2026-04-25T10:19:04Z</time></trkpt><trkpt lat="45.59591331623977" lon="11.171676208718772"><ele>780.3333333333333</ele><time>2026-04-25T10:19:05Z</time></trkpt><trkpt lat="45.595831837604266" lon="11.17172285884808"><ele>782.1666666666666</ele><time>2026-04-25T10:19:06Z</time></trkpt><trkpt lat="45.59576588519424" lon="11.171745711821744"><ele>784.0</ele><time>2026-04-25T10:19:07Z</time></trkpt><trkpt lat="45.5956891778763" lon="11.171804446801813"><ele>784.0</ele><time>2026-04-25T10:19:08Z</time></trkpt><trkpt lat="45.59561930706742" lon="11.17186060261232"><ele>784.0</ele><time>2026-04-25T10:19:09Z</time></trkpt><trkpt lat="45.5955617123908" lon="11.171921598530812"><ele>784.0</ele><time>2026-04-25T10:19:10Z</time></trkpt><trkpt lat="45.595458554040185" lon="11.171944546167014"><ele>784.0</ele><time>2026-04-25T10:19:12Z</time></trkpt><trkpt lat="45.595414101859795" lon="11.171851444406276"><ele>784.0</ele><time>2026-04-25T10:19:14Z</time></trkpt><trkpt lat="45.59542441035485" lon="11.17163860921058"><ele>783.9999999999999</ele><time>2026-04-25T10:19:16Z</time></trkpt><trkpt lat="45.595428393663205" lon="11.171540761653892"><ele>784.0</ele><time>2026-04-25T10:19:17Z</time></trkpt><trkpt lat="45.59541525220746" lon="11.171414326244905"><ele>784.0</ele><time>2026-04-25T10:19:18Z</time></trkpt><trkpt lat="45.595408693380634" lon="11.171276508669166"><ele>784.0</ele><time>2026-04-25T10:19:19Z</time></trkpt><trkpt lat="45.59537735688799" lon="11.17114070868852"><ele>783.9999999999999</ele><time>2026-04-25T10:19:20Z</time></trkpt><trkpt lat="45.59534864728701" lon="11.171027361724088"><ele>784.0</ele><time>2026-04-25T10:19:21Z</time></trkpt><trkpt lat="45.59531594275104" lon="11.170906518505358"><ele>785.1666666666666</ele><time>2026-04-25T10:19:22Z</time></trkpt><trkpt lat="45.59530192058852" lon="11.170799824221051"><ele>786.3333333333333</ele><time>2026-04-25T10:19:23Z</time></trkpt><trkpt lat="45.59526946449883" lon="11.170700122332333"><ele>787.5</ele><time>2026-04-25T10:19:24Z</time></trkpt><trkpt lat="45.59522995956066" lon="11.170612554802064"><ele>788.6666666666667</ele><time>2026-04-25T10:19:25Z</time></trkpt><trkpt lat="45.595166167730206" lon="11.170529053734015"><ele>789.8333333333334</ele><time>2026-04-25T10:19:26Z</time></trkpt><trkpt lat="45.59509550786914" lon="11.17043570457525"><ele>791.0</ele><time>2026-04-25T10:19:27Z</time></trkpt><trkpt lat="45.595028515239825" lon="11.170401946170943"><ele>791.0000000000001</ele><time>2026-04-25T10:19:28Z</time></trkpt><trkpt lat="45.59496560491767" lon="11.17038782922747"><ele>791.0</ele><time>2026-04-25T10:19:29Z</time></trkpt><trkpt lat="45.594900120883516" lon="11.170361967014546"><ele>791.0</ele><time>2026-04-25T10:19:30Z</time></trkpt><trkpt lat="45.59480623322993" lon="11.170315688824058"><ele>791.0</ele><time>2026-04-25T10:19:31Z</time></trkpt><trkpt lat="45.59469363524356" lon="11.170295654156783"><ele>791.0000000000001</ele><time>2026-04-25T10:19:32Z</time></trkpt><trkpt lat="45.59460458435255" lon="11.170286916137075"><ele>791.0</ele><time>2026-04-25T10:19:33Z</time></trkpt><trkpt lat="45.59454162249953" lon="11.170234148096132"><ele>791.0</ele><time>2026-04-25T10:19:34Z</time></trkpt><trkpt lat="45.594512698762024" lon="11.170122818365305"><ele>791.0</ele><time>2026-04-25T10:19:36Z</time></trkpt><trkpt lat="45.59451405864373" lon="11.169958475920046"><ele>791.0</ele><time>2026-04-25T10:19:38Z</time></trkpt><trkpt lat="45.59451603103974" lon="11.169754691859776"><ele>791.0</ele><time>2026-04-25T10:19:40Z</time></trkpt><trkpt lat="45.59453318667166" lon="11.169651059475667"><ele>791.0</ele><time>2026-04-25T10:19:41Z</time></trkpt><trkpt lat="45.59460679592565" lon="11.169489802618733"><ele>793.0000000000001</ele><time>2026-04-25T10:19:43Z</time></trkpt><trkpt lat="45.594610881080975" lon="11.169327312360519"><ele>795.0</ele><time>2026-04-25T10:19:45Z</time></trkpt><trkpt lat="45.59465829888362" lon="11.169191346964983"><ele>797.0</ele><time>2026-04-25T10:19:47Z</time></trkpt><trkpt lat="45.59467492193714" lon="11.169085930952917"><ele>799.0</ele><time>2026-04-25T10:19:48Z</time></trkpt><trkpt lat="45.59467888346759" lon="11.16896843194979"><ele>801.0000000000001</ele><time>2026-04-25T10:19:49Z</time></trkpt><trkpt lat="45.594696089161495" lon="11.168871126584756"><ele>803.0</ele><time>2026-04-25T10:19:50Z</time></trkpt><trkpt lat="45.59472979677388" lon="11.168782373871935"><ele>805.0000000000001</ele><time>2026-04-25T10:19:51Z</time></trkpt><trkpt lat="45.59476609809142" lon="11.168700340247685"><ele>807.0</ele><time>2026-04-25T10:19:52Z</time></trkpt><trkpt lat="45.5947620320059" lon="11.168597859425597"><ele>809.0</ele><time>2026-04-25T10:19:54Z</time></trkpt><trkpt lat="45.594663963540306" lon="11.16859142443498"><ele>811.0</ele><time>2026-04-25T10:19:56Z</time></trkpt><trkpt lat="45.59460209661448" lon="11.16860826079798"><ele>813.0000000000001</ele><time>2026-04-25T10:19:57Z</time></trkpt><trkpt lat="45.5944934389925" lon="11.168583101740957"><ele>815.0</ele><time>2026-04-25T10:19:59Z</time></trkpt><trkpt lat="45.59442288795404" lon="11.168529399810959"><ele>815.0</ele><time>2026-04-25T10:20:01Z</time></trkpt><trkpt lat="45.594302755801" lon="11.16851343686305"><ele>815.0</ele><time>2026-04-25T10:20:54Z</time></trkpt><trkpt lat="45.59422929730813" lon="11.168601170374432"><ele>815.0</ele><time>2026-04-25T10:20:55Z</time></trkpt><trkpt lat="45.59416939906757" lon="11.168719080910712"><ele>815.0</ele><time>2026-04-25T10:20:56Z</time></trkpt><trkpt lat="45.594082259097306" lon="11.168810494276595"><ele>815.0</ele><time>2026-04-25T10:20:56.999Z</time></trkpt><trkpt lat="45.59401238920822" lon="11.168887629785766"><ele>815.0</ele><time>2026-04-25T10:20:57.999Z</time></trkpt><trkpt lat="45.593903924540356" lon="11.168935969274703"><ele>815.0</ele><time>2026-04-25T10:20:58.999Z</time></trkpt><trkpt lat="45.59382327600214" lon="11.169040752998855"><ele>815.0</ele><time>2026-04-25T10:20:59.999Z</time></trkpt><trkpt lat="45.59374733224014" lon="11.169157229030928"><ele>815.0</ele><time>2026-04-25T10:21:00.999Z</time></trkpt><trkpt lat="45.59365726323617" lon="11.169267660407458"><ele>817.25</ele><time>2026-04-25T10:21:01.999Z</time></trkpt><trkpt lat="45.59357059798841" lon="11.169394129836558"><ele>819.5</ele><time>2026-04-25T10:21:03Z</time></trkpt><trkpt lat="45.593480242734046" lon="11.169524049445831"><ele>821.75</ele><time>2026-04-25T10:21:04Z</time></trkpt><trkpt lat="45.59340348795748" lon="11.16969971427526"><ele>824.0</ele><time>2026-04-25T10:21:05Z</time></trkpt><trkpt lat="45.593359412738884" lon="11.16991053609662"><ele>827.0</ele><time>2026-04-25T10:21:06Z</time></trkpt><trkpt lat="45.59331870720216" lon="11.170106045875901"><ele>830.0</ele><time>2026-04-25T10:21:07Z</time></trkpt><trkpt lat="45.593273959576486" lon="11.170254879737005"><ele>833.0</ele><time>2026-04-25T10:21:08Z</time></trkpt><trkpt lat="45.59321376185595" lon="11.170350859478896"><ele>836.0</ele><time>2026-04-25T10:21:09Z</time></trkpt><trkpt lat="45.59314052754621" lon="11.170461482179194"><ele>836.0</ele><time>2026-04-25T10:21:10Z</time></trkpt><trkpt lat="45.59305216014062" lon="11.170581948010325"><ele>836.0</ele><time>2026-04-25T10:21:11Z</time></trkpt><trkpt lat="45.5929644669051" lon="11.170712881883393"><ele>836.0</ele><time>2026-04-25T10:21:12Z</time></trkpt><trkpt lat="45.59287935399317" lon="11.1708855651142"><ele>836.0</ele><time>2026-04-25T10:21:13Z</time></trkpt><trkpt lat="45.59279300395745" lon="11.171085425110823"><ele>836.75</ele><time>2026-04-25T10:21:14Z</time></trkpt><trkpt lat="45.59272123509285" lon="11.17127090382257"><ele>837.5</ele><time>2026-04-25T10:21:15Z</time></trkpt><trkpt lat="45.59266797331494" lon="11.171450965230843"><ele>838.25</ele><time>2026-04-25T10:21:16Z</time></trkpt><trkpt lat="45.592607551643894" lon="11.171583551480415"><ele>839.0</ele><time>2026-04-25T10:21:17Z</time></trkpt><trkpt lat="45.59258524991483" lon="11.171673058817264"><ele>840.6</ele><time>2026-04-25T10:21:18Z</time></trkpt><trkpt lat="45.59254264486003" lon="11.171771256285863"><ele>842.2</ele><time>2026-04-25T10:21:20Z</time></trkpt><trkpt lat="45.59265825883367" lon="11.171883140909431"><ele>843.8000000000001</ele><time>2026-04-25T10:21:21Z</time></trkpt><trkpt lat="45.59271320714116" lon="11.171996084948155"><ele>845.4000000000001</ele><time>2026-04-25T10:21:22Z</time></trkpt><trkpt lat="45.59272683167345" lon="11.172160405986938"><ele>847.0</ele><time>2026-04-25T10:21:23Z</time></trkpt><trkpt lat="45.59271729917039" lon="11.172303174238435"><ele>849.5</ele><time>2026-04-25T10:21:24Z</time></trkpt><trkpt lat="45.59266118487296" lon="11.172438615512455"><ele>852.0</ele><time>2026-04-25T10:21:25Z</time></trkpt><trkpt lat="45.5925708454056" lon="11.172547352603585"><ele>854.5</ele><time>2026-04-25T10:21:26Z</time></trkpt><trkpt lat="45.5924580020964" lon="11.172675074270677"><ele>857.0</ele><time>2026-04-25T10:21:27Z</time></trkpt><trkpt lat="45.592347104665194" lon="11.172755783152736"><ele>857.0</ele><time>2026-04-25T10:21:28Z</time></trkpt><trkpt lat="45.5922532111843" lon="11.172794085210437"><ele>857.0</ele><time>2026-04-25T10:21:29Z</time></trkpt><trkpt lat="45.592181363874445" lon="11.17285481659489"><ele>857.0</ele><time>2026-04-25T10:21:30Z</time></trkpt><trkpt lat="45.59213336084565" lon="11.172954360907873"><ele>857.0</ele><time>2026-04-25T10:21:31Z</time></trkpt><trkpt lat="45.59217159249521" lon="11.17309495857732"><ele>857.0</ele><time>2026-04-25T10:21:32Z</time></trkpt><trkpt lat="45.59219071238592" lon="11.173232949776786"><ele>858.1666666666667</ele><time>2026-04-25T10:21:33Z</time></trkpt><trkpt lat="45.59221418968756" lon="11.173381934148205"><ele>859.3333333333334</ele><time>2026-04-25T10:21:34Z</time></trkpt><trkpt lat="45.5922170314378" lon="11.17350539936024"><ele>860.5</ele><time>2026-04-25T10:21:35Z</time></trkpt><trkpt lat="45.592203337761376" lon="11.17362036521923"><ele>861.6666666666667</ele><time>2026-04-25T10:21:36Z</time></trkpt><trkpt lat="45.59213661395753" lon="11.173682918339866"><ele>862.8333333333334</ele><time>2026-04-25T10:21:37Z</time></trkpt><trkpt lat="45.59205066369814" lon="11.173668893627363"><ele>864.0</ele><time>2026-04-25T10:21:38Z</time></trkpt><trkpt lat="45.59198428116741" lon="11.173655327081883"><ele>864.0</ele><time>2026-04-25T10:21:39Z</time></trkpt><trkpt lat="45.59190244003626" lon="11.173644915000086"><ele>864.0000000000001</ele><time>2026-04-25T10:21:41Z</time></trkpt><trkpt lat="45.59183455073862" lon="11.173655444925423"><ele>864.0000000000001</ele><time>2026-04-25T10:21:45Z</time></trkpt><trkpt lat="45.59189508519954" lon="11.17378084844656"><ele>864.0</ele><time>2026-04-25T10:22:04Z</time></trkpt><trkpt lat="45.592077057708224" lon="11.173849377193292"><ele>864.0</ele><time>2026-04-25T10:22:06Z</time></trkpt><trkpt lat="45.592184078639974" lon="11.17389082238255"><ele>865.2</ele><time>2026-04-25T10:22:07Z</time></trkpt><trkpt lat="45.59229517576007" lon="11.173933768849038"><ele>866.4000000000001</ele><time>2026-04-25T10:22:08Z</time></trkpt><trkpt lat="45.592380055354276" lon="11.173965787024915"><ele>867.6</ele><time>2026-04-25T10:22:09Z</time></trkpt><trkpt lat="45.592464806480095" lon="11.174036824340517"><ele>868.8</ele><time>2026-04-25T10:22:11Z</time></trkpt><trkpt lat="45.592399473653465" lon="11.174157062223982"><ele>870.0</ele><time>2026-04-25T10:22:13Z</time></trkpt><trkpt lat="45.592323301456496" lon="11.174173646805224"><ele>870.0</ele><time>2026-04-25T10:22:14Z</time></trkpt><trkpt lat="45.59224237106709" lon="11.174145663635493"><ele>870.0</ele><time>2026-04-25T10:22:15Z</time></trkpt><trkpt lat="45.59215806618013" lon="11.174079983772007"><ele>870.0</ele><time>2026-04-25T10:22:16Z</time></trkpt><trkpt lat="45.59206138407949" lon="11.174003310512278"><ele>870.0</ele><time>2026-04-25T10:22:17Z</time></trkpt><trkpt lat="45.59194192768036" lon="11.173932514872826"><ele>870.0</ele><time>2026-04-25T10:22:18Z</time></trkpt><trkpt lat="45.591815771412186" lon="11.173879189925165"><ele>868.8</ele><time>2026-04-25T10:22:19Z</time></trkpt><trkpt lat="45.591687787068125" lon="11.173828622817076"><ele>867.6</ele><time>2026-04-25T10:22:20Z</time></trkpt><trkpt lat="45.591579008755396" lon="11.17379798992323"><ele>866.4000000000001</ele><time>2026-04-25T10:22:21Z</time></trkpt><trkpt lat="45.59149095474784" lon="11.173787597663162"><ele>865.2</ele><time>2026-04-25T10:22:22Z</time></trkpt><trkpt lat="45.59141577335629" lon="11.173782777869834"><ele>864.0</ele><time>2026-04-25T10:22:23Z</time></trkpt><trkpt lat="45.59133858818617" lon="11.173803385191297"><ele>864.0</ele><time>2026-04-25T10:22:24Z</time></trkpt><trkpt lat="45.591267791925446" lon="11.17381568935209"><ele>864.0000000000001</ele><time>2026-04-25T10:22:25Z</time></trkpt><trkpt lat="45.59118175604811" lon="11.173919182411606"><ele>864.0000000000001</ele><time>2026-04-25T10:22:27Z</time></trkpt><trkpt lat="45.591168413067386" lon="11.174038473129437"><ele>864.0</ele><time>2026-04-25T10:22:28Z</time></trkpt><trkpt lat="45.59120481058212" lon="11.174163557261814"><ele>864.0</ele><time>2026-04-25T10:22:29Z</time></trkpt><trkpt lat="45.59122630718569" lon="11.174316011751422"><ele>867.25</ele><time>2026-04-25T10:22:30Z</time></trkpt><trkpt lat="45.59126753324728" lon="11.174483546435843"><ele>870.5</ele><time>2026-04-25T10:22:31Z</time></trkpt><trkpt lat="45.59130471639835" lon="11.174674923376266"><ele>873.75</ele><time>2026-04-25T10:22:32Z</time></trkpt><trkpt lat="45.59131149621949" lon="11.174854354278903"><ele>877.0</ele><time>2026-04-25T10:22:33Z</time></trkpt><trkpt lat="45.5913369585103" lon="11.175003435013132"><ele>877.8</ele><time>2026-04-25T10:22:34Z</time></trkpt><trkpt lat="45.59134654083025" lon="11.175132186476906"><ele>878.6</ele><time>2026-04-25T10:22:35Z</time></trkpt><trkpt lat="45.59138521434381" lon="11.17525352580563"><ele>879.3999999999999</ele><time>2026-04-25T10:22:36Z</time></trkpt><trkpt lat="45.591436196665136" lon="11.175407502678848"><ele>880.1999999999999</ele><time>2026-04-25T10:22:37Z</time></trkpt><trkpt lat="45.59152914323954" lon="11.175555551852161"><ele>881.0</ele><time>2026-04-25T10:22:38Z</time></trkpt><trkpt lat="45.591645321076626" lon="11.175697305114783"><ele>881.8</ele><time>2026-04-25T10:22:39Z</time></trkpt><trkpt lat="45.591765340902725" lon="11.17579625824878"><ele>882.5999999999999</ele><time>2026-04-25T10:22:40Z</time></trkpt><trkpt lat="45.591864145660566" lon="11.175883395018616"><ele>883.4</ele><time>2026-04-25T10:22:41Z</time></trkpt><trkpt lat="45.59194578109563" lon="11.175962733946335"><ele>884.2</ele><time>2026-04-25T10:22:42Z</time></trkpt><trkpt lat="45.592011974018206" lon="11.176042592195046"><ele>885.0</ele><time>2026-04-25T10:22:43Z</time></trkpt><trkpt lat="45.59205853890014" lon="11.176138287155496"><ele>885.0</ele><time>2026-04-25T10:22:44Z</time></trkpt><trkpt lat="45.59208893155129" lon="11.176247507428503"><ele>885.0</ele><time>2026-04-25T10:22:45Z</time></trkpt><trkpt lat="45.59205269076636" lon="11.176363367267186"><ele>885.0</ele><time>2026-04-25T10:22:46Z</time></trkpt><trkpt lat="45.59202836659776" lon="11.176524221655129"><ele>885.0</ele><time>2026-04-25T10:22:47Z</time></trkpt><trkpt lat="45.591999038467996" lon="11.176687526668928"><ele>885.0</ele><time>2026-04-25T10:22:48Z</time></trkpt><trkpt lat="45.59195972798985" lon="11.176845858097618"><ele>878.75</ele><time>2026-04-25T10:22:49Z</time></trkpt><trkpt lat="45.591901662357174" lon="11.176992180733135"><ele>872.5</ele><time>2026-04-25T10:22:50Z</time></trkpt><trkpt lat="45.5918289836176" lon="11.17714364159532"><ele>866.25</ele><time>2026-04-25T10:22:51Z</time></trkpt><trkpt lat="45.591747070020716" lon="11.177272110951877"><ele>860.0</ele><time>2026-04-25T10:22:52Z</time></trkpt><trkpt lat="45.59166856639572" lon="11.177400824061262"><ele>859.25</ele><time>2026-04-25T10:22:53Z</time></trkpt><trkpt lat="45.59155181790396" lon="11.177491891945742"><ele>858.5</ele><time>2026-04-25T10:22:54Z</time></trkpt><trkpt lat="45.59145832762972" lon="11.177606272423157"><ele>857.75</ele><time>2026-04-25T10:22:55Z</time></trkpt><trkpt lat="45.591344380298516" lon="11.177679758034637"><ele>857.0</ele><time>2026-04-25T10:22:56Z</time></trkpt><trkpt lat="45.59123664928761" lon="11.177771127895298"><ele>855.5</ele><time>2026-04-25T10:22:57Z</time></trkpt><trkpt lat="45.591124935974484" lon="11.177865756282976"><ele>854.0</ele><time>2026-04-25T10:22:58Z</time></trkpt><trkpt lat="45.59101610573984" lon="11.177966788826545"><ele>852.5</ele><time>2026-04-25T10:22:59Z</time></trkpt><trkpt lat="45.59091647303818" lon="11.17807244899974"><ele>851.0</ele><time>2026-04-25T10:23:00Z</time></trkpt><trkpt lat="45.590825431340555" lon="11.178180721115167"><ele>853.5</ele><time>2026-04-25T10:23:01Z</time></trkpt><trkpt lat="45.59073273316744" lon="11.178307908923435"><ele>856.0</ele><time>2026-04-25T10:23:02Z</time></trkpt><trkpt lat="45.59063545020636" lon="11.178453937843676"><ele>858.5</ele><time>2026-04-25T10:23:03Z</time></trkpt><trkpt lat="45.5905358776304" lon="11.178612791508433"><ele>861.0</ele><time>2026-04-25T10:23:04Z</time></trkpt><trkpt lat="45.590442935297816" lon="11.178773031136663"><ele>861.0</ele><time>2026-04-25T10:23:05Z</time></trkpt><trkpt lat="45.59037335985079" lon="11.178930356994945"><ele>861.0</ele><time>2026-04-25T10:23:06Z</time></trkpt><trkpt lat="45.59027751583519" lon="11.179057741149132"><ele>861.0</ele><time>2026-04-25T10:23:06.999Z</time></trkpt><trkpt lat="45.59017012720147" lon="11.179187991570988"><ele>861.0</ele><time>2026-04-25T10:23:07.999Z</time></trkpt><trkpt lat="45.59003942968309" lon="11.179286455019126"><ele>863.25</ele><time>2026-04-25T10:23:09Z</time></trkpt><trkpt lat="45.589904691751414" lon="11.179368681348679"><ele>865.5</ele><time>2026-04-25T10:23:10Z</time></trkpt><trkpt lat="45.58977222776026" lon="11.179433112187162"><ele>867.75</ele><time>2026-04-25T10:23:11Z</time></trkpt><trkpt lat="45.58964547623406" lon="11.17944442061992"><ele>870.0</ele><time>2026-04-25T10:23:12Z</time></trkpt><trkpt lat="45.589552292667456" lon="11.179473513004094"><ele>869.75</ele><time>2026-04-25T10:23:13Z</time></trkpt><trkpt lat="45.58946156588711" lon="11.179528695659785"><ele>869.5</ele><time>2026-04-25T10:23:14Z</time></trkpt><trkpt lat="45.589392506535326" lon="11.179655423138437"><ele>869.25</ele><time>2026-04-25T10:23:15Z</time></trkpt><trkpt lat="45.58933680575829" lon="11.17982893814569"><ele>869.0</ele><time>2026-04-25T10:23:16Z</time></trkpt><trkpt lat="45.589271508633786" lon="11.180004569928661"><ele>869.0</ele><time>2026-04-25T10:23:17Z</time></trkpt><trkpt lat="45.58922977424409" lon="11.180168687024103"><ele>869.0</ele><time>2026-04-25T10:23:18Z</time></trkpt><trkpt lat="45.58921771851099" lon="11.180294959610809"><ele>869.0</ele><time>2026-04-25T10:23:19Z</time></trkpt><trkpt lat="45.58916794456551" lon="11.180381163095937"><ele>869.0</ele><time>2026-04-25T10:23:20Z</time></trkpt><trkpt lat="45.588973947236916" lon="11.18047264854056"><ele>869.0</ele><time>2026-04-25T10:23:22Z</time></trkpt><trkpt lat="45.58886993694162" lon="11.18055949541245"><ele>869.0000000000001</ele><time>2026-04-25T10:23:23Z</time></trkpt><trkpt lat="45.58878153377359" lon="11.1806308437749"><ele>869.0000000000001</ele><time>2026-04-25T10:23:24Z</time></trkpt><trkpt lat="45.58870234559062" lon="11.180698226642606"><ele>869.0</ele><time>2026-04-25T10:23:25Z</time></trkpt><trkpt lat="45.58859827615627" lon="11.18067598947279"><ele>869.0</ele><time>2026-04-25T10:23:26Z</time></trkpt><trkpt lat="45.588473991779956" lon="11.18063259864764"><ele>866.6</ele><time>2026-04-25T10:23:27Z</time></trkpt><trkpt lat="45.588356738159916" lon="11.180586724325345"><ele>864.2</ele><time>2026-04-25T10:23:28Z</time></trkpt><trkpt lat="45.588273576887644" lon="11.180495198193823"><ele>861.8000000000001</ele><time>2026-04-25T10:23:29Z</time></trkpt><trkpt lat="45.58821746651408" lon="11.180390196466204"><ele>859.4000000000001</ele><time>2026-04-25T10:23:30Z</time></trkpt><trkpt lat="45.58816493099165" lon="11.180277426754001"><ele>857.0</ele><time>2026-04-25T10:23:31Z</time></trkpt><trkpt lat="45.58810319941503" lon="11.180191691544728"><ele>857.0</ele><time>2026-04-25T10:23:32Z</time></trkpt><trkpt lat="45.58802447117766" lon="11.180123768257747"><ele>857.0</ele><time>2026-04-25T10:23:33Z</time></trkpt><trkpt lat="45.587943213708954" lon="11.180074451124714"><ele>857.0</ele><time>2026-04-25T10:23:34Z</time></trkpt><trkpt lat="45.587847015631034" lon="11.180024539938842"><ele>857.0</ele><time>2026-04-25T10:23:35Z</time></trkpt><trkpt lat="45.587754910197724" lon="11.180008212937272"><ele>857.0</ele><time>2026-04-25T10:23:36Z</time></trkpt><trkpt lat="45.58765668744364" lon="11.180023925607234"><ele>855.0000000000001</ele><time>2026-04-25T10:23:37Z</time></trkpt><trkpt lat="45.587563428963165" lon="11.180036254827709"><ele>853.0</ele><time>2026-04-25T10:23:38Z</time></trkpt><trkpt lat="45.587479700381884" lon="11.180033077123612"><ele>851.0</ele><time>2026-04-25T10:23:39Z</time></trkpt><trkpt lat="45.58739704705854" lon="11.179997761102381"><ele>849.0</ele><time>2026-04-25T10:23:40Z</time></trkpt><trkpt lat="45.58732675055015" lon="11.17995229642098"><ele>847.0000000000001</ele><time>2026-04-25T10:23:41Z</time></trkpt><trkpt lat="45.587280857421085" lon="11.179886311753249"><ele>845.0</ele><time>2026-04-25T10:23:42Z</time></trkpt><trkpt lat="45.58722627430259" lon="11.17978795270241"><ele>845.0</ele><time>2026-04-25T10:23:44Z</time></trkpt><trkpt lat="45.58713304690678" lon="11.179782489940473"><ele>845.0</ele><time>2026-04-25T10:23:46Z</time></trkpt><trkpt lat="45.587024447022095" lon="11.179794269427411"><ele>845.0</ele><time>2026-04-25T10:23:48Z</time></trkpt><trkpt lat="45.586968662289514" lon="11.179844556080171"><ele>845.0</ele><time>2026-04-25T10:23:50Z</time></trkpt><trkpt lat="45.58699779873194" lon="11.18000721299723"><ele>845.0</ele><time>2026-04-25T10:23:52Z</time></trkpt><trkpt lat="45.58706829696102" lon="11.18016458010011"><ele>845.0</ele><time>2026-04-25T10:23:54Z</time></trkpt><trkpt lat="45.58712548975551" lon="11.180265471866884"><ele>845.0</ele><time>2026-04-25T10:23:55Z</time></trkpt><trkpt lat="45.5871907175598" lon="11.1803712996616"><ele>845.0</ele><time>2026-04-25T10:23:56Z</time></trkpt><trkpt lat="45.58726538275857" lon="11.180476106742447"><ele>845.0</ele><time>2026-04-25T10:23:57Z</time></trkpt><trkpt lat="45.58733554728361" lon="11.180567980368084"><ele>845.0</ele><time>2026-04-25T10:23:58Z</time></trkpt><trkpt lat="45.587394351967255" lon="11.180646745576723"><ele>844.6</ele><time>2026-04-25T10:23:59Z</time></trkpt><trkpt lat="45.58742351063218" lon="11.180736333268216"><ele>844.2</ele><time>2026-04-25T10:24:00Z</time></trkpt><trkpt lat="45.58738906975832" lon="11.180831884559405"><ele>843.8</ele><time>2026-04-25T10:24:01Z</time></trkpt><trkpt lat="45.587338443432806" lon="11.180953160592571"><ele>843.4</ele><time>2026-04-25T10:24:02Z</time></trkpt><trkpt lat="45.5872910843452" lon="11.181101530177944"><ele>843.0</ele><time>2026-04-25T10:24:03Z</time></trkpt><trkpt lat="45.5872292280041" lon="11.18120530664551"><ele>843.0</ele><time>2026-04-25T10:24:04Z</time></trkpt><trkpt lat="45.58712568053361" lon="11.181241394423077"><ele>843.0</ele><time>2026-04-25T10:24:05Z</time></trkpt><trkpt lat="45.58701454344482" lon="11.18127260871647"><ele>843.0</ele><time>2026-04-25T10:24:06Z</time></trkpt><trkpt lat="45.5869217731548" lon="11.18131513569592"><ele>843.0</ele><time>2026-04-25T10:24:07Z</time></trkpt><trkpt lat="45.586860242029715" lon="11.181366071934134"><ele>843.0</ele><time>2026-04-25T10:24:08Z</time></trkpt><trkpt lat="45.58683271045666" lon="11.181530683738323"><ele>837.25</ele><time>2026-04-25T10:24:09Z</time></trkpt><trkpt lat="45.58686711684956" lon="11.181711369072657"><ele>831.5</ele><time>2026-04-25T10:24:10Z</time></trkpt><trkpt lat="45.586885912035484" lon="11.181894338524401"><ele>825.75</ele><time>2026-04-25T10:24:11Z</time></trkpt><trkpt lat="45.58691687830386" lon="11.18206586965479"><ele>820.0</ele><time>2026-04-25T10:24:12Z</time></trkpt><trkpt lat="45.586970560570215" lon="11.182193286696704"><ele>820.0</ele><time>2026-04-25T10:24:13Z</time></trkpt><trkpt lat="45.58700408253458" lon="11.182297761751945"><ele>820.0</ele><time>2026-04-25T10:24:14Z</time></trkpt><trkpt lat="45.587024435164004" lon="11.182399478372563"><ele>820.0</ele><time>2026-04-25T10:24:15Z</time></trkpt><trkpt lat="45.58700594902367" lon="11.182558701855879"><ele>820.0</ele><time>2026-04-25T10:24:17Z</time></trkpt><trkpt lat="45.58697831924975" lon="11.182650865008014"><ele>820.0</ele><time>2026-04-25T10:24:19Z</time></trkpt><trkpt lat="45.5867932175397" lon="11.182629102449859"><ele>820.4</ele><time>2026-04-25T10:24:20Z</time></trkpt><trkpt lat="45.586717502257315" lon="11.182615726007906"><ele>820.8</ele><time>2026-04-25T10:24:21Z</time></trkpt><trkpt lat="45.586628012755284" lon="11.182635032010728"><ele>821.2</ele><time>2026-04-25T10:24:22Z</time></trkpt><trkpt lat="45.58656049842441" lon="11.182676459911152"><ele>821.6</ele><time>2026-04-25T10:24:23Z</time></trkpt><trkpt lat="45.586506313711894" lon="11.18283356065981"><ele>822.0</ele><time>2026-04-25T10:24:24.999Z</time></trkpt><trkpt lat="45.58643435185085" lon="11.182956898760457"><ele>822.0</ele><time>2026-04-25T10:24:25.999Z</time></trkpt><trkpt lat="45.5863825510262" lon="11.183019966615682"><ele>822.0</ele><time>2026-04-25T10:24:26.999Z</time></trkpt><trkpt lat="45.58632007244696" lon="11.183061747476737"><ele>822.0</ele><time>2026-04-25T10:24:27.999Z</time></trkpt><trkpt lat="45.5862572795406" lon="11.1830863336854"><ele>822.0</ele><time>2026-04-25T10:24:29.999Z</time></trkpt><trkpt lat="45.58620130060218" lon="11.183036583876378"><ele>822.0</ele><time>2026-04-25T10:24:32.999Z</time></trkpt><trkpt lat="45.58615705646767" lon="11.182925019558288"><ele>822.0</ele><time>2026-04-25T10:24:35.999Z</time></trkpt><trkpt lat="45.58613523790956" lon="11.182808043815347"><ele>822.0</ele><time>2026-04-25T10:24:37.999Z</time></trkpt><trkpt lat="45.58609672191574" lon="11.18266988671394"><ele>822.8571428571429</ele><time>2026-04-25T10:24:39.999Z</time></trkpt><trkpt lat="45.58607047091244" lon="11.182565858824074"><ele>823.7142857142857</ele><time>2026-04-25T10:24:40.999Z</time></trkpt><trkpt lat="45.58605048117736" lon="11.182468969608724"><ele>824.5714285714287</ele><time>2026-04-25T10:24:41.999Z</time></trkpt><trkpt lat="45.58603725710213" lon="11.182360456380707"><ele>825.4285714285714</ele><time>2026-04-25T10:24:42.999Z</time></trkpt><trkpt lat="45.58602293623191" lon="11.18226429584095"><ele>826.2857142857143</ele><time>2026-04-25T10:24:43.999Z</time></trkpt><trkpt lat="45.586010437934355" lon="11.182174679690908"><ele>827.1428571428572</ele><time>2026-04-25T10:24:44.999Z</time></trkpt><trkpt lat="45.58596617100105" lon="11.182072163008206"><ele>828.0</ele><time>2026-04-25T10:24:46.999Z</time></trkpt><trkpt lat="45.58587695540677" lon="11.18201750067841"><ele>825.4</ele><time>2026-04-25T10:24:49.999Z</time></trkpt><trkpt lat="45.5857948870898" lon="11.182005267568554"><ele>822.8</ele><time>2026-04-25T10:24:50.999Z</time></trkpt><trkpt lat="45.585723440227525" lon="11.181988561677992"><ele>820.2</ele><time>2026-04-25T10:24:51.999Z</time></trkpt><trkpt lat="45.58569825862677" lon="11.18179305694286"><ele>817.6</ele><time>2026-04-25T10:24:53.999Z</time></trkpt><trkpt lat="45.58570031778892" lon="11.181696050030261"><ele>815.0</ele><time>2026-04-25T10:24:54.999Z</time></trkpt><trkpt lat="45.585656084447336" lon="11.181567861922153"><ele>813.5000000000001</ele><time>2026-04-25T10:24:56.999Z</time></trkpt><trkpt lat="45.58559915825536" lon="11.181501922931297"><ele>812.0</ele><time>2026-04-25T10:24:57.999Z</time></trkpt><trkpt lat="45.5855456873349" lon="11.18144655999955"><ele>810.5</ele><time>2026-04-25T10:24:58.999Z</time></trkpt><trkpt lat="45.58548668675097" lon="11.181393312845104"><ele>809.0</ele><time>2026-04-25T10:25:00.999Z</time></trkpt><trkpt lat="45.58538684703044" lon="11.18134409075603"><ele>807.5000000000001</ele><time>2026-04-25T10:25:02.999Z</time></trkpt><trkpt lat="45.585310830019424" lon="11.181283499912926"><ele>806.0</ele><time>2026-04-25T10:25:04.999Z</time></trkpt><trkpt lat="45.585290484448365" lon="11.181101086845409"><ele>806.1999999999999</ele><time>2026-04-25T10:25:06.999Z</time></trkpt><trkpt lat="45.58528831435018" lon="11.18100249387933"><ele>806.4</ele><time>2026-04-25T10:25:07.999Z</time></trkpt><trkpt lat="45.58528995128825" lon="11.180832518379416"><ele>806.6</ele><time>2026-04-25T10:25:09.999Z</time></trkpt><trkpt lat="45.585242581184545" lon="11.180700308158071"><ele>806.8</ele><time>2026-04-25T10:25:11.999Z</time></trkpt><trkpt lat="45.58517592302465" lon="11.180563371841833"><ele>807.0</ele><time>2026-04-25T10:25:13.999Z</time></trkpt><trkpt lat="45.58506639795407" lon="11.18042509030608"><ele>807.0</ele><time>2026-04-25T10:25:16Z</time></trkpt><trkpt lat="45.58504030011917" lon="11.180310669939857"><ele>807.0</ele><time>2026-04-25T10:25:17Z</time></trkpt><trkpt lat="45.58501850812608" lon="11.180187588106921"><ele>807.0</ele><time>2026-04-25T10:25:18Z</time></trkpt><trkpt lat="45.58493788918971" lon="11.18002369600859"><ele>807.0</ele><time>2026-04-25T10:25:20Z</time></trkpt><trkpt lat="45.584874249289946" lon="11.179953522667917"><ele>807.0</ele><time>2026-04-25T10:25:22Z</time></trkpt><trkpt lat="45.58476828256032" lon="11.179971596580474"><ele>807.0</ele><time>2026-04-25T10:25:25Z</time></trkpt><trkpt lat="45.584694368716455" lon="11.180006273424853"><ele>807.0</ele><time>2026-04-25T10:25:26Z</time></trkpt><trkpt lat="45.584607465462575" lon="11.180097067292111"><ele>807.0</ele><time>2026-04-25T10:25:27Z</time></trkpt><trkpt lat="45.58451894254279" lon="11.1801929820473"><ele>807.0</ele><time>2026-04-25T10:25:28Z</time></trkpt><trkpt lat="45.58442958475999" lon="11.180252247304692"><ele>807.0</ele><time>2026-04-25T10:25:29Z</time></trkpt><trkpt lat="45.58436725926525" lon="11.180271647467634"><ele>807.2857142857143</ele><time>2026-04-25T10:25:30Z</time></trkpt><trkpt lat="45.58429879956026" lon="11.18024965418642"><ele>807.5714285714286</ele><time>2026-04-25T10:25:32Z</time></trkpt><trkpt lat="45.584274811777924" lon="11.180165471524191"><ele>807.8571428571429</ele><time>2026-04-25T10:25:35Z</time></trkpt><trkpt lat="45.58419889558883" lon="11.180114249495968"><ele>808.1428571428571</ele><time>2026-04-25T10:25:39Z</time></trkpt><trkpt lat="45.58412451283119" lon="11.180129833253451"><ele>808.4285714285714</ele><time>2026-04-25T10:25:40Z</time></trkpt><trkpt lat="45.58406066604743" lon="11.180080340403446"><ele>808.7142857142858</ele><time>2026-04-25T10:25:43Z</time></trkpt><trkpt lat="45.58399972464843" lon="11.180110128466993"><ele>809.0</ele><time>2026-04-25T10:25:48Z</time></trkpt><trkpt lat="45.58393193735936" lon="11.180126853031387"><ele>809.0</ele><time>2026-04-25T10:25:52Z</time></trkpt><trkpt lat="45.58386487778114" lon="11.180154485375569"><ele>809.0</ele><time>2026-04-25T10:25:55Z</time></trkpt><trkpt lat="45.5838277409389" lon="11.18026047450216"><ele>809.0</ele><time>2026-04-25T10:25:59Z</time></trkpt><trkpt lat="45.58378818619529" lon="11.180346504040232"><ele>809.0</ele><time>2026-04-25T10:26:04Z</time></trkpt><trkpt lat="45.58373100135323" lon="11.180432750071734"><ele>809.0</ele><time>2026-04-25T10:26:07Z</time></trkpt><trkpt lat="45.58372347078341" lon="11.18052912480638"><ele>809.0</ele><time>2026-04-25T10:26:10Z</time></trkpt><trkpt lat="45.58374709675249" lon="11.180616728029333"><ele>809.0</ele><time>2026-04-25T10:26:12Z</time></trkpt><trkpt lat="45.583763746293116" lon="11.180719204262264"><ele>810.0000000000001</ele><time>2026-04-25T10:26:14Z</time></trkpt><trkpt lat="45.58379601888713" lon="11.180836759117524"><ele>811.0</ele><time>2026-04-25T10:26:16Z</time></trkpt><trkpt lat="45.583828666575606" lon="11.180973663568645"><ele>812.0</ele><time>2026-04-25T10:26:18Z</time></trkpt><trkpt lat="45.58383286305007" lon="11.181068045992479"><ele>813.0</ele><time>2026-04-25T10:26:24Z</time></trkpt><trkpt lat="45.58377884197118" lon="11.18116406331456"><ele>814.0000000000001</ele><time>2026-04-25T10:26:59Z</time></trkpt><trkpt lat="45.58369896960007" lon="11.181119498414636"><ele>815.0</ele><time>2026-04-25T10:27:15.999Z</time></trkpt><trkpt lat="45.583654231824326" lon="11.181053897781194"><ele>811.8571428571429</ele><time>2026-04-25T10:27:17.999Z</time></trkpt><trkpt lat="45.5836004296557" lon="11.18099312705958"><ele>808.7142857142857</ele><time>2026-04-25T10:27:25Z</time></trkpt><trkpt lat="45.583538209306376" lon="11.180970625814638"><ele>805.5714285714287</ele><time>2026-04-25T10:27:45Z</time></trkpt><trkpt lat="45.583496351791176" lon="11.18090251093177"><ele>802.4285714285714</ele><time>2026-04-25T10:28:14Z</time></trkpt><trkpt lat="45.583449595110835" lon="11.180835278969619"><ele>799.2857142857143</ele><time>2026-04-25T10:28:29Z</time></trkpt><trkpt lat="45.58339230216056" lon="11.180757114268962"><ele>796.1428571428572</ele><time>2026-04-25T10:28:33Z</time></trkpt><trkpt lat="45.58333905814393" lon="11.180653179027704"><ele>793.0</ele><time>2026-04-25T10:28:37Z</time></trkpt><trkpt lat="45.58330879095644" lon="11.180526443768906"><ele>791.4999999999999</ele><time>2026-04-25T10:28:40Z</time></trkpt><trkpt lat="45.583290865999075" lon="11.180402728056443"><ele>790.0</ele><time>2026-04-25T10:28:43Z</time></trkpt><trkpt lat="45.583284906627654" lon="11.180269401685802"><ele>788.5</ele><time>2026-04-25T10:28:45Z</time></trkpt><trkpt lat="45.5832648668897" lon="11.180165506019684"><ele>787.0</ele><time>2026-04-25T10:28:46Z</time></trkpt><trkpt lat="45.583235044283704" lon="11.18006884772124"><ele>785.4999999999999</ele><time>2026-04-25T10:28:47Z</time></trkpt><trkpt lat="45.58318141957991" lon="11.179985597720117"><ele>784.0</ele><time>2026-04-25T10:28:49Z</time></trkpt><trkpt lat="45.58313114355182" lon="11.179869547291027"><ele>782.6666666666666</ele><time>2026-04-25T10:28:51Z</time></trkpt><trkpt lat="45.58309520113021" lon="11.179795430121619"><ele>781.3333333333333</ele><time>2026-04-25T10:28:54Z</time></trkpt><trkpt lat="45.583031458074096" lon="11.179708180380178"><ele>780.0</ele><time>2026-04-25T10:28:56Z</time></trkpt><trkpt lat="45.583005083821774" lon="11.179621106784627"><ele>778.6666666666667</ele><time>2026-04-25T10:28:57Z</time></trkpt><trkpt lat="45.58300670141199" lon="11.179474100621764"><ele>777.3333333333334</ele><time>2026-04-25T10:28:59Z</time></trkpt><trkpt lat="45.5829856530646" lon="11.179335871943866"><ele>776.0</ele><time>2026-04-25T10:29:01Z</time></trkpt><trkpt lat="45.58300680213931" lon="11.179211550560238"><ele>776.0</ele><time>2026-04-25T10:29:03Z</time></trkpt><trkpt lat="45.58299930106705" lon="11.179060293149382"><ele>776.0</ele><time>2026-04-25T10:29:06Z</time></trkpt><trkpt lat="45.58301860029925" lon="11.178953928233833"><ele>776.0</ele><time>2026-04-25T10:29:08Z</time></trkpt><trkpt lat="45.583072278119076" lon="11.178824102872806"><ele>776.0</ele><time>2026-04-25T10:29:11Z</time></trkpt><trkpt lat="45.58310105077146" lon="11.178725978338479"><ele>776.0</ele><time>2026-04-25T10:29:13Z</time></trkpt><trkpt lat="45.58310474690587" lon="11.178576237017827"><ele>774.1999999999999</ele><time>2026-04-25T10:29:15Z</time></trkpt><trkpt lat="45.58307330190144" lon="11.178450652262894"><ele>772.4</ele><time>2026-04-25T10:29:17Z</time></trkpt><trkpt lat="45.58305403137241" lon="11.178266451648351"><ele>770.6</ele><time>2026-04-25T10:29:19Z</time></trkpt><trkpt lat="45.58300897170143" lon="11.178145007750487"><ele>768.8</ele><time>2026-04-25T10:29:21Z</time></trkpt><trkpt lat="45.5830105233385" lon="11.178031924509186"><ele>767.0</ele><time>2026-04-25T10:29:23Z</time></trkpt><trkpt lat="45.58304191157376" lon="11.177904754021021"><ele>765.0</ele><time>2026-04-25T10:29:25Z</time></trkpt><trkpt lat="45.583011759881124" lon="11.177752140134539"><ele>763.0</ele><time>2026-04-25T10:29:27Z</time></trkpt><trkpt lat="45.5830204666492" lon="11.177613937124969"><ele>761.0</ele><time>2026-04-25T10:29:29Z</time></trkpt><trkpt lat="45.583018134257436" lon="11.177521407382041"><ele>759.0</ele><time>2026-04-25T10:29:30Z</time></trkpt><trkpt lat="45.583049721135886" lon="11.177353820661272"><ele>757.0</ele><time>2026-04-25T10:29:32Z</time></trkpt><trkpt lat="45.58307106487858" lon="11.177205596499817"><ele>756.1666666666667</ele><time>2026-04-25T10:29:34Z</time></trkpt><trkpt lat="45.58308241493188" lon="11.177115750629426"><ele>755.3333333333334</ele><time>2026-04-25T10:29:35Z</time></trkpt><trkpt lat="45.5830849994182" lon="11.177021456081603"><ele>754.5</ele><time>2026-04-25T10:29:36Z</time></trkpt><trkpt lat="45.5830820279006" lon="11.176893074546719"><ele>753.6666666666666</ele><time>2026-04-25T10:29:37Z</time></trkpt><trkpt lat="45.583083646464864" lon="11.176729752071145"><ele>752.8333333333333</ele><time>2026-04-25T10:29:39Z</time></trkpt><trkpt lat="45.583058815011036" lon="11.176627474406004"><ele>752.0</ele><time>2026-04-25T10:29:40Z</time></trkpt><trkpt lat="45.58305977467546" lon="11.176524037680863"><ele>751.1666666666666</ele><time>2026-04-25T10:29:41Z</time></trkpt><trkpt lat="45.583077128720106" lon="11.17640242186858"><ele>750.3333333333333</ele><time>2026-04-25T10:29:42Z</time></trkpt><trkpt lat="45.583080384994595" lon="11.176286230299636"><ele>749.5</ele><time>2026-04-25T10:29:43Z</time></trkpt><trkpt lat="45.58305936711993" lon="11.176184901719006"><ele>748.6666666666666</ele><time>2026-04-25T10:29:44Z</time></trkpt><trkpt lat="45.58302098908712" lon="11.176047094030972"><ele>747.8333333333334</ele><time>2026-04-25T10:29:46Z</time></trkpt><trkpt lat="45.582975451098726" lon="11.17597726361581"><ele>747.0</ele><time>2026-04-25T10:29:47Z</time></trkpt><trkpt lat="45.5829165365121" lon="11.175807295785383"><ele>747.0</ele><time>2026-04-25T10:29:49Z</time></trkpt><trkpt lat="45.582912190785706" lon="11.175698347689897"><ele>747.0</ele><time>2026-04-25T10:29:50Z</time></trkpt><trkpt lat="45.58291329954852" lon="11.17556774064454"><ele>747.0</ele><time>2026-04-25T10:29:51Z</time></trkpt><trkpt lat="45.582910175637075" lon="11.175396270145512"><ele>747.0</ele><time>2026-04-25T10:29:53Z</time></trkpt><trkpt lat="45.58293770066741" lon="11.175285076000632"><ele>747.0</ele><time>2026-04-25T10:29:54Z</time></trkpt><trkpt lat="45.58294934206753" lon="11.175160729679932"><ele>744.8333333333334</ele><time>2026-04-25T10:29:55Z</time></trkpt><trkpt lat="45.58296569490439" lon="11.175068139218927"><ele>742.6666666666666</ele><time>2026-04-25T10:29:56Z</time></trkpt><trkpt lat="45.58299996553349" lon="11.174982848757784"><ele>740.5</ele><time>2026-04-25T10:29:57Z</time></trkpt><trkpt lat="45.58304646733495" lon="11.174900548465386"><ele>738.3333333333333</ele><time>2026-04-25T10:29:58Z</time></trkpt><trkpt lat="45.58306424775725" lon="11.17475206691138"><ele>736.1666666666666</ele><time>2026-04-25T10:30:00Z</time></trkpt><trkpt lat="45.5830835330539" lon="11.174569793109402"><ele>734.0</ele><time>2026-04-25T10:30:02Z</time></trkpt><trkpt lat="45.58309091155808" lon="11.174398489551336"><ele>729.6666666666666</ele><time>2026-04-25T10:30:04Z</time></trkpt><trkpt lat="45.583135849410226" lon="11.174273877018091"><ele>725.3333333333333</ele><time>2026-04-25T10:30:06Z</time></trkpt><trkpt lat="45.583207520190705" lon="11.174190703664776"><ele>721.0</ele><time>2026-04-25T10:30:08Z</time></trkpt><trkpt lat="45.583263727554026" lon="11.174137771040693"><ele>716.6666666666666</ele><time>2026-04-25T10:30:09Z</time></trkpt><trkpt lat="45.58333840733158" lon="11.174075309997814"><ele>712.3333333333334</ele><time>2026-04-25T10:30:11Z</time></trkpt><trkpt lat="45.58341357520022" lon="11.174102098288628"><ele>708.0</ele><time>2026-04-25T10:30:13Z</time></trkpt><trkpt lat="45.583485776872116" lon="11.174140302854356"><ele>708.0</ele><time>2026-04-25T10:30:14Z</time></trkpt><trkpt lat="45.58354342879203" lon="11.174181641093412"><ele>708.0</ele><time>2026-04-25T10:30:15Z</time></trkpt><trkpt lat="45.58362632172759" lon="11.174287373261592"><ele>708.0</ele><time>2026-04-25T10:30:17Z</time></trkpt><trkpt lat="45.58367051156245" lon="11.174357552454307"><ele>708.0</ele><time>2026-04-25T10:30:19Z</time></trkpt><trkpt lat="45.58372509381348" lon="11.174425454122684"><ele>708.0</ele><time>2026-04-25T10:30:22Z</time></trkpt><trkpt lat="45.58377665453007" lon="11.17434387247761"><ele>708.0</ele><time>2026-04-25T10:30:25Z</time></trkpt><trkpt lat="45.5837403013132" lon="11.174152714237252"><ele>702.5</ele><time>2026-04-25T10:30:27Z</time></trkpt><trkpt lat="45.583711543552305" lon="11.174003673325918"><ele>697.0</ele><time>2026-04-25T10:30:28Z</time></trkpt><trkpt lat="45.58366768727904" lon="11.17385137690941"><ele>691.5</ele><time>2026-04-25T10:30:29Z</time></trkpt><trkpt lat="45.58362658720179" lon="11.173689332102718"><ele>686.0</ele><time>2026-04-25T10:30:30Z</time></trkpt><trkpt lat="45.583585277239415" lon="11.17353438631109"><ele>686.0</ele><time>2026-04-25T10:30:31Z</time></trkpt><trkpt lat="45.58355433499054" lon="11.17339641815929"><ele>686.0</ele><time>2026-04-25T10:30:32Z</time></trkpt><trkpt lat="45.58353504579425" lon="11.173285219825322"><ele>686.0</ele><time>2026-04-25T10:30:33Z</time></trkpt><trkpt lat="45.58351167831683" lon="11.173145595375477"><ele>686.0</ele><time>2026-04-25T10:30:34Z</time></trkpt><trkpt lat="45.58349668237015" lon="11.173030889337385"><ele>686.0</ele><time>2026-04-25T10:30:35Z</time></trkpt><trkpt lat="45.58348905947551" lon="11.172919913052821"><ele>686.0</ele><time>2026-04-25T10:30:36Z</time></trkpt><trkpt lat="45.58345798080328" lon="11.172751686550715"><ele>684.3333333333333</ele><time>2026-04-25T10:30:38Z</time></trkpt><trkpt lat="45.58358610008888" lon="11.172632372108477"><ele>682.6666666666666</ele><time>2026-04-25T10:30:45Z</time></trkpt><trkpt lat="45.58362392977778" lon="11.17254140530369"><ele>681.0</ele><time>2026-04-25T10:30:49Z</time></trkpt><trkpt lat="45.58365153544184" lon="11.172416455550424"><ele>679.3333333333334</ele><time>2026-04-25T10:30:52Z</time></trkpt><trkpt lat="45.583646226659425" lon="11.172324187932302"><ele>677.6666666666667</ele><time>2026-04-25T10:30:54Z</time></trkpt><trkpt lat="45.583649045164286" lon="11.172229943668336"><ele>676.0</ele><time>2026-04-25T10:30:58Z</time></trkpt><trkpt lat="45.58369102183345" lon="11.172106960395972"><ele>673.0</ele><time>2026-04-25T10:31:01Z</time></trkpt><trkpt lat="45.58371537867847" lon="11.171993074875106"><ele>670.0</ele><time>2026-04-25T10:31:04Z</time></trkpt><trkpt lat="45.58374270154839" lon="11.171883381067747"><ele>667.0</ele><time>2026-04-25T10:31:07Z</time></trkpt><trkpt lat="45.58370705233976" lon="11.17177656417137"><ele>664.0</ele><time>2026-04-25T10:31:09Z</time></trkpt><trkpt lat="45.583760216969864" lon="11.171637156482008"><ele>661.0</ele><time>2026-04-25T10:31:11Z</time></trkpt><trkpt lat="45.58378111656343" lon="11.171533873605387"><ele>658.0</ele><time>2026-04-25T10:31:13Z</time></trkpt><trkpt lat="45.58382916118069" lon="11.17145096113116"><ele>657.6666666666667</ele><time>2026-04-25T10:31:15Z</time></trkpt><trkpt lat="45.58387397904094" lon="11.171365846731371"><ele>657.3333333333334</ele><time>2026-04-25T10:31:17Z</time></trkpt><trkpt lat="45.5839244306832" lon="11.171282971666566"><ele>657.0</ele><time>2026-04-25T10:31:19Z</time></trkpt><trkpt lat="45.58398556570283" lon="11.171237333158652"><ele>656.6666666666666</ele><time>2026-04-25T10:31:21Z</time></trkpt><trkpt lat="45.5840746891364" lon="11.171081812256752"><ele>656.3333333333333</ele><time>2026-04-25T10:31:23Z</time></trkpt><trkpt lat="45.58411318719872" lon="11.17100862846573"><ele>656.0</ele><time>2026-04-25T10:31:25Z</time></trkpt><trkpt lat="45.584137834471306" lon="11.170916192636408"><ele>656.0</ele><time>2026-04-25T10:31:28Z</time></trkpt><trkpt lat="45.58414481728928" lon="11.170798876315375"><ele>656.0</ele><time>2026-04-25T10:31:30Z</time></trkpt><trkpt lat="45.58416637641842" lon="11.170658335488417"><ele>656.0</ele><time>2026-04-25T10:31:32Z</time></trkpt><trkpt lat="45.584229523723664" lon="11.17061360880325"><ele>656.0</ele><time>2026-04-25T10:31:34Z</time></trkpt><trkpt lat="45.58428120426737" lon="11.170549486914211"><ele>656.0</ele><time>2026-04-25T10:31:36Z</time></trkpt><trkpt lat="45.584293351198134" lon="11.170425190010782"><ele>656.0</ele><time>2026-04-25T10:31:39Z</time></trkpt><trkpt lat="45.58432167766253" lon="11.170342571258843"><ele>656.4</ele><time>2026-04-25T10:31:41Z</time></trkpt><trkpt lat="45.58439675208329" lon="11.17019867139441"><ele>656.8</ele><time>2026-04-25T10:31:44Z</time></trkpt><trkpt lat="45.58445130197857" lon="11.170128065522173"><ele>657.1999999999999</ele><time>2026-04-25T10:31:46Z</time></trkpt><trkpt lat="45.584485271209196" lon="11.170020554707452"><ele>657.5999999999999</ele><time>2026-04-25T10:31:48Z</time></trkpt><trkpt lat="45.58452006169452" lon="11.169900923280313"><ele>658.0</ele><time>2026-04-25T10:31:50Z</time></trkpt><trkpt lat="45.58456635710704" lon="11.169780179919051"><ele>653.4</ele><time>2026-04-25T10:31:52Z</time></trkpt><trkpt lat="45.58462327442102" lon="11.169664748375133"><ele>648.8</ele><time>2026-04-25T10:31:54Z</time></trkpt><trkpt lat="45.58467525425999" lon="11.169602092009047"><ele>644.2</ele><time>2026-04-25T10:31:55Z</time></trkpt><trkpt lat="45.58470859718763" lon="11.169457136990832"><ele>639.6</ele><time>2026-04-25T10:31:57Z</time></trkpt><trkpt lat="45.58475190107149" lon="11.169314986667537"><ele>635.0</ele><time>2026-04-25T10:31:59Z</time></trkpt><trkpt lat="45.58480320334112" lon="11.169164566134047"><ele>633.4</ele><time>2026-04-25T10:32:01Z</time></trkpt><trkpt lat="45.58485504299471" lon="11.168995287712175"><ele>631.8</ele><time>2026-04-25T10:32:03Z</time></trkpt><trkpt lat="45.584885304713936" lon="11.168839657172006"><ele>630.2</ele><time>2026-04-25T10:32:05Z</time></trkpt><trkpt lat="45.58487788075922" lon="11.168741534805992"><ele>628.6</ele><time>2026-04-25T10:32:08Z</time></trkpt><trkpt lat="45.58491800434432" lon="11.168614992048076"><ele>627.0</ele><time>2026-04-25T10:32:10Z</time></trkpt><trkpt lat="45.58494111904154" lon="11.168455991569559"><ele>627.0</ele><time>2026-04-25T10:32:12Z</time></trkpt><trkpt lat="45.58497011084342" lon="11.168366633131441"><ele>627.0</ele><time>2026-04-25T10:32:14Z</time></trkpt><trkpt lat="45.584980630021974" lon="11.168263963013777"><ele>627.0</ele><time>2026-04-25T10:32:16Z</time></trkpt><trkpt lat="45.584965824714914" lon="11.168151780348085"><ele>627.0</ele><time>2026-04-25T10:32:19Z</time></trkpt><trkpt lat="45.58496895122446" lon="11.168040640431771"><ele>627.0</ele><time>2026-04-25T10:32:21Z</time></trkpt><trkpt lat="45.584974959361034" lon="11.167927306169734"><ele>627.0</ele><time>2026-04-25T10:32:23Z</time></trkpt><trkpt lat="45.584959374112394" lon="11.167834778803108"><ele>627.0</ele><time>2026-04-25T10:32:25Z</time></trkpt><trkpt lat="45.5849514930624" lon="11.16770384008506"><ele>625.0</ele><time>2026-04-25T10:32:28Z</time></trkpt><trkpt lat="45.58496193165625" lon="11.167601456190068"><ele>623.0</ele><time>2026-04-25T10:32:30Z</time></trkpt><trkpt lat="45.58489432449656" lon="11.167475280271729"><ele>621.0</ele><time>2026-04-25T10:32:32Z</time></trkpt><trkpt lat="45.58486245563415" lon="11.167335521658728"><ele>619.0</ele><time>2026-04-25T10:32:34Z</time></trkpt><trkpt lat="45.584875936571265" lon="11.167226874869419"><ele>617.0</ele><time>2026-04-25T10:32:36Z</time></trkpt><trkpt lat="45.58487965901825" lon="11.167123369187424"><ele>615.0</ele><time>2026-04-25T10:32:37Z</time></trkpt><trkpt lat="45.58485540400807" lon="11.166964837862912"><ele>614.2</ele><time>2026-04-25T10:32:39Z</time></trkpt><trkpt lat="45.584778296455404" lon="11.166843569965236"><ele>613.4</ele><time>2026-04-25T10:32:41Z</time></trkpt><trkpt lat="45.5847349138566" lon="11.16674881352197"><ele>612.6</ele><time>2026-04-25T10:32:42Z</time></trkpt><trkpt lat="45.58469472065634" lon="11.16665811319045"><ele>611.8</ele><time>2026-04-25T10:32:43Z</time></trkpt><trkpt lat="45.5846552783494" lon="11.166565662897243"><ele>611.0</ele><time>2026-04-25T10:32:44Z</time></trkpt><trkpt lat="45.58466047068681" lon="11.166415482568159"><ele>611.0</ele><time>2026-04-25T10:32:46Z</time></trkpt><trkpt lat="45.58464623396619" lon="11.166288671962837"><ele>611.0</ele><time>2026-04-25T10:32:48Z</time></trkpt><trkpt lat="45.58462394922236" lon="11.166153049042501"><ele>611.0</ele><time>2026-04-25T10:32:51Z</time></trkpt><trkpt lat="45.58460357572508" lon="11.166019886868428"><ele>611.0</ele><time>2026-04-25T10:32:53Z</time></trkpt><trkpt lat="45.58455977469411" lon="11.165886875050143"><ele>611.0</ele><time>2026-04-25T10:32:55Z</time></trkpt><trkpt lat="45.584522575459275" lon="11.165726843594767"><ele>604.3333333333333</ele><time>2026-04-25T10:32:56Z</time></trkpt><trkpt lat="45.58448873854128" lon="11.165635911553514"><ele>597.6666666666666</ele><time>2026-04-25T10:32:57Z</time></trkpt><trkpt lat="45.58444536462394" lon="11.1655279092318"><ele>591.0</ele><time>2026-04-25T10:32:58Z</time></trkpt><trkpt lat="45.58442048446432" lon="11.16542678442558"><ele>584.3333333333334</ele><time>2026-04-25T10:32:59Z</time></trkpt><trkpt lat="45.584403522114506" lon="11.16533371291137"><ele>577.6666666666667</ele><time>2026-04-25T10:33:00Z</time></trkpt><trkpt lat="45.58435183161562" lon="11.165185857247966"><ele>571.0</ele><time>2026-04-25T10:33:02Z</time></trkpt><trkpt lat="45.584273492566545" lon="11.165069266724089"><ele>571.0</ele><time>2026-04-25T10:33:04Z</time></trkpt><trkpt lat="45.58421671490117" lon="11.165006877075944"><ele>571.0</ele><time>2026-04-25T10:33:05Z</time></trkpt><trkpt lat="45.58416402690228" lon="11.164936851467457"><ele>571.0</ele><time>2026-04-25T10:33:06Z</time></trkpt><trkpt lat="45.584119092650226" lon="11.164856734201408"><ele>571.0</ele><time>2026-04-25T10:33:07Z</time></trkpt><trkpt lat="45.584058046816914" lon="11.164711439999742"><ele>571.0</ele><time>2026-04-25T10:33:09Z</time></trkpt><trkpt lat="45.5840059220421" lon="11.164562868001292"><ele>569.5</ele><time>2026-04-25T10:33:11Z</time></trkpt><trkpt lat="45.58396306230721" lon="11.164483461807084"><ele>568.0</ele><time>2026-04-25T10:33:12Z</time></trkpt><trkpt lat="45.58392395954418" lon="11.164396012842413"><ele>566.5</ele><time>2026-04-25T10:33:13Z</time></trkpt><trkpt lat="45.58388254950943" lon="11.16430696999563"><ele>565.0</ele><time>2026-04-25T10:33:14Z</time></trkpt><trkpt lat="45.583846447429174" lon="11.164204933363344"><ele>563.5</ele><time>2026-04-25T10:33:15Z</time></trkpt><trkpt lat="45.58382090256618" lon="11.164078159285198"><ele>562.0</ele><time>2026-04-25T10:33:16Z</time></trkpt><trkpt lat="45.583782415946914" lon="11.163951704702145"><ele>560.8000000000001</ele><time>2026-04-25T10:33:17Z</time></trkpt><trkpt lat="45.5837355625314" lon="11.163820568639231"><ele>559.6</ele><time>2026-04-25T10:33:18Z</time></trkpt><trkpt lat="45.583700847913924" lon="11.163709278073775"><ele>558.4000000000001</ele><time>2026-04-25T10:33:19Z</time></trkpt><trkpt lat="45.583696334561715" lon="11.16355022971906"><ele>557.2</ele><time>2026-04-25T10:33:21Z</time></trkpt><trkpt lat="45.58373040022923" lon="11.163444993198103"><ele>556.0</ele><time>2026-04-25T10:33:23Z</time></trkpt><trkpt lat="45.583766010129835" lon="11.163295178797846"><ele>556.0</ele><time>2026-04-25T10:33:25Z</time></trkpt><trkpt lat="45.5838160231493" lon="11.163229091395005"><ele>556.0</ele><time>2026-04-25T10:33:26Z</time></trkpt><trkpt lat="45.58387362424291" lon="11.16316751895379"><ele>556.0</ele><time>2026-04-25T10:33:27Z</time></trkpt><trkpt lat="45.58393178592393" lon="11.163015783016556"><ele>556.0</ele><time>2026-04-25T10:33:29Z</time></trkpt><trkpt lat="45.583934207000034" lon="11.162922769340629"><ele>556.0</ele><time>2026-04-25T10:33:30Z</time></trkpt><trkpt lat="45.58391487105516" lon="11.162824499175258"><ele>556.0</ele><time>2026-04-25T10:33:31Z</time></trkpt><trkpt lat="45.58392803267681" lon="11.162716703156846"><ele>554.3333333333334</ele><time>2026-04-25T10:33:32Z</time></trkpt><trkpt lat="45.5839895027587" lon="11.162622079999931"><ele>552.6666666666667</ele><time>2026-04-25T10:33:33Z</time></trkpt><trkpt lat="45.5840779527794" lon="11.16252670610513"><ele>551.0</ele><time>2026-04-25T10:33:34Z</time></trkpt><trkpt lat="45.58415041430209" lon="11.162447560743354"><ele>549.3333333333334</ele><time>2026-04-25T10:33:35Z</time></trkpt><trkpt lat="45.58419982772901" lon="11.162389678831504"><ele>547.6666666666666</ele><time>2026-04-25T10:33:36Z</time></trkpt><trkpt lat="45.58423556312723" lon="11.162308822075538"><ele>546.0</ele><time>2026-04-25T10:33:37Z</time></trkpt><trkpt lat="45.5842626655317" lon="11.162194791793883"><ele>545.25</ele><time>2026-04-25T10:33:38Z</time></trkpt><trkpt lat="45.584311123436144" lon="11.162031970291398"><ele>544.5</ele><time>2026-04-25T10:33:39Z</time></trkpt><trkpt lat="45.58437693463901" lon="11.16183866131958"><ele>543.75</ele><time>2026-04-25T10:33:40Z</time></trkpt><trkpt lat="45.58443382679954" lon="11.161657317083872"><ele>543.0</ele><time>2026-04-25T10:33:41Z</time></trkpt><trkpt lat="45.58447847657631" lon="11.161508850969556"><ele>544.6666666666666</ele><time>2026-04-25T10:33:42Z</time></trkpt><trkpt lat="45.584498218102986" lon="11.16139331376464"><ele>546.3333333333334</ele><time>2026-04-25T10:33:43Z</time></trkpt><trkpt lat="45.584527483197554" lon="11.161294513723847"><ele>548.0</ele><time>2026-04-25T10:33:44Z</time></trkpt><trkpt lat="45.58459520686461" lon="11.161237365212923"><ele>549.6666666666667</ele><time>2026-04-25T10:33:45Z</time></trkpt><trkpt lat="45.584649992364895" lon="11.161132861275757"><ele>551.3333333333334</ele><time>2026-04-25T10:33:46Z</time></trkpt><trkpt lat="45.58471876380422" lon="11.161016955488934"><ele>553.0</ele><time>2026-04-25T10:33:47Z</time></trkpt><trkpt lat="45.58476833252156" lon="11.160875052838367"><ele>548.8</ele><time>2026-04-25T10:33:48Z</time></trkpt><trkpt lat="45.584796068777344" lon="11.160731578250447"><ele>544.5999999999999</ele><time>2026-04-25T10:33:49Z</time></trkpt><trkpt lat="45.58480630000188" lon="11.160593108465463"><ele>540.4000000000001</ele><time>2026-04-25T10:33:50Z</time></trkpt><trkpt lat="45.5847987354414" lon="11.160443542274756"><ele>536.2</ele><time>2026-04-25T10:33:51Z</time></trkpt><trkpt lat="45.58477765001513" lon="11.160299280175524"><ele>532.0</ele><time>2026-04-25T10:33:52Z</time></trkpt><trkpt lat="45.584779075472674" lon="11.16017270102638"><ele>531.6666666666667</ele><time>2026-04-25T10:33:53Z</time></trkpt><trkpt lat="45.58483720965019" lon="11.160072191124309"><ele>531.3333333333334</ele><time>2026-04-25T10:33:54Z</time></trkpt><trkpt lat="45.58487017538007" lon="11.159970121472162"><ele>531.0</ele><time>2026-04-25T10:33:55Z</time></trkpt><trkpt lat="45.584890293721905" lon="11.159875278776395"><ele>530.6666666666666</ele><time>2026-04-25T10:33:56Z</time></trkpt><trkpt lat="45.584903254012296" lon="11.159766435521268"><ele>530.3333333333333</ele><time>2026-04-25T10:33:57Z</time></trkpt><trkpt lat="45.584883073809976" lon="11.159602938774219"><ele>530.0</ele><time>2026-04-25T10:33:58Z</time></trkpt><trkpt lat="45.58483894961798" lon="11.159397059670288"><ele>529.6</ele><time>2026-04-25T10:33:59Z</time></trkpt><trkpt lat="45.58483034482337" lon="11.159210812614877"><ele>529.2</ele><time>2026-04-25T10:34:00Z</time></trkpt><trkpt lat="45.58483437142116" lon="11.159076416311718"><ele>528.8</ele><time>2026-04-25T10:34:01Z</time></trkpt><trkpt lat="45.58480854897793" lon="11.158969636919958"><ele>528.4</ele><time>2026-04-25T10:34:02Z</time></trkpt><trkpt lat="45.58476055233452" lon="11.158830294348462"><ele>528.0</ele><time>2026-04-25T10:34:03Z</time></trkpt><trkpt lat="45.584722497888585" lon="11.158683377975017"><ele>527.8</ele><time>2026-04-25T10:34:04Z</time></trkpt><trkpt lat="45.58469243975646" lon="11.158557409361194"><ele>527.5999999999999</ele><time>2026-04-25T10:34:05Z</time></trkpt><trkpt lat="45.584664621394396" lon="11.1584664891934"><ele>527.4000000000001</ele><time>2026-04-25T10:34:06Z</time></trkpt><trkpt lat="45.584629735771586" lon="11.158377876636848"><ele>527.2</ele><time>2026-04-25T10:34:08Z</time></trkpt><trkpt lat="45.58450872616802" lon="11.158312900905656"><ele>527.0</ele><time>2026-04-25T10:34:10Z</time></trkpt><trkpt lat="45.58443024030065" lon="11.158101589774773"><ele>527.0</ele><time>2026-04-25T10:34:12Z</time></trkpt><trkpt lat="45.58436598225939" lon="11.157938770025108"><ele>527.0</ele><time>2026-04-25T10:34:13Z</time></trkpt><trkpt lat="45.58431743052538" lon="11.157767934329462"><ele>527.0</ele><time>2026-04-25T10:34:14Z</time></trkpt><trkpt lat="45.58427499273994" lon="11.157617126309155"><ele>527.0</ele><time>2026-04-25T10:34:15Z</time></trkpt><trkpt lat="45.584243758333294" lon="11.15750588892896"><ele>525.2</ele><time>2026-04-25T10:34:16Z</time></trkpt><trkpt lat="45.584197815100396" lon="11.157359106714411"><ele>523.4000000000001</ele><time>2026-04-25T10:34:17Z</time></trkpt><trkpt lat="45.584146545172636" lon="11.157223688831582"><ele>521.5999999999999</ele><time>2026-04-25T10:34:18Z</time></trkpt><trkpt lat="45.584086908650285" lon="11.157107077353317"><ele>519.8</ele><time>2026-04-25T10:34:19Z</time></trkpt><trkpt lat="45.58402718281178" lon="11.157042779089702"><ele>518.0</ele><time>2026-04-25T10:34:20Z</time></trkpt><trkpt lat="45.58394472400302" lon="11.156973937923912"><ele>518.0</ele><time>2026-04-25T10:34:21Z</time></trkpt><trkpt lat="45.58387060357222" lon="11.15691648893763"><ele>518.0</ele><time>2026-04-25T10:34:22Z</time></trkpt><trkpt lat="45.58377562499276" lon="11.15684886170131"><ele>518.0</ele><time>2026-04-25T10:34:23Z</time></trkpt><trkpt lat="45.58366970786563" lon="11.156846109398664"><ele>518.0</ele><time>2026-04-25T10:34:24Z</time></trkpt><trkpt lat="45.58357031682921" lon="11.156923727471382"><ele>518.0</ele><time>2026-04-25T10:34:25Z</time></trkpt><trkpt lat="45.58347338206952" lon="11.156973903342251"><ele>524.4</ele><time>2026-04-25T10:34:26Z</time></trkpt><trkpt lat="45.583374541921195" lon="11.157024534631695"><ele>530.8</ele><time>2026-04-25T10:34:27Z</time></trkpt><trkpt lat="45.583277380434104" lon="11.157072603120524"><ele>537.2</ele><time>2026-04-25T10:34:28Z</time></trkpt><trkpt lat="45.58319685253826" lon="11.157042888379427"><ele>543.6</ele><time>2026-04-25T10:34:30Z</time></trkpt><trkpt lat="45.58309752694587" lon="11.156896527591067"><ele>550.0</ele><time>2026-04-25T10:34:32Z</time></trkpt><trkpt lat="45.5830544566108" lon="11.156783036919125"><ele>550.0</ele><time>2026-04-25T10:34:34Z</time></trkpt><trkpt lat="45.582976870655344" lon="11.156764693659705"><ele>550.0</ele><time>2026-04-25T10:34:35Z</time></trkpt><trkpt lat="45.58292000017368" lon="11.15683053854604"><ele>550.0</ele><time>2026-04-25T10:34:36Z</time></trkpt><trkpt lat="45.58288196496757" lon="11.156903528488877"><ele>550.0</ele><time>2026-04-25T10:34:37Z</time></trkpt><trkpt lat="45.58283520788951" lon="11.157000303783427"><ele>550.0</ele><time>2026-04-25T10:34:38Z</time></trkpt><trkpt lat="45.582796113130975" lon="11.157114183099637"><ele>550.0</ele><time>2026-04-25T10:34:39Z</time></trkpt><trkpt lat="45.582763306624976" lon="11.157253826980554"><ele>551.2</ele><time>2026-04-25T10:34:40Z</time></trkpt><trkpt lat="45.58274702469046" lon="11.157400886982114"><ele>552.4</ele><time>2026-04-25T10:34:41Z</time></trkpt><trkpt lat="45.58280466071378" lon="11.157565971354906"><ele>553.6</ele><time>2026-04-25T10:34:42Z</time></trkpt><trkpt lat="45.58284966801825" lon="11.157658203879292"><ele>554.8</ele><time>2026-04-25T10:34:43Z</time></trkpt><trkpt lat="45.582881749093126" lon="11.157762312938845"><ele>556.0</ele><time>2026-04-25T10:34:44Z</time></trkpt><trkpt lat="45.582929817406594" lon="11.157896986016686"><ele>556.0</ele><time>2026-04-25T10:34:45Z</time></trkpt><trkpt lat="45.58299277639428" lon="11.158010338337315"><ele>556.0</ele><time>2026-04-25T10:34:46Z</time></trkpt><trkpt lat="45.583024472423126" lon="11.15813756306062"><ele>556.0</ele><time>2026-04-25T10:34:47Z</time></trkpt><trkpt lat="45.58308563542795" lon="11.158215266982674"><ele>556.0</ele><time>2026-04-25T10:34:48Z</time></trkpt><trkpt lat="45.58314626771912" lon="11.158310164269318"><ele>556.0</ele><time>2026-04-25T10:34:49Z</time></trkpt><trkpt lat="45.583183921653365" lon="11.15841423955173"><ele>559.5</ele><time>2026-04-25T10:34:50Z</time></trkpt><trkpt lat="45.58323333473624" lon="11.158489737005805"><ele>563.0</ele><time>2026-04-25T10:34:51Z</time></trkpt><trkpt lat="45.58332306817745" lon="11.158533580469555"><ele>566.5</ele><time>2026-04-25T10:34:52Z</time></trkpt><trkpt lat="45.583396502579475" lon="11.1585645721124"><ele>570.0</ele><time>2026-04-25T10:34:53Z</time></trkpt><trkpt lat="45.58346329424716" lon="11.15859276051843"><ele>573.5</ele><time>2026-04-25T10:34:54Z</time></trkpt><trkpt lat="45.58341637474572" lon="11.158658861371407"><ele>577.0</ele><time>2026-04-25T10:34:58Z</time></trkpt><trkpt lat="45.58333504386805" lon="11.158629692991068"><ele>577.0</ele><time>2026-04-25T10:35:00Z</time></trkpt><trkpt lat="45.583198177342794" lon="11.158612996440162"><ele>577.0</ele><time>2026-04-25T10:35:02Z</time></trkpt><trkpt lat="45.58309241740322" lon="11.15858755240326"><ele>577.0</ele><time>2026-04-25T10:35:03Z</time></trkpt><trkpt lat="45.58299257794249" lon="11.15854914576919"><ele>577.0</ele><time>2026-04-25T10:35:04Z</time></trkpt><trkpt lat="45.58288633133417" lon="11.158502051474837"><ele>584.0</ele><time>2026-04-25T10:35:05Z</time></trkpt><trkpt lat="45.58277534274812" lon="11.158469943483116"><ele>591.0</ele><time>2026-04-25T10:35:06Z</time></trkpt><trkpt lat="45.58267541745402" lon="11.158392435900861"><ele>598.0</ele><time>2026-04-25T10:35:07Z</time></trkpt><trkpt lat="45.582565750341" lon="11.158332338714406"><ele>605.0</ele><time>2026-04-25T10:35:08Z</time></trkpt><trkpt lat="45.582453161348994" lon="11.158236099092827"><ele>601.5</ele><time>2026-04-25T10:35:09Z</time></trkpt><trkpt lat="45.5823391567417" lon="11.158144144028856"><ele>598.0</ele><time>2026-04-25T10:35:10Z</time></trkpt><trkpt lat="45.582253672469925" lon="11.158061843992265"><ele>594.5</ele><time>2026-04-25T10:35:11Z</time></trkpt><trkpt lat="45.58217176442294" lon="11.157947711151518"><ele>591.0</ele><time>2026-04-25T10:35:13Z</time></trkpt><trkpt lat="45.58210857730969" lon="11.157803920061587"><ele>591.0</ele><time>2026-04-25T10:35:15Z</time></trkpt><trkpt lat="45.58207871616241" lon="11.157670684097114"><ele>591.0</ele><time>2026-04-25T10:35:16Z</time></trkpt><trkpt lat="45.582052452901856" lon="11.157480025367796"><ele>591.0</ele><time>2026-04-25T10:35:17Z</time></trkpt><trkpt lat="45.58202849943753" lon="11.15736077743665"><ele>591.0</ele><time>2026-04-25T10:35:18Z</time></trkpt><trkpt lat="45.58202897119345" lon="11.157208010435202"><ele>591.0</ele><time>2026-04-25T10:35:19Z</time></trkpt><trkpt lat="45.58201586903678" lon="11.157049258231558"><ele>594.0</ele><time>2026-04-25T10:35:20Z</time></trkpt><trkpt lat="45.58199397428733" lon="11.156827113697375"><ele>597.0</ele><time>2026-04-25T10:35:21Z</time></trkpt><trkpt lat="45.581960235430905" lon="11.1566838846995"><ele>600.0</ele><time>2026-04-25T10:35:22Z</time></trkpt><trkpt lat="45.58193939567894" lon="11.156574455433304"><ele>603.0</ele><time>2026-04-25T10:35:23Z</time></trkpt><trkpt lat="45.581912826485244" lon="11.156467058648417"><ele>606.0</ele><time>2026-04-25T10:35:24Z</time></trkpt><trkpt lat="45.58189526147577" lon="11.156360252865273"><ele>606.0</ele><time>2026-04-25T10:35:26Z</time></trkpt><trkpt lat="45.58185398149125" lon="11.156267013584989"><ele>606.0</ele><time>2026-04-25T10:35:28Z</time></trkpt><trkpt lat="45.581810730522854" lon="11.156172576974637"><ele>606.0</ele><time>2026-04-25T10:35:30Z</time></trkpt><trkpt lat="45.58173081683969" lon="11.156160053856526"><ele>606.0</ele><time>2026-04-25T10:35:31.999Z</time></trkpt><trkpt lat="45.58166713134232" lon="11.15657178687552"><ele>610.6</ele><time>2026-04-25T10:35:33.999Z</time></trkpt><trkpt lat="45.58158516197636" lon="11.156599834634799"><ele>615.2</ele><time>2026-04-25T10:35:35.999Z</time></trkpt><trkpt lat="45.58146381120795" lon="11.156599346435817"><ele>619.8</ele><time>2026-04-25T10:35:37.999Z</time></trkpt><trkpt lat="45.58138072204432" lon="11.156585833914804"><ele>624.4</ele><time>2026-04-25T10:35:39.999Z</time></trkpt><trkpt lat="45.58125247034389" lon="11.156593469481637"><ele>629.0</ele><time>2026-04-25T10:35:41.999Z</time></trkpt><trkpt lat="45.581127260362756" lon="11.15660834048989"><ele>631.2</ele><time>2026-04-25T10:35:43.999Z</time></trkpt><trkpt lat="45.581066707842616" lon="11.156655253647292"><ele>633.4</ele><time>2026-04-25T10:35:45Z</time></trkpt><trkpt lat="45.58095361457123" lon="11.156684762683648"><ele>635.6</ele><time>2026-04-25T10:35:47Z</time></trkpt><trkpt lat="45.58082404865833" lon="11.15671917688151"><ele>637.8</ele><time>2026-04-25T10:35:49Z</time></trkpt><trkpt lat="45.5807427575369" lon="11.15673679770935"><ele>640.0</ele><time>2026-04-25T10:35:50Z</time></trkpt><trkpt lat="45.58063622982523" lon="11.15674047104455"><ele>640.0</ele><time>2026-04-25T10:35:52Z</time></trkpt><trkpt lat="45.580545922639715" lon="11.15675405369106"><ele>640.0</ele><time>2026-04-25T10:35:54Z</time></trkpt><trkpt lat="45.58046450519324" lon="11.156768654087937"><ele>640.0</ele><time>2026-04-25T10:35:55Z</time></trkpt><trkpt lat="45.58039519328195" lon="11.156765839285393"><ele>640.0</ele><time>2026-04-25T10:35:56Z</time></trkpt><trkpt lat="45.58032854667124" lon="11.156765228981582"><ele>640.0</ele><time>2026-04-25T10:35:57Z</time></trkpt><trkpt lat="45.58023917118183" lon="11.156769773749843"><ele>640.0</ele><time>2026-04-25T10:35:59Z</time></trkpt><trkpt lat="45.580165797940126" lon="11.156809122722384"><ele>640.3333333333334</ele><time>2026-04-25T10:36:01Z</time></trkpt><trkpt lat="45.58008050457297" lon="11.156805108429435"><ele>640.6666666666667</ele><time>2026-04-25T10:36:03Z</time></trkpt><trkpt lat="45.58000276042411" lon="11.156844704514612"><ele>641.0</ele><time>2026-04-25T10:36:05Z</time></trkpt><trkpt lat="45.57993672705594" lon="11.156854994565501"><ele>641.3333333333334</ele><time>2026-04-25T10:36:07Z</time></trkpt><trkpt lat="45.57987217562488" lon="11.156866404397388"><ele>641.6666666666666</ele><time>2026-04-25T10:36:08Z</time></trkpt><trkpt lat="45.57975886243757" lon="11.15690480006717"><ele>642.0</ele><time>2026-04-25T10:36:10Z</time></trkpt><trkpt lat="45.579657216914796" lon="11.156845757291762"><ele>642.0</ele><time>2026-04-25T10:36:13Z</time></trkpt><trkpt lat="45.57960588643152" lon="11.156787537915422"><ele>642.0</ele><time>2026-04-25T10:36:14Z</time></trkpt><trkpt lat="45.579549666061546" lon="11.156730341622538"><ele>642.0</ele><time>2026-04-25T10:36:15Z</time></trkpt><trkpt lat="45.579485095894384" lon="11.1567041464573"><ele>642.0</ele><time>2026-04-25T10:36:16Z</time></trkpt><trkpt lat="45.579364742278536" lon="11.156655994595154"><ele>642.0</ele><time>2026-04-25T10:36:18Z</time></trkpt><trkpt lat="45.57927568332022" lon="11.15661768094936"><ele>642.0</ele><time>2026-04-25T10:36:19Z</time></trkpt><trkpt lat="45.57920108874431" lon="11.15659605698069"><ele>645.3333333333334</ele><time>2026-04-25T10:36:20Z</time></trkpt><trkpt lat="45.57913770214328" lon="11.156559253729341"><ele>648.6666666666666</ele><time>2026-04-25T10:36:21Z</time></trkpt><trkpt lat="45.57904604341551" lon="11.156520735416146"><ele>652.0</ele><time>2026-04-25T10:36:22Z</time></trkpt><trkpt lat="45.57897801957984" lon="11.156474274219581"><ele>655.3333333333333</ele><time>2026-04-25T10:36:23Z</time></trkpt><trkpt lat="45.57891573479133" lon="11.156436435617525"><ele>658.6666666666666</ele><time>2026-04-25T10:36:24Z</time></trkpt><trkpt lat="45.57880654232427" lon="11.156397022305821"><ele>662.0</ele><time>2026-04-25T10:36:26Z</time></trkpt><trkpt lat="45.57870922451374" lon="11.156413603213297"><ele>661.6666666666666</ele><time>2026-04-25T10:36:28Z</time></trkpt><trkpt lat="45.57864599940109" lon="11.156424656540556"><ele>661.3333333333333</ele><time>2026-04-25T10:36:32Z</time></trkpt><trkpt lat="45.578603443274126" lon="11.156498822207345"><ele>661.0</ele><time>2026-04-25T10:36:34Z</time></trkpt><trkpt lat="45.578563954058325" lon="11.156586030569123"><ele>660.6666666666666</ele><time>2026-04-25T10:36:35Z</time></trkpt><trkpt lat="45.57848463119765" lon="11.156635960491009"><ele>660.3333333333334</ele><time>2026-04-25T10:36:49Z</time></trkpt><trkpt lat="45.57842137328226" lon="11.15675981915478"><ele>660.0</ele><time>2026-04-25T10:36:51Z</time></trkpt><trkpt lat="45.57830693657133" lon="11.156832674968763"><ele>660.0</ele><time>2026-04-25T10:36:53Z</time></trkpt><trkpt lat="45.578223660076574" lon="11.156841710699537"><ele>660.0</ele><time>2026-04-25T10:36:54Z</time></trkpt><trkpt lat="45.5780998040852" lon="11.156852606238337"><ele>660.0</ele><time>2026-04-25T10:36:56Z</time></trkpt><trkpt lat="45.57805484377733" lon="11.156958665528744"><ele>660.0</ele><time>2026-04-25T10:36:58Z</time></trkpt><trkpt lat="45.57797591425673" lon="11.157111518117611"><ele>660.0</ele><time>2026-04-25T10:37:00Z</time></trkpt><trkpt lat="45.577929649010166" lon="11.157178507210151"><ele>660.0</ele><time>2026-04-25T10:37:01Z</time></trkpt><trkpt lat="45.577893050387665" lon="11.157295790284023"><ele>660.0</ele><time>2026-04-25T10:37:04Z</time></trkpt><trkpt lat="45.57783634794178" lon="11.157421943593032"><ele>660.0</ele><time>2026-04-25T10:37:06Z</time></trkpt><trkpt lat="45.57779769941763" lon="11.157519749535352"><ele>660.0</ele><time>2026-04-25T10:37:07Z</time></trkpt><trkpt lat="45.57775266794229" lon="11.157621719675896"><ele>660.0</ele><time>2026-04-25T10:37:08Z</time></trkpt><trkpt lat="45.57770731113204" lon="11.157701261513347"><ele>660.0</ele><time>2026-04-25T10:37:09Z</time></trkpt><trkpt lat="45.57767396804639" lon="11.157807201010039"><ele>660.1666666666666</ele><time>2026-04-25T10:37:11Z</time></trkpt><trkpt lat="45.57764556733635" lon="11.157890408853309"><ele>660.3333333333334</ele><time>2026-04-25T10:37:12Z</time></trkpt><trkpt lat="45.577574854552836" lon="11.15799805023851"><ele>660.5</ele><time>2026-04-25T10:37:14Z</time></trkpt><trkpt lat="45.57751154219412" lon="11.158066447150505"><ele>660.6666666666667</ele><time>2026-04-25T10:37:15Z</time></trkpt><trkpt lat="45.57745469150808" lon="11.158159754445306"><ele>660.8333333333334</ele><time>2026-04-25T10:37:16Z</time></trkpt><trkpt lat="45.57741168380335" lon="11.158243115507998"><ele>661.0</ele><time>2026-04-25T10:37:18Z</time></trkpt><trkpt lat="45.577295404604165" lon="11.158336446338792"><ele>661.0</ele><time>2026-04-25T10:37:20Z</time></trkpt><trkpt lat="45.57720340468544" lon="11.158375072005574"><ele>661.0</ele><time>2026-04-25T10:37:22Z</time></trkpt><trkpt lat="45.577128176561224" lon="11.158246858848413"><ele>661.0</ele><time>2026-04-25T10:37:23.999Z</time></trkpt><trkpt lat="45.57707768339152" lon="11.158141777141795"><ele>661.0</ele><time>2026-04-25T10:37:24.999Z</time></trkpt><trkpt lat="45.57701072224745" lon="11.158040190109523"><ele>661.0</ele><time>2026-04-25T10:37:25.999Z</time></trkpt><trkpt lat="45.576958778637746" lon="11.157968757719058"><ele>659.4</ele><time>2026-04-25T10:37:26.999Z</time></trkpt><trkpt lat="45.57687931134889" lon="11.157863563624796"><ele>657.8</ele><time>2026-04-25T10:37:28.999Z</time></trkpt><trkpt lat="45.57675369412932" lon="11.157806066149528"><ele>656.1999999999999</ele><time>2026-04-25T10:37:30.999Z</time></trkpt><trkpt lat="45.57665803521494" lon="11.157811668807186"><ele>654.5999999999999</ele><time>2026-04-25T10:37:32.999Z</time></trkpt><trkpt lat="45.57658541231909" lon="11.157760674691797"><ele>653.0</ele><time>2026-04-25T10:37:34.999Z</time></trkpt><trkpt lat="45.57649867511351" lon="11.157656845093669"><ele>653.0</ele><time>2026-04-25T10:37:35.999Z</time></trkpt><trkpt lat="45.57643387949296" lon="11.157568579226515"><ele>653.0</ele><time>2026-04-25T10:37:36.999Z</time></trkpt><trkpt lat="45.57635624845534" lon="11.157512095778834"><ele>653.0</ele><time>2026-04-25T10:37:37.999Z</time></trkpt><trkpt lat="45.576209555651026" lon="11.15749354099562"><ele>653.0</ele><time>2026-04-25T10:37:39.999Z</time></trkpt><trkpt lat="45.57612164177234" lon="11.15748516496981"><ele>653.0</ele><time>2026-04-25T10:37:40.999Z</time></trkpt><trkpt lat="45.576042148513466" lon="11.157489378154615"><ele>655.5999999999999</ele><time>2026-04-25T10:37:41.999Z</time></trkpt><trkpt lat="45.57592632435883" lon="11.157462418677994"><ele>658.1999999999999</ele><time>2026-04-25T10:37:43.999Z</time></trkpt><trkpt lat="45.57584006425469" lon="11.157389877885825"><ele>660.8</ele><time>2026-04-25T10:37:44.999Z</time></trkpt><trkpt lat="45.57574979960572" lon="11.15733962678015"><ele>663.4</ele><time>2026-04-25T10:37:45.999Z</time></trkpt><trkpt lat="45.575684074778444" lon="11.157305134875172"><ele>666.0</ele><time>2026-04-25T10:37:46.999Z</time></trkpt><trkpt lat="45.57560984814455" lon="11.15727098030397"><ele>660.8333333333334</ele><time>2026-04-25T10:37:47.999Z</time></trkpt><trkpt lat="45.57548029949291" lon="11.157261100162078"><ele>655.6666666666666</ele><time>2026-04-25T10:37:49.999Z</time></trkpt><trkpt lat="45.57539437129311" lon="11.15728172015688"><ele>650.5</ele><time>2026-04-25T10:37:51Z</time></trkpt><trkpt lat="45.57532010532389" lon="11.157287522484276"><ele>645.3333333333333</ele><time>2026-04-25T10:37:52Z</time></trkpt><trkpt lat="45.57525656044499" lon="11.157254792623496"><ele>640.1666666666666</ele><time>2026-04-25T10:37:53Z</time></trkpt><trkpt lat="45.57518651250214" lon="11.157216581262949"><ele>635.0</ele><time>2026-04-25T10:37:54Z</time></trkpt><trkpt lat="45.57510820661125" lon="11.157190436895526"><ele>634.4</ele><time>2026-04-25T10:37:55Z</time></trkpt><trkpt lat="45.57502200579635" lon="11.157168689229438"><ele>633.8</ele><time>2026-04-25T10:37:56Z</time></trkpt><trkpt lat="45.57490992214743" lon="11.15713812889473"><ele>633.2</ele><time>2026-04-25T10:37:57Z</time></trkpt><trkpt lat="45.5747942579372" lon="11.157110484591417"><ele>632.6</ele><time>2026-04-25T10:37:58Z</time></trkpt><trkpt lat="45.57470015353465" lon="11.157069823287491"><ele>632.0</ele><time>2026-04-25T10:37:59Z</time></trkpt><trkpt lat="45.57459971465176" lon="11.15704440591444"><ele>632.4</ele><time>2026-04-25T10:38:00Z</time></trkpt><trkpt lat="45.57452088558059" lon="11.15704365553138"><ele>632.8000000000001</ele><time>2026-04-25T10:38:01Z</time></trkpt><trkpt lat="45.574434604707825" lon="11.157020269844597"><ele>633.2</ele><time>2026-04-25T10:38:02Z</time></trkpt><trkpt lat="45.574339284388685" lon="11.15700006962675"><ele>633.6</ele><time>2026-04-25T10:38:03Z</time></trkpt><trkpt lat="45.57424156752325" lon="11.15697159874106"><ele>634.0</ele><time>2026-04-25T10:38:04Z</time></trkpt><trkpt lat="45.5741499293538" lon="11.156920149668089"><ele>634.0</ele><time>2026-04-25T10:38:05Z</time></trkpt><trkpt lat="45.57406740459656" lon="11.156795356761373"><ele>634.0</ele><time>2026-04-25T10:38:06Z</time></trkpt><trkpt lat="45.57395736993116" lon="11.156757641524667"><ele>634.0</ele><time>2026-04-25T10:38:07Z</time></trkpt><trkpt lat="45.57385709117073" lon="11.156702044169853"><ele>634.0</ele><time>2026-04-25T10:38:08Z</time></trkpt><trkpt lat="45.573765142014274" lon="11.15663399245704"><ele>634.0</ele><time>2026-04-25T10:38:09Z</time></trkpt><trkpt lat="45.57369867216499" lon="11.156601136795969"><ele>629.8333333333334</ele><time>2026-04-25T10:38:10Z</time></trkpt><trkpt lat="45.57359314030263" lon="11.156509519343931"><ele>625.6666666666667</ele><time>2026-04-25T10:38:12Z</time></trkpt><trkpt lat="45.573532700095456" lon="11.156442253345055"><ele>621.5</ele><time>2026-04-25T10:38:13Z</time></trkpt><trkpt lat="45.57347301459249" lon="11.156376714046795"><ele>617.3333333333334</ele><time>2026-04-25T10:38:14Z</time></trkpt><trkpt lat="45.573415926304044" lon="11.156297689003896"><ele>613.1666666666666</ele><time>2026-04-25T10:38:16Z</time></trkpt><trkpt lat="45.573333568512865" lon="11.156246605813239"><ele>609.0</ele><time>2026-04-25T10:38:18Z</time></trkpt><trkpt lat="45.573448312826756" lon="11.156224396437542"><ele>609.0</ele><time>2026-04-25T10:38:24Z</time></trkpt><trkpt lat="45.57354445553647" lon="11.156299992462435"><ele>609.0</ele><time>2026-04-25T10:38:26Z</time></trkpt><trkpt lat="45.57366767507114" lon="11.15633739807963"><ele>609.0</ele><time>2026-04-25T10:38:28Z</time></trkpt><trkpt lat="45.57377421245326" lon="11.156341774210974"><ele>609.0</ele><time>2026-04-25T10:38:30Z</time></trkpt><trkpt lat="45.57388687643053" lon="11.156288670824372"><ele>606.8333333333334</ele><time>2026-04-25T10:38:32Z</time></trkpt><trkpt lat="45.57400448442099" lon="11.156242032561394"><ele>604.6666666666666</ele><time>2026-04-25T10:38:34Z</time></trkpt><trkpt lat="45.57407251365853" lon="11.156233947744791"><ele>602.5</ele><time>2026-04-25T10:38:35Z</time></trkpt><trkpt lat="45.574140066176675" lon="11.156238256970822"><ele>600.3333333333333</ele><time>2026-04-25T10:38:36Z</time></trkpt><trkpt lat="45.574211676727195" lon="11.15625665867463"><ele>598.1666666666666</ele><time>2026-04-25T10:38:37Z</time></trkpt><trkpt lat="45.57427964686919" lon="11.15626261446364"><ele>596.0</ele><time>2026-04-25T10:38:38Z</time></trkpt><trkpt lat="45.574376188456455" lon="11.156208472709391"><ele>596.0</ele><time>2026-04-25T10:38:40Z</time></trkpt><trkpt lat="45.574480676447074" lon="11.156150532655337"><ele>596.0</ele><time>2026-04-25T10:38:42Z</time></trkpt><trkpt lat="45.57458766141289" lon="11.156092321938543"><ele>596.0</ele><time>2026-04-25T10:38:44Z</time></trkpt><trkpt lat="45.574526403703885" lon="11.156028764832577"><ele>596.0</ele><time>2026-04-25T10:38:53Z</time></trkpt><trkpt lat="45.574442453309075" lon="11.156015218035128"><ele>596.0</ele><time>2026-04-25T10:38:55Z</time></trkpt><trkpt lat="45.57438007747474" lon="11.156000607593288"><ele>596.0</ele><time>2026-04-25T10:38:56Z</time></trkpt><trkpt lat="45.57429338060475" lon="11.155904898653372"><ele>596.0</ele><time>2026-04-25T10:38:58Z</time></trkpt><trkpt lat="45.57420472154073" lon="11.155850843489004"><ele>596.0</ele><time>2026-04-25T10:39:00Z</time></trkpt><trkpt lat="45.574091648826695" lon="11.155801837307205"><ele>596.0</ele><time>2026-04-25T10:39:03Z</time></trkpt><trkpt lat="45.57402900047184" lon="11.155784234656227"><ele>596.0</ele><time>2026-04-25T10:39:04Z</time></trkpt><trkpt lat="45.57396436517536" lon="11.155777487691529"><ele>588.6</ele><time>2026-04-25T10:39:05Z</time></trkpt><trkpt lat="45.57396004591912" lon="11.155669203048804"><ele>581.2</ele><time>2026-04-25T10:39:08Z</time></trkpt><trkpt lat="45.5740416308657" lon="11.155686796777472"><ele>573.8</ele><time>2026-04-25T10:39:11Z</time></trkpt><trkpt lat="45.57415575061597" lon="11.155625096412905"><ele>566.4</ele><time>2026-04-25T10:39:13Z</time></trkpt><trkpt lat="45.5742336923152" lon="11.155595042115632"><ele>559.0</ele><time>2026-04-25T10:39:14Z</time></trkpt><trkpt lat="45.57434881283542" lon="11.155574618506185"><ele>559.0</ele><time>2026-04-25T10:39:15.999Z</time></trkpt><trkpt lat="45.57444540426793" lon="11.155530755008373"><ele>559.0</ele><time>2026-04-25T10:39:17.999Z</time></trkpt><trkpt lat="45.57456638076986" lon="11.155490198536915"><ele>559.0</ele><time>2026-04-25T10:39:19.999Z</time></trkpt><trkpt lat="45.574653782767456" lon="11.155423614342956"><ele>559.0</ele><time>2026-04-25T10:39:21.999Z</time></trkpt><trkpt lat="45.57471325601273" lon="11.15538179162616"><ele>559.0</ele><time>2026-04-25T10:39:22.999Z</time></trkpt><trkpt lat="45.574776232097555" lon="11.155351171864444"><ele>558.8</ele><time>2026-04-25T10:39:23.999Z</time></trkpt><trkpt lat="45.57486058073954" lon="11.155271249453273"><ele>558.5999999999999</ele><time>2026-04-25T10:39:25.999Z</time></trkpt><trkpt lat="45.57492340865564" lon="11.155233894297096"><ele>558.4</ele><time>2026-04-25T10:39:26.999Z</time></trkpt><trkpt lat="45.574990697548856" lon="11.155212902941035"><ele>558.1999999999999</ele><time>2026-04-25T10:39:27.999Z</time></trkpt><trkpt lat="45.57509407885464" lon="11.155174384090504"><ele>558.0</ele><time>2026-04-25T10:39:29.999Z</time></trkpt><trkpt lat="45.57514594088338" lon="11.15504265689532"><ele>558.0</ele><time>2026-04-25T10:39:32.999Z</time></trkpt><trkpt lat="45.575235305652015" lon="11.154936405858056"><ele>558.0</ele><time>2026-04-25T10:39:34.999Z</time></trkpt><trkpt lat="45.575319161362955" lon="11.154906160702861"><ele>558.0</ele><time>2026-04-25T10:39:35.999Z</time></trkpt><trkpt lat="45.57539325449732" lon="11.154874266734021"><ele>558.0</ele><time>2026-04-25T10:39:36.999Z</time></trkpt><trkpt lat="45.575464521380255" lon="11.154849310324199"><ele>558.0</ele><time>2026-04-25T10:39:37.999Z</time></trkpt><trkpt lat="45.57552640224015" lon="11.15482000624752"><ele>558.0</ele><time>2026-04-25T10:39:38.999Z</time></trkpt><trkpt lat="45.575586026752" lon="11.154776845461022"><ele>553.6666666666666</ele><time>2026-04-25T10:39:39.999Z</time></trkpt><trkpt lat="45.57564983862377" lon="11.154774218028637"><ele>549.3333333333334</ele><time>2026-04-25T10:39:41.999Z</time></trkpt><trkpt lat="45.57565523965835" lon="11.154659378914461"><ele>545.0</ele><time>2026-04-25T10:39:43.999Z</time></trkpt><trkpt lat="45.575662273546115" lon="11.15452542093043"><ele>540.6666666666667</ele><time>2026-04-25T10:39:44.999Z</time></trkpt><trkpt lat="45.575670244027286" lon="11.154422738873606"><ele>536.3333333333334</ele><time>2026-04-25T10:39:45.999Z</time></trkpt><trkpt lat="45.575661434924456" lon="11.154312394314662"><ele>532.0</ele><time>2026-04-25T10:39:47.999Z</time></trkpt><trkpt lat="45.5757273215269" lon="11.154331121001004"><ele>532.0</ele><time>2026-04-25T10:39:51.999Z</time></trkpt><trkpt lat="45.57577588546272" lon="11.154395581661229"><ele>532.0</ele><time>2026-04-25T10:39:54.999Z</time></trkpt><trkpt lat="45.57580603076958" lon="11.154498258803427"><ele>532.0</ele><time>2026-04-25T10:39:59Z</time></trkpt><trkpt lat="45.57590831924969" lon="11.154511502551586"><ele>532.0</ele><time>2026-04-25T10:40:02Z</time></trkpt><trkpt lat="45.575968532886826" lon="11.154569438379495"><ele>532.0</ele><time>2026-04-25T10:40:06Z</time></trkpt><trkpt lat="45.576062142229844" lon="11.154547239453597"><ele>532.0</ele><time>2026-04-25T10:40:08Z</time></trkpt><trkpt lat="45.57612986868426" lon="11.154550136095322"><ele>530.5</ele><time>2026-04-25T10:40:10Z</time></trkpt><trkpt lat="45.57620827528368" lon="11.15453009547142"><ele>529.0</ele><time>2026-04-25T10:40:12Z</time></trkpt><trkpt lat="45.576296822795506" lon="11.154539484494354"><ele>527.5</ele><time>2026-04-25T10:40:14Z</time></trkpt><trkpt lat="45.57637142718325" lon="11.15448784140212"><ele>526.0</ele><time>2026-04-25T10:40:16Z</time></trkpt><trkpt lat="45.5764423214868" lon="11.154422088688118"><ele>524.5</ele><time>2026-04-25T10:40:18Z</time></trkpt><trkpt lat="45.57652105684816" lon="11.154376886499138"><ele>523.0</ele><time>2026-04-25T10:40:21Z</time></trkpt><trkpt lat="45.57658163245793" lon="11.15433103869828"><ele>523.0</ele><time>2026-04-25T10:40:23Z</time></trkpt><trkpt lat="45.57664819356813" lon="11.15429009128208"><ele>523.0</ele><time>2026-04-25T10:40:26Z</time></trkpt><trkpt lat="45.57671876519787" lon="11.154224817813978"><ele>523.0</ele><time>2026-04-25T10:40:29Z</time></trkpt><trkpt lat="45.57678808562979" lon="11.154164908101851"><ele>523.0</ele><time>2026-04-25T10:40:32Z</time></trkpt><trkpt lat="45.57682904123931" lon="11.15409268212058"><ele>523.0</ele><time>2026-04-25T10:40:34Z</time></trkpt><trkpt lat="45.5768334224338" lon="11.15396906254631"><ele>523.0</ele><time>2026-04-25T10:40:37Z</time></trkpt><trkpt lat="45.57677038202801" lon="11.153946676500423"><ele>519.5</ele><time>2026-04-25T10:40:39Z</time></trkpt><trkpt lat="45.576682980561024" lon="11.153963870795268"><ele>516.0</ele><time>2026-04-25T10:40:42Z</time></trkpt><trkpt lat="45.57660963349549" lon="11.15392733460908"><ele>512.5</ele><time>2026-04-25T10:40:45Z</time></trkpt><trkpt lat="45.57659913521937" lon="11.15380436366586"><ele>509.0</ele><time>2026-04-25T10:40:48Z</time></trkpt><trkpt lat="45.57660112579639" lon="11.153699920852588"><ele>505.50000000000006</ele><time>2026-04-25T10:40:52Z</time></trkpt><trkpt lat="45.576616681664916" lon="11.153611077221354"><ele>502.0</ele><time>2026-04-25T10:40:56Z</time></trkpt><trkpt lat="45.57665586888657" lon="11.153538760711339"><ele>502.0</ele><time>2026-04-25T10:41:04Z</time></trkpt><trkpt lat="45.57663609608077" lon="11.15332837729441"><ele>502.0</ele><time>2026-04-25T10:41:06Z</time></trkpt><trkpt lat="45.576612898240974" lon="11.153189795585613"><ele>502.0</ele><time>2026-04-25T10:41:07Z</time></trkpt><trkpt lat="45.57657280541684" lon="11.153042343074857"><ele>502.0</ele><time>2026-04-25T10:41:08Z</time></trkpt><trkpt lat="45.57654956613824" lon="11.152899635111023"><ele>499.8</ele><time>2026-04-25T10:41:09Z</time></trkpt><trkpt lat="45.57653188580186" lon="11.152794925215865"><ele>497.6</ele><time>2026-04-25T10:41:10Z</time></trkpt><trkpt lat="45.5765533269225" lon="11.152664579633928"><ele>495.40000000000003</ele><time>2026-04-25T10:41:12Z</time></trkpt><trkpt lat="45.57666633342498" lon="11.152746926263607"><ele>493.20000000000005</ele><time>2026-04-25T10:41:13Z</time></trkpt><trkpt lat="45.57674254279964" lon="11.152799266725767"><ele>491.0</ele><time>2026-04-25T10:41:13.999Z</time></trkpt><trkpt lat="45.576832747538646" lon="11.152837273217385"><ele>491.0</ele><time>2026-04-25T10:41:14.999Z</time></trkpt><trkpt lat="45.57689575478961" lon="11.152848038720352"><ele>491.0</ele><time>2026-04-25T10:41:15.999Z</time></trkpt><trkpt lat="45.57695217418142" lon="11.152793818114356"><ele>491.0</ele><time>2026-04-25T10:41:16.999Z</time></trkpt><trkpt lat="45.57697736992901" lon="11.152661576697339"><ele>491.0</ele><time>2026-04-25T10:41:17.999Z</time></trkpt><trkpt lat="45.57698276407092" lon="11.15248964309216"><ele>491.0</ele><time>2026-04-25T10:41:18.999Z</time></trkpt><trkpt lat="45.577026655999454" lon="11.152292098066871"><ele>486.3333333333333</ele><time>2026-04-25T10:41:19.999Z</time></trkpt><trkpt lat="45.577071344698" lon="11.152070738000546"><ele>481.66666666666663</ele><time>2026-04-25T10:41:20.999Z</time></trkpt><trkpt lat="45.57710689917553" lon="11.151850595117109"><ele>477.0</ele><time>2026-04-25T10:41:21.999Z</time></trkpt><trkpt lat="45.57712394768181" lon="11.151653170678493"><ele>476.20000000000005</ele><time>2026-04-25T10:41:22.999Z</time></trkpt><trkpt lat="45.57713152828789" lon="11.151488572240641"><ele>475.40000000000003</ele><time>2026-04-25T10:41:23.999Z</time></trkpt><trkpt lat="45.577134944102404" lon="11.151368658983216"><ele>474.59999999999997</ele><time>2026-04-25T10:41:24.999Z</time></trkpt><trkpt lat="45.57712410444662" lon="11.151233236093866"><ele>473.79999999999995</ele><time>2026-04-25T10:41:26.999Z</time></trkpt><trkpt lat="45.577103777202126" lon="11.151121444959944"><ele>473.0</ele><time>2026-04-25T10:41:30.999Z</time></trkpt><trkpt lat="45.577029742791154" lon="11.15112851845731"><ele>472.99999999999994</ele><time>2026-04-25T10:43:47.999Z</time></trkpt><trkpt lat="45.57707181287436" lon="11.151226237493441"><ele>473.0</ele><time>2026-04-25T10:43:50.999Z</time></trkpt><trkpt lat="45.57714072799182" lon="11.151209935369554"><ele>473.0</ele><time>2026-04-25T10:43:52.999Z</time></trkpt><trkpt lat="45.577179535816505" lon="11.151107400558143"><ele>473.0</ele><time>2026-04-25T10:43:57.999Z</time></trkpt><trkpt lat="45.57717156787044" lon="11.15098822161831"><ele>472.99999999999994</ele><time>2026-04-25T10:43:59.999Z</time></trkpt><trkpt lat="45.57716010244554" lon="11.150861557247755"><ele>473.0</ele><time>2026-04-25T10:44:01.999Z</time></trkpt><trkpt lat="45.57711906780547" lon="11.150726323087833"><ele>472.4</ele><time>2026-04-25T10:44:03.999Z</time></trkpt><trkpt lat="45.57708025125657" lon="11.150577660225258"><ele>471.79999999999995</ele><time>2026-04-25T10:44:05.999Z</time></trkpt><trkpt lat="45.57704881146284" lon="11.15041765322529"><ele>471.2</ele><time>2026-04-25T10:44:07.999Z</time></trkpt><trkpt lat="45.57702863432871" lon="11.150329658446159"><ele>470.6</ele><time>2026-04-25T10:44:09Z</time></trkpt><trkpt lat="45.57699687785991" lon="11.150187220260372"><ele>470.0</ele><time>2026-04-25T10:44:11Z</time></trkpt><trkpt lat="45.576995605429474" lon="11.150050726108404"><ele>469.4</ele><time>2026-04-25T10:44:13Z</time></trkpt><trkpt lat="45.576978935345835" lon="11.149954824668262"><ele>468.8</ele><time>2026-04-25T10:44:17Z</time></trkpt><trkpt lat="45.576898317341836" lon="11.149885481495701"><ele>468.20000000000005</ele><time>2026-04-25T10:44:20Z</time></trkpt><trkpt lat="45.57682740478544" lon="11.149884217713122"><ele>467.6</ele><time>2026-04-25T10:44:22Z</time></trkpt><trkpt lat="45.57672452106693" lon="11.149935480803517"><ele>467.0</ele><time>2026-04-25T10:44:24Z</time></trkpt><trkpt lat="45.57659794587129" lon="11.149973442655625"><ele>467.0</ele><time>2026-04-25T10:44:26Z</time></trkpt><trkpt lat="45.57646348194287" lon="11.150009429654748"><ele>467.0</ele><time>2026-04-25T10:44:28Z</time></trkpt><trkpt lat="45.576367109424886" lon="11.150051116833806"><ele>467.0</ele><time>2026-04-25T10:44:29Z</time></trkpt><trkpt lat="45.57627653048727" lon="11.150097469084935"><ele>467.0</ele><time>2026-04-25T10:44:30Z</time></trkpt><trkpt lat="45.5761650064115" lon="11.150160708576268"><ele>466.40000000000003</ele><time>2026-04-25T10:44:31Z</time></trkpt><trkpt lat="45.576056781252255" lon="11.150205947133438"><ele>465.80000000000007</ele><time>2026-04-25T10:44:32Z</time></trkpt><trkpt lat="45.57593472485715" lon="11.150253758448091"><ele>465.2</ele><time>2026-04-25T10:44:33Z</time></trkpt><trkpt lat="45.57582685993096" lon="11.150293961637631"><ele>464.6</ele><time>2026-04-25T10:44:34Z</time></trkpt><trkpt lat="45.57573698952959" lon="11.150326807855217"><ele>464.0</ele><time>2026-04-25T10:44:35Z</time></trkpt><trkpt lat="45.5756650535892" lon="11.150337168831635"><ele>464.0</ele><time>2026-04-25T10:44:36Z</time></trkpt><trkpt lat="45.57558699202227" lon="11.150343326318803"><ele>464.0</ele><time>2026-04-25T10:44:37Z</time></trkpt><trkpt lat="45.57550494056641" lon="11.150334494513038"><ele>464.0</ele><time>2026-04-25T10:44:38Z</time></trkpt><trkpt lat="45.57543154249573" lon="11.150320738774512"><ele>464.0</ele><time>2026-04-25T10:44:39Z</time></trkpt><trkpt lat="45.57532431623804" lon="11.150309501673595"><ele>464.0</ele><time>2026-04-25T10:44:41Z</time></trkpt><trkpt lat="45.575212518533064" lon="11.15021272929612"><ele>463.99999999999994</ele><time>2026-04-25T10:44:43Z</time></trkpt><trkpt lat="45.575148562124255" lon="11.150118109272992"><ele>464.0</ele><time>2026-04-25T10:44:45Z</time></trkpt><trkpt lat="45.57505884901131" lon="11.150138902447576"><ele>464.0</ele><time>2026-04-25T10:44:49Z</time></trkpt><trkpt lat="45.574996501972116" lon="11.150182632899885"><ele>464.0</ele><time>2026-04-25T10:44:51Z</time></trkpt><trkpt lat="45.57492264980435" lon="11.150222456771207"><ele>463.99999999999994</ele><time>2026-04-25T10:44:53Z</time></trkpt><trkpt lat="45.57483901681126" lon="11.150240586956096"><ele>464.0</ele><time>2026-04-25T10:44:55Z</time></trkpt><trkpt lat="45.574750328303054" lon="11.150265193211208"><ele>464.0</ele><time>2026-04-25T10:44:57Z</time></trkpt><trkpt lat="45.57465295434252" lon="11.150284171874292"><ele>464.0</ele><time>2026-04-25T10:44:59Z</time></trkpt><trkpt lat="45.57455386184818" lon="11.150298514647098"><ele>464.0</ele><time>2026-04-25T10:45:01Z</time></trkpt><trkpt lat="45.574429578093316" lon="11.150323763750182"><ele>464.0</ele><time>2026-04-25T10:45:03Z</time></trkpt><trkpt lat="45.574309174484725" lon="11.150303466143736"><ele>464.0</ele><time>2026-04-25T10:45:05Z</time></trkpt><trkpt lat="45.574241686399255" lon="11.150287346234524"><ele>463.7142857142858</ele><time>2026-04-25T10:45:06Z</time></trkpt><trkpt lat="45.574175676750194" lon="11.150272401899505"><ele>463.42857142857144</ele><time>2026-04-25T10:45:07Z</time></trkpt><trkpt lat="45.57410765005338" lon="11.150267817304707"><ele>463.14285714285717</ele><time>2026-04-25T10:45:08Z</time></trkpt><trkpt lat="45.57403409353039" lon="11.15026596555112"><ele>462.8571428571429</ele><time>2026-04-25T10:45:09Z</time></trkpt><trkpt lat="45.57396355874125" lon="11.1502762043749"><ele>462.57142857142856</ele><time>2026-04-25T10:45:10Z</time></trkpt><trkpt lat="45.573886344054195" lon="11.150293936926232"><ele>462.2857142857143</ele><time>2026-04-25T10:45:11Z</time></trkpt><trkpt lat="45.57380296213038" lon="11.150309892067016"><ele>462.0</ele><time>2026-04-25T10:45:12Z</time></trkpt><trkpt lat="45.573711029049804" lon="11.150324139418"><ele>462.0</ele><time>2026-04-25T10:45:13Z</time></trkpt><trkpt lat="45.57361226668348" lon="11.150328866717114"><ele>462.00000000000006</ele><time>2026-04-25T10:45:14Z</time></trkpt><trkpt lat="45.573509612078475" lon="11.150341559591292"><ele>462.00000000000006</ele><time>2026-04-25T10:45:15Z</time></trkpt><trkpt lat="45.57340735573384" lon="11.150373211429935"><ele>462.0</ele><time>2026-04-25T10:45:16Z</time></trkpt><trkpt lat="45.573316645484425" lon="11.150412366702145"><ele>462.0</ele><time>2026-04-25T10:45:17Z</time></trkpt><trkpt lat="45.573231142398136" lon="11.150459057796041"><ele>462.0</ele><time>2026-04-25T10:45:18Z</time></trkpt><trkpt lat="45.573147494426586" lon="11.150507481403267"><ele>462.00000000000006</ele><time>2026-04-25T10:45:19Z</time></trkpt><trkpt lat="45.57304684517287" lon="11.150558337496195"><ele>462.00000000000006</ele><time>2026-04-25T10:45:19.999Z</time></trkpt><trkpt lat="45.572940795543985" lon="11.15060033872689"><ele>462.0</ele><time>2026-04-25T10:45:20.999Z</time></trkpt><trkpt lat="45.572843254485875" lon="11.15063124784238"><ele>462.0</ele><time>2026-04-25T10:45:21.999Z</time></trkpt><trkpt lat="45.57277850191648" lon="11.150645015925093"><ele>462.0</ele><time>2026-04-25T10:45:22.999Z</time></trkpt><trkpt lat="45.572710694328734" lon="11.15068632568955"><ele>462.0</ele><time>2026-04-25T10:46:05.999Z</time></trkpt><trkpt lat="45.572643292223304" lon="11.150733239554567"><ele>462.0</ele><time>2026-04-25T10:46:17Z</time></trkpt><trkpt lat="45.572710878144385" lon="11.150725102923316"><ele>462.0</ele><time>2026-04-25T10:46:26Z</time></trkpt><trkpt lat="45.57281995769555" lon="11.150668257544687"><ele>462.0</ele><time>2026-04-25T10:46:28Z</time></trkpt><trkpt lat="45.57288249547438" lon="11.150637972248163"><ele>462.0</ele><time>2026-04-25T10:46:29Z</time></trkpt><trkpt lat="45.57298892347717" lon="11.150585593425125"><ele>462.0</ele><time>2026-04-25T10:46:30Z</time></trkpt><trkpt lat="45.57313607077328" lon="11.150538022608616"><ele>462.00000000000006</ele><time>2026-04-25T10:46:31Z</time></trkpt><trkpt lat="45.57322944799424" lon="11.150493566370107"><ele>462.00000000000006</ele><time>2026-04-25T10:46:32Z</time></trkpt><trkpt lat="45.57332676702797" lon="11.150449081338634"><ele>462.0</ele><time>2026-04-25T10:46:33Z</time></trkpt><trkpt lat="45.573410570467736" lon="11.150416560874994"><ele>462.0</ele><time>2026-04-25T10:46:34Z</time></trkpt><trkpt lat="45.57347974787557" lon="11.150396931882902"><ele>462.0</ele><time>2026-04-25T10:46:35Z</time></trkpt><trkpt lat="45.57354227914163" lon="11.150382603003125"><ele>462.0</ele><time>2026-04-25T10:46:36Z</time></trkpt><trkpt lat="45.57361097729295" lon="11.150370868374221"><ele>462.0</ele><time>2026-04-25T10:46:38Z</time></trkpt><trkpt lat="45.57353722976924" lon="11.150105552013635"><ele>462.0</ele><time>2026-04-25T10:46:42Z</time></trkpt><trkpt lat="45.573426680964246" lon="11.150175506164842"><ele>462.0</ele><time>2026-04-25T10:46:44Z</time></trkpt><trkpt lat="45.573353994076285" lon="11.150221820090565"><ele>462.00000000000006</ele><time>2026-04-25T10:46:45Z</time></trkpt><trkpt lat="45.5732640679129" lon="11.150256360276575"><ele>462.00000000000006</ele><time>2026-04-25T10:46:46Z</time></trkpt><trkpt lat="45.573200760005236" lon="11.15043225704103"><ele>462.0</ele><time>2026-04-25T10:46:47Z</time></trkpt><trkpt lat="45.57311251677599" lon="11.150474269021082"><ele>462.0</ele><time>2026-04-25T10:46:48Z</time></trkpt><trkpt lat="45.57303443130071" lon="11.150511444897235"><ele>462.0</ele><time>2026-04-25T10:46:49Z</time></trkpt><trkpt lat="45.57296021114718" lon="11.150546780567227"><ele>462.00000000000006</ele><time>2026-04-25T10:46:50Z</time></trkpt><trkpt lat="45.57288087545225" lon="11.150585599936237"><ele>462.00000000000006</ele><time>2026-04-25T10:46:51Z</time></trkpt><trkpt lat="45.572785214002145" lon="11.15063337496075"><ele>462.0</ele><time>2026-04-25T10:46:52Z</time></trkpt><trkpt lat="45.57268909105363" lon="11.150679893815981"><ele>462.0</ele><time>2026-04-25T10:46:53Z</time></trkpt><trkpt lat="45.57259908486183" lon="11.150720220987308"><ele>461.0</ele><time>2026-04-25T10:46:54Z</time></trkpt><trkpt lat="45.57251292681923" lon="11.150758040922733"><ele>460.00000000000006</ele><time>2026-04-25T10:46:55Z</time></trkpt><trkpt lat="45.5724168161034" lon="11.150797799669768"><ele>459.00000000000006</ele><time>2026-04-25T10:46:56Z</time></trkpt><trkpt lat="45.572329592805936" lon="11.150829658344243"><ele>458.0</ele><time>2026-04-25T10:46:57Z</time></trkpt><trkpt lat="45.57224031266236" lon="11.150853735845322"><ele>457.0</ele><time>2026-04-25T10:46:58Z</time></trkpt><trkpt lat="45.5721400294435" lon="11.150879203783106"><ele>457.00000000000006</ele><time>2026-04-25T10:46:59Z</time></trkpt><trkpt lat="45.57206834233121" lon="11.150892565787673"><ele>457.0</ele><time>2026-04-25T10:46:59.999Z</time></trkpt><trkpt lat="45.5719886222057" lon="11.150906448915732"><ele>457.0</ele><time>2026-04-25T10:47:01.999Z</time></trkpt><trkpt lat="45.571921801915444" lon="11.15089069278878"><ele>457.0</ele><time>2026-04-25T10:47:04.999Z</time></trkpt><trkpt lat="45.57182825017298" lon="11.150935602104152"><ele>457.00000000000006</ele><time>2026-04-25T10:47:06.999Z</time></trkpt><trkpt lat="45.57175230434543" lon="11.150941558743094"><ele>457.0</ele><time>2026-04-25T10:47:08.999Z</time></trkpt><trkpt lat="45.571692744414946" lon="11.150970979362796"><ele>457.6666666666667</ele><time>2026-04-25T10:47:09.999Z</time></trkpt><trkpt lat="45.57160852979067" lon="11.151019122400736"><ele>458.33333333333337</ele><time>2026-04-25T10:47:11.999Z</time></trkpt><trkpt lat="45.571452931771354" lon="11.150657788305473"><ele>459.0</ele><time>2026-04-25T10:47:14.999Z</time></trkpt><trkpt lat="45.57142277407242" lon="11.15053654324049"><ele>460.2</ele><time>2026-04-25T10:47:15.999Z</time></trkpt><trkpt lat="45.57140328114304" lon="11.150414605775081"><ele>461.4</ele><time>2026-04-25T10:47:16.999Z</time></trkpt><trkpt lat="45.5713733517948" lon="11.150275622502233"><ele>462.6</ele><time>2026-04-25T10:47:17.999Z</time></trkpt><trkpt lat="45.571342381317045" lon="11.150137606428302"><ele>463.8</ele><time>2026-04-25T10:47:18.999Z</time></trkpt><trkpt lat="45.57132555206416" lon="11.150034378749472"><ele>465.0</ele><time>2026-04-25T10:47:19.999Z</time></trkpt><trkpt lat="45.57126698329856" lon="11.149887476749354"><ele>466.3333333333333</ele><time>2026-04-25T10:47:21.999Z</time></trkpt><trkpt lat="45.57123993208304" lon="11.149805115864519"><ele>467.66666666666663</ele><time>2026-04-25T10:47:22.999Z</time></trkpt><trkpt lat="45.57119088686761" lon="11.149702118309541"><ele>469.0</ele><time>2026-04-25T10:47:24.999Z</time></trkpt><trkpt lat="45.57107708324476" lon="11.149705548780858"><ele>470.3333333333333</ele><time>2026-04-25T10:47:26.999Z</time></trkpt><trkpt lat="45.57105094291724" lon="11.149606101326226"><ele>471.66666666666663</ele><time>2026-04-25T10:47:28.999Z</time></trkpt><trkpt lat="45.57107183993096" lon="11.149507936632743"><ele>473.0</ele><time>2026-04-25T10:47:29.999Z</time></trkpt><trkpt lat="45.57110053383057" lon="11.149388050970275"><ele>472.99999999999994</ele><time>2026-04-25T10:47:30.999Z</time></trkpt><trkpt lat="45.571115757623915" lon="11.149269842448307"><ele>473.0</ele><time>2026-04-25T10:47:31.999Z</time></trkpt><trkpt lat="45.571132657291685" lon="11.149153145213866"><ele>473.0</ele><time>2026-04-25T10:47:32.999Z</time></trkpt><trkpt lat="45.571132003142516" lon="11.149037487398965"><ele>473.0</ele><time>2026-04-25T10:47:33.999Z</time></trkpt><trkpt lat="45.57112418572636" lon="11.148920536774645"><ele>472.99999999999994</ele><time>2026-04-25T10:47:34.999Z</time></trkpt><trkpt lat="45.57109720714572" lon="11.148800635622203"><ele>473.0</ele><time>2026-04-25T10:47:35.999Z</time></trkpt><trkpt lat="45.571046345799616" lon="11.14868879863137"><ele>475.59999999999997</ele><time>2026-04-25T10:47:36.999Z</time></trkpt><trkpt lat="45.570926926833934" lon="11.148645934960918"><ele>478.19999999999993</ele><time>2026-04-25T10:47:38.999Z</time></trkpt><trkpt lat="45.57083194352473" lon="11.148672770051185"><ele>480.8</ele><time>2026-04-25T10:47:39.999Z</time></trkpt><trkpt lat="45.5707726568669" lon="11.148703672317325"><ele>483.4</ele><time>2026-04-25T10:47:40.999Z</time></trkpt><trkpt lat="45.57062805229205" lon="11.148707556168644"><ele>486.0</ele><time>2026-04-25T10:47:42.999Z</time></trkpt><trkpt lat="45.570521509100644" lon="11.148712364408214"><ele>486.0</ele><time>2026-04-25T10:47:43.999Z</time></trkpt><trkpt lat="45.57041432869957" lon="11.148716734173245"><ele>486.0</ele><time>2026-04-25T10:47:44.999Z</time></trkpt><trkpt lat="45.570296740058964" lon="11.148724130499467"><ele>486.0</ele><time>2026-04-25T10:47:45.999Z</time></trkpt><trkpt lat="45.57017134767491" lon="11.148726135093462"><ele>486.0</ele><time>2026-04-25T10:47:46.999Z</time></trkpt><trkpt lat="45.57003118714878" lon="11.148744946262944"><ele>486.25</ele><time>2026-04-25T10:47:47.999Z</time></trkpt><trkpt lat="45.56990042565316" lon="11.148772299811187"><ele>486.5</ele><time>2026-04-25T10:47:48.999Z</time></trkpt><trkpt lat="45.56977828982962" lon="11.148774556757427"><ele>486.75</ele><time>2026-04-25T10:47:49.999Z</time></trkpt><trkpt lat="45.569659105577145" lon="11.148800692054296"><ele>487.0</ele><time>2026-04-25T10:47:50.999Z</time></trkpt><trkpt lat="45.56953814314573" lon="11.148836903360552"><ele>486.25</ele><time>2026-04-25T10:47:51.999Z</time></trkpt><trkpt lat="45.56941524480756" lon="11.148800275850254"><ele>485.5</ele><time>2026-04-25T10:47:52.999Z</time></trkpt><trkpt lat="45.56929158901686" lon="11.148762283263741"><ele>484.75</ele><time>2026-04-25T10:47:53.999Z</time></trkpt><trkpt lat="45.569157171129454" lon="11.148724089638279"><ele>484.0</ele><time>2026-04-25T10:47:54.999Z</time></trkpt><trkpt lat="45.56903050401812" lon="11.14866637314302"><ele>484.0</ele><time>2026-04-25T10:47:55.999Z</time></trkpt><trkpt lat="45.5688932906093" lon="11.148622125787885"><ele>484.0</ele><time>2026-04-25T10:47:56.999Z</time></trkpt><trkpt lat="45.56875135522064" lon="11.148599318688355"><ele>484.0</ele><time>2026-04-25T10:47:57.999Z</time></trkpt><trkpt lat="45.56860923867701" lon="11.148592370809727"><ele>484.0</ele><time>2026-04-25T10:47:58.999Z</time></trkpt><trkpt lat="45.56848023455968" lon="11.148563306717273"><ele>483.25</ele><time>2026-04-25T10:47:59.999Z</time></trkpt><trkpt lat="45.56835914286712" lon="11.148560082485606"><ele>482.5</ele><time>2026-04-25T10:48:00.999Z</time></trkpt><trkpt lat="45.56824436995596" lon="11.148572713149084"><ele>481.75</ele><time>2026-04-25T10:48:01.999Z</time></trkpt><trkpt lat="45.568131878112034" lon="11.14862403848161"><ele>481.0</ele><time>2026-04-25T10:48:02.999Z</time></trkpt><trkpt lat="45.568014437684774" lon="11.148696720449513"><ele>481.0</ele><time>2026-04-25T10:48:03.999Z</time></trkpt><trkpt lat="45.567884291720134" lon="11.148782487440243"><ele>481.0</ele><time>2026-04-25T10:48:04.999Z</time></trkpt><trkpt lat="45.56774755040734" lon="11.148860534791348"><ele>481.0</ele><time>2026-04-25T10:48:05.999Z</time></trkpt><trkpt lat="45.5676222907638" lon="11.14892205884386"><ele>481.0</ele><time>2026-04-25T10:48:06.999Z</time></trkpt><trkpt lat="45.56750236635749" lon="11.148960849316087"><ele>480.25</ele><time>2026-04-25T10:48:07.999Z</time></trkpt><trkpt lat="45.56738591882453" lon="11.148996529490837"><ele>479.5</ele><time>2026-04-25T10:48:08.999Z</time></trkpt><trkpt lat="45.567268227461334" lon="11.149035953681915"><ele>478.75</ele><time>2026-04-25T10:48:09.999Z</time></trkpt><trkpt lat="45.56714720822856" lon="11.149082275128608"><ele>478.0</ele><time>2026-04-25T10:48:10.999Z</time></trkpt><trkpt lat="45.56703934627863" lon="11.14913375342551"><ele>476.25</ele><time>2026-04-25T10:48:11.999Z</time></trkpt><trkpt lat="45.5669418274193" lon="11.149197112627322"><ele>474.5</ele><time>2026-04-25T10:48:12.999Z</time></trkpt><trkpt lat="45.566856119047905" lon="11.14926924945521"><ele>472.75</ele><time>2026-04-25T10:48:13.999Z</time></trkpt><trkpt lat="45.5667600146676" lon="11.149387911237756"><ele>471.0</ele><time>2026-04-25T10:48:14.999Z</time></trkpt><trkpt lat="45.56667075305425" lon="11.149510476803723"><ele>471.0</ele><time>2026-04-25T10:48:15.999Z</time></trkpt><trkpt lat="45.56657289116092" lon="11.149626980861457"><ele>471.0</ele><time>2026-04-25T10:48:16.999Z</time></trkpt><trkpt lat="45.5664739206649" lon="11.149741922626093"><ele>471.0</ele><time>2026-04-25T10:48:17.999Z</time></trkpt><trkpt lat="45.56637737431211" lon="11.149829023042113"><ele>471.0</ele><time>2026-04-25T10:48:18.999Z</time></trkpt><trkpt lat="45.5662646485112" lon="11.149928372389125"><ele>469.25</ele><time>2026-04-25T10:48:19.999Z</time></trkpt><trkpt lat="45.56613880997296" lon="11.150039278593727"><ele>467.5</ele><time>2026-04-25T10:48:20.998Z</time></trkpt><trkpt lat="45.56601779688019" lon="11.150147791044585"><ele>465.75</ele><time>2026-04-25T10:48:21.998Z</time></trkpt><trkpt lat="45.56591735269026" lon="11.150247017339655"><ele>464.0</ele><time>2026-04-25T10:48:22.998Z</time></trkpt><trkpt lat="45.56584549218366" lon="11.150353272677089"><ele>464.0</ele><time>2026-04-25T10:48:23.998Z</time></trkpt><trkpt lat="45.56578489663651" lon="11.150435451985071"><ele>464.0</ele><time>2026-04-25T10:48:24.998Z</time></trkpt><trkpt lat="45.565737055968775" lon="11.150499815633392"><ele>464.0</ele><time>2026-04-25T10:48:25.998Z</time></trkpt><trkpt lat="45.565683624029205" lon="11.150581057908775"><ele>464.0</ele><time>2026-04-25T10:48:27.998Z</time></trkpt><trkpt lat="45.56560786722311" lon="11.150503206232353"><ele>464.0</ele><time>2026-04-25T10:48:28.998Z</time></trkpt><trkpt lat="45.565473364914766" lon="11.150470753752769"><ele>463.99999999999994</ele><time>2026-04-25T10:48:30.998Z</time></trkpt><trkpt lat="45.565388847375154" lon="11.15043026505627"><ele>464.0</ele><time>2026-04-25T10:48:31.998Z</time></trkpt><trkpt lat="45.565296751736554" lon="11.150398480226782"><ele>464.0</ele><time>2026-04-25T10:48:32.998Z</time></trkpt><trkpt lat="45.56523079222428" lon="11.15040226468194"><ele>464.0</ele><time>2026-04-25T10:48:33.998Z</time></trkpt><trkpt lat="45.56532651842784" lon="11.150443865212402"><ele>463.99999999999994</ele><time>2026-04-25T10:48:42.999Z</time></trkpt><trkpt lat="45.56537110722609" lon="11.1503589841278"><ele>464.0</ele><time>2026-04-25T10:48:45.999Z</time></trkpt><trkpt lat="45.56533108737186" lon="11.150217760342255"><ele>463.79999999999995</ele><time>2026-04-25T10:48:47.999Z</time></trkpt><trkpt lat="45.56530179046489" lon="11.15007876956609"><ele>463.59999999999997</ele><time>2026-04-25T10:48:49.999Z</time></trkpt><trkpt lat="45.565235010446564" lon="11.150006456129592"><ele>463.4</ele><time>2026-04-25T10:48:51.999Z</time></trkpt><trkpt lat="45.565158475750614" lon="11.149973816751864"><ele>463.2</ele><time>2026-04-25T10:48:52.999Z</time></trkpt><trkpt lat="45.565094306094146" lon="11.149890687360005"><ele>463.0</ele><time>2026-04-25T10:48:54.999Z</time></trkpt><trkpt lat="45.56497889400048" lon="11.14992242414404"><ele>463.0</ele><time>2026-04-25T10:49:02.999Z</time></trkpt><trkpt lat="45.56489754505663" lon="11.149938429910677"><ele>462.99999999999994</ele><time>2026-04-25T10:49:03.999Z</time></trkpt><trkpt lat="45.5648076218705" lon="11.149956726554628"><ele>462.99999999999994</ele><time>2026-04-25T10:49:04.999Z</time></trkpt><trkpt lat="45.5647002017995" lon="11.149983601485111"><ele>463.0</ele><time>2026-04-25T10:49:05.999Z</time></trkpt><trkpt lat="45.56458652580177" lon="11.1500496606131"><ele>463.0</ele><time>2026-04-25T10:49:06.999Z</time></trkpt><trkpt lat="45.564470983098836" lon="11.150140751406452"><ele>463.0</ele><time>2026-04-25T10:49:07.999Z</time></trkpt><trkpt lat="45.564365602543354" lon="11.150231380545382"><ele>462.99999999999994</ele><time>2026-04-25T10:49:08.999Z</time></trkpt><trkpt lat="45.56426936254426" lon="11.150315478620552"><ele>462.99999999999994</ele><time>2026-04-25T10:49:09.999Z</time></trkpt><trkpt lat="45.56418058791747" lon="11.150391767920823"><ele>463.0</ele><time>2026-04-25T10:49:10.999Z</time></trkpt><trkpt lat="45.564092897462054" lon="11.150451570321664"><ele>463.0</ele><time>2026-04-25T10:49:11.999Z</time></trkpt><trkpt lat="45.56400941824827" lon="11.150523240204288"><ele>463.0</ele><time>2026-04-25T10:49:12.999Z</time></trkpt><trkpt lat="45.563915140649186" lon="11.150563085476277"><ele>462.99999999999994</ele><time>2026-04-25T10:49:13.999Z</time></trkpt><trkpt lat="45.5638107273703" lon="11.150575531567469"><ele>462.99999999999994</ele><time>2026-04-25T10:49:14.999Z</time></trkpt><trkpt lat="45.56370059428709" lon="11.150603657348785"><ele>463.0</ele><time>2026-04-25T10:49:15.999Z</time></trkpt><trkpt lat="45.56359434999977" lon="11.150633684264013"><ele>463.0</ele><time>2026-04-25T10:49:16.999Z</time></trkpt><trkpt lat="45.56350249583394" lon="11.150660430583798"><ele>463.00000000000006</ele><time>2026-04-25T10:49:17.999Z</time></trkpt><trkpt lat="45.56341717381412" lon="11.150685986741813"><ele>463.0</ele><time>2026-04-25T10:49:18.999Z</time></trkpt><trkpt lat="45.563331841098375" lon="11.150713009761672"><ele>463.0</ele><time>2026-04-25T10:49:19.999Z</time></trkpt><trkpt lat="45.56325907189448" lon="11.150731078932447"><ele>463.0</ele><time>2026-04-25T10:49:20.999Z</time></trkpt><trkpt lat="45.56318810583079" lon="11.150789795168372"><ele>463.00000000000006</ele><time>2026-04-25T10:49:21.999Z</time></trkpt><trkpt lat="45.563153447722705" lon="11.150902508340545"><ele>463.0</ele><time>2026-04-25T10:49:22.999Z</time></trkpt><trkpt lat="45.56317420824239" lon="11.15103514498377"><ele>461.59999999999997</ele><time>2026-04-25T10:49:23.999Z</time></trkpt><trkpt lat="45.563191515856076" lon="11.151149856528125"><ele>460.19999999999993</ele><time>2026-04-25T10:49:24.999Z</time></trkpt><trkpt lat="45.563236769702264" lon="11.15131295399847"><ele>458.8</ele><time>2026-04-25T10:49:26.999Z</time></trkpt><trkpt lat="45.56326112442172" lon="11.151454892380485"><ele>457.4</ele><time>2026-04-25T10:49:28.999Z</time></trkpt><trkpt lat="45.56321828141822" lon="11.151351083897314"><ele>456.0</ele><time>2026-04-25T10:51:54.999Z</time></trkpt><trkpt lat="45.563210587801734" lon="11.15122174699219"><ele>456.0</ele><time>2026-04-25T10:51:56.999Z</time></trkpt><trkpt lat="45.56317689826179" lon="11.151100516083089"><ele>456.0</ele><time>2026-04-25T10:51:58.999Z</time></trkpt><trkpt lat="45.56316099625071" lon="11.150963932129214"><ele>456.0</ele><time>2026-04-25T10:52:00.999Z</time></trkpt><trkpt lat="45.56315549156585" lon="11.15084995602251"><ele>456.0</ele><time>2026-04-25T10:52:02.999Z</time></trkpt><trkpt lat="45.56317095275821" lon="11.150752724736952"><ele>456.0</ele><time>2026-04-25T10:52:04.999Z</time></trkpt><trkpt lat="45.5633129476481" lon="11.151328071544553"><ele>456.0</ele><time>2026-04-25T10:52:05.999Z</time></trkpt><trkpt lat="45.56342162431195" lon="11.151360294197094"><ele>456.0</ele><time>2026-04-25T10:52:07.999Z</time></trkpt><trkpt lat="45.563528220385884" lon="11.151394232133653"><ele>456.0</ele><time>2026-04-25T10:52:09.999Z</time></trkpt><trkpt lat="45.56359350832058" lon="11.151394759489445"><ele>456.0</ele><time>2026-04-25T10:52:10.999Z</time></trkpt><trkpt lat="45.563655823364904" lon="11.151434858276113"><ele>456.0</ele><time>2026-04-25T10:52:11.999Z</time></trkpt><trkpt lat="45.56398703286385" lon="11.15145549798291"><ele>456.0</ele><time>2026-04-25T10:52:12.999Z</time></trkpt><trkpt lat="45.56408333088626" lon="11.151424692768531"><ele>456.0</ele><time>2026-04-25T10:52:13.999Z</time></trkpt><trkpt lat="45.56416381483155" lon="11.151395810579455"><ele>456.0</ele><time>2026-04-25T10:52:14.999Z</time></trkpt><trkpt lat="45.56423592400187" lon="11.151369933558813"><ele>456.0</ele><time>2026-04-25T10:52:15.999Z</time></trkpt><trkpt lat="45.56430559600472" lon="11.151345520076621"><ele>456.0</ele><time>2026-04-25T10:52:16.999Z</time></trkpt><trkpt lat="45.56438819071717" lon="11.151317821572745"><ele>456.0</ele><time>2026-04-25T10:52:17.999Z</time></trkpt><trkpt lat="45.56446092472129" lon="11.151242456788635"><ele>456.3333333333333</ele><time>2026-04-25T10:52:18.999Z</time></trkpt><trkpt lat="45.564534602078055" lon="11.151162001316006"><ele>456.66666666666663</ele><time>2026-04-25T10:52:19.999Z</time></trkpt><trkpt lat="45.564603863812756" lon="11.151077789181231"><ele>457.0</ele><time>2026-04-25T10:52:20.999Z</time></trkpt><trkpt lat="45.56466189797759" lon="11.151000296732908"><ele>457.3333333333333</ele><time>2026-04-25T10:52:21.999Z</time></trkpt><trkpt lat="45.564717048630854" lon="11.150919623028663"><ele>457.66666666666663</ele><time>2026-04-25T10:52:22.999Z</time></trkpt><trkpt lat="45.56477899534575" lon="11.15083109990818"><ele>458.0</ele><time>2026-04-25T10:52:23.999Z</time></trkpt><trkpt lat="45.5648558365104" lon="11.150745579942853"><ele>460.5</ele><time>2026-04-25T10:52:24.999Z</time></trkpt><trkpt lat="45.56492151534881" lon="11.150664741460899"><ele>463.0</ele><time>2026-04-25T10:52:25.999Z</time></trkpt><trkpt lat="45.56488453087406" lon="11.149981914804416"><ele>463.0</ele><time>2026-04-25T10:52:26.999Z</time></trkpt><trkpt lat="45.56495785755398" lon="11.149967510925308"><ele>462.99999999999994</ele><time>2026-04-25T10:52:27.999Z</time></trkpt><trkpt lat="45.56506415135662" lon="11.14994171907891"><ele>462.99999999999994</ele><time>2026-04-25T10:52:29.999Z</time></trkpt><trkpt lat="45.565033679558134" lon="11.149806914460981"><ele>463.0</ele><time>2026-04-25T10:52:34.999Z</time></trkpt><trkpt lat="45.56494167785782" lon="11.149670493668545"><ele>463.0</ele><time>2026-04-25T10:52:36.999Z</time></trkpt><trkpt lat="45.56488187667804" lon="11.149606311775576"><ele>464.1666666666667</ele><time>2026-04-25T10:52:37.999Z</time></trkpt><trkpt lat="45.5648217858357" lon="11.149549252519952"><ele>465.33333333333337</ele><time>2026-04-25T10:52:38.999Z</time></trkpt><trkpt lat="45.564753542418345" lon="11.149497563812726"><ele>466.5</ele><time>2026-04-25T10:52:39.999Z</time></trkpt><trkpt lat="45.56466625285109" lon="11.149491204528072"><ele>467.66666666666663</ele><time>2026-04-25T10:52:40.999Z</time></trkpt><trkpt lat="45.56456914615974" lon="11.149519835294262"><ele>468.8333333333333</ele><time>2026-04-25T10:52:41.999Z</time></trkpt><trkpt lat="45.56446842129009" lon="11.149559262155938"><ele>470.0</ele><time>2026-04-25T10:52:42.999Z</time></trkpt><trkpt lat="45.56438816845045" lon="11.149591689478681"><ele>470.0</ele><time>2026-04-25T10:52:43.999Z</time></trkpt><trkpt lat="45.56430761834238" lon="11.149617985317173"><ele>470.0</ele><time>2026-04-25T10:52:44.999Z</time></trkpt><trkpt lat="45.564185904491985" lon="11.149626099582637"><ele>470.0</ele><time>2026-04-25T10:52:46.999Z</time></trkpt><trkpt lat="45.564096988184936" lon="11.149649500356707"><ele>470.0</ele><time>2026-04-25T10:52:47.999Z</time></trkpt><trkpt lat="45.56399483135495" lon="11.149678011037018"><ele>470.0</ele><time>2026-04-25T10:52:48.999Z</time></trkpt><trkpt lat="45.56389079637204" lon="11.149707412090878"><ele>470.0</ele><time>2026-04-25T10:52:49.999Z</time></trkpt><trkpt lat="45.56378147351452" lon="11.1497369643254"><ele>470.0</ele><time>2026-04-25T10:52:50.999Z</time></trkpt><trkpt lat="45.563675323837664" lon="11.149763147007281"><ele>470.0</ele><time>2026-04-25T10:52:51.999Z</time></trkpt><trkpt lat="45.56356926855793" lon="11.149782647004958"><ele>470.0</ele><time>2026-04-25T10:52:52.999Z</time></trkpt><trkpt lat="45.56344995302075" lon="11.149796847633153"><ele>470.0</ele><time>2026-04-25T10:52:53.999Z</time></trkpt><trkpt lat="45.56332338201138" lon="11.149796720203767"><ele>469.4</ele><time>2026-04-25T10:52:54.999Z</time></trkpt><trkpt lat="45.563208633537755" lon="11.149779150539713"><ele>468.8</ele><time>2026-04-25T10:52:55.999Z</time></trkpt><trkpt lat="45.56309749463106" lon="11.1497610939139"><ele>468.20000000000005</ele><time>2026-04-25T10:52:56.999Z</time></trkpt><trkpt lat="45.56299160653626" lon="11.149767407132792"><ele>467.6</ele><time>2026-04-25T10:52:57.999Z</time></trkpt><trkpt lat="45.562885115869015" lon="11.149814592046521"><ele>467.0</ele><time>2026-04-25T10:52:58.999Z</time></trkpt><trkpt lat="45.56278861864335" lon="11.149954535540358"><ele>465.5</ele><time>2026-04-25T10:52:59.999Z</time></trkpt><trkpt lat="45.562678900375154" lon="11.15004010713688"><ele>464.0</ele><time>2026-04-25T10:53:00.999Z</time></trkpt><trkpt lat="45.56257020922122" lon="11.150107124222766"><ele>462.5</ele><time>2026-04-25T10:53:01.999Z</time></trkpt><trkpt lat="45.56245773372831" lon="11.15013794053824"><ele>461.0</ele><time>2026-04-25T10:53:02.999Z</time></trkpt><trkpt lat="45.56233498511726" lon="11.150154406862596"><ele>461.0</ele><time>2026-04-25T10:53:03.999Z</time></trkpt><trkpt lat="45.562211845132936" lon="11.150156482687786"><ele>461.0</ele><time>2026-04-25T10:53:04.999Z</time></trkpt><trkpt lat="45.56208101543684" lon="11.150141347854246"><ele>461.0</ele><time>2026-04-25T10:53:05.999Z</time></trkpt><trkpt lat="45.56194582244934" lon="11.15012026167788"><ele>461.0</ele><time>2026-04-25T10:53:06.999Z</time></trkpt><trkpt lat="45.56181921385661" lon="11.150104755021907"><ele>461.25</ele><time>2026-04-25T10:53:07.999Z</time></trkpt><trkpt lat="45.5617000453586" lon="11.150103638566845"><ele>461.5</ele><time>2026-04-25T10:53:08.999Z</time></trkpt><trkpt lat="45.56156946858592" lon="11.150126690220478"><ele>461.75</ele><time>2026-04-25T10:53:09.999Z</time></trkpt><trkpt lat="45.561440617384086" lon="11.150182280692878"><ele>462.0</ele><time>2026-04-25T10:53:10.999Z</time></trkpt><trkpt lat="45.56132537384234" lon="11.150234919258967"><ele>462.0</ele><time>2026-04-25T10:53:11.999Z</time></trkpt><trkpt lat="45.56121313364103" lon="11.150280620219972"><ele>462.0</ele><time>2026-04-25T10:53:12.999Z</time></trkpt><trkpt lat="45.56108969213549" lon="11.150313684705596"><ele>462.0</ele><time>2026-04-25T10:53:13.999Z</time></trkpt><trkpt lat="45.560949894792685" lon="11.150326804508019"><ele>462.0</ele><time>2026-04-25T10:53:15Z</time></trkpt><trkpt lat="45.560805283194625" lon="11.150314253957555"><ele>461.5</ele><time>2026-04-25T10:53:16Z</time></trkpt><trkpt lat="45.5606769926865" lon="11.150291362076835"><ele>461.0</ele><time>2026-04-25T10:53:17Z</time></trkpt><trkpt lat="45.56055588247482" lon="11.150287295922137"><ele>460.5</ele><time>2026-04-25T10:53:18Z</time></trkpt><trkpt lat="45.56044768988982" lon="11.150230588360943"><ele>460.0</ele><time>2026-04-25T10:53:19Z</time></trkpt><trkpt lat="45.56033199561847" lon="11.150183171028289"><ele>459.25</ele><time>2026-04-25T10:53:20Z</time></trkpt><trkpt lat="45.56021303037162" lon="11.150136606467587"><ele>458.5</ele><time>2026-04-25T10:53:21Z</time></trkpt><trkpt lat="45.56009578769523" lon="11.150102130946268"><ele>457.75</ele><time>2026-04-25T10:53:22Z</time></trkpt><trkpt lat="45.55996707889424" lon="11.150072384236566"><ele>457.0</ele><time>2026-04-25T10:53:23Z</time></trkpt><trkpt lat="45.55982708136099" lon="11.150098758129745"><ele>457.0</ele><time>2026-04-25T10:53:24Z</time></trkpt><trkpt lat="45.55969925978895" lon="11.150128549004215"><ele>457.0</ele><time>2026-04-25T10:53:25Z</time></trkpt><trkpt lat="45.55957966293255" lon="11.150183979741868"><ele>457.0</ele><time>2026-04-25T10:53:26Z</time></trkpt><trkpt lat="45.55945251554998" lon="11.150279716132783"><ele>457.0</ele><time>2026-04-25T10:53:27Z</time></trkpt><trkpt lat="45.5593048891864" lon="11.150357927698861"><ele>456.5</ele><time>2026-04-25T10:53:28Z</time></trkpt><trkpt lat="45.55917316451995" lon="11.150447959211345"><ele>456.0</ele><time>2026-04-25T10:53:29Z</time></trkpt><trkpt lat="45.55905187254674" lon="11.150532525514889"><ele>455.5</ele><time>2026-04-25T10:53:30Z</time></trkpt><trkpt lat="45.55893427877246" lon="11.150598887345254"><ele>455.0</ele><time>2026-04-25T10:53:31Z</time></trkpt><trkpt lat="45.55881496385653" lon="11.150652289252262"><ele>454.99999999999994</ele><time>2026-04-25T10:53:32Z</time></trkpt><trkpt lat="45.558709773529856" lon="11.150667990201613"><ele>455.0</ele><time>2026-04-25T10:53:33Z</time></trkpt><trkpt lat="45.558616902596235" lon="11.150676845380008"><ele>455.0</ele><time>2026-04-25T10:53:34Z</time></trkpt><trkpt lat="45.55854973615868" lon="11.150743087076755"><ele>455.0</ele><time>2026-04-25T10:53:35Z</time></trkpt><trkpt lat="45.55849820312573" lon="11.15080018274148"><ele>454.99999999999994</ele><time>2026-04-25T10:53:37Z</time></trkpt><trkpt lat="45.55845206416756" lon="11.15086276354338"><ele>455.0</ele><time>2026-04-25T10:53:38Z</time></trkpt><trkpt lat="45.558364549354806" lon="11.150882479600423"><ele>452.75</ele><time>2026-04-25T10:53:39Z</time></trkpt><trkpt lat="45.55825974526508" lon="11.150930637923794"><ele>450.5</ele><time>2026-04-25T10:53:40Z</time></trkpt><trkpt lat="45.55814055330767" lon="11.150990721484769"><ele>448.25</ele><time>2026-04-25T10:53:41Z</time></trkpt><trkpt lat="45.5580159442353" lon="11.151058960301334"><ele>446.0</ele><time>2026-04-25T10:53:42Z</time></trkpt><trkpt lat="45.55789162926413" lon="11.151101745991898"><ele>445.5</ele><time>2026-04-25T10:53:43Z</time></trkpt><trkpt lat="45.55776969416189" lon="11.151115087885668"><ele>445.0</ele><time>2026-04-25T10:53:44Z</time></trkpt><trkpt lat="45.55764927170402" lon="11.151124381792041"><ele>444.5</ele><time>2026-04-25T10:53:45Z</time></trkpt><trkpt lat="45.55753591244787" lon="11.151133624347581"><ele>444.0</ele><time>2026-04-25T10:53:46Z</time></trkpt><trkpt lat="45.55742020617681" lon="11.151143058260566"><ele>444.0</ele><time>2026-04-25T10:53:47Z</time></trkpt><trkpt lat="45.55730969439942" lon="11.151153725209388"><ele>444.0</ele><time>2026-04-25T10:53:48Z</time></trkpt><trkpt lat="45.55719161470034" lon="11.151166969893959"><ele>444.0</ele><time>2026-04-25T10:53:49Z</time></trkpt><trkpt lat="45.55706254151135" lon="11.151180001558744"><ele>444.0</ele><time>2026-04-25T10:53:50Z</time></trkpt><trkpt lat="45.55693066751141" lon="11.15118631003218"><ele>442.75</ele><time>2026-04-25T10:53:51Z</time></trkpt><trkpt lat="45.55679756132056" lon="11.151178010113819"><ele>441.5</ele><time>2026-04-25T10:53:52Z</time></trkpt><trkpt lat="45.556661869060854" lon="11.151141071248988"><ele>440.25</ele><time>2026-04-25T10:53:53Z</time></trkpt><trkpt lat="45.55652468756394" lon="11.151108435927"><ele>439.0</ele><time>2026-04-25T10:53:54Z</time></trkpt><trkpt lat="45.55638806897457" lon="11.151060853414359"><ele>439.0</ele><time>2026-04-25T10:53:55Z</time></trkpt><trkpt lat="45.556246673589904" lon="11.151008248499892"><ele>439.0</ele><time>2026-04-25T10:53:56Z</time></trkpt><trkpt lat="45.556112822364945" lon="11.150943688151747"><ele>439.0</ele><time>2026-04-25T10:53:57Z</time></trkpt><trkpt lat="45.55596339026256" lon="11.150949750277778"><ele>439.0</ele><time>2026-04-25T10:53:58Z</time></trkpt><trkpt lat="45.555811443299454" lon="11.150920543866896"><ele>437.6666666666667</ele><time>2026-04-25T10:53:59Z</time></trkpt><trkpt lat="45.555657731903544" lon="11.150877967218605"><ele>436.33333333333337</ele><time>2026-04-25T10:54:00Z</time></trkpt><trkpt lat="45.55552107823667" lon="11.150835119798774"><ele>435.0</ele><time>2026-04-25T10:54:01Z</time></trkpt><trkpt lat="45.555367483343325" lon="11.150807081989242"><ele>433.75</ele><time>2026-04-25T10:54:02Z</time></trkpt><trkpt lat="45.55522063178816" lon="11.150808031078547"><ele>432.5</ele><time>2026-04-25T10:54:03Z</time></trkpt><trkpt lat="45.555076508361346" lon="11.150828896100444"><ele>431.25</ele><time>2026-04-25T10:54:04Z</time></trkpt><trkpt lat="45.554927414707485" lon="11.150862192286882"><ele>430.0</ele><time>2026-04-25T10:54:05Z</time></trkpt><trkpt lat="45.55477479760541" lon="11.150891834391158"><ele>430.0</ele><time>2026-04-25T10:54:06Z</time></trkpt><trkpt lat="45.554628264896465" lon="11.150930215312952"><ele>430.0</ele><time>2026-04-25T10:54:07Z</time></trkpt><trkpt lat="45.55448665572786" lon="11.150987282976244"><ele>430.0</ele><time>2026-04-25T10:54:08Z</time></trkpt><trkpt lat="45.55433845691059" lon="11.151055442289353"><ele>430.0</ele><time>2026-04-25T10:54:09Z</time></trkpt><trkpt lat="45.55419644853028" lon="11.15110285016787"><ele>430.0</ele><time>2026-04-25T10:54:10Z</time></trkpt><trkpt lat="45.55406101239515" lon="11.151134591823732"><ele>430.0</ele><time>2026-04-25T10:54:11Z</time></trkpt><trkpt lat="45.55393588716936" lon="11.151141021201642"><ele>430.0</ele><time>2026-04-25T10:54:12Z</time></trkpt><trkpt lat="45.55381541056843" lon="11.151123824134878"><ele>429.4</ele><time>2026-04-25T10:54:13Z</time></trkpt><trkpt lat="45.553681851874025" lon="11.1510728977754"><ele>428.8</ele><time>2026-04-25T10:54:14Z</time></trkpt><trkpt lat="45.55357061853059" lon="11.151029420255023"><ele>428.20000000000005</ele><time>2026-04-25T10:54:15Z</time></trkpt><trkpt lat="45.55348084485095" lon="11.151017053422644"><ele>427.6</ele><time>2026-04-25T10:54:16Z</time></trkpt><trkpt lat="45.55340763706081" lon="11.151025805111681"><ele>427.0</ele><time>2026-04-25T10:54:17Z</time></trkpt><trkpt lat="45.5533243266276" lon="11.151067451774555"><ele>427.0</ele><time>2026-04-25T10:54:18Z</time></trkpt><trkpt lat="45.55323550990402" lon="11.151145639802968"><ele>427.00000000000006</ele><time>2026-04-25T10:54:19Z</time></trkpt><trkpt lat="45.55315370872977" lon="11.151228813392393"><ele>427.00000000000006</ele><time>2026-04-25T10:54:20Z</time></trkpt><trkpt lat="45.55308111084124" lon="11.151330803886784"><ele>427.0</ele><time>2026-04-25T10:54:21Z</time></trkpt><trkpt lat="45.55299848331792" lon="11.151450499574954"><ele>427.0</ele><time>2026-04-25T10:54:22Z</time></trkpt><trkpt lat="45.5528945013891" lon="11.151544143334448"><ele>425.25</ele><time>2026-04-25T10:54:23Z</time></trkpt><trkpt lat="45.55277238481744" lon="11.151610616732963"><ele>423.5</ele><time>2026-04-25T10:54:24Z</time></trkpt><trkpt lat="45.55264482553074" lon="11.15167548424099"><ele>421.75</ele><time>2026-04-25T10:54:25Z</time></trkpt><trkpt lat="45.55252754832436" lon="11.151703753637385"><ele>420.0</ele><time>2026-04-25T10:54:26Z</time></trkpt><trkpt lat="45.55240876143763" lon="11.15171496530033"><ele>420.0</ele><time>2026-04-25T10:54:27Z</time></trkpt><trkpt lat="45.55228576926626" lon="11.1517272273171"><ele>420.0</ele><time>2026-04-25T10:54:28Z</time></trkpt><trkpt lat="45.552168783857795" lon="11.151746180378325"><ele>420.0</ele><time>2026-04-25T10:54:29Z</time></trkpt><trkpt lat="45.552057277472855" lon="11.151780250290136"><ele>420.0</ele><time>2026-04-25T10:54:30Z</time></trkpt><trkpt lat="45.55195840117573" lon="11.15182527979134"><ele>419.4</ele><time>2026-04-25T10:54:31Z</time></trkpt><trkpt lat="45.55185917592843" lon="11.151880953408641"><ele>418.8</ele><time>2026-04-25T10:54:32Z</time></trkpt><trkpt lat="45.55175824755329" lon="11.151924750984055"><ele>418.20000000000005</ele><time>2026-04-25T10:54:33Z</time></trkpt><trkpt lat="45.55165706194079" lon="11.15194708687702"><ele>417.6</ele><time>2026-04-25T10:54:34Z</time></trkpt><trkpt lat="45.551553856217595" lon="11.151960746714076"><ele>417.0</ele><time>2026-04-25T10:54:35Z</time></trkpt><trkpt lat="45.55146128677042" lon="11.15194798159236"><ele>417.0</ele><time>2026-04-25T10:54:36Z</time></trkpt><trkpt lat="45.55135361451178" lon="11.151904633054139"><ele>417.0</ele><time>2026-04-25T10:54:37Z</time></trkpt><trkpt lat="45.55123291793073" lon="11.151833301383384"><ele>417.0</ele><time>2026-04-25T10:54:38Z</time></trkpt><trkpt lat="45.551129048954024" lon="11.151757612307815"><ele>417.0</ele><time>2026-04-25T10:54:38.998Z</time></trkpt><trkpt lat="45.55103941995673" lon="11.15166172538651"><ele>417.0</ele><time>2026-04-25T10:54:39.998Z</time></trkpt><trkpt lat="45.550921581158015" lon="11.151592528468477"><ele>417.0</ele><time>2026-04-25T10:54:40.998Z</time></trkpt><trkpt lat="45.55078045099952" lon="11.151539052849554"><ele>417.0</ele><time>2026-04-25T10:54:41.998Z</time></trkpt><trkpt lat="45.55065914707613" lon="11.151501517150237"><ele>417.0</ele><time>2026-04-25T10:54:42.998Z</time></trkpt><trkpt lat="45.550569631161714" lon="11.15147148641178"><ele>417.0</ele><time>2026-04-25T10:54:43.998Z</time></trkpt><trkpt lat="45.55046689484935" lon="11.151475847591724"><ele>417.0</ele><time>2026-04-25T10:54:45.998Z</time></trkpt><trkpt lat="45.55041490283204" lon="11.151537576594093"><ele>417.0</ele><time>2026-04-25T10:54:46.998Z</time></trkpt><trkpt lat="45.5503640700031" lon="11.151635982789148"><ele>417.0</ele><time>2026-04-25T10:54:47.998Z</time></trkpt><trkpt lat="45.55030549392453" lon="11.15173321041668"><ele>417.0</ele><time>2026-04-25T10:54:48.998Z</time></trkpt><trkpt lat="45.55023313348996" lon="11.151824855523673"><ele>417.0</ele><time>2026-04-25T10:54:49.998Z</time></trkpt><trkpt lat="45.55015087653222" lon="11.151945967639536"><ele>415.6</ele><time>2026-04-25T10:54:50.998Z</time></trkpt><trkpt lat="45.55007588756966" lon="11.152072983081489"><ele>414.20000000000005</ele><time>2026-04-25T10:54:51.998Z</time></trkpt><trkpt lat="45.55000421455759" lon="11.152208440363623"><ele>412.8</ele><time>2026-04-25T10:54:52.999Z</time></trkpt><trkpt lat="45.54994625329837" lon="11.152323253114567"><ele>411.4</ele><time>2026-04-25T10:54:53.999Z</time></trkpt><trkpt lat="45.54990544125899" lon="11.1524034853925"><ele>410.0</ele><time>2026-04-25T10:54:54.999Z</time></trkpt><trkpt lat="45.54986050005573" lon="11.152490388541173"><ele>409.0</ele><time>2026-04-25T10:54:55.999Z</time></trkpt><trkpt lat="45.54980588646756" lon="11.152609035431423"><ele>408.0</ele><time>2026-04-25T10:54:56.999Z</time></trkpt><trkpt lat="45.549764618798896" lon="11.152725769763416"><ele>407.0</ele><time>2026-04-25T10:54:57.999Z</time></trkpt><trkpt lat="45.54971342077814" lon="11.152858425905247"><ele>406.0</ele><time>2026-04-25T10:54:58.999Z</time></trkpt><trkpt lat="45.54967523881692" lon="11.152951915270856"><ele>405.0</ele><time>2026-04-25T10:54:59.999Z</time></trkpt><trkpt lat="45.54964776340813" lon="11.153088500687542"><ele>404.99999999999994</ele><time>2026-04-25T10:55:01.999Z</time></trkpt><trkpt lat="45.549632989616875" lon="11.153184194478843"><ele>405.0</ele><time>2026-04-25T10:55:02.999Z</time></trkpt><trkpt lat="45.54961915310155" lon="11.153302105794177"><ele>405.0</ele><time>2026-04-25T10:55:03.999Z</time></trkpt><trkpt lat="45.549602734011884" lon="11.1533977023511"><ele>405.0</ele><time>2026-04-25T10:55:04.999Z</time></trkpt><trkpt lat="45.54957654938201" lon="11.153502145736876"><ele>405.0</ele><time>2026-04-25T10:55:05.999Z</time></trkpt><trkpt lat="45.54953903715908" lon="11.153592912809447"><ele>404.99999999999994</ele><time>2026-04-25T10:55:06.999Z</time></trkpt><trkpt lat="45.549485816276665" lon="11.153669565510263"><ele>405.0</ele><time>2026-04-25T10:55:07.999Z</time></trkpt><trkpt lat="45.5494132891773" lon="11.153755282456965"><ele>404.6666666666667</ele><time>2026-04-25T10:55:08.999Z</time></trkpt><trkpt lat="45.549354506469065" lon="11.153820564589532"><ele>404.33333333333337</ele><time>2026-04-25T10:55:09.999Z</time></trkpt><trkpt lat="45.54930437954947" lon="11.153876939920275"><ele>404.0</ele><time>2026-04-25T10:55:10.999Z</time></trkpt><trkpt lat="45.549239809159346" lon="11.153897369082143"><ele>403.6666666666667</ele><time>2026-04-25T10:55:11.999Z</time></trkpt><trkpt lat="45.549172215999405" lon="11.153868527548898"><ele>403.33333333333337</ele><time>2026-04-25T10:55:12.999Z</time></trkpt><trkpt lat="45.5490776134401" lon="11.15382404233866"><ele>403.0</ele><time>2026-04-25T10:55:14.999Z</time></trkpt><trkpt lat="45.5490250411329" lon="11.153746978106756"><ele>403.0</ele><time>2026-04-25T10:55:18.999Z</time></trkpt><trkpt lat="45.54909934703009" lon="11.15370121176726"><ele>403.0</ele><time>2026-04-25T10:55:22Z</time></trkpt><trkpt lat="45.549217966978475" lon="11.15378721908221"><ele>403.0</ele><time>2026-04-25T10:55:24Z</time></trkpt><trkpt lat="45.549284829978085" lon="11.153843861434886"><ele>403.0</ele><time>2026-04-25T10:55:25Z</time></trkpt><trkpt lat="45.54939831106452" lon="11.153894145359637"><ele>403.0</ele><time>2026-04-25T10:55:27Z</time></trkpt><trkpt lat="45.54948572629333" lon="11.15390387998369"><ele>403.0</ele><time>2026-04-25T10:55:29Z</time></trkpt><trkpt lat="45.549540843214345" lon="11.153805013638058"><ele>403.0</ele><time>2026-04-25T10:55:33Z</time></trkpt><trkpt lat="45.54954190948023" lon="11.153637796187123"><ele>403.0</ele><time>2026-04-25T10:55:35Z</time></trkpt><trkpt lat="45.549578290952056" lon="11.153486163789006"><ele>403.0</ele><time>2026-04-25T10:55:37Z</time></trkpt><trkpt lat="45.549639439365805" lon="11.153354822291169"><ele>403.0</ele><time>2026-04-25T10:55:39Z</time></trkpt><trkpt lat="45.549698984654654" lon="11.153201012822656"><ele>403.2857142857143</ele><time>2026-04-25T10:55:41Z</time></trkpt><trkpt lat="45.549730762377045" lon="11.153105855462165"><ele>403.57142857142856</ele><time>2026-04-25T10:55:42Z</time></trkpt><trkpt lat="45.54976033401407" lon="11.153013124573462"><ele>403.85714285714283</ele><time>2026-04-25T10:55:43Z</time></trkpt><trkpt lat="45.5497884408233" lon="11.152929838008639"><ele>404.1428571428571</ele><time>2026-04-25T10:55:44Z</time></trkpt><trkpt lat="45.54981299118489" lon="11.152833760449264"><ele>404.42857142857144</ele><time>2026-04-25T10:55:45Z</time></trkpt><trkpt lat="45.54983440876223" lon="11.1527419805284"><ele>404.71428571428567</ele><time>2026-04-25T10:55:46Z</time></trkpt><trkpt lat="45.549852402436514" lon="11.152650825592156"><ele>405.0</ele><time>2026-04-25T10:55:47Z</time></trkpt><trkpt lat="45.54987124346347" lon="11.152511910826524"><ele>405.0</ele><time>2026-04-25T10:55:49Z</time></trkpt><trkpt lat="45.549895065401024" lon="11.152391049703734"><ele>405.0</ele><time>2026-04-25T10:55:52Z</time></trkpt><trkpt lat="45.549928393207345" lon="11.152261413850306"><ele>405.0</ele><time>2026-04-25T10:55:55Z</time></trkpt><trkpt lat="45.55002867392512" lon="11.152119667703747"><ele>405.0</ele><time>2026-04-25T10:55:57Z</time></trkpt><trkpt lat="45.5500960583459" lon="11.152024736825686"><ele>405.0</ele><time>2026-04-25T10:55:58Z</time></trkpt><trkpt lat="45.55005879520045" lon="11.152137594159704"><ele>405.0</ele><time>2026-04-25T10:56:08Z</time></trkpt><trkpt lat="45.55001179347357" lon="11.152217292374512"><ele>405.0</ele><time>2026-04-25T10:56:09Z</time></trkpt><trkpt lat="45.54991730850244" lon="11.152385390319544"><ele>405.0</ele><time>2026-04-25T10:56:10Z</time></trkpt><trkpt lat="45.54986088171225" lon="11.15249417390669"><ele>405.0</ele><time>2026-04-25T10:56:11Z</time></trkpt><trkpt lat="45.549821004900124" lon="11.152585597954653"><ele>405.0</ele><time>2026-04-25T10:56:12Z</time></trkpt><trkpt lat="45.54977056962379" lon="11.152700007858172"><ele>405.0</ele><time>2026-04-25T10:56:13Z</time></trkpt><trkpt lat="45.54972971579717" lon="11.15280096767589"><ele>405.0</ele><time>2026-04-25T10:56:14Z</time></trkpt><trkpt lat="45.54969598428137" lon="11.15288634610801"><ele>405.0</ele><time>2026-04-25T10:56:15Z</time></trkpt><trkpt lat="45.54965277980433" lon="11.153021595781407"><ele>405.0</ele><time>2026-04-25T10:56:17Z</time></trkpt><trkpt lat="45.5496425853364" lon="11.15318837647031"><ele>405.0</ele><time>2026-04-25T10:56:19Z</time></trkpt><trkpt lat="45.54962487038263" lon="11.15329558267146"><ele>405.0</ele><time>2026-04-25T10:56:20Z</time></trkpt><trkpt lat="45.54959630294996" lon="11.153448330566933"><ele>404.8333333333333</ele><time>2026-04-25T10:56:22Z</time></trkpt><trkpt lat="45.54955683925975" lon="11.15353809854775"><ele>404.66666666666663</ele><time>2026-04-25T10:56:24Z</time></trkpt><trkpt lat="45.54949907947238" lon="11.153639523900546"><ele>404.5</ele><time>2026-04-25T10:56:27Z</time></trkpt><trkpt lat="45.549445821700175" lon="11.153701443721541"><ele>404.3333333333333</ele><time>2026-04-25T10:56:28Z</time></trkpt><trkpt lat="45.54937911551215" lon="11.153794837918715"><ele>404.16666666666663</ele><time>2026-04-25T10:56:29Z</time></trkpt><trkpt lat="45.54931275995379" lon="11.153846235413829"><ele>404.0</ele><time>2026-04-25T10:56:30Z</time></trkpt><trkpt lat="45.549248231968456" lon="11.15387212518912"><ele>403.8333333333333</ele><time>2026-04-25T10:56:31Z</time></trkpt><trkpt lat="45.549182537921276" lon="11.153863121980775"><ele>403.66666666666663</ele><time>2026-04-25T10:56:32Z</time></trkpt><trkpt lat="45.54911763628019" lon="11.153841874575338"><ele>403.5</ele><time>2026-04-25T10:56:33.001Z</time></trkpt><trkpt lat="45.54900230794416" lon="11.15383318891603"><ele>403.33333333333337</ele><time>2026-04-25T10:56:35.001Z</time></trkpt><trkpt lat="45.54888184248791" lon="11.15380753252278"><ele>403.1666666666667</ele><time>2026-04-25T10:56:37.001Z</time></trkpt><trkpt lat="45.54881673682493" lon="11.153770015426968"><ele>403.0</ele><time>2026-04-25T10:56:38.001Z</time></trkpt><trkpt lat="45.54874737562456" lon="11.153753228807274"><ele>402.59999999999997</ele><time>2026-04-25T10:56:39.001Z</time></trkpt><trkpt lat="45.548680727890854" lon="11.153737098874352"><ele>402.2</ele><time>2026-04-25T10:56:40.001Z</time></trkpt><trkpt lat="45.548558453926525" lon="11.153706615854205"><ele>401.8</ele><time>2026-04-25T10:56:42.001Z</time></trkpt><trkpt lat="45.54849176754093" lon="11.153709548928836"><ele>401.4</ele><time>2026-04-25T10:56:43.001Z</time></trkpt><trkpt lat="45.548369973148574" lon="11.153674931627169"><ele>401.0</ele><time>2026-04-25T10:56:44.998Z</time></trkpt><trkpt lat="45.548306940322895" lon="11.15364230506233"><ele>401.0</ele><time>2026-04-25T10:56:45.998Z</time></trkpt><trkpt lat="45.548173732850884" lon="11.15360863358944"><ele>401.0</ele><time>2026-04-25T10:56:47.998Z</time></trkpt><trkpt lat="45.54802732121707" lon="11.153574102879695"><ele>401.0</ele><time>2026-04-25T10:56:49.998Z</time></trkpt><trkpt lat="45.54795291817652" lon="11.153573610867051"><ele>401.0</ele><time>2026-04-25T10:56:50.998Z</time></trkpt><trkpt lat="45.547890082825006" lon="11.153563085554936"><ele>401.0</ele><time>2026-04-25T10:56:51.998Z</time></trkpt><trkpt lat="45.5478285593022" lon="11.153527225510599"><ele>400.8</ele><time>2026-04-25T10:56:52.998Z</time></trkpt><trkpt lat="45.54774608849744" lon="11.153528873174489"><ele>400.6</ele><time>2026-04-25T10:56:53.998Z</time></trkpt><trkpt lat="45.54767392115036" lon="11.153489156533645"><ele>400.4</ele><time>2026-04-25T10:56:54.998Z</time></trkpt><trkpt lat="45.54758207663217" lon="11.153466087880513"><ele>400.2</ele><time>2026-04-25T10:56:55.998Z</time></trkpt><trkpt lat="45.54747884704062" lon="11.153439511717053"><ele>400.0</ele><time>2026-04-25T10:56:56.998Z</time></trkpt><trkpt lat="45.54735852838467" lon="11.153429998206022"><ele>400.0</ele><time>2026-04-25T10:56:57.998Z</time></trkpt><trkpt lat="45.547236350409165" lon="11.153390470941725"><ele>400.0</ele><time>2026-04-25T10:56:58.999Z</time></trkpt><trkpt lat="45.547131864684964" lon="11.153333124252939"><ele>400.0</ele><time>2026-04-25T10:56:59.999Z</time></trkpt><trkpt lat="45.54705805207162" lon="11.153295270230785"><ele>400.0</ele><time>2026-04-25T10:57:00.999Z</time></trkpt><trkpt lat="45.54699689928041" lon="11.153252821991881"><ele>400.0</ele><time>2026-04-25T10:57:01.999Z</time></trkpt><trkpt lat="45.54692933388198" lon="11.15317760325077"><ele>400.0</ele><time>2026-04-25T10:57:02.999Z</time></trkpt><trkpt lat="45.54684792445701" lon="11.153078883590647"><ele>400.0</ele><time>2026-04-25T10:57:03.999Z</time></trkpt><trkpt lat="45.546751250067864" lon="11.152988908371272"><ele>400.0</ele><time>2026-04-25T10:57:04.999Z</time></trkpt><trkpt lat="45.54666699000545" lon="11.152889828879063"><ele>400.0</ele><time>2026-04-25T10:57:05.999Z</time></trkpt><trkpt lat="45.54661189799703" lon="11.152793241887435"><ele>400.0</ele><time>2026-04-25T10:57:06.999Z</time></trkpt><trkpt lat="45.54653234991999" lon="11.15269093796383"><ele>400.0</ele><time>2026-04-25T10:57:08.999Z</time></trkpt><trkpt lat="45.54634410227079" lon="11.152759903755168"><ele>400.0</ele><time>2026-04-25T10:57:12.999Z</time></trkpt><trkpt lat="45.54626942957392" lon="11.152727693638422"><ele>400.0</ele><time>2026-04-25T10:57:13.999Z</time></trkpt><trkpt lat="45.546168301476776" lon="11.152706953610963"><ele>400.0</ele><time>2026-04-25T10:57:15.999Z</time></trkpt><trkpt lat="45.54605153468254" lon="11.152778776281153"><ele>399.6666666666667</ele><time>2026-04-25T10:57:17.999Z</time></trkpt><trkpt lat="45.54596804158021" lon="11.152794220251929"><ele>399.33333333333337</ele><time>2026-04-25T10:57:18.999Z</time></trkpt><trkpt lat="45.54589954976556" lon="11.15278318204849"><ele>399.0</ele><time>2026-04-25T10:57:19.999Z</time></trkpt><trkpt lat="45.54581400518303" lon="11.152812522796479"><ele>398.66666666666663</ele><time>2026-04-25T10:57:21.999Z</time></trkpt><trkpt lat="45.54574420173738" lon="11.15280454417359"><ele>398.3333333333333</ele><time>2026-04-25T10:57:23Z</time></trkpt><trkpt lat="45.54566693945336" lon="11.152790030559986"><ele>398.0</ele><time>2026-04-25T10:57:24Z</time></trkpt><trkpt lat="45.545595666107644" lon="11.152784834237785"><ele>397.99999999999994</ele><time>2026-04-25T10:57:25Z</time></trkpt><trkpt lat="45.545503061711365" lon="11.152802601453914"><ele>398.0</ele><time>2026-04-25T10:57:26Z</time></trkpt><trkpt lat="45.54540776288182" lon="11.15281786326561"><ele>398.0</ele><time>2026-04-25T10:57:27Z</time></trkpt><trkpt lat="45.54532167625193" lon="11.1528112741496"><ele>398.0</ele><time>2026-04-25T10:57:28Z</time></trkpt><trkpt lat="45.545251135966076" lon="11.152782759364653"><ele>397.99999999999994</ele><time>2026-04-25T10:57:29Z</time></trkpt><trkpt lat="45.54516841717672" lon="11.152776195082069"><ele>398.0</ele><time>2026-04-25T10:57:30Z</time></trkpt><trkpt lat="45.54508719910643" lon="11.152791470600002"><ele>397.3333333333333</ele><time>2026-04-25T10:57:31Z</time></trkpt><trkpt lat="45.54498082016982" lon="11.152796973068034"><ele>396.66666666666663</ele><time>2026-04-25T10:57:32Z</time></trkpt><trkpt lat="45.54490675367302" lon="11.152787991294545"><ele>396.0</ele><time>2026-04-25T10:57:33Z</time></trkpt><trkpt lat="45.54482470105765" lon="11.152813066625237"><ele>395.33333333333337</ele><time>2026-04-25T10:57:34Z</time></trkpt><trkpt lat="45.54473917640111" lon="11.15282116390005"><ele>394.6666666666667</ele><time>2026-04-25T10:57:35Z</time></trkpt><trkpt lat="45.54466443906946" lon="11.152820668462098"><ele>394.0</ele><time>2026-04-25T10:57:36Z</time></trkpt><trkpt lat="45.54458414721794" lon="11.15281934289997"><ele>393.6</ele><time>2026-04-25T10:57:37Z</time></trkpt><trkpt lat="45.54451033940576" lon="11.152788420529824"><ele>393.2</ele><time>2026-04-25T10:57:38Z</time></trkpt><trkpt lat="45.54443986115875" lon="11.152785695572902"><ele>392.8</ele><time>2026-04-25T10:57:39Z</time></trkpt><trkpt lat="45.54427914512977" lon="11.15282096228014"><ele>392.40000000000003</ele><time>2026-04-25T10:57:41Z</time></trkpt><trkpt lat="45.54419631351309" lon="11.1528584676642"><ele>392.0</ele><time>2026-04-25T10:57:42Z</time></trkpt><trkpt lat="45.544118251007774" lon="11.152882230874702"><ele>392.0</ele><time>2026-04-25T10:57:43Z</time></trkpt><trkpt lat="45.54403943146047" lon="11.152898860069886"><ele>392.0</ele><time>2026-04-25T10:57:45Z</time></trkpt><trkpt lat="45.54395439400303" lon="11.153031054283096"><ele>392.0</ele><time>2026-04-25T10:57:47Z</time></trkpt><trkpt lat="45.543809008364896" lon="11.153052464766402"><ele>392.0</ele><time>2026-04-25T10:57:49Z</time></trkpt><trkpt lat="45.54371564736491" lon="11.15307190869589"><ele>392.0</ele><time>2026-04-25T10:57:50Z</time></trkpt><trkpt lat="45.54362918445939" lon="11.153083548773505"><ele>391.8333333333333</ele><time>2026-04-25T10:57:51Z</time></trkpt><trkpt lat="45.543545944239575" lon="11.153138354773658"><ele>391.66666666666663</ele><time>2026-04-25T10:57:53Z</time></trkpt><trkpt lat="45.54351733679537" lon="11.153310609893936"><ele>391.5</ele><time>2026-04-25T10:57:55Z</time></trkpt><trkpt lat="45.543462758357364" lon="11.153399041079291"><ele>391.33333333333337</ele><time>2026-04-25T10:57:57Z</time></trkpt><trkpt lat="45.54340234717579" lon="11.153368947897144"><ele>391.1666666666667</ele><time>2026-04-25T10:57:58Z</time></trkpt><trkpt lat="45.543318568123816" lon="11.153394482497722"><ele>391.0</ele><time>2026-04-25T10:57:59Z</time></trkpt><trkpt lat="45.54322224523678" lon="11.153439661023342"><ele>390.6</ele><time>2026-04-25T10:58:00Z</time></trkpt><trkpt lat="45.54314308254728" lon="11.153456879564907"><ele>390.20000000000005</ele><time>2026-04-25T10:58:01Z</time></trkpt><trkpt lat="45.54307904278743" lon="11.153434401768438"><ele>389.79999999999995</ele><time>2026-04-25T10:58:02Z</time></trkpt><trkpt lat="45.54294110804428" lon="11.153452053213462"><ele>389.4</ele><time>2026-04-25T10:58:04Z</time></trkpt><trkpt lat="45.54284623986899" lon="11.153473283450792"><ele>389.0</ele><time>2026-04-25T10:58:05Z</time></trkpt><trkpt lat="45.54275809301724" lon="11.153518784087199"><ele>388.2</ele><time>2026-04-25T10:58:06Z</time></trkpt><trkpt lat="45.54264359600549" lon="11.15350912055637"><ele>387.4</ele><time>2026-04-25T10:58:08Z</time></trkpt><trkpt lat="45.54258357727933" lon="11.15356466660018"><ele>386.6</ele><time>2026-04-25T10:58:09Z</time></trkpt><trkpt lat="45.54251271205853" lon="11.153628069108038"><ele>385.8</ele><time>2026-04-25T10:58:10Z</time></trkpt><trkpt lat="45.54242842266131" lon="11.153702830334822"><ele>385.0</ele><time>2026-04-25T10:58:11Z</time></trkpt><trkpt lat="45.542336479426545" lon="11.15374193303242"><ele>385.0</ele><time>2026-04-25T10:58:12Z</time></trkpt><trkpt lat="45.54224229773251" lon="11.153748937900763"><ele>385.0</ele><time>2026-04-25T10:58:13.001Z</time></trkpt><trkpt lat="45.54212162182515" lon="11.153739468766236"><ele>385.0</ele><time>2026-04-25T10:58:14.001Z</time></trkpt><trkpt lat="45.54198885701442" lon="11.15372728279731"><ele>385.0</ele><time>2026-04-25T10:58:15.001Z</time></trkpt><trkpt lat="45.54185726098789" lon="11.153712999978294"><ele>384.33333333333337</ele><time>2026-04-25T10:58:16.001Z</time></trkpt><trkpt lat="45.54171430812857" lon="11.153681506025565"><ele>383.6666666666667</ele><time>2026-04-25T10:58:17.001Z</time></trkpt><trkpt lat="45.541551216075575" lon="11.153641532826427"><ele>383.0</ele><time>2026-04-25T10:58:18.001Z</time></trkpt><trkpt lat="45.541387361286006" lon="11.153602386292224"><ele>383.0</ele><time>2026-04-25T10:58:19.001Z</time></trkpt><trkpt lat="45.541242133345825" lon="11.153579995954022"><ele>383.0</ele><time>2026-04-25T10:58:20.001Z</time></trkpt><trkpt lat="45.54111830904993" lon="11.153574443769712"><ele>383.0</ele><time>2026-04-25T10:58:21.001Z</time></trkpt><trkpt lat="45.54098460800823" lon="11.153572692503339"><ele>383.0</ele><time>2026-04-25T10:58:22.001Z</time></trkpt><trkpt lat="45.54086493370499" lon="11.153582610693737"><ele>382.59999999999997</ele><time>2026-04-25T10:58:23.001Z</time></trkpt><trkpt lat="45.54076844667771" lon="11.153589842390229"><ele>382.2</ele><time>2026-04-25T10:58:24.001Z</time></trkpt><trkpt lat="45.5406713690472" lon="11.153603092948854"><ele>381.8</ele><time>2026-04-25T10:58:25.001Z</time></trkpt><trkpt lat="45.54056894182563" lon="11.153622403114818"><ele>381.4</ele><time>2026-04-25T10:58:26.001Z</time></trkpt><trkpt lat="45.54045937446077" lon="11.153659785123667"><ele>381.0</ele><time>2026-04-25T10:58:27.001Z</time></trkpt><trkpt lat="45.54034025214647" lon="11.153719267588325"><ele>380.4</ele><time>2026-04-25T10:58:28.001Z</time></trkpt><trkpt lat="45.540227478098565" lon="11.153749389373912"><ele>379.8</ele><time>2026-04-25T10:58:29.001Z</time></trkpt><trkpt lat="45.540143979701924" lon="11.153765754812516"><ele>379.2</ele><time>2026-04-25T10:58:30.001Z</time></trkpt><trkpt lat="45.540080723853336" lon="11.15377609327957"><ele>378.59999999999997</ele><time>2026-04-25T10:58:31.001Z</time></trkpt><trkpt lat="45.53998014414656" lon="11.153798459378871"><ele>378.0</ele><time>2026-04-25T10:58:33.001Z</time></trkpt><trkpt lat="45.53989105298303" lon="11.15381973423203"><ele>378.0</ele><time>2026-04-25T10:58:35.001Z</time></trkpt><trkpt lat="45.53980312146974" lon="11.153820496031637"><ele>378.0</ele><time>2026-04-25T10:58:37.001Z</time></trkpt><trkpt lat="45.53966618179313" lon="11.153815768592803"><ele>378.0</ele><time>2026-04-25T10:58:39.001Z</time></trkpt><trkpt lat="45.53956796111817" lon="11.153804721896279"><ele>378.0</ele><time>2026-04-25T10:58:40.001Z</time></trkpt><trkpt lat="45.53947567845866" lon="11.153803351047278"><ele>378.0</ele><time>2026-04-25T10:58:41.001Z</time></trkpt><trkpt lat="45.53937274592769" lon="11.153816408886398"><ele>378.4</ele><time>2026-04-25T10:58:42.001Z</time></trkpt><trkpt lat="45.539284446437655" lon="11.153872243012874"><ele>378.79999999999995</ele><time>2026-04-25T10:58:43.001Z</time></trkpt><trkpt lat="45.539198880755436" lon="11.153948734247514"><ele>379.2</ele><time>2026-04-25T10:58:44.001Z</time></trkpt><trkpt lat="45.53910481120409" lon="11.15400163809309"><ele>379.6</ele><time>2026-04-25T10:58:45.001Z</time></trkpt><trkpt lat="45.53899162088259" lon="11.15404683744695"><ele>380.0</ele><time>2026-04-25T10:58:46.001Z</time></trkpt><trkpt lat="45.538891698261146" lon="11.154086277010618"><ele>380.0</ele><time>2026-04-25T10:58:47.001Z</time></trkpt><trkpt lat="45.53880707316765" lon="11.154118220695961"><ele>380.0</ele><time>2026-04-25T10:58:48.001Z</time></trkpt><trkpt lat="45.5387164620941" lon="11.154145536640465"><ele>380.0</ele><time>2026-04-25T10:58:49.001Z</time></trkpt><trkpt lat="45.538652742408104" lon="11.154151851155572"><ele>380.0</ele><time>2026-04-25T10:58:50.001Z</time></trkpt><trkpt lat="45.53858734668642" lon="11.154137209056975"><ele>380.0</ele><time>2026-04-25T10:58:54Z</time></trkpt><trkpt lat="45.53850813616681" lon="11.154156242932183"><ele>380.0</ele><time>2026-04-25T10:59:17Z</time></trkpt><trkpt lat="45.538417247303244" lon="11.154133933489788"><ele>379.33333333333337</ele><time>2026-04-25T10:59:19Z</time></trkpt><trkpt lat="45.538334756729775" lon="11.154140129616431"><ele>378.6666666666667</ele><time>2026-04-25T10:59:21Z</time></trkpt><trkpt lat="45.5382211839928" lon="11.15417840354935"><ele>378.0</ele><time>2026-04-25T10:59:23Z</time></trkpt><trkpt lat="45.53814615452773" lon="11.154222370390682"><ele>377.3333333333333</ele><time>2026-04-25T10:59:25Z</time></trkpt><trkpt lat="45.53807168872916" lon="11.154277056528594"><ele>376.66666666666663</ele><time>2026-04-25T10:59:27Z</time></trkpt><trkpt lat="45.538001464848726" lon="11.154309822712808"><ele>376.0</ele><time>2026-04-25T10:59:29Z</time></trkpt><trkpt lat="45.537963565661244" lon="11.154423628187892"><ele>376.0</ele><time>2026-04-25T10:59:34.001Z</time></trkpt><trkpt lat="45.53789176919879" lon="11.154501613571902"><ele>376.0</ele><time>2026-04-25T10:59:37.001Z</time></trkpt><trkpt lat="45.53782646086203" lon="11.154522243191655"><ele>376.0</ele><time>2026-04-25T10:59:38.001Z</time></trkpt><trkpt lat="45.53775728832538" lon="11.154548004012018"><ele>376.0</ele><time>2026-04-25T10:59:39.001Z</time></trkpt><trkpt lat="45.537665360197806" lon="11.154587411825098"><ele>376.0</ele><time>2026-04-25T10:59:40.001Z</time></trkpt><trkpt lat="45.537576264820764" lon="11.154631372649257"><ele>376.0</ele><time>2026-04-25T10:59:41.001Z</time></trkpt><trkpt lat="45.53748239703613" lon="11.1546801466975"><ele>375.5</ele><time>2026-04-25T10:59:42.001Z</time></trkpt><trkpt lat="45.53736482126711" lon="11.154732145168888"><ele>375.0</ele><time>2026-04-25T10:59:43.001Z</time></trkpt><trkpt lat="45.53724691192022" lon="11.154795234690118"><ele>374.5</ele><time>2026-04-25T10:59:44.001Z</time></trkpt><trkpt lat="45.5371435323184" lon="11.154846534992771"><ele>374.0</ele><time>2026-04-25T10:59:45.001Z</time></trkpt><trkpt lat="45.53705072211119" lon="11.154890507816175"><ele>373.4</ele><time>2026-04-25T10:59:46.001Z</time></trkpt><trkpt lat="45.5369588404433" lon="11.154952499563374"><ele>372.79999999999995</ele><time>2026-04-25T10:59:47.001Z</time></trkpt><trkpt lat="45.536858876649106" lon="11.155014459191458"><ele>372.20000000000005</ele><time>2026-04-25T10:59:48.001Z</time></trkpt><trkpt lat="45.536759943499895" lon="11.155066631433606"><ele>371.6</ele><time>2026-04-25T10:59:49.001Z</time></trkpt><trkpt lat="45.53665827475525" lon="11.15509776134151"><ele>371.0</ele><time>2026-04-25T10:59:50.001Z</time></trkpt><trkpt lat="45.53655246296597" lon="11.155121715325864"><ele>371.0</ele><time>2026-04-25T10:59:51.001Z</time></trkpt><trkpt lat="45.536453226623436" lon="11.155147440263159"><ele>371.0</ele><time>2026-04-25T10:59:52.001Z</time></trkpt><trkpt lat="45.53634196182093" lon="11.15520633517542"><ele>371.0</ele><time>2026-04-25T10:59:53.001Z</time></trkpt><trkpt lat="45.53624503049966" lon="11.155258139800917"><ele>371.0</ele><time>2026-04-25T10:59:54.001Z</time></trkpt><trkpt lat="45.536142874895916" lon="11.155312604914437"><ele>371.0</ele><time>2026-04-25T10:59:55.001Z</time></trkpt><trkpt lat="45.536036869851905" lon="11.155375698668605"><ele>369.75</ele><time>2026-04-25T10:59:56.001Z</time></trkpt><trkpt lat="45.535928920381494" lon="11.155449812337126"><ele>368.5</ele><time>2026-04-25T10:59:57.001Z</time></trkpt><trkpt lat="45.535830475334315" lon="11.155525496737"><ele>367.25</ele><time>2026-04-25T10:59:58.001Z</time></trkpt><trkpt lat="45.53573335985399" lon="11.155610582636758"><ele>366.0</ele><time>2026-04-25T10:59:59.001Z</time></trkpt><trkpt lat="45.53563472963644" lon="11.155694057164677"><ele>365.75</ele><time>2026-04-25T11:00:00.001Z</time></trkpt><trkpt lat="45.53552720118961" lon="11.155771756256662"><ele>365.5</ele><time>2026-04-25T11:00:01.001Z</time></trkpt><trkpt lat="45.53542068043043" lon="11.15585120015088"><ele>365.25</ele><time>2026-04-25T11:00:02.001Z</time></trkpt><trkpt lat="45.53530837096625" lon="11.155929095225115"><ele>365.0</ele><time>2026-04-25T11:00:03.001Z</time></trkpt><trkpt lat="45.535204954610954" lon="11.1559968657284"><ele>365.0</ele><time>2026-04-25T11:00:04.001Z</time></trkpt><trkpt lat="45.53511476697611" lon="11.156046983583876"><ele>365.0</ele><time>2026-04-25T11:00:05.001Z</time></trkpt><trkpt lat="45.53503643311043" lon="11.15610741792115"><ele>365.0</ele><time>2026-04-25T11:00:06.001Z</time></trkpt><trkpt lat="45.53495816248036" lon="11.156198237697327"><ele>365.0</ele><time>2026-04-25T11:00:07.001Z</time></trkpt><trkpt lat="45.53488097519571" lon="11.156292860171046"><ele>365.0</ele><time>2026-04-25T11:00:08.001Z</time></trkpt><trkpt lat="45.5347950901273" lon="11.156380882731018"><ele>365.0</ele><time>2026-04-25T11:00:09.001Z</time></trkpt><trkpt lat="45.53468895375879" lon="11.156465737257587"><ele>365.0</ele><time>2026-04-25T11:00:10.001Z</time></trkpt><trkpt lat="45.53457770539614" lon="11.156557016937894"><ele>365.0</ele><time>2026-04-25T11:00:11.001Z</time></trkpt><trkpt lat="45.534468020983894" lon="11.156653934214916"><ele>365.0</ele><time>2026-04-25T11:00:12.001Z</time></trkpt><trkpt lat="45.53438008618464" lon="11.156733592756888"><ele>364.6666666666667</ele><time>2026-04-25T11:00:13.001Z</time></trkpt><trkpt lat="45.53430587016616" lon="11.156801123967071"><ele>364.33333333333337</ele><time>2026-04-25T11:00:14.001Z</time></trkpt><trkpt lat="45.53422075543313" lon="11.15684961690948"><ele>364.0</ele><time>2026-04-25T11:00:15.001Z</time></trkpt><trkpt lat="45.53413298225841" lon="11.156903646385002"><ele>363.6666666666667</ele><time>2026-04-25T11:00:16.001Z</time></trkpt><trkpt lat="45.53405673050627" lon="11.156984798864928"><ele>363.3333333333333</ele><time>2026-04-25T11:00:17.001Z</time></trkpt><trkpt lat="45.5340036669632" lon="11.157042423758199"><ele>363.0</ele><time>2026-04-25T11:00:18.001Z</time></trkpt><trkpt lat="45.533933770729085" lon="11.157088815905551"><ele>363.0</ele><time>2026-04-25T11:00:20.001Z</time></trkpt><trkpt lat="45.533798017042336" lon="11.157126477992364"><ele>363.0</ele><time>2026-04-25T11:00:22.001Z</time></trkpt><trkpt lat="45.533710426806145" lon="11.157143866139121"><ele>363.0</ele><time>2026-04-25T11:00:23.001Z</time></trkpt><trkpt lat="45.53362096298962" lon="11.157223353174771"><ele>363.0</ele><time>2026-04-25T11:00:25.001Z</time></trkpt><trkpt lat="45.53357628759242" lon="11.157316785071448"><ele>363.0</ele><time>2026-04-25T11:00:26.001Z</time></trkpt><trkpt lat="45.533511581542605" lon="11.157420236382224"><ele>362.3333333333333</ele><time>2026-04-25T11:00:27.001Z</time></trkpt><trkpt lat="45.53344299768752" lon="11.157502399945193"><ele>361.6666666666667</ele><time>2026-04-25T11:00:28.001Z</time></trkpt><trkpt lat="45.53338642708102" lon="11.157580912100109"><ele>361.0</ele><time>2026-04-25T11:00:29.001Z</time></trkpt><trkpt lat="45.533319058429626" lon="11.15765937726191"><ele>360.33333333333337</ele><time>2026-04-25T11:00:30.002Z</time></trkpt><trkpt lat="45.53323258313445" lon="11.157705683477834"><ele>359.6666666666667</ele><time>2026-04-25T11:00:31.002Z</time></trkpt><trkpt lat="45.53314404139021" lon="11.157740242157082"><ele>359.0</ele><time>2026-04-25T11:00:32.002Z</time></trkpt><trkpt lat="45.53304987485403" lon="11.157782496199694"><ele>359.0</ele><time>2026-04-25T11:00:33.002Z</time></trkpt><trkpt lat="45.53295293101205" lon="11.157856823539406"><ele>359.0</ele><time>2026-04-25T11:00:34.002Z</time></trkpt><trkpt lat="45.532855602026785" lon="11.15792106011807"><ele>359.0</ele><time>2026-04-25T11:00:35.002Z</time></trkpt><trkpt lat="45.53277734118508" lon="11.157973106513985"><ele>359.0</ele><time>2026-04-25T11:00:36.002Z</time></trkpt><trkpt lat="45.532707876458076" lon="11.158026546741679"><ele>359.0</ele><time>2026-04-25T11:00:37.002Z</time></trkpt><trkpt lat="45.53263865351355" lon="11.158087076589442"><ele>358.4</ele><time>2026-04-25T11:00:38.002Z</time></trkpt><trkpt lat="45.532496144162636" lon="11.158070841589016"><ele>357.79999999999995</ele><time>2026-04-25T11:00:40.002Z</time></trkpt><trkpt lat="45.53240383398771" lon="11.15804693609664"><ele>357.20000000000005</ele><time>2026-04-25T11:00:41.002Z</time></trkpt><trkpt lat="45.53232052478828" lon="11.158047574897568"><ele>356.6</ele><time>2026-04-25T11:00:42.002Z</time></trkpt><trkpt lat="45.53224429614982" lon="11.15803658988425"><ele>356.0</ele><time>2026-04-25T11:00:43.002Z</time></trkpt><trkpt lat="45.53215246500849" lon="11.158013054357784"><ele>356.0</ele><time>2026-04-25T11:00:44.002Z</time></trkpt><trkpt lat="45.53205978533173" lon="11.15799518024017"><ele>356.0</ele><time>2026-04-25T11:00:45.002Z</time></trkpt><trkpt lat="45.53196530921465" lon="11.157983027927848"><ele>356.0</ele><time>2026-04-25T11:00:46.002Z</time></trkpt><trkpt lat="45.53186047855199" lon="11.157981853182452"><ele>356.0</ele><time>2026-04-25T11:00:47.002Z</time></trkpt><trkpt lat="45.53176565294322" lon="11.157993205862406"><ele>356.0</ele><time>2026-04-25T11:00:48.002Z</time></trkpt><trkpt lat="45.53169197994619" lon="11.158009334341623"><ele>355.8</ele><time>2026-04-25T11:00:49.002Z</time></trkpt><trkpt lat="45.53157778419415" lon="11.158075991747674"><ele>355.6</ele><time>2026-04-25T11:00:51.002Z</time></trkpt><trkpt lat="45.531515396176104" lon="11.158132791037534"><ele>355.4</ele><time>2026-04-25T11:00:52.002Z</time></trkpt><trkpt lat="45.53143687914349" lon="11.158196588736677"><ele>355.2</ele><time>2026-04-25T11:00:54.002Z</time></trkpt><trkpt lat="45.531363482988745" lon="11.158296514552777"><ele>355.0</ele><time>2026-04-25T11:00:56.002Z</time></trkpt><trkpt lat="45.53129477829785" lon="11.158429109917618"><ele>354.3333333333333</ele><time>2026-04-25T11:00:57.999Z</time></trkpt><trkpt lat="45.531211183059604" lon="11.158447198164838"><ele>353.66666666666663</ele><time>2026-04-25T11:00:58.999Z</time></trkpt><trkpt lat="45.53113065372299" lon="11.158450645471236"><ele>353.0</ele><time>2026-04-25T11:00:59.999Z</time></trkpt><trkpt lat="45.53102116723134" lon="11.158486111054524"><ele>352.3333333333333</ele><time>2026-04-25T11:01:01.999Z</time></trkpt><trkpt lat="45.530956131607006" lon="11.158491995362413"><ele>351.6666666666667</ele><time>2026-04-25T11:01:02.999Z</time></trkpt><trkpt lat="45.5308740378413" lon="11.15847894703892"><ele>351.0</ele><time>2026-04-25T11:01:03.999Z</time></trkpt><trkpt lat="45.53085482496475" lon="11.158355006057358"><ele>351.0</ele><time>2026-04-25T11:01:12Z</time></trkpt><trkpt lat="45.53087635358868" lon="11.158257251269667"><ele>351.0</ele><time>2026-04-25T11:01:13Z</time></trkpt><trkpt lat="45.53087280267398" lon="11.158164580194915"><ele>351.0</ele><time>2026-04-25T11:01:14Z</time></trkpt><trkpt lat="45.5308676051875" lon="11.158058124944462"><ele>351.0</ele><time>2026-04-25T11:01:15Z</time></trkpt><trkpt lat="45.53085460546554" lon="11.157963736320312"><ele>351.0</ele><time>2026-04-25T11:01:16Z</time></trkpt><trkpt lat="45.530831698677574" lon="11.157804523656509"><ele>351.0</ele><time>2026-04-25T11:01:18Z</time></trkpt><trkpt lat="45.53080347639243" lon="11.157675339669451"><ele>351.1666666666667</ele><time>2026-04-25T11:01:20Z</time></trkpt><trkpt lat="45.53071791992869" lon="11.157592362137132"><ele>351.3333333333333</ele><time>2026-04-25T11:01:23Z</time></trkpt><trkpt lat="45.53062023465184" lon="11.157580470838015"><ele>351.5</ele><time>2026-04-25T11:01:25Z</time></trkpt><trkpt lat="45.530551390319644" lon="11.157600228062899"><ele>351.66666666666663</ele><time>2026-04-25T11:01:26Z</time></trkpt><trkpt lat="45.53048971929137" lon="11.157630478998914"><ele>351.8333333333333</ele><time>2026-04-25T11:01:27Z</time></trkpt><trkpt lat="45.530425260450194" lon="11.157643256941382"><ele>352.0</ele><time>2026-04-25T11:01:28Z</time></trkpt><trkpt lat="45.53031864686454" lon="11.1576256839656"><ele>352.0</ele><time>2026-04-25T11:01:30Z</time></trkpt><trkpt lat="45.530190087455644" lon="11.15758196149416"><ele>352.0</ele><time>2026-04-25T11:01:32Z</time></trkpt><trkpt lat="45.53011775362325" lon="11.157535945017226"><ele>352.0</ele><time>2026-04-25T11:01:33Z</time></trkpt><trkpt lat="45.530052463896425" lon="11.157498476799029"><ele>352.0</ele><time>2026-04-25T11:01:34Z</time></trkpt><trkpt lat="45.52996957483917" lon="11.157473269124928"><ele>352.0</ele><time>2026-04-25T11:01:36Z</time></trkpt><trkpt lat="45.529888696071836" lon="11.15746349445366"><ele>352.0</ele><time>2026-04-25T11:01:38Z</time></trkpt><trkpt lat="45.52975667629233" lon="11.15751899544056"><ele>352.0</ele><time>2026-04-25T11:01:40Z</time></trkpt><trkpt lat="45.52967673253663" lon="11.157513154811141"><ele>352.0</ele><time>2026-04-25T11:01:41Z</time></trkpt><trkpt lat="45.52960014548302" lon="11.157479808444073"><ele>352.0</ele><time>2026-04-25T11:01:42Z</time></trkpt><trkpt lat="45.52951574861356" lon="11.157445982738079"><ele>352.0</ele><time>2026-04-25T11:01:43Z</time></trkpt><trkpt lat="45.5294225625863" lon="11.15742889156897"><ele>352.0</ele><time>2026-04-25T11:01:44Z</time></trkpt><trkpt lat="45.52933275908778" lon="11.157429493499171"><ele>352.0</ele><time>2026-04-25T11:01:45Z</time></trkpt><trkpt lat="45.5292430986348" lon="11.157416507733783"><ele>352.0</ele><time>2026-04-25T11:01:46Z</time></trkpt><trkpt lat="45.529165340525836" lon="11.15738006402034"><ele>352.0</ele><time>2026-04-25T11:01:47Z</time></trkpt><trkpt lat="45.529043990428896" lon="11.157319167119145"><ele>352.0</ele><time>2026-04-25T11:01:49Z</time></trkpt><trkpt lat="45.52897144087485" lon="11.157320796457245"><ele>352.0</ele><time>2026-04-25T11:01:50Z</time></trkpt><trkpt lat="45.52889872195566" lon="11.157320024533101"><ele>352.0</ele><time>2026-04-25T11:01:51.001Z</time></trkpt><trkpt lat="45.528779890437384" lon="11.157277452019244"><ele>351.6</ele><time>2026-04-25T11:01:53.001Z</time></trkpt><trkpt lat="45.52871986507299" lon="11.157197685122624"><ele>351.20000000000005</ele><time>2026-04-25T11:01:54.001Z</time></trkpt><trkpt lat="45.52866688440314" lon="11.157127803741536"><ele>350.8</ele><time>2026-04-25T11:01:55.001Z</time></trkpt><trkpt lat="45.52855631066109" lon="11.157063319246548"><ele>350.4</ele><time>2026-04-25T11:01:57.001Z</time></trkpt><trkpt lat="45.528422186118874" lon="11.15707256456848"><ele>350.0</ele><time>2026-04-25T11:01:59.001Z</time></trkpt><trkpt lat="45.528313513556824" lon="11.157135059725181"><ele>350.0</ele><time>2026-04-25T11:02:01.001Z</time></trkpt><trkpt lat="45.528186871875995" lon="11.157142387871085"><ele>350.0</ele><time>2026-04-25T11:02:03.001Z</time></trkpt><trkpt lat="45.528111521660875" lon="11.15713928652804"><ele>350.0</ele><time>2026-04-25T11:02:04.001Z</time></trkpt><trkpt lat="45.528045890267904" lon="11.15714966354137"><ele>350.0</ele><time>2026-04-25T11:02:05.001Z</time></trkpt><trkpt lat="45.52798354971017" lon="11.15717364647639"><ele>350.0</ele><time>2026-04-25T11:02:06.001Z</time></trkpt><trkpt lat="45.52787801149597" lon="11.157116334116104"><ele>350.0</ele><time>2026-04-25T11:02:08.001Z</time></trkpt><trkpt lat="45.527789448343" lon="11.157082375830045"><ele>349.4</ele><time>2026-04-25T11:02:10.001Z</time></trkpt><trkpt lat="45.527721895141795" lon="11.157062482914249"><ele>348.8</ele><time>2026-04-25T11:02:20.001Z</time></trkpt><trkpt lat="45.527640888924694" lon="11.157068318336444"><ele>348.20000000000005</ele><time>2026-04-25T11:02:25.001Z</time></trkpt><trkpt lat="45.52754153827366" lon="11.157030203178516"><ele>347.6</ele><time>2026-04-25T11:02:31.001Z</time></trkpt><trkpt lat="45.52742958086092" lon="11.156970612200814"><ele>347.0</ele><time>2026-04-25T11:02:33.001Z</time></trkpt><trkpt lat="45.527321863521564" lon="11.15693185686885"><ele>347.0</ele><time>2026-04-25T11:02:35.001Z</time></trkpt><trkpt lat="45.52720346768872" lon="11.156955965764512"><ele>347.0</ele><time>2026-04-25T11:02:37.001Z</time></trkpt><trkpt lat="45.52713299611905" lon="11.156989661737986"><ele>347.0</ele><time>2026-04-25T11:02:38.001Z</time></trkpt><trkpt lat="45.52707064769672" lon="11.157022545475058"><ele>347.0</ele><time>2026-04-25T11:02:39.001Z</time></trkpt><trkpt lat="45.52700460683774" lon="11.157060663542335"><ele>347.0</ele><time>2026-04-25T11:02:40.001Z</time></trkpt><trkpt lat="45.52693334489061" lon="11.15709013538566"><ele>347.0</ele><time>2026-04-25T11:02:41.001Z</time></trkpt><trkpt lat="45.5268628220217" lon="11.157104550372877"><ele>346.6666666666667</ele><time>2026-04-25T11:02:42.001Z</time></trkpt><trkpt lat="45.52678555749971" lon="11.157107801963331"><ele>346.33333333333337</ele><time>2026-04-25T11:02:43.002Z</time></trkpt><trkpt lat="45.52671403549922" lon="11.15712069819178"><ele>346.0</ele><time>2026-04-25T11:02:44.002Z</time></trkpt><trkpt lat="45.52660821485308" lon="11.157092245377337"><ele>345.6666666666667</ele><time>2026-04-25T11:02:46.002Z</time></trkpt><trkpt lat="45.526549517303046" lon="11.15705958319107"><ele>345.3333333333333</ele><time>2026-04-25T11:02:47.002Z</time></trkpt><trkpt lat="45.526444651588086" lon="11.157060168873233"><ele>345.0</ele><time>2026-04-25T11:02:49.002Z</time></trkpt><trkpt lat="45.526391805816466" lon="11.157113101751154"><ele>345.0</ele><time>2026-04-25T11:02:50.002Z</time></trkpt><trkpt lat="45.526317331434335" lon="11.157176155767452"><ele>345.0</ele><time>2026-04-25T11:02:51.002Z</time></trkpt><trkpt lat="45.52625508807226" lon="11.157214017395503"><ele>345.0</ele><time>2026-04-25T11:02:52.002Z</time></trkpt><trkpt lat="45.526148544256735" lon="11.157225343477647"><ele>345.0</ele><time>2026-04-25T11:02:54.002Z</time></trkpt><trkpt lat="45.52604736549767" lon="11.157244901126575"><ele>345.0</ele><time>2026-04-25T11:03:00.002Z</time></trkpt><trkpt lat="45.525970997312605" lon="11.157247353748359"><ele>345.0</ele><time>2026-04-25T11:03:01.002Z</time></trkpt><trkpt lat="45.525888375854294" lon="11.157224673995115"><ele>344.6666666666667</ele><time>2026-04-25T11:03:02.002Z</time></trkpt><trkpt lat="45.52579439457089" lon="11.157205969015013"><ele>344.3333333333333</ele><time>2026-04-25T11:03:02.999Z</time></trkpt><trkpt lat="45.52571405028118" lon="11.157195296980108"><ele>344.0</ele><time>2026-04-25T11:03:03.999Z</time></trkpt><trkpt lat="45.525634318966404" lon="11.15719055583067"><ele>343.66666666666663</ele><time>2026-04-25T11:03:04.999Z</time></trkpt><trkpt lat="45.52556260025485" lon="11.157199743184963"><ele>343.3333333333333</ele><time>2026-04-25T11:03:05.999Z</time></trkpt><trkpt lat="45.52544589116959" lon="11.15720884025375"><ele>343.0</ele><time>2026-04-25T11:03:07.999Z</time></trkpt><trkpt lat="45.525334896498165" lon="11.157165725877693"><ele>342.2857142857143</ele><time>2026-04-25T11:03:09.999Z</time></trkpt><trkpt lat="45.525267165318695" lon="11.15713837104006"><ele>341.57142857142856</ele><time>2026-04-25T11:03:10.999Z</time></trkpt><trkpt lat="45.525188455157505" lon="11.157124006714787"><ele>340.8571428571429</ele><time>2026-04-25T11:03:11.999Z</time></trkpt><trkpt lat="45.52512107627736" lon="11.157102126142473"><ele>340.1428571428571</ele><time>2026-04-25T11:03:12.999Z</time></trkpt><trkpt lat="45.52504864851673" lon="11.157096360825427"><ele>339.42857142857144</ele><time>2026-04-25T11:03:13.999Z</time></trkpt><trkpt lat="45.52498005967222" lon="11.157083835973511"><ele>338.7142857142857</ele><time>2026-04-25T11:03:14.999Z</time></trkpt><trkpt lat="45.524905999089086" lon="11.157084524140535"><ele>338.0</ele><time>2026-04-25T11:03:15.999Z</time></trkpt><trkpt lat="45.524838902267504" lon="11.157070723451017"><ele>338.0</ele><time>2026-04-25T11:03:16.999Z</time></trkpt><trkpt lat="45.52477211763189" lon="11.15704283374523"><ele>338.0</ele><time>2026-04-25T11:03:17.999Z</time></trkpt><trkpt lat="45.524689882955954" lon="11.157001006611276"><ele>338.0</ele><time>2026-04-25T11:03:18.999Z</time></trkpt><trkpt lat="45.52460536761394" lon="11.15696305550695"><ele>338.0</ele><time>2026-04-25T11:03:19.999Z</time></trkpt><trkpt lat="45.52452977829778" lon="11.15691914145097"><ele>338.0</ele><time>2026-04-25T11:03:20.999Z</time></trkpt><trkpt lat="45.52446552498094" lon="11.156880878723882"><ele>338.0</ele><time>2026-04-25T11:03:21.999Z</time></trkpt><trkpt lat="45.52436798471439" lon="11.156876473595768"><ele>337.5</ele><time>2026-04-25T11:03:23.999Z</time></trkpt><trkpt lat="45.52431418342532" lon="11.156959822356015"><ele>337.0</ele><time>2026-04-25T11:03:25.999Z</time></trkpt><trkpt lat="45.524264405835524" lon="11.157023548130713"><ele>336.5</ele><time>2026-04-25T11:03:26.999Z</time></trkpt><trkpt lat="45.52417969009001" lon="11.157023218232393"><ele>336.0</ele><time>2026-04-25T11:03:28.999Z</time></trkpt><trkpt lat="45.524092323603874" lon="11.157058503114998"><ele>335.5</ele><time>2026-04-25T11:03:31Z</time></trkpt><trkpt lat="45.52403031045017" lon="11.157095882076577"><ele>335.0</ele><time>2026-04-25T11:03:32Z</time></trkpt><trkpt lat="45.52397012118995" lon="11.157122420488209"><ele>335.0</ele><time>2026-04-25T11:03:33Z</time></trkpt><trkpt lat="45.52391277758506" lon="11.157166188648256"><ele>335.0</ele><time>2026-04-25T11:03:34Z</time></trkpt><trkpt lat="45.52381765513693" lon="11.157176076911878"><ele>335.0</ele><time>2026-04-25T11:03:36Z</time></trkpt><trkpt lat="45.5237302178768" lon="11.157209824115409"><ele>335.0</ele><time>2026-04-25T11:03:38Z</time></trkpt><trkpt lat="45.523660435732175" lon="11.157196660729305"><ele>335.0</ele><time>2026-04-25T11:03:40Z</time></trkpt><trkpt lat="45.52353816529963" lon="11.157143737690772"><ele>335.0</ele><time>2026-04-25T11:03:42Z</time></trkpt><trkpt lat="45.52342448388874" lon="11.157136692287976"><ele>334.83333333333337</ele><time>2026-04-25T11:03:44Z</time></trkpt><trkpt lat="45.52336448858927" lon="11.157165472746284"><ele>334.6666666666667</ele><time>2026-04-25T11:03:46Z</time></trkpt><trkpt lat="45.523297772142456" lon="11.157224597243378"><ele>334.5</ele><time>2026-04-25T11:03:48Z</time></trkpt><trkpt lat="45.52320790124859" lon="11.157253859706007"><ele>334.3333333333333</ele><time>2026-04-25T11:03:50Z</time></trkpt><trkpt lat="45.523175304007204" lon="11.157167642998926"><ele>334.16666666666663</ele><time>2026-04-25T11:03:54Z</time></trkpt><trkpt lat="45.52313866213539" lon="11.157079754655129"><ele>334.0</ele><time>2026-04-25T11:03:58Z</time></trkpt><trkpt lat="45.52306406164853" lon="11.15710143578266"><ele>334.0</ele><time>2026-04-25T11:04:01Z</time></trkpt><trkpt lat="45.52298465653686" lon="11.157112271189556"><ele>334.0</ele><time>2026-04-25T11:04:04Z</time></trkpt><trkpt lat="45.52289390069476" lon="11.157141540582728"><ele>334.0</ele><time>2026-04-25T11:04:08.001Z</time></trkpt><trkpt lat="45.52282862791749" lon="11.157152255426574"><ele>334.0</ele><time>2026-04-25T11:04:10.001Z</time></trkpt><trkpt lat="45.52272047765751" lon="11.157204458735235"><ele>334.0</ele><time>2026-04-25T11:04:12.001Z</time></trkpt><trkpt lat="45.52267191143837" lon="11.157286213333728"><ele>334.0</ele><time>2026-04-25T11:04:14.001Z</time></trkpt><trkpt lat="45.52256549997517" lon="11.157264859882154"><ele>334.3333333333333</ele><time>2026-04-25T11:04:17.001Z</time></trkpt><trkpt lat="45.522539012741554" lon="11.157179042024"><ele>334.66666666666663</ele><time>2026-04-25T11:04:19.001Z</time></trkpt><trkpt lat="45.52254110362986" lon="11.157027700316732"><ele>335.0</ele><time>2026-04-25T11:04:54.002Z</time></trkpt><trkpt lat="45.52253090710097" lon="11.156928159627988"><ele>335.3333333333333</ele><time>2026-04-25T11:04:55.002Z</time></trkpt><trkpt lat="45.522507859492066" lon="11.15681705570515"><ele>335.6666666666667</ele><time>2026-04-25T11:04:56.002Z</time></trkpt><trkpt lat="45.522482796411396" lon="11.156680089390374"><ele>336.0</ele><time>2026-04-25T11:04:57.002Z</time></trkpt><trkpt lat="45.5224574119715" lon="11.156535574883463"><ele>336.8</ele><time>2026-04-25T11:04:58.002Z</time></trkpt><trkpt lat="45.522422928524286" lon="11.156404409033343"><ele>337.6</ele><time>2026-04-25T11:04:59.002Z</time></trkpt><trkpt lat="45.52238381393797" lon="11.156296704207133"><ele>338.4</ele><time>2026-04-25T11:05:00.002Z</time></trkpt><trkpt lat="45.52235567036909" lon="11.156183411926"><ele>339.2</ele><time>2026-04-25T11:05:01.002Z</time></trkpt><trkpt lat="45.522302737318995" lon="11.156060027457503"><ele>340.0</ele><time>2026-04-25T11:05:02.002Z</time></trkpt><trkpt lat="45.52225221866136" lon="11.155942272508698"><ele>340.0</ele><time>2026-04-25T11:05:03.002Z</time></trkpt><trkpt lat="45.522211929918136" lon="11.155845559888217"><ele>340.0</ele><time>2026-04-25T11:05:04.002Z</time></trkpt><trkpt lat="45.52217941870424" lon="11.155762875150003"><ele>340.0</ele><time>2026-04-25T11:05:05.002Z</time></trkpt><trkpt lat="45.52213407434326" lon="11.15566140652406"><ele>340.0</ele><time>2026-04-25T11:05:07.002Z</time></trkpt><trkpt lat="45.52218398246964" lon="11.155555993482782"><ele>340.0</ele><time>2026-04-25T11:05:08.002Z</time></trkpt><trkpt lat="45.522161932547625" lon="11.15541558182727"><ele>340.0</ele><time>2026-04-25T11:05:08.998Z</time></trkpt><trkpt lat="45.52214874945416" lon="11.155255083237016"><ele>340.0</ele><time>2026-04-25T11:05:09.998Z</time></trkpt><trkpt lat="45.52213048101049" lon="11.155138661031575"><ele>340.0</ele><time>2026-04-25T11:05:10.999Z</time></trkpt><trkpt lat="45.52211806950621" lon="11.155041266064702"><ele>340.0</ele><time>2026-04-25T11:05:13.999Z</time></trkpt><trkpt lat="45.521937066119854" lon="11.155129459446222"><ele>340.0</ele><time>2026-04-25T11:05:15.999Z</time></trkpt><trkpt lat="45.52185543020603" lon="11.15523136931806"><ele>340.0</ele><time>2026-04-25T11:05:16.999Z</time></trkpt><trkpt lat="45.52174660019532" lon="11.15529659717848"><ele>340.0</ele><time>2026-04-25T11:05:17.999Z</time></trkpt><trkpt lat="45.52165882471789" lon="11.155372175396101"><ele>340.0</ele><time>2026-04-25T11:05:18.999Z</time></trkpt><trkpt lat="45.52157931008156" lon="11.155437586917603"><ele>340.0</ele><time>2026-04-25T11:05:19.999Z</time></trkpt><trkpt lat="45.52151442167548" lon="11.155464244657955"><ele>340.0</ele><time>2026-04-25T11:05:21.999Z</time></trkpt><trkpt lat="45.52148528748631" lon="11.15526304382924"><ele>340.0</ele><time>2026-04-25T11:05:23.999Z</time></trkpt><trkpt lat="45.52143762050403" lon="11.155139665452822"><ele>340.0</ele><time>2026-04-25T11:05:24.999Z</time></trkpt><trkpt lat="45.5214084302949" lon="11.155004930559604"><ele>340.0</ele><time>2026-04-25T11:05:25.999Z</time></trkpt><trkpt lat="45.521364887741065" lon="11.154917318860232"><ele>340.0</ele><time>2026-04-25T11:05:26.999Z</time></trkpt><trkpt lat="45.52130547173529" lon="11.154875650286124"><ele>340.0</ele><time>2026-04-25T11:05:27.999Z</time></trkpt><trkpt lat="45.52120454944764" lon="11.154885663063514"><ele>340.0</ele><time>2026-04-25T11:05:28.999Z</time></trkpt><trkpt lat="45.52110334328483" lon="11.154857153195726"><ele>339.8</ele><time>2026-04-25T11:05:29.999Z</time></trkpt><trkpt lat="45.521016179328036" lon="11.154806397709288"><ele>339.6</ele><time>2026-04-25T11:05:30.999Z</time></trkpt><trkpt lat="45.52095442095713" lon="11.15475894347533"><ele>339.4</ele><time>2026-04-25T11:05:31.999Z</time></trkpt><trkpt lat="45.52097959185585" lon="11.154596503008461"><ele>339.2</ele><time>2026-04-25T11:05:32.999Z</time></trkpt><trkpt lat="45.520877206807384" lon="11.154500507110999"><ele>339.0</ele><time>2026-04-25T11:05:33.999Z</time></trkpt><trkpt lat="45.52081870286634" lon="11.15434563674175"><ele>339.0</ele><time>2026-04-25T11:05:34.999Z</time></trkpt><trkpt lat="45.5207755997034" lon="11.154171948002169"><ele>339.0</ele><time>2026-04-25T11:05:36Z</time></trkpt><trkpt lat="45.52073778304193" lon="11.153981765847941"><ele>339.0</ele><time>2026-04-25T11:05:37Z</time></trkpt><trkpt lat="45.52069221294048" lon="11.153821742538796"><ele>339.0</ele><time>2026-04-25T11:05:38Z</time></trkpt><trkpt lat="45.52068742228892" lon="11.15363463039997"><ele>339.25</ele><time>2026-04-25T11:05:39Z</time></trkpt><trkpt lat="45.52063528698021" lon="11.153450763508276"><ele>339.5</ele><time>2026-04-25T11:05:40Z</time></trkpt><trkpt lat="45.52060749217673" lon="11.153279478532795"><ele>339.75</ele><time>2026-04-25T11:05:41Z</time></trkpt><trkpt lat="45.52063954851065" lon="11.153113980107237"><ele>340.0</ele><time>2026-04-25T11:05:42Z</time></trkpt><trkpt lat="45.52062277518898" lon="11.152985336261136"><ele>341.25</ele><time>2026-04-25T11:05:43Z</time></trkpt><trkpt lat="45.520603467279" lon="11.152837251322019"><ele>342.5</ele><time>2026-04-25T11:05:44Z</time></trkpt><trkpt lat="45.52058264278465" lon="11.152677533920944"><ele>343.75</ele><time>2026-04-25T11:05:45Z</time></trkpt><trkpt lat="45.520561639994845" lon="11.152516449067138"><ele>345.0</ele><time>2026-04-25T11:05:46Z</time></trkpt><trkpt lat="45.520426026455816" lon="11.152382004063883"><ele>349.2</ele><time>2026-04-25T11:05:47Z</time></trkpt><trkpt lat="45.52035295297715" lon="11.152232656963472"><ele>353.4</ele><time>2026-04-25T11:05:48Z</time></trkpt><trkpt lat="45.520290339488085" lon="11.152091841084781"><ele>357.6</ele><time>2026-04-25T11:05:49Z</time></trkpt><trkpt lat="45.520246361996385" lon="11.151962943755212"><ele>361.8</ele><time>2026-04-25T11:05:50Z</time></trkpt><trkpt lat="45.52020754386933" lon="11.151842133121946"><ele>366.0</ele><time>2026-04-25T11:05:51Z</time></trkpt><trkpt lat="45.52017471964651" lon="11.151744811103955"><ele>366.0</ele><time>2026-04-25T11:05:52Z</time></trkpt><trkpt lat="45.52014765212356" lon="11.151650697145168"><ele>366.0</ele><time>2026-04-25T11:05:53Z</time></trkpt><trkpt lat="45.52006891499369" lon="11.151573791454407"><ele>366.0</ele><time>2026-04-25T11:05:55Z</time></trkpt><trkpt lat="45.51997047445443" lon="11.151622965270459"><ele>366.0</ele><time>2026-04-25T11:05:57Z</time></trkpt><trkpt lat="45.519906969868046" lon="11.151714059203298"><ele>366.0</ele><time>2026-04-25T11:05:59Z</time></trkpt><trkpt lat="45.51992004541915" lon="11.151874461573204"><ele>366.0</ele><time>2026-04-25T11:06:01Z</time></trkpt><trkpt lat="45.51994335719001" lon="11.151976955970998"><ele>366.0</ele><time>2026-04-25T11:06:03Z</time></trkpt><trkpt lat="45.51986570356867" lon="11.152033295520647"><ele>366.0</ele><time>2026-04-25T11:06:06.001Z</time></trkpt><trkpt lat="45.519799204112005" lon="11.152096662212319"><ele>366.0</ele><time>2026-04-25T11:06:08.001Z</time></trkpt><trkpt lat="45.519737811546506" lon="11.152152576157988"><ele>366.0</ele><time>2026-04-25T11:06:10.001Z</time></trkpt><trkpt lat="45.51966370299033" lon="11.152230799505064"><ele>366.0</ele><time>2026-04-25T11:06:12.001Z</time></trkpt><trkpt lat="45.51958682424007" lon="11.152262427506608"><ele>371.1666666666667</ele><time>2026-04-25T11:06:15.001Z</time></trkpt><trkpt lat="45.51950661828766" lon="11.152290924505483"><ele>376.33333333333337</ele><time>2026-04-25T11:06:18.001Z</time></trkpt><trkpt lat="45.51942724853371" lon="11.152267266886254"><ele>381.5</ele><time>2026-04-25T11:06:20.001Z</time></trkpt><trkpt lat="45.51933428590839" lon="11.15228854785321"><ele>386.6666666666667</ele><time>2026-04-25T11:06:22.001Z</time></trkpt><trkpt lat="45.519263647439395" lon="11.152232642549603"><ele>391.83333333333337</ele><time>2026-04-25T11:06:24.001Z</time></trkpt><trkpt lat="45.51917291774876" lon="11.152243541501864"><ele>397.0</ele><time>2026-04-25T11:06:26.001Z</time></trkpt><trkpt lat="45.519104183665895" lon="11.152271438113875"><ele>397.0</ele><time>2026-04-25T11:06:27.001Z</time></trkpt><trkpt lat="45.51902542788492" lon="11.152334294223873"><ele>397.0</ele><time>2026-04-25T11:06:29.001Z</time></trkpt><trkpt lat="45.5189298216234" lon="11.15246938063915"><ele>397.0</ele><time>2026-04-25T11:06:31.001Z</time></trkpt><trkpt lat="45.51890445808438" lon="11.152601516437006"><ele>397.0</ele><time>2026-04-25T11:06:33.001Z</time></trkpt><trkpt lat="45.51883102078907" lon="11.152690620569153"><ele>397.0</ele><time>2026-04-25T11:06:35.001Z</time></trkpt><trkpt lat="45.51878241244659" lon="11.152836798535226"><ele>395.00000000000006</ele><time>2026-04-25T11:06:38.001Z</time></trkpt><trkpt lat="45.51872896539463" lon="11.152929240144475"><ele>393.0</ele><time>2026-04-25T11:06:40.001Z</time></trkpt><trkpt lat="45.518649790731324" lon="11.153010655997404"><ele>391.0</ele><time>2026-04-25T11:06:42.002Z</time></trkpt><trkpt lat="45.518578796643965" lon="11.153006489834839"><ele>389.0</ele><time>2026-04-25T11:06:43.002Z</time></trkpt><trkpt lat="45.51851284501447" lon="11.152962355706585"><ele>387.00000000000006</ele><time>2026-04-25T11:06:45.002Z</time></trkpt><trkpt lat="45.51846297917392" lon="11.152899675695208"><ele>385.0</ele><time>2026-04-25T11:06:48.002Z</time></trkpt><trkpt lat="45.51850410978236" lon="11.152809479681508"><ele>385.00000000000006</ele><time>2026-04-25T11:06:50.002Z</time></trkpt><trkpt lat="45.518528088482356" lon="11.152725009363682"><ele>385.0</ele><time>2026-04-25T11:06:52.002Z</time></trkpt><trkpt lat="45.518529470579146" lon="11.152603720295923"><ele>385.0</ele><time>2026-04-25T11:06:54.002Z</time></trkpt><trkpt lat="45.51849113486702" lon="11.1524647021128"><ele>385.0</ele><time>2026-04-25T11:06:56.002Z</time></trkpt><trkpt lat="45.518435380710585" lon="11.152385912267018"><ele>385.00000000000006</ele><time>2026-04-25T11:06:58.002Z</time></trkpt><trkpt lat="45.51836560943504" lon="11.152323194906876"><ele>385.0</ele><time>2026-04-25T11:07:01.002Z</time></trkpt><trkpt lat="45.51829210494869" lon="11.152252169457253"><ele>388.0</ele><time>2026-04-25T11:07:22.999Z</time></trkpt><trkpt lat="45.518192385139095" lon="11.152218940631611"><ele>391.0</ele><time>2026-04-25T11:07:24.999Z</time></trkpt><trkpt lat="45.51811274198358" lon="11.152168586507312"><ele>394.0</ele><time>2026-04-25T11:07:26.999Z</time></trkpt><trkpt lat="45.51803260350253" lon="11.152050353847766"><ele>397.0</ele><time>2026-04-25T11:07:28.999Z</time></trkpt><trkpt lat="45.517953255978455" lon="11.151932231546205"><ele>400.0</ele><time>2026-04-25T11:07:30.999Z</time></trkpt><trkpt lat="45.517919621281315" lon="11.151828480812767"><ele>400.0</ele><time>2026-04-25T11:07:31.999Z</time></trkpt><trkpt lat="45.51793181038119" lon="11.15170104629498"><ele>400.0</ele><time>2026-04-25T11:07:34Z</time></trkpt><trkpt lat="45.5179573492783" lon="11.151609411336352"><ele>400.0</ele><time>2026-04-25T11:07:35Z</time></trkpt><trkpt lat="45.517929361048495" lon="11.151452003948492"><ele>400.0</ele><time>2026-04-25T11:07:37Z</time></trkpt><trkpt lat="45.517905836554576" lon="11.151363497447147"><ele>400.0</ele><time>2026-04-25T11:07:38Z</time></trkpt><trkpt lat="45.51788544357071" lon="11.151197148869592"><ele>399.00000000000006</ele><time>2026-04-25T11:07:40Z</time></trkpt><trkpt lat="45.517877315244775" lon="11.151089612181444"><ele>398.0</ele><time>2026-04-25T11:07:41Z</time></trkpt><trkpt lat="45.5178860199228" lon="11.150990502974896"><ele>397.0</ele><time>2026-04-25T11:07:42Z</time></trkpt><trkpt lat="45.51793288896034" lon="11.150853568574744"><ele>396.0</ele><time>2026-04-25T11:07:44Z</time></trkpt><trkpt lat="45.5179180307919" lon="11.150724816026782"><ele>395.00000000000006</ele><time>2026-04-25T11:07:46Z</time></trkpt><trkpt lat="45.51787184009969" lon="11.150617541761315"><ele>394.0</ele><time>2026-04-25T11:07:48Z</time></trkpt><trkpt lat="45.51778041956692" lon="11.150553166934877"><ele>397.50000000000006</ele><time>2026-04-25T11:07:50Z</time></trkpt><trkpt lat="45.517666692189984" lon="11.150510646559082"><ele>401.0</ele><time>2026-04-25T11:07:52Z</time></trkpt><trkpt lat="45.51760991159508" lon="11.150470999918184"><ele>404.5</ele><time>2026-04-25T11:07:53Z</time></trkpt><trkpt lat="45.517521082766585" lon="11.150428877697909"><ele>408.0</ele><time>2026-04-25T11:07:55Z</time></trkpt><trkpt lat="45.517454608269055" lon="11.15039157463966"><ele>411.50000000000006</ele><time>2026-04-25T11:07:57Z</time></trkpt><trkpt lat="45.51737981878378" lon="11.150344464155523"><ele>415.0</ele><time>2026-04-25T11:07:59Z</time></trkpt><trkpt lat="45.517299690394495" lon="11.150234885359568"><ele>415.0</ele><time>2026-04-25T11:08:01.001Z</time></trkpt><trkpt lat="45.51725309824602" lon="11.150160662217063"><ele>415.0</ele><time>2026-04-25T11:08:02.001Z</time></trkpt><trkpt lat="45.517216023788855" lon="11.150069354642994"><ele>415.0</ele><time>2026-04-25T11:08:03.001Z</time></trkpt><trkpt lat="45.51717259225738" lon="11.14998716717117"><ele>415.0</ele><time>2026-04-25T11:08:04.001Z</time></trkpt><trkpt lat="45.51713759743148" lon="11.149907804903979"><ele>415.0</ele><time>2026-04-25T11:08:05.001Z</time></trkpt><trkpt lat="45.5171246136547" lon="11.14981242125744"><ele>415.0</ele><time>2026-04-25T11:08:06.001Z</time></trkpt><trkpt lat="45.517082430511266" lon="11.149718808956163"><ele>415.0</ele><time>2026-04-25T11:08:07.001Z</time></trkpt><trkpt lat="45.517044669466095" lon="11.149638605593818"><ele>414.1666666666667</ele><time>2026-04-25T11:08:08.001Z</time></trkpt><trkpt lat="45.516977068986954" lon="11.149468107663504"><ele>413.33333333333337</ele><time>2026-04-25T11:08:10.001Z</time></trkpt><trkpt lat="45.51694239272978" lon="11.149389102726072"><ele>412.5</ele><time>2026-04-25T11:08:11.001Z</time></trkpt><trkpt lat="45.51690590779047" lon="11.149289487061415"><ele>411.66666666666663</ele><time>2026-04-25T11:08:12.001Z</time></trkpt><trkpt lat="45.516860162718466" lon="11.14917090896967"><ele>410.8333333333333</ele><time>2026-04-25T11:08:13.001Z</time></trkpt><trkpt lat="45.516825484752985" lon="11.14908985735475"><ele>410.0</ele><time>2026-04-25T11:08:14.001Z</time></trkpt><trkpt lat="45.516798521561896" lon="11.148991583899388"><ele>412.3333333333333</ele><time>2026-04-25T11:08:15.001Z</time></trkpt><trkpt lat="45.51677805953377" lon="11.148904726719184"><ele>414.66666666666663</ele><time>2026-04-25T11:08:16.001Z</time></trkpt><trkpt lat="45.51675420863074" lon="11.148768637893236"><ele>417.0</ele><time>2026-04-25T11:08:18.001Z</time></trkpt><trkpt lat="45.51675532765773" lon="11.148646929916481"><ele>419.33333333333337</ele><time>2026-04-25T11:08:20.001Z</time></trkpt><trkpt lat="45.51675954717778" lon="11.148545137161038"><ele>421.6666666666667</ele><time>2026-04-25T11:08:21.001Z</time></trkpt><trkpt lat="45.51677116268087" lon="11.14843484972871"><ele>424.0</ele><time>2026-04-25T11:08:22.001Z</time></trkpt><trkpt lat="45.516788027180326" lon="11.148323476651232"><ele>424.0</ele><time>2026-04-25T11:08:23.001Z</time></trkpt><trkpt lat="45.51679184612936" lon="11.148227940218991"><ele>424.0</ele><time>2026-04-25T11:08:24.001Z</time></trkpt><trkpt lat="45.51673255430261" lon="11.148084738795237"><ele>424.0</ele><time>2026-04-25T11:08:26.001Z</time></trkpt><trkpt lat="45.51668633971005" lon="11.147987411396004"><ele>424.0</ele><time>2026-04-25T11:08:27.001Z</time></trkpt><trkpt lat="45.516680933510315" lon="11.147860435528827"><ele>424.0</ele><time>2026-04-25T11:08:29.001Z</time></trkpt><trkpt lat="45.51673565599165" lon="11.147740226123755"><ele>427.2</ele><time>2026-04-25T11:08:31.001Z</time></trkpt><trkpt lat="45.51667193189134" lon="11.147654413835227"><ele>430.4</ele><time>2026-04-25T11:08:33.002Z</time></trkpt><trkpt lat="45.516512645325406" lon="11.147641972197638"><ele>433.6</ele><time>2026-04-25T11:08:35.002Z</time></trkpt><trkpt lat="45.51639729801082" lon="11.147633455937896"><ele>436.8</ele><time>2026-04-25T11:08:36.002Z</time></trkpt><trkpt lat="45.51631478761373" lon="11.147600995195619"><ele>440.0</ele><time>2026-04-25T11:08:37.002Z</time></trkpt><trkpt lat="45.51624591609461" lon="11.147583464644654"><ele>440.99999999999994</ele><time>2026-04-25T11:08:38.002Z</time></trkpt><trkpt lat="45.51618084122629" lon="11.147577318479218"><ele>442.0</ele><time>2026-04-25T11:08:39.002Z</time></trkpt><trkpt lat="45.516108925293544" lon="11.147573316857768"><ele>443.0</ele><time>2026-04-25T11:08:40.002Z</time></trkpt><trkpt lat="45.51601624569112" lon="11.147611514868638"><ele>444.0</ele><time>2026-04-25T11:08:42.002Z</time></trkpt><trkpt lat="45.51596207794208" lon="11.147767861630369"><ele>444.99999999999994</ele><time>2026-04-25T11:08:44.002Z</time></trkpt><trkpt lat="45.51593779142683" lon="11.147859152215299"><ele>446.0</ele><time>2026-04-25T11:08:45.002Z</time></trkpt><trkpt lat="45.5158739993854" lon="11.148030700871928"><ele>446.0</ele><time>2026-04-25T11:08:47.002Z</time></trkpt><trkpt lat="45.51581914159869" lon="11.148092072313196"><ele>446.0</ele><time>2026-04-25T11:08:48.002Z</time></trkpt><trkpt lat="45.51575633497698" lon="11.148130244790213"><ele>446.0</ele><time>2026-04-25T11:08:49.002Z</time></trkpt><trkpt lat="45.5156890322693" lon="11.148130326000604"><ele>446.0</ele><time>2026-04-25T11:08:50.002Z</time></trkpt><trkpt lat="45.51562496154732" lon="11.148087706796602"><ele>446.0</ele><time>2026-04-25T11:08:51.002Z</time></trkpt><trkpt lat="45.515575359818776" lon="11.148022467785559"><ele>446.0</ele><time>2026-04-25T11:08:52.002Z</time></trkpt><trkpt lat="45.51552803407659" lon="11.147961050770025"><ele>446.0</ele><time>2026-04-25T11:08:53.002Z</time></trkpt><trkpt lat="45.51544153309832" lon="11.147914528259868"><ele>446.3333333333333</ele><time>2026-04-25T11:08:55.002Z</time></trkpt><trkpt lat="45.515358147687074" lon="11.14787595829628"><ele>446.66666666666663</ele><time>2026-04-25T11:08:56.002Z</time></trkpt><trkpt lat="45.51526993288479" lon="11.147825186852693"><ele>447.0</ele><time>2026-04-25T11:08:57.002Z</time></trkpt><trkpt lat="45.51519245945804" lon="11.14780140504466"><ele>447.33333333333337</ele><time>2026-04-25T11:08:58.002Z</time></trkpt><trkpt lat="45.51510292444089" lon="11.147772097499006"><ele>447.6666666666667</ele><time>2026-04-25T11:08:59.002Z</time></trkpt><trkpt lat="45.51503322348139" lon="11.147742659475012"><ele>448.0</ele><time>2026-04-25T11:09:00.002Z</time></trkpt><trkpt lat="45.514959797479136" lon="11.1477284384425"><ele>448.0</ele><time>2026-04-25T11:09:01.002Z</time></trkpt><trkpt lat="45.51486451109734" lon="11.14769948272371"><ele>447.99999999999994</ele><time>2026-04-25T11:09:02.002Z</time></trkpt><trkpt lat="45.51476218927692" lon="11.147653034660507"><ele>447.99999999999994</ele><time>2026-04-25T11:09:03.002Z</time></trkpt><trkpt lat="45.514657065509454" lon="11.147630787187568"><ele>448.0</ele><time>2026-04-25T11:09:04.002Z</time></trkpt><trkpt lat="45.51455152726376" lon="11.147622286652014"><ele>448.0</ele><time>2026-04-25T11:09:05.002Z</time></trkpt><trkpt lat="45.514434581614196" lon="11.147603987953428"><ele>448.79999999999995</ele><time>2026-04-25T11:09:06.003Z</time></trkpt><trkpt lat="45.514315735674764" lon="11.147564586861888"><ele>449.59999999999997</ele><time>2026-04-25T11:09:07.003Z</time></trkpt><trkpt lat="45.514203898356826" lon="11.147529171248733"><ele>450.40000000000003</ele><time>2026-04-25T11:09:08.003Z</time></trkpt><trkpt lat="45.5141048602741" lon="11.147522867240486"><ele>451.20000000000005</ele><time>2026-04-25T11:09:09.003Z</time></trkpt><trkpt lat="45.51399313531484" lon="11.147510921971907"><ele>452.0</ele><time>2026-04-25T11:09:10.003Z</time></trkpt><trkpt lat="45.5138854147357" lon="11.147513553334068"><ele>452.0</ele><time>2026-04-25T11:09:11.003Z</time></trkpt><trkpt lat="45.513781202809255" lon="11.147526550172445"><ele>452.00000000000006</ele><time>2026-04-25T11:09:12.003Z</time></trkpt><trkpt lat="45.51370365343711" lon="11.147549586367381"><ele>452.00000000000006</ele><time>2026-04-25T11:09:13.003Z</time></trkpt><trkpt lat="45.51362981592846" lon="11.147595134341104"><ele>452.0</ele><time>2026-04-25T11:09:14.003Z</time></trkpt><trkpt lat="45.513549929462194" lon="11.147668136146335"><ele>452.0</ele><time>2026-04-25T11:09:15.003Z</time></trkpt><trkpt lat="45.51346152014589" lon="11.14774538736783"><ele>453.6</ele><time>2026-04-25T11:09:16.003Z</time></trkpt><trkpt lat="45.51336743611066" lon="11.147834585807315"><ele>455.20000000000005</ele><time>2026-04-25T11:09:17.003Z</time></trkpt><trkpt lat="45.513277313514045" lon="11.147909662789505"><ele>456.8</ele><time>2026-04-25T11:09:18.003Z</time></trkpt><trkpt lat="45.51318641704882" lon="11.147978305335526"><ele>458.4</ele><time>2026-04-25T11:09:19.003Z</time></trkpt><trkpt lat="45.5131000552021" lon="11.14806928607821"><ele>460.0</ele><time>2026-04-25T11:09:20.003Z</time></trkpt><trkpt lat="45.51300632276529" lon="11.14816156166655"><ele>460.2</ele><time>2026-04-25T11:09:21.001Z</time></trkpt><trkpt lat="45.51291147160061" lon="11.148253558486674"><ele>460.4</ele><time>2026-04-25T11:09:22.001Z</time></trkpt><trkpt lat="45.51282629163982" lon="11.14835432876255"><ele>460.6</ele><time>2026-04-25T11:09:23.001Z</time></trkpt><trkpt lat="45.51274680172427" lon="11.148464865714534"><ele>460.8</ele><time>2026-04-25T11:09:24.001Z</time></trkpt><trkpt lat="45.51267429468328" lon="11.148585831822777"><ele>461.0</ele><time>2026-04-25T11:09:25.001Z</time></trkpt><trkpt lat="45.512590342845705" lon="11.148693359770895"><ele>461.0</ele><time>2026-04-25T11:09:26.001Z</time></trkpt><trkpt lat="45.51248861338436" lon="11.148785193154064"><ele>461.0</ele><time>2026-04-25T11:09:27.001Z</time></trkpt><trkpt lat="45.51238509751991" lon="11.148870131366639"><ele>461.0</ele><time>2026-04-25T11:09:28.001Z</time></trkpt><trkpt lat="45.51229209607898" lon="11.148937517571444"><ele>461.0</ele><time>2026-04-25T11:09:29.001Z</time></trkpt><trkpt lat="45.51221785050801" lon="11.149012475477429"><ele>461.0</ele><time>2026-04-25T11:09:30.001Z</time></trkpt><trkpt lat="45.51216669655055" lon="11.149112663093522"><ele>458.66666666666663</ele><time>2026-04-25T11:09:32.001Z</time></trkpt><trkpt lat="45.51215816284086" lon="11.14920580557639"><ele>456.3333333333333</ele><time>2026-04-25T11:09:33.001Z</time></trkpt><trkpt lat="45.51215002611151" lon="11.149337773952483"><ele>454.0</ele><time>2026-04-25T11:09:34.001Z</time></trkpt><trkpt lat="45.512156854024674" lon="11.149438182348675"><ele>451.66666666666663</ele><time>2026-04-25T11:09:35.001Z</time></trkpt><trkpt lat="45.51211866439229" lon="11.149576287787546"><ele>449.3333333333333</ele><time>2026-04-25T11:09:37.001Z</time></trkpt><trkpt lat="45.51205266336819" lon="11.149635074927849"><ele>447.0</ele><time>2026-04-25T11:09:39.001Z</time></trkpt><trkpt lat="45.5119902954579" lon="11.149583052693556"><ele>446.8</ele><time>2026-04-25T11:09:41.001Z</time></trkpt><trkpt lat="45.51188821214476" lon="11.14945935775574"><ele>446.6</ele><time>2026-04-25T11:09:43.001Z</time></trkpt><trkpt lat="45.511826643317335" lon="11.149368389190698"><ele>446.40000000000003</ele><time>2026-04-25T11:09:44.001Z</time></trkpt><trkpt lat="45.51177861145647" lon="11.14925291602651"><ele>446.20000000000005</ele><time>2026-04-25T11:09:45.001Z</time></trkpt><trkpt lat="45.511709735922885" lon="11.149133422001238"><ele>446.0</ele><time>2026-04-25T11:09:46.001Z</time></trkpt><trkpt lat="45.511639766207615" lon="11.14899114458789"><ele>448.5</ele><time>2026-04-25T11:09:47.001Z</time></trkpt><trkpt lat="45.511548133076744" lon="11.148865561704419"><ele>451.0</ele><time>2026-04-25T11:09:48.001Z</time></trkpt><trkpt lat="45.511461892688594" lon="11.148731867800763"><ele>453.5</ele><time>2026-04-25T11:09:49.001Z</time></trkpt><trkpt lat="45.51137981943355" lon="11.148613650545515"><ele>456.0</ele><time>2026-04-25T11:09:50.001Z</time></trkpt><trkpt lat="45.511285682129106" lon="11.148507165675495"><ele>455.20000000000005</ele><time>2026-04-25T11:09:51.001Z</time></trkpt><trkpt lat="45.51119323847277" lon="11.148418021798884"><ele>454.40000000000003</ele><time>2026-04-25T11:09:52.001Z</time></trkpt><trkpt lat="45.51109752129927" lon="11.148342748135178"><ele>453.6</ele><time>2026-04-25T11:09:53.001Z</time></trkpt><trkpt lat="45.51099380323655" lon="11.148269853733984"><ele>452.8</ele><time>2026-04-25T11:09:54.001Z</time></trkpt><trkpt lat="45.510906024421715" lon="11.148177573999789"><ele>452.0</ele><time>2026-04-25T11:09:55.001Z</time></trkpt><trkpt lat="45.51082005282625" lon="11.148064247609813"><ele>452.0</ele><time>2026-04-25T11:09:56.001Z</time></trkpt><trkpt lat="45.510728973746076" lon="11.14793484552472"><ele>452.0</ele><time>2026-04-25T11:09:57.001Z</time></trkpt><trkpt lat="45.510633743620694" lon="11.147806075369791"><ele>452.0</ele><time>2026-04-25T11:09:58.001Z</time></trkpt><trkpt lat="45.51054590740415" lon="11.147667507825734"><ele>452.0</ele><time>2026-04-25T11:09:59.001Z</time></trkpt><trkpt lat="45.510458736933785" lon="11.147543868908139"><ele>452.0</ele><time>2026-04-25T11:10:00.001Z</time></trkpt><trkpt lat="45.51035848064901" lon="11.147436863309727"><ele>452.0</ele><time>2026-04-25T11:10:01.001Z</time></trkpt><trkpt lat="45.51024993613084" lon="11.14734415325065"><ele>452.0</ele><time>2026-04-25T11:10:02.001Z</time></trkpt><trkpt lat="45.510130165906816" lon="11.14726295323961"><ele>452.0</ele><time>2026-04-25T11:10:03.001Z</time></trkpt><trkpt lat="45.510003957028346" lon="11.14721877871192"><ele>452.0</ele><time>2026-04-25T11:10:04.002Z</time></trkpt><trkpt lat="45.509896102425685" lon="11.147173965498498"><ele>452.00000000000006</ele><time>2026-04-25T11:10:05.002Z</time></trkpt><trkpt lat="45.509789542984" lon="11.147128927672531"><ele>452.00000000000006</ele><time>2026-04-25T11:10:06.002Z</time></trkpt><trkpt lat="45.50967805297397" lon="11.147124204943413"><ele>452.0</ele><time>2026-04-25T11:10:07.002Z</time></trkpt><trkpt lat="45.50957635934328" lon="11.147112633978272"><ele>452.0</ele><time>2026-04-25T11:10:08.002Z</time></trkpt><trkpt lat="45.5094800874159" lon="11.147073279353846"><ele>451.40000000000003</ele><time>2026-04-25T11:10:09.002Z</time></trkpt><trkpt lat="45.509374874404706" lon="11.147031171785104"><ele>450.80000000000007</ele><time>2026-04-25T11:10:10.002Z</time></trkpt><trkpt lat="45.509260629699185" lon="11.147038908973158"><ele>450.2</ele><time>2026-04-25T11:10:11.002Z</time></trkpt><trkpt lat="45.509160554110885" lon="11.147003509505941"><ele>449.6</ele><time>2026-04-25T11:10:12.002Z</time></trkpt><trkpt lat="45.50906571219842" lon="11.146954726664898"><ele>449.0</ele><time>2026-04-25T11:10:13.002Z</time></trkpt><trkpt lat="45.50897633741309" lon="11.146877808436649"><ele>449.0</ele><time>2026-04-25T11:10:14.002Z</time></trkpt><trkpt lat="45.50889290547888" lon="11.146783265676547"><ele>449.0</ele><time>2026-04-25T11:10:15.002Z</time></trkpt><trkpt lat="45.508815704516756" lon="11.146680941521659"><ele>449.0</ele><time>2026-04-25T11:10:16.002Z</time></trkpt><trkpt lat="45.508745535169204" lon="11.146575138083527"><ele>449.0</ele><time>2026-04-25T11:10:17.002Z</time></trkpt><trkpt lat="45.508670417733875" lon="11.146477461918252"><ele>449.0</ele><time>2026-04-25T11:10:18.002Z</time></trkpt><trkpt lat="45.5086029377121" lon="11.14639784205415"><ele>448.6</ele><time>2026-04-25T11:10:19.002Z</time></trkpt><trkpt lat="45.50855335798492" lon="11.14633319453302"><ele>448.2</ele><time>2026-04-25T11:10:20.002Z</time></trkpt><trkpt lat="45.50847939502386" lon="11.146256488367097"><ele>447.80000000000007</ele><time>2026-04-25T11:10:23.002Z</time></trkpt><trkpt lat="45.50840523107918" lon="11.146180759804736"><ele>447.40000000000003</ele><time>2026-04-25T11:10:25.002Z</time></trkpt><trkpt lat="45.508332241654436" lon="11.14604298756971"><ele>447.0</ele><time>2026-04-25T11:10:27.002Z</time></trkpt><trkpt lat="45.50829068416034" lon="11.145906154616526"><ele>447.0</ele><time>2026-04-25T11:10:29.002Z</time></trkpt><trkpt lat="45.50821426973044" lon="11.145885024218929"><ele>447.00000000000006</ele><time>2026-04-25T11:10:31.002Z</time></trkpt><trkpt lat="45.50811036019481" lon="11.146013737212376"><ele>447.00000000000006</ele><time>2026-04-25T11:10:33.002Z</time></trkpt><trkpt lat="45.508036224864114" lon="11.146107022938198"><ele>447.0</ele><time>2026-04-25T11:10:34.002Z</time></trkpt><trkpt lat="45.50796485954385" lon="11.14614664407774"><ele>447.0</ele><time>2026-04-25T11:10:35.002Z</time></trkpt><trkpt lat="45.50786795598484" lon="11.146139386255912"><ele>445.8</ele><time>2026-04-25T11:10:36.002Z</time></trkpt><trkpt lat="45.50778555707712" lon="11.14608524501195"><ele>444.6</ele><time>2026-04-25T11:10:37.002Z</time></trkpt><trkpt lat="45.507691771835226" lon="11.14598889411852"><ele>443.40000000000003</ele><time>2026-04-25T11:10:38.002Z</time></trkpt><trkpt lat="45.50761276022171" lon="11.145900850670076"><ele>442.20000000000005</ele><time>2026-04-25T11:10:39.002Z</time></trkpt><trkpt lat="45.50754695787071" lon="11.145806223409144"><ele>441.0</ele><time>2026-04-25T11:10:40.002Z</time></trkpt><trkpt lat="45.50747437421976" lon="11.145687685287957"><ele>438.8</ele><time>2026-04-25T11:10:41.002Z</time></trkpt><trkpt lat="45.507390273358624" lon="11.145582851517233"><ele>436.6</ele><time>2026-04-25T11:10:42.002Z</time></trkpt><trkpt lat="45.507297244532886" lon="11.145523785314115"><ele>434.4</ele><time>2026-04-25T11:10:43.002Z</time></trkpt><trkpt lat="45.50719919224748" lon="11.145521686934597"><ele>432.2</ele><time>2026-04-25T11:10:44.002Z</time></trkpt><trkpt lat="45.507089966810874" lon="11.145579293996592"><ele>430.0</ele><time>2026-04-25T11:10:45.002Z</time></trkpt><trkpt lat="45.50698069415057" lon="11.14563941186152"><ele>430.0</ele><time>2026-04-25T11:10:46.002Z</time></trkpt><trkpt lat="45.50689329220475" lon="11.145644488460166"><ele>430.0</ele><time>2026-04-25T11:10:47.003Z</time></trkpt><trkpt lat="45.506802819987314" lon="11.145544412552367"><ele>430.0</ele><time>2026-04-25T11:10:49.003Z</time></trkpt><trkpt lat="45.506775813909016" lon="11.145411535413055"><ele>430.0</ele><time>2026-04-25T11:10:50.003Z</time></trkpt><trkpt lat="45.50674737413691" lon="11.14528358984399"><ele>430.0</ele><time>2026-04-25T11:10:51.003Z</time></trkpt><trkpt lat="45.506699643251245" lon="11.145182112895053"><ele>430.0</ele><time>2026-04-25T11:10:52.003Z</time></trkpt><trkpt lat="45.50661336941085" lon="11.145096815680605"><ele>430.0</ele><time>2026-04-25T11:10:53.003Z</time></trkpt><trkpt lat="45.50651677584244" lon="11.14503142378151"><ele>430.0</ele><time>2026-04-25T11:10:54.003Z</time></trkpt><trkpt lat="45.50642291363663" lon="11.144958285524636"><ele>430.0</ele><time>2026-04-25T11:10:55.003Z</time></trkpt><trkpt lat="45.50635834729" lon="11.144863014908486"><ele>430.0</ele><time>2026-04-25T11:10:56.003Z</time></trkpt><trkpt lat="45.50631756193749" lon="11.144680127828332"><ele>429.25</ele><time>2026-04-25T11:10:57.003Z</time></trkpt><trkpt lat="45.506244312043926" lon="11.144514009943473"><ele>428.5</ele><time>2026-04-25T11:10:58.003Z</time></trkpt><trkpt lat="45.50617972518476" lon="11.144336304182666"><ele>427.75</ele><time>2026-04-25T11:10:59.003Z</time></trkpt><trkpt lat="45.50612591026559" lon="11.144175952681305"><ele>427.0</ele><time>2026-04-25T11:11:00.003Z</time></trkpt><trkpt lat="45.50609483792374" lon="11.144030386169657"><ele>427.00000000000006</ele><time>2026-04-25T11:11:01.003Z</time></trkpt><trkpt lat="45.506051633755014" lon="11.143906243678405"><ele>427.0</ele><time>2026-04-25T11:11:02.003Z</time></trkpt><trkpt lat="45.505995060671545" lon="11.143800433374263"><ele>427.0</ele><time>2026-04-25T11:11:03.003Z</time></trkpt><trkpt lat="45.50590178020709" lon="11.143726556157494"><ele>427.0</ele><time>2026-04-25T11:11:04.003Z</time></trkpt><trkpt lat="45.50584559507829" lon="11.143669447169382"><ele>427.00000000000006</ele><time>2026-04-25T11:11:05.003Z</time></trkpt><trkpt lat="45.50580510637866" lon="11.143600336224765"><ele>427.0</ele><time>2026-04-25T11:11:06.003Z</time></trkpt><trkpt lat="45.50583413565076" lon="11.14340017858236"><ele>427.00000000000006</ele><time>2026-04-25T11:11:08.003Z</time></trkpt><trkpt lat="45.50588479994784" lon="11.143318920409614"><ele>427.0</ele><time>2026-04-25T11:11:09.003Z</time></trkpt><trkpt lat="45.50594215187796" lon="11.143253117303912"><ele>427.0</ele><time>2026-04-25T11:11:10.003Z</time></trkpt><trkpt lat="45.5059920964931" lon="11.143162233119398"><ele>427.0</ele><time>2026-04-25T11:11:11.003Z</time></trkpt><trkpt lat="45.506025545493706" lon="11.143069165077842"><ele>427.00000000000006</ele><time>2026-04-25T11:11:12.003Z</time></trkpt><trkpt lat="45.50602637536136" lon="11.142970450895733"><ele>427.0</ele><time>2026-04-25T11:11:13.003Z</time></trkpt><trkpt lat="45.50600073957481" lon="11.142834614827228"><ele>425.0</ele><time>2026-04-25T11:11:14.003Z</time></trkpt><trkpt lat="45.50596446103482" lon="11.1426911668107"><ele>423.00000000000006</ele><time>2026-04-25T11:11:15.003Z</time></trkpt><trkpt lat="45.50591740324566" lon="11.142556217786836"><ele>421.0</ele><time>2026-04-25T11:11:16.003Z</time></trkpt><trkpt lat="45.50586674405417" lon="11.142410956448222"><ele>419.0</ele><time>2026-04-25T11:11:17.003Z</time></trkpt><trkpt lat="45.50584059912554" lon="11.142273909203304"><ele>417.0</ele><time>2026-04-25T11:11:18.003Z</time></trkpt><trkpt lat="45.505817770361865" lon="11.142134532529811"><ele>414.40000000000003</ele><time>2026-04-25T11:11:19.003Z</time></trkpt><trkpt lat="45.50578421920761" lon="11.142016751209765"><ele>411.8</ele><time>2026-04-25T11:11:20.003Z</time></trkpt><trkpt lat="45.50580429551608" lon="11.141904570659264"><ele>409.2</ele><time>2026-04-25T11:11:21.003Z</time></trkpt><trkpt lat="45.50581484033898" lon="11.141762993134535"><ele>406.6</ele><time>2026-04-25T11:11:22.003Z</time></trkpt><trkpt lat="45.50578543875039" lon="11.141604152295177"><ele>404.0</ele><time>2026-04-25T11:11:23.003Z</time></trkpt><trkpt lat="45.5057518951038" lon="11.141438323244577"><ele>400.75</ele><time>2026-04-25T11:11:24.003Z</time></trkpt><trkpt lat="45.505704453515335" lon="11.141276526406985"><ele>397.5</ele><time>2026-04-25T11:11:25.003Z</time></trkpt><trkpt lat="45.505653781134725" lon="11.141103970460213"><ele>394.25</ele><time>2026-04-25T11:11:26.004Z</time></trkpt><trkpt lat="45.50559361840049" lon="11.140943478247353"><ele>391.0</ele><time>2026-04-25T11:11:27.002Z</time></trkpt><trkpt lat="45.505535549662376" lon="11.140797872801228"><ele>391.8</ele><time>2026-04-25T11:11:28.002Z</time></trkpt><trkpt lat="45.505472122901736" lon="11.140652338399345"><ele>392.6</ele><time>2026-04-25T11:11:29.002Z</time></trkpt><trkpt lat="45.50541056022613" lon="11.14052391253934"><ele>393.4</ele><time>2026-04-25T11:11:30.002Z</time></trkpt><trkpt lat="45.505351757344776" lon="11.140431329207681"><ele>394.2</ele><time>2026-04-25T11:11:31.002Z</time></trkpt><trkpt lat="45.50528554674855" lon="11.14038407407215"><ele>395.0</ele><time>2026-04-25T11:11:32.002Z</time></trkpt><trkpt lat="45.50519824248268" lon="11.140352113676386"><ele>395.0</ele><time>2026-04-25T11:11:33.002Z</time></trkpt><trkpt lat="45.50509212984613" lon="11.140353719958986"><ele>395.0</ele><time>2026-04-25T11:11:34.002Z</time></trkpt><trkpt lat="45.50497715769548" lon="11.140387462350681"><ele>395.0</ele><time>2026-04-25T11:11:35.002Z</time></trkpt><trkpt lat="45.50485892075072" lon="11.140432381827795"><ele>395.0</ele><time>2026-04-25T11:11:36.002Z</time></trkpt><trkpt lat="45.50475546022535" lon="11.14046368871189"><ele>395.0</ele><time>2026-04-25T11:11:37.002Z</time></trkpt><trkpt lat="45.504686256408995" lon="11.140474852976876"><ele>395.0</ele><time>2026-04-25T11:11:38.002Z</time></trkpt><trkpt lat="45.50461036568389" lon="11.140448120021142"><ele>395.0</ele><time>2026-04-25T11:11:39.002Z</time></trkpt><trkpt lat="45.504558401547335" lon="11.140346337331504"><ele>395.0</ele><time>2026-04-25T11:11:40.002Z</time></trkpt><trkpt lat="45.50452604153744" lon="11.14020156269201"><ele>395.0</ele><time>2026-04-25T11:11:41.002Z</time></trkpt><trkpt lat="45.50447841723916" lon="11.140038823823051"><ele>396.75</ele><time>2026-04-25T11:11:42.002Z</time></trkpt><trkpt lat="45.50444616620967" lon="11.13988121722093"><ele>398.5</ele><time>2026-04-25T11:11:43.002Z</time></trkpt><trkpt lat="45.50440285516061" lon="11.139714439657567"><ele>400.25</ele><time>2026-04-25T11:11:44.002Z</time></trkpt><trkpt lat="45.50434681779821" lon="11.139541691298076"><ele>402.0</ele><time>2026-04-25T11:11:45.002Z</time></trkpt><trkpt lat="45.50429001818503" lon="11.139380027889947"><ele>402.0</ele><time>2026-04-25T11:11:46.002Z</time></trkpt><trkpt lat="45.504237563524434" lon="11.139244348141313"><ele>402.0</ele><time>2026-04-25T11:11:47.002Z</time></trkpt><trkpt lat="45.504179687709915" lon="11.139142765457226"><ele>402.0</ele><time>2026-04-25T11:11:48.002Z</time></trkpt><trkpt lat="45.50410912893467" lon="11.139099589851293"><ele>402.0</ele><time>2026-04-25T11:11:49.002Z</time></trkpt><trkpt lat="45.5040186751758" lon="11.139053900829364"><ele>402.0</ele><time>2026-04-25T11:11:50.002Z</time></trkpt><trkpt lat="45.50391904252497" lon="11.138995165809684"><ele>401.6</ele><time>2026-04-25T11:11:51.002Z</time></trkpt><trkpt lat="45.50382325771897" lon="11.138976390636728"><ele>401.20000000000005</ele><time>2026-04-25T11:11:52.002Z</time></trkpt><trkpt lat="45.50372585410678" lon="11.13899467741412"><ele>400.8</ele><time>2026-04-25T11:11:53.002Z</time></trkpt><trkpt lat="45.50364554987332" lon="11.13906975481093"><ele>400.4</ele><time>2026-04-25T11:11:54.002Z</time></trkpt><trkpt lat="45.50358961569018" lon="11.139174201304819"><ele>400.0</ele><time>2026-04-25T11:11:55.002Z</time></trkpt><trkpt lat="45.50352862190277" lon="11.139265158143052"><ele>400.0</ele><time>2026-04-25T11:11:57.002Z</time></trkpt><trkpt lat="45.503474770873254" lon="11.139098086049376"><ele>400.0</ele><time>2026-04-25T11:11:59.002Z</time></trkpt><trkpt lat="45.50344638900693" lon="11.138965525496662"><ele>400.0</ele><time>2026-04-25T11:12:00.002Z</time></trkpt><trkpt lat="45.50339214480126" lon="11.138840748949077"><ele>400.0</ele><time>2026-04-25T11:12:01.002Z</time></trkpt><trkpt lat="45.50334192099527" lon="11.138723126849511"><ele>400.0</ele><time>2026-04-25T11:12:02.002Z</time></trkpt><trkpt lat="45.50329308579927" lon="11.13860399909932"><ele>398.1666666666667</ele><time>2026-04-25T11:12:03.002Z</time></trkpt><trkpt lat="45.503250299122705" lon="11.138505687449062"><ele>396.33333333333337</ele><time>2026-04-25T11:12:04.002Z</time></trkpt><trkpt lat="45.50321741998005" lon="11.138424354188189"><ele>394.5</ele><time>2026-04-25T11:12:05.002Z</time></trkpt><trkpt lat="45.50315137996104" lon="11.13829330028032"><ele>392.66666666666663</ele><time>2026-04-25T11:12:07.002Z</time></trkpt><trkpt lat="45.50312925482846" lon="11.138189409402628"><ele>390.8333333333333</ele><time>2026-04-25T11:12:09.002Z</time></trkpt><trkpt lat="45.50321611624023" lon="11.138137395272622"><ele>389.0</ele><time>2026-04-25T11:12:11.002Z</time></trkpt><trkpt lat="45.50329158335664" lon="11.138123602333156"><ele>386.2</ele><time>2026-04-25T11:12:12.002Z</time></trkpt><trkpt lat="45.50336577660447" lon="11.138085081814996"><ele>383.4</ele><time>2026-04-25T11:12:13.002Z</time></trkpt><trkpt lat="45.50345282088399" lon="11.13803607849812"><ele>380.6</ele><time>2026-04-25T11:12:14.002Z</time></trkpt><trkpt lat="45.50355711065984" lon="11.137992676415806"><ele>377.8</ele><time>2026-04-25T11:12:15.002Z</time></trkpt><trkpt lat="45.50367557503841" lon="11.137962653310986"><ele>375.0</ele><time>2026-04-25T11:12:16.002Z</time></trkpt><trkpt lat="45.5037788167806" lon="11.13794602623912"><ele>375.0</ele><time>2026-04-25T11:12:17.002Z</time></trkpt><trkpt lat="45.50387305821618" lon="11.137938087490339"><ele>375.0</ele><time>2026-04-25T11:12:18.002Z</time></trkpt><trkpt lat="45.50394096251722" lon="11.137886178975682"><ele>375.0</ele><time>2026-04-25T11:12:20.002Z</time></trkpt><trkpt lat="45.50392952215385" lon="11.13772223124284"><ele>375.0</ele><time>2026-04-25T11:12:22.002Z</time></trkpt><trkpt lat="45.5039319338808" lon="11.13760798448147"><ele>375.0</ele><time>2026-04-25T11:12:23.002Z</time></trkpt><trkpt lat="45.50393975473776" lon="11.137506706453928"><ele>375.0</ele><time>2026-04-25T11:12:24.002Z</time></trkpt><trkpt lat="45.50395042171766" lon="11.13741039472311"><ele>371.4</ele><time>2026-04-25T11:12:25.002Z</time></trkpt><trkpt lat="45.50395585794126" lon="11.137264373943697"><ele>367.8</ele><time>2026-04-25T11:12:27.002Z</time></trkpt><trkpt lat="45.50392976886448" lon="11.137108105976289"><ele>364.20000000000005</ele><time>2026-04-25T11:12:29.002Z</time></trkpt><trkpt lat="45.50390224375987" lon="11.137016126403289"><ele>360.6</ele><time>2026-04-25T11:12:30.002Z</time></trkpt><trkpt lat="45.50387247111793" lon="11.136924352071306"><ele>357.0</ele><time>2026-04-25T11:12:31.002Z</time></trkpt><trkpt lat="45.50380370391844" lon="11.136797691198899"><ele>356.6</ele><time>2026-04-25T11:12:33.002Z</time></trkpt><trkpt lat="45.50370138979136" lon="11.136698354166207"><ele>356.20000000000005</ele><time>2026-04-25T11:12:35.002Z</time></trkpt><trkpt lat="45.50363966106308" lon="11.136656873140248"><ele>355.8</ele><time>2026-04-25T11:12:36.002Z</time></trkpt><trkpt lat="45.50351601780486" lon="11.136656478295565"><ele>355.4</ele><time>2026-04-25T11:12:38.002Z</time></trkpt><trkpt lat="45.50344895853898" lon="11.13666888689244"><ele>355.0</ele><time>2026-04-25T11:12:39.002Z</time></trkpt><trkpt lat="45.50334686292041" lon="11.13670617627259"><ele>355.0</ele><time>2026-04-25T11:12:40.002Z</time></trkpt><trkpt lat="45.50325173874417" lon="11.136730286450835"><ele>355.0</ele><time>2026-04-25T11:12:41.002Z</time></trkpt><trkpt lat="45.503146119843606" lon="11.136740300730878"><ele>355.0</ele><time>2026-04-25T11:12:42.002Z</time></trkpt><trkpt lat="45.503056411836475" lon="11.136756059472077"><ele>355.0</ele><time>2026-04-25T11:12:43.002Z</time></trkpt><trkpt lat="45.50298936050761" lon="11.13677249858952"><ele>355.0</ele><time>2026-04-25T11:12:44.002Z</time></trkpt><trkpt lat="45.50287196489673" lon="11.13676405414322"><ele>353.3333333333333</ele><time>2026-04-25T11:12:46.002Z</time></trkpt><trkpt lat="45.50280913835571" lon="11.136731736637888"><ele>351.66666666666663</ele><time>2026-04-25T11:12:47.002Z</time></trkpt><trkpt lat="45.502731612298085" lon="11.136706077333388"><ele>350.0</ele><time>2026-04-25T11:12:48.002Z</time></trkpt><trkpt lat="45.50267122737276" lon="11.13666776708568"><ele>348.3333333333333</ele><time>2026-04-25T11:12:49.002Z</time></trkpt><trkpt lat="45.502561304058624" lon="11.136633294150144"><ele>346.6666666666667</ele><time>2026-04-25T11:12:51.002Z</time></trkpt><trkpt lat="45.50246417349405" lon="11.136644319964782"><ele>345.0</ele><time>2026-04-25T11:12:53.002Z</time></trkpt><trkpt lat="45.50235083096039" lon="11.136641238582554"><ele>345.0</ele><time>2026-04-25T11:12:55.002Z</time></trkpt><trkpt lat="45.50228513423264" lon="11.136661064273474"><ele>345.0</ele><time>2026-04-25T11:12:56.002Z</time></trkpt><trkpt lat="45.502214344379446" lon="11.136676459022642"><ele>345.0</ele><time>2026-04-25T11:12:57.002Z</time></trkpt><trkpt lat="45.50214137172534" lon="11.136650544053953"><ele>345.0</ele><time>2026-04-25T11:12:58.002Z</time></trkpt><trkpt lat="45.5020417036418" lon="11.13667291210522"><ele>345.0</ele><time>2026-04-25T11:13:00.003Z</time></trkpt><trkpt lat="45.501983876473794" lon="11.136713303916366"><ele>345.0</ele><time>2026-04-25T11:13:01.003Z</time></trkpt><trkpt lat="45.50190743665333" lon="11.13685287614327"><ele>341.8333333333333</ele><time>2026-04-25T11:13:03.003Z</time></trkpt><trkpt lat="45.50185184007773" lon="11.136955890148599"><ele>338.6666666666667</ele><time>2026-04-25T11:13:04.003Z</time></trkpt><trkpt lat="45.5017969122895" lon="11.137027446629018"><ele>335.5</ele><time>2026-04-25T11:13:05.003Z</time></trkpt><trkpt lat="45.50171503724882" lon="11.137050564334558"><ele>332.33333333333337</ele><time>2026-04-25T11:13:06.003Z</time></trkpt><trkpt lat="45.50164120922224" lon="11.137069177864676"><ele>329.1666666666667</ele><time>2026-04-25T11:13:07.003Z</time></trkpt><trkpt lat="45.50157492241848" lon="11.137070310399649"><ele>326.0</ele><time>2026-04-25T11:13:08.003Z</time></trkpt><trkpt lat="45.50149954389888" lon="11.137101447191174"><ele>326.0</ele><time>2026-04-25T11:13:09.003Z</time></trkpt><trkpt lat="45.50139198446239" lon="11.137155637096456"><ele>326.0</ele><time>2026-04-25T11:13:10.003Z</time></trkpt><trkpt lat="45.501300824827766" lon="11.137214674223632"><ele>326.0</ele><time>2026-04-25T11:13:11.003Z</time></trkpt><trkpt lat="45.501210738861246" lon="11.137291874959834"><ele>326.0</ele><time>2026-04-25T11:13:12.003Z</time></trkpt><trkpt lat="45.50113236440872" lon="11.137390358277147"><ele>326.0</ele><time>2026-04-25T11:13:13.003Z</time></trkpt><trkpt lat="45.50105093063574" lon="11.137478734440943"><ele>324.0</ele><time>2026-04-25T11:13:14.003Z</time></trkpt><trkpt lat="45.50097909921513" lon="11.137540996623079"><ele>322.0</ele><time>2026-04-25T11:13:15.003Z</time></trkpt><trkpt lat="45.50090578366387" lon="11.137603202177603"><ele>320.0</ele><time>2026-04-25T11:13:16.003Z</time></trkpt><trkpt lat="45.5008399698856" lon="11.137682882083151"><ele>318.0</ele><time>2026-04-25T11:13:17.003Z</time></trkpt><trkpt lat="45.500779413211305" lon="11.137789197683745"><ele>316.0</ele><time>2026-04-25T11:13:18.003Z</time></trkpt><trkpt lat="45.500738333562225" lon="11.13790848189822"><ele>314.0</ele><time>2026-04-25T11:13:19.003Z</time></trkpt><trkpt lat="45.500707552676914" lon="11.13804326911062"><ele>314.0</ele><time>2026-04-25T11:13:20.003Z</time></trkpt><trkpt lat="45.5006753970481" lon="11.138197975023914"><ele>314.0</ele><time>2026-04-25T11:13:21.003Z</time></trkpt><trkpt lat="45.5006790172294" lon="11.138334352240646"><ele>314.0</ele><time>2026-04-25T11:13:22.003Z</time></trkpt><trkpt lat="45.5006232738638" lon="11.138444162022054"><ele>314.0</ele><time>2026-04-25T11:13:24.003Z</time></trkpt><trkpt lat="45.500543598233804" lon="11.138448019358743"><ele>314.0</ele><time>2026-04-25T11:13:25.003Z</time></trkpt><trkpt lat="45.500457226644976" lon="11.138434527186043"><ele>315.75</ele><time>2026-04-25T11:13:26.003Z</time></trkpt><trkpt lat="45.5003622339244" lon="11.138375549461154"><ele>317.5</ele><time>2026-04-25T11:13:27.003Z</time></trkpt><trkpt lat="45.500251095969666" lon="11.138269369093665"><ele>319.25</ele><time>2026-04-25T11:13:28.003Z</time></trkpt><trkpt lat="45.50015087486677" lon="11.138135986393024"><ele>321.0</ele><time>2026-04-25T11:13:29.003Z</time></trkpt><trkpt lat="45.50003598873662" lon="11.138000349115611"><ele>316.75</ele><time>2026-04-25T11:13:30.003Z</time></trkpt><trkpt lat="45.499900272437394" lon="11.13787042728115"><ele>312.5</ele><time>2026-04-25T11:13:31.003Z</time></trkpt><trkpt lat="45.499773206158146" lon="11.137754020000767"><ele>308.25</ele><time>2026-04-25T11:13:32.003Z</time></trkpt><trkpt lat="45.49967581874532" lon="11.137663628050525"><ele>304.0</ele><time>2026-04-25T11:13:33.002Z</time></trkpt><trkpt lat="45.49959745032616" lon="11.137591897161405"><ele>304.0</ele><time>2026-04-25T11:13:34.002Z</time></trkpt><trkpt lat="45.499532731438826" lon="11.137539537980176"><ele>304.0</ele><time>2026-04-25T11:13:36.002Z</time></trkpt><trkpt lat="45.49960832992397" lon="11.137495612508664"><ele>304.0</ele><time>2026-04-25T11:13:40.002Z</time></trkpt><trkpt lat="45.49962451266003" lon="11.137407702823348"><ele>304.0</ele><time>2026-04-25T11:13:46.002Z</time></trkpt><trkpt lat="45.49952613720058" lon="11.13734603724906"><ele>304.0</ele><time>2026-04-25T11:13:48.002Z</time></trkpt><trkpt lat="45.49945627061881" lon="11.137277499667022"><ele>304.0</ele><time>2026-04-25T11:13:50.002Z</time></trkpt><trkpt lat="45.49949549928514" lon="11.137188359470269"><ele>300.2</ele><time>2026-04-25T11:13:52.002Z</time></trkpt><trkpt lat="45.499587118045724" lon="11.137155459351757"><ele>296.4</ele><time>2026-04-25T11:13:54.002Z</time></trkpt><trkpt lat="45.49965422820259" lon="11.137159104662866"><ele>292.6</ele><time>2026-04-25T11:13:55.002Z</time></trkpt><trkpt lat="45.49977106115003" lon="11.137171828962126"><ele>288.8</ele><time>2026-04-25T11:13:57.002Z</time></trkpt><trkpt lat="45.49984386326523" lon="11.137255321744375"><ele>285.0</ele><time>2026-04-25T11:13:59.001Z</time></trkpt><trkpt lat="45.4999247078186" lon="11.137299513840139"><ele>285.0</ele><time>2026-04-25T11:14:01.001Z</time></trkpt><trkpt lat="45.500034461646784" lon="11.137356307061781"><ele>285.0</ele><time>2026-04-25T11:14:03.001Z</time></trkpt><trkpt lat="45.50007057463582" lon="11.137264597713717"><ele>285.0</ele><time>2026-04-25T11:14:09.001Z</time></trkpt><trkpt lat="45.500003826029655" lon="11.137185521254558"><ele>285.0</ele><time>2026-04-25T11:14:11.001Z</time></trkpt><trkpt lat="45.50002725567849" lon="11.13705390329319"><ele>285.0</ele><time>2026-04-25T11:14:14.001Z</time></trkpt><trkpt lat="45.50003074750514" lon="11.136932192147036"><ele>285.0</ele><time>2026-04-25T11:14:16.001Z</time></trkpt><trkpt lat="45.500003275279546" lon="11.136790322446881"><ele>285.0</ele><time>2026-04-25T11:14:18.001Z</time></trkpt><trkpt lat="45.49995630417487" lon="11.136654155704996"><ele>285.0</ele><time>2026-04-25T11:14:20.001Z</time></trkpt><trkpt lat="45.49986153154534" lon="11.136585421048682"><ele>285.0</ele><time>2026-04-25T11:14:22.001Z</time></trkpt><trkpt lat="45.499749653028694" lon="11.136576090571362"><ele>285.0</ele><time>2026-04-25T11:14:24.001Z</time></trkpt><trkpt lat="45.49970693835903" lon="11.136487038162596"><ele>282.0</ele><time>2026-04-25T11:14:26.002Z</time></trkpt><trkpt lat="45.499700005001046" lon="11.13635930842183"><ele>279.0</ele><time>2026-04-25T11:14:28.002Z</time></trkpt><trkpt lat="45.49969492490249" lon="11.136255782196097"><ele>276.0</ele><time>2026-04-25T11:14:29.002Z</time></trkpt><trkpt lat="45.499663652529854" lon="11.13617217290889"><ele>273.0</ele><time>2026-04-25T11:14:30.002Z</time></trkpt><trkpt lat="45.4996570178" lon="11.136075898006094"><ele>270.0</ele><time>2026-04-25T11:14:31.002Z</time></trkpt><trkpt lat="45.49960185110198" lon="11.135948744780695"><ele>267.0</ele><time>2026-04-25T11:14:33.002Z</time></trkpt><trkpt lat="45.49958388809629" lon="11.135851806749908"><ele>270.0</ele><time>2026-04-25T11:14:34.002Z</time></trkpt><trkpt lat="45.49953761790467" lon="11.135735433979985"><ele>273.0</ele><time>2026-04-25T11:14:35.002Z</time></trkpt><trkpt lat="45.49952318802249" lon="11.13563900336353"><ele>276.0</ele><time>2026-04-25T11:14:36.002Z</time></trkpt><trkpt lat="45.499438126025126" lon="11.135482445862397"><ele>279.0</ele><time>2026-04-25T11:14:38.002Z</time></trkpt><trkpt lat="45.49940103390432" lon="11.13537162561082"><ele>282.0</ele><time>2026-04-25T11:14:39.002Z</time></trkpt><trkpt lat="45.49932927867166" lon="11.135230752044942"><ele>282.0</ele><time>2026-04-25T11:14:41.002Z</time></trkpt><trkpt lat="45.49931259718894" lon="11.13505116007445"><ele>282.0</ele><time>2026-04-25T11:14:43.002Z</time></trkpt><trkpt lat="45.49928495907001" lon="11.134970304889642"><ele>282.0</ele><time>2026-04-25T11:14:44.002Z</time></trkpt><trkpt lat="45.49924219226053" lon="11.134867412832522"><ele>282.0</ele><time>2026-04-25T11:14:45.002Z</time></trkpt><trkpt lat="45.499187545433" lon="11.134767833519389"><ele>282.0</ele><time>2026-04-25T11:14:46.002Z</time></trkpt><trkpt lat="45.499139969815204" lon="11.134691484969336"><ele>282.0</ele><time>2026-04-25T11:14:47.002Z</time></trkpt><trkpt lat="45.499107502816734" lon="11.13460533447987"><ele>278.4</ele><time>2026-04-25T11:14:48.002Z</time></trkpt><trkpt lat="45.49909178847485" lon="11.134502090007253"><ele>274.79999999999995</ele><time>2026-04-25T11:14:50.002Z</time></trkpt><trkpt lat="45.499077224888346" lon="11.134399215742599"><ele>271.2</ele><time>2026-04-25T11:14:52.002Z</time></trkpt><trkpt lat="45.49905249800024" lon="11.134312087401186"><ele>267.59999999999997</ele><time>2026-04-25T11:14:54.002Z</time></trkpt><trkpt lat="45.498967537790264" lon="11.134199360888834"><ele>264.0</ele><time>2026-04-25T11:14:56.002Z</time></trkpt><trkpt lat="45.49890005045129" lon="11.13400487358781"><ele>262.5</ele><time>2026-04-25T11:14:58.002Z</time></trkpt><trkpt lat="45.49880456462831" lon="11.13395733461267"><ele>261.0</ele><time>2026-04-25T11:14:59.002Z</time></trkpt><trkpt lat="45.498736632655245" lon="11.133917482664298"><ele>259.5</ele><time>2026-04-25T11:15:00.002Z</time></trkpt><trkpt lat="45.49865979897215" lon="11.13388805393046"><ele>258.0</ele><time>2026-04-25T11:15:01.002Z</time></trkpt><trkpt lat="45.49859248751821" lon="11.133854624625153"><ele>256.5</ele><time>2026-04-25T11:15:02.002Z</time></trkpt><trkpt lat="45.4985305811394" lon="11.133824552586496"><ele>255.0</ele><time>2026-04-25T11:15:03.002Z</time></trkpt><trkpt lat="45.498454451956434" lon="11.133799258724787"><ele>255.0</ele><time>2026-04-25T11:15:04.002Z</time></trkpt><trkpt lat="45.498370138756" lon="11.13374703325652"><ele>255.0</ele><time>2026-04-25T11:15:05.002Z</time></trkpt><trkpt lat="45.49830612679571" lon="11.133697224363074"><ele>255.0</ele><time>2026-04-25T11:15:06.002Z</time></trkpt><trkpt lat="45.498224262895306" lon="11.133646590336882"><ele>255.0</ele><time>2026-04-25T11:15:07.002Z</time></trkpt><trkpt lat="45.498146238566385" lon="11.133609285671163"><ele>255.0</ele><time>2026-04-25T11:15:08.002Z</time></trkpt><trkpt lat="45.498069969999406" lon="11.133581364596598"><ele>255.0</ele><time>2026-04-25T11:15:09.002Z</time></trkpt><trkpt lat="45.498000120255455" lon="11.133563786177694"><ele>255.0</ele><time>2026-04-25T11:15:10.002Z</time></trkpt><trkpt lat="45.4979291511259" lon="11.13352980596857"><ele>255.0</ele><time>2026-04-25T11:15:11.002Z</time></trkpt><trkpt lat="45.49785519608168" lon="11.133487354196445"><ele>255.0</ele><time>2026-04-25T11:15:12.002Z</time></trkpt><trkpt lat="45.497784081170934" lon="11.133476788083723"><ele>255.0</ele><time>2026-04-25T11:15:13.002Z</time></trkpt><trkpt lat="45.497717696405005" lon="11.133481059598724"><ele>255.0</ele><time>2026-04-25T11:15:14.002Z</time></trkpt><trkpt lat="45.49761416312489" lon="11.13353799876852"><ele>255.0</ele><time>2026-04-25T11:15:16.002Z</time></trkpt><trkpt lat="45.49754106161748" lon="11.133560322774597"><ele>253.16666666666666</ele><time>2026-04-25T11:15:18.002Z</time></trkpt><trkpt lat="45.49749100390671" lon="11.133465977253419"><ele>251.33333333333331</ele><time>2026-04-25T11:15:20.002Z</time></trkpt><trkpt lat="45.497505108777325" lon="11.133352261539796"><ele>249.5</ele><time>2026-04-25T11:15:23.002Z</time></trkpt><trkpt lat="45.497561231627444" lon="11.133228950005355"><ele>247.66666666666666</ele><time>2026-04-25T11:15:25.002Z</time></trkpt><trkpt lat="45.49758387558342" lon="11.133116214411897"><ele>245.83333333333331</ele><time>2026-04-25T11:15:27.002Z</time></trkpt><trkpt lat="45.49760143338302" lon="11.133024508909166"><ele>244.0</ele><time>2026-04-25T11:15:29.002Z</time></trkpt><trkpt lat="45.497680841430885" lon="11.132941369514592"><ele>241.6</ele><time>2026-04-25T11:15:31.002Z</time></trkpt><trkpt lat="45.49774324544815" lon="11.132872101829625"><ele>239.2</ele><time>2026-04-25T11:15:33.002Z</time></trkpt><trkpt lat="45.49780442536765" lon="11.13278545768734"><ele>236.79999999999998</ele><time>2026-04-25T11:15:36.002Z</time></trkpt><trkpt lat="45.497914300845075" lon="11.132775392878349"><ele>234.39999999999998</ele><time>2026-04-25T11:15:38.002Z</time></trkpt><trkpt lat="45.49799774436555" lon="11.132782961685617"><ele>232.0</ele><time>2026-04-25T11:15:40.002Z</time></trkpt><trkpt lat="45.49808837829316" lon="11.132727526756707"><ele>232.0</ele><time>2026-04-25T11:15:42.002Z</time></trkpt><trkpt lat="45.49818157865264" lon="11.132669659334464"><ele>232.0</ele><time>2026-04-25T11:15:44.002Z</time></trkpt><trkpt lat="45.49826509254005" lon="11.132645355406895"><ele>232.0</ele><time>2026-04-25T11:15:46.002Z</time></trkpt><trkpt lat="45.49834240791661" lon="11.132548322156984"><ele>232.0</ele><time>2026-04-25T11:15:49.001Z</time></trkpt><trkpt lat="45.49842326679632" lon="11.132482333926147"><ele>232.0</ele><time>2026-04-25T11:15:51.001Z</time></trkpt><trkpt lat="45.49853972215242" lon="11.132442403833627"><ele>227.39999999999998</ele><time>2026-04-25T11:15:53.001Z</time></trkpt><trkpt lat="45.498597788398286" lon="11.132371167460974"><ele>222.79999999999998</ele><time>2026-04-25T11:15:55.001Z</time></trkpt><trkpt lat="45.498692992047815" lon="11.132279421540058"><ele>218.2</ele><time>2026-04-25T11:15:57.001Z</time></trkpt><trkpt lat="45.498797548255645" lon="11.13220973338948"><ele>213.6</ele><time>2026-04-25T11:15:59.001Z</time></trkpt><trkpt lat="45.498885738065354" lon="11.132144041690731"><ele>209.0</ele><time>2026-04-25T11:16:01.001Z</time></trkpt><trkpt lat="45.498938809325054" lon="11.132211319110803"><ele>207.66666666666669</ele><time>2026-04-25T11:16:04.001Z</time></trkpt><trkpt lat="45.499001131117176" lon="11.132231098775154"><ele>206.33333333333334</ele><time>2026-04-25T11:16:06.001Z</time></trkpt><trkpt lat="45.49908364907923" lon="11.132259115110047"><ele>205.0</ele><time>2026-04-25T11:16:08.001Z</time></trkpt><trkpt lat="45.49916564033618" lon="11.13229311266975"><ele>203.66666666666669</ele><time>2026-04-25T11:16:11.001Z</time></trkpt><trkpt lat="45.49922181491799" lon="11.132340203109038"><ele>202.33333333333334</ele><time>2026-04-25T11:16:13.001Z</time></trkpt><trkpt lat="45.49929102414018" lon="11.132435722590946"><ele>201.0</ele><time>2026-04-25T11:16:15.001Z</time></trkpt><trkpt lat="45.49936166651691" lon="11.132551482529305"><ele>199.60000000000002</ele><time>2026-04-25T11:16:17.001Z</time></trkpt><trkpt lat="45.49940233382685" lon="11.13268123159106"><ele>198.2</ele><time>2026-04-25T11:16:19.001Z</time></trkpt><trkpt lat="45.499476578469164" lon="11.132834740034548"><ele>196.8</ele><time>2026-04-25T11:16:21.001Z</time></trkpt><trkpt lat="45.49953270016348" lon="11.132917784667503"><ele>195.39999999999998</ele><time>2026-04-25T11:16:22.001Z</time></trkpt><trkpt lat="45.499575060909386" lon="11.133019081219182"><ele>194.0</ele><time>2026-04-25T11:16:23.001Z</time></trkpt><trkpt lat="45.49961451439409" lon="11.133103065115089"><ele>197.0</ele><time>2026-04-25T11:16:24.001Z</time></trkpt><trkpt lat="45.499696112942736" lon="11.133255877948287"><ele>200.0</ele><time>2026-04-25T11:16:26.001Z</time></trkpt><trkpt lat="45.49977747333666" lon="11.133382868368345"><ele>203.0</ele><time>2026-04-25T11:16:28.001Z</time></trkpt><trkpt lat="45.49981910808908" lon="11.133462444876113"><ele>206.0</ele><time>2026-04-25T11:16:29.001Z</time></trkpt><trkpt lat="45.49985985175948" lon="11.133548578904236"><ele>209.0</ele><time>2026-04-25T11:16:30.001Z</time></trkpt><trkpt lat="45.49990078569369" lon="11.133623244189103"><ele>209.00000000000003</ele><time>2026-04-25T11:16:31.001Z</time></trkpt><trkpt lat="45.49994657083293" lon="11.133702952649198"><ele>209.0</ele><time>2026-04-25T11:16:32.001Z</time></trkpt><trkpt lat="45.49999619376764" lon="11.133766531734791"><ele>209.0</ele><time>2026-04-25T11:16:33.001Z</time></trkpt><trkpt lat="45.500047970810414" lon="11.133843759361724"><ele>209.0</ele><time>2026-04-25T11:16:35.001Z</time></trkpt><trkpt lat="45.50006219051514" lon="11.133944620693352"><ele>209.00000000000003</ele><time>2026-04-25T11:16:37.001Z</time></trkpt><trkpt lat="45.50012945235702" lon="11.133919238704847"><ele>209.0</ele><time>2026-04-25T11:16:41.001Z</time></trkpt><trkpt lat="45.50020220732502" lon="11.133778484874204"><ele>209.0</ele><time>2026-04-25T11:16:43.001Z</time></trkpt><trkpt lat="45.50028039986031" lon="11.133667755388602"><ele>209.0</ele><time>2026-04-25T11:16:45.001Z</time></trkpt><trkpt lat="45.500369662476835" lon="11.13358816309944"><ele>209.0</ele><time>2026-04-25T11:16:47.001Z</time></trkpt><trkpt lat="45.500453593684014" lon="11.133487056193236"><ele>209.0</ele><time>2026-04-25T11:16:49.001Z</time></trkpt><trkpt lat="45.50043831433253" lon="11.133345604817706"><ele>209.0</ele><time>2026-04-25T11:16:51.001Z</time></trkpt><trkpt lat="45.50039677569939" lon="11.133229322296462"><ele>206.0</ele><time>2026-04-25T11:16:52.001Z</time></trkpt><trkpt lat="45.500344194527194" lon="11.133111708620058"><ele>203.0</ele><time>2026-04-25T11:16:53.001Z</time></trkpt><trkpt lat="45.500302824874844" lon="11.132999499104349"><ele>200.0</ele><time>2026-04-25T11:16:54.001Z</time></trkpt><trkpt lat="45.50026437110416" lon="11.132891417136177"><ele>197.0</ele><time>2026-04-25T11:16:55.001Z</time></trkpt><trkpt lat="45.50021768765165" lon="11.132776559293816"><ele>194.0</ele><time>2026-04-25T11:16:56.001Z</time></trkpt><trkpt lat="45.5001765004589" lon="11.132662686138259"><ele>194.0</ele><time>2026-04-25T11:16:57.001Z</time></trkpt><trkpt lat="45.50014282073425" lon="11.132527932602516"><ele>194.0</ele><time>2026-04-25T11:16:58.001Z</time></trkpt><trkpt lat="45.500106431576405" lon="11.13239698031606"><ele>194.0</ele><time>2026-04-25T11:16:59.001Z</time></trkpt><trkpt lat="45.5000700157173" lon="11.132261940558617"><ele>194.0</ele><time>2026-04-25T11:17:00.001Z</time></trkpt><trkpt lat="45.500016558584505" lon="11.132124449023689"><ele>194.0</ele><time>2026-04-25T11:17:01.001Z</time></trkpt><trkpt lat="45.49995745771662" lon="11.131983657730318"><ele>193.0</ele><time>2026-04-25T11:17:02.001Z</time></trkpt><trkpt lat="45.49990021891995" lon="11.131846775254672"><ele>192.0</ele><time>2026-04-25T11:17:03.001Z</time></trkpt><trkpt lat="45.499854834853245" lon="11.13169724891539"><ele>191.0</ele><time>2026-04-25T11:17:04.001Z</time></trkpt><trkpt lat="45.49982437399173" lon="11.131539077274867"><ele>190.0</ele><time>2026-04-25T11:17:05.001Z</time></trkpt><trkpt lat="45.499778432190666" lon="11.131385060152311"><ele>189.2</ele><time>2026-04-25T11:17:06.001Z</time></trkpt><trkpt lat="45.49972951098212" lon="11.131236153149466"><ele>188.4</ele><time>2026-04-25T11:17:07.001Z</time></trkpt><trkpt lat="45.49967693948692" lon="11.131097091260898"><ele>187.60000000000002</ele><time>2026-04-25T11:17:08.001Z</time></trkpt><trkpt lat="45.49965272919303" lon="11.13095367424848"><ele>186.8</ele><time>2026-04-25T11:17:09.001Z</time></trkpt><trkpt lat="45.499629850540245" lon="11.130830662613876"><ele>186.0</ele><time>2026-04-25T11:17:10.001Z</time></trkpt><trkpt lat="45.49961901276497" lon="11.130700495697221"><ele>183.8</ele><time>2026-04-25T11:17:11.001Z</time></trkpt><trkpt lat="45.499622645678826" lon="11.1305635563567"><ele>181.60000000000002</ele><time>2026-04-25T11:17:12.001Z</time></trkpt><trkpt lat="45.499614669634326" lon="11.13042107523502"><ele>179.4</ele><time>2026-04-25T11:17:13.001Z</time></trkpt><trkpt lat="45.49959373171156" lon="11.130266728403443"><ele>177.2</ele><time>2026-04-25T11:17:14.001Z</time></trkpt><trkpt lat="45.499581348631104" lon="11.130153320044734"><ele>175.0</ele><time>2026-04-25T11:17:15.001Z</time></trkpt><trkpt lat="45.49962018174209" lon="11.130057939043844"><ele>175.0</ele><time>2026-04-25T11:17:16.001Z</time></trkpt><trkpt lat="45.49965651534753" lon="11.129952299514294"><ele>175.0</ele><time>2026-04-25T11:17:17.001Z</time></trkpt><trkpt lat="45.49969518569958" lon="11.129845432550768"><ele>175.0</ele><time>2026-04-25T11:17:18.001Z</time></trkpt><trkpt lat="45.49974525919036" lon="11.129700086153916"><ele>175.0</ele><time>2026-04-25T11:17:19.001Z</time></trkpt><trkpt lat="45.49980194519718" lon="11.129598678053869"><ele>175.0</ele><time>2026-04-25T11:17:20.001Z</time></trkpt><trkpt lat="45.49983586919872" lon="11.129494195499985"><ele>171.4</ele><time>2026-04-25T11:17:21.001Z</time></trkpt><trkpt lat="45.49986530150332" lon="11.129356078650806"><ele>167.8</ele><time>2026-04-25T11:17:23.001Z</time></trkpt><trkpt lat="45.49984212005931" lon="11.129236261561717"><ele>164.2</ele><time>2026-04-25T11:17:25.002Z</time></trkpt><trkpt lat="45.49971193409633" lon="11.12920991886274"><ele>160.6</ele><time>2026-04-25T11:17:26.002Z</time></trkpt><trkpt lat="45.49964713255843" lon="11.129193141852678"><ele>157.0</ele><time>2026-04-25T11:17:27.002Z</time></trkpt><trkpt lat="45.49956547243951" lon="11.129114709698278"><ele>155.4</ele><time>2026-04-25T11:17:29.002Z</time></trkpt><trkpt lat="45.49944366590325" lon="11.129036465535755"><ele>153.79999999999998</ele><time>2026-04-25T11:17:31.002Z</time></trkpt><trkpt lat="45.499377147533046" lon="11.128977193326016"><ele>152.2</ele><time>2026-04-25T11:17:32.002Z</time></trkpt><trkpt lat="45.499315857937574" lon="11.128866072568222"><ele>150.6</ele><time>2026-04-25T11:17:33.002Z</time></trkpt><trkpt lat="45.49921466400401" lon="11.128784489874434"><ele>149.0</ele><time>2026-04-25T11:17:34.002Z</time></trkpt><trkpt lat="45.499099072242004" lon="11.128716787127408"><ele>149.0</ele><time>2026-04-25T11:17:35.002Z</time></trkpt><trkpt lat="45.49898888292219" lon="11.128637491997576"><ele>149.0</ele><time>2026-04-25T11:17:36.002Z</time></trkpt><trkpt lat="45.498849336694455" lon="11.128582712129308"><ele>149.0</ele><time>2026-04-25T11:17:37.002Z</time></trkpt><trkpt lat="45.49870994698993" lon="11.128572154675574"><ele>149.0</ele><time>2026-04-25T11:17:38.002Z</time></trkpt><trkpt lat="45.49858664768212" lon="11.128607284413023"><ele>150.0</ele><time>2026-04-25T11:17:39.002Z</time></trkpt><trkpt lat="45.4984546748532" lon="11.128625485986765"><ele>151.0</ele><time>2026-04-25T11:17:40.002Z</time></trkpt><trkpt lat="45.498323142029605" lon="11.12867340886183"><ele>152.0</ele><time>2026-04-25T11:17:41.002Z</time></trkpt><trkpt lat="45.4981806297382" lon="11.12868422144211"><ele>153.0</ele><time>2026-04-25T11:17:42.002Z</time></trkpt><trkpt lat="45.498039155228724" lon="11.128707921014051"><ele>152.33333333333334</ele><time>2026-04-25T11:17:43.002Z</time></trkpt><trkpt lat="45.49789659418578" lon="11.128701441429884"><ele>151.66666666666669</ele><time>2026-04-25T11:17:44.002Z</time></trkpt><trkpt lat="45.49774419566323" lon="11.12870060447116"><ele>151.0</ele><time>2026-04-25T11:17:45.001Z</time></trkpt><trkpt lat="45.497584738247205" lon="11.128712916222048"><ele>151.0</ele><time>2026-04-25T11:17:46.001Z</time></trkpt><trkpt lat="45.497417347224925" lon="11.128687127735995"><ele>151.0</ele><time>2026-04-25T11:17:47.001Z</time></trkpt><trkpt lat="45.49725201797696" lon="11.128671366610181"><ele>151.0</ele><time>2026-04-25T11:17:48.001Z</time></trkpt><trkpt lat="45.49706924788234" lon="11.128659095683693"><ele>148.66666666666669</ele><time>2026-04-25T11:17:49.001Z</time></trkpt><trkpt lat="45.496900033466396" lon="11.128646836082275"><ele>146.33333333333334</ele><time>2026-04-25T11:17:50.001Z</time></trkpt><trkpt lat="45.49675611921113" lon="11.128627173715094"><ele>144.0</ele><time>2026-04-25T11:17:51.001Z</time></trkpt><trkpt lat="45.49661743087148" lon="11.128611112718556"><ele>144.0</ele><time>2026-04-25T11:17:52.001Z</time></trkpt><trkpt lat="45.49648418867817" lon="11.128593532850658"><ele>144.0</ele><time>2026-04-25T11:17:53.001Z</time></trkpt><trkpt lat="45.496344995442904" lon="11.128570268132304"><ele>144.0</ele><time>2026-04-25T11:17:54.001Z</time></trkpt><trkpt lat="45.49619295973086" lon="11.128548792101395"><ele>144.0</ele><time>2026-04-25T11:17:55.001Z</time></trkpt><trkpt lat="45.49603858383822" lon="11.128497554860637"><ele>143.33333333333334</ele><time>2026-04-25T11:17:56.001Z</time></trkpt><trkpt lat="45.495875575781064" lon="11.128467740959518"><ele>142.66666666666669</ele><time>2026-04-25T11:17:57.001Z</time></trkpt><trkpt lat="45.49570605143198" lon="11.128459378043447"><ele>142.0</ele><time>2026-04-25T11:17:58.001Z</time></trkpt><trkpt lat="45.49553370595708" lon="11.12843113480804"><ele>141.0</ele><time>2026-04-25T11:17:59.001Z</time></trkpt><trkpt lat="45.49535319018295" lon="11.128405091352834"><ele>140.0</ele><time>2026-04-25T11:18:00.001Z</time></trkpt><trkpt lat="45.49517318196838" lon="11.128384653262321"><ele>139.0</ele><time>2026-04-25T11:18:01.001Z</time></trkpt><trkpt lat="45.49499918436713" lon="11.128369606282112"><ele>139.0</ele><time>2026-04-25T11:18:02.001Z</time></trkpt><trkpt lat="45.49484581103826" lon="11.128351959406372"><ele>139.0</ele><time>2026-04-25T11:18:03.001Z</time></trkpt><trkpt lat="45.4947009918599" lon="11.128341756115555"><ele>139.0</ele><time>2026-04-25T11:18:04.001Z</time></trkpt><trkpt lat="45.49456848866552" lon="11.128303859605312"><ele>139.0</ele><time>2026-04-25T11:18:05.001Z</time></trkpt><trkpt lat="45.494451173540206" lon="11.128279839435958"><ele>139.0</ele><time>2026-04-25T11:18:06.001Z</time></trkpt><trkpt lat="45.494362878054865" lon="11.128257725446518"><ele>139.0</ele><time>2026-04-25T11:18:07.001Z</time></trkpt><trkpt lat="45.49429258730767" lon="11.128237959664428"><ele>139.0</ele><time>2026-04-25T11:18:08.001Z</time></trkpt><trkpt lat="45.494223419576095" lon="11.128217143703587"><ele>139.0</ele><time>2026-04-25T11:18:10.001Z</time></trkpt><trkpt lat="45.49410412585902" lon="11.128181229603369"><ele>139.0</ele><time>2026-04-25T11:19:45.001Z</time></trkpt><trkpt lat="45.49401550131281" lon="11.12815861062347"><ele>139.0</ele><time>2026-04-25T11:19:46.001Z</time></trkpt><trkpt lat="45.493963816028305" lon="11.128107031253796"><ele>139.4</ele><time>2026-04-25T11:19:47.001Z</time></trkpt><trkpt lat="45.49390989274856" lon="11.12805416458346"><ele>139.8</ele><time>2026-04-25T11:19:49.001Z</time></trkpt><trkpt lat="45.49392350852915" lon="11.127868217356593"><ele>140.2</ele><time>2026-04-25T11:19:50.001Z</time></trkpt><trkpt lat="45.49393730607117" lon="11.127724470635382"><ele>140.6</ele><time>2026-04-25T11:19:51.001Z</time></trkpt><trkpt lat="45.49394351495217" lon="11.127566144645202"><ele>141.0</ele><time>2026-04-25T11:19:52.001Z</time></trkpt><trkpt lat="45.4939282072966" lon="11.127402079180953"><ele>142.25</ele><time>2026-04-25T11:19:53.001Z</time></trkpt><trkpt lat="45.49387517638668" lon="11.12724246998622"><ele>143.5</ele><time>2026-04-25T11:19:54.001Z</time></trkpt><trkpt lat="45.493787820497886" lon="11.127085537316574"><ele>144.75</ele><time>2026-04-25T11:19:55.001Z</time></trkpt><trkpt lat="45.49367964161827" lon="11.126926245950973"><ele>146.0</ele><time>2026-04-25T11:19:56.001Z</time></trkpt><trkpt lat="45.493562566766236" lon="11.126775546803206"><ele>146.0</ele><time>2026-04-25T11:19:57.001Z</time></trkpt><trkpt lat="45.49345851411206" lon="11.126632970192071"><ele>146.0</ele><time>2026-04-25T11:19:58.001Z</time></trkpt><trkpt lat="45.49335544933026" lon="11.12649087071761"><ele>146.0</ele><time>2026-04-25T11:19:59.001Z</time></trkpt><trkpt lat="45.49326547939782" lon="11.126356036891359"><ele>146.0</ele><time>2026-04-25T11:20:00.001Z</time></trkpt><trkpt lat="45.49317375205728" lon="11.12621675628232"><ele>145.75</ele><time>2026-04-25T11:20:01.001Z</time></trkpt><trkpt lat="45.4930950230953" lon="11.12608196274307"><ele>145.5</ele><time>2026-04-25T11:20:02.001Z</time></trkpt><trkpt lat="45.493006178761036" lon="11.125966947679325"><ele>145.25</ele><time>2026-04-25T11:20:03.001Z</time></trkpt><trkpt lat="45.49292688313205" lon="11.125861975553807"><ele>145.0</ele><time>2026-04-25T11:20:04.001Z</time></trkpt><trkpt lat="45.49284493400593" lon="11.125782265438215"><ele>145.0</ele><time>2026-04-25T11:20:05.001Z</time></trkpt><trkpt lat="45.492747483585354" lon="11.125750441906561"><ele>145.0</ele><time>2026-04-25T11:20:06.001Z</time></trkpt><trkpt lat="45.492623214482045" lon="11.125739229370536"><ele>145.0</ele><time>2026-04-25T11:20:07.001Z</time></trkpt><trkpt lat="45.49248123378358" lon="11.125740399674408"><ele>145.0</ele><time>2026-04-25T11:20:08.001Z</time></trkpt><trkpt lat="45.492326747632646" lon="11.125767982951839"><ele>145.0</ele><time>2026-04-25T11:20:09.001Z</time></trkpt><trkpt lat="45.492169596637446" lon="11.12576700557176"><ele>145.0</ele><time>2026-04-25T11:20:10.001Z</time></trkpt><trkpt lat="45.492030066545354" lon="11.125777826986242"><ele>145.0</ele><time>2026-04-25T11:20:11.001Z</time></trkpt><trkpt lat="45.49191110660817" lon="11.12580872742589"><ele>145.0</ele><time>2026-04-25T11:20:12.001Z</time></trkpt><trkpt lat="45.4918009427484" lon="11.125804275942722"><ele>145.16666666666669</ele><time>2026-04-25T11:20:13.001Z</time></trkpt><trkpt lat="45.49169880598433" lon="11.125819379924044"><ele>145.33333333333334</ele><time>2026-04-25T11:20:14.001Z</time></trkpt><trkpt lat="45.49160560917126" lon="11.125815527422956"><ele>145.5</ele><time>2026-04-25T11:20:15.001Z</time></trkpt><trkpt lat="45.491522680487314" lon="11.125795594535044"><ele>145.66666666666666</ele><time>2026-04-25T11:20:16.001Z</time></trkpt><trkpt lat="45.491450054731246" lon="11.125770824972394"><ele>145.83333333333331</ele><time>2026-04-25T11:20:17.001Z</time></trkpt><trkpt lat="45.49139784680156" lon="11.125698549665149"><ele>146.0</ele><time>2026-04-25T11:20:18.001Z</time></trkpt><trkpt lat="45.491365438805936" lon="11.12559369460418"><ele>147.0</ele><time>2026-04-25T11:20:19.001Z</time></trkpt><trkpt lat="45.49130508286116" lon="11.125463560518277"><ele>148.0</ele><time>2026-04-25T11:20:20.001Z</time></trkpt><trkpt lat="45.491243666384484" lon="11.12534882391341"><ele>149.0</ele><time>2026-04-25T11:20:21.001Z</time></trkpt><trkpt lat="45.4911779949749" lon="11.125238377156855"><ele>150.0</ele><time>2026-04-25T11:20:22.001Z</time></trkpt><trkpt lat="45.49111899470727" lon="11.125117865547022"><ele>151.0</ele><time>2026-04-25T11:20:23.001Z</time></trkpt><trkpt lat="45.491050894211284" lon="11.124997822728416"><ele>153.8</ele><time>2026-04-25T11:20:24.001Z</time></trkpt><trkpt lat="45.491000118426264" lon="11.124893274348752"><ele>156.6</ele><time>2026-04-25T11:20:25.001Z</time></trkpt><trkpt lat="45.490954090859034" lon="11.124800675695464"><ele>159.4</ele><time>2026-04-25T11:20:26.001Z</time></trkpt><trkpt lat="45.49092408535165" lon="11.124719249897781"><ele>162.2</ele><time>2026-04-25T11:20:27.001Z</time></trkpt><trkpt lat="45.49088497308204" lon="11.124592971639922"><ele>165.0</ele><time>2026-04-25T11:20:29.001Z</time></trkpt><trkpt lat="45.49068383766261" lon="11.12471496271013"><ele>165.0</ele><time>2026-04-25T11:20:33.001Z</time></trkpt><trkpt lat="45.49068978832896" lon="11.124863386290919"><ele>165.0</ele><time>2026-04-25T11:20:35.001Z</time></trkpt><trkpt lat="45.490718654771236" lon="11.124995582414304"><ele>165.0</ele><time>2026-04-25T11:20:37.001Z</time></trkpt><trkpt lat="45.49064485533364" lon="11.125081465287568"><ele>165.0</ele><time>2026-04-25T11:20:39.001Z</time></trkpt><trkpt lat="45.490525646858316" lon="11.12509646418814"><ele>165.0</ele><time>2026-04-25T11:20:41.001Z</time></trkpt><trkpt lat="45.490455319165356" lon="11.125097459939521"><ele>166.2</ele><time>2026-04-25T11:20:42.001Z</time></trkpt><trkpt lat="45.49037209060131" lon="11.125113870753943"><ele>167.4</ele><time>2026-04-25T11:20:43.001Z</time></trkpt><trkpt lat="45.4902861453743" lon="11.12510592653797"><ele>168.60000000000002</ele><time>2026-04-25T11:20:44.001Z</time></trkpt><trkpt lat="45.49017629009861" lon="11.125084629698701"><ele>169.8</ele><time>2026-04-25T11:20:45.001Z</time></trkpt><trkpt lat="45.490081336161346" lon="11.125081579062927"><ele>171.0</ele><time>2026-04-25T11:20:46.001Z</time></trkpt><trkpt lat="45.489980959083745" lon="11.125059291451192"><ele>171.0</ele><time>2026-04-25T11:20:47.001Z</time></trkpt><trkpt lat="45.489878918155476" lon="11.125030092880294"><ele>171.0</ele><time>2026-04-25T11:20:48.001Z</time></trkpt><trkpt lat="45.489764217359394" lon="11.124984950434108"><ele>171.0</ele><time>2026-04-25T11:20:49.001Z</time></trkpt><trkpt lat="45.48966295041902" lon="11.124926838898677"><ele>171.0</ele><time>2026-04-25T11:20:50.001Z</time></trkpt><trkpt lat="45.48957016314771" lon="11.124856245089607"><ele>171.0</ele><time>2026-04-25T11:20:51.001Z</time></trkpt><trkpt lat="45.48947646942365" lon="11.124785282683264"><ele>176.20000000000002</ele><time>2026-04-25T11:20:52.001Z</time></trkpt><trkpt lat="45.48937177128068" lon="11.124712841378328"><ele>181.4</ele><time>2026-04-25T11:20:53.001Z</time></trkpt><trkpt lat="45.48927977580043" lon="11.124627824030041"><ele>186.6</ele><time>2026-04-25T11:20:54.001Z</time></trkpt><trkpt lat="45.489194795023465" lon="11.124562926654628"><ele>191.8</ele><time>2026-04-25T11:20:55.001Z</time></trkpt><trkpt lat="45.48909419843745" lon="11.124511707705926"><ele>197.0</ele><time>2026-04-25T11:20:56.001Z</time></trkpt><trkpt lat="45.489005047622854" lon="11.124449395948162"><ele>197.0</ele><time>2026-04-25T11:20:57.001Z</time></trkpt><trkpt lat="45.488923816004814" lon="11.124371886803704"><ele>197.0</ele><time>2026-04-25T11:20:58.001Z</time></trkpt><trkpt lat="45.48883431962531" lon="11.124301093923037"><ele>197.0</ele><time>2026-04-25T11:20:59.001Z</time></trkpt><trkpt lat="45.48873593744765" lon="11.124252739069934"><ele>197.0</ele><time>2026-04-25T11:21:00.001Z</time></trkpt><trkpt lat="45.48864699617903" lon="11.124208978894492"><ele>197.0</ele><time>2026-04-25T11:21:01.001Z</time></trkpt><trkpt lat="45.48856596346215" lon="11.12414095276424"><ele>195.39999999999998</ele><time>2026-04-25T11:21:02.001Z</time></trkpt><trkpt lat="45.488479384305805" lon="11.124071625049574"><ele>193.79999999999998</ele><time>2026-04-25T11:21:03.001Z</time></trkpt><trkpt lat="45.48838453684338" lon="11.123990394421705"><ele>192.2</ele><time>2026-04-25T11:21:04.001Z</time></trkpt><trkpt lat="45.488288670655535" lon="11.123908767142055"><ele>190.6</ele><time>2026-04-25T11:21:05.001Z</time></trkpt><trkpt lat="45.48819910277865" lon="11.123813825826794"><ele>189.0</ele><time>2026-04-25T11:21:06.001Z</time></trkpt><trkpt lat="45.48811099304807" lon="11.123717995458305"><ele>189.33333333333334</ele><time>2026-04-25T11:21:07.001Z</time></trkpt><trkpt lat="45.48803519054422" lon="11.123640678272121"><ele>189.66666666666666</ele><time>2026-04-25T11:21:08.001Z</time></trkpt><trkpt lat="45.487980874080264" lon="11.123546689404339"><ele>190.0</ele><time>2026-04-25T11:21:09.001Z</time></trkpt><trkpt lat="45.487944839709165" lon="11.123433709846237"><ele>190.33333333333331</ele><time>2026-04-25T11:21:10.001Z</time></trkpt><trkpt lat="45.487898915922315" lon="11.123336590536306"><ele>190.66666666666666</ele><time>2026-04-25T11:21:11.001Z</time></trkpt><trkpt lat="45.48783176053667" lon="11.1232274783579"><ele>191.0</ele><time>2026-04-25T11:21:12.001Z</time></trkpt><trkpt lat="45.48776413533552" lon="11.123102444776801"><ele>195.75</ele><time>2026-04-25T11:21:13.001Z</time></trkpt><trkpt lat="45.487715776453136" lon="11.122988336966811"><ele>200.5</ele><time>2026-04-25T11:21:14.001Z</time></trkpt><trkpt lat="45.48783035709942" lon="11.122784623208641"><ele>205.25</ele><time>2026-04-25T11:21:15.001Z</time></trkpt><trkpt lat="45.48786785154683" lon="11.122656155937891"><ele>210.0</ele><time>2026-04-25T11:21:17.001Z</time></trkpt><trkpt lat="45.48787555282207" lon="11.122517697107693"><ele>214.5</ele><time>2026-04-25T11:21:18.001Z</time></trkpt><trkpt lat="45.48786803099056" lon="11.122369233725266"><ele>219.0</ele><time>2026-04-25T11:21:19.001Z</time></trkpt><trkpt lat="45.48782817375871" lon="11.122223431402238"><ele>223.5</ele><time>2026-04-25T11:21:20.001Z</time></trkpt><trkpt lat="45.487786148364975" lon="11.122134160958025"><ele>228.0</ele><time>2026-04-25T11:21:21.001Z</time></trkpt><trkpt lat="45.48760889055351" lon="11.122279125633941"><ele>228.0</ele><time>2026-04-25T11:21:22.001Z</time></trkpt><trkpt lat="45.487542732447885" lon="11.122214351287797"><ele>228.0</ele><time>2026-04-25T11:21:24.001Z</time></trkpt><trkpt lat="45.48746044199907" lon="11.122171459362495"><ele>228.0</ele><time>2026-04-25T11:21:25.001Z</time></trkpt><trkpt lat="45.487375014472605" lon="11.122156223676178"><ele>228.0</ele><time>2026-04-25T11:21:26.001Z</time></trkpt><trkpt lat="45.48728704429209" lon="11.122184350168354"><ele>228.0</ele><time>2026-04-25T11:21:27.001Z</time></trkpt><trkpt lat="45.487200894318235" lon="11.122216438432146"><ele>228.0</ele><time>2026-04-25T11:21:28.001Z</time></trkpt><trkpt lat="45.487128944024064" lon="11.122278592544633"><ele>227.2</ele><time>2026-04-25T11:21:29.001Z</time></trkpt><trkpt lat="45.48706128502767" lon="11.122378076564472"><ele>226.4</ele><time>2026-04-25T11:21:30.001Z</time></trkpt><trkpt lat="45.48699119533526" lon="11.122481445042531"><ele>225.59999999999997</ele><time>2026-04-25T11:21:31.001Z</time></trkpt><trkpt lat="45.486920850676924" lon="11.122586037036568"><ele>224.79999999999998</ele><time>2026-04-25T11:21:32.001Z</time></trkpt><trkpt lat="45.48683322519071" lon="11.122688740328787"><ele>224.0</ele><time>2026-04-25T11:21:33.001Z</time></trkpt><trkpt lat="45.48676136492557" lon="11.122824980596882"><ele>224.0</ele><time>2026-04-25T11:21:34.001Z</time></trkpt><trkpt lat="45.48667521539235" lon="11.122909784637832"><ele>223.99999999999997</ele><time>2026-04-25T11:21:35.001Z</time></trkpt><trkpt lat="45.48659772272463" lon="11.122995543482103"><ele>223.99999999999997</ele><time>2026-04-25T11:21:36.001Z</time></trkpt><trkpt lat="45.48653100380015" lon="11.123044854218133"><ele>224.0</ele><time>2026-04-25T11:21:37.001Z</time></trkpt><trkpt lat="45.48644829746601" lon="11.123108781481811"><ele>224.0</ele><time>2026-04-25T11:21:38.001Z</time></trkpt><trkpt lat="45.4863565193225" lon="11.123154719300008"><ele>225.0</ele><time>2026-04-25T11:21:39.001Z</time></trkpt><trkpt lat="45.486282694158334" lon="11.123267943050768"><ele>225.99999999999997</ele><time>2026-04-25T11:21:40.001Z</time></trkpt><trkpt lat="45.48623716301671" lon="11.123404068437141"><ele>226.99999999999997</ele><time>2026-04-25T11:21:41.001Z</time></trkpt><trkpt lat="45.48624180331464" lon="11.1235707377239"><ele>228.0</ele><time>2026-04-25T11:21:42.001Z</time></trkpt><trkpt lat="45.48622847383313" lon="11.123730040797703"><ele>229.0</ele><time>2026-04-25T11:21:43.001Z</time></trkpt><trkpt lat="45.486209474195924" lon="11.12387266523926"><ele>228.99999999999997</ele><time>2026-04-25T11:21:44.001Z</time></trkpt><trkpt lat="45.48613958330393" lon="11.123963341233349"><ele>229.0</ele><time>2026-04-25T11:21:45.001Z</time></trkpt><trkpt lat="45.48607975639734" lon="11.124061346437134"><ele>229.0</ele><time>2026-04-25T11:21:46.001Z</time></trkpt><trkpt lat="45.48602447034063" lon="11.124154675941492"><ele>229.0</ele><time>2026-04-25T11:21:47.001Z</time></trkpt><trkpt lat="45.4859307618943" lon="11.124186498460748"><ele>228.99999999999997</ele><time>2026-04-25T11:21:48.001Z</time></trkpt><trkpt lat="45.485858436910576" lon="11.124190242684632"><ele>229.0</ele><time>2026-04-25T11:21:49.001Z</time></trkpt><trkpt lat="45.485771944697994" lon="11.124236192444277"><ele>226.75</ele><time>2026-04-25T11:21:50.001Z</time></trkpt><trkpt lat="45.48566702886195" lon="11.124248825514545"><ele>224.5</ele><time>2026-04-25T11:21:51.001Z</time></trkpt><trkpt lat="45.48554888889363" lon="11.124217114677267"><ele>222.25</ele><time>2026-04-25T11:21:52.001Z</time></trkpt><trkpt lat="45.4854220067998" lon="11.124201045764522"><ele>220.0</ele><time>2026-04-25T11:21:53.001Z</time></trkpt><trkpt lat="45.48529015791836" lon="11.124192299824296"><ele>218.25</ele><time>2026-04-25T11:21:54.001Z</time></trkpt><trkpt lat="45.485161887689195" lon="11.124172730002105"><ele>216.5</ele><time>2026-04-25T11:21:55.001Z</time></trkpt><trkpt lat="45.485032102074015" lon="11.124145174815183"><ele>214.75</ele><time>2026-04-25T11:21:56.001Z</time></trkpt><trkpt lat="45.48489832801156" lon="11.124118115729097"><ele>213.0</ele><time>2026-04-25T11:21:56.999Z</time></trkpt><trkpt lat="45.48475891671767" lon="11.124093609754016"><ele>213.0</ele><time>2026-04-25T11:21:57.999Z</time></trkpt><trkpt lat="45.48461229275416" lon="11.124065950806964"><ele>213.0</ele><time>2026-04-25T11:21:58.999Z</time></trkpt><trkpt lat="45.48446291618872" lon="11.124040079185423"><ele>213.0</ele><time>2026-04-25T11:21:59.999Z</time></trkpt><trkpt lat="45.484306073824364" lon="11.124012671878576"><ele>211.33333333333331</ele><time>2026-04-25T11:22:00.999Z</time></trkpt><trkpt lat="45.484146057685535" lon="11.123981641133001"><ele>209.66666666666666</ele><time>2026-04-25T11:22:01.999Z</time></trkpt><trkpt lat="45.48397692451572" lon="11.123945151665156"><ele>208.0</ele><time>2026-04-25T11:22:02.999Z</time></trkpt><trkpt lat="45.483808687357524" lon="11.123909059978784"><ele>202.33333333333331</ele><time>2026-04-25T11:22:03.999Z</time></trkpt><trkpt lat="45.48363564271213" lon="11.123867756124435"><ele>196.66666666666666</ele><time>2026-04-25T11:22:04.999Z</time></trkpt><trkpt lat="45.483458706790834" lon="11.123813149750104"><ele>191.0</ele><time>2026-04-25T11:22:05.999Z</time></trkpt><trkpt lat="45.48328370030064" lon="11.123745435234335"><ele>191.0</ele><time>2026-04-25T11:22:06.999Z</time></trkpt><trkpt lat="45.48310807893991" lon="11.123666675855564"><ele>191.0</ele><time>2026-04-25T11:22:07.999Z</time></trkpt><trkpt lat="45.48292931855273" lon="11.123575058078204"><ele>191.0</ele><time>2026-04-25T11:22:08.999Z</time></trkpt><trkpt lat="45.48274850747263" lon="11.12348499565727"><ele>185.0</ele><time>2026-04-25T11:22:09.999Z</time></trkpt><trkpt lat="45.482566166469496" lon="11.123419677548139"><ele>179.0</ele><time>2026-04-25T11:22:10.999Z</time></trkpt><trkpt lat="45.482377752884986" lon="11.123372624204611"><ele>173.0</ele><time>2026-04-25T11:22:11.999Z</time></trkpt><trkpt lat="45.48218425415587" lon="11.123356989296516"><ele>167.66666666666666</ele><time>2026-04-25T11:22:12.999Z</time></trkpt><trkpt lat="45.48199505451226" lon="11.123347099390514"><ele>162.33333333333334</ele><time>2026-04-25T11:22:13.999Z</time></trkpt><trkpt lat="45.48181310924975" lon="11.123329558593616"><ele>157.0</ele><time>2026-04-25T11:22:14.999Z</time></trkpt><trkpt lat="45.481630882709645" lon="11.12328601171546"><ele>156.0</ele><time>2026-04-25T11:22:15.999Z</time></trkpt><trkpt lat="45.481448891421515" lon="11.123229508242511"><ele>155.0</ele><time>2026-04-25T11:22:16.999Z</time></trkpt><trkpt lat="45.481286151281026" lon="11.123169731491386"><ele>154.0</ele><time>2026-04-25T11:22:17.999Z</time></trkpt><trkpt lat="45.48115042911823" lon="11.123037232798618"><ele>154.0</ele><time>2026-04-25T11:22:18.999Z</time></trkpt><trkpt lat="45.481002960770645" lon="11.122926565652694"><ele>154.0</ele><time>2026-04-25T11:22:19.999Z</time></trkpt><trkpt lat="45.48088847484959" lon="11.12279158078757"><ele>154.0</ele><time>2026-04-25T11:22:20.999Z</time></trkpt><trkpt lat="45.48078534771922" lon="11.122684677628587"><ele>154.0</ele><time>2026-04-25T11:22:21.999Z</time></trkpt><trkpt lat="45.48069200235549" lon="11.122612203326614"><ele>154.0</ele><time>2026-04-25T11:22:22.999Z</time></trkpt><trkpt lat="45.48060930314421" lon="11.12257415826704"><ele>154.0</ele><time>2026-04-25T11:22:23.999Z</time></trkpt><trkpt lat="45.48052196203472" lon="11.122567998300092"><ele>154.0</ele><time>2026-04-25T11:22:24.999Z</time></trkpt><trkpt lat="45.4804337634673" lon="11.12261626508996"><ele>154.0</ele><time>2026-04-25T11:22:25.999Z</time></trkpt><trkpt lat="45.48035040964472" lon="11.122708496935479"><ele>154.0</ele><time>2026-04-25T11:22:27Z</time></trkpt><trkpt lat="45.480273843513224" lon="11.122807161760832"><ele>150.4</ele><time>2026-04-25T11:22:28Z</time></trkpt><trkpt lat="45.48018402349493" lon="11.12289885847105"><ele>146.8</ele><time>2026-04-25T11:22:29Z</time></trkpt><trkpt lat="45.48009986093618" lon="11.123013872391304"><ele>143.2</ele><time>2026-04-25T11:22:30Z</time></trkpt><trkpt lat="45.48004758540693" lon="11.123134407399595"><ele>139.6</ele><time>2026-04-25T11:22:31Z</time></trkpt><trkpt lat="45.47998635369746" lon="11.123208704376365"><ele>136.0</ele><time>2026-04-25T11:22:32Z</time></trkpt><trkpt lat="45.47991483085263" lon="11.123203918398765"><ele>136.0</ele><time>2026-04-25T11:22:33Z</time></trkpt><trkpt lat="45.47982634020928" lon="11.12322567606061"><ele>136.0</ele><time>2026-04-25T11:22:34Z</time></trkpt><trkpt lat="45.4797281512795" lon="11.123249818357198"><ele>136.0</ele><time>2026-04-25T11:22:35Z</time></trkpt><trkpt lat="45.479613775181896" lon="11.123277776495724"><ele>136.0</ele><time>2026-04-25T11:22:36Z</time></trkpt><trkpt lat="45.479484872848296" lon="11.123322884877378"><ele>136.0</ele><time>2026-04-25T11:22:37Z</time></trkpt><trkpt lat="45.47936048681829" lon="11.123346393333652"><ele>136.66666666666669</ele><time>2026-04-25T11:22:38Z</time></trkpt><trkpt lat="45.479250104680105" lon="11.123350211520423"><ele>137.33333333333334</ele><time>2026-04-25T11:22:39Z</time></trkpt><trkpt lat="45.4791640070593" lon="11.123358623402366"><ele>138.0</ele><time>2026-04-25T11:22:40Z</time></trkpt><trkpt lat="45.479101083858815" lon="11.123346259219787"><ele>138.66666666666666</ele><time>2026-04-25T11:22:41Z</time></trkpt><trkpt lat="45.47906536108404" lon="11.123247451693187"><ele>139.33333333333331</ele><time>2026-04-25T11:22:42Z</time></trkpt><trkpt lat="45.479081539631665" lon="11.123107030658904"><ele>140.0</ele><time>2026-04-25T11:22:43Z</time></trkpt><trkpt lat="45.47905382654424" lon="11.12296322935723"><ele>140.0</ele><time>2026-04-25T11:22:44Z</time></trkpt><trkpt lat="45.47904199233249" lon="11.122787537648929"><ele>140.0</ele><time>2026-04-25T11:22:45Z</time></trkpt><trkpt lat="45.47902723219994" lon="11.122585738867734"><ele>140.0</ele><time>2026-04-25T11:22:46Z</time></trkpt><trkpt lat="45.47901999097521" lon="11.1223696687355"><ele>140.0</ele><time>2026-04-25T11:22:47Z</time></trkpt><trkpt lat="45.4790138829093" lon="11.122172869521282"><ele>140.0</ele><time>2026-04-25T11:22:48Z</time></trkpt><trkpt lat="45.47899558295681" lon="11.121965054394522"><ele>140.0</ele><time>2026-04-25T11:22:49Z</time></trkpt><trkpt lat="45.47900595639809" lon="11.12173572222743"><ele>140.0</ele><time>2026-04-25T11:22:50Z</time></trkpt><trkpt lat="45.47900859281453" lon="11.121519777266244"><ele>141.33333333333331</ele><time>2026-04-25T11:22:51Z</time></trkpt><trkpt lat="45.47899245939858" lon="11.121293026658911"><ele>142.66666666666666</ele><time>2026-04-25T11:22:52Z</time></trkpt><trkpt lat="45.479006418397766" lon="11.121077182058553"><ele>144.0</ele><time>2026-04-25T11:22:53Z</time></trkpt><trkpt lat="45.47900732669468" lon="11.120876790194805"><ele>146.0</ele><time>2026-04-25T11:22:54Z</time></trkpt><trkpt lat="45.478989272588926" lon="11.12066202048574"><ele>148.0</ele><time>2026-04-25T11:22:55Z</time></trkpt><trkpt lat="45.47898102508335" lon="11.12045115102358"><ele>150.0</ele><time>2026-04-25T11:22:56Z</time></trkpt><trkpt lat="45.47895631596325" lon="11.120245515211273"><ele>152.0</ele><time>2026-04-25T11:22:57Z</time></trkpt><trkpt lat="45.47891428812306" lon="11.120044508660747"><ele>153.25</ele><time>2026-04-25T11:22:58Z</time></trkpt><trkpt lat="45.47887333112543" lon="11.119845061330219"><ele>154.5</ele><time>2026-04-25T11:22:59Z</time></trkpt><trkpt lat="45.47879879833515" lon="11.119659674222211"><ele>155.75</ele><time>2026-04-25T11:23:00Z</time></trkpt><trkpt lat="45.478754505091125" lon="11.119463752831708"><ele>157.0</ele><time>2026-04-25T11:23:01Z</time></trkpt><trkpt lat="45.478702007464896" lon="11.119279910329666"><ele>160.25</ele><time>2026-04-25T11:23:02Z</time></trkpt><trkpt lat="45.478661210225184" lon="11.119093124400875"><ele>163.5</ele><time>2026-04-25T11:23:03Z</time></trkpt><trkpt lat="45.47862832108488" lon="11.11890723977183"><ele>166.75</ele><time>2026-04-25T11:23:04Z</time></trkpt><trkpt lat="45.478615295690204" lon="11.118732808019653"><ele>170.0</ele><time>2026-04-25T11:23:05Z</time></trkpt><trkpt lat="45.478560596058784" lon="11.11854214477112"><ele>170.0</ele><time>2026-04-25T11:23:06Z</time></trkpt><trkpt lat="45.47853151631785" lon="11.11833550655282"><ele>170.0</ele><time>2026-04-25T11:23:07Z</time></trkpt><trkpt lat="45.478506456559444" lon="11.118157696239617"><ele>170.0</ele><time>2026-04-25T11:23:08Z</time></trkpt><trkpt lat="45.47849013603221" lon="11.117998896640449"><ele>170.0</ele><time>2026-04-25T11:23:09Z</time></trkpt><trkpt lat="45.47845885767647" lon="11.11784479356034"><ele>169.5</ele><time>2026-04-25T11:23:10Z</time></trkpt><trkpt lat="45.47840969831701" lon="11.117705839489268"><ele>169.0</ele><time>2026-04-25T11:23:11Z</time></trkpt><trkpt lat="45.47834038971689" lon="11.117571506909155"><ele>168.5</ele><time>2026-04-25T11:23:12Z</time></trkpt><trkpt lat="45.478256036061325" lon="11.117457490823238"><ele>168.0</ele><time>2026-04-25T11:23:13Z</time></trkpt><trkpt lat="45.478162549706234" lon="11.117345557872456"><ele>168.0</ele><time>2026-04-25T11:23:14Z</time></trkpt><trkpt lat="45.47807216369922" lon="11.11722195155029"><ele>168.0</ele><time>2026-04-25T11:23:15Z</time></trkpt><trkpt lat="45.47800235932342" lon="11.117078503111623"><ele>168.0</ele><time>2026-04-25T11:23:16Z</time></trkpt><trkpt lat="45.47793487514548" lon="11.11694556993061"><ele>168.0</ele><time>2026-04-25T11:23:17Z</time></trkpt><trkpt lat="45.47788199258424" lon="11.11680297138381"><ele>170.0</ele><time>2026-04-25T11:23:18Z</time></trkpt><trkpt lat="45.47782378572652" lon="11.1166755172541"><ele>172.0</ele><time>2026-04-25T11:23:19Z</time></trkpt><trkpt lat="45.47777224783033" lon="11.116528282223223"><ele>174.0</ele><time>2026-04-25T11:23:20Z</time></trkpt><trkpt lat="45.47771689317251" lon="11.116383720230587"><ele>176.0</ele><time>2026-04-25T11:23:21Z</time></trkpt><trkpt lat="45.477665560977115" lon="11.116238603779964"><ele>176.0</ele><time>2026-04-25T11:23:22Z</time></trkpt><trkpt lat="45.47761905894348" lon="11.116124826657636"><ele>176.0</ele><time>2026-04-25T11:23:23Z</time></trkpt><trkpt lat="45.47759962326675" lon="11.116012359209016"><ele>176.0</ele><time>2026-04-25T11:23:24Z</time></trkpt><trkpt lat="45.477585951193724" lon="11.115871733262507"><ele>176.0</ele><time>2026-04-25T11:23:26Z</time></trkpt><trkpt lat="45.47746129123594" lon="11.115980885453435"><ele>176.0</ele><time>2026-04-25T11:23:30Z</time></trkpt><trkpt lat="45.477472093590066" lon="11.116083517628866"><ele>176.0</ele><time>2026-04-25T11:23:31Z</time></trkpt><trkpt lat="45.47745980216505" lon="11.116239146312738"><ele>176.0</ele><time>2026-04-25T11:23:33Z</time></trkpt><trkpt lat="45.47738426039348" lon="11.116252923485069"><ele>176.0</ele><time>2026-04-25T11:23:35Z</time></trkpt><trkpt lat="45.477329788917636" lon="11.11613947489475"><ele>176.0</ele><time>2026-04-25T11:23:37Z</time></trkpt><trkpt lat="45.47723614768427" lon="11.116017430762033"><ele>176.0</ele><time>2026-04-25T11:23:39Z</time></trkpt><trkpt lat="45.47715738887627" lon="11.11596590053376"><ele>178.83333333333331</ele><time>2026-04-25T11:23:40Z</time></trkpt><trkpt lat="45.47708290211457" lon="11.115956453686579"><ele>181.66666666666666</ele><time>2026-04-25T11:23:41Z</time></trkpt><trkpt lat="45.47700014600713" lon="11.115950266060425"><ele>184.5</ele><time>2026-04-25T11:23:42Z</time></trkpt><trkpt lat="45.476896596517015" lon="11.115935206379266"><ele>187.33333333333331</ele><time>2026-04-25T11:23:43Z</time></trkpt><trkpt lat="45.47680007213692" lon="11.115941871248294"><ele>190.16666666666666</ele><time>2026-04-25T11:23:44Z</time></trkpt><trkpt lat="45.47671031010775" lon="11.11595080519919"><ele>193.0</ele><time>2026-04-25T11:23:45Z</time></trkpt><trkpt lat="45.47663252046992" lon="11.115972290503441"><ele>193.0</ele><time>2026-04-25T11:23:46Z</time></trkpt><trkpt lat="45.476561824596075" lon="11.115988150732479"><ele>193.0</ele><time>2026-04-25T11:23:47Z</time></trkpt><trkpt lat="45.476456639344946" lon="11.11603612879205"><ele>193.0</ele><time>2026-04-25T11:23:49Z</time></trkpt><trkpt lat="45.47642994920569" lon="11.116200072404995"><ele>193.0</ele><time>2026-04-25T11:23:51Z</time></trkpt><trkpt lat="45.47643407689448" lon="11.116314013306825"><ele>193.0</ele><time>2026-04-25T11:23:52Z</time></trkpt><trkpt lat="45.47645160809825" lon="11.116416887961938"><ele>192.99999999999997</ele><time>2026-04-25T11:23:53Z</time></trkpt><trkpt lat="45.476532165188395" lon="11.11646744854411"><ele>193.0</ele><time>2026-04-25T11:23:54Z</time></trkpt><trkpt lat="45.47661322192662" lon="11.116525814818134"><ele>193.0</ele><time>2026-04-25T11:23:55Z</time></trkpt><trkpt lat="45.47666829182428" lon="11.116592171816995"><ele>193.0</ele><time>2026-04-25T11:23:56Z</time></trkpt><trkpt lat="45.47671094956893" lon="11.116693921594694"><ele>192.99999999999997</ele><time>2026-04-25T11:23:57Z</time></trkpt><trkpt lat="45.47674254418788" lon="11.116824731505359"><ele>193.0</ele><time>2026-04-25T11:23:58Z</time></trkpt><trkpt lat="45.476834005498326" lon="11.116878973349332"><ele>195.83333333333331</ele><time>2026-04-25T11:23:59Z</time></trkpt><trkpt lat="45.47688474043613" lon="11.11700103344543"><ele>198.66666666666666</ele><time>2026-04-25T11:24:00Z</time></trkpt><trkpt lat="45.47695357375377" lon="11.117105081130655"><ele>201.5</ele><time>2026-04-25T11:24:01Z</time></trkpt><trkpt lat="45.47698813271554" lon="11.117201056037837"><ele>204.33333333333331</ele><time>2026-04-25T11:24:02Z</time></trkpt><trkpt lat="45.47701027256925" lon="11.117291241241764"><ele>207.16666666666666</ele><time>2026-04-25T11:24:02.999Z</time></trkpt><trkpt lat="45.47701207987273" lon="11.11740053604812"><ele>210.0</ele><time>2026-04-25T11:24:03.999Z</time></trkpt><trkpt lat="45.47701110261921" lon="11.117513657078979"><ele>213.0</ele><time>2026-04-25T11:24:04.999Z</time></trkpt><trkpt lat="45.476992461239064" lon="11.117640815221051"><ele>216.0</ele><time>2026-04-25T11:24:05.999Z</time></trkpt><trkpt lat="45.47697740277104" lon="11.117752567198988"><ele>219.0</ele><time>2026-04-25T11:24:06.999Z</time></trkpt><trkpt lat="45.47693911800264" lon="11.117881198769393"><ele>222.0</ele><time>2026-04-25T11:24:07.999Z</time></trkpt><trkpt lat="45.47692975455481" lon="11.117972771736698"><ele>225.0</ele><time>2026-04-25T11:24:08.999Z</time></trkpt><trkpt lat="45.47691554302304" lon="11.118085681594227"><ele>228.0</ele><time>2026-04-25T11:24:09.999Z</time></trkpt><trkpt lat="45.4769043178787" lon="11.118202254014484"><ele>228.0</ele><time>2026-04-25T11:24:10.999Z</time></trkpt><trkpt lat="45.47684712399086" lon="11.118285459421454"><ele>228.0</ele><time>2026-04-25T11:24:12.999Z</time></trkpt><trkpt lat="45.47680668381732" lon="11.11818972956592"><ele>228.0</ele><time>2026-04-25T11:24:14.999Z</time></trkpt><trkpt lat="45.4768048514288" lon="11.118038790872722"><ele>228.0</ele><time>2026-04-25T11:24:16.999Z</time></trkpt><trkpt lat="45.47678648894315" lon="11.117951258892548"><ele>228.0</ele><time>2026-04-25T11:24:17.999Z</time></trkpt><trkpt lat="45.47673769612603" lon="11.117890742272433"><ele>228.0</ele><time>2026-04-25T11:24:18.999Z</time></trkpt><trkpt lat="45.47666542587351" lon="11.117800780436745"><ele>228.0</ele><time>2026-04-25T11:24:19.999Z</time></trkpt><trkpt lat="45.476617013932184" lon="11.117721752446698"><ele>228.0</ele><time>2026-04-25T11:24:20.999Z</time></trkpt><trkpt lat="45.47654640255543" lon="11.117638839931587"><ele>228.0</ele><time>2026-04-25T11:24:21.999Z</time></trkpt><trkpt lat="45.476464524918036" lon="11.1175960809246"><ele>228.0</ele><time>2026-04-25T11:24:22.999Z</time></trkpt><trkpt lat="45.4763275191544" lon="11.117515454844282"><ele>228.0</ele><time>2026-04-25T11:24:23.999Z</time></trkpt><trkpt lat="45.4762413402515" lon="11.117420218617113"><ele>229.60000000000002</ele><time>2026-04-25T11:24:24.999Z</time></trkpt><trkpt lat="45.476153542979574" lon="11.117322792695214"><ele>231.20000000000002</ele><time>2026-04-25T11:24:25.999Z</time></trkpt><trkpt lat="45.47606988557476" lon="11.117243172495732"><ele>232.8</ele><time>2026-04-25T11:24:26.999Z</time></trkpt><trkpt lat="45.47598040919989" lon="11.117175452049246"><ele>234.4</ele><time>2026-04-25T11:24:27.999Z</time></trkpt><trkpt lat="45.47589381631251" lon="11.117098588401468"><ele>236.0</ele><time>2026-04-25T11:24:28.999Z</time></trkpt><trkpt lat="45.475805088296916" lon="11.11701465349242"><ele>236.0</ele><time>2026-04-25T11:24:29.999Z</time></trkpt><trkpt lat="45.47571732177879" lon="11.116926541373266"><ele>236.00000000000003</ele><time>2026-04-25T11:24:30.999Z</time></trkpt><trkpt lat="45.475627763387564" lon="11.116850264700856"><ele>236.00000000000003</ele><time>2026-04-25T11:24:31.999Z</time></trkpt><trkpt lat="45.475551667105414" lon="11.11680364673529"><ele>236.0</ele><time>2026-04-25T11:24:32.999Z</time></trkpt><trkpt lat="45.47546870937748" lon="11.116761203459578"><ele>236.0</ele><time>2026-04-25T11:24:33.999Z</time></trkpt><trkpt lat="45.47538449377501" lon="11.1166949132495"><ele>237.75</ele><time>2026-04-25T11:24:34.999Z</time></trkpt><trkpt lat="45.47528044388593" lon="11.116626680928107"><ele>239.5</ele><time>2026-04-25T11:24:35.999Z</time></trkpt><trkpt lat="45.475163329973945" lon="11.116659419611008"><ele>241.25</ele><time>2026-04-25T11:24:36.999Z</time></trkpt><trkpt lat="45.475077171178015" lon="11.116591430553209"><ele>243.0</ele><time>2026-04-25T11:24:38Z</time></trkpt><trkpt lat="45.474975936980556" lon="11.116487580148517"><ele>243.0</ele><time>2026-04-25T11:24:39Z</time></trkpt><trkpt lat="45.47489110301165" lon="11.116376201735305"><ele>243.0</ele><time>2026-04-25T11:24:40Z</time></trkpt><trkpt lat="45.47480782665056" lon="11.116255745398782"><ele>243.0</ele><time>2026-04-25T11:24:41Z</time></trkpt><trkpt lat="45.47473235739699" lon="11.11616779510568"><ele>243.0</ele><time>2026-04-25T11:24:42Z</time></trkpt><trkpt lat="45.47462877120872" lon="11.116043403646522"><ele>247.60000000000002</ele><time>2026-04-25T11:24:43Z</time></trkpt><trkpt lat="45.47457227143918" lon="11.115956417417781"><ele>252.20000000000002</ele><time>2026-04-25T11:24:44Z</time></trkpt><trkpt lat="45.47450460005432" lon="11.115867916488241"><ele>256.8</ele><time>2026-04-25T11:24:45Z</time></trkpt><trkpt lat="45.474419433630004" lon="11.115749115641645"><ele>261.40000000000003</ele><time>2026-04-25T11:24:46Z</time></trkpt><trkpt lat="45.474331100589836" lon="11.115673333409049"><ele>266.0</ele><time>2026-04-25T11:24:47Z</time></trkpt><trkpt lat="45.47424032074564" lon="11.115596865118233"><ele>266.0</ele><time>2026-04-25T11:24:48Z</time></trkpt><trkpt lat="45.47415601626381" lon="11.115514616390072"><ele>266.0</ele><time>2026-04-25T11:24:49Z</time></trkpt><trkpt lat="45.47408347999235" lon="11.115422588352752"><ele>266.0</ele><time>2026-04-25T11:24:50Z</time></trkpt><trkpt lat="45.47402648329323" lon="11.115322839093832"><ele>266.0</ele><time>2026-04-25T11:24:51Z</time></trkpt><trkpt lat="45.473963587990546" lon="11.115190983221435"><ele>266.0</ele><time>2026-04-25T11:24:52Z</time></trkpt><trkpt lat="45.47389800900266" lon="11.115054900653806"><ele>266.0</ele><time>2026-04-25T11:24:53Z</time></trkpt><trkpt lat="45.473832805309854" lon="11.11490773559395"><ele>266.0</ele><time>2026-04-25T11:24:54Z</time></trkpt><trkpt lat="45.47377809793194" lon="11.114779084437838"><ele>266.0</ele><time>2026-04-25T11:24:55Z</time></trkpt><trkpt lat="45.473738026705746" lon="11.11465843416372"><ele>266.0</ele><time>2026-04-25T11:24:56Z</time></trkpt><trkpt lat="45.47372794004824" lon="11.114524442179926"><ele>266.0</ele><time>2026-04-25T11:24:57Z</time></trkpt><trkpt lat="45.47373794843553" lon="11.114372829487417"><ele>271.2</ele><time>2026-04-25T11:24:58Z</time></trkpt><trkpt lat="45.473727769544915" lon="11.114224174616565"><ele>276.40000000000003</ele><time>2026-04-25T11:24:59Z</time></trkpt><trkpt lat="45.473706076594354" lon="11.114068998431192"><ele>281.6</ele><time>2026-04-25T11:25:00Z</time></trkpt><trkpt lat="45.473681932916115" lon="11.113908001579036"><ele>286.8</ele><time>2026-04-25T11:25:01Z</time></trkpt><trkpt lat="45.473668674925854" lon="11.11378297560124"><ele>292.0</ele><time>2026-04-25T11:25:02Z</time></trkpt><trkpt lat="45.47366074645741" lon="11.113689590609656"><ele>292.66666666666663</ele><time>2026-04-25T11:25:03Z</time></trkpt><trkpt lat="45.473640649587665" lon="11.113543162620331"><ele>293.3333333333333</ele><time>2026-04-25T11:25:05Z</time></trkpt><trkpt lat="45.47354603684038" lon="11.113458924520534"><ele>294.0</ele><time>2026-04-25T11:25:07Z</time></trkpt><trkpt lat="45.47349430041357" lon="11.113389128000797"><ele>294.6666666666667</ele><time>2026-04-25T11:25:08Z</time></trkpt><trkpt lat="45.47346165871298" lon="11.113301736115476"><ele>295.33333333333337</ele><time>2026-04-25T11:25:09Z</time></trkpt><trkpt lat="45.47342609609424" lon="11.113201914989341"><ele>296.0</ele><time>2026-04-25T11:25:10Z</time></trkpt><trkpt lat="45.473380190381576" lon="11.113095379813332"><ele>296.8</ele><time>2026-04-25T11:25:11Z</time></trkpt><trkpt lat="45.4733111701431" lon="11.11296872502994"><ele>297.6</ele><time>2026-04-25T11:25:13Z</time></trkpt><trkpt lat="45.47339638853372" lon="11.11287450508551"><ele>298.4</ele><time>2026-04-25T11:25:16Z</time></trkpt><trkpt lat="45.47344237501755" lon="11.112803866518043"><ele>299.2</ele><time>2026-04-25T11:25:17Z</time></trkpt><trkpt lat="45.4735280859252" lon="11.112696115008182"><ele>300.0</ele><time>2026-04-25T11:25:19Z</time></trkpt><trkpt lat="45.47362149034747" lon="11.11260522388436"><ele>300.0</ele><time>2026-04-25T11:25:21Z</time></trkpt><trkpt lat="45.47369459746546" lon="11.112520655289229"><ele>300.0</ele><time>2026-04-25T11:25:23Z</time></trkpt><trkpt lat="45.47376567707576" lon="11.11244797781529"><ele>300.0</ele><time>2026-04-25T11:25:25Z</time></trkpt><trkpt lat="45.473828723121194" lon="11.112371762138862"><ele>300.0</ele><time>2026-04-25T11:25:27Z</time></trkpt><trkpt lat="45.47391947255878" lon="11.112256992371606"><ele>300.0</ele><time>2026-04-25T11:25:29Z</time></trkpt><trkpt lat="45.47398838032593" lon="11.112169845346232"><ele>299.8</ele><time>2026-04-25T11:25:31Z</time></trkpt><trkpt lat="45.474079169971496" lon="11.112055024678792"><ele>299.6</ele><time>2026-04-25T11:25:33Z</time></trkpt><trkpt lat="45.474134893812185" lon="11.111984551327879"><ele>299.4</ele><time>2026-04-25T11:25:34Z</time></trkpt><trkpt lat="45.47419899029481" lon="11.111903943612338"><ele>299.2</ele><time>2026-04-25T11:25:35Z</time></trkpt><trkpt lat="45.47426582202759" lon="11.111820527988332"><ele>299.0</ele><time>2026-04-25T11:25:36Z</time></trkpt><trkpt lat="45.4743426409514" lon="11.11172464681239"><ele>299.0</ele><time>2026-04-25T11:25:37Z</time></trkpt><trkpt lat="45.47442132593805" lon="11.111626436716346"><ele>299.0</ele><time>2026-04-25T11:25:38Z</time></trkpt><trkpt lat="45.474500985637945" lon="11.111527009895404"><ele>299.0</ele><time>2026-04-25T11:25:39Z</time></trkpt><trkpt lat="45.474590520415035" lon="11.111417883004439"><ele>299.0</ele><time>2026-04-25T11:25:40Z</time></trkpt><trkpt lat="45.47468806788957" lon="11.111307514468157"><ele>298.5</ele><time>2026-04-25T11:25:41Z</time></trkpt><trkpt lat="45.474791584385684" lon="11.111200510735717"><ele>298.0</ele><time>2026-04-25T11:25:42Z</time></trkpt><trkpt lat="45.4748972132582" lon="11.111100124434822"><ele>297.5</ele><time>2026-04-25T11:25:43Z</time></trkpt><trkpt lat="45.4750066132109" lon="11.111001831932391"><ele>297.0</ele><time>2026-04-25T11:25:44Z</time></trkpt><trkpt lat="45.47513151725211" lon="11.110892532792013"><ele>297.0</ele><time>2026-04-25T11:25:45Z</time></trkpt><trkpt lat="45.47524785690201" lon="11.110779745466333"><ele>297.0</ele><time>2026-04-25T11:25:46Z</time></trkpt><trkpt lat="45.47535276908105" lon="11.110679314987905"><ele>297.0</ele><time>2026-04-25T11:25:47Z</time></trkpt><trkpt lat="45.47545989951665" lon="11.11057748601243"><ele>297.0</ele><time>2026-04-25T11:25:48Z</time></trkpt><trkpt lat="45.4755660916759" lon="11.110448826718732"><ele>296.6</ele><time>2026-04-25T11:25:49Z</time></trkpt><trkpt lat="45.47565273896682" lon="11.110325163306731"><ele>296.2</ele><time>2026-04-25T11:25:50Z</time></trkpt><trkpt lat="45.475721213285446" lon="11.110211587910182"><ele>295.8</ele><time>2026-04-25T11:25:51Z</time></trkpt><trkpt lat="45.47578389944175" lon="11.11009324495538"><ele>295.4</ele><time>2026-04-25T11:25:52Z</time></trkpt><trkpt lat="45.47583942416918" lon="11.109971894694942"><ele>295.0</ele><time>2026-04-25T11:25:53Z</time></trkpt><trkpt lat="45.47589068379395" lon="11.109835738362428"><ele>295.0</ele><time>2026-04-25T11:25:54Z</time></trkpt><trkpt lat="45.47593638451023" lon="11.109681166433226"><ele>295.0</ele><time>2026-04-25T11:25:55Z</time></trkpt><trkpt lat="45.47598697831763" lon="11.109520726279012"><ele>295.0</ele><time>2026-04-25T11:25:56Z</time></trkpt><trkpt lat="45.47604323089288" lon="11.109348870727025"><ele>295.0</ele><time>2026-04-25T11:25:57Z</time></trkpt><trkpt lat="45.47609484900497" lon="11.109205338633352"><ele>295.4</ele><time>2026-04-25T11:25:58Z</time></trkpt><trkpt lat="45.47615043328853" lon="11.10906904822775"><ele>295.8</ele><time>2026-04-25T11:25:59.001Z</time></trkpt><trkpt lat="45.47620422238725" lon="11.108948469104263"><ele>296.2</ele><time>2026-04-25T11:26:00.001Z</time></trkpt><trkpt lat="45.47626191608306" lon="11.108846656688158"><ele>296.6</ele><time>2026-04-25T11:26:01.001Z</time></trkpt><trkpt lat="45.47631627260148" lon="11.108770046676668"><ele>297.0</ele><time>2026-04-25T11:26:02.001Z</time></trkpt><trkpt lat="45.47637829152952" lon="11.10868510194032"><ele>295.0</ele><time>2026-04-25T11:26:03.001Z</time></trkpt><trkpt lat="45.47644404312805" lon="11.108599067254202"><ele>293.0</ele><time>2026-04-25T11:26:04.001Z</time></trkpt><trkpt lat="45.47650976162155" lon="11.108513118789899"><ele>291.0</ele><time>2026-04-25T11:26:05.001Z</time></trkpt><trkpt lat="45.47657501347761" lon="11.108426779825255"><ele>289.0</ele><time>2026-04-25T11:26:06.001Z</time></trkpt><trkpt lat="45.47663886142917" lon="11.108338346774639"><ele>287.0</ele><time>2026-04-25T11:26:07.001Z</time></trkpt><trkpt lat="45.47670690301162" lon="11.108237970616742"><ele>287.0</ele><time>2026-04-25T11:26:08.001Z</time></trkpt><trkpt lat="45.476782839047864" lon="11.108123051085855"><ele>287.0</ele><time>2026-04-25T11:26:09Z</time></trkpt><trkpt lat="45.47686447885605" lon="11.108001314603825"><ele>287.0</ele><time>2026-04-25T11:26:10Z</time></trkpt><trkpt lat="45.476942934410516" lon="11.107889775158947"><ele>287.0</ele><time>2026-04-25T11:26:11Z</time></trkpt><trkpt lat="45.47701938505903" lon="11.107785886389305"><ele>287.0</ele><time>2026-04-25T11:26:12Z</time></trkpt><trkpt lat="45.477090152094355" lon="11.107689721119481"><ele>286.0</ele><time>2026-04-25T11:26:13Z</time></trkpt><trkpt lat="45.47715953786901" lon="11.107595432810607"><ele>285.0</ele><time>2026-04-25T11:26:14Z</time></trkpt><trkpt lat="45.47721500217745" lon="11.107519665045661"><ele>284.0</ele><time>2026-04-25T11:26:15Z</time></trkpt><trkpt lat="45.4772899098358" lon="11.107416478448936"><ele>283.0</ele><time>2026-04-25T11:26:17Z</time></trkpt><trkpt lat="45.47718352949055" lon="11.107240032263034"><ele>282.0</ele><time>2026-04-25T11:26:21Z</time></trkpt><trkpt lat="45.4770501399607" lon="11.107233241794523"><ele>282.0</ele><time>2026-04-25T11:26:23Z</time></trkpt><trkpt lat="45.476972303037" lon="11.107233241795855"><ele>282.0</ele><time>2026-04-25T11:26:24Z</time></trkpt><trkpt lat="45.47687338889893" lon="11.10725229857235"><ele>282.0</ele><time>2026-04-25T11:26:25Z</time></trkpt><trkpt lat="45.476776843099024" lon="11.107233241803332"><ele>282.0</ele><time>2026-04-25T11:26:26Z</time></trkpt><trkpt lat="45.476680527517374" lon="11.107230069447146"><ele>282.0</ele><time>2026-04-25T11:26:27Z</time></trkpt><trkpt lat="45.47659662551972" lon="11.10724568674737"><ele>282.0</ele><time>2026-04-25T11:26:28Z</time></trkpt><trkpt lat="45.47652405059141" lon="11.10715627121979"><ele>282.0</ele><time>2026-04-25T11:26:29Z</time></trkpt><trkpt lat="45.4764584081125" lon="11.107049933169977"><ele>282.0</ele><time>2026-04-25T11:26:30Z</time></trkpt><trkpt lat="45.4763929531749" lon="11.106930837991888"><ele>282.0</ele><time>2026-04-25T11:26:31Z</time></trkpt><trkpt lat="45.476319220087625" lon="11.106843464744973"><ele>282.0</ele><time>2026-04-25T11:26:32Z</time></trkpt><trkpt lat="45.476226214832764" lon="11.106771978622128"><ele>283.2</ele><time>2026-04-25T11:26:33Z</time></trkpt><trkpt lat="45.476119348207746" lon="11.106712590343854"><ele>284.4</ele><time>2026-04-25T11:26:34Z</time></trkpt><trkpt lat="45.47602201274672" lon="11.106668524829894"><ele>285.6</ele><time>2026-04-25T11:26:35Z</time></trkpt><trkpt lat="45.4759414417112" lon="11.106704417362858"><ele>286.8</ele><time>2026-04-25T11:26:36Z</time></trkpt><trkpt lat="45.47589990331562" lon="11.106531222006058"><ele>288.0</ele><time>2026-04-25T11:26:39Z</time></trkpt><trkpt lat="45.47586453927831" lon="11.10644875422616"><ele>285.7142857142857</ele><time>2026-04-25T11:26:40Z</time></trkpt><trkpt lat="45.47585270009952" lon="11.106354427655907"><ele>283.42857142857144</ele><time>2026-04-25T11:26:41Z</time></trkpt><trkpt lat="45.475781403816065" lon="11.106312565448446"><ele>281.1428571428571</ele><time>2026-04-25T11:26:42Z</time></trkpt><trkpt lat="45.475721807927" lon="11.106269350010182"><ele>278.8571428571429</ele><time>2026-04-25T11:26:43Z</time></trkpt><trkpt lat="45.47564814399617" lon="11.106275311634432"><ele>276.57142857142856</ele><time>2026-04-25T11:26:44Z</time></trkpt><trkpt lat="45.47558116497926" lon="11.106298182541504"><ele>274.2857142857143</ele><time>2026-04-25T11:26:45Z</time></trkpt><trkpt lat="45.475526611154464" lon="11.106373637910597"><ele>272.0</ele><time>2026-04-25T11:26:46Z</time></trkpt><trkpt lat="45.475480821895225" lon="11.106442837745972"><ele>272.1666666666667</ele><time>2026-04-25T11:26:47Z</time></trkpt><trkpt lat="45.47542074611412" lon="11.106493925000187"><ele>272.33333333333337</ele><time>2026-04-25T11:26:48Z</time></trkpt><trkpt lat="45.47535861518059" lon="11.106570793132423"><ele>272.5</ele><time>2026-04-25T11:26:49Z</time></trkpt><trkpt lat="45.47529199037879" lon="11.106647970075866"><ele>272.6666666666667</ele><time>2026-04-25T11:26:50Z</time></trkpt><trkpt lat="45.47521886441837" lon="11.106718639326449"><ele>272.8333333333333</ele><time>2026-04-25T11:26:51Z</time></trkpt><trkpt lat="45.475146304240624" lon="11.106746705705536"><ele>273.0</ele><time>2026-04-25T11:26:52Z</time></trkpt><trkpt lat="45.475054595101454" lon="11.10676743520056"><ele>274.8</ele><time>2026-04-25T11:26:53Z</time></trkpt><trkpt lat="45.47497822462858" lon="11.106805340104108"><ele>276.6</ele><time>2026-04-25T11:26:54Z</time></trkpt><trkpt lat="45.47490866160103" lon="11.106884973432742"><ele>278.4</ele><time>2026-04-25T11:26:55Z</time></trkpt><trkpt lat="45.47483206351418" lon="11.106969626219238"><ele>280.2</ele><time>2026-04-25T11:26:56Z</time></trkpt><trkpt lat="45.4747558041857" lon="11.107062840236178"><ele>282.0</ele><time>2026-04-25T11:26:57Z</time></trkpt><trkpt lat="45.47468428992378" lon="11.10712991771037"><ele>280.6</ele><time>2026-04-25T11:26:58Z</time></trkpt><trkpt lat="45.4745893839075" lon="11.107098762491377"><ele>279.2</ele><time>2026-04-25T11:26:59Z</time></trkpt><trkpt lat="45.47452231067798" lon="11.107133344328243"><ele>277.8</ele><time>2026-04-25T11:27:00Z</time></trkpt><trkpt lat="45.47444807176347" lon="11.107243247014559"><ele>276.4</ele><time>2026-04-25T11:27:01Z</time></trkpt><trkpt lat="45.47438925440508" lon="11.107353718276606"><ele>275.0</ele><time>2026-04-25T11:27:02Z</time></trkpt><trkpt lat="45.47431981687141" lon="11.107461958844038"><ele>275.0</ele><time>2026-04-25T11:27:03Z</time></trkpt><trkpt lat="45.474268354091265" lon="11.107585896269637"><ele>275.0</ele><time>2026-04-25T11:27:04Z</time></trkpt><trkpt lat="45.47421365536348" lon="11.107706163728933"><ele>275.0</ele><time>2026-04-25T11:27:05Z</time></trkpt><trkpt lat="45.47417157725148" lon="11.10782547999527"><ele>275.0</ele><time>2026-04-25T11:27:06Z</time></trkpt><trkpt lat="45.47412037478815" lon="11.107926380594385"><ele>275.0</ele><time>2026-04-25T11:27:07.001Z</time></trkpt><trkpt lat="45.474093357076676" lon="11.10806215053996"><ele>275.0</ele><time>2026-04-25T11:27:08.001Z</time></trkpt><trkpt lat="45.47406090444676" lon="11.108187612682208"><ele>275.0</ele><time>2026-04-25T11:27:09.001Z</time></trkpt><trkpt lat="45.474044861840376" lon="11.108330833964223"><ele>275.0</ele><time>2026-04-25T11:27:10.001Z</time></trkpt><trkpt lat="45.4740413817791" lon="11.108460363675496"><ele>275.0</ele><time>2026-04-25T11:27:11.001Z</time></trkpt><trkpt lat="45.47404248150755" lon="11.108605106144402"><ele>275.0</ele><time>2026-04-25T11:27:12.001Z</time></trkpt><trkpt lat="45.474038124003705" lon="11.108730677509207"><ele>275.2</ele><time>2026-04-25T11:27:13.001Z</time></trkpt><trkpt lat="45.47404471661629" lon="11.1088584998304"><ele>275.4</ele><time>2026-04-25T11:27:14.001Z</time></trkpt><trkpt lat="45.47403460133614" lon="11.108967024873566"><ele>275.6</ele><time>2026-04-25T11:27:15.001Z</time></trkpt><trkpt lat="45.473931198886625" lon="11.109036161955036"><ele>275.8</ele><time>2026-04-25T11:27:17.001Z</time></trkpt><trkpt lat="45.47385630245695" lon="11.10906633705825"><ele>276.0</ele><time>2026-04-25T11:27:18.001Z</time></trkpt><trkpt lat="45.47376888747105" lon="11.109107120479763"><ele>273.40000000000003</ele><time>2026-04-25T11:27:19.001Z</time></trkpt><trkpt lat="45.4736680244977" lon="11.109149151373789"><ele>270.8</ele><time>2026-04-25T11:27:20.001Z</time></trkpt><trkpt lat="45.47357710725547" lon="11.109181868734872"><ele>268.20000000000005</ele><time>2026-04-25T11:27:21.001Z</time></trkpt><trkpt lat="45.47347945534882" lon="11.10921243045294"><ele>265.6</ele><time>2026-04-25T11:27:22.001Z</time></trkpt><trkpt lat="45.473369434628225" lon="11.10924687352188"><ele>263.0</ele><time>2026-04-25T11:27:23.001Z</time></trkpt><trkpt lat="45.473259736824446" lon="11.109296657790713"><ele>263.0</ele><time>2026-04-25T11:27:24.001Z</time></trkpt><trkpt lat="45.473137650975936" lon="11.109317191560974"><ele>263.0</ele><time>2026-04-25T11:27:25.001Z</time></trkpt><trkpt lat="45.47302195197688" lon="11.109348142124903"><ele>263.0</ele><time>2026-04-25T11:27:26.001Z</time></trkpt><trkpt lat="45.472913778096746" lon="11.109373641037461"><ele>263.0</ele><time>2026-04-25T11:27:27.001Z</time></trkpt><trkpt lat="45.47280615155047" lon="11.109414746491517"><ele>260.83333333333337</ele><time>2026-04-25T11:27:28.001Z</time></trkpt><trkpt lat="45.47270576215873" lon="11.109430151136074"><ele>258.6666666666667</ele><time>2026-04-25T11:27:29.001Z</time></trkpt><trkpt lat="45.47262375880313" lon="11.109457427264408"><ele>256.5</ele><time>2026-04-25T11:27:30.001Z</time></trkpt><trkpt lat="45.47255566031881" lon="11.109510956540287"><ele>254.33333333333331</ele><time>2026-04-25T11:27:31.001Z</time></trkpt><trkpt lat="45.47248776168922" lon="11.10958134125827"><ele>252.16666666666666</ele><time>2026-04-25T11:27:32.001Z</time></trkpt><trkpt lat="45.47241877376206" lon="11.109619465977993"><ele>250.0</ele><time>2026-04-25T11:27:33.001Z</time></trkpt><trkpt lat="45.472346208970365" lon="11.10966391235528"><ele>249.99999999999997</ele><time>2026-04-25T11:27:34.001Z</time></trkpt><trkpt lat="45.47227409566505" lon="11.109699717823247"><ele>250.0</ele><time>2026-04-25T11:27:35.001Z</time></trkpt><trkpt lat="45.4722152009793" lon="11.109738746120676"><ele>250.0</ele><time>2026-04-25T11:27:36.001Z</time></trkpt><trkpt lat="45.47212343068136" lon="11.109688294326219"><ele>250.0</ele><time>2026-04-25T11:27:37.001Z</time></trkpt><trkpt lat="45.472051058041195" lon="11.109741199328036"><ele>249.99999999999997</ele><time>2026-04-25T11:27:38.001Z</time></trkpt><trkpt lat="45.47195901569065" lon="11.109776360256935"><ele>250.0</ele><time>2026-04-25T11:27:39.001Z</time></trkpt><trkpt lat="45.471863809854185" lon="11.109799856621473"><ele>251.2</ele><time>2026-04-25T11:27:40.001Z</time></trkpt><trkpt lat="45.47175762287149" lon="11.109831443238347"><ele>252.4</ele><time>2026-04-25T11:27:41.001Z</time></trkpt><trkpt lat="45.47163682306534" lon="11.109873916798469"><ele>253.60000000000002</ele><time>2026-04-25T11:27:42.001Z</time></trkpt><trkpt lat="45.47153729715795" lon="11.109908847483915"><ele>254.8</ele><time>2026-04-25T11:27:43.001Z</time></trkpt><trkpt lat="45.4714448578229" lon="11.109944413671105"><ele>256.0</ele><time>2026-04-25T11:27:44.001Z</time></trkpt><trkpt lat="45.47137296567537" lon="11.109985065487477"><ele>252.8</ele><time>2026-04-25T11:27:45.001Z</time></trkpt><trkpt lat="45.471271534333844" lon="11.110047268382068"><ele>249.60000000000002</ele><time>2026-04-25T11:27:47.001Z</time></trkpt><trkpt lat="45.471161214748356" lon="11.11006287002854"><ele>246.4</ele><time>2026-04-25T11:27:49.001Z</time></trkpt><trkpt lat="45.47108471274861" lon="11.110074630250775"><ele>243.2</ele><time>2026-04-25T11:27:50.001Z</time></trkpt><trkpt lat="45.47100868242354" lon="11.110072907149664"><ele>240.0</ele><time>2026-04-25T11:27:51.001Z</time></trkpt><trkpt lat="45.470924743034914" lon="11.110064575799376"><ele>240.0</ele><time>2026-04-25T11:27:52.001Z</time></trkpt><trkpt lat="45.470854604942" lon="11.110092685343467"><ele>240.0</ele><time>2026-04-25T11:27:53.001Z</time></trkpt><trkpt lat="45.470791341531566" lon="11.110073113752618"><ele>240.0</ele><time>2026-04-25T11:27:54.001Z</time></trkpt><trkpt lat="45.4707197584768" lon="11.110039331722751"><ele>240.0</ele><time>2026-04-25T11:27:55.001Z</time></trkpt><trkpt lat="45.470643528151456" lon="11.110023130008235"><ele>240.0</ele><time>2026-04-25T11:27:56.001Z</time></trkpt><trkpt lat="45.47056207489846" lon="11.11002401585273"><ele>240.0</ele><time>2026-04-25T11:27:57.001Z</time></trkpt><trkpt lat="45.470502763690845" lon="11.109983742132776"><ele>240.0</ele><time>2026-04-25T11:27:58.001Z</time></trkpt><trkpt lat="45.470435830172796" lon="11.1099410242738"><ele>236.85714285714286</ele><time>2026-04-25T11:27:59.001Z</time></trkpt><trkpt lat="45.47036809269852" lon="11.109873457379374"><ele>233.7142857142857</ele><time>2026-04-25T11:28:00.001Z</time></trkpt><trkpt lat="45.47031429886471" lon="11.10978903806575"><ele>230.57142857142856</ele><time>2026-04-25T11:28:01.001Z</time></trkpt><trkpt lat="45.47026027691502" lon="11.109708527536604"><ele>227.42857142857144</ele><time>2026-04-25T11:28:02.001Z</time></trkpt><trkpt lat="45.47021611598166" lon="11.109639563662277"><ele>224.28571428571428</ele><time>2026-04-25T11:28:03.001Z</time></trkpt><trkpt lat="45.47015970013106" lon="11.109566398466265"><ele>221.14285714285714</ele><time>2026-04-25T11:28:04.001Z</time></trkpt><trkpt lat="45.47010500386766" lon="11.109518026462736"><ele>218.0</ele><time>2026-04-25T11:28:05.001Z</time></trkpt><trkpt lat="45.470042593403434" lon="11.109505527663933"><ele>218.00000000000003</ele><time>2026-04-25T11:28:06.001Z</time></trkpt><trkpt lat="45.46997589555332" lon="11.109500216722894"><ele>218.0</ele><time>2026-04-25T11:28:07.001Z</time></trkpt><trkpt lat="45.46991336951527" lon="11.10946957385633"><ele>218.0</ele><time>2026-04-25T11:28:08.001Z</time></trkpt><trkpt lat="45.46980837358231" lon="11.109341507368939"><ele>218.0</ele><time>2026-04-25T11:28:10.001Z</time></trkpt><trkpt lat="45.469759133522345" lon="11.109248736101817"><ele>218.00000000000003</ele><time>2026-04-25T11:28:11.001Z</time></trkpt><trkpt lat="45.46970550409662" lon="11.109171814583314"><ele>218.0</ele><time>2026-04-25T11:28:12.001Z</time></trkpt><trkpt lat="45.46965542632319" lon="11.109103753403113"><ele>216.50000000000003</ele><time>2026-04-25T11:28:13.001Z</time></trkpt><trkpt lat="45.469621076628144" lon="11.109001677106367"><ele>215.0</ele><time>2026-04-25T11:28:14.001Z</time></trkpt><trkpt lat="45.46952871809063" lon="11.108866451965362"><ele>213.5</ele><time>2026-04-25T11:28:16.001Z</time></trkpt><trkpt lat="45.46952582447512" lon="11.108761051374628"><ele>212.0</ele><time>2026-04-25T11:28:17.001Z</time></trkpt><trkpt lat="45.46949583517452" lon="11.108675636426348"><ele>210.50000000000003</ele><time>2026-04-25T11:28:18.001Z</time></trkpt><trkpt lat="45.46948623077908" lon="11.108572902112897"><ele>209.0</ele><time>2026-04-25T11:28:19.001Z</time></trkpt><trkpt lat="45.46947501762957" lon="11.108453879209417"><ele>205.66666666666669</ele><time>2026-04-25T11:28:20.001Z</time></trkpt><trkpt lat="45.46945938187221" lon="11.10833768443802"><ele>202.33333333333334</ele><time>2026-04-25T11:28:21.001Z</time></trkpt><trkpt lat="45.46946642706592" lon="11.1082248098275"><ele>199.0</ele><time>2026-04-25T11:28:22.001Z</time></trkpt><trkpt lat="45.4694488987766" lon="11.108135869678733"><ele>195.66666666666669</ele><time>2026-04-25T11:28:23.001Z</time></trkpt><trkpt lat="45.46944636748213" lon="11.108045014711127"><ele>192.33333333333334</ele><time>2026-04-25T11:28:24.001Z</time></trkpt><trkpt lat="45.469430814191846" lon="11.10795263056754"><ele>189.0</ele><time>2026-04-25T11:28:26Z</time></trkpt><trkpt lat="45.46933707721327" lon="11.108048248651482"><ele>187.66666666666666</ele><time>2026-04-25T11:28:31Z</time></trkpt><trkpt lat="45.46920982381192" lon="11.107939846604337"><ele>186.33333333333334</ele><time>2026-04-25T11:28:33Z</time></trkpt><trkpt lat="45.46912646541011" lon="11.107972999799223"><ele>185.0</ele><time>2026-04-25T11:28:35Z</time></trkpt><trkpt lat="45.46908627088309" lon="11.108056321043739"><ele>183.66666666666669</ele><time>2026-04-25T11:28:36Z</time></trkpt><trkpt lat="45.46906198631923" lon="11.108143811629548"><ele>182.33333333333334</ele><time>2026-04-25T11:28:38Z</time></trkpt><trkpt lat="45.469018230108205" lon="11.108078835864154"><ele>181.0</ele><time>2026-04-25T11:28:40Z</time></trkpt><trkpt lat="45.469050128370256" lon="11.107881732163502"><ele>181.0</ele><time>2026-04-25T11:28:42Z</time></trkpt><trkpt lat="45.469073059019784" lon="11.107785413383391"><ele>181.0</ele><time>2026-04-25T11:28:43Z</time></trkpt><trkpt lat="45.46903041877406" lon="11.107678495471305"><ele>181.0</ele><time>2026-04-25T11:28:45Z</time></trkpt><trkpt lat="45.46890121832995" lon="11.107610048614896"><ele>181.0</ele><time>2026-04-25T11:28:47Z</time></trkpt><trkpt lat="45.468834349536756" lon="11.10757130866224"><ele>181.0</ele><time>2026-04-25T11:28:48Z</time></trkpt><trkpt lat="45.46871961583191" lon="11.107525960941249"><ele>177.20000000000002</ele><time>2026-04-25T11:28:50Z</time></trkpt><trkpt lat="45.46863205036204" lon="11.107475755497953"><ele>173.4</ele><time>2026-04-25T11:28:52Z</time></trkpt><trkpt lat="45.46854391066854" lon="11.107404419203302"><ele>169.6</ele><time>2026-04-25T11:28:54.001Z</time></trkpt><trkpt lat="45.46843669246648" lon="11.107345080166095"><ele>165.8</ele><time>2026-04-25T11:28:56.001Z</time></trkpt><trkpt lat="45.468358098870084" lon="11.107267595279364"><ele>162.0</ele><time>2026-04-25T11:28:58.001Z</time></trkpt><trkpt lat="45.468279403516725" lon="11.107209985273757"><ele>161.8</ele><time>2026-04-25T11:29:00.001Z</time></trkpt><trkpt lat="45.46813952461398" lon="11.107173258112846"><ele>161.6</ele><time>2026-04-25T11:29:02.001Z</time></trkpt><trkpt lat="45.46804945381753" lon="11.107148153234684"><ele>161.4</ele><time>2026-04-25T11:29:03.001Z</time></trkpt><trkpt lat="45.46797047167786" lon="11.107144124472919"><ele>161.20000000000002</ele><time>2026-04-25T11:29:04.001Z</time></trkpt><trkpt lat="45.46790338809678" lon="11.107132551844932"><ele>161.0</ele><time>2026-04-25T11:29:05.001Z</time></trkpt><trkpt lat="45.467822228676994" lon="11.107116218932134"><ele>158.20000000000002</ele><time>2026-04-25T11:29:07.001Z</time></trkpt><trkpt lat="45.4677220090958" lon="11.10715227247732"><ele>155.4</ele><time>2026-04-25T11:29:09.001Z</time></trkpt><trkpt lat="45.467637614672945" lon="11.107097730500676"><ele>152.6</ele><time>2026-04-25T11:29:11.001Z</time></trkpt><trkpt lat="45.46755210887012" lon="11.106978371050328"><ele>149.8</ele><time>2026-04-25T11:29:13.001Z</time></trkpt><trkpt lat="45.4674768883811" lon="11.10688549025351"><ele>147.0</ele><time>2026-04-25T11:29:15.001Z</time></trkpt><trkpt lat="45.46737127929345" lon="11.106898799422803"><ele>147.0</ele><time>2026-04-25T11:29:17.001Z</time></trkpt><trkpt lat="45.467302377986634" lon="11.106898421240498"><ele>147.0</ele><time>2026-04-25T11:29:18.001Z</time></trkpt><trkpt lat="45.4672321530791" lon="11.106884108859878"><ele>147.0</ele><time>2026-04-25T11:29:19.001Z</time></trkpt><trkpt lat="45.467166587807164" lon="11.106856727706361"><ele>147.0</ele><time>2026-04-25T11:29:20.001Z</time></trkpt><trkpt lat="45.46703548062831" lon="11.106765104231819"><ele>147.0</ele><time>2026-04-25T11:29:22.001Z</time></trkpt><trkpt lat="45.466959420444944" lon="11.1067102032605"><ele>147.0</ele><time>2026-04-25T11:29:23.001Z</time></trkpt><trkpt lat="45.466890343587096" lon="11.106683389596924"><ele>144.6</ele><time>2026-04-25T11:29:24.001Z</time></trkpt><trkpt lat="45.46678306674421" lon="11.106653346716149"><ele>142.2</ele><time>2026-04-25T11:29:26.001Z</time></trkpt><trkpt lat="45.46669792366673" lon="11.106673568177898"><ele>139.8</ele><time>2026-04-25T11:29:27.001Z</time></trkpt><trkpt lat="45.4665815926792" lon="11.106547523302732"><ele>137.4</ele><time>2026-04-25T11:29:28.001Z</time></trkpt><trkpt lat="45.466492336695865" lon="11.10656803603452"><ele>135.0</ele><time>2026-04-25T11:29:29.001Z</time></trkpt><trkpt lat="45.46640712767641" lon="11.106583682234975"><ele>134.6</ele><time>2026-04-25T11:29:30.001Z</time></trkpt><trkpt lat="45.46630861793726" lon="11.106569424120586"><ele>134.2</ele><time>2026-04-25T11:29:32.001Z</time></trkpt><trkpt lat="45.46623219478985" lon="11.1065339387828"><ele>133.8</ele><time>2026-04-25T11:29:34.001Z</time></trkpt><trkpt lat="45.466181792416016" lon="11.106654065836862"><ele>133.4</ele><time>2026-04-25T11:29:37.001Z</time></trkpt><trkpt lat="45.466174221259585" lon="11.106854242109215"><ele>133.0</ele><time>2026-04-25T11:29:39.001Z</time></trkpt><trkpt lat="45.46615756176319" lon="11.106967014554938"><ele>132.8</ele><time>2026-04-25T11:29:40.001Z</time></trkpt><trkpt lat="45.46612047976653" lon="11.107070695370739"><ele>132.60000000000002</ele><time>2026-04-25T11:29:41.001Z</time></trkpt><trkpt lat="45.466058749651204" lon="11.107198255843974"><ele>132.39999999999998</ele><time>2026-04-25T11:29:42.001Z</time></trkpt><trkpt lat="45.46596666352522" lon="11.10732713208095"><ele>132.2</ele><time>2026-04-25T11:29:43.001Z</time></trkpt><trkpt lat="45.46589754828801" lon="11.10743739508412"><ele>132.0</ele><time>2026-04-25T11:29:44.001Z</time></trkpt><trkpt lat="45.465824208522314" lon="11.107511012222332"><ele>132.0</ele><time>2026-04-25T11:29:45.001Z</time></trkpt><trkpt lat="45.46575653938506" lon="11.107551034017899"><ele>132.0</ele><time>2026-04-25T11:29:46.001Z</time></trkpt><trkpt lat="45.4656617319595" lon="11.107601196102584"><ele>132.0</ele><time>2026-04-25T11:29:48.001Z</time></trkpt><trkpt lat="45.4655701500248" lon="11.107641731337688"><ele>132.0</ele><time>2026-04-25T11:30:01.001Z</time></trkpt><trkpt lat="45.465509511447195" lon="11.10769538172774"><ele>132.0</ele><time>2026-04-25T11:30:02.001Z</time></trkpt><trkpt lat="45.46541976100641" lon="11.107740433993168"><ele>132.0</ele><time>2026-04-25T11:30:03.001Z</time></trkpt><trkpt lat="45.465312939711524" lon="11.10780719851241"><ele>130.0</ele><time>2026-04-25T11:30:04.001Z</time></trkpt><trkpt lat="45.46520669639778" lon="11.107893333487986"><ele>128.0</ele><time>2026-04-25T11:30:05.001Z</time></trkpt><trkpt lat="45.46509337615066" lon="11.10795432953712"><ele>126.0</ele><time>2026-04-25T11:30:06.001Z</time></trkpt><trkpt lat="45.464973272311134" lon="11.108032154795332"><ele>124.0</ele><time>2026-04-25T11:30:07.001Z</time></trkpt><trkpt lat="45.46486922480936" lon="11.1081119193103"><ele>124.0</ele><time>2026-04-25T11:30:08.001Z</time></trkpt><trkpt lat="45.464754284220696" lon="11.10817721866732"><ele>124.0</ele><time>2026-04-25T11:30:09.001Z</time></trkpt><trkpt lat="45.464624947810385" lon="11.108225829796602"><ele>124.0</ele><time>2026-04-25T11:30:10.001Z</time></trkpt><trkpt lat="45.46450479147117" lon="11.108248804983898"><ele>124.0</ele><time>2026-04-25T11:30:11.001Z</time></trkpt><trkpt lat="45.464401601564944" lon="11.10827310814597"><ele>123.6</ele><time>2026-04-25T11:30:12.001Z</time></trkpt><trkpt lat="45.46431438613754" lon="11.108325304401546"><ele>123.2</ele><time>2026-04-25T11:30:13.001Z</time></trkpt><trkpt lat="45.464237730286655" lon="11.10840457519258"><ele>122.79999999999998</ele><time>2026-04-25T11:30:14.001Z</time></trkpt><trkpt lat="45.464150173188195" lon="11.108448745519732"><ele>122.39999999999999</ele><time>2026-04-25T11:30:15.001Z</time></trkpt><trkpt lat="45.464034893825264" lon="11.108433541116062"><ele>122.0</ele><time>2026-04-25T11:30:16.001Z</time></trkpt><trkpt lat="45.463904947542254" lon="11.108457334889126"><ele>120.75</ele><time>2026-04-25T11:30:17.001Z</time></trkpt><trkpt lat="45.46377023688608" lon="11.108507139700702"><ele>119.5</ele><time>2026-04-25T11:30:18.001Z</time></trkpt><trkpt lat="45.46363345851803" lon="11.108546691299992"><ele>118.25</ele><time>2026-04-25T11:30:19.001Z</time></trkpt><trkpt lat="45.46349953835032" lon="11.108595551421168"><ele>117.0</ele><time>2026-04-25T11:30:20.001Z</time></trkpt><trkpt lat="45.46336263155263" lon="11.108658476282306"><ele>117.0</ele><time>2026-04-25T11:30:21.001Z</time></trkpt><trkpt lat="45.46322845538528" lon="11.108742317149758"><ele>117.0</ele><time>2026-04-25T11:30:22.001Z</time></trkpt><trkpt lat="45.46309445436601" lon="11.108831388823301"><ele>117.0</ele><time>2026-04-25T11:30:23.001Z</time></trkpt><trkpt lat="45.462965101494845" lon="11.108923261866499"><ele>117.0</ele><time>2026-04-25T11:30:24.001Z</time></trkpt><trkpt lat="45.462826405281035" lon="11.109014236799725"><ele>116.25</ele><time>2026-04-25T11:30:25.001Z</time></trkpt><trkpt lat="45.46269306609799" lon="11.109118257138194"><ele>115.5</ele><time>2026-04-25T11:30:26.001Z</time></trkpt><trkpt lat="45.462564741400996" lon="11.10919950014286"><ele>114.75</ele><time>2026-04-25T11:30:27.001Z</time></trkpt><trkpt lat="45.46244736167564" lon="11.109288457001993"><ele>114.0</ele><time>2026-04-25T11:30:28.001Z</time></trkpt><trkpt lat="45.46233338262831" lon="11.109373892299782"><ele>114.0</ele><time>2026-04-25T11:30:29.001Z</time></trkpt><trkpt lat="45.46221580990853" lon="11.109454456256032"><ele>114.0</ele><time>2026-04-25T11:30:30.001Z</time></trkpt><trkpt lat="45.46209675357347" lon="11.10952686613879"><ele>114.0</ele><time>2026-04-25T11:30:31Z</time></trkpt><trkpt lat="45.46197593436643" lon="11.109592984606877"><ele>114.0</ele><time>2026-04-25T11:30:32Z</time></trkpt><trkpt lat="45.46185158261484" lon="11.109659679669093"><ele>112.5</ele><time>2026-04-25T11:30:33Z</time></trkpt><trkpt lat="45.46173272759283" lon="11.10971896122334"><ele>111.0</ele><time>2026-04-25T11:30:34Z</time></trkpt><trkpt lat="45.46161378803233" lon="11.109776898973976"><ele>109.5</ele><time>2026-04-25T11:30:35Z</time></trkpt><trkpt lat="45.46149444465863" lon="11.109837480048913"><ele>108.0</ele><time>2026-04-25T11:30:36Z</time></trkpt><trkpt lat="45.46137432123311" lon="11.109894909212546"><ele>109.0</ele><time>2026-04-25T11:30:37Z</time></trkpt><trkpt lat="45.46124877289872" lon="11.109942543739963"><ele>110.0</ele><time>2026-04-25T11:30:38Z</time></trkpt><trkpt lat="45.46111898767495" lon="11.109939112573768"><ele>111.0</ele><time>2026-04-25T11:30:39Z</time></trkpt><trkpt lat="45.460980860319715" lon="11.10992506600027"><ele>112.0</ele><time>2026-04-25T11:30:40Z</time></trkpt><trkpt lat="45.46083889958762" lon="11.109918536826184"><ele>111.0</ele><time>2026-04-25T11:30:41Z</time></trkpt><trkpt lat="45.460697688515225" lon="11.109887309635875"><ele>110.0</ele><time>2026-04-25T11:30:42Z</time></trkpt><trkpt lat="45.46056202653169" lon="11.109882876486994"><ele>109.0</ele><time>2026-04-25T11:30:43Z</time></trkpt><trkpt lat="45.46043031477072" lon="11.109912229057006"><ele>108.0</ele><time>2026-04-25T11:30:44Z</time></trkpt><trkpt lat="45.46029633588148" lon="11.109977017525365"><ele>108.0</ele><time>2026-04-25T11:30:45Z</time></trkpt><trkpt lat="45.46015173277605" lon="11.110061869476842"><ele>108.0</ele><time>2026-04-25T11:30:46Z</time></trkpt><trkpt lat="45.46001601399668" lon="11.110142325937138"><ele>108.0</ele><time>2026-04-25T11:30:47Z</time></trkpt><trkpt lat="45.45989495934825" lon="11.110205005508933"><ele>108.0</ele><time>2026-04-25T11:30:48Z</time></trkpt><trkpt lat="45.45977361116968" lon="11.110245048052388"><ele>108.0</ele><time>2026-04-25T11:30:49Z</time></trkpt><trkpt lat="45.45967186077388" lon="11.110322783843817"><ele>108.00000000000001</ele><time>2026-04-25T11:30:50Z</time></trkpt><trkpt lat="45.45956472232279" lon="11.110378333021243"><ele>108.00000000000001</ele><time>2026-04-25T11:30:51Z</time></trkpt><trkpt lat="45.45946380936593" lon="11.110424964382814"><ele>108.0</ele><time>2026-04-25T11:30:52Z</time></trkpt><trkpt lat="45.45936284860436" lon="11.110476114533853"><ele>108.0</ele><time>2026-04-25T11:30:53Z</time></trkpt><trkpt lat="45.459265480658416" lon="11.110527245941139"><ele>107.4</ele><time>2026-04-25T11:30:54Z</time></trkpt><trkpt lat="45.45917165355653" lon="11.110555249774318"><ele>106.80000000000001</ele><time>2026-04-25T11:30:55Z</time></trkpt><trkpt lat="45.45909173335186" lon="11.110630518489288"><ele>106.2</ele><time>2026-04-25T11:30:56Z</time></trkpt><trkpt lat="45.45901682512155" lon="11.11066707037952"><ele>105.6</ele><time>2026-04-25T11:30:57Z</time></trkpt><trkpt lat="45.45896880723475" lon="11.11083639224375"><ele>105.0</ele><time>2026-04-25T11:30:58Z</time></trkpt><trkpt lat="45.45893362022212" lon="11.110962478445597"><ele>105.0</ele><time>2026-04-25T11:30:59Z</time></trkpt><trkpt lat="45.4588918271239" lon="11.111071709421871"><ele>105.0</ele><time>2026-04-25T11:31:00Z</time></trkpt><trkpt lat="45.4588457458998" lon="11.111164178316159"><ele>105.0</ele><time>2026-04-25T11:31:01Z</time></trkpt><trkpt lat="45.458795522378075" lon="11.111236303370193"><ele>105.0</ele><time>2026-04-25T11:31:02Z</time></trkpt><trkpt lat="45.45867823822285" lon="11.111296511258491"><ele>105.0</ele><time>2026-04-25T11:31:04Z</time></trkpt><trkpt lat="45.458594563846034" lon="11.111312671895371"><ele>105.0</ele><time>2026-04-25T11:31:05.001Z</time></trkpt><trkpt lat="45.45850348511387" lon="11.11133482339883"><ele>103.33333333333333</ele><time>2026-04-25T11:31:06.001Z</time></trkpt><trkpt lat="45.45842471948691" lon="11.111367197398769"><ele>101.66666666666667</ele><time>2026-04-25T11:31:07.001Z</time></trkpt><trkpt lat="45.45835466888002" lon="11.111353607238067"><ele>100.0</ele><time>2026-04-25T11:31:08.001Z</time></trkpt><trkpt lat="45.45827602725554" lon="11.111372102640939"><ele>98.33333333333334</ele><time>2026-04-25T11:31:09.001Z</time></trkpt><trkpt lat="45.458178438895224" lon="11.111422078111946"><ele>96.66666666666667</ele><time>2026-04-25T11:31:10.001Z</time></trkpt><trkpt lat="45.45807206497669" lon="11.111474553635233"><ele>95.0</ele><time>2026-04-25T11:31:11.001Z</time></trkpt><trkpt lat="45.4579608570891" lon="11.11151855245283"><ele>95.2</ele><time>2026-04-25T11:31:12.001Z</time></trkpt><trkpt lat="45.45786033273017" lon="11.111551079415095"><ele>95.4</ele><time>2026-04-25T11:31:13.001Z</time></trkpt><trkpt lat="45.45776588622445" lon="11.111569479580854"><ele>95.6</ele><time>2026-04-25T11:31:14.001Z</time></trkpt><trkpt lat="45.45765925301681" lon="11.11158869506538"><ele>95.8</ele><time>2026-04-25T11:31:15.001Z</time></trkpt><trkpt lat="45.457546383880484" lon="11.111596110595045"><ele>96.0</ele><time>2026-04-25T11:31:16.001Z</time></trkpt><trkpt lat="45.45743447517113" lon="11.111584833149948"><ele>95.19999999999999</ele><time>2026-04-25T11:31:17.001Z</time></trkpt><trkpt lat="45.457335581135624" lon="11.111544503285039"><ele>94.39999999999999</ele><time>2026-04-25T11:31:18.001Z</time></trkpt><trkpt lat="45.457230538637155" lon="11.111489046446259"><ele>93.6</ele><time>2026-04-25T11:31:19.001Z</time></trkpt><trkpt lat="45.45711911579263" lon="11.111452631245921"><ele>92.8</ele><time>2026-04-25T11:31:20.001Z</time></trkpt><trkpt lat="45.457003441457466" lon="11.111436156551347"><ele>92.0</ele><time>2026-04-25T11:31:21.001Z</time></trkpt><trkpt lat="45.4568977915388" lon="11.111387825391652"><ele>91.5</ele><time>2026-04-25T11:31:22.001Z</time></trkpt><trkpt lat="45.45681563487342" lon="11.111160283434584"><ele>91.0</ele><time>2026-04-25T11:31:23.001Z</time></trkpt><trkpt lat="45.45670312527217" lon="11.111122780216695"><ele>90.5</ele><time>2026-04-25T11:31:24.001Z</time></trkpt><trkpt lat="45.45657152347814" lon="11.111078912162494"><ele>90.0</ele><time>2026-04-25T11:31:25.001Z</time></trkpt><trkpt lat="45.4564532744302" lon="11.111039495103013"><ele>90.0</ele><time>2026-04-25T11:31:26.001Z</time></trkpt><trkpt lat="45.456302891288296" lon="11.111185428487012"><ele>90.0</ele><time>2026-04-25T11:31:27.001Z</time></trkpt><trkpt lat="45.456178524279906" lon="11.111152882559367"><ele>90.0</ele><time>2026-04-25T11:31:28.001Z</time></trkpt><trkpt lat="45.4560560546842" lon="11.111134830168146"><ele>90.0</ele><time>2026-04-25T11:31:29.001Z</time></trkpt><trkpt lat="45.455929347621776" lon="11.111129587073467"><ele>89.25</ele><time>2026-04-25T11:31:30.001Z</time></trkpt><trkpt lat="45.45580564222646" lon="11.111136160617107"><ele>88.5</ele><time>2026-04-25T11:31:31.001Z</time></trkpt><trkpt lat="45.45567008746542" lon="11.111144194294011"><ele>87.75</ele><time>2026-04-25T11:31:32.001Z</time></trkpt><trkpt lat="45.4555365620781" lon="11.111154661845266"><ele>87.0</ele><time>2026-04-25T11:31:33.001Z</time></trkpt><trkpt lat="45.45540079970716" lon="11.11117106824887"><ele>86.5</ele><time>2026-04-25T11:31:34.001Z</time></trkpt><trkpt lat="45.455275738156544" lon="11.111187822820717"><ele>86.0</ele><time>2026-04-25T11:31:35.001Z</time></trkpt><trkpt lat="45.455156994043406" lon="11.111201872292506"><ele>85.5</ele><time>2026-04-25T11:31:36.001Z</time></trkpt><trkpt lat="45.455040522789965" lon="11.111221981782652"><ele>85.0</ele><time>2026-04-25T11:31:37.001Z</time></trkpt><trkpt lat="45.45492682578442" lon="11.111234577449293"><ele>85.0</ele><time>2026-04-25T11:31:38.001Z</time></trkpt><trkpt lat="45.454813515348214" lon="11.111239368496037"><ele>85.0</ele><time>2026-04-25T11:31:39.001Z</time></trkpt><trkpt lat="45.45471082468977" lon="11.111237057737346"><ele>85.0</ele><time>2026-04-25T11:31:40.001Z</time></trkpt><trkpt lat="45.45463436329061" lon="11.111238896484787"><ele>85.0</ele><time>2026-04-25T11:31:41.001Z</time></trkpt><trkpt lat="45.454556937198355" lon="11.111202367879736"><ele>85.0</ele><time>2026-04-25T11:31:43.001Z</time></trkpt><trkpt lat="45.454497904704695" lon="11.111088639508512"><ele>83.8</ele><time>2026-04-25T11:31:45.001Z</time></trkpt><trkpt lat="45.4544601056123" lon="11.110961766258464"><ele>82.6</ele><time>2026-04-25T11:31:47.001Z</time></trkpt><trkpt lat="45.454388784396855" lon="11.110970106481137"><ele>81.4</ele><time>2026-04-25T11:31:49.001Z</time></trkpt><trkpt lat="45.45424366828546" lon="11.110999568546903"><ele>80.2</ele><time>2026-04-25T11:31:51.001Z</time></trkpt><trkpt lat="45.45414932847466" lon="11.11099381186787"><ele>79.0</ele><time>2026-04-25T11:31:52.001Z</time></trkpt><trkpt lat="45.45402702134763" lon="11.110996004456688"><ele>79.0</ele><time>2026-04-25T11:31:53.001Z</time></trkpt><trkpt lat="45.453878893591295" lon="11.110998223336011"><ele>79.0</ele><time>2026-04-25T11:31:54.001Z</time></trkpt><trkpt lat="45.453710741810546" lon="11.111000605166826"><ele>79.0</ele><time>2026-04-25T11:31:55.001Z</time></trkpt><trkpt lat="45.45353414733334" lon="11.111006758798178"><ele>78.5</ele><time>2026-04-25T11:31:56.001Z</time></trkpt><trkpt lat="45.45337061685091" lon="11.111013586497233"><ele>78.0</ele><time>2026-04-25T11:31:57.001Z</time></trkpt><trkpt lat="45.45322416884056" lon="11.11101715585988"><ele>77.5</ele><time>2026-04-25T11:31:58.001Z</time></trkpt><trkpt lat="45.45308635266562" lon="11.111020645664613"><ele>77.0</ele><time>2026-04-25T11:31:59.001Z</time></trkpt><trkpt lat="45.45294995139426" lon="11.111026592843418"><ele>76.6</ele><time>2026-04-25T11:32:00.001Z</time></trkpt><trkpt lat="45.45283334715394" lon="11.111032655568893"><ele>76.2</ele><time>2026-04-25T11:32:01.001Z</time></trkpt><trkpt lat="45.45273443898123" lon="11.111032369964976"><ele>75.8</ele><time>2026-04-25T11:32:02.001Z</time></trkpt><trkpt lat="45.452651406481515" lon="11.111036170465795"><ele>75.4</ele><time>2026-04-25T11:32:03.001Z</time></trkpt><trkpt lat="45.45254983197521" lon="11.11106297360457"><ele>75.0</ele><time>2026-04-25T11:32:05.001Z</time></trkpt><trkpt lat="45.45248885793077" lon="11.111174031552784"><ele>75.0</ele><time>2026-04-25T11:32:07.001Z</time></trkpt><trkpt lat="45.45243478144848" lon="11.111345218772362"><ele>75.0</ele><time>2026-04-25T11:32:09.001Z</time></trkpt><trkpt lat="45.45240274360497" lon="11.11145211195953"><ele>75.0</ele><time>2026-04-25T11:32:10.001Z</time></trkpt><trkpt lat="45.45236781984073" lon="11.111568072649078"><ele>75.0</ele><time>2026-04-25T11:32:11.001Z</time></trkpt><trkpt lat="45.452337424629896" lon="11.111688366753263"><ele>75.0</ele><time>2026-04-25T11:32:12.001Z</time></trkpt><trkpt lat="45.452308724045764" lon="11.111816301166114"><ele>75.8</ele><time>2026-04-25T11:32:13.001Z</time></trkpt><trkpt lat="45.45227934047298" lon="11.11191202651403"><ele>76.6</ele><time>2026-04-25T11:32:14.001Z</time></trkpt><trkpt lat="45.45217517282052" lon="11.112003120421749"><ele>77.4</ele><time>2026-04-25T11:32:16.001Z</time></trkpt><trkpt lat="45.45210208310442" lon="11.112061530405372"><ele>78.2</ele><time>2026-04-25T11:32:17.001Z</time></trkpt><trkpt lat="45.45203303329579" lon="11.11211943033787"><ele>79.0</ele><time>2026-04-25T11:32:18.001Z</time></trkpt><trkpt lat="45.4519573068035" lon="11.112189985517904"><ele>79.0</ele><time>2026-04-25T11:32:19.001Z</time></trkpt><trkpt lat="45.451888411906474" lon="11.11227414131884"><ele>79.0</ele><time>2026-04-25T11:32:20.001Z</time></trkpt><trkpt lat="45.451837041107765" lon="11.112366371017943"><ele>79.0</ele><time>2026-04-25T11:32:21.001Z</time></trkpt><trkpt lat="45.451780986722476" lon="11.11247061930155"><ele>79.0</ele><time>2026-04-25T11:32:22.001Z</time></trkpt><trkpt lat="45.45172283527566" lon="11.112577194849862"><ele>79.0</ele><time>2026-04-25T11:32:23.001Z</time></trkpt><trkpt lat="45.45165790141188" lon="11.112664977559637"><ele>81.66666666666666</ele><time>2026-04-25T11:32:24.001Z</time></trkpt><trkpt lat="45.45160145986495" lon="11.112751559127672"><ele>84.33333333333333</ele><time>2026-04-25T11:32:25.001Z</time></trkpt><trkpt lat="45.45155045965561" lon="11.112839907999096"><ele>87.0</ele><time>2026-04-25T11:32:26.001Z</time></trkpt><trkpt lat="45.45149593313448" lon="11.112946790652398"><ele>89.66666666666667</ele><time>2026-04-25T11:32:27Z</time></trkpt><trkpt lat="45.451455659072266" lon="11.11305256074245"><ele>92.33333333333334</ele><time>2026-04-25T11:32:28Z</time></trkpt><trkpt lat="45.45142667564659" lon="11.113158703651703"><ele>95.0</ele><time>2026-04-25T11:32:29Z</time></trkpt><trkpt lat="45.45140278728126" lon="11.113248285579779"><ele>96.25</ele><time>2026-04-25T11:32:30Z</time></trkpt><trkpt lat="45.451409038963654" lon="11.11335805892078"><ele>97.5</ele><time>2026-04-25T11:32:32Z</time></trkpt><trkpt lat="45.451182273195066" lon="11.113335022252883"><ele>98.75</ele><time>2026-04-25T11:32:35Z</time></trkpt><trkpt lat="45.451086027668765" lon="11.11334352351127"><ele>100.0</ele><time>2026-04-25T11:32:36Z</time></trkpt><trkpt lat="45.45099536220926" lon="11.113355069685463"><ele>100.0</ele><time>2026-04-25T11:32:37Z</time></trkpt><trkpt lat="45.450898916348024" lon="11.113358058808195"><ele>100.0</ele><time>2026-04-25T11:32:38Z</time></trkpt><trkpt lat="45.450795679736096" lon="11.11335866053137"><ele>100.0</ele><time>2026-04-25T11:32:39Z</time></trkpt><trkpt lat="45.450684508787646" lon="11.113357662393264"><ele>100.0</ele><time>2026-04-25T11:32:40Z</time></trkpt><trkpt lat="45.450569198171124" lon="11.11334219325495"><ele>100.0</ele><time>2026-04-25T11:32:41Z</time></trkpt><trkpt lat="45.45046009939601" lon="11.113324250823213"><ele>100.6</ele><time>2026-04-25T11:32:42Z</time></trkpt><trkpt lat="45.45037209767598" lon="11.113311342129647"><ele>101.2</ele><time>2026-04-25T11:32:43Z</time></trkpt><trkpt lat="45.45029257386172" lon="11.113307890474314"><ele>101.80000000000001</ele><time>2026-04-25T11:32:44Z</time></trkpt><trkpt lat="45.450160636624645" lon="11.113375227914206"><ele>102.4</ele><time>2026-04-25T11:32:46Z</time></trkpt><trkpt lat="45.45008314773798" lon="11.11342295841056"><ele>103.0</ele><time>2026-04-25T11:32:47Z</time></trkpt><trkpt lat="45.44998535945955" lon="11.11342630371091"><ele>103.0</ele><time>2026-04-25T11:32:48Z</time></trkpt><trkpt lat="45.4498749476258" lon="11.113378133292672"><ele>103.0</ele><time>2026-04-25T11:32:49Z</time></trkpt><trkpt lat="45.44975658038905" lon="11.11331274340225"><ele>103.0</ele><time>2026-04-25T11:32:50Z</time></trkpt><trkpt lat="45.44962871673425" lon="11.113258358686936"><ele>103.0</ele><time>2026-04-25T11:32:51Z</time></trkpt><trkpt lat="45.449477957271085" lon="11.113212560040536"><ele>101.5</ele><time>2026-04-25T11:32:52Z</time></trkpt><trkpt lat="45.4493485308026" lon="11.113170624252914"><ele>100.0</ele><time>2026-04-25T11:32:53Z</time></trkpt><trkpt lat="45.44922169820706" lon="11.113138952458437"><ele>98.5</ele><time>2026-04-25T11:32:54Z</time></trkpt><trkpt lat="45.449085051165724" lon="11.113102791539271"><ele>97.0</ele><time>2026-04-25T11:32:55Z</time></trkpt><trkpt lat="45.44895029144674" lon="11.113068171175412"><ele>97.0</ele><time>2026-04-25T11:32:56Z</time></trkpt><trkpt lat="45.448822183135555" lon="11.113029526060398"><ele>97.0</ele><time>2026-04-25T11:32:57Z</time></trkpt><trkpt lat="45.448706540270734" lon="11.112986240303371"><ele>97.0</ele><time>2026-04-25T11:32:58Z</time></trkpt><trkpt lat="45.44861355605374" lon="11.112953160464142"><ele>97.0</ele><time>2026-04-25T11:32:59Z</time></trkpt><trkpt lat="45.44854155283463" lon="11.112955102156445"><ele>97.0</ele><time>2026-04-25T11:33:00Z</time></trkpt><trkpt lat="45.448471716170424" lon="11.113008542591022"><ele>99.8</ele><time>2026-04-25T11:33:01Z</time></trkpt><trkpt lat="45.44842743773492" lon="11.113111186718282"><ele>102.6</ele><time>2026-04-25T11:33:02Z</time></trkpt><trkpt lat="45.44841708620666" lon="11.11323812169492"><ele>105.39999999999999</ele><time>2026-04-25T11:33:03Z</time></trkpt><trkpt lat="45.448439965938825" lon="11.11336977529336"><ele>108.19999999999999</ele><time>2026-04-25T11:33:04Z</time></trkpt><trkpt lat="45.448477237119754" lon="11.113513932014532"><ele>111.0</ele><time>2026-04-25T11:33:05Z</time></trkpt><trkpt lat="45.44848552522436" lon="11.1136778853474"><ele>112.6</ele><time>2026-04-25T11:33:06Z</time></trkpt><trkpt lat="45.448508215679276" lon="11.113849732774854"><ele>114.19999999999999</ele><time>2026-04-25T11:33:07Z</time></trkpt><trkpt lat="45.448524790288836" lon="11.113988740066393"><ele>115.80000000000001</ele><time>2026-04-25T11:33:08Z</time></trkpt><trkpt lat="45.44853225243788" lon="11.114083357143503"><ele>117.4</ele><time>2026-04-25T11:33:09Z</time></trkpt><trkpt lat="45.448470885656015" lon="11.114166368569546"><ele>119.0</ele><time>2026-04-25T11:33:11Z</time></trkpt><trkpt lat="45.44837222575167" lon="11.114075662414184"><ele>119.0</ele><time>2026-04-25T11:33:12Z</time></trkpt><trkpt lat="45.4483577711778" lon="11.11394841494414"><ele>119.0</ele><time>2026-04-25T11:33:13Z</time></trkpt><trkpt lat="45.44831335242842" lon="11.1138150411261"><ele>119.0</ele><time>2026-04-25T11:33:14Z</time></trkpt><trkpt lat="45.44824492785035" lon="11.113678557007475"><ele>119.0</ele><time>2026-04-25T11:33:15Z</time></trkpt><trkpt lat="45.44818759853859" lon="11.113516412465216"><ele>119.0</ele><time>2026-04-25T11:33:16Z</time></trkpt><trkpt lat="45.44811293084175" lon="11.113364904154826"><ele>117.0</ele><time>2026-04-25T11:33:17Z</time></trkpt><trkpt lat="45.44802407559941" lon="11.113198469359643"><ele>115.0</ele><time>2026-04-25T11:33:18Z</time></trkpt><trkpt lat="45.44792730727396" lon="11.11304723117723"><ele>113.0</ele><time>2026-04-25T11:33:19Z</time></trkpt><trkpt lat="45.447841827078626" lon="11.112905076343775"><ele>111.0</ele><time>2026-04-25T11:33:20Z</time></trkpt><trkpt lat="45.44774547022093" lon="11.11275891881982"><ele>113.25</ele><time>2026-04-25T11:33:21Z</time></trkpt><trkpt lat="45.44765453465669" lon="11.112600270366206"><ele>115.5</ele><time>2026-04-25T11:33:22Z</time></trkpt><trkpt lat="45.44755131978762" lon="11.112469803322709"><ele>117.75</ele><time>2026-04-25T11:33:23Z</time></trkpt><trkpt lat="45.44744956906701" lon="11.112368806637358"><ele>120.0</ele><time>2026-04-25T11:33:24Z</time></trkpt><trkpt lat="45.447342557428236" lon="11.112312044418099"><ele>120.0</ele><time>2026-04-25T11:33:25Z</time></trkpt><trkpt lat="45.447235439342556" lon="11.112281615744154"><ele>120.0</ele><time>2026-04-25T11:33:26Z</time></trkpt><trkpt lat="45.44712032820333" lon="11.112312159541055"><ele>120.0</ele><time>2026-04-25T11:33:27Z</time></trkpt><trkpt lat="45.44702321441778" lon="11.112380549418873"><ele>120.0</ele><time>2026-04-25T11:33:28Z</time></trkpt><trkpt lat="45.4469402813449" lon="11.112473711513715"><ele>120.0</ele><time>2026-04-25T11:33:29Z</time></trkpt><trkpt lat="45.44687638020306" lon="11.112561133124924"><ele>123.0</ele><time>2026-04-25T11:33:30.001Z</time></trkpt><trkpt lat="45.44681915226193" lon="11.112518362466771"><ele>126.0</ele><time>2026-04-25T11:33:31.001Z</time></trkpt><trkpt lat="45.44667186851463" lon="11.112499062651105"><ele>129.0</ele><time>2026-04-25T11:33:33.001Z</time></trkpt><trkpt lat="45.44656647065776" lon="11.112470680438541"><ele>132.0</ele><time>2026-04-25T11:33:34.001Z</time></trkpt><trkpt lat="45.44645841726052" lon="11.112446508731217"><ele>135.0</ele><time>2026-04-25T11:33:35.001Z</time></trkpt><trkpt lat="45.44635804925039" lon="11.112440397459478"><ele>134.8</ele><time>2026-04-25T11:33:36.001Z</time></trkpt><trkpt lat="45.44626309624251" lon="11.11246488875937"><ele>134.6</ele><time>2026-04-25T11:33:37.001Z</time></trkpt><trkpt lat="45.446157934196115" lon="11.112470809336525"><ele>134.4</ele><time>2026-04-25T11:33:38.001Z</time></trkpt><trkpt lat="45.44605720543727" lon="11.112499108090407"><ele>134.2</ele><time>2026-04-25T11:33:39.001Z</time></trkpt><trkpt lat="45.4459463625717" lon="11.112496993826236"><ele>134.0</ele><time>2026-04-25T11:33:40.001Z</time></trkpt><trkpt lat="45.44583215320397" lon="11.112539258212868"><ele>134.0</ele><time>2026-04-25T11:33:41.001Z</time></trkpt><trkpt lat="45.44573998352253" lon="11.112530549614673"><ele>134.0</ele><time>2026-04-25T11:33:42.001Z</time></trkpt><trkpt lat="45.44563638414741" lon="11.112617831320572"><ele>134.0</ele><time>2026-04-25T11:33:43.001Z</time></trkpt><trkpt lat="45.4455327723874" lon="11.112636922512209"><ele>134.0</ele><time>2026-04-25T11:33:44.001Z</time></trkpt><trkpt lat="45.44542608580224" lon="11.112712941227825"><ele>134.0</ele><time>2026-04-25T11:33:45.001Z</time></trkpt><trkpt lat="45.445273180133334" lon="11.112441251272742"><ele>132.0</ele><time>2026-04-25T11:33:46.001Z</time></trkpt><trkpt lat="45.445139321963076" lon="11.112472908062168"><ele>130.0</ele><time>2026-04-25T11:33:47.001Z</time></trkpt><trkpt lat="45.44504242213009" lon="11.112504959913087"><ele>128.0</ele><time>2026-04-25T11:33:48.001Z</time></trkpt><trkpt lat="45.44496009856017" lon="11.112532190485815"><ele>126.0</ele><time>2026-04-25T11:33:49.001Z</time></trkpt><trkpt lat="45.44488954474416" lon="11.112568477611305"><ele>124.0</ele><time>2026-04-25T11:33:50.001Z</time></trkpt><trkpt lat="45.44490749236638" lon="11.113134427618272"><ele>124.0</ele><time>2026-04-25T11:33:51.001Z</time></trkpt><trkpt lat="45.44484453138885" lon="11.113213815747491"><ele>124.0</ele><time>2026-04-25T11:33:52.001Z</time></trkpt><trkpt lat="45.444774334906846" lon="11.113301774950774"><ele>124.0</ele><time>2026-04-25T11:33:53.001Z</time></trkpt><trkpt lat="45.444703298175874" lon="11.113399433554653"><ele>124.0</ele><time>2026-04-25T11:33:54.001Z</time></trkpt><trkpt lat="45.4446333738187" lon="11.113493709264015"><ele>124.0</ele><time>2026-04-25T11:33:55.001Z</time></trkpt><trkpt lat="45.444556485739696" lon="11.1135832331898"><ele>124.0</ele><time>2026-04-25T11:33:56.001Z</time></trkpt><trkpt lat="45.44447611510417" lon="11.113693321459861"><ele>124.0</ele><time>2026-04-25T11:33:57.001Z</time></trkpt><trkpt lat="45.44440579338788" lon="11.11378199372768"><ele>124.0</ele><time>2026-04-25T11:33:58.001Z</time></trkpt><trkpt lat="45.44433176588369" lon="11.11387364771559"><ele>124.0</ele><time>2026-04-25T11:33:59.001Z</time></trkpt><trkpt lat="45.44425658054562" lon="11.113968731269436"><ele>124.0</ele><time>2026-04-25T11:34:00.001Z</time></trkpt><trkpt lat="45.444177269985666" lon="11.114073788485001"><ele>125.80000000000001</ele><time>2026-04-25T11:34:01.001Z</time></trkpt><trkpt lat="45.44409787994449" lon="11.114155090820416"><ele>127.60000000000001</ele><time>2026-04-25T11:34:02.001Z</time></trkpt><trkpt lat="45.444019535101106" lon="11.114241063662222"><ele>129.4</ele><time>2026-04-25T11:34:03.001Z</time></trkpt><trkpt lat="45.443948941912645" lon="11.114323785603194"><ele>131.20000000000002</ele><time>2026-04-25T11:34:04.001Z</time></trkpt><trkpt lat="45.44387853516363" lon="11.11440427170793"><ele>133.0</ele><time>2026-04-25T11:34:05.001Z</time></trkpt><trkpt lat="45.4438079494765" lon="11.11449007679063"><ele>132.20000000000002</ele><time>2026-04-25T11:34:06.001Z</time></trkpt><trkpt lat="45.443738127027956" lon="11.11457344863539"><ele>131.4</ele><time>2026-04-25T11:34:07.001Z</time></trkpt><trkpt lat="45.44368164364431" lon="11.114649414380354"><ele>130.60000000000002</ele><time>2026-04-25T11:34:08.001Z</time></trkpt><trkpt lat="45.443611942128506" lon="11.114740469393526"><ele>129.8</ele><time>2026-04-25T11:34:09.001Z</time></trkpt><trkpt lat="45.44352522638514" lon="11.114842394019346"><ele>129.0</ele><time>2026-04-25T11:34:10.001Z</time></trkpt><trkpt lat="45.44345765042099" lon="11.114928463452735"><ele>129.0</ele><time>2026-04-25T11:34:11.001Z</time></trkpt><trkpt lat="45.44339466912306" lon="11.115014307280973"><ele>129.0</ele><time>2026-04-25T11:34:12.001Z</time></trkpt><trkpt lat="45.44333826164537" lon="11.115076410430925"><ele>129.0</ele><time>2026-04-25T11:34:13.001Z</time></trkpt><trkpt lat="45.443284460221356" lon="11.115135271105999"><ele>129.0</ele><time>2026-04-25T11:34:14.001Z</time></trkpt><trkpt lat="45.44320669083835" lon="11.115170856742882"><ele>129.0</ele><time>2026-04-25T11:34:16.001Z</time></trkpt><trkpt lat="45.443133474107995" lon="11.115297041925817"><ele>129.0</ele><time>2026-04-25T11:34:18.001Z</time></trkpt><trkpt lat="45.44310026094157" lon="11.115392912057448"><ele>128.99999999999997</ele><time>2026-04-25T11:34:19.001Z</time></trkpt><trkpt lat="45.44309000944439" lon="11.1154836217406"><ele>129.0</ele><time>2026-04-25T11:34:20.001Z</time></trkpt><trkpt lat="45.44310414124764" lon="11.115580428940286"><ele>129.0</ele><time>2026-04-25T11:34:21.001Z</time></trkpt><trkpt lat="45.443115820391" lon="11.115675550434133"><ele>129.0</ele><time>2026-04-25T11:34:22.001Z</time></trkpt><trkpt lat="45.44309828773816" lon="11.115770898790014"><ele>129.0</ele><time>2026-04-25T11:34:23.001Z</time></trkpt><trkpt lat="45.443050888290486" lon="11.11586177482055"><ele>128.99999999999997</ele><time>2026-04-25T11:34:24.001Z</time></trkpt><trkpt lat="45.44299129411686" lon="11.115938717745289"><ele>129.0</ele><time>2026-04-25T11:34:25.001Z</time></trkpt><trkpt lat="45.44292835381597" lon="11.115999166249802"><ele>127.0</ele><time>2026-04-25T11:34:26.001Z</time></trkpt><trkpt lat="45.44286603162604" lon="11.11606503141659"><ele>125.0</ele><time>2026-04-25T11:34:27.001Z</time></trkpt><trkpt lat="45.44281472739323" lon="11.116147231701897"><ele>123.0</ele><time>2026-04-25T11:34:28.001Z</time></trkpt><trkpt lat="45.442759012354486" lon="11.116244570479154"><ele>121.0</ele><time>2026-04-25T11:34:29.001Z</time></trkpt><trkpt lat="45.442696338532706" lon="11.116342756479536"><ele>119.0</ele><time>2026-04-25T11:34:30.001Z</time></trkpt><trkpt lat="45.442630002833496" lon="11.116427666047612"><ele>117.0</ele><time>2026-04-25T11:34:31.001Z</time></trkpt><trkpt lat="45.44258213545887" lon="11.1164892626591"><ele>118.0</ele><time>2026-04-25T11:34:32.001Z</time></trkpt><trkpt lat="45.44251176482557" lon="11.116578609901325"><ele>119.0</ele><time>2026-04-25T11:34:33Z</time></trkpt><trkpt lat="45.44248035097286" lon="11.116663042164374"><ele>120.0</ele><time>2026-04-25T11:34:34Z</time></trkpt><trkpt lat="45.44245841821173" lon="11.11675259241819"><ele>121.0</ele><time>2026-04-25T11:34:35Z</time></trkpt><trkpt lat="45.442414677156094" lon="11.116863353726902"><ele>122.0</ele><time>2026-04-25T11:34:36Z</time></trkpt><trkpt lat="45.44236304685773" lon="11.116974020605156"><ele>123.0</ele><time>2026-04-25T11:34:37Z</time></trkpt><trkpt lat="45.44231205671616" lon="11.117091888514771"><ele>123.0</ele><time>2026-04-25T11:34:38Z</time></trkpt><trkpt lat="45.442276643769546" lon="11.11719935450501"><ele>123.00000000000001</ele><time>2026-04-25T11:34:39Z</time></trkpt><trkpt lat="45.44225191647192" lon="11.11729871809313"><ele>123.00000000000001</ele><time>2026-04-25T11:34:40Z</time></trkpt><trkpt lat="45.4421579435508" lon="11.117380340691449"><ele>123.0</ele><time>2026-04-25T11:34:42Z</time></trkpt><trkpt lat="45.442083188488105" lon="11.117377719552028"><ele>123.0</ele><time>2026-04-25T11:34:43Z</time></trkpt><trkpt lat="45.44197218796481" lon="11.117403155152253"><ele>122.60000000000001</ele><time>2026-04-25T11:34:45Z</time></trkpt><trkpt lat="45.4418787387988" lon="11.117548280062133"><ele>122.20000000000002</ele><time>2026-04-25T11:34:47Z</time></trkpt><trkpt lat="45.44180830340183" lon="11.117620135799735"><ele>121.8</ele><time>2026-04-25T11:34:48Z</time></trkpt><trkpt lat="45.44173262821369" lon="11.117668095108122"><ele>121.4</ele><time>2026-04-25T11:34:49Z</time></trkpt><trkpt lat="45.44164917836561" lon="11.117729941958029"><ele>121.0</ele><time>2026-04-25T11:34:50Z</time></trkpt><trkpt lat="45.441556541809874" lon="11.11780958000661"><ele>121.0</ele><time>2026-04-25T11:34:51Z</time></trkpt><trkpt lat="45.441479268256906" lon="11.11787826375804"><ele>121.0</ele><time>2026-04-25T11:34:52Z</time></trkpt><trkpt lat="45.441409107512214" lon="11.117947109842426"><ele>121.0</ele><time>2026-04-25T11:34:53Z</time></trkpt><trkpt lat="45.4413231903036" lon="11.118020672923757"><ele>121.0</ele><time>2026-04-25T11:34:54Z</time></trkpt><trkpt lat="45.44122121521018" lon="11.118100459778715"><ele>121.0</ele><time>2026-04-25T11:34:55Z</time></trkpt><trkpt lat="45.44114166196374" lon="11.118156808748262"><ele>121.33333333333334</ele><time>2026-04-25T11:34:56Z</time></trkpt><trkpt lat="45.44105876867553" lon="11.118225268327638"><ele>121.66666666666667</ele><time>2026-04-25T11:34:57Z</time></trkpt><trkpt lat="45.4409754900918" lon="11.118302562561583"><ele>122.0</ele><time>2026-04-25T11:34:58Z</time></trkpt><trkpt lat="45.44090203280632" lon="11.11836714374098"><ele>122.33333333333334</ele><time>2026-04-25T11:34:59Z</time></trkpt><trkpt lat="45.4408667401774" lon="11.118462652422744"><ele>122.66666666666667</ele><time>2026-04-25T11:35:00Z</time></trkpt><trkpt lat="45.44086890491" lon="11.11855252063537"><ele>123.0</ele><time>2026-04-25T11:35:01Z</time></trkpt><trkpt lat="45.44087505709744" lon="11.118687383790894"><ele>123.0</ele><time>2026-04-25T11:35:02Z</time></trkpt><trkpt lat="45.44089592685249" lon="11.118799360718773"><ele>123.0</ele><time>2026-04-25T11:35:03Z</time></trkpt><trkpt lat="45.440909034249366" lon="11.118927575246213"><ele>123.0</ele><time>2026-04-25T11:35:04Z</time></trkpt><trkpt lat="45.440914551656704" lon="11.11903312300037"><ele>123.0</ele><time>2026-04-25T11:35:05Z</time></trkpt><trkpt lat="45.44090883896906" lon="11.119168969929776"><ele>123.0</ele><time>2026-04-25T11:35:06Z</time></trkpt><trkpt lat="45.44090438826493" lon="11.119303369747731"><ele>123.0</ele><time>2026-04-25T11:35:07Z</time></trkpt><trkpt lat="45.440892066625835" lon="11.11942383971508"><ele>124.4</ele><time>2026-04-25T11:35:08Z</time></trkpt><trkpt lat="45.4408668356297" lon="11.119531305456434"><ele>125.80000000000001</ele><time>2026-04-25T11:35:09Z</time></trkpt><trkpt lat="45.440827978939126" lon="11.11965161737223"><ele>127.2</ele><time>2026-04-25T11:35:10Z</time></trkpt><trkpt lat="45.440691599768066" lon="11.119723743254587"><ele>128.6</ele><time>2026-04-25T11:35:11Z</time></trkpt><trkpt lat="45.44066432619698" lon="11.119863134501644"><ele>130.0</ele><time>2026-04-25T11:35:12Z</time></trkpt><trkpt lat="45.44063656571486" lon="11.119994901994787"><ele>128.83333333333334</ele><time>2026-04-25T11:35:13Z</time></trkpt><trkpt lat="45.440604062983155" lon="11.120113469667256"><ele>127.66666666666667</ele><time>2026-04-25T11:35:14Z</time></trkpt><trkpt lat="45.44056811938035" lon="11.12020787001636"><ele>126.5</ele><time>2026-04-25T11:35:15Z</time></trkpt><trkpt lat="45.44051974616076" lon="11.12028438223441"><ele>125.33333333333334</ele><time>2026-04-25T11:35:16Z</time></trkpt><trkpt lat="45.44045682440421" lon="11.120372918667433"><ele>124.16666666666667</ele><time>2026-04-25T11:35:17Z</time></trkpt><trkpt lat="45.44039239406186" lon="11.120442844357642"><ele>123.0</ele><time>2026-04-25T11:35:18Z</time></trkpt><trkpt lat="45.44031768599536" lon="11.120515848851047"><ele>123.0</ele><time>2026-04-25T11:35:19Z</time></trkpt><trkpt lat="45.440226790761436" lon="11.120625470639167"><ele>123.00000000000001</ele><time>2026-04-25T11:35:20Z</time></trkpt><trkpt lat="45.44012740971362" lon="11.12071624391078"><ele>123.00000000000001</ele><time>2026-04-25T11:35:21Z</time></trkpt><trkpt lat="45.4400588555025" lon="11.120809652087273"><ele>123.0</ele><time>2026-04-25T11:35:22Z</time></trkpt><trkpt lat="45.440003893887166" lon="11.120868359975164"><ele>123.0</ele><time>2026-04-25T11:35:23Z</time></trkpt><trkpt lat="45.440020402974355" lon="11.121056842415733"><ele>125.0</ele><time>2026-04-25T11:35:25Z</time></trkpt><trkpt lat="45.43999810536284" lon="11.121166083122954"><ele>127.00000000000001</ele><time>2026-04-25T11:35:26Z</time></trkpt><trkpt lat="45.4400213399288" lon="11.121279950522222"><ele>129.0</ele><time>2026-04-25T11:35:27Z</time></trkpt><trkpt lat="45.44004131533999" lon="11.121430920453287"><ele>131.0</ele><time>2026-04-25T11:35:28Z</time></trkpt><trkpt lat="45.440063815033604" lon="11.12160519771364"><ele>133.0</ele><time>2026-04-25T11:35:29Z</time></trkpt><trkpt lat="45.440085734916664" lon="11.121799700303727"><ele>133.0</ele><time>2026-04-25T11:35:30Z</time></trkpt><trkpt lat="45.440123747642076" lon="11.122002460051302"><ele>133.0</ele><time>2026-04-25T11:35:31Z</time></trkpt><trkpt lat="45.44012877299868" lon="11.12219207186012"><ele>133.0</ele><time>2026-04-25T11:35:32Z</time></trkpt><trkpt lat="45.44015114290268" lon="11.12237202212102"><ele>133.0</ele><time>2026-04-25T11:35:33Z</time></trkpt><trkpt lat="45.44018811119253" lon="11.122553213429022"><ele>132.0</ele><time>2026-04-25T11:35:34Z</time></trkpt><trkpt lat="45.440211140288035" lon="11.12272705040931"><ele>131.0</ele><time>2026-04-25T11:35:35Z</time></trkpt><trkpt lat="45.440248042548426" lon="11.12289057363615"><ele>130.0</ele><time>2026-04-25T11:35:36Z</time></trkpt><trkpt lat="45.44029452497607" lon="11.123036565912496"><ele>129.0</ele><time>2026-04-25T11:35:37Z</time></trkpt><trkpt lat="45.44035504980519" lon="11.123159233550975"><ele>128.4</ele><time>2026-04-25T11:35:38Z</time></trkpt><trkpt lat="45.44043288511678" lon="11.123262532323828"><ele>127.80000000000001</ele><time>2026-04-25T11:35:39Z</time></trkpt><trkpt lat="45.440530460487686" lon="11.123364894780524"><ele>127.19999999999999</ele><time>2026-04-25T11:35:40Z</time></trkpt><trkpt lat="45.44062674732732" lon="11.123454855503839"><ele>126.6</ele><time>2026-04-25T11:35:41Z</time></trkpt><trkpt lat="45.440694283562244" lon="11.123536728563616"><ele>126.0</ele><time>2026-04-25T11:35:42Z</time></trkpt><trkpt lat="45.44074270354773" lon="11.12361273641974"><ele>126.0</ele><time>2026-04-25T11:35:43Z</time></trkpt><trkpt lat="45.44074167563292" lon="11.12371136699666"><ele>126.0</ele><time>2026-04-25T11:35:44Z</time></trkpt><trkpt lat="45.44066196126575" lon="11.123844725368249"><ele>126.0</ele><time>2026-04-25T11:35:46Z</time></trkpt><trkpt lat="45.44056598777802" lon="11.123878237450294"><ele>126.0</ele><time>2026-04-25T11:35:47Z</time></trkpt><trkpt lat="45.44045618602229" lon="11.123910776013242"><ele>126.0</ele><time>2026-04-25T11:35:48Z</time></trkpt><trkpt lat="45.440356666696935" lon="11.123956215178318"><ele>126.0</ele><time>2026-04-25T11:35:49Z</time></trkpt><trkpt lat="45.44025340544953" lon="11.124031100929432"><ele>126.0</ele><time>2026-04-25T11:35:50.001Z</time></trkpt><trkpt lat="45.44015169284886" lon="11.124118139751376"><ele>126.0</ele><time>2026-04-25T11:35:51.001Z</time></trkpt><trkpt lat="45.44007218911743" lon="11.12421861730604"><ele>126.0</ele><time>2026-04-25T11:35:52.001Z</time></trkpt><trkpt lat="45.44001197414094" lon="11.124299310720767"><ele>126.0</ele><time>2026-04-25T11:35:53.001Z</time></trkpt><trkpt lat="45.43994282512795" lon="11.124389452915056"><ele>127.4</ele><time>2026-04-25T11:35:55.001Z</time></trkpt><trkpt lat="45.43986314388502" lon="11.1244360707321"><ele>128.8</ele><time>2026-04-25T11:35:56.001Z</time></trkpt><trkpt lat="45.43975838543588" lon="11.124470472432664"><ele>130.20000000000002</ele><time>2026-04-25T11:35:57.001Z</time></trkpt><trkpt lat="45.439630549235" lon="11.124473901184977"><ele>131.6</ele><time>2026-04-25T11:35:58.001Z</time></trkpt><trkpt lat="45.439510273112305" lon="11.124483352192591"><ele>133.0</ele><time>2026-04-25T11:35:59.001Z</time></trkpt><trkpt lat="45.43940336468698" lon="11.124531406542294"><ele>133.0</ele><time>2026-04-25T11:36:00.001Z</time></trkpt><trkpt lat="45.4393057212802" lon="11.124598574164954"><ele>133.0</ele><time>2026-04-25T11:36:01.001Z</time></trkpt><trkpt lat="45.439214647019895" lon="11.124649588771147"><ele>133.0</ele><time>2026-04-25T11:36:02.001Z</time></trkpt><trkpt lat="45.43912532665031" lon="11.124674766588154"><ele>133.0</ele><time>2026-04-25T11:36:03.001Z</time></trkpt><trkpt lat="45.43902826089947" lon="11.124677518093238"><ele>133.0</ele><time>2026-04-25T11:36:04.001Z</time></trkpt><trkpt lat="45.43891900500611" lon="11.124645394681098"><ele>133.0</ele><time>2026-04-25T11:36:05.001Z</time></trkpt><trkpt lat="45.4388040725766" lon="11.124578600750468"><ele>133.0</ele><time>2026-04-25T11:36:06.001Z</time></trkpt><trkpt lat="45.43867751999467" lon="11.12451073472281"><ele>133.0</ele><time>2026-04-25T11:36:07.001Z</time></trkpt><trkpt lat="45.4385392045142" lon="11.124470814677059"><ele>133.0</ele><time>2026-04-25T11:36:08.001Z</time></trkpt><trkpt lat="45.43840224013197" lon="11.124472189632728"><ele>132.5</ele><time>2026-04-25T11:36:09.001Z</time></trkpt><trkpt lat="45.438279813426746" lon="11.124496652831471"><ele>132.0</ele><time>2026-04-25T11:36:10.001Z</time></trkpt><trkpt lat="45.43815727077475" lon="11.124540321770349"><ele>131.5</ele><time>2026-04-25T11:36:11.001Z</time></trkpt><trkpt lat="45.43803587017845" lon="11.124588348800339"><ele>131.0</ele><time>2026-04-25T11:36:12.001Z</time></trkpt><trkpt lat="45.437913104892914" lon="11.124645603656685"><ele>130.25</ele><time>2026-04-25T11:36:13.001Z</time></trkpt><trkpt lat="45.43778812208279" lon="11.124693125382876"><ele>129.5</ele><time>2026-04-25T11:36:14.001Z</time></trkpt><trkpt lat="45.437665642410124" lon="11.12473671081058"><ele>128.75</ele><time>2026-04-25T11:36:15.001Z</time></trkpt><trkpt lat="45.437536241811046" lon="11.124780337496828"><ele>128.0</ele><time>2026-04-25T11:36:16.001Z</time></trkpt><trkpt lat="45.437408805620194" lon="11.124811591701038"><ele>128.0</ele><time>2026-04-25T11:36:17.001Z</time></trkpt><trkpt lat="45.43729019042709" lon="11.12482274151"><ele>128.0</ele><time>2026-04-25T11:36:18.001Z</time></trkpt><trkpt lat="45.43716692891658" lon="11.124808536402142"><ele>128.0</ele><time>2026-04-25T11:36:19.001Z</time></trkpt><trkpt lat="45.43704275946277" lon="11.12477596053268"><ele>128.0</ele><time>2026-04-25T11:36:20.001Z</time></trkpt><trkpt lat="45.43691638225362" lon="11.124732115167044"><ele>129.5</ele><time>2026-04-25T11:36:21.001Z</time></trkpt><trkpt lat="45.43679567682503" lon="11.124647421828739"><ele>131.0</ele><time>2026-04-25T11:36:22.001Z</time></trkpt><trkpt lat="45.436675911412195" lon="11.124595197624199"><ele>132.5</ele><time>2026-04-25T11:36:23.001Z</time></trkpt><trkpt lat="45.43656263028566" lon="11.124526957973996"><ele>134.0</ele><time>2026-04-25T11:36:24.001Z</time></trkpt><trkpt lat="45.43645433875467" lon="11.124467345730341"><ele>134.0</ele><time>2026-04-25T11:36:25.001Z</time></trkpt><trkpt lat="45.43634427038805" lon="11.124415354760542"><ele>134.0</ele><time>2026-04-25T11:36:26.001Z</time></trkpt><trkpt lat="45.43622008207644" lon="11.124364258211543"><ele>134.0</ele><time>2026-04-25T11:36:27.001Z</time></trkpt><trkpt lat="45.436089156656784" lon="11.124318853952047"><ele>134.0</ele><time>2026-04-25T11:36:28.001Z</time></trkpt><trkpt lat="45.43595545787169" lon="11.124278426423972"><ele>135.75</ele><time>2026-04-25T11:36:29.001Z</time></trkpt><trkpt lat="45.43581849401637" lon="11.1242612724074"><ele>137.5</ele><time>2026-04-25T11:36:30.001Z</time></trkpt><trkpt lat="45.43567205851297" lon="11.124258217388105"><ele>139.25</ele><time>2026-04-25T11:36:31.001Z</time></trkpt><trkpt lat="45.43552982958203" lon="11.124256499320312"><ele>141.0</ele><time>2026-04-25T11:36:32.001Z</time></trkpt><trkpt lat="45.43540308854871" lon="11.124225095733628"><ele>140.25</ele><time>2026-04-25T11:36:33.001Z</time></trkpt><trkpt lat="45.43528764802441" lon="11.124127094893387"><ele>139.5</ele><time>2026-04-25T11:36:34.001Z</time></trkpt><trkpt lat="45.435156839827506" lon="11.124044179204827"><ele>138.75</ele><time>2026-04-25T11:36:35.001Z</time></trkpt><trkpt lat="45.43504283947186" lon="11.12392047933099"><ele>138.0</ele><time>2026-04-25T11:36:36.001Z</time></trkpt><trkpt lat="45.43492560368499" lon="11.123820503242332"><ele>138.0</ele><time>2026-04-25T11:36:37.001Z</time></trkpt><trkpt lat="45.434829209378215" lon="11.123725505829366"><ele>138.0</ele><time>2026-04-25T11:36:38.001Z</time></trkpt><trkpt lat="45.434734982060135" lon="11.123637693090044"><ele>138.0</ele><time>2026-04-25T11:36:39Z</time></trkpt><trkpt lat="45.43462846972011" lon="11.123533341430905"><ele>138.0</ele><time>2026-04-25T11:36:40Z</time></trkpt><trkpt lat="45.43452012321941" lon="11.12342678514086"><ele>137.0</ele><time>2026-04-25T11:36:41Z</time></trkpt><trkpt lat="45.434411211553964" lon="11.123322012762959"><ele>136.0</ele><time>2026-04-25T11:36:42Z</time></trkpt><trkpt lat="45.434293007673304" lon="11.123229681666077"><ele>135.0</ele><time>2026-04-25T11:36:43Z</time></trkpt><trkpt lat="45.43416033126295" lon="11.1231610705488"><ele>134.0</ele><time>2026-04-25T11:36:44Z</time></trkpt><trkpt lat="45.43402013439459" lon="11.123109999456254"><ele>134.0</ele><time>2026-04-25T11:36:45Z</time></trkpt><trkpt lat="45.4338760553064" lon="11.12305972687665"><ele>134.0</ele><time>2026-04-25T11:36:46Z</time></trkpt><trkpt lat="45.4337407514136" lon="11.123004841936527"><ele>134.0</ele><time>2026-04-25T11:36:47Z</time></trkpt><trkpt lat="45.43361984983989" lon="11.122945467245925"><ele>134.0</ele><time>2026-04-25T11:36:48Z</time></trkpt><trkpt lat="45.433504107681294" lon="11.122881516659865"><ele>134.6</ele><time>2026-04-25T11:36:49Z</time></trkpt><trkpt lat="45.433406936279056" lon="11.122817273167913"><ele>135.2</ele><time>2026-04-25T11:36:50Z</time></trkpt><trkpt lat="45.43334947176561" lon="11.122746722196561"><ele>135.79999999999998</ele><time>2026-04-25T11:36:51Z</time></trkpt><trkpt lat="45.433285561809285" lon="11.12271920852245"><ele>136.4</ele><time>2026-04-25T11:36:52Z</time></trkpt><trkpt lat="45.43323312380872" lon="11.122644135939293"><ele>137.0</ele><time>2026-04-25T11:36:54Z</time></trkpt><trkpt lat="45.433155646040014" lon="11.122806644913366"><ele>137.0</ele><time>2026-04-25T11:36:56Z</time></trkpt><trkpt lat="45.433109308022466" lon="11.122962228100683"><ele>137.0</ele><time>2026-04-25T11:36:58Z</time></trkpt><trkpt lat="45.43309385135549" lon="11.123055904502406"><ele>137.0</ele><time>2026-04-25T11:36:59Z</time></trkpt><trkpt lat="45.43303490556937" lon="11.123162479956965"><ele>137.0</ele><time>2026-04-25T11:37:01Z</time></trkpt><trkpt lat="45.43291375196244" lon="11.123069145932886"><ele>137.0</ele><time>2026-04-25T11:37:03Z</time></trkpt><trkpt lat="45.432831292073026" lon="11.123020057947274"><ele>137.4</ele><time>2026-04-25T11:37:04Z</time></trkpt><trkpt lat="45.432737319952224" lon="11.122962347379659"><ele>137.79999999999998</ele><time>2026-04-25T11:37:05Z</time></trkpt><trkpt lat="45.43264582943959" lon="11.122922287646533"><ele>138.2</ele><time>2026-04-25T11:37:06Z</time></trkpt><trkpt lat="45.43255550529535" lon="11.122864750390326"><ele>138.6</ele><time>2026-04-25T11:37:07Z</time></trkpt><trkpt lat="45.43246055682059" lon="11.122796385929147"><ele>139.0</ele><time>2026-04-25T11:37:08Z</time></trkpt><trkpt lat="45.432362989888375" lon="11.122693497043672"><ele>139.0</ele><time>2026-04-25T11:37:09Z</time></trkpt><trkpt lat="45.43225386833956" lon="11.122624396119182"><ele>139.0</ele><time>2026-04-25T11:37:10Z</time></trkpt><trkpt lat="45.43214840013256" lon="11.122554248661093"><ele>139.0</ele><time>2026-04-25T11:37:11Z</time></trkpt><trkpt lat="45.43202847557789" lon="11.122477343076842"><ele>139.0</ele><time>2026-04-25T11:37:12Z</time></trkpt><trkpt lat="45.431882575080905" lon="11.122401397963317"><ele>136.5</ele><time>2026-04-25T11:37:13Z</time></trkpt><trkpt lat="45.43173212168498" lon="11.122320013898012"><ele>134.0</ele><time>2026-04-25T11:37:14Z</time></trkpt><trkpt lat="45.431597383238675" lon="11.12224628397173"><ele>131.5</ele><time>2026-04-25T11:37:15Z</time></trkpt><trkpt lat="45.43148256047383" lon="11.122181555969972"><ele>129.0</ele><time>2026-04-25T11:37:16Z</time></trkpt><trkpt lat="45.431378321871115" lon="11.122138010682583"><ele>128.4</ele><time>2026-04-25T11:37:17Z</time></trkpt><trkpt lat="45.43127676946808" lon="11.122116395814313"><ele>127.80000000000001</ele><time>2026-04-25T11:37:18Z</time></trkpt><trkpt lat="45.4311601021998" lon="11.122111483406828"><ele>127.19999999999999</ele><time>2026-04-25T11:37:19Z</time></trkpt><trkpt lat="45.43105658372593" lon="11.122100809972585"><ele>126.6</ele><time>2026-04-25T11:37:20Z</time></trkpt><trkpt lat="45.43097560182519" lon="11.122093885497584"><ele>126.0</ele><time>2026-04-25T11:37:21Z</time></trkpt><trkpt lat="45.43088925080626" lon="11.12207380248193"><ele>126.0</ele><time>2026-04-25T11:37:23Z</time></trkpt><trkpt lat="45.43087662781314" lon="11.122260280553853"><ele>126.0</ele><time>2026-04-25T11:37:24Z</time></trkpt><trkpt lat="45.4308845236875" lon="11.122382933863003"><ele>126.0</ele><time>2026-04-25T11:37:25Z</time></trkpt><trkpt lat="45.430852195776986" lon="11.122518458354936"><ele>126.0</ele><time>2026-04-25T11:37:26Z</time></trkpt><trkpt lat="45.430852544398576" lon="11.122653742317608"><ele>126.0</ele><time>2026-04-25T11:37:27Z</time></trkpt><trkpt lat="45.430818037441" lon="11.122753085109084"><ele>127.0</ele><time>2026-04-25T11:37:28Z</time></trkpt><trkpt lat="45.43078284323274" lon="11.122833359413363"><ele>128.0</ele><time>2026-04-25T11:37:29Z</time></trkpt><trkpt lat="45.430657181137654" lon="11.122861571094802"><ele>129.0</ele><time>2026-04-25T11:37:31Z</time></trkpt><trkpt lat="45.430580676666196" lon="11.122772046719549"><ele>130.0</ele><time>2026-04-25T11:37:32Z</time></trkpt><trkpt lat="45.43050913479595" lon="11.122755840532959"><ele>131.0</ele><time>2026-04-25T11:37:33Z</time></trkpt><trkpt lat="45.43042835812954" lon="11.122872459532603"><ele>131.0</ele><time>2026-04-25T11:37:35Z</time></trkpt><trkpt lat="45.430403758519894" lon="11.12297197222149"><ele>131.0</ele><time>2026-04-25T11:37:36Z</time></trkpt><trkpt lat="45.43038840864745" lon="11.123120858012449"><ele>131.0</ele><time>2026-04-25T11:37:37Z</time></trkpt><trkpt lat="45.43035977594509" lon="11.123251374221592"><ele>131.0</ele><time>2026-04-25T11:37:38Z</time></trkpt><trkpt lat="45.4303283835489" lon="11.123373786514767"><ele>131.0</ele><time>2026-04-25T11:37:39Z</time></trkpt><trkpt lat="45.43029985579367" lon="11.123479632848518"><ele>131.0</ele><time>2026-04-25T11:37:40Z</time></trkpt><trkpt lat="45.43020696005451" lon="11.123569257315374"><ele>131.0</ele><time>2026-04-25T11:37:42Z</time></trkpt><trkpt lat="45.43013581705603" lon="11.123545771024515"><ele>131.0</ele><time>2026-04-25T11:37:43Z</time></trkpt><trkpt lat="45.430045125274944" lon="11.123504141352488"><ele>131.0</ele><time>2026-04-25T11:37:44Z</time></trkpt><trkpt lat="45.42995526506398" lon="11.123453718785415"><ele>131.0</ele><time>2026-04-25T11:37:45Z</time></trkpt><trkpt lat="45.429872924362876" lon="11.123419553192589"><ele>131.0</ele><time>2026-04-25T11:37:46Z</time></trkpt><trkpt lat="45.42981082954937" lon="11.12339378823852"><ele>131.0</ele><time>2026-04-25T11:37:47Z</time></trkpt><trkpt lat="45.4298036974346" lon="11.123247106355285"><ele>131.0</ele><time>2026-04-25T11:37:50Z</time></trkpt><trkpt lat="45.42981602654415" lon="11.12311409350744"><ele>131.0</ele><time>2026-04-25T11:37:52Z</time></trkpt><trkpt lat="45.42984154794204" lon="11.1230290870025"><ele>131.0</ele><time>2026-04-25T11:40:59Z</time></trkpt><trkpt lat="45.4299011227172" lon="11.122982201462902"><ele>131.0</ele><time>2026-04-25T11:41:34Z</time></trkpt></trkseg></trk></gpx>